<?xml version="1.0" encoding="UTF-8" standalone="no" ?>
<gpx xmlns="http://www.topografix.com/GPX/1/1" xmlns:xsi="http://www.w3.org/2001/XMLSchema-instance" xsi:schemaLocation="http://www.topografix.com/GPX/1/1 http://www.topografix.com/GPX/1/1/gpx.xsd" version="1.1" creator="VisuGPX - https://www.visugpx.com">
  <metadata>
    <name>lundi 2015 06</name>
    <desc><![CDATA[cumul juin 2015]]></desc>
  </metadata>
  <trk>
    <name><![CDATA[08/06/2015 20:22]]></name>
    <extensions>
      <line xmlns="http://www.topografix.com/GPX/gpx_style/0/2">
        <color>000000</color>
      </line>
    </extensions>
    <trkseg>
      <trkpt lat="48.85746" lon="2.34694">
        <ele>85.6</ele>
        <time>2015-06-08T18:22:39.779Z</time>
      </trkpt>
      <trkpt lat="48.8574" lon="2.34691">
        <ele>86.4</ele>
        <time>2015-06-08T18:23:32.006Z</time>
      </trkpt>
      <trkpt lat="48.85737" lon="2.34691">
        <ele>86.6</ele>
        <time>2015-06-08T18:23:33.042Z</time>
      </trkpt>
      <trkpt lat="48.85729" lon="2.34691">
        <ele>86.6</ele>
        <time>2015-06-08T18:23:35.962Z</time>
      </trkpt>
      <trkpt lat="48.85726" lon="2.3469">
        <ele>86.7</ele>
        <time>2015-06-08T18:23:36.961Z</time>
      </trkpt>
      <trkpt lat="48.85719" lon="2.34689">
        <ele>86.8</ele>
        <time>2015-06-08T18:23:38.996Z</time>
      </trkpt>
      <trkpt lat="48.85716" lon="2.34689">
        <ele>86.8</ele>
        <time>2015-06-08T18:23:39.966Z</time>
      </trkpt>
      <trkpt lat="48.85709" lon="2.34687">
        <ele>86.8</ele>
        <time>2015-06-08T18:23:42.017Z</time>
      </trkpt>
      <trkpt lat="48.85706" lon="2.34685">
        <ele>87</ele>
        <time>2015-06-08T18:23:43.026Z</time>
      </trkpt>
      <trkpt lat="48.857" lon="2.34681">
        <ele>87</ele>
        <time>2015-06-08T18:23:44.948Z</time>
      </trkpt>
      <trkpt lat="48.85697" lon="2.34678">
        <ele>86.9</ele>
        <time>2015-06-08T18:23:45.980Z</time>
      </trkpt>
      <trkpt lat="48.85691" lon="2.34675">
        <ele>86.7</ele>
        <time>2015-06-08T18:23:48Z</time>
      </trkpt>
      <trkpt lat="48.85688" lon="2.34673">
        <ele>86.8</ele>
        <time>2015-06-08T18:23:49.014Z</time>
      </trkpt>
      <trkpt lat="48.85682" lon="2.34669">
        <ele>86.9</ele>
        <time>2015-06-08T18:23:50.969Z</time>
      </trkpt>
      <trkpt lat="48.85679" lon="2.34667">
        <ele>86.9</ele>
        <time>2015-06-08T18:23:51.995Z</time>
      </trkpt>
      <trkpt lat="48.85674" lon="2.34663">
        <ele>86.8</ele>
        <time>2015-06-08T18:23:53.961Z</time>
      </trkpt>
      <trkpt lat="48.85671" lon="2.34661">
        <ele>86.5</ele>
        <time>2015-06-08T18:23:55.003Z</time>
      </trkpt>
      <trkpt lat="48.85665" lon="2.34658">
        <ele>86.6</ele>
        <time>2015-06-08T18:23:56.959Z</time>
      </trkpt>
      <trkpt lat="48.85661" lon="2.34656">
        <ele>86.9</ele>
        <time>2015-06-08T18:23:58.030Z</time>
      </trkpt>
      <trkpt lat="48.85654" lon="2.34653">
        <ele>87.1</ele>
        <time>2015-06-08T18:23:59.952Z</time>
      </trkpt>
      <trkpt lat="48.85651" lon="2.3465">
        <ele>87.1</ele>
        <time>2015-06-08T18:24:00.971Z</time>
      </trkpt>
      <trkpt lat="48.85645" lon="2.34644">
        <ele>87.1</ele>
        <time>2015-06-08T18:24:02.997Z</time>
      </trkpt>
      <trkpt lat="48.85642" lon="2.34642">
        <ele>87</ele>
        <time>2015-06-08T18:24:04.002Z</time>
      </trkpt>
      <trkpt lat="48.85634" lon="2.34639">
        <ele>86.8</ele>
        <time>2015-06-08T18:24:08.053Z</time>
      </trkpt>
      <trkpt lat="48.85633" lon="2.34638">
        <ele>86.5</ele>
        <time>2015-06-08T18:24:08.959Z</time>
      </trkpt>
      <trkpt lat="48.85634" lon="2.34638">
        <ele>86.4</ele>
        <time>2015-06-08T18:24:09.976Z</time>
      </trkpt>
      <trkpt lat="48.85635" lon="2.34637">
        <ele>85.9</ele>
        <time>2015-06-08T18:24:23.980Z</time>
      </trkpt>
      <trkpt lat="48.85634" lon="2.34637">
        <ele>86</ele>
        <time>2015-06-08T18:24:25.001Z</time>
      </trkpt>
      <trkpt lat="48.85627" lon="2.34637">
        <ele>86.5</ele>
        <time>2015-06-08T18:24:30.023Z</time>
      </trkpt>
      <trkpt lat="48.85625" lon="2.34637">
        <ele>86.5</ele>
        <time>2015-06-08T18:24:31.066Z</time>
      </trkpt>
      <trkpt lat="48.85619" lon="2.34635">
        <ele>86.6</ele>
        <time>2015-06-08T18:24:33.994Z</time>
      </trkpt>
      <trkpt lat="48.85616" lon="2.34634">
        <ele>86.7</ele>
        <time>2015-06-08T18:24:35.013Z</time>
      </trkpt>
      <trkpt lat="48.85611" lon="2.34628">
        <ele>86.7</ele>
        <time>2015-06-08T18:24:36.944Z</time>
      </trkpt>
      <trkpt lat="48.85608" lon="2.34625">
        <ele>86.7</ele>
        <time>2015-06-08T18:24:37.985Z</time>
      </trkpt>
      <trkpt lat="48.85602" lon="2.3462">
        <ele>86.8</ele>
        <time>2015-06-08T18:24:39.902Z</time>
      </trkpt>
      <trkpt lat="48.85599" lon="2.34619">
        <ele>86.8</ele>
        <time>2015-06-08T18:24:40.958Z</time>
      </trkpt>
      <trkpt lat="48.85592" lon="2.34618">
        <ele>86.9</ele>
        <time>2015-06-08T18:24:44.041Z</time>
      </trkpt>
      <trkpt lat="48.85589" lon="2.34617">
        <ele>86.9</ele>
        <time>2015-06-08T18:24:44.931Z</time>
      </trkpt>
      <trkpt lat="48.85581" lon="2.34614">
        <ele>86.9</ele>
        <time>2015-06-08T18:24:47.974Z</time>
      </trkpt>
      <trkpt lat="48.85579" lon="2.34612">
        <ele>86.9</ele>
        <time>2015-06-08T18:24:49.005Z</time>
      </trkpt>
      <trkpt lat="48.85572" lon="2.34607">
        <ele>86.1</ele>
        <time>2015-06-08T18:24:50.946Z</time>
      </trkpt>
      <trkpt lat="48.85569" lon="2.34604">
        <ele>85.9</ele>
        <time>2015-06-08T18:24:52.013Z</time>
      </trkpt>
      <trkpt lat="48.85563" lon="2.34598">
        <ele>85.7</ele>
        <time>2015-06-08T18:24:53.946Z</time>
      </trkpt>
      <trkpt lat="48.85559" lon="2.34596">
        <ele>85.6</ele>
        <time>2015-06-08T18:24:54.969Z</time>
      </trkpt>
      <trkpt lat="48.85551" lon="2.34597">
        <ele>86.5</ele>
        <time>2015-06-08T18:24:56.982Z</time>
      </trkpt>
      <trkpt lat="48.85548" lon="2.346">
        <ele>87</ele>
        <time>2015-06-08T18:24:57.977Z</time>
      </trkpt>
      <trkpt lat="48.85545" lon="2.34613">
        <ele>87.4</ele>
        <time>2015-06-08T18:25:01.087Z</time>
      </trkpt>
      <trkpt lat="48.85544" lon="2.34616">
        <ele>87.5</ele>
        <time>2015-06-08T18:25:02.008Z</time>
      </trkpt>
      <trkpt lat="48.85541" lon="2.34629">
        <ele>88</ele>
        <time>2015-06-08T18:25:04.954Z</time>
      </trkpt>
      <trkpt lat="48.85541" lon="2.34632">
        <ele>88.1</ele>
        <time>2015-06-08T18:25:05.981Z</time>
      </trkpt>
      <trkpt lat="48.85539" lon="2.34645">
        <ele>88.7</ele>
        <time>2015-06-08T18:25:08.993Z</time>
      </trkpt>
      <trkpt lat="48.85537" lon="2.3465">
        <ele>89.1</ele>
        <time>2015-06-08T18:25:10.012Z</time>
      </trkpt>
      <trkpt lat="48.85534" lon="2.34659">
        <ele>89.7</ele>
        <time>2015-06-08T18:25:11.960Z</time>
      </trkpt>
      <trkpt lat="48.85533" lon="2.34664">
        <ele>90.1</ele>
        <time>2015-06-08T18:25:13.017Z</time>
      </trkpt>
      <trkpt lat="48.85529" lon="2.34672">
        <ele>90.9</ele>
        <time>2015-06-08T18:25:14.958Z</time>
      </trkpt>
      <trkpt lat="48.85527" lon="2.34676">
        <ele>91.4</ele>
        <time>2015-06-08T18:25:15.982Z</time>
      </trkpt>
      <trkpt lat="48.85522" lon="2.34685">
        <ele>92.1</ele>
        <time>2015-06-08T18:25:17.965Z</time>
      </trkpt>
      <trkpt lat="48.8552" lon="2.3469">
        <ele>92.5</ele>
        <time>2015-06-08T18:25:19.007Z</time>
      </trkpt>
      <trkpt lat="48.85516" lon="2.34699">
        <ele>92.9</ele>
        <time>2015-06-08T18:25:20.973Z</time>
      </trkpt>
      <trkpt lat="48.85514" lon="2.34704">
        <ele>93.1</ele>
        <time>2015-06-08T18:25:22.060Z</time>
      </trkpt>
      <trkpt lat="48.85507" lon="2.34712">
        <ele>94</ele>
        <time>2015-06-08T18:25:24.991Z</time>
      </trkpt>
      <trkpt lat="48.85505" lon="2.34715">
        <ele>94.2</ele>
        <time>2015-06-08T18:25:26.014Z</time>
      </trkpt>
      <trkpt lat="48.85499" lon="2.34724">
        <ele>94.5</ele>
        <time>2015-06-08T18:25:28.959Z</time>
      </trkpt>
      <trkpt lat="48.85497" lon="2.34727">
        <ele>94.6</ele>
        <time>2015-06-08T18:25:30.014Z</time>
      </trkpt>
      <trkpt lat="48.85491" lon="2.34736">
        <ele>94.8</ele>
        <time>2015-06-08T18:25:33.816Z</time>
      </trkpt>
      <trkpt lat="48.85489" lon="2.34738">
        <ele>94.9</ele>
        <time>2015-06-08T18:25:34.827Z</time>
      </trkpt>
      <trkpt lat="48.85483" lon="2.34747">
        <ele>95</ele>
        <time>2015-06-08T18:25:37.863Z</time>
      </trkpt>
      <trkpt lat="48.85482" lon="2.3475">
        <ele>95.1</ele>
        <time>2015-06-08T18:25:38.771Z</time>
      </trkpt>
      <trkpt lat="48.85477" lon="2.34759">
        <ele>94.9</ele>
        <time>2015-06-08T18:25:40.964Z</time>
      </trkpt>
      <trkpt lat="48.85476" lon="2.34762">
        <ele>94.9</ele>
        <time>2015-06-08T18:25:42.828Z</time>
      </trkpt>
      <trkpt lat="48.85468" lon="2.34765">
        <ele>94.7</ele>
        <time>2015-06-08T18:25:47.814Z</time>
      </trkpt>
      <trkpt lat="48.85466" lon="2.34764">
        <ele>94.5</ele>
        <time>2015-06-08T18:25:48.819Z</time>
      </trkpt>
      <trkpt lat="48.8546" lon="2.34762">
        <ele>94</ele>
        <time>2015-06-08T18:25:50.855Z</time>
      </trkpt>
      <trkpt lat="48.85457" lon="2.34761">
        <ele>93.8</ele>
        <time>2015-06-08T18:25:51.747Z</time>
      </trkpt>
      <trkpt lat="48.8545" lon="2.34758">
        <ele>93.1</ele>
        <time>2015-06-08T18:25:53.817Z</time>
      </trkpt>
      <trkpt lat="48.85447" lon="2.34756">
        <ele>93.2</ele>
        <time>2015-06-08T18:25:54.834Z</time>
      </trkpt>
      <trkpt lat="48.8544" lon="2.34754">
        <ele>93</ele>
        <time>2015-06-08T18:25:56.780Z</time>
      </trkpt>
      <trkpt lat="48.85436" lon="2.34753">
        <ele>92.9</ele>
        <time>2015-06-08T18:25:57.891Z</time>
      </trkpt>
      <trkpt lat="48.8543" lon="2.34749">
        <ele>92.5</ele>
        <time>2015-06-08T18:25:59.763Z</time>
      </trkpt>
      <trkpt lat="48.85427" lon="2.34747">
        <ele>92.5</ele>
        <time>2015-06-08T18:26:00.745Z</time>
      </trkpt>
      <trkpt lat="48.85421" lon="2.34744">
        <ele>92.3</ele>
        <time>2015-06-08T18:26:02.757Z</time>
      </trkpt>
      <trkpt lat="48.85418" lon="2.34743">
        <ele>92.3</ele>
        <time>2015-06-08T18:26:03.765Z</time>
      </trkpt>
      <trkpt lat="48.85412" lon="2.34743">
        <ele>92.1</ele>
        <time>2015-06-08T18:26:05.787Z</time>
      </trkpt>
      <trkpt lat="48.85409" lon="2.34745">
        <ele>91.8</ele>
        <time>2015-06-08T18:26:06.809Z</time>
      </trkpt>
      <trkpt lat="48.85403" lon="2.34755">
        <ele>92.1</ele>
        <time>2015-06-08T18:26:09.846Z</time>
      </trkpt>
      <trkpt lat="48.85402" lon="2.3476">
        <ele>92.1</ele>
        <time>2015-06-08T18:26:10.748Z</time>
      </trkpt>
      <trkpt lat="48.85399" lon="2.34769">
        <ele>92.1</ele>
        <time>2015-06-08T18:26:12.772Z</time>
      </trkpt>
      <trkpt lat="48.85398" lon="2.34774">
        <ele>92.1</ele>
        <time>2015-06-08T18:26:13.754Z</time>
      </trkpt>
      <trkpt lat="48.85395" lon="2.34784">
        <ele>92.3</ele>
        <time>2015-06-08T18:26:15.802Z</time>
      </trkpt>
      <trkpt lat="48.85393" lon="2.3479">
        <ele>92.3</ele>
        <time>2015-06-08T18:26:16.814Z</time>
      </trkpt>
      <trkpt lat="48.85392" lon="2.34797">
        <ele>92.5</ele>
        <time>2015-06-08T18:26:17.822Z</time>
      </trkpt>
      <trkpt lat="48.8539" lon="2.34803">
        <ele>92.7</ele>
        <time>2015-06-08T18:26:18.826Z</time>
      </trkpt>
      <trkpt lat="48.85388" lon="2.3481">
        <ele>92.5</ele>
        <time>2015-06-08T18:26:19.768Z</time>
      </trkpt>
      <trkpt lat="48.85386" lon="2.34816">
        <ele>92.5</ele>
        <time>2015-06-08T18:26:20.876Z</time>
      </trkpt>
      <trkpt lat="48.85382" lon="2.34828">
        <ele>92.7</ele>
        <time>2015-06-08T18:26:22.763Z</time>
      </trkpt>
      <trkpt lat="48.85381" lon="2.34834">
        <ele>92.8</ele>
        <time>2015-06-08T18:26:23.775Z</time>
      </trkpt>
      <trkpt lat="48.85379" lon="2.34841">
        <ele>93</ele>
        <time>2015-06-08T18:26:24.784Z</time>
      </trkpt>
      <trkpt lat="48.85377" lon="2.34849">
        <ele>93.1</ele>
        <time>2015-06-08T18:26:25.834Z</time>
      </trkpt>
      <trkpt lat="48.85375" lon="2.34856">
        <ele>93.2</ele>
        <time>2015-06-08T18:26:26.848Z</time>
      </trkpt>
      <trkpt lat="48.85373" lon="2.34864">
        <ele>93.3</ele>
        <time>2015-06-08T18:26:27.769Z</time>
      </trkpt>
      <trkpt lat="48.85371" lon="2.34872">
        <ele>93.4</ele>
        <time>2015-06-08T18:26:29.371Z</time>
      </trkpt>
      <trkpt lat="48.8537" lon="2.34879">
        <ele>93.5</ele>
        <time>2015-06-08T18:26:29.781Z</time>
      </trkpt>
      <trkpt lat="48.85368" lon="2.34887">
        <ele>93.5</ele>
        <time>2015-06-08T18:26:30.791Z</time>
      </trkpt>
      <trkpt lat="48.85367" lon="2.34895">
        <ele>93.6</ele>
        <time>2015-06-08T18:26:31.799Z</time>
      </trkpt>
      <trkpt lat="48.85365" lon="2.34903">
        <ele>93.7</ele>
        <time>2015-06-08T18:26:32.816Z</time>
      </trkpt>
      <trkpt lat="48.85363" lon="2.34911">
        <ele>93.8</ele>
        <time>2015-06-08T18:26:33.831Z</time>
      </trkpt>
      <trkpt lat="48.85361" lon="2.34918">
        <ele>93.9</ele>
        <time>2015-06-08T18:26:34.746Z</time>
      </trkpt>
      <trkpt lat="48.8536" lon="2.34924">
        <ele>94</ele>
        <time>2015-06-08T18:26:35.774Z</time>
      </trkpt>
      <trkpt lat="48.85358" lon="2.34938">
        <ele>94.4</ele>
        <time>2015-06-08T18:26:37.764Z</time>
      </trkpt>
      <trkpt lat="48.85357" lon="2.34945">
        <ele>94.6</ele>
        <time>2015-06-08T18:26:38.776Z</time>
      </trkpt>
      <trkpt lat="48.85356" lon="2.34953">
        <ele>94.7</ele>
        <time>2015-06-08T18:26:39.782Z</time>
      </trkpt>
      <trkpt lat="48.85353" lon="2.34962">
        <ele>94.8</ele>
        <time>2015-06-08T18:26:40.797Z</time>
      </trkpt>
      <trkpt lat="48.85351" lon="2.34971">
        <ele>94.8</ele>
        <time>2015-06-08T18:26:41.834Z</time>
      </trkpt>
      <trkpt lat="48.85347" lon="2.3498">
        <ele>94.9</ele>
        <time>2015-06-08T18:26:42.736Z</time>
      </trkpt>
      <trkpt lat="48.85345" lon="2.34989">
        <ele>94.8</ele>
        <time>2015-06-08T18:26:43.764Z</time>
      </trkpt>
      <trkpt lat="48.85342" lon="2.34998">
        <ele>95.1</ele>
        <time>2015-06-08T18:26:44.837Z</time>
      </trkpt>
      <trkpt lat="48.8534" lon="2.35006">
        <ele>95.2</ele>
        <time>2015-06-08T18:26:45.738Z</time>
      </trkpt>
      <trkpt lat="48.85338" lon="2.35014">
        <ele>95.4</ele>
        <time>2015-06-08T18:26:46.736Z</time>
      </trkpt>
      <trkpt lat="48.85335" lon="2.35022">
        <ele>95.5</ele>
        <time>2015-06-08T18:26:47.739Z</time>
      </trkpt>
      <trkpt lat="48.85332" lon="2.35029">
        <ele>95.6</ele>
        <time>2015-06-08T18:26:48.751Z</time>
      </trkpt>
      <trkpt lat="48.85331" lon="2.35036">
        <ele>95.5</ele>
        <time>2015-06-08T18:26:49.766Z</time>
      </trkpt>
      <trkpt lat="48.85328" lon="2.35044">
        <ele>95.3</ele>
        <time>2015-06-08T18:26:50.770Z</time>
      </trkpt>
      <trkpt lat="48.85326" lon="2.3505">
        <ele>95.3</ele>
        <time>2015-06-08T18:26:51.773Z</time>
      </trkpt>
      <trkpt lat="48.85324" lon="2.35058">
        <ele>95.4</ele>
        <time>2015-06-08T18:26:52.776Z</time>
      </trkpt>
      <trkpt lat="48.85323" lon="2.35065">
        <ele>95.5</ele>
        <time>2015-06-08T18:26:53.781Z</time>
      </trkpt>
      <trkpt lat="48.85321" lon="2.35072">
        <ele>95.5</ele>
        <time>2015-06-08T18:26:54.706Z</time>
      </trkpt>
      <trkpt lat="48.85319" lon="2.35078">
        <ele>95.6</ele>
        <time>2015-06-08T18:26:55.710Z</time>
      </trkpt>
      <trkpt lat="48.85316" lon="2.35085">
        <ele>95.5</ele>
        <time>2015-06-08T18:26:56.730Z</time>
      </trkpt>
      <trkpt lat="48.85313" lon="2.35092">
        <ele>95.7</ele>
        <time>2015-06-08T18:26:57.757Z</time>
      </trkpt>
      <trkpt lat="48.85311" lon="2.351">
        <ele>95.6</ele>
        <time>2015-06-08T18:26:58.764Z</time>
      </trkpt>
      <trkpt lat="48.85308" lon="2.35107">
        <ele>95.6</ele>
        <time>2015-06-08T18:26:59.774Z</time>
      </trkpt>
      <trkpt lat="48.85305" lon="2.35114">
        <ele>95.5</ele>
        <time>2015-06-08T18:27:00.779Z</time>
      </trkpt>
      <trkpt lat="48.85303" lon="2.35122">
        <ele>95.5</ele>
        <time>2015-06-08T18:27:01.788Z</time>
      </trkpt>
      <trkpt lat="48.85301" lon="2.3513">
        <ele>95.4</ele>
        <time>2015-06-08T18:27:02.799Z</time>
      </trkpt>
      <trkpt lat="48.85298" lon="2.35137">
        <ele>95.3</ele>
        <time>2015-06-08T18:27:03.818Z</time>
      </trkpt>
      <trkpt lat="48.85295" lon="2.35144">
        <ele>95.3</ele>
        <time>2015-06-08T18:27:04.827Z</time>
      </trkpt>
      <trkpt lat="48.85292" lon="2.35151">
        <ele>95</ele>
        <time>2015-06-08T18:27:05.836Z</time>
      </trkpt>
      <trkpt lat="48.8529" lon="2.35158">
        <ele>95.1</ele>
        <time>2015-06-08T18:27:06.729Z</time>
      </trkpt>
      <trkpt lat="48.85288" lon="2.35166">
        <ele>95.1</ele>
        <time>2015-06-08T18:27:07.748Z</time>
      </trkpt>
      <trkpt lat="48.85286" lon="2.35173">
        <ele>95</ele>
        <time>2015-06-08T18:27:08.770Z</time>
      </trkpt>
      <trkpt lat="48.85284" lon="2.3518">
        <ele>95</ele>
        <time>2015-06-08T18:27:09.783Z</time>
      </trkpt>
      <trkpt lat="48.85282" lon="2.35187">
        <ele>95.1</ele>
        <time>2015-06-08T18:27:10.794Z</time>
      </trkpt>
      <trkpt lat="48.8528" lon="2.35193">
        <ele>95.3</ele>
        <time>2015-06-08T18:27:11.834Z</time>
      </trkpt>
      <trkpt lat="48.85277" lon="2.35199">
        <ele>95.6</ele>
        <time>2015-06-08T18:27:12.754Z</time>
      </trkpt>
      <trkpt lat="48.85271" lon="2.35206">
        <ele>95.9</ele>
        <time>2015-06-08T18:27:14.804Z</time>
      </trkpt>
      <trkpt lat="48.85267" lon="2.35208">
        <ele>95.5</ele>
        <time>2015-06-08T18:27:15.820Z</time>
      </trkpt>
      <trkpt lat="48.85258" lon="2.35207">
        <ele>94.4</ele>
        <time>2015-06-08T18:27:17.762Z</time>
      </trkpt>
      <trkpt lat="48.85253" lon="2.35206">
        <ele>94.2</ele>
        <time>2015-06-08T18:27:18.779Z</time>
      </trkpt>
      <trkpt lat="48.85249" lon="2.35203">
        <ele>94.2</ele>
        <time>2015-06-08T18:27:19.757Z</time>
      </trkpt>
      <trkpt lat="48.85244" lon="2.35201">
        <ele>93.8</ele>
        <time>2015-06-08T18:27:20.777Z</time>
      </trkpt>
      <trkpt lat="48.85239" lon="2.35198">
        <ele>93.6</ele>
        <time>2015-06-08T18:27:21.767Z</time>
      </trkpt>
      <trkpt lat="48.85234" lon="2.35195">
        <ele>93.5</ele>
        <time>2015-06-08T18:27:22.778Z</time>
      </trkpt>
      <trkpt lat="48.85228" lon="2.35191">
        <ele>93.5</ele>
        <time>2015-06-08T18:27:23.788Z</time>
      </trkpt>
      <trkpt lat="48.85224" lon="2.35187">
        <ele>93.4</ele>
        <time>2015-06-08T18:27:24.807Z</time>
      </trkpt>
      <trkpt lat="48.85219" lon="2.35184">
        <ele>93.7</ele>
        <time>2015-06-08T18:27:25.823Z</time>
      </trkpt>
      <trkpt lat="48.85214" lon="2.35181">
        <ele>94</ele>
        <time>2015-06-08T18:27:26.827Z</time>
      </trkpt>
      <trkpt lat="48.8521" lon="2.35176">
        <ele>93.7</ele>
        <time>2015-06-08T18:27:27.835Z</time>
      </trkpt>
      <trkpt lat="48.85205" lon="2.35174">
        <ele>93.7</ele>
        <time>2015-06-08T18:27:28.843Z</time>
      </trkpt>
      <trkpt lat="48.85197" lon="2.35168">
        <ele>93.3</ele>
        <time>2015-06-08T18:27:30.749Z</time>
      </trkpt>
      <trkpt lat="48.85193" lon="2.35166">
        <ele>93.1</ele>
        <time>2015-06-08T18:27:31.797Z</time>
      </trkpt>
      <trkpt lat="48.85185" lon="2.35163">
        <ele>92.8</ele>
        <time>2015-06-08T18:27:33.834Z</time>
      </trkpt>
      <trkpt lat="48.85181" lon="2.35161">
        <ele>92.6</ele>
        <time>2015-06-08T18:27:34.740Z</time>
      </trkpt>
      <trkpt lat="48.85173" lon="2.35157">
        <ele>92.2</ele>
        <time>2015-06-08T18:27:36.778Z</time>
      </trkpt>
      <trkpt lat="48.85169" lon="2.35155">
        <ele>92</ele>
        <time>2015-06-08T18:27:37.787Z</time>
      </trkpt>
      <trkpt lat="48.85161" lon="2.35149">
        <ele>91.8</ele>
        <time>2015-06-08T18:27:39.820Z</time>
      </trkpt>
      <trkpt lat="48.85158" lon="2.35146">
        <ele>91.9</ele>
        <time>2015-06-08T18:27:40.754Z</time>
      </trkpt>
      <trkpt lat="48.85151" lon="2.3514">
        <ele>92.1</ele>
        <time>2015-06-08T18:27:42.766Z</time>
      </trkpt>
      <trkpt lat="48.85148" lon="2.35138">
        <ele>92.1</ele>
        <time>2015-06-08T18:27:43.786Z</time>
      </trkpt>
      <trkpt lat="48.85142" lon="2.35134">
        <ele>92.1</ele>
        <time>2015-06-08T18:27:45.846Z</time>
      </trkpt>
      <trkpt lat="48.85139" lon="2.35133">
        <ele>92.3</ele>
        <time>2015-06-08T18:27:46.786Z</time>
      </trkpt>
      <trkpt lat="48.85131" lon="2.35128">
        <ele>92.3</ele>
        <time>2015-06-08T18:27:49.796Z</time>
      </trkpt>
      <trkpt lat="48.85129" lon="2.35127">
        <ele>92.4</ele>
        <time>2015-06-08T18:27:50.826Z</time>
      </trkpt>
      <trkpt lat="48.8512" lon="2.35122">
        <ele>92.5</ele>
        <time>2015-06-08T18:27:56.827Z</time>
      </trkpt>
      <trkpt lat="48.85119" lon="2.3512">
        <ele>92.6</ele>
        <time>2015-06-08T18:27:57.841Z</time>
      </trkpt>
      <trkpt lat="48.85119" lon="2.3512">
        <ele>92.5</ele>
        <time>2015-06-08T18:28:00.782Z</time>
      </trkpt>
      <trkpt lat="48.85119" lon="2.3512">
        <ele>92.5</ele>
        <time>2015-06-08T18:28:01.786Z</time>
      </trkpt>
      <trkpt lat="48.85119" lon="2.3512">
        <ele>92.5</ele>
        <time>2015-06-08T18:28:07.775Z</time>
      </trkpt>
      <trkpt lat="48.85117" lon="2.35127">
        <ele>93.8</ele>
        <time>2015-06-08T18:28:08.807Z</time>
      </trkpt>
      <trkpt lat="48.8511" lon="2.3513">
        <ele>93.8</ele>
        <time>2015-06-08T18:28:14.820Z</time>
      </trkpt>
      <trkpt lat="48.85108" lon="2.3513">
        <ele>93.9</ele>
        <time>2015-06-08T18:28:15.834Z</time>
      </trkpt>
      <trkpt lat="48.85101" lon="2.35125">
        <ele>93.6</ele>
        <time>2015-06-08T18:28:20.805Z</time>
      </trkpt>
      <trkpt lat="48.851" lon="2.35123">
        <ele>93.6</ele>
        <time>2015-06-08T18:28:21.813Z</time>
      </trkpt>
      <trkpt lat="48.85093" lon="2.35121">
        <ele>93.8</ele>
        <time>2015-06-08T18:28:26.791Z</time>
      </trkpt>
      <trkpt lat="48.85091" lon="2.35121">
        <ele>93.9</ele>
        <time>2015-06-08T18:28:27.804Z</time>
      </trkpt>
      <trkpt lat="48.85084" lon="2.35124">
        <ele>94</ele>
        <time>2015-06-08T18:28:31.756Z</time>
      </trkpt>
      <trkpt lat="48.85079" lon="2.35122">
        <ele>94</ele>
        <time>2015-06-08T18:28:32.795Z</time>
      </trkpt>
      <trkpt lat="48.85072" lon="2.35127">
        <ele>94.2</ele>
        <time>2015-06-08T18:28:35.756Z</time>
      </trkpt>
      <trkpt lat="48.8507" lon="2.35127">
        <ele>94.3</ele>
        <time>2015-06-08T18:28:36.771Z</time>
      </trkpt>
      <trkpt lat="48.85064" lon="2.3512">
        <ele>94.6</ele>
        <time>2015-06-08T18:28:39.789Z</time>
      </trkpt>
      <trkpt lat="48.85061" lon="2.35116">
        <ele>94.8</ele>
        <time>2015-06-08T18:28:40.767Z</time>
      </trkpt>
      <trkpt lat="48.85056" lon="2.35106">
        <ele>94.9</ele>
        <time>2015-06-08T18:28:42.756Z</time>
      </trkpt>
      <trkpt lat="48.85053" lon="2.35102">
        <ele>95</ele>
        <time>2015-06-08T18:28:43.750Z</time>
      </trkpt>
      <trkpt lat="48.85048" lon="2.35098">
        <ele>95.3</ele>
        <time>2015-06-08T18:28:46.101Z</time>
      </trkpt>
      <trkpt lat="48.85045" lon="2.35096">
        <ele>95.4</ele>
        <time>2015-06-08T18:28:46.765Z</time>
      </trkpt>
      <trkpt lat="48.85037" lon="2.35094">
        <ele>95.7</ele>
        <time>2015-06-08T18:28:49.773Z</time>
      </trkpt>
      <trkpt lat="48.85035" lon="2.35094">
        <ele>95.8</ele>
        <time>2015-06-08T18:28:50.820Z</time>
      </trkpt>
      <trkpt lat="48.85028" lon="2.35093">
        <ele>95.6</ele>
        <time>2015-06-08T18:28:52.753Z</time>
      </trkpt>
      <trkpt lat="48.8502" lon="2.3509">
        <ele>95.8</ele>
        <time>2015-06-08T18:28:53.764Z</time>
      </trkpt>
      <trkpt lat="48.85012" lon="2.35087">
        <ele>95.9</ele>
        <time>2015-06-08T18:28:54.803Z</time>
      </trkpt>
      <trkpt lat="48.85005" lon="2.35084">
        <ele>96.1</ele>
        <time>2015-06-08T18:28:55.818Z</time>
      </trkpt>
      <trkpt lat="48.85" lon="2.3508">
        <ele>96</ele>
        <time>2015-06-08T18:28:56.828Z</time>
      </trkpt>
      <trkpt lat="48.84994" lon="2.35068">
        <ele>95.6</ele>
        <time>2015-06-08T18:28:57.747Z</time>
      </trkpt>
      <trkpt lat="48.84987" lon="2.35059">
        <ele>94.8</ele>
        <time>2015-06-08T18:28:58.751Z</time>
      </trkpt>
      <trkpt lat="48.84981" lon="2.35052">
        <ele>94.3</ele>
        <time>2015-06-08T18:28:59.760Z</time>
      </trkpt>
      <trkpt lat="48.84975" lon="2.35043">
        <ele>93.5</ele>
        <time>2015-06-08T18:29:00.776Z</time>
      </trkpt>
      <trkpt lat="48.84969" lon="2.35051">
        <ele>93.5</ele>
        <time>2015-06-08T18:29:06.788Z</time>
      </trkpt>
      <trkpt lat="48.84969" lon="2.35055">
        <ele>93.6</ele>
        <time>2015-06-08T18:29:07.805Z</time>
      </trkpt>
      <trkpt lat="48.84968" lon="2.35064">
        <ele>93.8</ele>
        <time>2015-06-08T18:29:09.743Z</time>
      </trkpt>
      <trkpt lat="48.84968" lon="2.3507">
        <ele>94</ele>
        <time>2015-06-08T18:29:10.812Z</time>
      </trkpt>
      <trkpt lat="48.84968" lon="2.35081">
        <ele>94.3</ele>
        <time>2015-06-08T18:29:12.747Z</time>
      </trkpt>
      <trkpt lat="48.84967" lon="2.35089">
        <ele>94.6</ele>
        <time>2015-06-08T18:29:13.783Z</time>
      </trkpt>
      <trkpt lat="48.84966" lon="2.35102">
        <ele>94.9</ele>
        <time>2015-06-08T18:29:15.755Z</time>
      </trkpt>
      <trkpt lat="48.84966" lon="2.35111">
        <ele>95</ele>
        <time>2015-06-08T18:29:16.826Z</time>
      </trkpt>
      <trkpt lat="48.84966" lon="2.35118">
        <ele>94.9</ele>
        <time>2015-06-08T18:29:17.751Z</time>
      </trkpt>
      <trkpt lat="48.84966" lon="2.35126">
        <ele>95.1</ele>
        <time>2015-06-08T18:29:18.759Z</time>
      </trkpt>
      <trkpt lat="48.84965" lon="2.35133">
        <ele>95.4</ele>
        <time>2015-06-08T18:29:19.770Z</time>
      </trkpt>
      <trkpt lat="48.84965" lon="2.35141">
        <ele>95.4</ele>
        <time>2015-06-08T18:29:20.778Z</time>
      </trkpt>
      <trkpt lat="48.84965" lon="2.35147">
        <ele>95.5</ele>
        <time>2015-06-08T18:29:21.814Z</time>
      </trkpt>
      <trkpt lat="48.84965" lon="2.35154">
        <ele>95.6</ele>
        <time>2015-06-08T18:29:22.742Z</time>
      </trkpt>
      <trkpt lat="48.84964" lon="2.35162">
        <ele>95.7</ele>
        <time>2015-06-08T18:29:23.747Z</time>
      </trkpt>
      <trkpt lat="48.84963" lon="2.35169">
        <ele>95.9</ele>
        <time>2015-06-08T18:29:24.769Z</time>
      </trkpt>
      <trkpt lat="48.84962" lon="2.35176">
        <ele>96.2</ele>
        <time>2015-06-08T18:29:25.775Z</time>
      </trkpt>
      <trkpt lat="48.8496" lon="2.35185">
        <ele>96.5</ele>
        <time>2015-06-08T18:29:26.855Z</time>
      </trkpt>
      <trkpt lat="48.84959" lon="2.35195">
        <ele>96.8</ele>
        <time>2015-06-08T18:29:27.746Z</time>
      </trkpt>
      <trkpt lat="48.84959" lon="2.35205">
        <ele>96.9</ele>
        <time>2015-06-08T18:29:28.759Z</time>
      </trkpt>
      <trkpt lat="48.84959" lon="2.35214">
        <ele>97</ele>
        <time>2015-06-08T18:29:29.774Z</time>
      </trkpt>
      <trkpt lat="48.8496" lon="2.35222">
        <ele>97.2</ele>
        <time>2015-06-08T18:29:30.784Z</time>
      </trkpt>
      <trkpt lat="48.8496" lon="2.35231">
        <ele>97.7</ele>
        <time>2015-06-08T18:29:31.794Z</time>
      </trkpt>
      <trkpt lat="48.84961" lon="2.35239">
        <ele>98</ele>
        <time>2015-06-08T18:29:32.806Z</time>
      </trkpt>
      <trkpt lat="48.8496" lon="2.35248">
        <ele>98.1</ele>
        <time>2015-06-08T18:29:34.304Z</time>
      </trkpt>
      <trkpt lat="48.8496" lon="2.35256">
        <ele>98.1</ele>
        <time>2015-06-08T18:29:34.743Z</time>
      </trkpt>
      <trkpt lat="48.8496" lon="2.35264">
        <ele>98.5</ele>
        <time>2015-06-08T18:29:35.740Z</time>
      </trkpt>
      <trkpt lat="48.84959" lon="2.35273">
        <ele>99.1</ele>
        <time>2015-06-08T18:29:36.749Z</time>
      </trkpt>
      <trkpt lat="48.84959" lon="2.35281">
        <ele>99.5</ele>
        <time>2015-06-08T18:29:37.759Z</time>
      </trkpt>
      <trkpt lat="48.84958" lon="2.35289">
        <ele>99.7</ele>
        <time>2015-06-08T18:29:38.789Z</time>
      </trkpt>
      <trkpt lat="48.84958" lon="2.35297">
        <ele>99.9</ele>
        <time>2015-06-08T18:29:39.807Z</time>
      </trkpt>
      <trkpt lat="48.84956" lon="2.35304">
        <ele>100.1</ele>
        <time>2015-06-08T18:29:40.829Z</time>
      </trkpt>
      <trkpt lat="48.84954" lon="2.35313">
        <ele>100.2</ele>
        <time>2015-06-08T18:29:41.736Z</time>
      </trkpt>
      <trkpt lat="48.84954" lon="2.35321">
        <ele>100.4</ele>
        <time>2015-06-08T18:29:42.753Z</time>
      </trkpt>
      <trkpt lat="48.84953" lon="2.35328">
        <ele>100.6</ele>
        <time>2015-06-08T18:29:43.761Z</time>
      </trkpt>
      <trkpt lat="48.84952" lon="2.35336">
        <ele>100.9</ele>
        <time>2015-06-08T18:29:44.775Z</time>
      </trkpt>
      <trkpt lat="48.84952" lon="2.35345">
        <ele>101</ele>
        <time>2015-06-08T18:29:45.779Z</time>
      </trkpt>
      <trkpt lat="48.84952" lon="2.35353">
        <ele>101.1</ele>
        <time>2015-06-08T18:29:46.789Z</time>
      </trkpt>
      <trkpt lat="48.84951" lon="2.35361">
        <ele>101.2</ele>
        <time>2015-06-08T18:29:47.721Z</time>
      </trkpt>
      <trkpt lat="48.84951" lon="2.35369">
        <ele>101.5</ele>
        <time>2015-06-08T18:29:48.737Z</time>
      </trkpt>
      <trkpt lat="48.84952" lon="2.35378">
        <ele>102</ele>
        <time>2015-06-08T18:29:49.758Z</time>
      </trkpt>
      <trkpt lat="48.84952" lon="2.35386">
        <ele>102.5</ele>
        <time>2015-06-08T18:29:50.797Z</time>
      </trkpt>
      <trkpt lat="48.84953" lon="2.35395">
        <ele>103.1</ele>
        <time>2015-06-08T18:29:51.813Z</time>
      </trkpt>
      <trkpt lat="48.84953" lon="2.35402">
        <ele>103.3</ele>
        <time>2015-06-08T18:29:52.822Z</time>
      </trkpt>
      <trkpt lat="48.84954" lon="2.35415">
        <ele>103.7</ele>
        <time>2015-06-08T18:29:54.754Z</time>
      </trkpt>
      <trkpt lat="48.84953" lon="2.3542">
        <ele>103.5</ele>
        <time>2015-06-08T18:29:55.762Z</time>
      </trkpt>
      <trkpt lat="48.84954" lon="2.35431">
        <ele>103.8</ele>
        <time>2015-06-08T18:29:57.793Z</time>
      </trkpt>
      <trkpt lat="48.84955" lon="2.35438">
        <ele>103.3</ele>
        <time>2015-06-08T18:29:58.794Z</time>
      </trkpt>
      <trkpt lat="48.84955" lon="2.35449">
        <ele>103.5</ele>
        <time>2015-06-08T18:30:00.747Z</time>
      </trkpt>
      <trkpt lat="48.84955" lon="2.35455">
        <ele>104.1</ele>
        <time>2015-06-08T18:30:01.753Z</time>
      </trkpt>
      <trkpt lat="48.84954" lon="2.35466">
        <ele>104.7</ele>
        <time>2015-06-08T18:30:03.812Z</time>
      </trkpt>
      <trkpt lat="48.84954" lon="2.35473">
        <ele>104.9</ele>
        <time>2015-06-08T18:30:04.813Z</time>
      </trkpt>
      <trkpt lat="48.84954" lon="2.3548">
        <ele>105.3</ele>
        <time>2015-06-08T18:30:05.739Z</time>
      </trkpt>
      <trkpt lat="48.84955" lon="2.35488">
        <ele>105.6</ele>
        <time>2015-06-08T18:30:06.738Z</time>
      </trkpt>
      <trkpt lat="48.84955" lon="2.35495">
        <ele>105.7</ele>
        <time>2015-06-08T18:30:07.904Z</time>
      </trkpt>
      <trkpt lat="48.84954" lon="2.35503">
        <ele>105.8</ele>
        <time>2015-06-08T18:30:08.771Z</time>
      </trkpt>
      <trkpt lat="48.84953" lon="2.35516">
        <ele>106.1</ele>
        <time>2015-06-08T18:30:10.792Z</time>
      </trkpt>
      <trkpt lat="48.84953" lon="2.35522">
        <ele>106.3</ele>
        <time>2015-06-08T18:30:11.792Z</time>
      </trkpt>
      <trkpt lat="48.84952" lon="2.35534">
        <ele>106.3</ele>
        <time>2015-06-08T18:30:13.750Z</time>
      </trkpt>
      <trkpt lat="48.84951" lon="2.3554">
        <ele>106.4</ele>
        <time>2015-06-08T18:30:14.790Z</time>
      </trkpt>
      <trkpt lat="48.84952" lon="2.35552">
        <ele>106.4</ele>
        <time>2015-06-08T18:30:16.720Z</time>
      </trkpt>
      <trkpt lat="48.84952" lon="2.35558">
        <ele>106.6</ele>
        <time>2015-06-08T18:30:17.754Z</time>
      </trkpt>
      <trkpt lat="48.84952" lon="2.35564">
        <ele>106.9</ele>
        <time>2015-06-08T18:30:18.734Z</time>
      </trkpt>
      <trkpt lat="48.84952" lon="2.35572">
        <ele>106.7</ele>
        <time>2015-06-08T18:30:19.738Z</time>
      </trkpt>
      <trkpt lat="48.84951" lon="2.35582">
        <ele>106.5</ele>
        <time>2015-06-08T18:30:20.787Z</time>
      </trkpt>
      <trkpt lat="48.84949" lon="2.35592">
        <ele>106.3</ele>
        <time>2015-06-08T18:30:21.791Z</time>
      </trkpt>
      <trkpt lat="48.84948" lon="2.35601">
        <ele>105.9</ele>
        <time>2015-06-08T18:30:22.806Z</time>
      </trkpt>
      <trkpt lat="48.84947" lon="2.3561">
        <ele>105.7</ele>
        <time>2015-06-08T18:30:23.817Z</time>
      </trkpt>
      <trkpt lat="48.84947" lon="2.35619">
        <ele>105.5</ele>
        <time>2015-06-08T18:30:24.768Z</time>
      </trkpt>
      <trkpt lat="48.84947" lon="2.35629">
        <ele>105.3</ele>
        <time>2015-06-08T18:30:25.756Z</time>
      </trkpt>
      <trkpt lat="48.84946" lon="2.35638">
        <ele>105.8</ele>
        <time>2015-06-08T18:30:26.775Z</time>
      </trkpt>
      <trkpt lat="48.84945" lon="2.35647">
        <ele>106.2</ele>
        <time>2015-06-08T18:30:27.805Z</time>
      </trkpt>
      <trkpt lat="48.84943" lon="2.35656">
        <ele>106.5</ele>
        <time>2015-06-08T18:30:28.761Z</time>
      </trkpt>
      <trkpt lat="48.84942" lon="2.35664">
        <ele>106.3</ele>
        <time>2015-06-08T18:30:29.768Z</time>
      </trkpt>
      <trkpt lat="48.84942" lon="2.35671">
        <ele>105.9</ele>
        <time>2015-06-08T18:30:30.772Z</time>
      </trkpt>
      <trkpt lat="48.84941" lon="2.35678">
        <ele>105.7</ele>
        <time>2015-06-08T18:30:31.781Z</time>
      </trkpt>
      <trkpt lat="48.8494" lon="2.35685">
        <ele>105.7</ele>
        <time>2015-06-08T18:30:32.805Z</time>
      </trkpt>
      <trkpt lat="48.84938" lon="2.35691">
        <ele>105.6</ele>
        <time>2015-06-08T18:30:33.834Z</time>
      </trkpt>
      <trkpt lat="48.84935" lon="2.35704">
        <ele>105.6</ele>
        <time>2015-06-08T18:30:36.786Z</time>
      </trkpt>
      <trkpt lat="48.84934" lon="2.35709">
        <ele>105.6</ele>
        <time>2015-06-08T18:30:37.751Z</time>
      </trkpt>
      <trkpt lat="48.8493" lon="2.35718">
        <ele>106.3</ele>
        <time>2015-06-08T18:30:39.780Z</time>
      </trkpt>
      <trkpt lat="48.84927" lon="2.35722">
        <ele>106.7</ele>
        <time>2015-06-08T18:30:40.756Z</time>
      </trkpt>
      <trkpt lat="48.84921" lon="2.35729">
        <ele>107.4</ele>
        <time>2015-06-08T18:30:42.797Z</time>
      </trkpt>
      <trkpt lat="48.84917" lon="2.35732">
        <ele>107.6</ele>
        <time>2015-06-08T18:30:43.814Z</time>
      </trkpt>
      <trkpt lat="48.84914" lon="2.35736">
        <ele>107.7</ele>
        <time>2015-06-08T18:30:44.840Z</time>
      </trkpt>
      <trkpt lat="48.8491" lon="2.35742">
        <ele>107.6</ele>
        <time>2015-06-08T18:30:45.745Z</time>
      </trkpt>
      <trkpt lat="48.84907" lon="2.35748">
        <ele>107.6</ele>
        <time>2015-06-08T18:30:46.779Z</time>
      </trkpt>
      <trkpt lat="48.84903" lon="2.35752">
        <ele>107.7</ele>
        <time>2015-06-08T18:30:47.783Z</time>
      </trkpt>
      <trkpt lat="48.84899" lon="2.35756">
        <ele>108</ele>
        <time>2015-06-08T18:30:48.791Z</time>
      </trkpt>
      <trkpt lat="48.84895" lon="2.3576">
        <ele>108.1</ele>
        <time>2015-06-08T18:30:49.769Z</time>
      </trkpt>
      <trkpt lat="48.84888" lon="2.35767">
        <ele>108.2</ele>
        <time>2015-06-08T18:30:51.785Z</time>
      </trkpt>
      <trkpt lat="48.84885" lon="2.35771">
        <ele>107.9</ele>
        <time>2015-06-08T18:30:52.718Z</time>
      </trkpt>
      <trkpt lat="48.84879" lon="2.3578">
        <ele>107.2</ele>
        <time>2015-06-08T18:30:54.823Z</time>
      </trkpt>
      <trkpt lat="48.84876" lon="2.35784">
        <ele>107.5</ele>
        <time>2015-06-08T18:30:55.823Z</time>
      </trkpt>
      <trkpt lat="48.84869" lon="2.35792">
        <ele>107.6</ele>
        <time>2015-06-08T18:30:57.747Z</time>
      </trkpt>
      <trkpt lat="48.84866" lon="2.35796">
        <ele>107.8</ele>
        <time>2015-06-08T18:30:58.760Z</time>
      </trkpt>
      <trkpt lat="48.84859" lon="2.35803">
        <ele>107.5</ele>
        <time>2015-06-08T18:31:00.753Z</time>
      </trkpt>
      <trkpt lat="48.84856" lon="2.35806">
        <ele>107.6</ele>
        <time>2015-06-08T18:31:01.760Z</time>
      </trkpt>
      <trkpt lat="48.84849" lon="2.35813">
        <ele>108</ele>
        <time>2015-06-08T18:31:03.823Z</time>
      </trkpt>
      <trkpt lat="48.84846" lon="2.35818">
        <ele>108.4</ele>
        <time>2015-06-08T18:31:04.744Z</time>
      </trkpt>
      <trkpt lat="48.84843" lon="2.35822">
        <ele>108.7</ele>
        <time>2015-06-08T18:31:05.754Z</time>
      </trkpt>
      <trkpt lat="48.84838" lon="2.3583">
        <ele>108.8</ele>
        <time>2015-06-08T18:31:06.763Z</time>
      </trkpt>
      <trkpt lat="48.84834" lon="2.35836">
        <ele>108.6</ele>
        <time>2015-06-08T18:31:07.783Z</time>
      </trkpt>
      <trkpt lat="48.8483" lon="2.35843">
        <ele>108.3</ele>
        <time>2015-06-08T18:31:08.788Z</time>
      </trkpt>
      <trkpt lat="48.84826" lon="2.3585">
        <ele>108.4</ele>
        <time>2015-06-08T18:31:09.790Z</time>
      </trkpt>
      <trkpt lat="48.84823" lon="2.35857">
        <ele>108.6</ele>
        <time>2015-06-08T18:31:10.795Z</time>
      </trkpt>
      <trkpt lat="48.8482" lon="2.35862">
        <ele>108.4</ele>
        <time>2015-06-08T18:31:11.805Z</time>
      </trkpt>
      <trkpt lat="48.84816" lon="2.35868">
        <ele>108.4</ele>
        <time>2015-06-08T18:31:12.824Z</time>
      </trkpt>
      <trkpt lat="48.84813" lon="2.35875">
        <ele>108.4</ele>
        <time>2015-06-08T18:31:13.839Z</time>
      </trkpt>
      <trkpt lat="48.84809" lon="2.35882">
        <ele>108.1</ele>
        <time>2015-06-08T18:31:14.847Z</time>
      </trkpt>
      <trkpt lat="48.84804" lon="2.35889">
        <ele>107.6</ele>
        <time>2015-06-08T18:31:15.772Z</time>
      </trkpt>
      <trkpt lat="48.848" lon="2.35896">
        <ele>107.5</ele>
        <time>2015-06-08T18:31:16.767Z</time>
      </trkpt>
      <trkpt lat="48.84795" lon="2.35903">
        <ele>107.5</ele>
        <time>2015-06-08T18:31:17.774Z</time>
      </trkpt>
      <trkpt lat="48.84792" lon="2.35909">
        <ele>107.2</ele>
        <time>2015-06-08T18:31:18.786Z</time>
      </trkpt>
      <trkpt lat="48.84787" lon="2.35916">
        <ele>106.8</ele>
        <time>2015-06-08T18:31:19.793Z</time>
      </trkpt>
      <trkpt lat="48.84783" lon="2.35923">
        <ele>106.3</ele>
        <time>2015-06-08T18:31:20.828Z</time>
      </trkpt>
      <trkpt lat="48.84778" lon="2.3593">
        <ele>105.9</ele>
        <time>2015-06-08T18:31:21.777Z</time>
      </trkpt>
      <trkpt lat="48.84772" lon="2.35937">
        <ele>105.9</ele>
        <time>2015-06-08T18:31:22.817Z</time>
      </trkpt>
      <trkpt lat="48.84767" lon="2.35942">
        <ele>105.7</ele>
        <time>2015-06-08T18:31:23.839Z</time>
      </trkpt>
      <trkpt lat="48.84762" lon="2.35949">
        <ele>105.6</ele>
        <time>2015-06-08T18:31:24.844Z</time>
      </trkpt>
      <trkpt lat="48.84757" lon="2.35957">
        <ele>105.4</ele>
        <time>2015-06-08T18:31:25.862Z</time>
      </trkpt>
      <trkpt lat="48.84752" lon="2.35966">
        <ele>105.3</ele>
        <time>2015-06-08T18:31:26.876Z</time>
      </trkpt>
      <trkpt lat="48.84746" lon="2.35973">
        <ele>105.2</ele>
        <time>2015-06-08T18:31:27.791Z</time>
      </trkpt>
      <trkpt lat="48.84741" lon="2.35982">
        <ele>105.5</ele>
        <time>2015-06-08T18:31:28.811Z</time>
      </trkpt>
      <trkpt lat="48.84735" lon="2.35991">
        <ele>105.6</ele>
        <time>2015-06-08T18:31:29.854Z</time>
      </trkpt>
      <trkpt lat="48.8473" lon="2.36001">
        <ele>105.7</ele>
        <time>2015-06-08T18:31:30.760Z</time>
      </trkpt>
      <trkpt lat="48.84724" lon="2.36012">
        <ele>105.7</ele>
        <time>2015-06-08T18:31:31.768Z</time>
      </trkpt>
      <trkpt lat="48.84717" lon="2.36023">
        <ele>105.7</ele>
        <time>2015-06-08T18:31:32.830Z</time>
      </trkpt>
      <trkpt lat="48.8471" lon="2.36038">
        <ele>104.8</ele>
        <time>2015-06-08T18:31:33.827Z</time>
      </trkpt>
      <trkpt lat="48.84702" lon="2.36052">
        <ele>105.1</ele>
        <time>2015-06-08T18:31:34.770Z</time>
      </trkpt>
      <trkpt lat="48.84695" lon="2.36063">
        <ele>105.1</ele>
        <time>2015-06-08T18:31:35.763Z</time>
      </trkpt>
      <trkpt lat="48.84688" lon="2.36076">
        <ele>105</ele>
        <time>2015-06-08T18:31:36.774Z</time>
      </trkpt>
      <trkpt lat="48.84682" lon="2.36088">
        <ele>104.9</ele>
        <time>2015-06-08T18:31:37.798Z</time>
      </trkpt>
      <trkpt lat="48.84675" lon="2.36101">
        <ele>105.3</ele>
        <time>2015-06-08T18:31:38.822Z</time>
      </trkpt>
      <trkpt lat="48.84669" lon="2.3611">
        <ele>105</ele>
        <time>2015-06-08T18:31:39.835Z</time>
      </trkpt>
      <trkpt lat="48.84662" lon="2.3612">
        <ele>104.6</ele>
        <time>2015-06-08T18:31:40.848Z</time>
      </trkpt>
      <trkpt lat="48.84657" lon="2.3613">
        <ele>104.3</ele>
        <time>2015-06-08T18:31:41.748Z</time>
      </trkpt>
      <trkpt lat="48.84652" lon="2.36141">
        <ele>104.5</ele>
        <time>2015-06-08T18:31:42.762Z</time>
      </trkpt>
      <trkpt lat="48.84646" lon="2.3615">
        <ele>104.6</ele>
        <time>2015-06-08T18:31:43.803Z</time>
      </trkpt>
      <trkpt lat="48.8464" lon="2.3616">
        <ele>105</ele>
        <time>2015-06-08T18:31:44.847Z</time>
      </trkpt>
      <trkpt lat="48.84634" lon="2.36169">
        <ele>105</ele>
        <time>2015-06-08T18:31:45.832Z</time>
      </trkpt>
      <trkpt lat="48.84629" lon="2.36178">
        <ele>105.2</ele>
        <time>2015-06-08T18:31:46.738Z</time>
      </trkpt>
      <trkpt lat="48.84624" lon="2.36187">
        <ele>105.4</ele>
        <time>2015-06-08T18:31:47.789Z</time>
      </trkpt>
      <trkpt lat="48.84619" lon="2.36195">
        <ele>105.6</ele>
        <time>2015-06-08T18:31:48.763Z</time>
      </trkpt>
      <trkpt lat="48.84612" lon="2.36203">
        <ele>106</ele>
        <time>2015-06-08T18:31:49.781Z</time>
      </trkpt>
      <trkpt lat="48.84608" lon="2.3621">
        <ele>105.8</ele>
        <time>2015-06-08T18:31:50.807Z</time>
      </trkpt>
      <trkpt lat="48.84602" lon="2.36218">
        <ele>105.4</ele>
        <time>2015-06-08T18:31:51.810Z</time>
      </trkpt>
      <trkpt lat="48.84597" lon="2.36226">
        <ele>105.1</ele>
        <time>2015-06-08T18:31:52.817Z</time>
      </trkpt>
      <trkpt lat="48.84591" lon="2.36234">
        <ele>104.6</ele>
        <time>2015-06-08T18:31:53.819Z</time>
      </trkpt>
      <trkpt lat="48.84585" lon="2.36242">
        <ele>104.3</ele>
        <time>2015-06-08T18:31:54.826Z</time>
      </trkpt>
      <trkpt lat="48.84579" lon="2.3625">
        <ele>103.9</ele>
        <time>2015-06-08T18:31:55.847Z</time>
      </trkpt>
      <trkpt lat="48.84574" lon="2.36257">
        <ele>103.5</ele>
        <time>2015-06-08T18:31:56.851Z</time>
      </trkpt>
      <trkpt lat="48.84569" lon="2.36264">
        <ele>102.9</ele>
        <time>2015-06-08T18:31:57.763Z</time>
      </trkpt>
      <trkpt lat="48.84563" lon="2.36272">
        <ele>103</ele>
        <time>2015-06-08T18:31:58.789Z</time>
      </trkpt>
      <trkpt lat="48.84558" lon="2.36279">
        <ele>103.1</ele>
        <time>2015-06-08T18:31:59.809Z</time>
      </trkpt>
      <trkpt lat="48.84554" lon="2.36287">
        <ele>103.2</ele>
        <time>2015-06-08T18:32:00.823Z</time>
      </trkpt>
      <trkpt lat="48.84549" lon="2.36295">
        <ele>103.2</ele>
        <time>2015-06-08T18:32:01.836Z</time>
      </trkpt>
      <trkpt lat="48.84544" lon="2.36301">
        <ele>102.3</ele>
        <time>2015-06-08T18:32:02.847Z</time>
      </trkpt>
      <trkpt lat="48.84539" lon="2.36308">
        <ele>102.8</ele>
        <time>2015-06-08T18:32:03.760Z</time>
      </trkpt>
      <trkpt lat="48.84534" lon="2.36317">
        <ele>102.4</ele>
        <time>2015-06-08T18:32:04.767Z</time>
      </trkpt>
      <trkpt lat="48.84529" lon="2.36327">
        <ele>101.3</ele>
        <time>2015-06-08T18:32:05.816Z</time>
      </trkpt>
      <trkpt lat="48.84524" lon="2.36337">
        <ele>100.9</ele>
        <time>2015-06-08T18:32:06.795Z</time>
      </trkpt>
      <trkpt lat="48.8452" lon="2.36344">
        <ele>100.5</ele>
        <time>2015-06-08T18:32:07.829Z</time>
      </trkpt>
      <trkpt lat="48.84514" lon="2.36353">
        <ele>99.8</ele>
        <time>2015-06-08T18:32:08.830Z</time>
      </trkpt>
      <trkpt lat="48.8451" lon="2.36359">
        <ele>99.6</ele>
        <time>2015-06-08T18:32:09.754Z</time>
      </trkpt>
      <trkpt lat="48.84505" lon="2.36366">
        <ele>99</ele>
        <time>2015-06-08T18:32:10.777Z</time>
      </trkpt>
      <trkpt lat="48.84502" lon="2.3637">
        <ele>98.5</ele>
        <time>2015-06-08T18:32:11.765Z</time>
      </trkpt>
      <trkpt lat="48.84498" lon="2.36374">
        <ele>98.5</ele>
        <time>2015-06-08T18:32:12.773Z</time>
      </trkpt>
      <trkpt lat="48.84492" lon="2.36382">
        <ele>98.1</ele>
        <time>2015-06-08T18:32:14.797Z</time>
      </trkpt>
      <trkpt lat="48.8449" lon="2.36387">
        <ele>98.3</ele>
        <time>2015-06-08T18:32:15.805Z</time>
      </trkpt>
      <trkpt lat="48.84484" lon="2.36395">
        <ele>97.8</ele>
        <time>2015-06-08T18:32:17.753Z</time>
      </trkpt>
      <trkpt lat="48.8448" lon="2.364">
        <ele>97.6</ele>
        <time>2015-06-08T18:32:18.782Z</time>
      </trkpt>
      <trkpt lat="48.84473" lon="2.36406">
        <ele>96.4</ele>
        <time>2015-06-08T18:32:20.828Z</time>
      </trkpt>
      <trkpt lat="48.84471" lon="2.36406">
        <ele>95.9</ele>
        <time>2015-06-08T18:32:21.981Z</time>
      </trkpt>
      <trkpt lat="48.84467" lon="2.36398">
        <ele>96.7</ele>
        <time>2015-06-08T18:32:24.841Z</time>
      </trkpt>
      <trkpt lat="48.84465" lon="2.36395">
        <ele>96.5</ele>
        <time>2015-06-08T18:32:25.854Z</time>
      </trkpt>
      <trkpt lat="48.84459" lon="2.36393">
        <ele>95.8</ele>
        <time>2015-06-08T18:32:27.793Z</time>
      </trkpt>
      <trkpt lat="48.84456" lon="2.36391">
        <ele>95.1</ele>
        <time>2015-06-08T18:32:28.841Z</time>
      </trkpt>
      <trkpt lat="48.84448" lon="2.36387">
        <ele>93.6</ele>
        <time>2015-06-08T18:32:31.824Z</time>
      </trkpt>
      <trkpt lat="48.84446" lon="2.36388">
        <ele>93.1</ele>
        <time>2015-06-08T18:32:32.904Z</time>
      </trkpt>
      <trkpt lat="48.84438" lon="2.36387">
        <ele>93.4</ele>
        <time>2015-06-08T18:32:35.794Z</time>
      </trkpt>
      <trkpt lat="48.84435" lon="2.36385">
        <ele>93.5</ele>
        <time>2015-06-08T18:32:36.905Z</time>
      </trkpt>
      <trkpt lat="48.84429" lon="2.36386">
        <ele>92.6</ele>
        <time>2015-06-08T18:32:38.849Z</time>
      </trkpt>
      <trkpt lat="48.84425" lon="2.36388">
        <ele>92.2</ele>
        <time>2015-06-08T18:32:39.842Z</time>
      </trkpt>
      <trkpt lat="48.84418" lon="2.36392">
        <ele>91.5</ele>
        <time>2015-06-08T18:32:41.778Z</time>
      </trkpt>
      <trkpt lat="48.84414" lon="2.36394">
        <ele>91.5</ele>
        <time>2015-06-08T18:32:42.779Z</time>
      </trkpt>
      <trkpt lat="48.84406" lon="2.36396">
        <ele>91.5</ele>
        <time>2015-06-08T18:32:45.809Z</time>
      </trkpt>
      <trkpt lat="48.84403" lon="2.36398">
        <ele>91.4</ele>
        <time>2015-06-08T18:32:46.819Z</time>
      </trkpt>
      <trkpt lat="48.84395" lon="2.36402">
        <ele>91.1</ele>
        <time>2015-06-08T18:32:49.868Z</time>
      </trkpt>
      <trkpt lat="48.84393" lon="2.36403">
        <ele>91.2</ele>
        <time>2015-06-08T18:32:50.808Z</time>
      </trkpt>
      <trkpt lat="48.8439" lon="2.36405">
        <ele>90.9</ele>
        <time>2015-06-08T18:32:57.773Z</time>
      </trkpt>
      <trkpt lat="48.84383" lon="2.36415">
        <ele>91.1</ele>
        <time>2015-06-08T18:32:58.764Z</time>
      </trkpt>
      <trkpt lat="48.84379" lon="2.36423">
        <ele>91.2</ele>
        <time>2015-06-08T18:33:44.850Z</time>
      </trkpt>
      <trkpt lat="48.84375" lon="2.36444">
        <ele>88.7</ele>
        <time>2015-06-08T18:33:45.779Z</time>
      </trkpt>
      <trkpt lat="48.84371" lon="2.36453">
        <ele>87.8</ele>
        <time>2015-06-08T18:33:49.874Z</time>
      </trkpt>
      <trkpt lat="48.8437" lon="2.36456">
        <ele>87.7</ele>
        <time>2015-06-08T18:33:50.889Z</time>
      </trkpt>
      <trkpt lat="48.84368" lon="2.36465">
        <ele>87.7</ele>
        <time>2015-06-08T18:33:52.828Z</time>
      </trkpt>
      <trkpt lat="48.84367" lon="2.3647">
        <ele>87.9</ele>
        <time>2015-06-08T18:33:53.847Z</time>
      </trkpt>
      <trkpt lat="48.84364" lon="2.36478">
        <ele>88.1</ele>
        <time>2015-06-08T18:33:55.761Z</time>
      </trkpt>
      <trkpt lat="48.84363" lon="2.36482">
        <ele>88.2</ele>
        <time>2015-06-08T18:33:56.821Z</time>
      </trkpt>
      <trkpt lat="48.84363" lon="2.36495">
        <ele>88.7</ele>
        <time>2015-06-08T18:34:00.050Z</time>
      </trkpt>
      <trkpt lat="48.84362" lon="2.36501">
        <ele>89.2</ele>
        <time>2015-06-08T18:34:00.769Z</time>
      </trkpt>
      <trkpt lat="48.84363" lon="2.36512">
        <ele>89.4</ele>
        <time>2015-06-08T18:34:02.841Z</time>
      </trkpt>
      <trkpt lat="48.84365" lon="2.36518">
        <ele>89.4</ele>
        <time>2015-06-08T18:34:03.782Z</time>
      </trkpt>
      <trkpt lat="48.84368" lon="2.3653">
        <ele>89.4</ele>
        <time>2015-06-08T18:34:05.792Z</time>
      </trkpt>
      <trkpt lat="48.84366" lon="2.36537">
        <ele>90.3</ele>
        <time>2015-06-08T18:34:06.807Z</time>
      </trkpt>
      <trkpt lat="48.84364" lon="2.36547">
        <ele>91.1</ele>
        <time>2015-06-08T18:34:08.839Z</time>
      </trkpt>
      <trkpt lat="48.84361" lon="2.3655">
        <ele>91.1</ele>
        <time>2015-06-08T18:34:10.110Z</time>
      </trkpt>
      <trkpt lat="48.84358" lon="2.36561">
        <ele>92.1</ele>
        <time>2015-06-08T18:34:12.841Z</time>
      </trkpt>
      <trkpt lat="48.84356" lon="2.36565">
        <ele>91.8</ele>
        <time>2015-06-08T18:34:13.848Z</time>
      </trkpt>
      <trkpt lat="48.8435" lon="2.36573">
        <ele>91.8</ele>
        <time>2015-06-08T18:34:15.773Z</time>
      </trkpt>
      <trkpt lat="48.84347" lon="2.36578">
        <ele>91.6</ele>
        <time>2015-06-08T18:34:16.809Z</time>
      </trkpt>
      <trkpt lat="48.8434" lon="2.36586">
        <ele>91</ele>
        <time>2015-06-08T18:34:18.771Z</time>
      </trkpt>
      <trkpt lat="48.84337" lon="2.36589">
        <ele>90.8</ele>
        <time>2015-06-08T18:34:19.797Z</time>
      </trkpt>
      <trkpt lat="48.84331" lon="2.36597">
        <ele>90.5</ele>
        <time>2015-06-08T18:34:21.826Z</time>
      </trkpt>
      <trkpt lat="48.84327" lon="2.366">
        <ele>90.4</ele>
        <time>2015-06-08T18:34:22.833Z</time>
      </trkpt>
      <trkpt lat="48.84321" lon="2.36608">
        <ele>90.7</ele>
        <time>2015-06-08T18:34:24.749Z</time>
      </trkpt>
      <trkpt lat="48.84318" lon="2.36611">
        <ele>90.8</ele>
        <time>2015-06-08T18:34:25.798Z</time>
      </trkpt>
      <trkpt lat="48.8431" lon="2.36617">
        <ele>90.2</ele>
        <time>2015-06-08T18:34:27.758Z</time>
      </trkpt>
      <trkpt lat="48.84307" lon="2.36622">
        <ele>89.9</ele>
        <time>2015-06-08T18:34:28.791Z</time>
      </trkpt>
      <trkpt lat="48.84301" lon="2.3663">
        <ele>89.7</ele>
        <time>2015-06-08T18:34:30.778Z</time>
      </trkpt>
      <trkpt lat="48.84299" lon="2.36633">
        <ele>89.6</ele>
        <time>2015-06-08T18:34:31.775Z</time>
      </trkpt>
      <trkpt lat="48.84293" lon="2.36642">
        <ele>89.4</ele>
        <time>2015-06-08T18:34:33.805Z</time>
      </trkpt>
      <trkpt lat="48.8429" lon="2.36645">
        <ele>89.2</ele>
        <time>2015-06-08T18:34:34.816Z</time>
      </trkpt>
      <trkpt lat="48.84287" lon="2.3665">
        <ele>88.9</ele>
        <time>2015-06-08T18:34:35.825Z</time>
      </trkpt>
      <trkpt lat="48.84283" lon="2.36654">
        <ele>88.5</ele>
        <time>2015-06-08T18:34:36.890Z</time>
      </trkpt>
      <trkpt lat="48.84279" lon="2.36659">
        <ele>88</ele>
        <time>2015-06-08T18:34:37.857Z</time>
      </trkpt>
      <trkpt lat="48.84275" lon="2.36664">
        <ele>87.9</ele>
        <time>2015-06-08T18:34:38.860Z</time>
      </trkpt>
      <trkpt lat="48.8427" lon="2.36668">
        <ele>87.3</ele>
        <time>2015-06-08T18:34:39.767Z</time>
      </trkpt>
      <trkpt lat="48.84265" lon="2.36673">
        <ele>86.6</ele>
        <time>2015-06-08T18:34:40.774Z</time>
      </trkpt>
      <trkpt lat="48.8426" lon="2.36679">
        <ele>86.3</ele>
        <time>2015-06-08T18:34:41.783Z</time>
      </trkpt>
      <trkpt lat="48.84255" lon="2.36684">
        <ele>86.5</ele>
        <time>2015-06-08T18:34:42.793Z</time>
      </trkpt>
      <trkpt lat="48.8425" lon="2.36689">
        <ele>87</ele>
        <time>2015-06-08T18:34:43.818Z</time>
      </trkpt>
      <trkpt lat="48.84245" lon="2.36695">
        <ele>87</ele>
        <time>2015-06-08T18:34:44.834Z</time>
      </trkpt>
      <trkpt lat="48.84241" lon="2.36701">
        <ele>87.2</ele>
        <time>2015-06-08T18:34:45.842Z</time>
      </trkpt>
      <trkpt lat="48.84236" lon="2.36707">
        <ele>87.2</ele>
        <time>2015-06-08T18:34:46.853Z</time>
      </trkpt>
      <trkpt lat="48.84231" lon="2.36713">
        <ele>87.1</ele>
        <time>2015-06-08T18:34:47.758Z</time>
      </trkpt>
      <trkpt lat="48.84226" lon="2.36719">
        <ele>87.2</ele>
        <time>2015-06-08T18:34:48.781Z</time>
      </trkpt>
      <trkpt lat="48.84221" lon="2.36725">
        <ele>87.1</ele>
        <time>2015-06-08T18:34:49.789Z</time>
      </trkpt>
      <trkpt lat="48.84216" lon="2.3673">
        <ele>86.9</ele>
        <time>2015-06-08T18:34:50.825Z</time>
      </trkpt>
      <trkpt lat="48.84212" lon="2.36738">
        <ele>86.4</ele>
        <time>2015-06-08T18:34:51.821Z</time>
      </trkpt>
      <trkpt lat="48.84208" lon="2.36743">
        <ele>86.3</ele>
        <time>2015-06-08T18:34:52.826Z</time>
      </trkpt>
      <trkpt lat="48.84204" lon="2.36747">
        <ele>85.8</ele>
        <time>2015-06-08T18:34:53.844Z</time>
      </trkpt>
      <trkpt lat="48.84201" lon="2.36753">
        <ele>85.5</ele>
        <time>2015-06-08T18:34:54.854Z</time>
      </trkpt>
      <trkpt lat="48.84196" lon="2.36761">
        <ele>86</ele>
        <time>2015-06-08T18:34:56.797Z</time>
      </trkpt>
      <trkpt lat="48.84194" lon="2.36764">
        <ele>86.1</ele>
        <time>2015-06-08T18:34:57.848Z</time>
      </trkpt>
      <trkpt lat="48.84188" lon="2.36773">
        <ele>86.7</ele>
        <time>2015-06-08T18:35:01.807Z</time>
      </trkpt>
      <trkpt lat="48.84187" lon="2.36774">
        <ele>86.4</ele>
        <time>2015-06-08T18:35:02.851Z</time>
      </trkpt>
      <trkpt lat="48.84186" lon="2.36785">
        <ele>85.9</ele>
        <time>2015-06-08T18:35:25.815Z</time>
      </trkpt>
      <trkpt lat="48.84185" lon="2.36788">
        <ele>86</ele>
        <time>2015-06-08T18:35:26.852Z</time>
      </trkpt>
      <trkpt lat="48.84182" lon="2.36799">
        <ele>86.8</ele>
        <time>2015-06-08T18:35:29.809Z</time>
      </trkpt>
      <trkpt lat="48.8418" lon="2.36802">
        <ele>87</ele>
        <time>2015-06-08T18:35:30.826Z</time>
      </trkpt>
      <trkpt lat="48.84174" lon="2.3681">
        <ele>87.4</ele>
        <time>2015-06-08T18:35:32.832Z</time>
      </trkpt>
      <trkpt lat="48.8417" lon="2.36815">
        <ele>87.5</ele>
        <time>2015-06-08T18:35:33.851Z</time>
      </trkpt>
      <trkpt lat="48.84166" lon="2.36821">
        <ele>87.8</ele>
        <time>2015-06-08T18:35:34.801Z</time>
      </trkpt>
      <trkpt lat="48.84162" lon="2.36828">
        <ele>88.1</ele>
        <time>2015-06-08T18:35:35.806Z</time>
      </trkpt>
      <trkpt lat="48.84157" lon="2.36835">
        <ele>88</ele>
        <time>2015-06-08T18:35:36.818Z</time>
      </trkpt>
      <trkpt lat="48.84152" lon="2.36843">
        <ele>87.8</ele>
        <time>2015-06-08T18:35:37.822Z</time>
      </trkpt>
      <trkpt lat="48.84147" lon="2.3685">
        <ele>88.1</ele>
        <time>2015-06-08T18:35:38.840Z</time>
      </trkpt>
      <trkpt lat="48.84142" lon="2.36857">
        <ele>88.2</ele>
        <time>2015-06-08T18:35:39.850Z</time>
      </trkpt>
      <trkpt lat="48.84135" lon="2.36867">
        <ele>88.2</ele>
        <time>2015-06-08T18:35:40.783Z</time>
      </trkpt>
      <trkpt lat="48.84129" lon="2.36875">
        <ele>88.1</ele>
        <time>2015-06-08T18:35:41.774Z</time>
      </trkpt>
      <trkpt lat="48.84122" lon="2.36885">
        <ele>87.7</ele>
        <time>2015-06-08T18:35:42.807Z</time>
      </trkpt>
      <trkpt lat="48.84115" lon="2.36895">
        <ele>87.3</ele>
        <time>2015-06-08T18:35:43.796Z</time>
      </trkpt>
      <trkpt lat="48.84108" lon="2.36905">
        <ele>87.7</ele>
        <time>2015-06-08T18:35:44.897Z</time>
      </trkpt>
      <trkpt lat="48.84102" lon="2.36914">
        <ele>87.6</ele>
        <time>2015-06-08T18:35:45.810Z</time>
      </trkpt>
      <trkpt lat="48.84095" lon="2.36922">
        <ele>87.9</ele>
        <time>2015-06-08T18:35:46.777Z</time>
      </trkpt>
      <trkpt lat="48.84087" lon="2.36933">
        <ele>88.2</ele>
        <time>2015-06-08T18:35:47.797Z</time>
      </trkpt>
      <trkpt lat="48.8408" lon="2.36942">
        <ele>88.3</ele>
        <time>2015-06-08T18:35:48.810Z</time>
      </trkpt>
      <trkpt lat="48.84073" lon="2.36951">
        <ele>88.4</ele>
        <time>2015-06-08T18:35:49.829Z</time>
      </trkpt>
      <trkpt lat="48.84066" lon="2.3696">
        <ele>88.4</ele>
        <time>2015-06-08T18:35:50.869Z</time>
      </trkpt>
      <trkpt lat="48.84058" lon="2.36969">
        <ele>89</ele>
        <time>2015-06-08T18:35:51.739Z</time>
      </trkpt>
      <trkpt lat="48.84051" lon="2.36979">
        <ele>90.1</ele>
        <time>2015-06-08T18:35:52.800Z</time>
      </trkpt>
      <trkpt lat="48.84043" lon="2.36986">
        <ele>91.1</ele>
        <time>2015-06-08T18:35:53.809Z</time>
      </trkpt>
      <trkpt lat="48.84035" lon="2.36994">
        <ele>92</ele>
        <time>2015-06-08T18:35:54.828Z</time>
      </trkpt>
      <trkpt lat="48.84028" lon="2.37004">
        <ele>92.5</ele>
        <time>2015-06-08T18:35:55.838Z</time>
      </trkpt>
      <trkpt lat="48.84021" lon="2.37013">
        <ele>93.8</ele>
        <time>2015-06-08T18:35:56.850Z</time>
      </trkpt>
      <trkpt lat="48.84015" lon="2.37023">
        <ele>95</ele>
        <time>2015-06-08T18:35:57.734Z</time>
      </trkpt>
      <trkpt lat="48.84009" lon="2.37032">
        <ele>96.3</ele>
        <time>2015-06-08T18:35:58.761Z</time>
      </trkpt>
      <trkpt lat="48.84002" lon="2.3704">
        <ele>96.7</ele>
        <time>2015-06-08T18:35:59.766Z</time>
      </trkpt>
      <trkpt lat="48.83997" lon="2.37048">
        <ele>95.8</ele>
        <time>2015-06-08T18:36:00.786Z</time>
      </trkpt>
      <trkpt lat="48.83991" lon="2.37056">
        <ele>95.9</ele>
        <time>2015-06-08T18:36:01.798Z</time>
      </trkpt>
      <trkpt lat="48.83985" lon="2.37065">
        <ele>96</ele>
        <time>2015-06-08T18:36:02.811Z</time>
      </trkpt>
      <trkpt lat="48.83979" lon="2.37076">
        <ele>95.8</ele>
        <time>2015-06-08T18:36:03.818Z</time>
      </trkpt>
      <trkpt lat="48.83972" lon="2.37085">
        <ele>96.3</ele>
        <time>2015-06-08T18:36:04.721Z</time>
      </trkpt>
      <trkpt lat="48.83965" lon="2.37094">
        <ele>97.4</ele>
        <time>2015-06-08T18:36:05.859Z</time>
      </trkpt>
      <trkpt lat="48.83958" lon="2.37102">
        <ele>98.5</ele>
        <time>2015-06-08T18:36:06.765Z</time>
      </trkpt>
      <trkpt lat="48.83951" lon="2.37111">
        <ele>99.1</ele>
        <time>2015-06-08T18:36:07.771Z</time>
      </trkpt>
      <trkpt lat="48.83945" lon="2.3712">
        <ele>99.5</ele>
        <time>2015-06-08T18:36:08.789Z</time>
      </trkpt>
      <trkpt lat="48.83938" lon="2.37129">
        <ele>100</ele>
        <time>2015-06-08T18:36:09.804Z</time>
      </trkpt>
      <trkpt lat="48.83933" lon="2.37139">
        <ele>100.2</ele>
        <time>2015-06-08T18:36:10.751Z</time>
      </trkpt>
      <trkpt lat="48.83928" lon="2.37147">
        <ele>100.9</ele>
        <time>2015-06-08T18:36:11.747Z</time>
      </trkpt>
      <trkpt lat="48.83922" lon="2.37154">
        <ele>101.2</ele>
        <time>2015-06-08T18:36:12.783Z</time>
      </trkpt>
      <trkpt lat="48.83916" lon="2.37161">
        <ele>102.5</ele>
        <time>2015-06-08T18:36:13.788Z</time>
      </trkpt>
      <trkpt lat="48.83911" lon="2.37169">
        <ele>103.5</ele>
        <time>2015-06-08T18:36:14.872Z</time>
      </trkpt>
      <trkpt lat="48.83905" lon="2.37177">
        <ele>104.1</ele>
        <time>2015-06-08T18:36:15.754Z</time>
      </trkpt>
      <trkpt lat="48.839" lon="2.37185">
        <ele>104.7</ele>
        <time>2015-06-08T18:36:16.774Z</time>
      </trkpt>
      <trkpt lat="48.83896" lon="2.37193">
        <ele>105.2</ele>
        <time>2015-06-08T18:36:17.849Z</time>
      </trkpt>
      <trkpt lat="48.8389" lon="2.37201">
        <ele>106.1</ele>
        <time>2015-06-08T18:36:18.752Z</time>
      </trkpt>
      <trkpt lat="48.83884" lon="2.37209">
        <ele>106.5</ele>
        <time>2015-06-08T18:36:19.763Z</time>
      </trkpt>
      <trkpt lat="48.83878" lon="2.37217">
        <ele>106.8</ele>
        <time>2015-06-08T18:36:20.779Z</time>
      </trkpt>
      <trkpt lat="48.83872" lon="2.37224">
        <ele>106.9</ele>
        <time>2015-06-08T18:36:21.784Z</time>
      </trkpt>
      <trkpt lat="48.83866" lon="2.37232">
        <ele>106.7</ele>
        <time>2015-06-08T18:36:22.791Z</time>
      </trkpt>
      <trkpt lat="48.83862" lon="2.37238">
        <ele>105.9</ele>
        <time>2015-06-08T18:36:23.798Z</time>
      </trkpt>
      <trkpt lat="48.83857" lon="2.37247">
        <ele>105</ele>
        <time>2015-06-08T18:36:24.813Z</time>
      </trkpt>
      <trkpt lat="48.83852" lon="2.37253">
        <ele>105.3</ele>
        <time>2015-06-08T18:36:25.815Z</time>
      </trkpt>
      <trkpt lat="48.83847" lon="2.3726">
        <ele>105</ele>
        <time>2015-06-08T18:36:26.752Z</time>
      </trkpt>
      <trkpt lat="48.83841" lon="2.37268">
        <ele>104.8</ele>
        <time>2015-06-08T18:36:27.759Z</time>
      </trkpt>
      <trkpt lat="48.83835" lon="2.37274">
        <ele>104.8</ele>
        <time>2015-06-08T18:36:28.773Z</time>
      </trkpt>
      <trkpt lat="48.83829" lon="2.37281">
        <ele>105</ele>
        <time>2015-06-08T18:36:29.803Z</time>
      </trkpt>
      <trkpt lat="48.83822" lon="2.37286">
        <ele>104.7</ele>
        <time>2015-06-08T18:36:30.747Z</time>
      </trkpt>
      <trkpt lat="48.83816" lon="2.37292">
        <ele>104</ele>
        <time>2015-06-08T18:36:31.945Z</time>
      </trkpt>
      <trkpt lat="48.8381" lon="2.37299">
        <ele>103.1</ele>
        <time>2015-06-08T18:36:32.839Z</time>
      </trkpt>
      <trkpt lat="48.83803" lon="2.37306">
        <ele>103</ele>
        <time>2015-06-08T18:36:33.798Z</time>
      </trkpt>
      <trkpt lat="48.83798" lon="2.37313">
        <ele>102.6</ele>
        <time>2015-06-08T18:36:34.804Z</time>
      </trkpt>
      <trkpt lat="48.83791" lon="2.37319">
        <ele>102.4</ele>
        <time>2015-06-08T18:36:35.820Z</time>
      </trkpt>
      <trkpt lat="48.8378" lon="2.3733">
        <ele>102.5</ele>
        <time>2015-06-08T18:36:37.835Z</time>
      </trkpt>
      <trkpt lat="48.83775" lon="2.37336">
        <ele>102.5</ele>
        <time>2015-06-08T18:36:38.841Z</time>
      </trkpt>
      <trkpt lat="48.83769" lon="2.37342">
        <ele>102.4</ele>
        <time>2015-06-08T18:36:39.742Z</time>
      </trkpt>
      <trkpt lat="48.83764" lon="2.37348">
        <ele>101.4</ele>
        <time>2015-06-08T18:36:40.778Z</time>
      </trkpt>
      <trkpt lat="48.83759" lon="2.37352">
        <ele>100.9</ele>
        <time>2015-06-08T18:36:41.791Z</time>
      </trkpt>
      <trkpt lat="48.83755" lon="2.37356">
        <ele>99.9</ele>
        <time>2015-06-08T18:36:42.795Z</time>
      </trkpt>
      <trkpt lat="48.8375" lon="2.37359">
        <ele>99.2</ele>
        <time>2015-06-08T18:36:43.801Z</time>
      </trkpt>
      <trkpt lat="48.83742" lon="2.37364">
        <ele>99</ele>
        <time>2015-06-08T18:36:45.818Z</time>
      </trkpt>
      <trkpt lat="48.83739" lon="2.37368">
        <ele>99</ele>
        <time>2015-06-08T18:36:46.829Z</time>
      </trkpt>
      <trkpt lat="48.83732" lon="2.37374">
        <ele>97.9</ele>
        <time>2015-06-08T18:36:49.788Z</time>
      </trkpt>
      <trkpt lat="48.83732" lon="2.37374">
        <ele>97.7</ele>
        <time>2015-06-08T18:36:50.817Z</time>
      </trkpt>
      <trkpt lat="48.83733" lon="2.37373">
        <ele>97.7</ele>
        <time>2015-06-08T18:36:55.788Z</time>
      </trkpt>
      <trkpt lat="48.83738" lon="2.37376">
        <ele>97.2</ele>
        <time>2015-06-08T18:36:56.829Z</time>
      </trkpt>
      <trkpt lat="48.83742" lon="2.37382">
        <ele>95.6</ele>
        <time>2015-06-08T18:36:58.765Z</time>
      </trkpt>
      <trkpt lat="48.83745" lon="2.37385">
        <ele>95.6</ele>
        <time>2015-06-08T18:36:59.777Z</time>
      </trkpt>
      <trkpt lat="48.83749" lon="2.37393">
        <ele>95.5</ele>
        <time>2015-06-08T18:37:02.837Z</time>
      </trkpt>
      <trkpt lat="48.83751" lon="2.37394">
        <ele>95.1</ele>
        <time>2015-06-08T18:37:03.854Z</time>
      </trkpt>
      <trkpt lat="48.8376" lon="2.37395">
        <ele>94.1</ele>
        <time>2015-06-08T18:37:11.744Z</time>
      </trkpt>
      <trkpt lat="48.83762" lon="2.37396">
        <ele>94</ele>
        <time>2015-06-08T18:37:12.795Z</time>
      </trkpt>
      <trkpt lat="48.83768" lon="2.37403">
        <ele>93.7</ele>
        <time>2015-06-08T18:37:15.785Z</time>
      </trkpt>
      <trkpt lat="48.8377" lon="2.37406">
        <ele>93.6</ele>
        <time>2015-06-08T18:37:16.873Z</time>
      </trkpt>
      <trkpt lat="48.83776" lon="2.37412">
        <ele>93.4</ele>
        <time>2015-06-08T18:37:18.793Z</time>
      </trkpt>
      <trkpt lat="48.83778" lon="2.37415">
        <ele>93.4</ele>
        <time>2015-06-08T18:37:19.849Z</time>
      </trkpt>
      <trkpt lat="48.83783" lon="2.37422">
        <ele>93.1</ele>
        <time>2015-06-08T18:37:21.776Z</time>
      </trkpt>
      <trkpt lat="48.83785" lon="2.37425">
        <ele>93</ele>
        <time>2015-06-08T18:37:22.851Z</time>
      </trkpt>
      <trkpt lat="48.83791" lon="2.37431">
        <ele>92.8</ele>
        <time>2015-06-08T18:37:24.785Z</time>
      </trkpt>
      <trkpt lat="48.83794" lon="2.37432">
        <ele>92.8</ele>
        <time>2015-06-08T18:37:25.856Z</time>
      </trkpt>
      <trkpt lat="48.83799" lon="2.37441">
        <ele>92.6</ele>
        <time>2015-06-08T18:37:28.794Z</time>
      </trkpt>
      <trkpt lat="48.838" lon="2.37446">
        <ele>92.6</ele>
        <time>2015-06-08T18:37:29.812Z</time>
      </trkpt>
      <trkpt lat="48.83805" lon="2.37456">
        <ele>92.5</ele>
        <time>2015-06-08T18:37:31.858Z</time>
      </trkpt>
      <trkpt lat="48.83807" lon="2.37461">
        <ele>92.5</ele>
        <time>2015-06-08T18:37:32.862Z</time>
      </trkpt>
      <trkpt lat="48.83811" lon="2.37468">
        <ele>92.4</ele>
        <time>2015-06-08T18:37:34.763Z</time>
      </trkpt>
      <trkpt lat="48.83813" lon="2.37472">
        <ele>92.3</ele>
        <time>2015-06-08T18:37:35.778Z</time>
      </trkpt>
      <trkpt lat="48.83817" lon="2.3748">
        <ele>92.1</ele>
        <time>2015-06-08T18:37:37.767Z</time>
      </trkpt>
      <trkpt lat="48.83819" lon="2.37484">
        <ele>92</ele>
        <time>2015-06-08T18:37:38.824Z</time>
      </trkpt>
      <trkpt lat="48.83823" lon="2.37492">
        <ele>92.2</ele>
        <time>2015-06-08T18:37:40.759Z</time>
      </trkpt>
      <trkpt lat="48.83825" lon="2.37497">
        <ele>92.1</ele>
        <time>2015-06-08T18:37:41.779Z</time>
      </trkpt>
      <trkpt lat="48.83828" lon="2.37505">
        <ele>92.2</ele>
        <time>2015-06-08T18:37:43.805Z</time>
      </trkpt>
      <trkpt lat="48.8383" lon="2.37509">
        <ele>92.1</ele>
        <time>2015-06-08T18:37:44.834Z</time>
      </trkpt>
      <trkpt lat="48.83833" lon="2.37518">
        <ele>92.1</ele>
        <time>2015-06-08T18:37:46.750Z</time>
      </trkpt>
      <trkpt lat="48.83835" lon="2.37523">
        <ele>92.2</ele>
        <time>2015-06-08T18:37:47.763Z</time>
      </trkpt>
      <trkpt lat="48.83841" lon="2.37528">
        <ele>92.2</ele>
        <time>2015-06-08T18:37:49.780Z</time>
      </trkpt>
      <trkpt lat="48.83844" lon="2.37531">
        <ele>92.3</ele>
        <time>2015-06-08T18:37:50.794Z</time>
      </trkpt>
      <trkpt lat="48.83847" lon="2.37541">
        <ele>93.2</ele>
        <time>2015-06-08T18:37:52.815Z</time>
      </trkpt>
      <trkpt lat="48.8385" lon="2.3755">
        <ele>94.4</ele>
        <time>2015-06-08T18:37:53.710Z</time>
      </trkpt>
      <trkpt lat="48.8385" lon="2.3755">
        <ele>94.4</ele>
        <time>2015-06-08T18:42:13.843Z</time>
      </trkpt>
      <trkpt lat="48.83836" lon="2.37599">
        <ele>87.9</ele>
        <time>2015-06-08T18:42:14.900Z</time>
      </trkpt>
      <trkpt lat="48.8383" lon="2.37608">
        <ele>87.9</ele>
        <time>2015-06-08T18:42:17.882Z</time>
      </trkpt>
      <trkpt lat="48.83829" lon="2.37611">
        <ele>88.1</ele>
        <time>2015-06-08T18:42:18.781Z</time>
      </trkpt>
      <trkpt lat="48.83822" lon="2.37619">
        <ele>88.3</ele>
        <time>2015-06-08T18:42:21.831Z</time>
      </trkpt>
      <trkpt lat="48.83819" lon="2.37622">
        <ele>88.7</ele>
        <time>2015-06-08T18:42:22.848Z</time>
      </trkpt>
      <trkpt lat="48.83814" lon="2.37629">
        <ele>88.9</ele>
        <time>2015-06-08T18:42:24.767Z</time>
      </trkpt>
      <trkpt lat="48.83811" lon="2.37634">
        <ele>88.7</ele>
        <time>2015-06-08T18:42:25.804Z</time>
      </trkpt>
      <trkpt lat="48.83805" lon="2.37641">
        <ele>89.1</ele>
        <time>2015-06-08T18:42:27.732Z</time>
      </trkpt>
      <trkpt lat="48.83802" lon="2.37645">
        <ele>89.3</ele>
        <time>2015-06-08T18:42:28.762Z</time>
      </trkpt>
      <trkpt lat="48.83796" lon="2.37652">
        <ele>89.3</ele>
        <time>2015-06-08T18:42:30.815Z</time>
      </trkpt>
      <trkpt lat="48.83793" lon="2.37656">
        <ele>89.7</ele>
        <time>2015-06-08T18:42:31.822Z</time>
      </trkpt>
      <trkpt lat="48.83786" lon="2.37664">
        <ele>89.7</ele>
        <time>2015-06-08T18:42:33.769Z</time>
      </trkpt>
      <trkpt lat="48.83783" lon="2.37667">
        <ele>89.9</ele>
        <time>2015-06-08T18:42:34.759Z</time>
      </trkpt>
      <trkpt lat="48.83776" lon="2.37673">
        <ele>90.2</ele>
        <time>2015-06-08T18:42:36.777Z</time>
      </trkpt>
      <trkpt lat="48.83773" lon="2.37677">
        <ele>90.1</ele>
        <time>2015-06-08T18:42:37.791Z</time>
      </trkpt>
      <trkpt lat="48.83767" lon="2.37684">
        <ele>90.3</ele>
        <time>2015-06-08T18:42:39.852Z</time>
      </trkpt>
      <trkpt lat="48.83764" lon="2.37688">
        <ele>89.9</ele>
        <time>2015-06-08T18:42:40.780Z</time>
      </trkpt>
      <trkpt lat="48.83759" lon="2.37694">
        <ele>89.8</ele>
        <time>2015-06-08T18:42:42.761Z</time>
      </trkpt>
      <trkpt lat="48.83757" lon="2.37697">
        <ele>90.5</ele>
        <time>2015-06-08T18:42:43.812Z</time>
      </trkpt>
      <trkpt lat="48.8375" lon="2.37706">
        <ele>91.4</ele>
        <time>2015-06-08T18:42:46.831Z</time>
      </trkpt>
      <trkpt lat="48.83748" lon="2.37709">
        <ele>91.5</ele>
        <time>2015-06-08T18:42:47.783Z</time>
      </trkpt>
      <trkpt lat="48.83743" lon="2.37714">
        <ele>91.5</ele>
        <time>2015-06-08T18:42:49.843Z</time>
      </trkpt>
      <trkpt lat="48.8374" lon="2.37717">
        <ele>91.4</ele>
        <time>2015-06-08T18:42:50.889Z</time>
      </trkpt>
      <trkpt lat="48.83733" lon="2.37724">
        <ele>91.4</ele>
        <time>2015-06-08T18:42:52.774Z</time>
      </trkpt>
      <trkpt lat="48.8373" lon="2.37728">
        <ele>91.5</ele>
        <time>2015-06-08T18:42:53.785Z</time>
      </trkpt>
      <trkpt lat="48.83723" lon="2.37734">
        <ele>91.5</ele>
        <time>2015-06-08T18:42:55.813Z</time>
      </trkpt>
      <trkpt lat="48.83721" lon="2.37737">
        <ele>91.6</ele>
        <time>2015-06-08T18:42:56.824Z</time>
      </trkpt>
      <trkpt lat="48.83715" lon="2.37744">
        <ele>91.7</ele>
        <time>2015-06-08T18:42:58.784Z</time>
      </trkpt>
      <trkpt lat="48.83712" lon="2.37748">
        <ele>91.4</ele>
        <time>2015-06-08T18:42:59.777Z</time>
      </trkpt>
      <trkpt lat="48.83706" lon="2.37755">
        <ele>91.1</ele>
        <time>2015-06-08T18:43:01.829Z</time>
      </trkpt>
      <trkpt lat="48.83702" lon="2.37758">
        <ele>91.1</ele>
        <time>2015-06-08T18:43:02.861Z</time>
      </trkpt>
      <trkpt lat="48.83697" lon="2.37766">
        <ele>90.8</ele>
        <time>2015-06-08T18:43:04.788Z</time>
      </trkpt>
      <trkpt lat="48.83694" lon="2.37769">
        <ele>90.6</ele>
        <time>2015-06-08T18:43:05.820Z</time>
      </trkpt>
      <trkpt lat="48.83688" lon="2.37778">
        <ele>90.8</ele>
        <time>2015-06-08T18:43:07.761Z</time>
      </trkpt>
      <trkpt lat="48.83685" lon="2.37782">
        <ele>90.6</ele>
        <time>2015-06-08T18:43:08.815Z</time>
      </trkpt>
      <trkpt lat="48.83679" lon="2.37789">
        <ele>90.5</ele>
        <time>2015-06-08T18:43:10.751Z</time>
      </trkpt>
      <trkpt lat="48.83676" lon="2.37794">
        <ele>90.9</ele>
        <time>2015-06-08T18:43:11.787Z</time>
      </trkpt>
      <trkpt lat="48.8367" lon="2.37803">
        <ele>91.5</ele>
        <time>2015-06-08T18:43:13.815Z</time>
      </trkpt>
      <trkpt lat="48.83667" lon="2.37806">
        <ele>91.6</ele>
        <time>2015-06-08T18:43:14.841Z</time>
      </trkpt>
      <trkpt lat="48.83662" lon="2.37814">
        <ele>91.4</ele>
        <time>2015-06-08T18:43:16.767Z</time>
      </trkpt>
      <trkpt lat="48.83659" lon="2.37817">
        <ele>91.4</ele>
        <time>2015-06-08T18:43:17.802Z</time>
      </trkpt>
      <trkpt lat="48.83654" lon="2.37825">
        <ele>91.4</ele>
        <time>2015-06-08T18:43:19.769Z</time>
      </trkpt>
      <trkpt lat="48.8365" lon="2.3783">
        <ele>91.1</ele>
        <time>2015-06-08T18:43:20.824Z</time>
      </trkpt>
      <trkpt lat="48.83646" lon="2.37834">
        <ele>90.7</ele>
        <time>2015-06-08T18:43:21.837Z</time>
      </trkpt>
      <trkpt lat="48.83643" lon="2.37838">
        <ele>90.6</ele>
        <time>2015-06-08T18:43:22.845Z</time>
      </trkpt>
      <trkpt lat="48.83638" lon="2.37845">
        <ele>91.4</ele>
        <time>2015-06-08T18:43:24.778Z</time>
      </trkpt>
      <trkpt lat="48.83634" lon="2.3785">
        <ele>91.8</ele>
        <time>2015-06-08T18:43:25.815Z</time>
      </trkpt>
      <trkpt lat="48.83631" lon="2.37854">
        <ele>92.1</ele>
        <time>2015-06-08T18:43:26.864Z</time>
      </trkpt>
      <trkpt lat="48.83627" lon="2.37858">
        <ele>92.3</ele>
        <time>2015-06-08T18:43:27.744Z</time>
      </trkpt>
      <trkpt lat="48.8362" lon="2.37867">
        <ele>92.3</ele>
        <time>2015-06-08T18:43:29.774Z</time>
      </trkpt>
      <trkpt lat="48.83617" lon="2.37871">
        <ele>92.1</ele>
        <time>2015-06-08T18:43:30.791Z</time>
      </trkpt>
      <trkpt lat="48.83611" lon="2.37879">
        <ele>92</ele>
        <time>2015-06-08T18:43:32.873Z</time>
      </trkpt>
      <trkpt lat="48.83608" lon="2.37883">
        <ele>92.2</ele>
        <time>2015-06-08T18:43:33.816Z</time>
      </trkpt>
      <trkpt lat="48.83602" lon="2.37892">
        <ele>92.8</ele>
        <time>2015-06-08T18:43:35.796Z</time>
      </trkpt>
      <trkpt lat="48.83599" lon="2.37896">
        <ele>92.9</ele>
        <time>2015-06-08T18:43:36.880Z</time>
      </trkpt>
      <trkpt lat="48.83594" lon="2.379">
        <ele>92.8</ele>
        <time>2015-06-08T18:43:37.775Z</time>
      </trkpt>
      <trkpt lat="48.83591" lon="2.37905">
        <ele>92.9</ele>
        <time>2015-06-08T18:43:38.847Z</time>
      </trkpt>
      <trkpt lat="48.83586" lon="2.37913">
        <ele>92.7</ele>
        <time>2015-06-08T18:43:40.831Z</time>
      </trkpt>
      <trkpt lat="48.83582" lon="2.37918">
        <ele>92.7</ele>
        <time>2015-06-08T18:43:41.889Z</time>
      </trkpt>
      <trkpt lat="48.83579" lon="2.37923">
        <ele>92.8</ele>
        <time>2015-06-08T18:43:42.763Z</time>
      </trkpt>
      <trkpt lat="48.83576" lon="2.37928">
        <ele>93.3</ele>
        <time>2015-06-08T18:43:43.847Z</time>
      </trkpt>
      <trkpt lat="48.83571" lon="2.37932">
        <ele>93.8</ele>
        <time>2015-06-08T18:43:44.854Z</time>
      </trkpt>
      <trkpt lat="48.83567" lon="2.37936">
        <ele>93.9</ele>
        <time>2015-06-08T18:43:45.918Z</time>
      </trkpt>
      <trkpt lat="48.83563" lon="2.37941">
        <ele>94.2</ele>
        <time>2015-06-08T18:43:46.775Z</time>
      </trkpt>
      <trkpt lat="48.83559" lon="2.37946">
        <ele>94.4</ele>
        <time>2015-06-08T18:43:47.787Z</time>
      </trkpt>
      <trkpt lat="48.83553" lon="2.37954">
        <ele>93.8</ele>
        <time>2015-06-08T18:43:49.779Z</time>
      </trkpt>
      <trkpt lat="48.83549" lon="2.37959">
        <ele>94</ele>
        <time>2015-06-08T18:43:50.885Z</time>
      </trkpt>
      <trkpt lat="48.83542" lon="2.37966">
        <ele>93.7</ele>
        <time>2015-06-08T18:43:52.789Z</time>
      </trkpt>
      <trkpt lat="48.83538" lon="2.37971">
        <ele>93.5</ele>
        <time>2015-06-08T18:43:53.801Z</time>
      </trkpt>
      <trkpt lat="48.83535" lon="2.37976">
        <ele>93.6</ele>
        <time>2015-06-08T18:43:54.842Z</time>
      </trkpt>
      <trkpt lat="48.83531" lon="2.37981">
        <ele>93.7</ele>
        <time>2015-06-08T18:43:55.852Z</time>
      </trkpt>
      <trkpt lat="48.83528" lon="2.37985">
        <ele>93.8</ele>
        <time>2015-06-08T18:43:56.865Z</time>
      </trkpt>
      <trkpt lat="48.83524" lon="2.37989">
        <ele>93.8</ele>
        <time>2015-06-08T18:43:57.782Z</time>
      </trkpt>
      <trkpt lat="48.83521" lon="2.37995">
        <ele>94</ele>
        <time>2015-06-08T18:43:58.791Z</time>
      </trkpt>
      <trkpt lat="48.83518" lon="2.38">
        <ele>94.1</ele>
        <time>2015-06-08T18:43:59.804Z</time>
      </trkpt>
      <trkpt lat="48.83514" lon="2.38003">
        <ele>93.9</ele>
        <time>2015-06-08T18:44:00.820Z</time>
      </trkpt>
      <trkpt lat="48.8351" lon="2.38007">
        <ele>93.7</ele>
        <time>2015-06-08T18:44:01.833Z</time>
      </trkpt>
      <trkpt lat="48.83503" lon="2.38015">
        <ele>93.4</ele>
        <time>2015-06-08T18:44:03.785Z</time>
      </trkpt>
      <trkpt lat="48.83499" lon="2.38018">
        <ele>93.1</ele>
        <time>2015-06-08T18:44:04.819Z</time>
      </trkpt>
      <trkpt lat="48.83493" lon="2.38026">
        <ele>93</ele>
        <time>2015-06-08T18:44:06.780Z</time>
      </trkpt>
      <trkpt lat="48.83489" lon="2.3803">
        <ele>92.8</ele>
        <time>2015-06-08T18:44:07.788Z</time>
      </trkpt>
      <trkpt lat="48.83483" lon="2.38038">
        <ele>92.9</ele>
        <time>2015-06-08T18:44:09.811Z</time>
      </trkpt>
      <trkpt lat="48.83479" lon="2.38042">
        <ele>93</ele>
        <time>2015-06-08T18:44:10.826Z</time>
      </trkpt>
      <trkpt lat="48.83476" lon="2.38047">
        <ele>93.4</ele>
        <time>2015-06-08T18:44:11.793Z</time>
      </trkpt>
      <trkpt lat="48.83472" lon="2.38052">
        <ele>93.5</ele>
        <time>2015-06-08T18:44:12.788Z</time>
      </trkpt>
      <trkpt lat="48.83469" lon="2.38057">
        <ele>93.7</ele>
        <time>2015-06-08T18:44:13.814Z</time>
      </trkpt>
      <trkpt lat="48.83465" lon="2.38061">
        <ele>93.9</ele>
        <time>2015-06-08T18:44:14.841Z</time>
      </trkpt>
      <trkpt lat="48.83458" lon="2.38069">
        <ele>93.7</ele>
        <time>2015-06-08T18:44:16.753Z</time>
      </trkpt>
      <trkpt lat="48.83454" lon="2.38073">
        <ele>93.6</ele>
        <time>2015-06-08T18:44:17.781Z</time>
      </trkpt>
      <trkpt lat="48.83448" lon="2.38083">
        <ele>93.6</ele>
        <time>2015-06-08T18:44:19.812Z</time>
      </trkpt>
      <trkpt lat="48.83444" lon="2.38088">
        <ele>93.2</ele>
        <time>2015-06-08T18:44:20.931Z</time>
      </trkpt>
      <trkpt lat="48.8344" lon="2.38092">
        <ele>92.9</ele>
        <time>2015-06-08T18:44:21.768Z</time>
      </trkpt>
      <trkpt lat="48.83436" lon="2.38097">
        <ele>92.6</ele>
        <time>2015-06-08T18:44:22.776Z</time>
      </trkpt>
      <trkpt lat="48.83433" lon="2.38101">
        <ele>92.2</ele>
        <time>2015-06-08T18:44:23.753Z</time>
      </trkpt>
      <trkpt lat="48.83429" lon="2.38105">
        <ele>91.9</ele>
        <time>2015-06-08T18:44:24.762Z</time>
      </trkpt>
      <trkpt lat="48.83422" lon="2.38114">
        <ele>91.4</ele>
        <time>2015-06-08T18:44:26.834Z</time>
      </trkpt>
      <trkpt lat="48.83419" lon="2.38118">
        <ele>91.2</ele>
        <time>2015-06-08T18:44:27.784Z</time>
      </trkpt>
      <trkpt lat="48.83416" lon="2.38123">
        <ele>91.2</ele>
        <time>2015-06-08T18:44:28.764Z</time>
      </trkpt>
      <trkpt lat="48.83412" lon="2.38128">
        <ele>91.4</ele>
        <time>2015-06-08T18:44:29.770Z</time>
      </trkpt>
      <trkpt lat="48.83409" lon="2.38133">
        <ele>91.2</ele>
        <time>2015-06-08T18:44:30.776Z</time>
      </trkpt>
      <trkpt lat="48.83406" lon="2.38138">
        <ele>90.9</ele>
        <time>2015-06-08T18:44:31.789Z</time>
      </trkpt>
      <trkpt lat="48.83399" lon="2.38146">
        <ele>90.2</ele>
        <time>2015-06-08T18:44:33.752Z</time>
      </trkpt>
      <trkpt lat="48.83396" lon="2.3815">
        <ele>90.1</ele>
        <time>2015-06-08T18:44:34.785Z</time>
      </trkpt>
      <trkpt lat="48.83389" lon="2.38158">
        <ele>90.4</ele>
        <time>2015-06-08T18:44:36.912Z</time>
      </trkpt>
      <trkpt lat="48.83386" lon="2.38162">
        <ele>90.3</ele>
        <time>2015-06-08T18:44:37.818Z</time>
      </trkpt>
      <trkpt lat="48.8338" lon="2.38171">
        <ele>90.8</ele>
        <time>2015-06-08T18:44:39.728Z</time>
      </trkpt>
      <trkpt lat="48.83376" lon="2.38175">
        <ele>91.1</ele>
        <time>2015-06-08T18:44:40.742Z</time>
      </trkpt>
      <trkpt lat="48.83372" lon="2.38179">
        <ele>91</ele>
        <time>2015-06-08T18:44:41.758Z</time>
      </trkpt>
      <trkpt lat="48.83369" lon="2.38183">
        <ele>91.2</ele>
        <time>2015-06-08T18:44:42.774Z</time>
      </trkpt>
      <trkpt lat="48.83362" lon="2.38191">
        <ele>91.2</ele>
        <time>2015-06-08T18:44:44.863Z</time>
      </trkpt>
      <trkpt lat="48.83358" lon="2.38195">
        <ele>91</ele>
        <time>2015-06-08T18:44:45.744Z</time>
      </trkpt>
      <trkpt lat="48.83355" lon="2.382">
        <ele>91</ele>
        <time>2015-06-08T18:44:46.740Z</time>
      </trkpt>
      <trkpt lat="48.83351" lon="2.38205">
        <ele>91</ele>
        <time>2015-06-08T18:44:47.754Z</time>
      </trkpt>
      <trkpt lat="48.83345" lon="2.38215">
        <ele>91.2</ele>
        <time>2015-06-08T18:44:49.802Z</time>
      </trkpt>
      <trkpt lat="48.83341" lon="2.38219">
        <ele>91.2</ele>
        <time>2015-06-08T18:44:50.823Z</time>
      </trkpt>
      <trkpt lat="48.83337" lon="2.38223">
        <ele>91.3</ele>
        <time>2015-06-08T18:44:51.742Z</time>
      </trkpt>
      <trkpt lat="48.83333" lon="2.38227">
        <ele>91.4</ele>
        <time>2015-06-08T18:44:52.740Z</time>
      </trkpt>
      <trkpt lat="48.83328" lon="2.38231">
        <ele>91.2</ele>
        <time>2015-06-08T18:44:53.749Z</time>
      </trkpt>
      <trkpt lat="48.83323" lon="2.38235">
        <ele>91.1</ele>
        <time>2015-06-08T18:44:54.768Z</time>
      </trkpt>
      <trkpt lat="48.8332" lon="2.3824">
        <ele>91</ele>
        <time>2015-06-08T18:44:56.461Z</time>
      </trkpt>
      <trkpt lat="48.83316" lon="2.38244">
        <ele>90.9</ele>
        <time>2015-06-08T18:44:56.814Z</time>
      </trkpt>
      <trkpt lat="48.83312" lon="2.38249">
        <ele>90.9</ele>
        <time>2015-06-08T18:44:57.730Z</time>
      </trkpt>
      <trkpt lat="48.83308" lon="2.38253">
        <ele>90.6</ele>
        <time>2015-06-08T18:44:58.844Z</time>
      </trkpt>
      <trkpt lat="48.83304" lon="2.38259">
        <ele>90.5</ele>
        <time>2015-06-08T18:44:59.760Z</time>
      </trkpt>
      <trkpt lat="48.833" lon="2.38264">
        <ele>90.5</ele>
        <time>2015-06-08T18:45:00.768Z</time>
      </trkpt>
      <trkpt lat="48.83296" lon="2.38269">
        <ele>90.3</ele>
        <time>2015-06-08T18:45:02.024Z</time>
      </trkpt>
      <trkpt lat="48.83292" lon="2.38275">
        <ele>90.1</ele>
        <time>2015-06-08T18:45:02.830Z</time>
      </trkpt>
      <trkpt lat="48.83287" lon="2.3828">
        <ele>89.8</ele>
        <time>2015-06-08T18:45:03.829Z</time>
      </trkpt>
      <trkpt lat="48.83283" lon="2.38286">
        <ele>89.3</ele>
        <time>2015-06-08T18:45:04.775Z</time>
      </trkpt>
      <trkpt lat="48.83279" lon="2.38291">
        <ele>89.1</ele>
        <time>2015-06-08T18:45:05.755Z</time>
      </trkpt>
      <trkpt lat="48.83276" lon="2.38296">
        <ele>89.1</ele>
        <time>2015-06-08T18:45:06.766Z</time>
      </trkpt>
      <trkpt lat="48.83271" lon="2.38302">
        <ele>88.8</ele>
        <time>2015-06-08T18:45:07.764Z</time>
      </trkpt>
      <trkpt lat="48.83267" lon="2.38307">
        <ele>88.1</ele>
        <time>2015-06-08T18:45:08.796Z</time>
      </trkpt>
      <trkpt lat="48.83263" lon="2.38312">
        <ele>87.9</ele>
        <time>2015-06-08T18:45:09.804Z</time>
      </trkpt>
      <trkpt lat="48.83259" lon="2.38317">
        <ele>87.8</ele>
        <time>2015-06-08T18:45:10.813Z</time>
      </trkpt>
      <trkpt lat="48.83256" lon="2.38322">
        <ele>87.7</ele>
        <time>2015-06-08T18:45:11.833Z</time>
      </trkpt>
      <trkpt lat="48.83253" lon="2.38327">
        <ele>88.2</ele>
        <time>2015-06-08T18:45:12.749Z</time>
      </trkpt>
      <trkpt lat="48.83246" lon="2.38336">
        <ele>88.4</ele>
        <time>2015-06-08T18:45:14.887Z</time>
      </trkpt>
      <trkpt lat="48.83243" lon="2.3834">
        <ele>88.3</ele>
        <time>2015-06-08T18:45:15.788Z</time>
      </trkpt>
      <trkpt lat="48.83237" lon="2.38347">
        <ele>88.3</ele>
        <time>2015-06-08T18:45:17.808Z</time>
      </trkpt>
      <trkpt lat="48.83234" lon="2.3835">
        <ele>88.5</ele>
        <time>2015-06-08T18:45:18.731Z</time>
      </trkpt>
      <trkpt lat="48.83226" lon="2.38357">
        <ele>89</ele>
        <time>2015-06-08T18:45:20.819Z</time>
      </trkpt>
      <trkpt lat="48.83223" lon="2.38361">
        <ele>89.3</ele>
        <time>2015-06-08T18:45:21.823Z</time>
      </trkpt>
      <trkpt lat="48.83217" lon="2.38369">
        <ele>89.3</ele>
        <time>2015-06-08T18:45:23.767Z</time>
      </trkpt>
      <trkpt lat="48.83213" lon="2.38374">
        <ele>89.5</ele>
        <time>2015-06-08T18:45:24.768Z</time>
      </trkpt>
      <trkpt lat="48.83209" lon="2.38379">
        <ele>89.3</ele>
        <time>2015-06-08T18:45:25.786Z</time>
      </trkpt>
      <trkpt lat="48.83206" lon="2.38385">
        <ele>88.9</ele>
        <time>2015-06-08T18:45:26.798Z</time>
      </trkpt>
      <trkpt lat="48.83202" lon="2.3839">
        <ele>88.1</ele>
        <time>2015-06-08T18:45:27.850Z</time>
      </trkpt>
      <trkpt lat="48.83198" lon="2.38396">
        <ele>87.8</ele>
        <time>2015-06-08T18:45:28.754Z</time>
      </trkpt>
      <trkpt lat="48.83193" lon="2.38403">
        <ele>88.1</ele>
        <time>2015-06-08T18:45:30.763Z</time>
      </trkpt>
      <trkpt lat="48.83191" lon="2.38407">
        <ele>88.4</ele>
        <time>2015-06-08T18:45:31.781Z</time>
      </trkpt>
      <trkpt lat="48.83185" lon="2.38414">
        <ele>89</ele>
        <time>2015-06-08T18:45:33.881Z</time>
      </trkpt>
      <trkpt lat="48.83183" lon="2.38417">
        <ele>89.3</ele>
        <time>2015-06-08T18:45:34.746Z</time>
      </trkpt>
      <trkpt lat="48.83178" lon="2.38425">
        <ele>89.7</ele>
        <time>2015-06-08T18:45:36.750Z</time>
      </trkpt>
      <trkpt lat="48.83176" lon="2.38428">
        <ele>89.8</ele>
        <time>2015-06-08T18:45:37.747Z</time>
      </trkpt>
      <trkpt lat="48.83171" lon="2.38434">
        <ele>90.3</ele>
        <time>2015-06-08T18:45:39.796Z</time>
      </trkpt>
      <trkpt lat="48.83169" lon="2.38437">
        <ele>90.4</ele>
        <time>2015-06-08T18:45:40.809Z</time>
      </trkpt>
      <trkpt lat="48.83164" lon="2.38442">
        <ele>90.7</ele>
        <time>2015-06-08T18:45:42.761Z</time>
      </trkpt>
      <trkpt lat="48.83161" lon="2.38446">
        <ele>91</ele>
        <time>2015-06-08T18:45:43.828Z</time>
      </trkpt>
      <trkpt lat="48.83155" lon="2.38454">
        <ele>91.5</ele>
        <time>2015-06-08T18:45:46.691Z</time>
      </trkpt>
      <trkpt lat="48.83153" lon="2.38459">
        <ele>91.6</ele>
        <time>2015-06-08T18:45:46.802Z</time>
      </trkpt>
      <trkpt lat="48.83149" lon="2.38464">
        <ele>91.6</ele>
        <time>2015-06-08T18:45:47.876Z</time>
      </trkpt>
      <trkpt lat="48.83146" lon="2.38469">
        <ele>91.6</ele>
        <time>2015-06-08T18:45:48.819Z</time>
      </trkpt>
      <trkpt lat="48.8314" lon="2.38477">
        <ele>92</ele>
        <time>2015-06-08T18:45:50.814Z</time>
      </trkpt>
      <trkpt lat="48.83136" lon="2.38481">
        <ele>92.2</ele>
        <time>2015-06-08T18:45:51.795Z</time>
      </trkpt>
      <trkpt lat="48.83133" lon="2.38485">
        <ele>92.4</ele>
        <time>2015-06-08T18:45:52.778Z</time>
      </trkpt>
      <trkpt lat="48.83129" lon="2.3849">
        <ele>92.4</ele>
        <time>2015-06-08T18:45:53.789Z</time>
      </trkpt>
      <trkpt lat="48.83125" lon="2.38495">
        <ele>92.7</ele>
        <time>2015-06-08T18:45:54.775Z</time>
      </trkpt>
      <trkpt lat="48.83121" lon="2.385">
        <ele>92.8</ele>
        <time>2015-06-08T18:45:55.767Z</time>
      </trkpt>
      <trkpt lat="48.83118" lon="2.38505">
        <ele>92.6</ele>
        <time>2015-06-08T18:45:56.862Z</time>
      </trkpt>
      <trkpt lat="48.83113" lon="2.3851">
        <ele>92.6</ele>
        <time>2015-06-08T18:45:57.807Z</time>
      </trkpt>
      <trkpt lat="48.8311" lon="2.38515">
        <ele>92.4</ele>
        <time>2015-06-08T18:45:58.824Z</time>
      </trkpt>
      <trkpt lat="48.83106" lon="2.38519">
        <ele>92.3</ele>
        <time>2015-06-08T18:45:59.753Z</time>
      </trkpt>
      <trkpt lat="48.83099" lon="2.38527">
        <ele>92.1</ele>
        <time>2015-06-08T18:46:02.014Z</time>
      </trkpt>
      <trkpt lat="48.83095" lon="2.38532">
        <ele>92</ele>
        <time>2015-06-08T18:46:02.801Z</time>
      </trkpt>
      <trkpt lat="48.83092" lon="2.38537">
        <ele>91.5</ele>
        <time>2015-06-08T18:46:03.811Z</time>
      </trkpt>
      <trkpt lat="48.83088" lon="2.38542">
        <ele>91.2</ele>
        <time>2015-06-08T18:46:04.817Z</time>
      </trkpt>
      <trkpt lat="48.83084" lon="2.38548">
        <ele>91.3</ele>
        <time>2015-06-08T18:46:05.783Z</time>
      </trkpt>
      <trkpt lat="48.83081" lon="2.38552">
        <ele>91.4</ele>
        <time>2015-06-08T18:46:06.786Z</time>
      </trkpt>
      <trkpt lat="48.83073" lon="2.38559">
        <ele>91.8</ele>
        <time>2015-06-08T18:46:08.799Z</time>
      </trkpt>
      <trkpt lat="48.8307" lon="2.38564">
        <ele>91.4</ele>
        <time>2015-06-08T18:46:09.839Z</time>
      </trkpt>
      <trkpt lat="48.83063" lon="2.3857">
        <ele>91.4</ele>
        <time>2015-06-08T18:46:11.781Z</time>
      </trkpt>
      <trkpt lat="48.83059" lon="2.38574">
        <ele>91.2</ele>
        <time>2015-06-08T18:46:12.800Z</time>
      </trkpt>
      <trkpt lat="48.83055" lon="2.38579">
        <ele>90.7</ele>
        <time>2015-06-08T18:46:13.835Z</time>
      </trkpt>
      <trkpt lat="48.83052" lon="2.38584">
        <ele>90.3</ele>
        <time>2015-06-08T18:46:14.848Z</time>
      </trkpt>
      <trkpt lat="48.83045" lon="2.38592">
        <ele>90.6</ele>
        <time>2015-06-08T18:46:16.767Z</time>
      </trkpt>
      <trkpt lat="48.83043" lon="2.38596">
        <ele>90.6</ele>
        <time>2015-06-08T18:46:17.798Z</time>
      </trkpt>
      <trkpt lat="48.83037" lon="2.38603">
        <ele>91.4</ele>
        <time>2015-06-08T18:46:19.776Z</time>
      </trkpt>
      <trkpt lat="48.83035" lon="2.38607">
        <ele>91.6</ele>
        <time>2015-06-08T18:46:20.820Z</time>
      </trkpt>
      <trkpt lat="48.8303" lon="2.38614">
        <ele>92</ele>
        <time>2015-06-08T18:46:22.759Z</time>
      </trkpt>
      <trkpt lat="48.83027" lon="2.38618">
        <ele>92.2</ele>
        <time>2015-06-08T18:46:23.790Z</time>
      </trkpt>
      <trkpt lat="48.83021" lon="2.38625">
        <ele>93.3</ele>
        <time>2015-06-08T18:46:25.805Z</time>
      </trkpt>
      <trkpt lat="48.83018" lon="2.38629">
        <ele>93.6</ele>
        <time>2015-06-08T18:46:26.843Z</time>
      </trkpt>
      <trkpt lat="48.83013" lon="2.38636">
        <ele>93.8</ele>
        <time>2015-06-08T18:46:28.773Z</time>
      </trkpt>
      <trkpt lat="48.8301" lon="2.38639">
        <ele>93.6</ele>
        <time>2015-06-08T18:46:29.774Z</time>
      </trkpt>
      <trkpt lat="48.83005" lon="2.38645">
        <ele>94.1</ele>
        <time>2015-06-08T18:46:31.794Z</time>
      </trkpt>
      <trkpt lat="48.83002" lon="2.38649">
        <ele>94.3</ele>
        <time>2015-06-08T18:46:32.869Z</time>
      </trkpt>
      <trkpt lat="48.82997" lon="2.38656">
        <ele>94.8</ele>
        <time>2015-06-08T18:46:34.766Z</time>
      </trkpt>
      <trkpt lat="48.82994" lon="2.38659">
        <ele>95.1</ele>
        <time>2015-06-08T18:46:35.772Z</time>
      </trkpt>
      <trkpt lat="48.82991" lon="2.38663">
        <ele>95.3</ele>
        <time>2015-06-08T18:46:36.778Z</time>
      </trkpt>
      <trkpt lat="48.82987" lon="2.38668">
        <ele>95.8</ele>
        <time>2015-06-08T18:46:37.893Z</time>
      </trkpt>
      <trkpt lat="48.82982" lon="2.38673">
        <ele>95.8</ele>
        <time>2015-06-08T18:46:38.788Z</time>
      </trkpt>
      <trkpt lat="48.82977" lon="2.38678">
        <ele>95.8</ele>
        <time>2015-06-08T18:46:39.789Z</time>
      </trkpt>
      <trkpt lat="48.82972" lon="2.38682">
        <ele>95.6</ele>
        <time>2015-06-08T18:46:40.796Z</time>
      </trkpt>
      <trkpt lat="48.82966" lon="2.38685">
        <ele>95.4</ele>
        <time>2015-06-08T18:46:41.807Z</time>
      </trkpt>
      <trkpt lat="48.82961" lon="2.3869">
        <ele>95.4</ele>
        <time>2015-06-08T18:46:42.739Z</time>
      </trkpt>
      <trkpt lat="48.82956" lon="2.38692">
        <ele>95.5</ele>
        <time>2015-06-08T18:46:43.757Z</time>
      </trkpt>
      <trkpt lat="48.82952" lon="2.38696">
        <ele>95.7</ele>
        <time>2015-06-08T18:46:44.862Z</time>
      </trkpt>
      <trkpt lat="48.82947" lon="2.387">
        <ele>95.7</ele>
        <time>2015-06-08T18:46:45.751Z</time>
      </trkpt>
      <trkpt lat="48.82942" lon="2.38704">
        <ele>96.1</ele>
        <time>2015-06-08T18:46:46.762Z</time>
      </trkpt>
      <trkpt lat="48.82938" lon="2.38708">
        <ele>96.2</ele>
        <time>2015-06-08T18:46:47.773Z</time>
      </trkpt>
      <trkpt lat="48.82934" lon="2.38712">
        <ele>96.2</ele>
        <time>2015-06-08T18:46:48.776Z</time>
      </trkpt>
      <trkpt lat="48.82929" lon="2.38715">
        <ele>96.3</ele>
        <time>2015-06-08T18:46:49.785Z</time>
      </trkpt>
      <trkpt lat="48.82925" lon="2.38718">
        <ele>96.3</ele>
        <time>2015-06-08T18:46:50.797Z</time>
      </trkpt>
      <trkpt lat="48.8292" lon="2.38719">
        <ele>95.7</ele>
        <time>2015-06-08T18:46:51.803Z</time>
      </trkpt>
      <trkpt lat="48.82915" lon="2.38721">
        <ele>95.5</ele>
        <time>2015-06-08T18:46:52.816Z</time>
      </trkpt>
      <trkpt lat="48.8291" lon="2.38722">
        <ele>95.4</ele>
        <time>2015-06-08T18:46:53.829Z</time>
      </trkpt>
      <trkpt lat="48.82906" lon="2.38725">
        <ele>95.4</ele>
        <time>2015-06-08T18:46:54.834Z</time>
      </trkpt>
      <trkpt lat="48.82902" lon="2.38728">
        <ele>95.2</ele>
        <time>2015-06-08T18:46:55.840Z</time>
      </trkpt>
      <trkpt lat="48.82895" lon="2.38735">
        <ele>94.7</ele>
        <time>2015-06-08T18:46:57.753Z</time>
      </trkpt>
      <trkpt lat="48.82891" lon="2.38739">
        <ele>94.6</ele>
        <time>2015-06-08T18:46:58.866Z</time>
      </trkpt>
      <trkpt lat="48.82884" lon="2.38745">
        <ele>94.7</ele>
        <time>2015-06-08T18:47:00.772Z</time>
      </trkpt>
      <trkpt lat="48.82879" lon="2.38748">
        <ele>94.6</ele>
        <time>2015-06-08T18:47:01.796Z</time>
      </trkpt>
      <trkpt lat="48.82872" lon="2.38754">
        <ele>94</ele>
        <time>2015-06-08T18:47:03.744Z</time>
      </trkpt>
      <trkpt lat="48.82868" lon="2.38758">
        <ele>94</ele>
        <time>2015-06-08T18:47:04.719Z</time>
      </trkpt>
      <trkpt lat="48.82861" lon="2.38764">
        <ele>93.1</ele>
        <time>2015-06-08T18:47:06.771Z</time>
      </trkpt>
      <trkpt lat="48.82858" lon="2.38768">
        <ele>92.4</ele>
        <time>2015-06-08T18:47:07.784Z</time>
      </trkpt>
      <trkpt lat="48.82852" lon="2.38774">
        <ele>90.8</ele>
        <time>2015-06-08T18:47:09.781Z</time>
      </trkpt>
      <trkpt lat="48.82849" lon="2.38777">
        <ele>90.7</ele>
        <time>2015-06-08T18:47:10.796Z</time>
      </trkpt>
      <trkpt lat="48.82843" lon="2.38783">
        <ele>90.3</ele>
        <time>2015-06-08T18:47:12.744Z</time>
      </trkpt>
      <trkpt lat="48.8283" lon="2.38799">
        <ele>90.2</ele>
        <time>2015-06-08T18:47:16.771Z</time>
      </trkpt>
      <trkpt lat="48.82824" lon="2.38807">
        <ele>89.8</ele>
        <time>2015-06-08T18:47:18.747Z</time>
      </trkpt>
      <trkpt lat="48.82822" lon="2.38812">
        <ele>89.1</ele>
        <time>2015-06-08T18:47:19.754Z</time>
      </trkpt>
      <trkpt lat="48.82816" lon="2.38819">
        <ele>88.9</ele>
        <time>2015-06-08T18:47:21.782Z</time>
      </trkpt>
      <trkpt lat="48.82814" lon="2.38821">
        <ele>89.3</ele>
        <time>2015-06-08T18:47:22.800Z</time>
      </trkpt>
      <trkpt lat="48.82808" lon="2.3883">
        <ele>88.5</ele>
        <time>2015-06-08T18:47:25.856Z</time>
      </trkpt>
      <trkpt lat="48.82806" lon="2.38834">
        <ele>88.5</ele>
        <time>2015-06-08T18:47:26.870Z</time>
      </trkpt>
      <trkpt lat="48.82801" lon="2.38841">
        <ele>88.8</ele>
        <time>2015-06-08T18:47:28.758Z</time>
      </trkpt>
      <trkpt lat="48.82799" lon="2.38845">
        <ele>88.8</ele>
        <time>2015-06-08T18:47:29.800Z</time>
      </trkpt>
      <trkpt lat="48.82793" lon="2.38855">
        <ele>88.9</ele>
        <time>2015-06-08T18:47:32.803Z</time>
      </trkpt>
      <trkpt lat="48.82791" lon="2.38858">
        <ele>89.2</ele>
        <time>2015-06-08T18:47:33.828Z</time>
      </trkpt>
      <trkpt lat="48.82788" lon="2.38864">
        <ele>89.2</ele>
        <time>2015-06-08T18:47:35.768Z</time>
      </trkpt>
      <trkpt lat="48.82785" lon="2.38868">
        <ele>89.2</ele>
        <time>2015-06-08T18:47:36.857Z</time>
      </trkpt>
      <trkpt lat="48.82778" lon="2.38877">
        <ele>89.3</ele>
        <time>2015-06-08T18:47:39.858Z</time>
      </trkpt>
      <trkpt lat="48.82776" lon="2.38879">
        <ele>89.1</ele>
        <time>2015-06-08T18:47:40.798Z</time>
      </trkpt>
      <trkpt lat="48.8277" lon="2.38888">
        <ele>89</ele>
        <time>2015-06-08T18:47:43.850Z</time>
      </trkpt>
      <trkpt lat="48.82768" lon="2.38891">
        <ele>89.3</ele>
        <time>2015-06-08T18:47:44.855Z</time>
      </trkpt>
      <trkpt lat="48.82761" lon="2.38897">
        <ele>90</ele>
        <time>2015-06-08T18:47:48.788Z</time>
      </trkpt>
      <trkpt lat="48.8276" lon="2.38898">
        <ele>90.3</ele>
        <time>2015-06-08T18:47:49.792Z</time>
      </trkpt>
      <trkpt lat="48.82754" lon="2.38905">
        <ele>90.7</ele>
        <time>2015-06-08T18:47:53.808Z</time>
      </trkpt>
      <trkpt lat="48.82753" lon="2.38907">
        <ele>90.6</ele>
        <time>2015-06-08T18:47:54.811Z</time>
      </trkpt>
      <trkpt lat="48.82747" lon="2.38913">
        <ele>91.3</ele>
        <time>2015-06-08T18:47:57.815Z</time>
      </trkpt>
      <trkpt lat="48.82745" lon="2.38916">
        <ele>91.4</ele>
        <time>2015-06-08T18:47:58.798Z</time>
      </trkpt>
      <trkpt lat="48.82738" lon="2.38923">
        <ele>92</ele>
        <time>2015-06-08T18:48:01.791Z</time>
      </trkpt>
      <trkpt lat="48.82736" lon="2.38927">
        <ele>91.9</ele>
        <time>2015-06-08T18:48:02.884Z</time>
      </trkpt>
      <trkpt lat="48.82731" lon="2.38935">
        <ele>91.1</ele>
        <time>2015-06-08T18:48:04.775Z</time>
      </trkpt>
      <trkpt lat="48.82728" lon="2.38939">
        <ele>91.1</ele>
        <time>2015-06-08T18:48:05.784Z</time>
      </trkpt>
      <trkpt lat="48.82722" lon="2.38947">
        <ele>91.4</ele>
        <time>2015-06-08T18:48:07.803Z</time>
      </trkpt>
      <trkpt lat="48.82719" lon="2.38951">
        <ele>91.4</ele>
        <time>2015-06-08T18:48:08.848Z</time>
      </trkpt>
      <trkpt lat="48.82713" lon="2.38959">
        <ele>91.4</ele>
        <time>2015-06-08T18:48:10.809Z</time>
      </trkpt>
      <trkpt lat="48.8271" lon="2.38964">
        <ele>91.3</ele>
        <time>2015-06-08T18:48:11.828Z</time>
      </trkpt>
      <trkpt lat="48.82704" lon="2.38973">
        <ele>91.8</ele>
        <time>2015-06-08T18:48:13.790Z</time>
      </trkpt>
      <trkpt lat="48.82701" lon="2.38977">
        <ele>91.7</ele>
        <time>2015-06-08T18:48:14.845Z</time>
      </trkpt>
      <trkpt lat="48.82694" lon="2.38985">
        <ele>91.6</ele>
        <time>2015-06-08T18:48:16.767Z</time>
      </trkpt>
      <trkpt lat="48.82689" lon="2.38989">
        <ele>91.7</ele>
        <time>2015-06-08T18:48:17.795Z</time>
      </trkpt>
      <trkpt lat="48.82685" lon="2.38996">
        <ele>91.7</ele>
        <time>2015-06-08T18:48:18.820Z</time>
      </trkpt>
      <trkpt lat="48.82682" lon="2.39003">
        <ele>91.7</ele>
        <time>2015-06-08T18:48:19.834Z</time>
      </trkpt>
      <trkpt lat="48.82677" lon="2.39007">
        <ele>91.7</ele>
        <time>2015-06-08T18:48:20.844Z</time>
      </trkpt>
      <trkpt lat="48.82673" lon="2.3901">
        <ele>91.4</ele>
        <time>2015-06-08T18:48:21.851Z</time>
      </trkpt>
      <trkpt lat="48.82669" lon="2.39016">
        <ele>91.4</ele>
        <time>2015-06-08T18:48:22.772Z</time>
      </trkpt>
      <trkpt lat="48.82665" lon="2.39022">
        <ele>91.3</ele>
        <time>2015-06-08T18:48:23.769Z</time>
      </trkpt>
      <trkpt lat="48.82662" lon="2.39027">
        <ele>90.8</ele>
        <time>2015-06-08T18:48:24.774Z</time>
      </trkpt>
      <trkpt lat="48.82657" lon="2.39033">
        <ele>90.9</ele>
        <time>2015-06-08T18:48:25.797Z</time>
      </trkpt>
      <trkpt lat="48.82653" lon="2.39039">
        <ele>90.9</ele>
        <time>2015-06-08T18:48:26.832Z</time>
      </trkpt>
      <trkpt lat="48.82649" lon="2.39045">
        <ele>90.7</ele>
        <time>2015-06-08T18:48:27.846Z</time>
      </trkpt>
      <trkpt lat="48.82645" lon="2.3905">
        <ele>90.3</ele>
        <time>2015-06-08T18:48:28.853Z</time>
      </trkpt>
      <trkpt lat="48.82643" lon="2.39055">
        <ele>90</ele>
        <time>2015-06-08T18:48:29.770Z</time>
      </trkpt>
      <trkpt lat="48.82639" lon="2.39061">
        <ele>89.8</ele>
        <time>2015-06-08T18:48:30.770Z</time>
      </trkpt>
      <trkpt lat="48.82635" lon="2.39066">
        <ele>89.4</ele>
        <time>2015-06-08T18:48:31.779Z</time>
      </trkpt>
      <trkpt lat="48.82629" lon="2.39074">
        <ele>89.4</ele>
        <time>2015-06-08T18:48:33.829Z</time>
      </trkpt>
      <trkpt lat="48.82626" lon="2.39078">
        <ele>89.6</ele>
        <time>2015-06-08T18:48:34.837Z</time>
      </trkpt>
      <trkpt lat="48.8262" lon="2.39084">
        <ele>89.7</ele>
        <time>2015-06-08T18:48:36.775Z</time>
      </trkpt>
      <trkpt lat="48.82617" lon="2.39087">
        <ele>89.6</ele>
        <time>2015-06-08T18:48:37.771Z</time>
      </trkpt>
      <trkpt lat="48.82612" lon="2.39093">
        <ele>89</ele>
        <time>2015-06-08T18:48:39.846Z</time>
      </trkpt>
      <trkpt lat="48.8261" lon="2.39096">
        <ele>89.2</ele>
        <time>2015-06-08T18:48:40.743Z</time>
      </trkpt>
      <trkpt lat="48.82605" lon="2.39103">
        <ele>89.6</ele>
        <time>2015-06-08T18:48:42.798Z</time>
      </trkpt>
      <trkpt lat="48.82602" lon="2.39107">
        <ele>89.5</ele>
        <time>2015-06-08T18:48:43.875Z</time>
      </trkpt>
      <trkpt lat="48.82596" lon="2.39113">
        <ele>89.4</ele>
        <time>2015-06-08T18:48:45.265Z</time>
      </trkpt>
      <trkpt lat="48.82594" lon="2.39116">
        <ele>89.3</ele>
        <time>2015-06-08T18:48:46.817Z</time>
      </trkpt>
      <trkpt lat="48.82588" lon="2.39122">
        <ele>89</ele>
        <time>2015-06-08T18:48:48.850Z</time>
      </trkpt>
      <trkpt lat="48.82585" lon="2.39126">
        <ele>89</ele>
        <time>2015-06-08T18:48:49.734Z</time>
      </trkpt>
      <trkpt lat="48.82579" lon="2.39132">
        <ele>88.9</ele>
        <time>2015-06-08T18:48:51.782Z</time>
      </trkpt>
      <trkpt lat="48.82576" lon="2.39136">
        <ele>88.8</ele>
        <time>2015-06-08T18:48:52.803Z</time>
      </trkpt>
      <trkpt lat="48.82569" lon="2.39145">
        <ele>88.1</ele>
        <time>2015-06-08T18:48:54.811Z</time>
      </trkpt>
      <trkpt lat="48.82566" lon="2.3915">
        <ele>88</ele>
        <time>2015-06-08T18:48:55.816Z</time>
      </trkpt>
      <trkpt lat="48.82563" lon="2.39156">
        <ele>88</ele>
        <time>2015-06-08T18:48:56.832Z</time>
      </trkpt>
      <trkpt lat="48.8256" lon="2.39161">
        <ele>87.8</ele>
        <time>2015-06-08T18:48:57.834Z</time>
      </trkpt>
      <trkpt lat="48.82556" lon="2.39166">
        <ele>87.8</ele>
        <time>2015-06-08T18:48:58.846Z</time>
      </trkpt>
      <trkpt lat="48.82552" lon="2.39171">
        <ele>87.7</ele>
        <time>2015-06-08T18:48:59.848Z</time>
      </trkpt>
      <trkpt lat="48.82549" lon="2.39177">
        <ele>87.6</ele>
        <time>2015-06-08T18:49:00.774Z</time>
      </trkpt>
      <trkpt lat="48.82544" lon="2.39183">
        <ele>87.6</ele>
        <time>2015-06-08T18:49:01.776Z</time>
      </trkpt>
      <trkpt lat="48.8254" lon="2.39189">
        <ele>87.5</ele>
        <time>2015-06-08T18:49:02.805Z</time>
      </trkpt>
      <trkpt lat="48.82536" lon="2.39195">
        <ele>87.4</ele>
        <time>2015-06-08T18:49:03.757Z</time>
      </trkpt>
      <trkpt lat="48.82532" lon="2.39202">
        <ele>87.3</ele>
        <time>2015-06-08T18:49:04.745Z</time>
      </trkpt>
      <trkpt lat="48.82528" lon="2.39208">
        <ele>87.2</ele>
        <time>2015-06-08T18:49:05.768Z</time>
      </trkpt>
      <trkpt lat="48.82524" lon="2.39215">
        <ele>87.2</ele>
        <time>2015-06-08T18:49:06.793Z</time>
      </trkpt>
      <trkpt lat="48.82519" lon="2.39221">
        <ele>87.2</ele>
        <time>2015-06-08T18:49:07.810Z</time>
      </trkpt>
      <trkpt lat="48.82515" lon="2.39228">
        <ele>87.1</ele>
        <time>2015-06-08T18:49:08.754Z</time>
      </trkpt>
      <trkpt lat="48.82511" lon="2.39234">
        <ele>87.1</ele>
        <time>2015-06-08T18:49:09.760Z</time>
      </trkpt>
      <trkpt lat="48.82507" lon="2.39239">
        <ele>87.3</ele>
        <time>2015-06-08T18:49:10.772Z</time>
      </trkpt>
      <trkpt lat="48.82503" lon="2.39245">
        <ele>87.5</ele>
        <time>2015-06-08T18:49:11.788Z</time>
      </trkpt>
      <trkpt lat="48.82499" lon="2.3925">
        <ele>87.6</ele>
        <time>2015-06-08T18:49:12.808Z</time>
      </trkpt>
      <trkpt lat="48.82496" lon="2.39256">
        <ele>87.6</ele>
        <time>2015-06-08T18:49:13.819Z</time>
      </trkpt>
      <trkpt lat="48.8249" lon="2.39265">
        <ele>87.6</ele>
        <time>2015-06-08T18:49:15.842Z</time>
      </trkpt>
      <trkpt lat="48.82487" lon="2.3927">
        <ele>87.6</ele>
        <time>2015-06-08T18:49:16.848Z</time>
      </trkpt>
      <trkpt lat="48.82481" lon="2.39281">
        <ele>87.5</ele>
        <time>2015-06-08T18:49:18.774Z</time>
      </trkpt>
      <trkpt lat="48.82478" lon="2.39286">
        <ele>87.8</ele>
        <time>2015-06-08T18:49:19.763Z</time>
      </trkpt>
      <trkpt lat="48.82475" lon="2.39292">
        <ele>87.8</ele>
        <time>2015-06-08T18:49:20.846Z</time>
      </trkpt>
      <trkpt lat="48.82472" lon="2.39297">
        <ele>87.9</ele>
        <time>2015-06-08T18:49:21.849Z</time>
      </trkpt>
      <trkpt lat="48.82469" lon="2.39303">
        <ele>88</ele>
        <time>2015-06-08T18:49:22.776Z</time>
      </trkpt>
      <trkpt lat="48.82464" lon="2.39309">
        <ele>88</ele>
        <time>2015-06-08T18:49:23.783Z</time>
      </trkpt>
      <trkpt lat="48.82459" lon="2.39316">
        <ele>88</ele>
        <time>2015-06-08T18:49:24.793Z</time>
      </trkpt>
      <trkpt lat="48.82455" lon="2.39322">
        <ele>87.8</ele>
        <time>2015-06-08T18:49:25.800Z</time>
      </trkpt>
      <trkpt lat="48.8245" lon="2.39329">
        <ele>88.1</ele>
        <time>2015-06-08T18:49:26.840Z</time>
      </trkpt>
      <trkpt lat="48.82446" lon="2.39337">
        <ele>89</ele>
        <time>2015-06-08T18:49:27.839Z</time>
      </trkpt>
      <trkpt lat="48.82441" lon="2.39343">
        <ele>89.3</ele>
        <time>2015-06-08T18:49:28.784Z</time>
      </trkpt>
      <trkpt lat="48.82437" lon="2.39349">
        <ele>89.3</ele>
        <time>2015-06-08T18:49:29.790Z</time>
      </trkpt>
      <trkpt lat="48.82432" lon="2.39356">
        <ele>89.4</ele>
        <time>2015-06-08T18:49:30.807Z</time>
      </trkpt>
      <trkpt lat="48.82427" lon="2.39363">
        <ele>88.9</ele>
        <time>2015-06-08T18:49:31.826Z</time>
      </trkpt>
      <trkpt lat="48.82422" lon="2.3937">
        <ele>88.7</ele>
        <time>2015-06-08T18:49:32.853Z</time>
      </trkpt>
      <trkpt lat="48.82417" lon="2.39378">
        <ele>88.8</ele>
        <time>2015-06-08T18:49:33.754Z</time>
      </trkpt>
      <trkpt lat="48.82413" lon="2.39385">
        <ele>88.8</ele>
        <time>2015-06-08T18:49:34.773Z</time>
      </trkpt>
      <trkpt lat="48.82408" lon="2.39392">
        <ele>88.8</ele>
        <time>2015-06-08T18:49:35.785Z</time>
      </trkpt>
      <trkpt lat="48.82403" lon="2.39399">
        <ele>88.9</ele>
        <time>2015-06-08T18:49:36.835Z</time>
      </trkpt>
      <trkpt lat="48.82398" lon="2.39406">
        <ele>89.2</ele>
        <time>2015-06-08T18:49:37.892Z</time>
      </trkpt>
      <trkpt lat="48.82393" lon="2.39413">
        <ele>89.4</ele>
        <time>2015-06-08T18:49:38.830Z</time>
      </trkpt>
      <trkpt lat="48.82387" lon="2.39421">
        <ele>89.4</ele>
        <time>2015-06-08T18:49:39.837Z</time>
      </trkpt>
      <trkpt lat="48.82382" lon="2.39428">
        <ele>89.3</ele>
        <time>2015-06-08T18:49:40.849Z</time>
      </trkpt>
      <trkpt lat="48.82376" lon="2.39436">
        <ele>89.2</ele>
        <time>2015-06-08T18:49:41.777Z</time>
      </trkpt>
      <trkpt lat="48.82371" lon="2.39443">
        <ele>89.4</ele>
        <time>2015-06-08T18:49:42.754Z</time>
      </trkpt>
      <trkpt lat="48.82366" lon="2.39451">
        <ele>89.2</ele>
        <time>2015-06-08T18:49:43.794Z</time>
      </trkpt>
      <trkpt lat="48.8236" lon="2.39459">
        <ele>89</ele>
        <time>2015-06-08T18:49:44.834Z</time>
      </trkpt>
      <trkpt lat="48.82355" lon="2.39466">
        <ele>88.9</ele>
        <time>2015-06-08T18:49:45.845Z</time>
      </trkpt>
      <trkpt lat="48.8235" lon="2.39474">
        <ele>88.5</ele>
        <time>2015-06-08T18:49:46.858Z</time>
      </trkpt>
      <trkpt lat="48.82344" lon="2.39482">
        <ele>88.6</ele>
        <time>2015-06-08T18:49:47.786Z</time>
      </trkpt>
      <trkpt lat="48.82339" lon="2.3949">
        <ele>88.7</ele>
        <time>2015-06-08T18:49:48.772Z</time>
      </trkpt>
      <trkpt lat="48.82333" lon="2.39498">
        <ele>88.8</ele>
        <time>2015-06-08T18:49:49.776Z</time>
      </trkpt>
      <trkpt lat="48.82328" lon="2.39506">
        <ele>88.5</ele>
        <time>2015-06-08T18:49:50.831Z</time>
      </trkpt>
      <trkpt lat="48.82324" lon="2.39513">
        <ele>88.4</ele>
        <time>2015-06-08T18:49:51.837Z</time>
      </trkpt>
      <trkpt lat="48.82318" lon="2.39519">
        <ele>88.3</ele>
        <time>2015-06-08T18:49:52.846Z</time>
      </trkpt>
      <trkpt lat="48.82314" lon="2.39526">
        <ele>88.2</ele>
        <time>2015-06-08T18:49:53.751Z</time>
      </trkpt>
      <trkpt lat="48.82309" lon="2.39534">
        <ele>88.2</ele>
        <time>2015-06-08T18:49:54.775Z</time>
      </trkpt>
      <trkpt lat="48.82303" lon="2.39542">
        <ele>88.3</ele>
        <time>2015-06-08T18:49:55.843Z</time>
      </trkpt>
      <trkpt lat="48.82298" lon="2.3955">
        <ele>88.1</ele>
        <time>2015-06-08T18:49:56.860Z</time>
      </trkpt>
      <trkpt lat="48.82293" lon="2.39558">
        <ele>88.1</ele>
        <time>2015-06-08T18:49:57.851Z</time>
      </trkpt>
      <trkpt lat="48.82288" lon="2.39566">
        <ele>88.5</ele>
        <time>2015-06-08T18:49:58.771Z</time>
      </trkpt>
      <trkpt lat="48.82283" lon="2.39574">
        <ele>88.8</ele>
        <time>2015-06-08T18:49:59.779Z</time>
      </trkpt>
      <trkpt lat="48.82277" lon="2.39582">
        <ele>88.6</ele>
        <time>2015-06-08T18:50:00.788Z</time>
      </trkpt>
      <trkpt lat="48.82272" lon="2.39591">
        <ele>88.3</ele>
        <time>2015-06-08T18:50:01.797Z</time>
      </trkpt>
      <trkpt lat="48.82266" lon="2.39599">
        <ele>88.2</ele>
        <time>2015-06-08T18:50:02.822Z</time>
      </trkpt>
      <trkpt lat="48.8226" lon="2.39608">
        <ele>88.2</ele>
        <time>2015-06-08T18:50:03.829Z</time>
      </trkpt>
      <trkpt lat="48.82254" lon="2.39617">
        <ele>88</ele>
        <time>2015-06-08T18:50:04.838Z</time>
      </trkpt>
      <trkpt lat="48.82249" lon="2.39626">
        <ele>88.1</ele>
        <time>2015-06-08T18:50:05.840Z</time>
      </trkpt>
      <trkpt lat="48.82243" lon="2.39635">
        <ele>87.5</ele>
        <time>2015-06-08T18:50:06.852Z</time>
      </trkpt>
      <trkpt lat="48.82238" lon="2.39644">
        <ele>87.3</ele>
        <time>2015-06-08T18:50:07.739Z</time>
      </trkpt>
      <trkpt lat="48.82233" lon="2.39653">
        <ele>86.9</ele>
        <time>2015-06-08T18:50:08.806Z</time>
      </trkpt>
      <trkpt lat="48.82228" lon="2.39663">
        <ele>86.7</ele>
        <time>2015-06-08T18:50:09.810Z</time>
      </trkpt>
      <trkpt lat="48.82223" lon="2.39673">
        <ele>86.4</ele>
        <time>2015-06-08T18:50:10.829Z</time>
      </trkpt>
      <trkpt lat="48.82218" lon="2.39683">
        <ele>86.3</ele>
        <time>2015-06-08T18:50:11.834Z</time>
      </trkpt>
      <trkpt lat="48.82213" lon="2.39693">
        <ele>85.7</ele>
        <time>2015-06-08T18:50:12.856Z</time>
      </trkpt>
      <trkpt lat="48.82208" lon="2.39703">
        <ele>85.3</ele>
        <time>2015-06-08T18:50:13.865Z</time>
      </trkpt>
      <trkpt lat="48.82202" lon="2.39714">
        <ele>85</ele>
        <time>2015-06-08T18:50:14.874Z</time>
      </trkpt>
      <trkpt lat="48.82197" lon="2.39723">
        <ele>85.3</ele>
        <time>2015-06-08T18:50:15.758Z</time>
      </trkpt>
      <trkpt lat="48.82193" lon="2.39733">
        <ele>85.1</ele>
        <time>2015-06-08T18:50:16.774Z</time>
      </trkpt>
      <trkpt lat="48.82188" lon="2.39742">
        <ele>85.1</ele>
        <time>2015-06-08T18:50:17.781Z</time>
      </trkpt>
      <trkpt lat="48.82183" lon="2.39752">
        <ele>85.2</ele>
        <time>2015-06-08T18:50:18.793Z</time>
      </trkpt>
      <trkpt lat="48.82178" lon="2.39761">
        <ele>85.3</ele>
        <time>2015-06-08T18:50:19.795Z</time>
      </trkpt>
      <trkpt lat="48.82173" lon="2.3977">
        <ele>85.3</ele>
        <time>2015-06-08T18:50:20.828Z</time>
      </trkpt>
      <trkpt lat="48.82169" lon="2.3978">
        <ele>85.1</ele>
        <time>2015-06-08T18:50:21.819Z</time>
      </trkpt>
      <trkpt lat="48.82165" lon="2.3979">
        <ele>84.6</ele>
        <time>2015-06-08T18:50:22.838Z</time>
      </trkpt>
      <trkpt lat="48.8216" lon="2.398">
        <ele>84.5</ele>
        <time>2015-06-08T18:50:23.764Z</time>
      </trkpt>
      <trkpt lat="48.82155" lon="2.3981">
        <ele>84</ele>
        <time>2015-06-08T18:50:24.773Z</time>
      </trkpt>
      <trkpt lat="48.82151" lon="2.3982">
        <ele>83.7</ele>
        <time>2015-06-08T18:50:25.781Z</time>
      </trkpt>
      <trkpt lat="48.82146" lon="2.39831">
        <ele>83.8</ele>
        <time>2015-06-08T18:50:26.831Z</time>
      </trkpt>
      <trkpt lat="48.82141" lon="2.39842">
        <ele>84.3</ele>
        <time>2015-06-08T18:50:27.822Z</time>
      </trkpt>
      <trkpt lat="48.82137" lon="2.39852">
        <ele>84.6</ele>
        <time>2015-06-08T18:50:28.850Z</time>
      </trkpt>
      <trkpt lat="48.82133" lon="2.39863">
        <ele>84.9</ele>
        <time>2015-06-08T18:50:29.773Z</time>
      </trkpt>
      <trkpt lat="48.82129" lon="2.39872">
        <ele>86.1</ele>
        <time>2015-06-08T18:50:30.771Z</time>
      </trkpt>
      <trkpt lat="48.82126" lon="2.39882">
        <ele>86.2</ele>
        <time>2015-06-08T18:50:31.782Z</time>
      </trkpt>
      <trkpt lat="48.82122" lon="2.39891">
        <ele>86.4</ele>
        <time>2015-06-08T18:50:32.848Z</time>
      </trkpt>
      <trkpt lat="48.82118" lon="2.399">
        <ele>86.1</ele>
        <time>2015-06-08T18:50:33.853Z</time>
      </trkpt>
      <trkpt lat="48.82114" lon="2.3991">
        <ele>86</ele>
        <time>2015-06-08T18:50:34.789Z</time>
      </trkpt>
      <trkpt lat="48.8211" lon="2.39919">
        <ele>86</ele>
        <time>2015-06-08T18:50:35.772Z</time>
      </trkpt>
      <trkpt lat="48.82105" lon="2.39927">
        <ele>86.1</ele>
        <time>2015-06-08T18:50:36.769Z</time>
      </trkpt>
      <trkpt lat="48.82101" lon="2.39935">
        <ele>86.1</ele>
        <time>2015-06-08T18:50:37.801Z</time>
      </trkpt>
      <trkpt lat="48.82098" lon="2.39944">
        <ele>85.8</ele>
        <time>2015-06-08T18:50:38.836Z</time>
      </trkpt>
      <trkpt lat="48.82095" lon="2.39953">
        <ele>86.1</ele>
        <time>2015-06-08T18:50:39.757Z</time>
      </trkpt>
      <trkpt lat="48.82092" lon="2.39962">
        <ele>86.2</ele>
        <time>2015-06-08T18:50:40.767Z</time>
      </trkpt>
      <trkpt lat="48.82089" lon="2.39971">
        <ele>86.3</ele>
        <time>2015-06-08T18:50:41.774Z</time>
      </trkpt>
      <trkpt lat="48.82086" lon="2.39982">
        <ele>86</ele>
        <time>2015-06-08T18:50:42.882Z</time>
      </trkpt>
      <trkpt lat="48.82083" lon="2.39992">
        <ele>86.2</ele>
        <time>2015-06-08T18:50:43.796Z</time>
      </trkpt>
      <trkpt lat="48.8208" lon="2.40001">
        <ele>86.4</ele>
        <time>2015-06-08T18:50:44.801Z</time>
      </trkpt>
      <trkpt lat="48.82078" lon="2.40011">
        <ele>86.7</ele>
        <time>2015-06-08T18:50:45.810Z</time>
      </trkpt>
      <trkpt lat="48.82074" lon="2.40021">
        <ele>86.9</ele>
        <time>2015-06-08T18:50:46.813Z</time>
      </trkpt>
      <trkpt lat="48.82071" lon="2.40031">
        <ele>87.5</ele>
        <time>2015-06-08T18:50:48.009Z</time>
      </trkpt>
      <trkpt lat="48.82068" lon="2.4004">
        <ele>87.5</ele>
        <time>2015-06-08T18:50:48.851Z</time>
      </trkpt>
      <trkpt lat="48.82065" lon="2.4005">
        <ele>87.7</ele>
        <time>2015-06-08T18:50:49.857Z</time>
      </trkpt>
      <trkpt lat="48.82062" lon="2.4006">
        <ele>87.6</ele>
        <time>2015-06-08T18:50:50.878Z</time>
      </trkpt>
      <trkpt lat="48.82059" lon="2.40069">
        <ele>87.5</ele>
        <time>2015-06-08T18:50:51.810Z</time>
      </trkpt>
      <trkpt lat="48.82055" lon="2.40077">
        <ele>87.7</ele>
        <time>2015-06-08T18:50:52.779Z</time>
      </trkpt>
      <trkpt lat="48.82052" lon="2.40086">
        <ele>88.2</ele>
        <time>2015-06-08T18:50:53.788Z</time>
      </trkpt>
      <trkpt lat="48.82049" lon="2.40095">
        <ele>88.3</ele>
        <time>2015-06-08T18:50:54.800Z</time>
      </trkpt>
      <trkpt lat="48.82044" lon="2.40104">
        <ele>88.3</ele>
        <time>2015-06-08T18:50:55.809Z</time>
      </trkpt>
      <trkpt lat="48.82039" lon="2.40113">
        <ele>88.3</ele>
        <time>2015-06-08T18:50:56.825Z</time>
      </trkpt>
      <trkpt lat="48.82035" lon="2.40123">
        <ele>88.3</ele>
        <time>2015-06-08T18:50:57.835Z</time>
      </trkpt>
      <trkpt lat="48.8203" lon="2.40132">
        <ele>88.5</ele>
        <time>2015-06-08T18:50:58.848Z</time>
      </trkpt>
      <trkpt lat="48.82026" lon="2.40143">
        <ele>89.1</ele>
        <time>2015-06-08T18:50:59.755Z</time>
      </trkpt>
      <trkpt lat="48.82023" lon="2.40153">
        <ele>89.7</ele>
        <time>2015-06-08T18:51:00.774Z</time>
      </trkpt>
      <trkpt lat="48.8202" lon="2.40164">
        <ele>89.8</ele>
        <time>2015-06-08T18:51:01.778Z</time>
      </trkpt>
      <trkpt lat="48.82016" lon="2.40175">
        <ele>89.7</ele>
        <time>2015-06-08T18:51:02.830Z</time>
      </trkpt>
      <trkpt lat="48.82014" lon="2.40186">
        <ele>89.4</ele>
        <time>2015-06-08T18:51:03.826Z</time>
      </trkpt>
      <trkpt lat="48.8201" lon="2.40197">
        <ele>89.4</ele>
        <time>2015-06-08T18:51:04.752Z</time>
      </trkpt>
      <trkpt lat="48.82008" lon="2.40208">
        <ele>89.1</ele>
        <time>2015-06-08T18:51:05.737Z</time>
      </trkpt>
      <trkpt lat="48.82005" lon="2.40219">
        <ele>89.1</ele>
        <time>2015-06-08T18:51:06.773Z</time>
      </trkpt>
      <trkpt lat="48.82002" lon="2.4023">
        <ele>89</ele>
        <time>2015-06-08T18:51:07.789Z</time>
      </trkpt>
      <trkpt lat="48.81999" lon="2.40241">
        <ele>89</ele>
        <time>2015-06-08T18:51:08.801Z</time>
      </trkpt>
      <trkpt lat="48.81996" lon="2.40252">
        <ele>89.5</ele>
        <time>2015-06-08T18:51:09.815Z</time>
      </trkpt>
      <trkpt lat="48.81993" lon="2.40263">
        <ele>89.6</ele>
        <time>2015-06-08T18:51:10.715Z</time>
      </trkpt>
      <trkpt lat="48.8199" lon="2.40275">
        <ele>89.6</ele>
        <time>2015-06-08T18:51:11.718Z</time>
      </trkpt>
      <trkpt lat="48.81986" lon="2.40286">
        <ele>90</ele>
        <time>2015-06-08T18:51:12.766Z</time>
      </trkpt>
      <trkpt lat="48.81983" lon="2.40297">
        <ele>90</ele>
        <time>2015-06-08T18:51:13.807Z</time>
      </trkpt>
      <trkpt lat="48.81979" lon="2.40308">
        <ele>89.9</ele>
        <time>2015-06-08T18:51:14.935Z</time>
      </trkpt>
      <trkpt lat="48.81976" lon="2.40319">
        <ele>90.4</ele>
        <time>2015-06-08T18:51:15.755Z</time>
      </trkpt>
      <trkpt lat="48.81974" lon="2.4033">
        <ele>90.7</ele>
        <time>2015-06-08T18:51:16.767Z</time>
      </trkpt>
      <trkpt lat="48.81971" lon="2.4034">
        <ele>90.9</ele>
        <time>2015-06-08T18:51:17.767Z</time>
      </trkpt>
      <trkpt lat="48.81968" lon="2.4035">
        <ele>91.1</ele>
        <time>2015-06-08T18:51:18.781Z</time>
      </trkpt>
      <trkpt lat="48.81965" lon="2.40359">
        <ele>90.9</ele>
        <time>2015-06-08T18:51:19.788Z</time>
      </trkpt>
      <trkpt lat="48.81962" lon="2.40369">
        <ele>90.6</ele>
        <time>2015-06-08T18:51:20.807Z</time>
      </trkpt>
      <trkpt lat="48.8196" lon="2.40378">
        <ele>90.5</ele>
        <time>2015-06-08T18:51:21.813Z</time>
      </trkpt>
      <trkpt lat="48.81958" lon="2.40388">
        <ele>90.6</ele>
        <time>2015-06-08T18:51:22.828Z</time>
      </trkpt>
      <trkpt lat="48.81956" lon="2.40398">
        <ele>90.6</ele>
        <time>2015-06-08T18:51:23.837Z</time>
      </trkpt>
      <trkpt lat="48.81953" lon="2.40407">
        <ele>90.3</ele>
        <time>2015-06-08T18:51:24.750Z</time>
      </trkpt>
      <trkpt lat="48.81951" lon="2.40416">
        <ele>90.2</ele>
        <time>2015-06-08T18:51:25.760Z</time>
      </trkpt>
      <trkpt lat="48.81949" lon="2.40426">
        <ele>90.2</ele>
        <time>2015-06-08T18:51:26.801Z</time>
      </trkpt>
      <trkpt lat="48.81947" lon="2.40434">
        <ele>89.8</ele>
        <time>2015-06-08T18:51:27.796Z</time>
      </trkpt>
      <trkpt lat="48.81946" lon="2.40442">
        <ele>89.7</ele>
        <time>2015-06-08T18:51:28.802Z</time>
      </trkpt>
      <trkpt lat="48.81947" lon="2.4045">
        <ele>89.7</ele>
        <time>2015-06-08T18:51:29.819Z</time>
      </trkpt>
      <trkpt lat="48.81947" lon="2.40458">
        <ele>89.8</ele>
        <time>2015-06-08T18:51:30.826Z</time>
      </trkpt>
      <trkpt lat="48.81946" lon="2.40465">
        <ele>89.5</ele>
        <time>2015-06-08T18:51:31.843Z</time>
      </trkpt>
      <trkpt lat="48.81944" lon="2.40473">
        <ele>89.2</ele>
        <time>2015-06-08T18:51:32.854Z</time>
      </trkpt>
      <trkpt lat="48.81942" lon="2.40481">
        <ele>89.1</ele>
        <time>2015-06-08T18:51:33.759Z</time>
      </trkpt>
      <trkpt lat="48.81939" lon="2.4049">
        <ele>89</ele>
        <time>2015-06-08T18:51:34.777Z</time>
      </trkpt>
      <trkpt lat="48.81937" lon="2.40499">
        <ele>88.6</ele>
        <time>2015-06-08T18:51:35.778Z</time>
      </trkpt>
      <trkpt lat="48.81934" lon="2.40508">
        <ele>88</ele>
        <time>2015-06-08T18:51:36.797Z</time>
      </trkpt>
      <trkpt lat="48.81931" lon="2.40517">
        <ele>88.1</ele>
        <time>2015-06-08T18:51:37.804Z</time>
      </trkpt>
      <trkpt lat="48.81929" lon="2.40527">
        <ele>88.2</ele>
        <time>2015-06-08T18:51:38.817Z</time>
      </trkpt>
      <trkpt lat="48.81926" lon="2.40537">
        <ele>88.4</ele>
        <time>2015-06-08T18:51:39.825Z</time>
      </trkpt>
      <trkpt lat="48.81924" lon="2.40547">
        <ele>88.4</ele>
        <time>2015-06-08T18:51:40.746Z</time>
      </trkpt>
      <trkpt lat="48.81921" lon="2.40558">
        <ele>88.5</ele>
        <time>2015-06-08T18:51:41.720Z</time>
      </trkpt>
      <trkpt lat="48.81918" lon="2.40568">
        <ele>88.2</ele>
        <time>2015-06-08T18:51:42.817Z</time>
      </trkpt>
      <trkpt lat="48.81915" lon="2.40578">
        <ele>88.3</ele>
        <time>2015-06-08T18:51:43.777Z</time>
      </trkpt>
      <trkpt lat="48.81912" lon="2.40588">
        <ele>87.9</ele>
        <time>2015-06-08T18:51:44.801Z</time>
      </trkpt>
      <trkpt lat="48.8191" lon="2.40598">
        <ele>87.6</ele>
        <time>2015-06-08T18:51:45.812Z</time>
      </trkpt>
      <trkpt lat="48.81907" lon="2.40609">
        <ele>86.6</ele>
        <time>2015-06-08T18:51:46.822Z</time>
      </trkpt>
      <trkpt lat="48.81905" lon="2.40619">
        <ele>86.2</ele>
        <time>2015-06-08T18:51:47.833Z</time>
      </trkpt>
      <trkpt lat="48.81903" lon="2.40629">
        <ele>85.9</ele>
        <time>2015-06-08T18:51:48.712Z</time>
      </trkpt>
      <trkpt lat="48.819" lon="2.40639">
        <ele>85.5</ele>
        <time>2015-06-08T18:51:49.999Z</time>
      </trkpt>
      <trkpt lat="48.81897" lon="2.40649">
        <ele>85.3</ele>
        <time>2015-06-08T18:51:50.784Z</time>
      </trkpt>
      <trkpt lat="48.81894" lon="2.4066">
        <ele>86</ele>
        <time>2015-06-08T18:51:51.774Z</time>
      </trkpt>
      <trkpt lat="48.81891" lon="2.40669">
        <ele>85.9</ele>
        <time>2015-06-08T18:51:52.780Z</time>
      </trkpt>
      <trkpt lat="48.81889" lon="2.40678">
        <ele>86.3</ele>
        <time>2015-06-08T18:51:53.783Z</time>
      </trkpt>
      <trkpt lat="48.81887" lon="2.40686">
        <ele>86.4</ele>
        <time>2015-06-08T18:51:54.748Z</time>
      </trkpt>
      <trkpt lat="48.81884" lon="2.40696">
        <ele>86.5</ele>
        <time>2015-06-08T18:51:55.753Z</time>
      </trkpt>
      <trkpt lat="48.8188" lon="2.40705">
        <ele>86.6</ele>
        <time>2015-06-08T18:51:56.885Z</time>
      </trkpt>
      <trkpt lat="48.81877" lon="2.40714">
        <ele>86.6</ele>
        <time>2015-06-08T18:51:57.773Z</time>
      </trkpt>
      <trkpt lat="48.81875" lon="2.40723">
        <ele>86.6</ele>
        <time>2015-06-08T18:51:58.748Z</time>
      </trkpt>
      <trkpt lat="48.81873" lon="2.40731">
        <ele>86.5</ele>
        <time>2015-06-08T18:51:59.754Z</time>
      </trkpt>
      <trkpt lat="48.81871" lon="2.40739">
        <ele>86.3</ele>
        <time>2015-06-08T18:52:00.767Z</time>
      </trkpt>
      <trkpt lat="48.81869" lon="2.40749">
        <ele>86.3</ele>
        <time>2015-06-08T18:52:01.775Z</time>
      </trkpt>
      <trkpt lat="48.81867" lon="2.40759">
        <ele>85.8</ele>
        <time>2015-06-08T18:52:02.793Z</time>
      </trkpt>
      <trkpt lat="48.81864" lon="2.40769">
        <ele>85.7</ele>
        <time>2015-06-08T18:52:03.804Z</time>
      </trkpt>
      <trkpt lat="48.81863" lon="2.40777">
        <ele>85.7</ele>
        <time>2015-06-08T18:52:04.815Z</time>
      </trkpt>
      <trkpt lat="48.81862" lon="2.40787">
        <ele>86.1</ele>
        <time>2015-06-08T18:52:05.827Z</time>
      </trkpt>
      <trkpt lat="48.8186" lon="2.40797">
        <ele>86.8</ele>
        <time>2015-06-08T18:52:06.752Z</time>
      </trkpt>
      <trkpt lat="48.81858" lon="2.40806">
        <ele>87.4</ele>
        <time>2015-06-08T18:52:07.716Z</time>
      </trkpt>
      <trkpt lat="48.81855" lon="2.40814">
        <ele>87.5</ele>
        <time>2015-06-08T18:52:08.763Z</time>
      </trkpt>
      <trkpt lat="48.81854" lon="2.40822">
        <ele>87.5</ele>
        <time>2015-06-08T18:52:09.777Z</time>
      </trkpt>
      <trkpt lat="48.81854" lon="2.40829">
        <ele>87.2</ele>
        <time>2015-06-08T18:52:10.807Z</time>
      </trkpt>
      <trkpt lat="48.81853" lon="2.40837">
        <ele>86.8</ele>
        <time>2015-06-08T18:52:11.817Z</time>
      </trkpt>
      <trkpt lat="48.81851" lon="2.40845">
        <ele>86.6</ele>
        <time>2015-06-08T18:52:12.830Z</time>
      </trkpt>
      <trkpt lat="48.81849" lon="2.40852">
        <ele>86.3</ele>
        <time>2015-06-08T18:52:13.738Z</time>
      </trkpt>
      <trkpt lat="48.81847" lon="2.4086">
        <ele>85.9</ele>
        <time>2015-06-08T18:52:14.746Z</time>
      </trkpt>
      <trkpt lat="48.81845" lon="2.40867">
        <ele>86.1</ele>
        <time>2015-06-08T18:52:15.778Z</time>
      </trkpt>
      <trkpt lat="48.81843" lon="2.40874">
        <ele>86.2</ele>
        <time>2015-06-08T18:52:16.800Z</time>
      </trkpt>
      <trkpt lat="48.81842" lon="2.40883">
        <ele>86.1</ele>
        <time>2015-06-08T18:52:17.845Z</time>
      </trkpt>
      <trkpt lat="48.81839" lon="2.40892">
        <ele>85.7</ele>
        <time>2015-06-08T18:52:18.815Z</time>
      </trkpt>
      <trkpt lat="48.81837" lon="2.40901">
        <ele>85.7</ele>
        <time>2015-06-08T18:52:19.713Z</time>
      </trkpt>
      <trkpt lat="48.81834" lon="2.4091">
        <ele>85.9</ele>
        <time>2015-06-08T18:52:20.789Z</time>
      </trkpt>
      <trkpt lat="48.81832" lon="2.40919">
        <ele>85.9</ele>
        <time>2015-06-08T18:52:21.806Z</time>
      </trkpt>
      <trkpt lat="48.8183" lon="2.40928">
        <ele>86.5</ele>
        <time>2015-06-08T18:52:22.739Z</time>
      </trkpt>
      <trkpt lat="48.81828" lon="2.40937">
        <ele>87</ele>
        <time>2015-06-08T18:52:23.743Z</time>
      </trkpt>
      <trkpt lat="48.81827" lon="2.40945">
        <ele>87.4</ele>
        <time>2015-06-08T18:52:24.766Z</time>
      </trkpt>
      <trkpt lat="48.81825" lon="2.40955">
        <ele>87.5</ele>
        <time>2015-06-08T18:52:25.777Z</time>
      </trkpt>
      <trkpt lat="48.81823" lon="2.40964">
        <ele>87.3</ele>
        <time>2015-06-08T18:52:26.794Z</time>
      </trkpt>
      <trkpt lat="48.81821" lon="2.40973">
        <ele>87</ele>
        <time>2015-06-08T18:52:27.799Z</time>
      </trkpt>
      <trkpt lat="48.81819" lon="2.40983">
        <ele>87.2</ele>
        <time>2015-06-08T18:52:28.822Z</time>
      </trkpt>
      <trkpt lat="48.81817" lon="2.40993">
        <ele>87.1</ele>
        <time>2015-06-08T18:52:29.765Z</time>
      </trkpt>
      <trkpt lat="48.81814" lon="2.41003">
        <ele>87</ele>
        <time>2015-06-08T18:52:30.747Z</time>
      </trkpt>
      <trkpt lat="48.81811" lon="2.41013">
        <ele>87.2</ele>
        <time>2015-06-08T18:52:31.754Z</time>
      </trkpt>
      <trkpt lat="48.81809" lon="2.41023">
        <ele>87.2</ele>
        <time>2015-06-08T18:52:32.796Z</time>
      </trkpt>
      <trkpt lat="48.81807" lon="2.41032">
        <ele>87</ele>
        <time>2015-06-08T18:52:33.790Z</time>
      </trkpt>
      <trkpt lat="48.81805" lon="2.4104">
        <ele>87.1</ele>
        <time>2015-06-08T18:52:34.804Z</time>
      </trkpt>
      <trkpt lat="48.81803" lon="2.41049">
        <ele>87.2</ele>
        <time>2015-06-08T18:52:35.815Z</time>
      </trkpt>
      <trkpt lat="48.81801" lon="2.41057">
        <ele>87.1</ele>
        <time>2015-06-08T18:52:36.763Z</time>
      </trkpt>
      <trkpt lat="48.81798" lon="2.41064">
        <ele>86.8</ele>
        <time>2015-06-08T18:52:37.769Z</time>
      </trkpt>
      <trkpt lat="48.81796" lon="2.41075">
        <ele>87.1</ele>
        <time>2015-06-08T18:52:39.830Z</time>
      </trkpt>
      <trkpt lat="48.81794" lon="2.4108">
        <ele>87.1</ele>
        <time>2015-06-08T18:52:40.843Z</time>
      </trkpt>
      <trkpt lat="48.81793" lon="2.41091">
        <ele>86.8</ele>
        <time>2015-06-08T18:52:43.784Z</time>
      </trkpt>
      <trkpt lat="48.81793" lon="2.41094">
        <ele>86.8</ele>
        <time>2015-06-08T18:52:44.837Z</time>
      </trkpt>
      <trkpt lat="48.81792" lon="2.41106">
        <ele>87.1</ele>
        <time>2015-06-08T18:52:50.818Z</time>
      </trkpt>
      <trkpt lat="48.81793" lon="2.41109">
        <ele>87.4</ele>
        <time>2015-06-08T18:52:51.765Z</time>
      </trkpt>
      <trkpt lat="48.81789" lon="2.41107">
        <ele>91</ele>
        <time>2015-06-08T18:53:53.824Z</time>
      </trkpt>
      <trkpt lat="48.81789" lon="2.41107">
        <ele>91.8</ele>
        <time>2015-06-08T18:53:54.791Z</time>
      </trkpt>
      <trkpt lat="48.81788" lon="2.41108">
        <ele>92.2</ele>
        <time>2015-06-08T18:56:09.785Z</time>
      </trkpt>
      <trkpt lat="48.81781" lon="2.41097">
        <ele>90.2</ele>
        <time>2015-06-08T18:56:10.734Z</time>
      </trkpt>
      <trkpt lat="48.81774" lon="2.41094">
        <ele>90.1</ele>
        <time>2015-06-08T18:56:13.776Z</time>
      </trkpt>
      <trkpt lat="48.81772" lon="2.41093">
        <ele>90</ele>
        <time>2015-06-08T18:56:14.834Z</time>
      </trkpt>
      <trkpt lat="48.81766" lon="2.41089">
        <ele>89.9</ele>
        <time>2015-06-08T18:56:16.762Z</time>
      </trkpt>
      <trkpt lat="48.81763" lon="2.41088">
        <ele>89.8</ele>
        <time>2015-06-08T18:56:17.813Z</time>
      </trkpt>
      <trkpt lat="48.81757" lon="2.41083">
        <ele>89.8</ele>
        <time>2015-06-08T18:56:19.837Z</time>
      </trkpt>
      <trkpt lat="48.81753" lon="2.41081">
        <ele>89.7</ele>
        <time>2015-06-08T18:56:20.867Z</time>
      </trkpt>
      <trkpt lat="48.81746" lon="2.41077">
        <ele>89.2</ele>
        <time>2015-06-08T18:56:22.763Z</time>
      </trkpt>
      <trkpt lat="48.81742" lon="2.41075">
        <ele>89.1</ele>
        <time>2015-06-08T18:56:23.786Z</time>
      </trkpt>
      <trkpt lat="48.81735" lon="2.41071">
        <ele>88.8</ele>
        <time>2015-06-08T18:56:25.830Z</time>
      </trkpt>
      <trkpt lat="48.81731" lon="2.41068">
        <ele>88.8</ele>
        <time>2015-06-08T18:56:26.847Z</time>
      </trkpt>
      <trkpt lat="48.81723" lon="2.41062">
        <ele>88.4</ele>
        <time>2015-06-08T18:56:28.774Z</time>
      </trkpt>
      <trkpt lat="48.8172" lon="2.41059">
        <ele>88.5</ele>
        <time>2015-06-08T18:56:29.797Z</time>
      </trkpt>
      <trkpt lat="48.81713" lon="2.41055">
        <ele>88</ele>
        <time>2015-06-08T18:56:31.829Z</time>
      </trkpt>
      <trkpt lat="48.81709" lon="2.41055">
        <ele>87.9</ele>
        <time>2015-06-08T18:56:32.833Z</time>
      </trkpt>
      <trkpt lat="48.81705" lon="2.41063">
        <ele>87.4</ele>
        <time>2015-06-08T18:56:34.770Z</time>
      </trkpt>
      <trkpt lat="48.81704" lon="2.41068">
        <ele>87.3</ele>
        <time>2015-06-08T18:56:35.792Z</time>
      </trkpt>
      <trkpt lat="48.81701" lon="2.41077">
        <ele>87.2</ele>
        <time>2015-06-08T18:56:37.758Z</time>
      </trkpt>
      <trkpt lat="48.817" lon="2.41081">
        <ele>87</ele>
        <time>2015-06-08T18:56:38.841Z</time>
      </trkpt>
      <trkpt lat="48.81697" lon="2.41094">
        <ele>86</ele>
        <time>2015-06-08T18:56:41.804Z</time>
      </trkpt>
      <trkpt lat="48.81696" lon="2.41098">
        <ele>85.8</ele>
        <time>2015-06-08T18:56:42.824Z</time>
      </trkpt>
      <trkpt lat="48.81692" lon="2.4111">
        <ele>86.1</ele>
        <time>2015-06-08T18:56:44.879Z</time>
      </trkpt>
      <trkpt lat="48.8169" lon="2.41117">
        <ele>86.3</ele>
        <time>2015-06-08T18:56:45.776Z</time>
      </trkpt>
      <trkpt lat="48.81688" lon="2.41124">
        <ele>86.4</ele>
        <time>2015-06-08T18:56:46.774Z</time>
      </trkpt>
      <trkpt lat="48.81685" lon="2.41132">
        <ele>86.4</ele>
        <time>2015-06-08T18:56:47.789Z</time>
      </trkpt>
      <trkpt lat="48.81683" lon="2.41138">
        <ele>86.4</ele>
        <time>2015-06-08T18:56:48.820Z</time>
      </trkpt>
      <trkpt lat="48.81681" lon="2.41146">
        <ele>86.4</ele>
        <time>2015-06-08T18:56:49.843Z</time>
      </trkpt>
      <trkpt lat="48.81679" lon="2.41153">
        <ele>86.7</ele>
        <time>2015-06-08T18:56:50.862Z</time>
      </trkpt>
      <trkpt lat="48.81678" lon="2.41161">
        <ele>86.9</ele>
        <time>2015-06-08T18:56:51.754Z</time>
      </trkpt>
      <trkpt lat="48.81677" lon="2.41169">
        <ele>87.2</ele>
        <time>2015-06-08T18:56:52.766Z</time>
      </trkpt>
      <trkpt lat="48.81677" lon="2.41175">
        <ele>87.3</ele>
        <time>2015-06-08T18:56:53.782Z</time>
      </trkpt>
      <trkpt lat="48.81677" lon="2.41183">
        <ele>87.3</ele>
        <time>2015-06-08T18:56:54.797Z</time>
      </trkpt>
      <trkpt lat="48.81676" lon="2.4119">
        <ele>87.3</ele>
        <time>2015-06-08T18:56:55.877Z</time>
      </trkpt>
      <trkpt lat="48.81676" lon="2.41198">
        <ele>87.3</ele>
        <time>2015-06-08T18:56:56.789Z</time>
      </trkpt>
      <trkpt lat="48.81676" lon="2.41205">
        <ele>87.5</ele>
        <time>2015-06-08T18:56:57.794Z</time>
      </trkpt>
      <trkpt lat="48.81675" lon="2.41213">
        <ele>87.4</ele>
        <time>2015-06-08T18:56:58.807Z</time>
      </trkpt>
      <trkpt lat="48.81675" lon="2.41221">
        <ele>87.5</ele>
        <time>2015-06-08T18:56:59.820Z</time>
      </trkpt>
      <trkpt lat="48.81674" lon="2.41229">
        <ele>87.6</ele>
        <time>2015-06-08T18:57:00.832Z</time>
      </trkpt>
      <trkpt lat="48.81674" lon="2.41237">
        <ele>87.8</ele>
        <time>2015-06-08T18:57:01.752Z</time>
      </trkpt>
      <trkpt lat="48.81673" lon="2.41244">
        <ele>87.6</ele>
        <time>2015-06-08T18:57:02.855Z</time>
      </trkpt>
      <trkpt lat="48.81672" lon="2.41252">
        <ele>87.5</ele>
        <time>2015-06-08T18:57:03.740Z</time>
      </trkpt>
      <trkpt lat="48.8167" lon="2.4126">
        <ele>87.7</ele>
        <time>2015-06-08T18:57:04.761Z</time>
      </trkpt>
      <trkpt lat="48.8167" lon="2.41268">
        <ele>87.8</ele>
        <time>2015-06-08T18:57:05.806Z</time>
      </trkpt>
      <trkpt lat="48.81669" lon="2.41276">
        <ele>87.7</ele>
        <time>2015-06-08T18:57:06.748Z</time>
      </trkpt>
      <trkpt lat="48.81669" lon="2.41285">
        <ele>87.6</ele>
        <time>2015-06-08T18:57:07.758Z</time>
      </trkpt>
      <trkpt lat="48.81669" lon="2.41293">
        <ele>87.8</ele>
        <time>2015-06-08T18:57:08.782Z</time>
      </trkpt>
      <trkpt lat="48.81668" lon="2.41301">
        <ele>87.7</ele>
        <time>2015-06-08T18:57:09.791Z</time>
      </trkpt>
      <trkpt lat="48.81668" lon="2.41309">
        <ele>87.4</ele>
        <time>2015-06-08T18:57:10.805Z</time>
      </trkpt>
      <trkpt lat="48.81668" lon="2.41316">
        <ele>87.1</ele>
        <time>2015-06-08T18:57:11.816Z</time>
      </trkpt>
      <trkpt lat="48.81668" lon="2.41327">
        <ele>86.8</ele>
        <time>2015-06-08T18:57:13.776Z</time>
      </trkpt>
      <trkpt lat="48.81668" lon="2.41332">
        <ele>87.3</ele>
        <time>2015-06-08T18:57:14.801Z</time>
      </trkpt>
      <trkpt lat="48.81667" lon="2.41342">
        <ele>87.7</ele>
        <time>2015-06-08T18:57:16.819Z</time>
      </trkpt>
      <trkpt lat="48.81666" lon="2.41349">
        <ele>87.8</ele>
        <time>2015-06-08T18:57:17.837Z</time>
      </trkpt>
      <trkpt lat="48.81665" lon="2.41357">
        <ele>87.7</ele>
        <time>2015-06-08T18:57:18.761Z</time>
      </trkpt>
      <trkpt lat="48.81664" lon="2.41365">
        <ele>87.4</ele>
        <time>2015-06-08T18:57:19.786Z</time>
      </trkpt>
      <trkpt lat="48.81664" lon="2.41372">
        <ele>87.5</ele>
        <time>2015-06-08T18:57:20.838Z</time>
      </trkpt>
      <trkpt lat="48.81664" lon="2.41379">
        <ele>87.3</ele>
        <time>2015-06-08T18:57:21.745Z</time>
      </trkpt>
      <trkpt lat="48.81663" lon="2.41391">
        <ele>87.5</ele>
        <time>2015-06-08T18:57:23.783Z</time>
      </trkpt>
      <trkpt lat="48.81663" lon="2.41397">
        <ele>87.6</ele>
        <time>2015-06-08T18:57:24.781Z</time>
      </trkpt>
      <trkpt lat="48.81663" lon="2.41409">
        <ele>87.2</ele>
        <time>2015-06-08T18:57:26.832Z</time>
      </trkpt>
      <trkpt lat="48.81663" lon="2.41415">
        <ele>87</ele>
        <time>2015-06-08T18:57:27.842Z</time>
      </trkpt>
      <trkpt lat="48.81664" lon="2.41427">
        <ele>86.4</ele>
        <time>2015-06-08T18:57:29.771Z</time>
      </trkpt>
      <trkpt lat="48.81663" lon="2.41435">
        <ele>86.2</ele>
        <time>2015-06-08T18:57:30.772Z</time>
      </trkpt>
      <trkpt lat="48.81662" lon="2.41443">
        <ele>86.2</ele>
        <time>2015-06-08T18:57:31.855Z</time>
      </trkpt>
      <trkpt lat="48.81663" lon="2.4145">
        <ele>85.9</ele>
        <time>2015-06-08T18:57:32.887Z</time>
      </trkpt>
      <trkpt lat="48.81663" lon="2.41458">
        <ele>85.9</ele>
        <time>2015-06-08T18:57:33.727Z</time>
      </trkpt>
      <trkpt lat="48.81662" lon="2.41466">
        <ele>86.1</ele>
        <time>2015-06-08T18:57:34.739Z</time>
      </trkpt>
      <trkpt lat="48.81663" lon="2.41475">
        <ele>86.6</ele>
        <time>2015-06-08T18:57:35.760Z</time>
      </trkpt>
      <trkpt lat="48.81663" lon="2.41483">
        <ele>86.6</ele>
        <time>2015-06-08T18:57:36.774Z</time>
      </trkpt>
      <trkpt lat="48.81663" lon="2.4149">
        <ele>86.5</ele>
        <time>2015-06-08T18:57:37.782Z</time>
      </trkpt>
      <trkpt lat="48.81663" lon="2.41496">
        <ele>86.5</ele>
        <time>2015-06-08T18:57:38.791Z</time>
      </trkpt>
      <trkpt lat="48.81663" lon="2.41504">
        <ele>86.1</ele>
        <time>2015-06-08T18:57:39.809Z</time>
      </trkpt>
      <trkpt lat="48.81664" lon="2.4151">
        <ele>86</ele>
        <time>2015-06-08T18:57:40.750Z</time>
      </trkpt>
      <trkpt lat="48.81665" lon="2.41522">
        <ele>86.7</ele>
        <time>2015-06-08T18:57:42.745Z</time>
      </trkpt>
      <trkpt lat="48.81665" lon="2.41529">
        <ele>87.1</ele>
        <time>2015-06-08T18:57:43.812Z</time>
      </trkpt>
      <trkpt lat="48.81664" lon="2.41543">
        <ele>87.8</ele>
        <time>2015-06-08T18:57:45.746Z</time>
      </trkpt>
      <trkpt lat="48.81664" lon="2.41548">
        <ele>87.9</ele>
        <time>2015-06-08T18:57:46.761Z</time>
      </trkpt>
      <trkpt lat="48.81665" lon="2.41558">
        <ele>88.1</ele>
        <time>2015-06-08T18:57:49.812Z</time>
      </trkpt>
      <trkpt lat="48.81667" lon="2.41564">
        <ele>88.2</ele>
        <time>2015-06-08T18:57:50.802Z</time>
      </trkpt>
      <trkpt lat="48.81667" lon="2.41571">
        <ele>88</ele>
        <time>2015-06-08T18:57:51.788Z</time>
      </trkpt>
      <trkpt lat="48.81671" lon="2.4158">
        <ele>87.4</ele>
        <time>2015-06-08T18:57:52.783Z</time>
      </trkpt>
      <trkpt lat="48.81674" lon="2.41588">
        <ele>87</ele>
        <time>2015-06-08T18:57:53.797Z</time>
      </trkpt>
      <trkpt lat="48.81676" lon="2.41595">
        <ele>86.9</ele>
        <time>2015-06-08T18:57:54.816Z</time>
      </trkpt>
      <trkpt lat="48.81678" lon="2.41602">
        <ele>86.8</ele>
        <time>2015-06-08T18:57:55.833Z</time>
      </trkpt>
      <trkpt lat="48.81679" lon="2.4161">
        <ele>87</ele>
        <time>2015-06-08T18:57:56.846Z</time>
      </trkpt>
      <trkpt lat="48.81681" lon="2.4162">
        <ele>87</ele>
        <time>2015-06-08T18:57:57.782Z</time>
      </trkpt>
      <trkpt lat="48.81681" lon="2.41631">
        <ele>87.3</ele>
        <time>2015-06-08T18:57:58.759Z</time>
      </trkpt>
      <trkpt lat="48.81683" lon="2.41641">
        <ele>87.1</ele>
        <time>2015-06-08T18:57:59.803Z</time>
      </trkpt>
      <trkpt lat="48.81685" lon="2.41651">
        <ele>87.4</ele>
        <time>2015-06-08T18:58:00.801Z</time>
      </trkpt>
      <trkpt lat="48.81687" lon="2.41659">
        <ele>87.8</ele>
        <time>2015-06-08T18:58:01.815Z</time>
      </trkpt>
      <trkpt lat="48.81689" lon="2.41666">
        <ele>87.7</ele>
        <time>2015-06-08T18:58:02.838Z</time>
      </trkpt>
      <trkpt lat="48.81689" lon="2.41673">
        <ele>87.8</ele>
        <time>2015-06-08T18:58:03.762Z</time>
      </trkpt>
      <trkpt lat="48.8169" lon="2.41681">
        <ele>87.8</ele>
        <time>2015-06-08T18:58:04.769Z</time>
      </trkpt>
      <trkpt lat="48.81689" lon="2.41689">
        <ele>87.9</ele>
        <time>2015-06-08T18:58:05.788Z</time>
      </trkpt>
      <trkpt lat="48.81689" lon="2.41698">
        <ele>88</ele>
        <time>2015-06-08T18:58:06.795Z</time>
      </trkpt>
      <trkpt lat="48.8169" lon="2.41709">
        <ele>88.1</ele>
        <time>2015-06-08T18:58:07.814Z</time>
      </trkpt>
      <trkpt lat="48.81691" lon="2.4172">
        <ele>88.3</ele>
        <time>2015-06-08T18:58:08.832Z</time>
      </trkpt>
      <trkpt lat="48.81693" lon="2.41728">
        <ele>88.4</ele>
        <time>2015-06-08T18:58:09.383Z</time>
      </trkpt>
      <trkpt lat="48.81694" lon="2.41735">
        <ele>88.4</ele>
        <time>2015-06-08T18:58:10.752Z</time>
      </trkpt>
      <trkpt lat="48.81694" lon="2.41745">
        <ele>88.1</ele>
        <time>2015-06-08T18:58:11.750Z</time>
      </trkpt>
      <trkpt lat="48.81696" lon="2.41757">
        <ele>86.9</ele>
        <time>2015-06-08T18:58:12.747Z</time>
      </trkpt>
      <trkpt lat="48.81697" lon="2.41767">
        <ele>86.3</ele>
        <time>2015-06-08T18:58:14.459Z</time>
      </trkpt>
      <trkpt lat="48.81698" lon="2.41775">
        <ele>86.1</ele>
        <time>2015-06-08T18:58:14.792Z</time>
      </trkpt>
      <trkpt lat="48.817" lon="2.41788">
        <ele>86.1</ele>
        <time>2015-06-08T18:58:15.781Z</time>
      </trkpt>
      <trkpt lat="48.81701" lon="2.418">
        <ele>87.7</ele>
        <time>2015-06-08T18:58:16.787Z</time>
      </trkpt>
      <trkpt lat="48.81704" lon="2.41809">
        <ele>89.8</ele>
        <time>2015-06-08T18:58:17.807Z</time>
      </trkpt>
      <trkpt lat="48.81705" lon="2.41817">
        <ele>89.8</ele>
        <time>2015-06-08T18:58:18.826Z</time>
      </trkpt>
      <trkpt lat="48.81706" lon="2.4183">
        <ele>89.8</ele>
        <time>2015-06-08T18:58:20.789Z</time>
      </trkpt>
      <trkpt lat="48.81708" lon="2.41836">
        <ele>89.7</ele>
        <time>2015-06-08T18:58:21.792Z</time>
      </trkpt>
      <trkpt lat="48.81711" lon="2.41848">
        <ele>89.9</ele>
        <time>2015-06-08T18:58:23.754Z</time>
      </trkpt>
      <trkpt lat="48.81712" lon="2.41855">
        <ele>89.6</ele>
        <time>2015-06-08T18:58:24.793Z</time>
      </trkpt>
      <trkpt lat="48.81714" lon="2.41862">
        <ele>89.5</ele>
        <time>2015-06-08T18:58:25.747Z</time>
      </trkpt>
      <trkpt lat="48.81716" lon="2.4187">
        <ele>89.3</ele>
        <time>2015-06-08T18:58:26.796Z</time>
      </trkpt>
      <trkpt lat="48.81718" lon="2.41877">
        <ele>89</ele>
        <time>2015-06-08T18:58:27.782Z</time>
      </trkpt>
      <trkpt lat="48.81719" lon="2.41883">
        <ele>88.9</ele>
        <time>2015-06-08T18:58:28.788Z</time>
      </trkpt>
      <trkpt lat="48.8172" lon="2.41891">
        <ele>88.8</ele>
        <time>2015-06-08T18:58:29.800Z</time>
      </trkpt>
      <trkpt lat="48.81721" lon="2.41897">
        <ele>88.7</ele>
        <time>2015-06-08T18:58:30.743Z</time>
      </trkpt>
      <trkpt lat="48.81723" lon="2.41909">
        <ele>88.9</ele>
        <time>2015-06-08T18:58:32.788Z</time>
      </trkpt>
      <trkpt lat="48.81723" lon="2.41917">
        <ele>88.7</ele>
        <time>2015-06-08T18:58:33.784Z</time>
      </trkpt>
      <trkpt lat="48.81724" lon="2.41925">
        <ele>88.6</ele>
        <time>2015-06-08T18:58:34.811Z</time>
      </trkpt>
      <trkpt lat="48.81725" lon="2.41932">
        <ele>88.5</ele>
        <time>2015-06-08T18:58:35.743Z</time>
      </trkpt>
      <trkpt lat="48.81726" lon="2.41964">
        <ele>88.8</ele>
        <time>2015-06-08T18:58:39.816Z</time>
      </trkpt>
      <trkpt lat="48.81727" lon="2.41974">
        <ele>89.2</ele>
        <time>2015-06-08T18:58:42.762Z</time>
      </trkpt>
      <trkpt lat="48.81727" lon="2.41982">
        <ele>89.5</ele>
        <time>2015-06-08T18:58:43.763Z</time>
      </trkpt>
      <trkpt lat="48.81728" lon="2.41991">
        <ele>89.7</ele>
        <time>2015-06-08T18:58:44.788Z</time>
      </trkpt>
      <trkpt lat="48.81727" lon="2.42002">
        <ele>89.6</ele>
        <time>2015-06-08T18:58:45.801Z</time>
      </trkpt>
      <trkpt lat="48.81725" lon="2.42017">
        <ele>89.2</ele>
        <time>2015-06-08T18:58:46.703Z</time>
      </trkpt>
      <trkpt lat="48.81728" lon="2.42025">
        <ele>89.3</ele>
        <time>2015-06-08T18:58:47.721Z</time>
      </trkpt>
      <trkpt lat="48.81729" lon="2.42033">
        <ele>89.1</ele>
        <time>2015-06-08T18:58:48.714Z</time>
      </trkpt>
      <trkpt lat="48.81728" lon="2.42042">
        <ele>88.8</ele>
        <time>2015-06-08T18:58:49.788Z</time>
      </trkpt>
      <trkpt lat="48.81729" lon="2.42049">
        <ele>88.8</ele>
        <time>2015-06-08T18:58:50.804Z</time>
      </trkpt>
      <trkpt lat="48.81728" lon="2.42058">
        <ele>88.8</ele>
        <time>2015-06-08T18:58:51.726Z</time>
      </trkpt>
      <trkpt lat="48.81727" lon="2.42067">
        <ele>89.1</ele>
        <time>2015-06-08T18:58:52.725Z</time>
      </trkpt>
      <trkpt lat="48.81726" lon="2.42075">
        <ele>89.3</ele>
        <time>2015-06-08T18:58:53.726Z</time>
      </trkpt>
      <trkpt lat="48.81725" lon="2.42083">
        <ele>89.1</ele>
        <time>2015-06-08T18:58:54.739Z</time>
      </trkpt>
      <trkpt lat="48.81724" lon="2.4209">
        <ele>89.1</ele>
        <time>2015-06-08T18:58:55.752Z</time>
      </trkpt>
      <trkpt lat="48.81724" lon="2.42097">
        <ele>89.2</ele>
        <time>2015-06-08T18:58:56.874Z</time>
      </trkpt>
      <trkpt lat="48.81723" lon="2.42108">
        <ele>88.8</ele>
        <time>2015-06-08T18:58:58.795Z</time>
      </trkpt>
      <trkpt lat="48.81722" lon="2.42112">
        <ele>89.3</ele>
        <time>2015-06-08T18:58:59.809Z</time>
      </trkpt>
      <trkpt lat="48.81721" lon="2.42125">
        <ele>90</ele>
        <time>2015-06-08T18:59:02.812Z</time>
      </trkpt>
      <trkpt lat="48.81721" lon="2.42129">
        <ele>89.7</ele>
        <time>2015-06-08T18:59:03.828Z</time>
      </trkpt>
      <trkpt lat="48.81718" lon="2.42142">
        <ele>90.1</ele>
        <time>2015-06-08T18:59:06.759Z</time>
      </trkpt>
      <trkpt lat="48.81718" lon="2.42145">
        <ele>90</ele>
        <time>2015-06-08T18:59:07.774Z</time>
      </trkpt>
      <trkpt lat="48.81717" lon="2.42158">
        <ele>90.7</ele>
        <time>2015-06-08T18:59:10.804Z</time>
      </trkpt>
      <trkpt lat="48.81717" lon="2.42162">
        <ele>91</ele>
        <time>2015-06-08T18:59:11.815Z</time>
      </trkpt>
      <trkpt lat="48.81717" lon="2.42173">
        <ele>90.9</ele>
        <time>2015-06-08T18:59:14.824Z</time>
      </trkpt>
      <trkpt lat="48.81717" lon="2.42178">
        <ele>90.6</ele>
        <time>2015-06-08T18:59:15.882Z</time>
      </trkpt>
      <trkpt lat="48.81718" lon="2.42184">
        <ele>89.5</ele>
        <time>2015-06-08T18:59:16.746Z</time>
      </trkpt>
      <trkpt lat="48.81719" lon="2.42191">
        <ele>88.3</ele>
        <time>2015-06-08T18:59:17.773Z</time>
      </trkpt>
      <trkpt lat="48.8172" lon="2.42199">
        <ele>87.2</ele>
        <time>2015-06-08T18:59:18.812Z</time>
      </trkpt>
      <trkpt lat="48.81722" lon="2.42206">
        <ele>86.3</ele>
        <time>2015-06-08T18:59:19.849Z</time>
      </trkpt>
      <trkpt lat="48.81724" lon="2.42213">
        <ele>85.6</ele>
        <time>2015-06-08T18:59:20.868Z</time>
      </trkpt>
      <trkpt lat="48.81726" lon="2.4222">
        <ele>85.4</ele>
        <time>2015-06-08T18:59:21.736Z</time>
      </trkpt>
      <trkpt lat="48.81727" lon="2.42228">
        <ele>86.4</ele>
        <time>2015-06-08T18:59:22.748Z</time>
      </trkpt>
      <trkpt lat="48.81732" lon="2.42234">
        <ele>87.7</ele>
        <time>2015-06-08T18:59:23.761Z</time>
      </trkpt>
      <trkpt lat="48.81734" lon="2.42245">
        <ele>88.7</ele>
        <time>2015-06-08T18:59:25.780Z</time>
      </trkpt>
      <trkpt lat="48.81733" lon="2.42251">
        <ele>89.3</ele>
        <time>2015-06-08T18:59:26.855Z</time>
      </trkpt>
      <trkpt lat="48.81731" lon="2.42262">
        <ele>88.5</ele>
        <time>2015-06-08T18:59:28.768Z</time>
      </trkpt>
      <trkpt lat="48.8173" lon="2.42267">
        <ele>88.4</ele>
        <time>2015-06-08T18:59:29.808Z</time>
      </trkpt>
      <trkpt lat="48.81726" lon="2.42277">
        <ele>88.1</ele>
        <time>2015-06-08T18:59:31.797Z</time>
      </trkpt>
      <trkpt lat="48.81724" lon="2.42282">
        <ele>87.9</ele>
        <time>2015-06-08T18:59:32.844Z</time>
      </trkpt>
      <trkpt lat="48.81722" lon="2.42292">
        <ele>87.5</ele>
        <time>2015-06-08T18:59:35.162Z</time>
      </trkpt>
      <trkpt lat="48.81721" lon="2.42297">
        <ele>87.8</ele>
        <time>2015-06-08T18:59:35.829Z</time>
      </trkpt>
      <trkpt lat="48.8172" lon="2.42307">
        <ele>88</ele>
        <time>2015-06-08T18:59:37.762Z</time>
      </trkpt>
      <trkpt lat="48.81719" lon="2.42312">
        <ele>88.2</ele>
        <time>2015-06-08T18:59:38.809Z</time>
      </trkpt>
      <trkpt lat="48.81716" lon="2.42323">
        <ele>88.4</ele>
        <time>2015-06-08T18:59:41.343Z</time>
      </trkpt>
      <trkpt lat="48.81715" lon="2.4233">
        <ele>88.5</ele>
        <time>2015-06-08T18:59:41.760Z</time>
      </trkpt>
      <trkpt lat="48.81714" lon="2.42343">
        <ele>88.8</ele>
        <time>2015-06-08T18:59:43.764Z</time>
      </trkpt>
      <trkpt lat="48.81713" lon="2.4235">
        <ele>88.9</ele>
        <time>2015-06-08T18:59:44.855Z</time>
      </trkpt>
      <trkpt lat="48.81712" lon="2.42357">
        <ele>89</ele>
        <time>2015-06-08T18:59:46.420Z</time>
      </trkpt>
      <trkpt lat="48.8171" lon="2.42364">
        <ele>89.3</ele>
        <time>2015-06-08T18:59:46.773Z</time>
      </trkpt>
      <trkpt lat="48.81709" lon="2.42377">
        <ele>90</ele>
        <time>2015-06-08T18:59:48.792Z</time>
      </trkpt>
      <trkpt lat="48.81708" lon="2.42384">
        <ele>90.2</ele>
        <time>2015-06-08T18:59:49.859Z</time>
      </trkpt>
      <trkpt lat="48.81707" lon="2.42392">
        <ele>90.4</ele>
        <time>2015-06-08T18:59:50.802Z</time>
      </trkpt>
      <trkpt lat="48.81706" lon="2.42399">
        <ele>90.4</ele>
        <time>2015-06-08T18:59:51.816Z</time>
      </trkpt>
      <trkpt lat="48.81704" lon="2.42407">
        <ele>90.6</ele>
        <time>2015-06-08T18:59:51.466Z</time>
      </trkpt>
      <trkpt lat="48.81704" lon="2.42414">
        <ele>90.8</ele>
        <time>2015-06-08T18:59:53.991Z</time>
      </trkpt>
      <trkpt lat="48.81704" lon="2.42421">
        <ele>91</ele>
        <time>2015-06-08T18:59:54.753Z</time>
      </trkpt>
      <trkpt lat="48.81705" lon="2.42429">
        <ele>91.4</ele>
        <time>2015-06-08T18:59:55.765Z</time>
      </trkpt>
      <trkpt lat="48.81704" lon="2.42438">
        <ele>91.6</ele>
        <time>2015-06-08T18:59:56.775Z</time>
      </trkpt>
      <trkpt lat="48.81704" lon="2.42446">
        <ele>91.5</ele>
        <time>2015-06-08T18:59:57.791Z</time>
      </trkpt>
      <trkpt lat="48.81705" lon="2.42454">
        <ele>91.5</ele>
        <time>2015-06-08T18:59:58.814Z</time>
      </trkpt>
      <trkpt lat="48.81705" lon="2.4246">
        <ele>91.8</ele>
        <time>2015-06-08T18:59:59.822Z</time>
      </trkpt>
      <trkpt lat="48.81705" lon="2.42474">
        <ele>92.1</ele>
        <time>2015-06-08T19:00:01.747Z</time>
      </trkpt>
      <trkpt lat="48.81705" lon="2.42481">
        <ele>92</ele>
        <time>2015-06-08T19:00:02.831Z</time>
      </trkpt>
      <trkpt lat="48.81703" lon="2.42494">
        <ele>91.8</ele>
        <time>2015-06-08T19:00:04.771Z</time>
      </trkpt>
      <trkpt lat="48.81703" lon="2.425">
        <ele>91.9</ele>
        <time>2015-06-08T19:00:05.776Z</time>
      </trkpt>
      <trkpt lat="48.81704" lon="2.42512">
        <ele>91.6</ele>
        <time>2015-06-08T19:00:07.741Z</time>
      </trkpt>
      <trkpt lat="48.81704" lon="2.42517">
        <ele>91.6</ele>
        <time>2015-06-08T19:00:08.838Z</time>
      </trkpt>
      <trkpt lat="48.81702" lon="2.42527">
        <ele>91.6</ele>
        <time>2015-06-08T19:00:10.765Z</time>
      </trkpt>
      <trkpt lat="48.81701" lon="2.42532">
        <ele>91.5</ele>
        <time>2015-06-08T19:00:11.780Z</time>
      </trkpt>
      <trkpt lat="48.81698" lon="2.42543">
        <ele>91.2</ele>
        <time>2015-06-08T19:00:13.738Z</time>
      </trkpt>
      <trkpt lat="48.81696" lon="2.42551">
        <ele>91.2</ele>
        <time>2015-06-08T19:00:14.753Z</time>
      </trkpt>
      <trkpt lat="48.81694" lon="2.4256">
        <ele>91</ele>
        <time>2015-06-08T19:00:15.772Z</time>
      </trkpt>
      <trkpt lat="48.81693" lon="2.42571">
        <ele>90.8</ele>
        <time>2015-06-08T19:00:16.798Z</time>
      </trkpt>
      <trkpt lat="48.81692" lon="2.42583">
        <ele>90.8</ele>
        <time>2015-06-08T19:00:17.729Z</time>
      </trkpt>
      <trkpt lat="48.81692" lon="2.42596">
        <ele>90.3</ele>
        <time>2015-06-08T19:00:18.743Z</time>
      </trkpt>
      <trkpt lat="48.81692" lon="2.42608">
        <ele>89.7</ele>
        <time>2015-06-08T19:00:19.753Z</time>
      </trkpt>
      <trkpt lat="48.81692" lon="2.42619">
        <ele>89.5</ele>
        <time>2015-06-08T19:00:20.778Z</time>
      </trkpt>
      <trkpt lat="48.81692" lon="2.42629">
        <ele>89.4</ele>
        <time>2015-06-08T19:00:21.785Z</time>
      </trkpt>
      <trkpt lat="48.81692" lon="2.42639">
        <ele>89.2</ele>
        <time>2015-06-08T19:00:22.800Z</time>
      </trkpt>
      <trkpt lat="48.81692" lon="2.42647">
        <ele>88.9</ele>
        <time>2015-06-08T19:00:23.740Z</time>
      </trkpt>
      <trkpt lat="48.81693" lon="2.42655">
        <ele>88.4</ele>
        <time>2015-06-08T19:00:24.751Z</time>
      </trkpt>
      <trkpt lat="48.81693" lon="2.42663">
        <ele>88</ele>
        <time>2015-06-08T19:00:25.772Z</time>
      </trkpt>
      <trkpt lat="48.81693" lon="2.42673">
        <ele>88.5</ele>
        <time>2015-06-08T19:00:26.783Z</time>
      </trkpt>
      <trkpt lat="48.81692" lon="2.42681">
        <ele>88.8</ele>
        <time>2015-06-08T19:00:27.848Z</time>
      </trkpt>
      <trkpt lat="48.81692" lon="2.4269">
        <ele>88.9</ele>
        <time>2015-06-08T19:00:28.743Z</time>
      </trkpt>
      <trkpt lat="48.81691" lon="2.42702">
        <ele>89</ele>
        <time>2015-06-08T19:00:30.765Z</time>
      </trkpt>
      <trkpt lat="48.81691" lon="2.42709">
        <ele>88.9</ele>
        <time>2015-06-08T19:00:31.781Z</time>
      </trkpt>
      <trkpt lat="48.81691" lon="2.42717">
        <ele>88.8</ele>
        <time>2015-06-08T19:00:32.799Z</time>
      </trkpt>
      <trkpt lat="48.81691" lon="2.42724">
        <ele>88.7</ele>
        <time>2015-06-08T19:00:33.757Z</time>
      </trkpt>
      <trkpt lat="48.81691" lon="2.42731">
        <ele>88.5</ele>
        <time>2015-06-08T19:00:34.725Z</time>
      </trkpt>
      <trkpt lat="48.81692" lon="2.42739">
        <ele>87.8</ele>
        <time>2015-06-08T19:00:35.732Z</time>
      </trkpt>
      <trkpt lat="48.81693" lon="2.42748">
        <ele>87.3</ele>
        <time>2015-06-08T19:00:36.748Z</time>
      </trkpt>
      <trkpt lat="48.81693" lon="2.42755">
        <ele>87.2</ele>
        <time>2015-06-08T19:00:37.763Z</time>
      </trkpt>
      <trkpt lat="48.81692" lon="2.42763">
        <ele>87.5</ele>
        <time>2015-06-08T19:00:38.861Z</time>
      </trkpt>
      <trkpt lat="48.81693" lon="2.4277">
        <ele>87.7</ele>
        <time>2015-06-08T19:00:39.781Z</time>
      </trkpt>
      <trkpt lat="48.81692" lon="2.42783">
        <ele>87.8</ele>
        <time>2015-06-08T19:00:41.753Z</time>
      </trkpt>
      <trkpt lat="48.81693" lon="2.4279">
        <ele>87.2</ele>
        <time>2015-06-08T19:00:42.765Z</time>
      </trkpt>
      <trkpt lat="48.81693" lon="2.42802">
        <ele>86.8</ele>
        <time>2015-06-08T19:00:44.801Z</time>
      </trkpt>
      <trkpt lat="48.81694" lon="2.42809">
        <ele>87.1</ele>
        <time>2015-06-08T19:00:45.821Z</time>
      </trkpt>
      <trkpt lat="48.81694" lon="2.42816">
        <ele>87.7</ele>
        <time>2015-06-08T19:00:46.743Z</time>
      </trkpt>
      <trkpt lat="48.81693" lon="2.42824">
        <ele>87.9</ele>
        <time>2015-06-08T19:00:47.743Z</time>
      </trkpt>
      <trkpt lat="48.81694" lon="2.42831">
        <ele>87.9</ele>
        <time>2015-06-08T19:00:48.754Z</time>
      </trkpt>
      <trkpt lat="48.81695" lon="2.42838">
        <ele>87.7</ele>
        <time>2015-06-08T19:00:49.763Z</time>
      </trkpt>
      <trkpt lat="48.81695" lon="2.42851">
        <ele>87.7</ele>
        <time>2015-06-08T19:00:51.783Z</time>
      </trkpt>
      <trkpt lat="48.81695" lon="2.42857">
        <ele>87.4</ele>
        <time>2015-06-08T19:00:52.808Z</time>
      </trkpt>
      <trkpt lat="48.81695" lon="2.42871">
        <ele>87.3</ele>
        <time>2015-06-08T19:00:54.746Z</time>
      </trkpt>
      <trkpt lat="48.81695" lon="2.42878">
        <ele>87.2</ele>
        <time>2015-06-08T19:00:55.758Z</time>
      </trkpt>
      <trkpt lat="48.81695" lon="2.4289">
        <ele>87.2</ele>
        <time>2015-06-08T19:00:57.791Z</time>
      </trkpt>
      <trkpt lat="48.81695" lon="2.42896">
        <ele>87.4</ele>
        <time>2015-06-08T19:00:58.808Z</time>
      </trkpt>
      <trkpt lat="48.81697" lon="2.42907">
        <ele>87.6</ele>
        <time>2015-06-08T19:01:00.765Z</time>
      </trkpt>
      <trkpt lat="48.81698" lon="2.42912">
        <ele>87.8</ele>
        <time>2015-06-08T19:01:01.776Z</time>
      </trkpt>
      <trkpt lat="48.81699" lon="2.42923">
        <ele>87.8</ele>
        <time>2015-06-08T19:01:03.844Z</time>
      </trkpt>
      <trkpt lat="48.81699" lon="2.42929">
        <ele>87.8</ele>
        <time>2015-06-08T19:01:04.711Z</time>
      </trkpt>
      <trkpt lat="48.81699" lon="2.42936">
        <ele>87.6</ele>
        <time>2015-06-08T19:01:05.737Z</time>
      </trkpt>
      <trkpt lat="48.817" lon="2.42942">
        <ele>87.4</ele>
        <time>2015-06-08T19:01:06.881Z</time>
      </trkpt>
      <trkpt lat="48.81701" lon="2.42951">
        <ele>87.3</ele>
        <time>2015-06-08T19:01:07.749Z</time>
      </trkpt>
      <trkpt lat="48.817" lon="2.42959">
        <ele>87.3</ele>
        <time>2015-06-08T19:01:08.794Z</time>
      </trkpt>
      <trkpt lat="48.817" lon="2.42968">
        <ele>87.1</ele>
        <time>2015-06-08T19:01:09.796Z</time>
      </trkpt>
      <trkpt lat="48.81699" lon="2.42979">
        <ele>87.3</ele>
        <time>2015-06-08T19:01:10.804Z</time>
      </trkpt>
      <trkpt lat="48.81697" lon="2.42989">
        <ele>87.3</ele>
        <time>2015-06-08T19:01:11.816Z</time>
      </trkpt>
      <trkpt lat="48.81696" lon="2.42999">
        <ele>87.4</ele>
        <time>2015-06-08T19:01:12.705Z</time>
      </trkpt>
      <trkpt lat="48.81694" lon="2.43011">
        <ele>87.2</ele>
        <time>2015-06-08T19:01:13.775Z</time>
      </trkpt>
      <trkpt lat="48.81692" lon="2.43023">
        <ele>87</ele>
        <time>2015-06-08T19:01:14.787Z</time>
      </trkpt>
      <trkpt lat="48.81691" lon="2.43035">
        <ele>86.7</ele>
        <time>2015-06-08T19:01:15.718Z</time>
      </trkpt>
      <trkpt lat="48.81691" lon="2.43047">
        <ele>86.3</ele>
        <time>2015-06-08T19:01:16.790Z</time>
      </trkpt>
      <trkpt lat="48.8169" lon="2.43059">
        <ele>86.3</ele>
        <time>2015-06-08T19:01:17.766Z</time>
      </trkpt>
      <trkpt lat="48.81691" lon="2.43071">
        <ele>85.8</ele>
        <time>2015-06-08T19:01:18.775Z</time>
      </trkpt>
      <trkpt lat="48.81691" lon="2.43082">
        <ele>85.7</ele>
        <time>2015-06-08T19:01:19.794Z</time>
      </trkpt>
      <trkpt lat="48.81691" lon="2.43091">
        <ele>85.8</ele>
        <time>2015-06-08T19:01:20.804Z</time>
      </trkpt>
      <trkpt lat="48.8169" lon="2.431">
        <ele>85.6</ele>
        <time>2015-06-08T19:01:21.825Z</time>
      </trkpt>
      <trkpt lat="48.81691" lon="2.43109">
        <ele>85.4</ele>
        <time>2015-06-08T19:01:22.744Z</time>
      </trkpt>
      <trkpt lat="48.81693" lon="2.43118">
        <ele>84.9</ele>
        <time>2015-06-08T19:01:23.762Z</time>
      </trkpt>
      <trkpt lat="48.81696" lon="2.43126">
        <ele>84.2</ele>
        <time>2015-06-08T19:01:24.772Z</time>
      </trkpt>
      <trkpt lat="48.81697" lon="2.43134">
        <ele>83.8</ele>
        <time>2015-06-08T19:01:25.774Z</time>
      </trkpt>
      <trkpt lat="48.81697" lon="2.43142">
        <ele>83.3</ele>
        <time>2015-06-08T19:01:26.794Z</time>
      </trkpt>
      <trkpt lat="48.81697" lon="2.4315">
        <ele>82.8</ele>
        <time>2015-06-08T19:01:27.996Z</time>
      </trkpt>
      <trkpt lat="48.817" lon="2.43159">
        <ele>82.1</ele>
        <time>2015-06-08T19:01:28.746Z</time>
      </trkpt>
      <trkpt lat="48.81702" lon="2.43166">
        <ele>81.4</ele>
        <time>2015-06-08T19:01:29.752Z</time>
      </trkpt>
      <trkpt lat="48.81703" lon="2.43175">
        <ele>81.5</ele>
        <time>2015-06-08T19:01:30.757Z</time>
      </trkpt>
      <trkpt lat="48.81704" lon="2.43184">
        <ele>81.8</ele>
        <time>2015-06-08T19:01:31.766Z</time>
      </trkpt>
      <trkpt lat="48.81705" lon="2.43196">
        <ele>81.7</ele>
        <time>2015-06-08T19:01:32.801Z</time>
      </trkpt>
      <trkpt lat="48.81704" lon="2.4321">
        <ele>81.1</ele>
        <time>2015-06-08T19:01:33.817Z</time>
      </trkpt>
      <trkpt lat="48.81704" lon="2.43222">
        <ele>81.1</ele>
        <time>2015-06-08T19:01:34.737Z</time>
      </trkpt>
      <trkpt lat="48.81704" lon="2.43236">
        <ele>80.4</ele>
        <time>2015-06-08T19:01:35.764Z</time>
      </trkpt>
      <trkpt lat="48.81706" lon="2.43247">
        <ele>79.8</ele>
        <time>2015-06-08T19:01:36.736Z</time>
      </trkpt>
      <trkpt lat="48.81706" lon="2.43259">
        <ele>79.9</ele>
        <time>2015-06-08T19:01:37.747Z</time>
      </trkpt>
      <trkpt lat="48.81706" lon="2.4327">
        <ele>80.3</ele>
        <time>2015-06-08T19:01:38.777Z</time>
      </trkpt>
      <trkpt lat="48.81706" lon="2.43282">
        <ele>80.3</ele>
        <time>2015-06-08T19:01:39.792Z</time>
      </trkpt>
      <trkpt lat="48.81706" lon="2.43293">
        <ele>81.1</ele>
        <time>2015-06-08T19:01:40.800Z</time>
      </trkpt>
      <trkpt lat="48.81705" lon="2.43304">
        <ele>81.3</ele>
        <time>2015-06-08T19:01:41.711Z</time>
      </trkpt>
      <trkpt lat="48.81704" lon="2.43315">
        <ele>81.3</ele>
        <time>2015-06-08T19:01:42.760Z</time>
      </trkpt>
      <trkpt lat="48.81702" lon="2.43325">
        <ele>81.4</ele>
        <time>2015-06-08T19:01:43.771Z</time>
      </trkpt>
      <trkpt lat="48.817" lon="2.43334">
        <ele>81.5</ele>
        <time>2015-06-08T19:01:44.774Z</time>
      </trkpt>
      <trkpt lat="48.81697" lon="2.43343">
        <ele>81.5</ele>
        <time>2015-06-08T19:01:45.779Z</time>
      </trkpt>
      <trkpt lat="48.81693" lon="2.43352">
        <ele>81.5</ele>
        <time>2015-06-08T19:01:46.795Z</time>
      </trkpt>
      <trkpt lat="48.81689" lon="2.4336">
        <ele>81.5</ele>
        <time>2015-06-08T19:01:47.714Z</time>
      </trkpt>
      <trkpt lat="48.81686" lon="2.43366">
        <ele>81.1</ele>
        <time>2015-06-08T19:01:48.735Z</time>
      </trkpt>
      <trkpt lat="48.81684" lon="2.43373">
        <ele>81</ele>
        <time>2015-06-08T19:01:49.787Z</time>
      </trkpt>
      <trkpt lat="48.81681" lon="2.43378">
        <ele>80.6</ele>
        <time>2015-06-08T19:01:51.034Z</time>
      </trkpt>
      <trkpt lat="48.8168" lon="2.43385">
        <ele>80.7</ele>
        <time>2015-06-08T19:01:51.713Z</time>
      </trkpt>
      <trkpt lat="48.81679" lon="2.43392">
        <ele>81</ele>
        <time>2015-06-08T19:01:52.755Z</time>
      </trkpt>
      <trkpt lat="48.81678" lon="2.434">
        <ele>81.1</ele>
        <time>2015-06-08T19:01:53.762Z</time>
      </trkpt>
      <trkpt lat="48.81677" lon="2.43409">
        <ele>81.5</ele>
        <time>2015-06-08T19:01:54.777Z</time>
      </trkpt>
      <trkpt lat="48.81678" lon="2.43418">
        <ele>81.9</ele>
        <time>2015-06-08T19:01:55.778Z</time>
      </trkpt>
      <trkpt lat="48.81678" lon="2.43427">
        <ele>82.3</ele>
        <time>2015-06-08T19:01:56.743Z</time>
      </trkpt>
      <trkpt lat="48.81678" lon="2.43435">
        <ele>82.6</ele>
        <time>2015-06-08T19:01:57.743Z</time>
      </trkpt>
      <trkpt lat="48.81678" lon="2.43445">
        <ele>82.4</ele>
        <time>2015-06-08T19:01:58.765Z</time>
      </trkpt>
      <trkpt lat="48.81679" lon="2.43456">
        <ele>82</ele>
        <time>2015-06-08T19:01:59.776Z</time>
      </trkpt>
      <trkpt lat="48.8168" lon="2.43465">
        <ele>82.3</ele>
        <time>2015-06-08T19:02:00.783Z</time>
      </trkpt>
      <trkpt lat="48.81681" lon="2.43475">
        <ele>82.6</ele>
        <time>2015-06-08T19:02:01.789Z</time>
      </trkpt>
      <trkpt lat="48.81682" lon="2.43485">
        <ele>82</ele>
        <time>2015-06-08T19:02:02.842Z</time>
      </trkpt>
      <trkpt lat="48.81683" lon="2.43494">
        <ele>81.6</ele>
        <time>2015-06-08T19:02:03.721Z</time>
      </trkpt>
      <trkpt lat="48.81685" lon="2.43504">
        <ele>81</ele>
        <time>2015-06-08T19:02:04.743Z</time>
      </trkpt>
      <trkpt lat="48.81687" lon="2.43514">
        <ele>80.5</ele>
        <time>2015-06-08T19:02:05.805Z</time>
      </trkpt>
      <trkpt lat="48.8169" lon="2.43523">
        <ele>80.3</ele>
        <time>2015-06-08T19:02:06.711Z</time>
      </trkpt>
      <trkpt lat="48.81692" lon="2.43534">
        <ele>81</ele>
        <time>2015-06-08T19:02:07.711Z</time>
      </trkpt>
      <trkpt lat="48.81695" lon="2.43543">
        <ele>81.4</ele>
        <time>2015-06-08T19:02:08.744Z</time>
      </trkpt>
      <trkpt lat="48.81698" lon="2.43551">
        <ele>81.6</ele>
        <time>2015-06-08T19:02:09.754Z</time>
      </trkpt>
      <trkpt lat="48.81702" lon="2.43558">
        <ele>81.3</ele>
        <time>2015-06-08T19:02:10.767Z</time>
      </trkpt>
      <trkpt lat="48.81706" lon="2.43565">
        <ele>81.4</ele>
        <time>2015-06-08T19:02:11.770Z</time>
      </trkpt>
      <trkpt lat="48.81709" lon="2.43572">
        <ele>81.5</ele>
        <time>2015-06-08T19:02:12.684Z</time>
      </trkpt>
      <trkpt lat="48.81713" lon="2.4358">
        <ele>82.1</ele>
        <time>2015-06-08T19:02:13.718Z</time>
      </trkpt>
      <trkpt lat="48.81716" lon="2.43589">
        <ele>82.4</ele>
        <time>2015-06-08T19:02:14.731Z</time>
      </trkpt>
      <trkpt lat="48.81719" lon="2.43598">
        <ele>82.6</ele>
        <time>2015-06-08T19:02:15.759Z</time>
      </trkpt>
      <trkpt lat="48.8172" lon="2.43607">
        <ele>82.9</ele>
        <time>2015-06-08T19:02:16.763Z</time>
      </trkpt>
      <trkpt lat="48.81721" lon="2.43617">
        <ele>83</ele>
        <time>2015-06-08T19:02:17.763Z</time>
      </trkpt>
      <trkpt lat="48.8172" lon="2.43627">
        <ele>83.2</ele>
        <time>2015-06-08T19:02:18.774Z</time>
      </trkpt>
      <trkpt lat="48.81719" lon="2.43637">
        <ele>83.2</ele>
        <time>2015-06-08T19:02:19.779Z</time>
      </trkpt>
      <trkpt lat="48.81719" lon="2.43646">
        <ele>83.3</ele>
        <time>2015-06-08T19:02:20.788Z</time>
      </trkpt>
      <trkpt lat="48.8172" lon="2.43656">
        <ele>83.2</ele>
        <time>2015-06-08T19:02:21.799Z</time>
      </trkpt>
      <trkpt lat="48.8172" lon="2.43666">
        <ele>83.6</ele>
        <time>2015-06-08T19:02:22.719Z</time>
      </trkpt>
      <trkpt lat="48.81721" lon="2.43676">
        <ele>83.8</ele>
        <time>2015-06-08T19:02:23.724Z</time>
      </trkpt>
      <trkpt lat="48.81722" lon="2.43687">
        <ele>84</ele>
        <time>2015-06-08T19:02:24.739Z</time>
      </trkpt>
      <trkpt lat="48.81722" lon="2.43697">
        <ele>84.2</ele>
        <time>2015-06-08T19:02:25.749Z</time>
      </trkpt>
      <trkpt lat="48.81722" lon="2.43708">
        <ele>84.6</ele>
        <time>2015-06-08T19:02:26.763Z</time>
      </trkpt>
      <trkpt lat="48.81722" lon="2.43717">
        <ele>84.3</ele>
        <time>2015-06-08T19:02:27.773Z</time>
      </trkpt>
      <trkpt lat="48.81721" lon="2.43728">
        <ele>84.5</ele>
        <time>2015-06-08T19:02:28.787Z</time>
      </trkpt>
      <trkpt lat="48.81721" lon="2.43738">
        <ele>84.8</ele>
        <time>2015-06-08T19:02:29.796Z</time>
      </trkpt>
      <trkpt lat="48.81721" lon="2.43748">
        <ele>84.9</ele>
        <time>2015-06-08T19:02:30.716Z</time>
      </trkpt>
      <trkpt lat="48.81721" lon="2.43758">
        <ele>84.8</ele>
        <time>2015-06-08T19:02:31.725Z</time>
      </trkpt>
      <trkpt lat="48.81721" lon="2.43768">
        <ele>84.8</ele>
        <time>2015-06-08T19:02:32.766Z</time>
      </trkpt>
      <trkpt lat="48.81721" lon="2.43778">
        <ele>84.9</ele>
        <time>2015-06-08T19:02:33.748Z</time>
      </trkpt>
      <trkpt lat="48.81721" lon="2.43787">
        <ele>84.8</ele>
        <time>2015-06-08T19:02:34.760Z</time>
      </trkpt>
      <trkpt lat="48.81721" lon="2.43797">
        <ele>85</ele>
        <time>2015-06-08T19:02:35.764Z</time>
      </trkpt>
      <trkpt lat="48.8172" lon="2.43807">
        <ele>85.3</ele>
        <time>2015-06-08T19:02:36.780Z</time>
      </trkpt>
      <trkpt lat="48.8172" lon="2.43817">
        <ele>85.6</ele>
        <time>2015-06-08T19:02:37.790Z</time>
      </trkpt>
      <trkpt lat="48.81719" lon="2.43826">
        <ele>85.5</ele>
        <time>2015-06-08T19:02:38.799Z</time>
      </trkpt>
      <trkpt lat="48.81717" lon="2.43834">
        <ele>85.3</ele>
        <time>2015-06-08T19:02:39.806Z</time>
      </trkpt>
      <trkpt lat="48.81717" lon="2.43844">
        <ele>85.6</ele>
        <time>2015-06-08T19:02:41.012Z</time>
      </trkpt>
      <trkpt lat="48.81716" lon="2.43853">
        <ele>86</ele>
        <time>2015-06-08T19:02:41.718Z</time>
      </trkpt>
      <trkpt lat="48.81716" lon="2.43863">
        <ele>86.1</ele>
        <time>2015-06-08T19:02:42.738Z</time>
      </trkpt>
      <trkpt lat="48.81715" lon="2.43873">
        <ele>86</ele>
        <time>2015-06-08T19:02:43.774Z</time>
      </trkpt>
      <trkpt lat="48.81714" lon="2.43882">
        <ele>86.3</ele>
        <time>2015-06-08T19:02:44.849Z</time>
      </trkpt>
      <trkpt lat="48.81712" lon="2.43892">
        <ele>86.6</ele>
        <time>2015-06-08T19:02:45.731Z</time>
      </trkpt>
      <trkpt lat="48.81711" lon="2.43902">
        <ele>86.4</ele>
        <time>2015-06-08T19:02:46.731Z</time>
      </trkpt>
      <trkpt lat="48.8171" lon="2.43912">
        <ele>86.2</ele>
        <time>2015-06-08T19:02:47.743Z</time>
      </trkpt>
      <trkpt lat="48.81709" lon="2.43921">
        <ele>85.7</ele>
        <time>2015-06-08T19:02:48.751Z</time>
      </trkpt>
      <trkpt lat="48.81707" lon="2.4393">
        <ele>85.1</ele>
        <time>2015-06-08T19:02:49.771Z</time>
      </trkpt>
      <trkpt lat="48.81705" lon="2.4394">
        <ele>84.8</ele>
        <time>2015-06-08T19:02:50.785Z</time>
      </trkpt>
      <trkpt lat="48.81703" lon="2.43951">
        <ele>84.6</ele>
        <time>2015-06-08T19:02:51.802Z</time>
      </trkpt>
      <trkpt lat="48.81701" lon="2.43962">
        <ele>84.5</ele>
        <time>2015-06-08T19:02:52.962Z</time>
      </trkpt>
      <trkpt lat="48.817" lon="2.43972">
        <ele>84.2</ele>
        <time>2015-06-08T19:02:53.729Z</time>
      </trkpt>
      <trkpt lat="48.817" lon="2.43982">
        <ele>84.2</ele>
        <time>2015-06-08T19:02:54.742Z</time>
      </trkpt>
      <trkpt lat="48.81699" lon="2.43991">
        <ele>84</ele>
        <time>2015-06-08T19:02:55.823Z</time>
      </trkpt>
      <trkpt lat="48.81698" lon="2.43999">
        <ele>83.9</ele>
        <time>2015-06-08T19:02:56.857Z</time>
      </trkpt>
      <trkpt lat="48.81697" lon="2.44007">
        <ele>84</ele>
        <time>2015-06-08T19:02:57.734Z</time>
      </trkpt>
      <trkpt lat="48.81696" lon="2.44014">
        <ele>84.4</ele>
        <time>2015-06-08T19:02:58.759Z</time>
      </trkpt>
      <trkpt lat="48.81695" lon="2.44022">
        <ele>84.4</ele>
        <time>2015-06-08T19:02:59.768Z</time>
      </trkpt>
      <trkpt lat="48.81694" lon="2.44029">
        <ele>84.7</ele>
        <time>2015-06-08T19:03:00.794Z</time>
      </trkpt>
      <trkpt lat="48.81692" lon="2.44036">
        <ele>84.9</ele>
        <time>2015-06-08T19:03:01.708Z</time>
      </trkpt>
      <trkpt lat="48.81689" lon="2.44042">
        <ele>85.5</ele>
        <time>2015-06-08T19:03:02.819Z</time>
      </trkpt>
      <trkpt lat="48.81687" lon="2.44049">
        <ele>86</ele>
        <time>2015-06-08T19:03:04.019Z</time>
      </trkpt>
      <trkpt lat="48.81685" lon="2.44056">
        <ele>86.3</ele>
        <time>2015-06-08T19:03:04.745Z</time>
      </trkpt>
      <trkpt lat="48.81683" lon="2.44062">
        <ele>86.5</ele>
        <time>2015-06-08T19:03:05.750Z</time>
      </trkpt>
      <trkpt lat="48.81681" lon="2.44075">
        <ele>87.1</ele>
        <time>2015-06-08T19:03:07.764Z</time>
      </trkpt>
      <trkpt lat="48.81679" lon="2.44082">
        <ele>87.4</ele>
        <time>2015-06-08T19:03:08.787Z</time>
      </trkpt>
      <trkpt lat="48.81677" lon="2.44091">
        <ele>87.6</ele>
        <time>2015-06-08T19:03:09.712Z</time>
      </trkpt>
      <trkpt lat="48.81675" lon="2.44101">
        <ele>87.1</ele>
        <time>2015-06-08T19:03:10.725Z</time>
      </trkpt>
      <trkpt lat="48.81674" lon="2.44109">
        <ele>86.7</ele>
        <time>2015-06-08T19:03:11.744Z</time>
      </trkpt>
      <trkpt lat="48.81673" lon="2.44117">
        <ele>86.4</ele>
        <time>2015-06-08T19:03:12.752Z</time>
      </trkpt>
      <trkpt lat="48.81672" lon="2.44125">
        <ele>86.7</ele>
        <time>2015-06-08T19:03:13.771Z</time>
      </trkpt>
      <trkpt lat="48.8167" lon="2.44132">
        <ele>86.4</ele>
        <time>2015-06-08T19:03:14.780Z</time>
      </trkpt>
      <trkpt lat="48.81669" lon="2.44138">
        <ele>86.4</ele>
        <time>2015-06-08T19:03:15.802Z</time>
      </trkpt>
      <trkpt lat="48.81668" lon="2.44146">
        <ele>86.5</ele>
        <time>2015-06-08T19:03:16.719Z</time>
      </trkpt>
      <trkpt lat="48.81666" lon="2.44155">
        <ele>86.4</ele>
        <time>2015-06-08T19:03:17.744Z</time>
      </trkpt>
      <trkpt lat="48.81665" lon="2.44167">
        <ele>86.2</ele>
        <time>2015-06-08T19:03:18.758Z</time>
      </trkpt>
      <trkpt lat="48.81664" lon="2.44178">
        <ele>86.1</ele>
        <time>2015-06-08T19:03:19.796Z</time>
      </trkpt>
      <trkpt lat="48.81663" lon="2.44189">
        <ele>86</ele>
        <time>2015-06-08T19:03:20.801Z</time>
      </trkpt>
      <trkpt lat="48.81662" lon="2.44199">
        <ele>86.3</ele>
        <time>2015-06-08T19:03:21.806Z</time>
      </trkpt>
      <trkpt lat="48.81661" lon="2.4421">
        <ele>86.5</ele>
        <time>2015-06-08T19:03:22.716Z</time>
      </trkpt>
      <trkpt lat="48.8166" lon="2.44222">
        <ele>86.5</ele>
        <time>2015-06-08T19:03:23.717Z</time>
      </trkpt>
      <trkpt lat="48.81659" lon="2.44233">
        <ele>86.4</ele>
        <time>2015-06-08T19:03:24.738Z</time>
      </trkpt>
      <trkpt lat="48.81659" lon="2.44243">
        <ele>86.5</ele>
        <time>2015-06-08T19:03:25.733Z</time>
      </trkpt>
      <trkpt lat="48.81659" lon="2.44252">
        <ele>86.8</ele>
        <time>2015-06-08T19:03:26.758Z</time>
      </trkpt>
      <trkpt lat="48.81658" lon="2.44262">
        <ele>86.8</ele>
        <time>2015-06-08T19:03:27.769Z</time>
      </trkpt>
      <trkpt lat="48.81656" lon="2.44273">
        <ele>87</ele>
        <time>2015-06-08T19:03:28.779Z</time>
      </trkpt>
      <trkpt lat="48.81654" lon="2.44283">
        <ele>87</ele>
        <time>2015-06-08T19:03:29.790Z</time>
      </trkpt>
      <trkpt lat="48.81653" lon="2.44292">
        <ele>87</ele>
        <time>2015-06-08T19:03:30.802Z</time>
      </trkpt>
      <trkpt lat="48.81653" lon="2.443">
        <ele>87</ele>
        <time>2015-06-08T19:03:31.823Z</time>
      </trkpt>
      <trkpt lat="48.81654" lon="2.44308">
        <ele>86.2</ele>
        <time>2015-06-08T19:03:32.847Z</time>
      </trkpt>
      <trkpt lat="48.81655" lon="2.44316">
        <ele>85.6</ele>
        <time>2015-06-08T19:03:33.753Z</time>
      </trkpt>
      <trkpt lat="48.81657" lon="2.44324">
        <ele>85.2</ele>
        <time>2015-06-08T19:03:34.791Z</time>
      </trkpt>
      <trkpt lat="48.81659" lon="2.4433">
        <ele>85.2</ele>
        <time>2015-06-08T19:03:35.734Z</time>
      </trkpt>
      <trkpt lat="48.81659" lon="2.44338">
        <ele>85.5</ele>
        <time>2015-06-08T19:03:36.741Z</time>
      </trkpt>
      <trkpt lat="48.81658" lon="2.44347">
        <ele>85.6</ele>
        <time>2015-06-08T19:03:37.761Z</time>
      </trkpt>
      <trkpt lat="48.81658" lon="2.44357">
        <ele>85.7</ele>
        <time>2015-06-08T19:03:38.779Z</time>
      </trkpt>
      <trkpt lat="48.81658" lon="2.44367">
        <ele>85.6</ele>
        <time>2015-06-08T19:03:39.777Z</time>
      </trkpt>
      <trkpt lat="48.81658" lon="2.44378">
        <ele>85.6</ele>
        <time>2015-06-08T19:03:40.782Z</time>
      </trkpt>
      <trkpt lat="48.81657" lon="2.44388">
        <ele>85.6</ele>
        <time>2015-06-08T19:03:41.905Z</time>
      </trkpt>
      <trkpt lat="48.81656" lon="2.44398">
        <ele>85.8</ele>
        <time>2015-06-08T19:03:42.753Z</time>
      </trkpt>
      <trkpt lat="48.81655" lon="2.44409">
        <ele>85.6</ele>
        <time>2015-06-08T19:03:43.779Z</time>
      </trkpt>
      <trkpt lat="48.81655" lon="2.44419">
        <ele>85.6</ele>
        <time>2015-06-08T19:03:44.797Z</time>
      </trkpt>
      <trkpt lat="48.81654" lon="2.44427">
        <ele>85.4</ele>
        <time>2015-06-08T19:03:45.738Z</time>
      </trkpt>
      <trkpt lat="48.81656" lon="2.44437">
        <ele>85.1</ele>
        <time>2015-06-08T19:03:46.746Z</time>
      </trkpt>
      <trkpt lat="48.81659" lon="2.44448">
        <ele>84.9</ele>
        <time>2015-06-08T19:03:47.748Z</time>
      </trkpt>
      <trkpt lat="48.81662" lon="2.44458">
        <ele>84.8</ele>
        <time>2015-06-08T19:03:48.755Z</time>
      </trkpt>
      <trkpt lat="48.81664" lon="2.44471">
        <ele>84</ele>
        <time>2015-06-08T19:03:49.763Z</time>
      </trkpt>
      <trkpt lat="48.81665" lon="2.4448">
        <ele>84</ele>
        <time>2015-06-08T19:03:50.784Z</time>
      </trkpt>
      <trkpt lat="48.81666" lon="2.44489">
        <ele>83.8</ele>
        <time>2015-06-08T19:03:51.793Z</time>
      </trkpt>
      <trkpt lat="48.81667" lon="2.44496">
        <ele>83.5</ele>
        <time>2015-06-08T19:03:52.803Z</time>
      </trkpt>
      <trkpt lat="48.81668" lon="2.44509">
        <ele>83.3</ele>
        <time>2015-06-08T19:03:54.832Z</time>
      </trkpt>
      <trkpt lat="48.81668" lon="2.44515">
        <ele>83.6</ele>
        <time>2015-06-08T19:03:55.754Z</time>
      </trkpt>
      <trkpt lat="48.81668" lon="2.44528">
        <ele>83.1</ele>
        <time>2015-06-08T19:03:57.741Z</time>
      </trkpt>
      <trkpt lat="48.81668" lon="2.44536">
        <ele>83.6</ele>
        <time>2015-06-08T19:03:58.774Z</time>
      </trkpt>
      <trkpt lat="48.81668" lon="2.44545">
        <ele>84.2</ele>
        <time>2015-06-08T19:03:59.804Z</time>
      </trkpt>
      <trkpt lat="48.81668" lon="2.44554">
        <ele>84.5</ele>
        <time>2015-06-08T19:04:00.824Z</time>
      </trkpt>
      <trkpt lat="48.81667" lon="2.44563">
        <ele>84.5</ele>
        <time>2015-06-08T19:04:01.825Z</time>
      </trkpt>
      <trkpt lat="48.81667" lon="2.44571">
        <ele>84.4</ele>
        <time>2015-06-08T19:04:02.836Z</time>
      </trkpt>
      <trkpt lat="48.81667" lon="2.44579">
        <ele>84.5</ele>
        <time>2015-06-08T19:04:03.746Z</time>
      </trkpt>
      <trkpt lat="48.81666" lon="2.44587">
        <ele>84.5</ele>
        <time>2015-06-08T19:04:04.752Z</time>
      </trkpt>
      <trkpt lat="48.81665" lon="2.44594">
        <ele>84.5</ele>
        <time>2015-06-08T19:04:05.771Z</time>
      </trkpt>
      <trkpt lat="48.81666" lon="2.44601">
        <ele>84.6</ele>
        <time>2015-06-08T19:04:06.776Z</time>
      </trkpt>
      <trkpt lat="48.81666" lon="2.44609">
        <ele>85.3</ele>
        <time>2015-06-08T19:04:07.784Z</time>
      </trkpt>
      <trkpt lat="48.81666" lon="2.44618">
        <ele>85.9</ele>
        <time>2015-06-08T19:04:08.795Z</time>
      </trkpt>
      <trkpt lat="48.81665" lon="2.44626">
        <ele>86.2</ele>
        <time>2015-06-08T19:04:09.801Z</time>
      </trkpt>
      <trkpt lat="48.81664" lon="2.44634">
        <ele>85.9</ele>
        <time>2015-06-08T19:04:10.825Z</time>
      </trkpt>
      <trkpt lat="48.81663" lon="2.44643">
        <ele>85.6</ele>
        <time>2015-06-08T19:04:11.738Z</time>
      </trkpt>
      <trkpt lat="48.81662" lon="2.44652">
        <ele>85.1</ele>
        <time>2015-06-08T19:04:12.752Z</time>
      </trkpt>
      <trkpt lat="48.81661" lon="2.44661">
        <ele>84.8</ele>
        <time>2015-06-08T19:04:13.770Z</time>
      </trkpt>
      <trkpt lat="48.8166" lon="2.44671">
        <ele>84.9</ele>
        <time>2015-06-08T19:04:14.783Z</time>
      </trkpt>
      <trkpt lat="48.8166" lon="2.44682">
        <ele>85.1</ele>
        <time>2015-06-08T19:04:15.778Z</time>
      </trkpt>
      <trkpt lat="48.81658" lon="2.44691">
        <ele>85.4</ele>
        <time>2015-06-08T19:04:16.790Z</time>
      </trkpt>
      <trkpt lat="48.81657" lon="2.44701">
        <ele>85.5</ele>
        <time>2015-06-08T19:04:17.795Z</time>
      </trkpt>
      <trkpt lat="48.81654" lon="2.44711">
        <ele>85.5</ele>
        <time>2015-06-08T19:04:18.804Z</time>
      </trkpt>
      <trkpt lat="48.81652" lon="2.4472">
        <ele>85.6</ele>
        <time>2015-06-08T19:04:19.822Z</time>
      </trkpt>
      <trkpt lat="48.81649" lon="2.44731">
        <ele>85.9</ele>
        <time>2015-06-08T19:04:20.831Z</time>
      </trkpt>
      <trkpt lat="48.81647" lon="2.44743">
        <ele>86.1</ele>
        <time>2015-06-08T19:04:21.740Z</time>
      </trkpt>
      <trkpt lat="48.81646" lon="2.44753">
        <ele>86.2</ele>
        <time>2015-06-08T19:04:22.750Z</time>
      </trkpt>
      <trkpt lat="48.81645" lon="2.44763">
        <ele>86.5</ele>
        <time>2015-06-08T19:04:23.755Z</time>
      </trkpt>
      <trkpt lat="48.81645" lon="2.44773">
        <ele>86.6</ele>
        <time>2015-06-08T19:04:24.761Z</time>
      </trkpt>
      <trkpt lat="48.81645" lon="2.44782">
        <ele>86.8</ele>
        <time>2015-06-08T19:04:25.774Z</time>
      </trkpt>
      <trkpt lat="48.81643" lon="2.44795">
        <ele>85.9</ele>
        <time>2015-06-08T19:04:26.786Z</time>
      </trkpt>
      <trkpt lat="48.81642" lon="2.44806">
        <ele>85.5</ele>
        <time>2015-06-08T19:04:27.796Z</time>
      </trkpt>
      <trkpt lat="48.8164" lon="2.44818">
        <ele>85.1</ele>
        <time>2015-06-08T19:04:28.808Z</time>
      </trkpt>
      <trkpt lat="48.81639" lon="2.44829">
        <ele>85.2</ele>
        <time>2015-06-08T19:04:29.814Z</time>
      </trkpt>
      <trkpt lat="48.81638" lon="2.44838">
        <ele>85.6</ele>
        <time>2015-06-08T19:04:30.741Z</time>
      </trkpt>
      <trkpt lat="48.81636" lon="2.44845">
        <ele>85.8</ele>
        <time>2015-06-08T19:04:31.832Z</time>
      </trkpt>
      <trkpt lat="48.81635" lon="2.44852">
        <ele>86</ele>
        <time>2015-06-08T19:04:32.846Z</time>
      </trkpt>
      <trkpt lat="48.81633" lon="2.4486">
        <ele>86.1</ele>
        <time>2015-06-08T19:04:33.738Z</time>
      </trkpt>
      <trkpt lat="48.81632" lon="2.44869">
        <ele>86.3</ele>
        <time>2015-06-08T19:04:34.745Z</time>
      </trkpt>
      <trkpt lat="48.81631" lon="2.44878">
        <ele>86.3</ele>
        <time>2015-06-08T19:04:35.762Z</time>
      </trkpt>
      <trkpt lat="48.8163" lon="2.44887">
        <ele>86.1</ele>
        <time>2015-06-08T19:04:36.779Z</time>
      </trkpt>
      <trkpt lat="48.8163" lon="2.44896">
        <ele>86.2</ele>
        <time>2015-06-08T19:04:37.801Z</time>
      </trkpt>
      <trkpt lat="48.8163" lon="2.44904">
        <ele>86.4</ele>
        <time>2015-06-08T19:04:38.803Z</time>
      </trkpt>
      <trkpt lat="48.8163" lon="2.44911">
        <ele>86.5</ele>
        <time>2015-06-08T19:04:39.731Z</time>
      </trkpt>
      <trkpt lat="48.81631" lon="2.44918">
        <ele>86.9</ele>
        <time>2015-06-08T19:04:40.725Z</time>
      </trkpt>
      <trkpt lat="48.81631" lon="2.44926">
        <ele>87.4</ele>
        <time>2015-06-08T19:04:41.736Z</time>
      </trkpt>
      <trkpt lat="48.81631" lon="2.44934">
        <ele>87.9</ele>
        <time>2015-06-08T19:04:42.741Z</time>
      </trkpt>
      <trkpt lat="48.81631" lon="2.44944">
        <ele>88.2</ele>
        <time>2015-06-08T19:04:43.759Z</time>
      </trkpt>
      <trkpt lat="48.8163" lon="2.44956">
        <ele>88.2</ele>
        <time>2015-06-08T19:04:44.773Z</time>
      </trkpt>
      <trkpt lat="48.8163" lon="2.44968">
        <ele>88.6</ele>
        <time>2015-06-08T19:04:45.782Z</time>
      </trkpt>
      <trkpt lat="48.81629" lon="2.44979">
        <ele>88.7</ele>
        <time>2015-06-08T19:04:46.789Z</time>
      </trkpt>
      <trkpt lat="48.81628" lon="2.44989">
        <ele>88.8</ele>
        <time>2015-06-08T19:04:47.797Z</time>
      </trkpt>
      <trkpt lat="48.81625" lon="2.44999">
        <ele>89.1</ele>
        <time>2015-06-08T19:04:48.804Z</time>
      </trkpt>
      <trkpt lat="48.81623" lon="2.45009">
        <ele>89.3</ele>
        <time>2015-06-08T19:04:49.817Z</time>
      </trkpt>
      <trkpt lat="48.81621" lon="2.45018">
        <ele>89.3</ele>
        <time>2015-06-08T19:04:50.824Z</time>
      </trkpt>
      <trkpt lat="48.8162" lon="2.45028">
        <ele>89.1</ele>
        <time>2015-06-08T19:04:51.736Z</time>
      </trkpt>
      <trkpt lat="48.81619" lon="2.45038">
        <ele>88.7</ele>
        <time>2015-06-08T19:04:52.738Z</time>
      </trkpt>
      <trkpt lat="48.81619" lon="2.45048">
        <ele>88.5</ele>
        <time>2015-06-08T19:04:53.769Z</time>
      </trkpt>
      <trkpt lat="48.81618" lon="2.45057">
        <ele>88.6</ele>
        <time>2015-06-08T19:04:54.788Z</time>
      </trkpt>
      <trkpt lat="48.81618" lon="2.45068">
        <ele>88.5</ele>
        <time>2015-06-08T19:04:55.804Z</time>
      </trkpt>
      <trkpt lat="48.81619" lon="2.45077">
        <ele>88.3</ele>
        <time>2015-06-08T19:04:56.813Z</time>
      </trkpt>
      <trkpt lat="48.81619" lon="2.45084">
        <ele>88.2</ele>
        <time>2015-06-08T19:04:57.724Z</time>
      </trkpt>
      <trkpt lat="48.81618" lon="2.45093">
        <ele>88.3</ele>
        <time>2015-06-08T19:04:58.744Z</time>
      </trkpt>
      <trkpt lat="48.81616" lon="2.45104">
        <ele>88.4</ele>
        <time>2015-06-08T19:04:59.747Z</time>
      </trkpt>
      <trkpt lat="48.81614" lon="2.45115">
        <ele>88.5</ele>
        <time>2015-06-08T19:05:00.753Z</time>
      </trkpt>
      <trkpt lat="48.81611" lon="2.45129">
        <ele>88.5</ele>
        <time>2015-06-08T19:05:01.758Z</time>
      </trkpt>
      <trkpt lat="48.81608" lon="2.45142">
        <ele>88.4</ele>
        <time>2015-06-08T19:05:02.779Z</time>
      </trkpt>
      <trkpt lat="48.81606" lon="2.45156">
        <ele>88.1</ele>
        <time>2015-06-08T19:05:03.768Z</time>
      </trkpt>
      <trkpt lat="48.81604" lon="2.4517">
        <ele>87.6</ele>
        <time>2015-06-08T19:05:04.786Z</time>
      </trkpt>
      <trkpt lat="48.81604" lon="2.45182">
        <ele>87.3</ele>
        <time>2015-06-08T19:05:05.707Z</time>
      </trkpt>
      <trkpt lat="48.81605" lon="2.45193">
        <ele>87.1</ele>
        <time>2015-06-08T19:05:06.745Z</time>
      </trkpt>
      <trkpt lat="48.81607" lon="2.45204">
        <ele>87</ele>
        <time>2015-06-08T19:05:07.749Z</time>
      </trkpt>
      <trkpt lat="48.81608" lon="2.45213">
        <ele>86.8</ele>
        <time>2015-06-08T19:05:08.771Z</time>
      </trkpt>
      <trkpt lat="48.81608" lon="2.45223">
        <ele>86.8</ele>
        <time>2015-06-08T19:05:09.763Z</time>
      </trkpt>
      <trkpt lat="48.81608" lon="2.45231">
        <ele>86.8</ele>
        <time>2015-06-08T19:05:10.852Z</time>
      </trkpt>
      <trkpt lat="48.81608" lon="2.45238">
        <ele>86.7</ele>
        <time>2015-06-08T19:05:11.719Z</time>
      </trkpt>
      <trkpt lat="48.81607" lon="2.45247">
        <ele>86.5</ele>
        <time>2015-06-08T19:05:12.728Z</time>
      </trkpt>
      <trkpt lat="48.81605" lon="2.45255">
        <ele>86.6</ele>
        <time>2015-06-08T19:05:13.754Z</time>
      </trkpt>
      <trkpt lat="48.81602" lon="2.45265">
        <ele>86.5</ele>
        <time>2015-06-08T19:05:14.797Z</time>
      </trkpt>
      <trkpt lat="48.81599" lon="2.45275">
        <ele>86.8</ele>
        <time>2015-06-08T19:05:15.727Z</time>
      </trkpt>
      <trkpt lat="48.81596" lon="2.45284">
        <ele>86.7</ele>
        <time>2015-06-08T19:05:16.724Z</time>
      </trkpt>
      <trkpt lat="48.81593" lon="2.45293">
        <ele>86.7</ele>
        <time>2015-06-08T19:05:17.735Z</time>
      </trkpt>
      <trkpt lat="48.81591" lon="2.45303">
        <ele>86.9</ele>
        <time>2015-06-08T19:05:18.772Z</time>
      </trkpt>
      <trkpt lat="48.8159" lon="2.45312">
        <ele>86.6</ele>
        <time>2015-06-08T19:05:19.986Z</time>
      </trkpt>
      <trkpt lat="48.8159" lon="2.45319">
        <ele>86.1</ele>
        <time>2015-06-08T19:05:20.824Z</time>
      </trkpt>
      <trkpt lat="48.81593" lon="2.45332">
        <ele>85.3</ele>
        <time>2015-06-08T19:05:22.724Z</time>
      </trkpt>
      <trkpt lat="48.81594" lon="2.45338">
        <ele>84.6</ele>
        <time>2015-06-08T19:05:23.760Z</time>
      </trkpt>
      <trkpt lat="48.81593" lon="2.45351">
        <ele>84.2</ele>
        <time>2015-06-08T19:05:25.748Z</time>
      </trkpt>
      <trkpt lat="48.81592" lon="2.45358">
        <ele>84</ele>
        <time>2015-06-08T19:05:26.858Z</time>
      </trkpt>
      <trkpt lat="48.81592" lon="2.45371">
        <ele>84</ele>
        <time>2015-06-08T19:05:28.886Z</time>
      </trkpt>
      <trkpt lat="48.81592" lon="2.45378">
        <ele>83.9</ele>
        <time>2015-06-08T19:05:29.763Z</time>
      </trkpt>
      <trkpt lat="48.81591" lon="2.45385">
        <ele>83.7</ele>
        <time>2015-06-08T19:05:30.760Z</time>
      </trkpt>
      <trkpt lat="48.81589" lon="2.45392">
        <ele>83.7</ele>
        <time>2015-06-08T19:05:31.752Z</time>
      </trkpt>
      <trkpt lat="48.81586" lon="2.454">
        <ele>83.6</ele>
        <time>2015-06-08T19:05:32.777Z</time>
      </trkpt>
      <trkpt lat="48.81585" lon="2.45407">
        <ele>83.9</ele>
        <time>2015-06-08T19:05:33.793Z</time>
      </trkpt>
      <trkpt lat="48.81584" lon="2.45415">
        <ele>84.3</ele>
        <time>2015-06-08T19:05:34.740Z</time>
      </trkpt>
      <trkpt lat="48.81583" lon="2.45423">
        <ele>84.6</ele>
        <time>2015-06-08T19:05:35.739Z</time>
      </trkpt>
      <trkpt lat="48.81579" lon="2.45433">
        <ele>84.6</ele>
        <time>2015-06-08T19:05:37.772Z</time>
      </trkpt>
      <trkpt lat="48.81577" lon="2.45439">
        <ele>84.7</ele>
        <time>2015-06-08T19:05:38.813Z</time>
      </trkpt>
      <trkpt lat="48.81573" lon="2.4545">
        <ele>84.9</ele>
        <time>2015-06-08T19:05:40.716Z</time>
      </trkpt>
      <trkpt lat="48.81571" lon="2.45455">
        <ele>84.7</ele>
        <time>2015-06-08T19:05:41.739Z</time>
      </trkpt>
      <trkpt lat="48.81567" lon="2.45464">
        <ele>84.8</ele>
        <time>2015-06-08T19:05:43.782Z</time>
      </trkpt>
      <trkpt lat="48.81564" lon="2.45469">
        <ele>84.6</ele>
        <time>2015-06-08T19:05:44.798Z</time>
      </trkpt>
      <trkpt lat="48.8156" lon="2.4548">
        <ele>84.2</ele>
        <time>2015-06-08T19:05:46.993Z</time>
      </trkpt>
      <trkpt lat="48.81558" lon="2.45486">
        <ele>84.2</ele>
        <time>2015-06-08T19:05:47.728Z</time>
      </trkpt>
      <trkpt lat="48.81553" lon="2.45495">
        <ele>84.5</ele>
        <time>2015-06-08T19:05:49.758Z</time>
      </trkpt>
      <trkpt lat="48.8155" lon="2.455">
        <ele>85.8</ele>
        <time>2015-06-08T19:05:50.792Z</time>
      </trkpt>
      <trkpt lat="48.81545" lon="2.4551">
        <ele>85.5</ele>
        <time>2015-06-08T19:05:52.698Z</time>
      </trkpt>
      <trkpt lat="48.81541" lon="2.45518">
        <ele>85.2</ele>
        <time>2015-06-08T19:05:53.702Z</time>
      </trkpt>
      <trkpt lat="48.81537" lon="2.45527">
        <ele>85.1</ele>
        <time>2015-06-08T19:05:54.771Z</time>
      </trkpt>
      <trkpt lat="48.81533" lon="2.45536">
        <ele>85.1</ele>
        <time>2015-06-08T19:05:55.783Z</time>
      </trkpt>
      <trkpt lat="48.8153" lon="2.45546">
        <ele>85.1</ele>
        <time>2015-06-08T19:05:56.818Z</time>
      </trkpt>
      <trkpt lat="48.81528" lon="2.45554">
        <ele>84.8</ele>
        <time>2015-06-08T19:05:57.709Z</time>
      </trkpt>
      <trkpt lat="48.81528" lon="2.45562">
        <ele>84.9</ele>
        <time>2015-06-08T19:05:58.714Z</time>
      </trkpt>
      <trkpt lat="48.81528" lon="2.45568">
        <ele>84.9</ele>
        <time>2015-06-08T19:05:59.723Z</time>
      </trkpt>
      <trkpt lat="48.81531" lon="2.45577">
        <ele>84.9</ele>
        <time>2015-06-08T19:06:01.737Z</time>
      </trkpt>
      <trkpt lat="48.81532" lon="2.4558">
        <ele>84.8</ele>
        <time>2015-06-08T19:06:02.771Z</time>
      </trkpt>
      <trkpt lat="48.81534" lon="2.45592">
        <ele>85.4</ele>
        <time>2015-06-08T19:13:39.789Z</time>
      </trkpt>
      <trkpt lat="48.81528" lon="2.45605">
        <ele>90.9</ele>
        <time>2015-06-08T19:13:40.769Z</time>
      </trkpt>
      <trkpt lat="48.81524" lon="2.45616">
        <ele>90.6</ele>
        <time>2015-06-08T19:13:44.796Z</time>
      </trkpt>
      <trkpt lat="48.81523" lon="2.45618">
        <ele>90.6</ele>
        <time>2015-06-08T19:13:45.751Z</time>
      </trkpt>
      <trkpt lat="48.81519" lon="2.45625">
        <ele>90.7</ele>
        <time>2015-06-08T19:13:47.727Z</time>
      </trkpt>
      <trkpt lat="48.81516" lon="2.45629">
        <ele>90.8</ele>
        <time>2015-06-08T19:13:48.752Z</time>
      </trkpt>
      <trkpt lat="48.8151" lon="2.45638">
        <ele>90.7</ele>
        <time>2015-06-08T19:13:50.786Z</time>
      </trkpt>
      <trkpt lat="48.81508" lon="2.45642">
        <ele>90.7</ele>
        <time>2015-06-08T19:13:51.804Z</time>
      </trkpt>
      <trkpt lat="48.81503" lon="2.45649">
        <ele>90.7</ele>
        <time>2015-06-08T19:13:53.741Z</time>
      </trkpt>
      <trkpt lat="48.815" lon="2.45653">
        <ele>90.7</ele>
        <time>2015-06-08T19:13:54.748Z</time>
      </trkpt>
      <trkpt lat="48.81493" lon="2.45662">
        <ele>90.9</ele>
        <time>2015-06-08T19:13:56.780Z</time>
      </trkpt>
      <trkpt lat="48.81491" lon="2.45667">
        <ele>91.2</ele>
        <time>2015-06-08T19:13:57.785Z</time>
      </trkpt>
      <trkpt lat="48.81485" lon="2.45676">
        <ele>91.8</ele>
        <time>2015-06-08T19:13:59.756Z</time>
      </trkpt>
      <trkpt lat="48.81483" lon="2.4568">
        <ele>91.8</ele>
        <time>2015-06-08T19:14:00.805Z</time>
      </trkpt>
      <trkpt lat="48.8148" lon="2.4569">
        <ele>91.8</ele>
        <time>2015-06-08T19:14:02.849Z</time>
      </trkpt>
      <trkpt lat="48.81478" lon="2.45694">
        <ele>91.8</ele>
        <time>2015-06-08T19:14:03.705Z</time>
      </trkpt>
      <trkpt lat="48.81475" lon="2.45704">
        <ele>91.8</ele>
        <time>2015-06-08T19:14:05.758Z</time>
      </trkpt>
      <trkpt lat="48.81472" lon="2.45709">
        <ele>91.7</ele>
        <time>2015-06-08T19:14:06.767Z</time>
      </trkpt>
      <trkpt lat="48.81469" lon="2.45713">
        <ele>91.5</ele>
        <time>2015-06-08T19:14:07.707Z</time>
      </trkpt>
      <trkpt lat="48.81465" lon="2.45719">
        <ele>91.3</ele>
        <time>2015-06-08T19:14:08.781Z</time>
      </trkpt>
      <trkpt lat="48.81461" lon="2.45723">
        <ele>91.2</ele>
        <time>2015-06-08T19:14:09.788Z</time>
      </trkpt>
      <trkpt lat="48.81456" lon="2.45727">
        <ele>91</ele>
        <time>2015-06-08T19:14:10.728Z</time>
      </trkpt>
      <trkpt lat="48.81452" lon="2.45732">
        <ele>90.7</ele>
        <time>2015-06-08T19:14:11.756Z</time>
      </trkpt>
      <trkpt lat="48.81448" lon="2.45737">
        <ele>90.5</ele>
        <time>2015-06-08T19:14:12.763Z</time>
      </trkpt>
      <trkpt lat="48.81444" lon="2.45743">
        <ele>90.3</ele>
        <time>2015-06-08T19:14:13.776Z</time>
      </trkpt>
      <trkpt lat="48.8144" lon="2.45749">
        <ele>90.1</ele>
        <time>2015-06-08T19:14:14.786Z</time>
      </trkpt>
      <trkpt lat="48.81437" lon="2.45754">
        <ele>90.1</ele>
        <time>2015-06-08T19:14:15.777Z</time>
      </trkpt>
      <trkpt lat="48.81436" lon="2.45762">
        <ele>89.6</ele>
        <time>2015-06-08T19:14:16.782Z</time>
      </trkpt>
      <trkpt lat="48.81436" lon="2.45771">
        <ele>89.4</ele>
        <time>2015-06-08T19:14:17.801Z</time>
      </trkpt>
      <trkpt lat="48.81437" lon="2.45779">
        <ele>89.4</ele>
        <time>2015-06-08T19:14:18.813Z</time>
      </trkpt>
      <trkpt lat="48.81438" lon="2.45785">
        <ele>89.5</ele>
        <time>2015-06-08T19:14:19.829Z</time>
      </trkpt>
      <trkpt lat="48.81439" lon="2.45792">
        <ele>89.3</ele>
        <time>2015-06-08T19:14:20.836Z</time>
      </trkpt>
      <trkpt lat="48.81441" lon="2.45799">
        <ele>89.4</ele>
        <time>2015-06-08T19:14:21.709Z</time>
      </trkpt>
      <trkpt lat="48.81444" lon="2.45805">
        <ele>89.4</ele>
        <time>2015-06-08T19:14:22.744Z</time>
      </trkpt>
      <trkpt lat="48.81446" lon="2.4581">
        <ele>89.5</ele>
        <time>2015-06-08T19:14:23.752Z</time>
      </trkpt>
      <trkpt lat="48.81449" lon="2.45817">
        <ele>89.4</ele>
        <time>2015-06-08T19:14:24.762Z</time>
      </trkpt>
      <trkpt lat="48.81452" lon="2.45823">
        <ele>89.1</ele>
        <time>2015-06-08T19:14:25.774Z</time>
      </trkpt>
      <trkpt lat="48.81455" lon="2.45828">
        <ele>89.1</ele>
        <time>2015-06-08T19:14:26.780Z</time>
      </trkpt>
      <trkpt lat="48.81462" lon="2.45835">
        <ele>89.1</ele>
        <time>2015-06-08T19:14:29.752Z</time>
      </trkpt>
      <trkpt lat="48.81464" lon="2.45837">
        <ele>89</ele>
        <time>2015-06-08T19:14:30.754Z</time>
      </trkpt>
      <trkpt lat="48.81472" lon="2.45841">
        <ele>89.1</ele>
        <time>2015-06-08T19:14:33.804Z</time>
      </trkpt>
      <trkpt lat="48.81474" lon="2.45844">
        <ele>89.1</ele>
        <time>2015-06-08T19:14:34.716Z</time>
      </trkpt>
      <trkpt lat="48.8148" lon="2.45854">
        <ele>89.8</ele>
        <time>2015-06-08T19:14:36.744Z</time>
      </trkpt>
      <trkpt lat="48.81483" lon="2.4586">
        <ele>89.6</ele>
        <time>2015-06-08T19:14:37.766Z</time>
      </trkpt>
      <trkpt lat="48.81488" lon="2.45868">
        <ele>88.2</ele>
        <time>2015-06-08T19:14:38.828Z</time>
      </trkpt>
      <trkpt lat="48.81493" lon="2.45876">
        <ele>87.9</ele>
        <time>2015-06-08T19:14:39.722Z</time>
      </trkpt>
      <trkpt lat="48.81498" lon="2.45885">
        <ele>87.6</ele>
        <time>2015-06-08T19:14:40.723Z</time>
      </trkpt>
      <trkpt lat="48.81503" lon="2.45891">
        <ele>87.6</ele>
        <time>2015-06-08T19:14:41.731Z</time>
      </trkpt>
      <trkpt lat="48.81506" lon="2.45897">
        <ele>88</ele>
        <time>2015-06-08T19:14:42.738Z</time>
      </trkpt>
      <trkpt lat="48.81507" lon="2.45904">
        <ele>88.6</ele>
        <time>2015-06-08T19:14:43.746Z</time>
      </trkpt>
      <trkpt lat="48.81508" lon="2.4591">
        <ele>89.2</ele>
        <time>2015-06-08T19:14:44.763Z</time>
      </trkpt>
      <trkpt lat="48.81505" lon="2.45918">
        <ele>90.1</ele>
        <time>2015-06-08T19:14:45.775Z</time>
      </trkpt>
      <trkpt lat="48.81503" lon="2.45924">
        <ele>90.9</ele>
        <time>2015-06-08T19:14:46.704Z</time>
      </trkpt>
      <trkpt lat="48.815" lon="2.4593">
        <ele>91.4</ele>
        <time>2015-06-08T19:14:47.704Z</time>
      </trkpt>
      <trkpt lat="48.81494" lon="2.45936">
        <ele>91.9</ele>
        <time>2015-06-08T19:14:48.720Z</time>
      </trkpt>
      <trkpt lat="48.8149" lon="2.45941">
        <ele>92.2</ele>
        <time>2015-06-08T19:14:49.726Z</time>
      </trkpt>
      <trkpt lat="48.81486" lon="2.45947">
        <ele>92.5</ele>
        <time>2015-06-08T19:14:50.751Z</time>
      </trkpt>
      <trkpt lat="48.81481" lon="2.45954">
        <ele>93.9</ele>
        <time>2015-06-08T19:14:51.758Z</time>
      </trkpt>
      <trkpt lat="48.81476" lon="2.45962">
        <ele>94.4</ele>
        <time>2015-06-08T19:14:52.764Z</time>
      </trkpt>
      <trkpt lat="48.81473" lon="2.4597">
        <ele>94.6</ele>
        <time>2015-06-08T19:14:53.776Z</time>
      </trkpt>
      <trkpt lat="48.81475" lon="2.45981">
        <ele>95.6</ele>
        <time>2015-06-08T19:14:55.810Z</time>
      </trkpt>
      <trkpt lat="48.81479" lon="2.45984">
        <ele>95.8</ele>
        <time>2015-06-08T19:14:56.817Z</time>
      </trkpt>
      <trkpt lat="48.81482" lon="2.4599">
        <ele>96.7</ele>
        <time>2015-06-08T19:14:57.751Z</time>
      </trkpt>
      <trkpt lat="48.81488" lon="2.45996">
        <ele>96.7</ele>
        <time>2015-06-08T19:14:58.763Z</time>
      </trkpt>
      <trkpt lat="48.81493" lon="2.46006">
        <ele>98</ele>
        <time>2015-06-08T19:14:59.788Z</time>
      </trkpt>
      <trkpt lat="48.81495" lon="2.46016">
        <ele>98.4</ele>
        <time>2015-06-08T19:15:00.810Z</time>
      </trkpt>
      <trkpt lat="48.81496" lon="2.46025">
        <ele>98.6</ele>
        <time>2015-06-08T19:15:01.818Z</time>
      </trkpt>
      <trkpt lat="48.81495" lon="2.46032">
        <ele>98.8</ele>
        <time>2015-06-08T19:15:02.826Z</time>
      </trkpt>
      <trkpt lat="48.81494" lon="2.46039">
        <ele>98.4</ele>
        <time>2015-06-08T19:15:03.836Z</time>
      </trkpt>
      <trkpt lat="48.81494" lon="2.46047">
        <ele>98.1</ele>
        <time>2015-06-08T19:15:04.721Z</time>
      </trkpt>
      <trkpt lat="48.81494" lon="2.46054">
        <ele>98</ele>
        <time>2015-06-08T19:15:05.717Z</time>
      </trkpt>
      <trkpt lat="48.81494" lon="2.46063">
        <ele>97.8</ele>
        <time>2015-06-08T19:15:06.724Z</time>
      </trkpt>
      <trkpt lat="48.81494" lon="2.4607">
        <ele>97.8</ele>
        <time>2015-06-08T19:15:07.739Z</time>
      </trkpt>
      <trkpt lat="48.81494" lon="2.46079">
        <ele>96.9</ele>
        <time>2015-06-08T19:15:08.758Z</time>
      </trkpt>
      <trkpt lat="48.81495" lon="2.46088">
        <ele>95.9</ele>
        <time>2015-06-08T19:15:09.765Z</time>
      </trkpt>
      <trkpt lat="48.81496" lon="2.46096">
        <ele>96.5</ele>
        <time>2015-06-08T19:15:10.769Z</time>
      </trkpt>
      <trkpt lat="48.81496" lon="2.46103">
        <ele>96.9</ele>
        <time>2015-06-08T19:15:11.778Z</time>
      </trkpt>
      <trkpt lat="48.81498" lon="2.46112">
        <ele>97.3</ele>
        <time>2015-06-08T19:15:12.788Z</time>
      </trkpt>
      <trkpt lat="48.81499" lon="2.46121">
        <ele>98</ele>
        <time>2015-06-08T19:15:13.712Z</time>
      </trkpt>
      <trkpt lat="48.81501" lon="2.46131">
        <ele>98.6</ele>
        <time>2015-06-08T19:15:14.800Z</time>
      </trkpt>
      <trkpt lat="48.81503" lon="2.46142">
        <ele>100.4</ele>
        <time>2015-06-08T19:15:15.730Z</time>
      </trkpt>
      <trkpt lat="48.81503" lon="2.46152">
        <ele>101.5</ele>
        <time>2015-06-08T19:15:16.734Z</time>
      </trkpt>
      <trkpt lat="48.81501" lon="2.46161">
        <ele>102.1</ele>
        <time>2015-06-08T19:15:17.739Z</time>
      </trkpt>
      <trkpt lat="48.81494" lon="2.46167">
        <ele>101.8</ele>
        <time>2015-06-08T19:15:18.748Z</time>
      </trkpt>
      <trkpt lat="48.81488" lon="2.46174">
        <ele>101.6</ele>
        <time>2015-06-08T19:15:19.747Z</time>
      </trkpt>
      <trkpt lat="48.81483" lon="2.4618">
        <ele>102</ele>
        <time>2015-06-08T19:15:20.808Z</time>
      </trkpt>
      <trkpt lat="48.81479" lon="2.46185">
        <ele>101.9</ele>
        <time>2015-06-08T19:15:21.818Z</time>
      </trkpt>
      <trkpt lat="48.81475" lon="2.46191">
        <ele>102.1</ele>
        <time>2015-06-08T19:15:22.758Z</time>
      </trkpt>
      <trkpt lat="48.81471" lon="2.46195">
        <ele>102.3</ele>
        <time>2015-06-08T19:15:23.749Z</time>
      </trkpt>
      <trkpt lat="48.81468" lon="2.46201">
        <ele>102.3</ele>
        <time>2015-06-08T19:15:24.752Z</time>
      </trkpt>
      <trkpt lat="48.81462" lon="2.46208">
        <ele>103</ele>
        <time>2015-06-08T19:15:26.801Z</time>
      </trkpt>
      <trkpt lat="48.81458" lon="2.46212">
        <ele>102.6</ele>
        <time>2015-06-08T19:15:27.787Z</time>
      </trkpt>
      <trkpt lat="48.81452" lon="2.4622">
        <ele>102.1</ele>
        <time>2015-06-08T19:15:29.841Z</time>
      </trkpt>
      <trkpt lat="48.8145" lon="2.46222">
        <ele>102.6</ele>
        <time>2015-06-08T19:15:30.755Z</time>
      </trkpt>
      <trkpt lat="48.81445" lon="2.46226">
        <ele>103.3</ele>
        <time>2015-06-08T19:15:33.839Z</time>
      </trkpt>
      <trkpt lat="48.81445" lon="2.46224">
        <ele>102.5</ele>
        <time>2015-06-08T19:15:34.761Z</time>
      </trkpt>
      <trkpt lat="48.81445" lon="2.46223">
        <ele>102</ele>
        <time>2015-06-08T19:17:59.748Z</time>
      </trkpt>
      <trkpt lat="48.81431" lon="2.46246">
        <ele>96.4</ele>
        <time>2015-06-08T19:18:00.756Z</time>
      </trkpt>
      <trkpt lat="48.81427" lon="2.46254">
        <ele>96</ele>
        <time>2015-06-08T19:18:04.801Z</time>
      </trkpt>
      <trkpt lat="48.81425" lon="2.46257">
        <ele>96.2</ele>
        <time>2015-06-08T19:18:05.832Z</time>
      </trkpt>
      <trkpt lat="48.81421" lon="2.46263">
        <ele>96.3</ele>
        <time>2015-06-08T19:18:07.743Z</time>
      </trkpt>
      <trkpt lat="48.81418" lon="2.46266">
        <ele>96.4</ele>
        <time>2015-06-08T19:18:08.792Z</time>
      </trkpt>
      <trkpt lat="48.81414" lon="2.46274">
        <ele>96.5</ele>
        <time>2015-06-08T19:18:10.704Z</time>
      </trkpt>
      <trkpt lat="48.81412" lon="2.46278">
        <ele>96.7</ele>
        <time>2015-06-08T19:18:11.751Z</time>
      </trkpt>
      <trkpt lat="48.81409" lon="2.46283">
        <ele>96.8</ele>
        <time>2015-06-08T19:18:12.751Z</time>
      </trkpt>
      <trkpt lat="48.81406" lon="2.46288">
        <ele>97</ele>
        <time>2015-06-08T19:18:13.760Z</time>
      </trkpt>
      <trkpt lat="48.81402" lon="2.46293">
        <ele>97.1</ele>
        <time>2015-06-08T19:18:14.803Z</time>
      </trkpt>
      <trkpt lat="48.81398" lon="2.46298">
        <ele>97.1</ele>
        <time>2015-06-08T19:18:15.709Z</time>
      </trkpt>
      <trkpt lat="48.81394" lon="2.46304">
        <ele>97.2</ele>
        <time>2015-06-08T19:18:17.235Z</time>
      </trkpt>
      <trkpt lat="48.8139" lon="2.46309">
        <ele>97.2</ele>
        <time>2015-06-08T19:18:17.749Z</time>
      </trkpt>
      <trkpt lat="48.81386" lon="2.46315">
        <ele>97.2</ele>
        <time>2015-06-08T19:18:18.773Z</time>
      </trkpt>
      <trkpt lat="48.81381" lon="2.46321">
        <ele>97.2</ele>
        <time>2015-06-08T19:18:19.776Z</time>
      </trkpt>
      <trkpt lat="48.81377" lon="2.46326">
        <ele>97.3</ele>
        <time>2015-06-08T19:18:20.792Z</time>
      </trkpt>
      <trkpt lat="48.81372" lon="2.46332">
        <ele>97.3</ele>
        <time>2015-06-08T19:18:21.799Z</time>
      </trkpt>
      <trkpt lat="48.81369" lon="2.46338">
        <ele>97.2</ele>
        <time>2015-06-08T19:18:22.817Z</time>
      </trkpt>
      <trkpt lat="48.81364" lon="2.46344">
        <ele>96.9</ele>
        <time>2015-06-08T19:18:23.844Z</time>
      </trkpt>
      <trkpt lat="48.81359" lon="2.4635">
        <ele>96.1</ele>
        <time>2015-06-08T19:18:24.754Z</time>
      </trkpt>
      <trkpt lat="48.81355" lon="2.46355">
        <ele>96.1</ele>
        <time>2015-06-08T19:18:25.768Z</time>
      </trkpt>
      <trkpt lat="48.8135" lon="2.46361">
        <ele>96.1</ele>
        <time>2015-06-08T19:18:26.807Z</time>
      </trkpt>
      <trkpt lat="48.81346" lon="2.46368">
        <ele>95.7</ele>
        <time>2015-06-08T19:18:27.817Z</time>
      </trkpt>
      <trkpt lat="48.81342" lon="2.46374">
        <ele>95.4</ele>
        <time>2015-06-08T19:18:28.831Z</time>
      </trkpt>
      <trkpt lat="48.81337" lon="2.4638">
        <ele>95.3</ele>
        <time>2015-06-08T19:18:29.820Z</time>
      </trkpt>
      <trkpt lat="48.81333" lon="2.46386">
        <ele>95.2</ele>
        <time>2015-06-08T19:18:30.736Z</time>
      </trkpt>
      <trkpt lat="48.81329" lon="2.46394">
        <ele>95.3</ele>
        <time>2015-06-08T19:18:31.760Z</time>
      </trkpt>
      <trkpt lat="48.81327" lon="2.46403">
        <ele>95.6</ele>
        <time>2015-06-08T19:18:32.832Z</time>
      </trkpt>
      <trkpt lat="48.81324" lon="2.46412">
        <ele>96.1</ele>
        <time>2015-06-08T19:18:33.732Z</time>
      </trkpt>
      <trkpt lat="48.81322" lon="2.46419">
        <ele>95.7</ele>
        <time>2015-06-08T19:18:34.734Z</time>
      </trkpt>
      <trkpt lat="48.81321" lon="2.46428">
        <ele>95.1</ele>
        <time>2015-06-08T19:18:35.739Z</time>
      </trkpt>
      <trkpt lat="48.8132" lon="2.46434">
        <ele>95.2</ele>
        <time>2015-06-08T19:18:36.757Z</time>
      </trkpt>
      <trkpt lat="48.81318" lon="2.46441">
        <ele>95.1</ele>
        <time>2015-06-08T19:18:37.765Z</time>
      </trkpt>
      <trkpt lat="48.81314" lon="2.46453">
        <ele>95.4</ele>
        <time>2015-06-08T19:18:39.773Z</time>
      </trkpt>
      <trkpt lat="48.81313" lon="2.46459">
        <ele>95.8</ele>
        <time>2015-06-08T19:18:40.782Z</time>
      </trkpt>
      <trkpt lat="48.81311" lon="2.4647">
        <ele>95.8</ele>
        <time>2015-06-08T19:18:42.728Z</time>
      </trkpt>
      <trkpt lat="48.81309" lon="2.46476">
        <ele>96</ele>
        <time>2015-06-08T19:18:43.825Z</time>
      </trkpt>
      <trkpt lat="48.81307" lon="2.46489">
        <ele>95.6</ele>
        <time>2015-06-08T19:18:45.726Z</time>
      </trkpt>
      <trkpt lat="48.81305" lon="2.46497">
        <ele>95.9</ele>
        <time>2015-06-08T19:18:46.749Z</time>
      </trkpt>
      <trkpt lat="48.81303" lon="2.46504">
        <ele>96.1</ele>
        <time>2015-06-08T19:18:47.769Z</time>
      </trkpt>
      <trkpt lat="48.81302" lon="2.46512">
        <ele>96.1</ele>
        <time>2015-06-08T19:18:48.774Z</time>
      </trkpt>
      <trkpt lat="48.81302" lon="2.46519">
        <ele>96.5</ele>
        <time>2015-06-08T19:18:49.780Z</time>
      </trkpt>
      <trkpt lat="48.81303" lon="2.46526">
        <ele>97</ele>
        <time>2015-06-08T19:18:50.785Z</time>
      </trkpt>
      <trkpt lat="48.81302" lon="2.46538">
        <ele>97.4</ele>
        <time>2015-06-08T19:18:52.809Z</time>
      </trkpt>
      <trkpt lat="48.81301" lon="2.46544">
        <ele>97.4</ele>
        <time>2015-06-08T19:18:53.701Z</time>
      </trkpt>
      <trkpt lat="48.813" lon="2.46551">
        <ele>97.3</ele>
        <time>2015-06-08T19:18:54.773Z</time>
      </trkpt>
      <trkpt lat="48.81298" lon="2.46557">
        <ele>97.4</ele>
        <time>2015-06-08T19:18:55.801Z</time>
      </trkpt>
      <trkpt lat="48.81296" lon="2.46564">
        <ele>97.5</ele>
        <time>2015-06-08T19:18:56.825Z</time>
      </trkpt>
      <trkpt lat="48.81295" lon="2.46571">
        <ele>97.7</ele>
        <time>2015-06-08T19:18:57.727Z</time>
      </trkpt>
      <trkpt lat="48.81295" lon="2.46578">
        <ele>98</ele>
        <time>2015-06-08T19:18:58.768Z</time>
      </trkpt>
      <trkpt lat="48.81294" lon="2.46585">
        <ele>97.9</ele>
        <time>2015-06-08T19:18:59.780Z</time>
      </trkpt>
      <trkpt lat="48.81294" lon="2.46591">
        <ele>98.1</ele>
        <time>2015-06-08T19:19:00.795Z</time>
      </trkpt>
      <trkpt lat="48.81292" lon="2.46598">
        <ele>98.3</ele>
        <time>2015-06-08T19:19:01.802Z</time>
      </trkpt>
      <trkpt lat="48.81291" lon="2.46606">
        <ele>98.4</ele>
        <time>2015-06-08T19:19:02.810Z</time>
      </trkpt>
      <trkpt lat="48.8129" lon="2.46612">
        <ele>98.7</ele>
        <time>2015-06-08T19:19:03.702Z</time>
      </trkpt>
      <trkpt lat="48.81288" lon="2.46624">
        <ele>99</ele>
        <time>2015-06-08T19:19:05.758Z</time>
      </trkpt>
      <trkpt lat="48.81287" lon="2.46631">
        <ele>98.5</ele>
        <time>2015-06-08T19:19:06.756Z</time>
      </trkpt>
      <trkpt lat="48.81285" lon="2.46642">
        <ele>98.8</ele>
        <time>2015-06-08T19:19:08.776Z</time>
      </trkpt>
      <trkpt lat="48.81285" lon="2.46648">
        <ele>99</ele>
        <time>2015-06-08T19:19:09.830Z</time>
      </trkpt>
      <trkpt lat="48.81282" lon="2.4666">
        <ele>98.3</ele>
        <time>2015-06-08T19:19:11.725Z</time>
      </trkpt>
      <trkpt lat="48.81281" lon="2.46666">
        <ele>98.5</ele>
        <time>2015-06-08T19:19:12.751Z</time>
      </trkpt>
      <trkpt lat="48.81277" lon="2.46677">
        <ele>98.8</ele>
        <time>2015-06-08T19:19:14.802Z</time>
      </trkpt>
      <trkpt lat="48.81275" lon="2.46682">
        <ele>98.8</ele>
        <time>2015-06-08T19:19:15.823Z</time>
      </trkpt>
      <trkpt lat="48.81273" lon="2.46692">
        <ele>98.8</ele>
        <time>2015-06-08T19:19:17.761Z</time>
      </trkpt>
      <trkpt lat="48.81272" lon="2.46697">
        <ele>99</ele>
        <time>2015-06-08T19:19:18.773Z</time>
      </trkpt>
      <trkpt lat="48.81269" lon="2.46709">
        <ele>99.5</ele>
        <time>2015-06-08T19:19:21.763Z</time>
      </trkpt>
      <trkpt lat="48.81268" lon="2.46713">
        <ele>99.8</ele>
        <time>2015-06-08T19:19:22.847Z</time>
      </trkpt>
      <trkpt lat="48.81263" lon="2.46722">
        <ele>99.6</ele>
        <time>2015-06-08T19:19:24.734Z</time>
      </trkpt>
      <trkpt lat="48.81261" lon="2.46727">
        <ele>99.9</ele>
        <time>2015-06-08T19:19:25.795Z</time>
      </trkpt>
      <trkpt lat="48.81259" lon="2.46737">
        <ele>101</ele>
        <time>2015-06-08T19:19:27.977Z</time>
      </trkpt>
      <trkpt lat="48.81257" lon="2.46742">
        <ele>101.4</ele>
        <time>2015-06-08T19:19:28.743Z</time>
      </trkpt>
      <trkpt lat="48.81254" lon="2.46746">
        <ele>101.6</ele>
        <time>2015-06-08T19:19:29.767Z</time>
      </trkpt>
      <trkpt lat="48.81249" lon="2.4675">
        <ele>101.3</ele>
        <time>2015-06-08T19:19:30.779Z</time>
      </trkpt>
      <trkpt lat="48.81244" lon="2.46758">
        <ele>101.2</ele>
        <time>2015-06-08T19:19:32.842Z</time>
      </trkpt>
      <trkpt lat="48.81241" lon="2.46761">
        <ele>100.9</ele>
        <time>2015-06-08T19:19:33.820Z</time>
      </trkpt>
      <trkpt lat="48.81235" lon="2.46768">
        <ele>100.7</ele>
        <time>2015-06-08T19:19:35.731Z</time>
      </trkpt>
      <trkpt lat="48.81233" lon="2.46771">
        <ele>100.8</ele>
        <time>2015-06-08T19:19:36.737Z</time>
      </trkpt>
      <trkpt lat="48.81228" lon="2.46781">
        <ele>100.5</ele>
        <time>2015-06-08T19:19:38.788Z</time>
      </trkpt>
      <trkpt lat="48.81225" lon="2.46785">
        <ele>100.2</ele>
        <time>2015-06-08T19:19:39.799Z</time>
      </trkpt>
      <trkpt lat="48.8122" lon="2.46794">
        <ele>99.1</ele>
        <time>2015-06-08T19:19:41.746Z</time>
      </trkpt>
      <trkpt lat="48.81217" lon="2.46798">
        <ele>98.7</ele>
        <time>2015-06-08T19:19:42.751Z</time>
      </trkpt>
      <trkpt lat="48.81212" lon="2.46807">
        <ele>98.2</ele>
        <time>2015-06-08T19:19:44.808Z</time>
      </trkpt>
      <trkpt lat="48.81209" lon="2.46813">
        <ele>98</ele>
        <time>2015-06-08T19:19:45.711Z</time>
      </trkpt>
      <trkpt lat="48.81204" lon="2.46821">
        <ele>98</ele>
        <time>2015-06-08T19:19:47.763Z</time>
      </trkpt>
      <trkpt lat="48.812" lon="2.46826">
        <ele>97.3</ele>
        <time>2015-06-08T19:19:48.756Z</time>
      </trkpt>
      <trkpt lat="48.81195" lon="2.46834">
        <ele>97</ele>
        <time>2015-06-08T19:19:51.446Z</time>
      </trkpt>
      <trkpt lat="48.81193" lon="2.46838">
        <ele>96.9</ele>
        <time>2015-06-08T19:19:51.792Z</time>
      </trkpt>
      <trkpt lat="48.81188" lon="2.46846">
        <ele>97.2</ele>
        <time>2015-06-08T19:19:53.771Z</time>
      </trkpt>
      <trkpt lat="48.81185" lon="2.46848">
        <ele>96.9</ele>
        <time>2015-06-08T19:19:54.762Z</time>
      </trkpt>
      <trkpt lat="48.81178" lon="2.46844">
        <ele>97.4</ele>
        <time>2015-06-08T19:19:58.771Z</time>
      </trkpt>
      <trkpt lat="48.81177" lon="2.4684">
        <ele>97</ele>
        <time>2015-06-08T19:20:00.143Z</time>
      </trkpt>
      <trkpt lat="48.81173" lon="2.46833">
        <ele>96.8</ele>
        <time>2015-06-08T19:20:01.552Z</time>
      </trkpt>
      <trkpt lat="48.81171" lon="2.46828">
        <ele>96.1</ele>
        <time>2015-06-08T19:20:02.825Z</time>
      </trkpt>
      <trkpt lat="48.81166" lon="2.4682">
        <ele>94.8</ele>
        <time>2015-06-08T19:20:04.753Z</time>
      </trkpt>
      <trkpt lat="48.81164" lon="2.46816">
        <ele>94.8</ele>
        <time>2015-06-08T19:20:05.748Z</time>
      </trkpt>
      <trkpt lat="48.81157" lon="2.46809">
        <ele>95.1</ele>
        <time>2015-06-08T19:20:07.759Z</time>
      </trkpt>
      <trkpt lat="48.81153" lon="2.46804">
        <ele>95</ele>
        <time>2015-06-08T19:20:08.814Z</time>
      </trkpt>
      <trkpt lat="48.81146" lon="2.46797">
        <ele>95.8</ele>
        <time>2015-06-08T19:20:10.751Z</time>
      </trkpt>
      <trkpt lat="48.81144" lon="2.46793">
        <ele>95.6</ele>
        <time>2015-06-08T19:20:11.746Z</time>
      </trkpt>
      <trkpt lat="48.81139" lon="2.46783">
        <ele>94.6</ele>
        <time>2015-06-08T19:20:13.753Z</time>
      </trkpt>
      <trkpt lat="48.81136" lon="2.46778">
        <ele>94.3</ele>
        <time>2015-06-08T19:20:14.795Z</time>
      </trkpt>
      <trkpt lat="48.81133" lon="2.46772">
        <ele>94.2</ele>
        <time>2015-06-08T19:20:15.784Z</time>
      </trkpt>
      <trkpt lat="48.81131" lon="2.46767">
        <ele>94.2</ele>
        <time>2015-06-08T19:20:16.787Z</time>
      </trkpt>
      <trkpt lat="48.81125" lon="2.46757">
        <ele>93.9</ele>
        <time>2015-06-08T19:20:18.743Z</time>
      </trkpt>
      <trkpt lat="48.81122" lon="2.46752">
        <ele>93.9</ele>
        <time>2015-06-08T19:20:19.732Z</time>
      </trkpt>
      <trkpt lat="48.81116" lon="2.46741">
        <ele>93.8</ele>
        <time>2015-06-08T19:20:21.729Z</time>
      </trkpt>
      <trkpt lat="48.81113" lon="2.46736">
        <ele>93.7</ele>
        <time>2015-06-08T19:20:22.735Z</time>
      </trkpt>
      <trkpt lat="48.81108" lon="2.46725">
        <ele>93.2</ele>
        <time>2015-06-08T19:20:24.810Z</time>
      </trkpt>
      <trkpt lat="48.81106" lon="2.46719">
        <ele>92.8</ele>
        <time>2015-06-08T19:20:25.730Z</time>
      </trkpt>
      <trkpt lat="48.81102" lon="2.46714">
        <ele>92.4</ele>
        <time>2015-06-08T19:20:26.812Z</time>
      </trkpt>
      <trkpt lat="48.81099" lon="2.46708">
        <ele>92.2</ele>
        <time>2015-06-08T19:20:27.705Z</time>
      </trkpt>
      <trkpt lat="48.81097" lon="2.46702">
        <ele>92.1</ele>
        <time>2015-06-08T19:20:28.731Z</time>
      </trkpt>
      <trkpt lat="48.81094" lon="2.46696">
        <ele>92.4</ele>
        <time>2015-06-08T19:20:29.728Z</time>
      </trkpt>
      <trkpt lat="48.81092" lon="2.46688">
        <ele>92.2</ele>
        <time>2015-06-08T19:20:30.760Z</time>
      </trkpt>
      <trkpt lat="48.8109" lon="2.46681">
        <ele>91.8</ele>
        <time>2015-06-08T19:20:31.764Z</time>
      </trkpt>
      <trkpt lat="48.81087" lon="2.46673">
        <ele>92.1</ele>
        <time>2015-06-08T19:20:32.807Z</time>
      </trkpt>
      <trkpt lat="48.81084" lon="2.46665">
        <ele>92</ele>
        <time>2015-06-08T19:20:33.800Z</time>
      </trkpt>
      <trkpt lat="48.81081" lon="2.46657">
        <ele>91.8</ele>
        <time>2015-06-08T19:20:34.821Z</time>
      </trkpt>
      <trkpt lat="48.81077" lon="2.46649">
        <ele>91.2</ele>
        <time>2015-06-08T19:20:35.732Z</time>
      </trkpt>
      <trkpt lat="48.81074" lon="2.46643">
        <ele>90.9</ele>
        <time>2015-06-08T19:20:36.741Z</time>
      </trkpt>
      <trkpt lat="48.8107" lon="2.46637">
        <ele>90.6</ele>
        <time>2015-06-08T19:20:37.753Z</time>
      </trkpt>
      <trkpt lat="48.81066" lon="2.46631">
        <ele>90.4</ele>
        <time>2015-06-08T19:20:38.789Z</time>
      </trkpt>
      <trkpt lat="48.81062" lon="2.46624">
        <ele>90.4</ele>
        <time>2015-06-08T19:20:39.809Z</time>
      </trkpt>
      <trkpt lat="48.81057" lon="2.46616">
        <ele>90.9</ele>
        <time>2015-06-08T19:20:40.734Z</time>
      </trkpt>
      <trkpt lat="48.81053" lon="2.46609">
        <ele>90.8</ele>
        <time>2015-06-08T19:20:41.735Z</time>
      </trkpt>
      <trkpt lat="48.81048" lon="2.46602">
        <ele>91</ele>
        <time>2015-06-08T19:20:42.735Z</time>
      </trkpt>
      <trkpt lat="48.81043" lon="2.46597">
        <ele>90.7</ele>
        <time>2015-06-08T19:20:43.742Z</time>
      </trkpt>
      <trkpt lat="48.81037" lon="2.46592">
        <ele>90.4</ele>
        <time>2015-06-08T19:20:44.774Z</time>
      </trkpt>
      <trkpt lat="48.81032" lon="2.46587">
        <ele>90.2</ele>
        <time>2015-06-08T19:20:45.784Z</time>
      </trkpt>
      <trkpt lat="48.81027" lon="2.46583">
        <ele>90.4</ele>
        <time>2015-06-08T19:20:46.787Z</time>
      </trkpt>
      <trkpt lat="48.81022" lon="2.46579">
        <ele>90.2</ele>
        <time>2015-06-08T19:20:47.789Z</time>
      </trkpt>
      <trkpt lat="48.81018" lon="2.46576">
        <ele>90.1</ele>
        <time>2015-06-08T19:20:48.796Z</time>
      </trkpt>
      <trkpt lat="48.81012" lon="2.46574">
        <ele>90.3</ele>
        <time>2015-06-08T19:20:49.762Z</time>
      </trkpt>
      <trkpt lat="48.81007" lon="2.46572">
        <ele>90.2</ele>
        <time>2015-06-08T19:20:50.835Z</time>
      </trkpt>
      <trkpt lat="48.81001" lon="2.46571">
        <ele>89.9</ele>
        <time>2015-06-08T19:20:51.724Z</time>
      </trkpt>
      <trkpt lat="48.80996" lon="2.4657">
        <ele>89.8</ele>
        <time>2015-06-08T19:20:52.738Z</time>
      </trkpt>
      <trkpt lat="48.8099" lon="2.4657">
        <ele>89.7</ele>
        <time>2015-06-08T19:20:53.752Z</time>
      </trkpt>
      <trkpt lat="48.80985" lon="2.46571">
        <ele>89.3</ele>
        <time>2015-06-08T19:20:54.755Z</time>
      </trkpt>
      <trkpt lat="48.80979" lon="2.46571">
        <ele>89</ele>
        <time>2015-06-08T19:20:55.827Z</time>
      </trkpt>
      <trkpt lat="48.80974" lon="2.46573">
        <ele>88.8</ele>
        <time>2015-06-08T19:20:56.844Z</time>
      </trkpt>
      <trkpt lat="48.80969" lon="2.46575">
        <ele>88.6</ele>
        <time>2015-06-08T19:20:57.720Z</time>
      </trkpt>
      <trkpt lat="48.80963" lon="2.46577">
        <ele>88.5</ele>
        <time>2015-06-08T19:20:58.729Z</time>
      </trkpt>
      <trkpt lat="48.80958" lon="2.4658">
        <ele>88.9</ele>
        <time>2015-06-08T19:20:59.821Z</time>
      </trkpt>
      <trkpt lat="48.80953" lon="2.46581">
        <ele>89.3</ele>
        <time>2015-06-08T19:21:00.763Z</time>
      </trkpt>
      <trkpt lat="48.80947" lon="2.46583">
        <ele>90</ele>
        <time>2015-06-08T19:21:01.767Z</time>
      </trkpt>
      <trkpt lat="48.80943" lon="2.46583">
        <ele>90.6</ele>
        <time>2015-06-08T19:21:02.798Z</time>
      </trkpt>
      <trkpt lat="48.80937" lon="2.46583">
        <ele>91.5</ele>
        <time>2015-06-08T19:21:03.802Z</time>
      </trkpt>
      <trkpt lat="48.80933" lon="2.46581">
        <ele>91.8</ele>
        <time>2015-06-08T19:21:04.813Z</time>
      </trkpt>
      <trkpt lat="48.80928" lon="2.46577">
        <ele>91.9</ele>
        <time>2015-06-08T19:21:05.819Z</time>
      </trkpt>
      <trkpt lat="48.80923" lon="2.46571">
        <ele>91.4</ele>
        <time>2015-06-08T19:21:06.823Z</time>
      </trkpt>
      <trkpt lat="48.8092" lon="2.46563">
        <ele>91</ele>
        <time>2015-06-08T19:21:07.717Z</time>
      </trkpt>
      <trkpt lat="48.80916" lon="2.46556">
        <ele>90.9</ele>
        <time>2015-06-08T19:21:08.786Z</time>
      </trkpt>
      <trkpt lat="48.80913" lon="2.4655">
        <ele>90.8</ele>
        <time>2015-06-08T19:21:09.777Z</time>
      </trkpt>
      <trkpt lat="48.80908" lon="2.46539">
        <ele>90.6</ele>
        <time>2015-06-08T19:21:11.805Z</time>
      </trkpt>
      <trkpt lat="48.80906" lon="2.46533">
        <ele>90.4</ele>
        <time>2015-06-08T19:21:12.701Z</time>
      </trkpt>
      <trkpt lat="48.80901" lon="2.46523">
        <ele>90.2</ele>
        <time>2015-06-08T19:21:14.814Z</time>
      </trkpt>
      <trkpt lat="48.80898" lon="2.46517">
        <ele>89.9</ele>
        <time>2015-06-08T19:21:15.764Z</time>
      </trkpt>
      <trkpt lat="48.80893" lon="2.46507">
        <ele>89.9</ele>
        <time>2015-06-08T19:21:17.731Z</time>
      </trkpt>
      <trkpt lat="48.8089" lon="2.46503">
        <ele>89.7</ele>
        <time>2015-06-08T19:21:18.750Z</time>
      </trkpt>
      <trkpt lat="48.80884" lon="2.46493">
        <ele>88.9</ele>
        <time>2015-06-08T19:21:20.794Z</time>
      </trkpt>
      <trkpt lat="48.80881" lon="2.46488">
        <ele>88.5</ele>
        <time>2015-06-08T19:21:21.803Z</time>
      </trkpt>
      <trkpt lat="48.80878" lon="2.46482">
        <ele>88.1</ele>
        <time>2015-06-08T19:21:22.745Z</time>
      </trkpt>
      <trkpt lat="48.80876" lon="2.46476">
        <ele>87.8</ele>
        <time>2015-06-08T19:21:23.755Z</time>
      </trkpt>
      <trkpt lat="48.80873" lon="2.46471">
        <ele>87.6</ele>
        <time>2015-06-08T19:21:24.782Z</time>
      </trkpt>
      <trkpt lat="48.80869" lon="2.46466">
        <ele>87.7</ele>
        <time>2015-06-08T19:21:25.939Z</time>
      </trkpt>
      <trkpt lat="48.80866" lon="2.46461">
        <ele>88.1</ele>
        <time>2015-06-08T19:21:26.761Z</time>
      </trkpt>
      <trkpt lat="48.80863" lon="2.46456">
        <ele>88.5</ele>
        <time>2015-06-08T19:21:27.765Z</time>
      </trkpt>
      <trkpt lat="48.80857" lon="2.46446">
        <ele>89</ele>
        <time>2015-06-08T19:21:29.773Z</time>
      </trkpt>
      <trkpt lat="48.80854" lon="2.46441">
        <ele>89</ele>
        <time>2015-06-08T19:21:30.781Z</time>
      </trkpt>
      <trkpt lat="48.80848" lon="2.46431">
        <ele>89</ele>
        <time>2015-06-08T19:21:32.872Z</time>
      </trkpt>
      <trkpt lat="48.80845" lon="2.46426">
        <ele>88.9</ele>
        <time>2015-06-08T19:21:33.771Z</time>
      </trkpt>
      <trkpt lat="48.80838" lon="2.46418">
        <ele>88.8</ele>
        <time>2015-06-08T19:21:35.735Z</time>
      </trkpt>
      <trkpt lat="48.80836" lon="2.46413">
        <ele>88.8</ele>
        <time>2015-06-08T19:21:36.786Z</time>
      </trkpt>
      <trkpt lat="48.80831" lon="2.46402">
        <ele>88.7</ele>
        <time>2015-06-08T19:21:38.826Z</time>
      </trkpt>
      <trkpt lat="48.80829" lon="2.46397">
        <ele>88.7</ele>
        <time>2015-06-08T19:21:39.856Z</time>
      </trkpt>
      <trkpt lat="48.80824" lon="2.46389">
        <ele>88.4</ele>
        <time>2015-06-08T19:21:41.750Z</time>
      </trkpt>
      <trkpt lat="48.80822" lon="2.46385">
        <ele>88.3</ele>
        <time>2015-06-08T19:21:42.769Z</time>
      </trkpt>
      <trkpt lat="48.80815" lon="2.46379">
        <ele>88.7</ele>
        <time>2015-06-08T19:21:44.811Z</time>
      </trkpt>
      <trkpt lat="48.80811" lon="2.46379">
        <ele>88.5</ele>
        <time>2015-06-08T19:21:45.831Z</time>
      </trkpt>
      <trkpt lat="48.80805" lon="2.46384">
        <ele>88</ele>
        <time>2015-06-08T19:21:47.796Z</time>
      </trkpt>
      <trkpt lat="48.80803" lon="2.46387">
        <ele>88.1</ele>
        <time>2015-06-08T19:21:48.818Z</time>
      </trkpt>
      <trkpt lat="48.80798" lon="2.46394">
        <ele>87.9</ele>
        <time>2015-06-08T19:21:50.767Z</time>
      </trkpt>
      <trkpt lat="48.80795" lon="2.46397">
        <ele>87.8</ele>
        <time>2015-06-08T19:21:51.784Z</time>
      </trkpt>
      <trkpt lat="48.80791" lon="2.46401">
        <ele>87.4</ele>
        <time>2015-06-08T19:21:52.742Z</time>
      </trkpt>
      <trkpt lat="48.80787" lon="2.46406">
        <ele>87</ele>
        <time>2015-06-08T19:21:53.742Z</time>
      </trkpt>
      <trkpt lat="48.80784" lon="2.4641">
        <ele>87</ele>
        <time>2015-06-08T19:21:54.765Z</time>
      </trkpt>
      <trkpt lat="48.80781" lon="2.46415">
        <ele>87</ele>
        <time>2015-06-08T19:21:55.772Z</time>
      </trkpt>
      <trkpt lat="48.80775" lon="2.46425">
        <ele>86.8</ele>
        <time>2015-06-08T19:21:57.804Z</time>
      </trkpt>
      <trkpt lat="48.80771" lon="2.4643">
        <ele>86.7</ele>
        <time>2015-06-08T19:21:58.829Z</time>
      </trkpt>
      <trkpt lat="48.80767" lon="2.46435">
        <ele>86.6</ele>
        <time>2015-06-08T19:21:59.728Z</time>
      </trkpt>
      <trkpt lat="48.80763" lon="2.4644">
        <ele>86.6</ele>
        <time>2015-06-08T19:22:00.742Z</time>
      </trkpt>
      <trkpt lat="48.8076" lon="2.46444">
        <ele>86.4</ele>
        <time>2015-06-08T19:22:01.811Z</time>
      </trkpt>
      <trkpt lat="48.80756" lon="2.46449">
        <ele>86.2</ele>
        <time>2015-06-08T19:22:02.802Z</time>
      </trkpt>
      <trkpt lat="48.80753" lon="2.46454">
        <ele>85.6</ele>
        <time>2015-06-08T19:22:03.814Z</time>
      </trkpt>
      <trkpt lat="48.80749" lon="2.46459">
        <ele>85</ele>
        <time>2015-06-08T19:22:04.767Z</time>
      </trkpt>
      <trkpt lat="48.80746" lon="2.46464">
        <ele>84.9</ele>
        <time>2015-06-08T19:22:05.761Z</time>
      </trkpt>
      <trkpt lat="48.80742" lon="2.46469">
        <ele>85</ele>
        <time>2015-06-08T19:22:06.775Z</time>
      </trkpt>
      <trkpt lat="48.80735" lon="2.46478">
        <ele>85.2</ele>
        <time>2015-06-08T19:22:08.796Z</time>
      </trkpt>
      <trkpt lat="48.80732" lon="2.46482">
        <ele>85.3</ele>
        <time>2015-06-08T19:22:09.812Z</time>
      </trkpt>
      <trkpt lat="48.80726" lon="2.46491">
        <ele>85.3</ele>
        <time>2015-06-08T19:22:11.764Z</time>
      </trkpt>
      <trkpt lat="48.80723" lon="2.46497">
        <ele>85.5</ele>
        <time>2015-06-08T19:22:12.763Z</time>
      </trkpt>
      <trkpt lat="48.80718" lon="2.46507">
        <ele>86.2</ele>
        <time>2015-06-08T19:22:14.791Z</time>
      </trkpt>
      <trkpt lat="48.80716" lon="2.4651">
        <ele>86.3</ele>
        <time>2015-06-08T19:22:15.797Z</time>
      </trkpt>
      <trkpt lat="48.80714" lon="2.46523">
        <ele>86.4</ele>
        <time>2015-06-08T19:22:18.814Z</time>
      </trkpt>
      <trkpt lat="48.80714" lon="2.46528">
        <ele>86.4</ele>
        <time>2015-06-08T19:22:19.752Z</time>
      </trkpt>
      <trkpt lat="48.80717" lon="2.46539">
        <ele>86.3</ele>
        <time>2015-06-08T19:22:21.772Z</time>
      </trkpt>
      <trkpt lat="48.8072" lon="2.46543">
        <ele>86.4</ele>
        <time>2015-06-08T19:22:22.770Z</time>
      </trkpt>
      <trkpt lat="48.80724" lon="2.46555">
        <ele>86.4</ele>
        <time>2015-06-08T19:22:24.792Z</time>
      </trkpt>
      <trkpt lat="48.80727" lon="2.46561">
        <ele>86.1</ele>
        <time>2015-06-08T19:22:25.797Z</time>
      </trkpt>
      <trkpt lat="48.80731" lon="2.46568">
        <ele>85.7</ele>
        <time>2015-06-08T19:22:26.824Z</time>
      </trkpt>
      <trkpt lat="48.80736" lon="2.46575">
        <ele>85.6</ele>
        <time>2015-06-08T19:22:27.827Z</time>
      </trkpt>
      <trkpt lat="48.80739" lon="2.46582">
        <ele>86.1</ele>
        <time>2015-06-08T19:22:28.743Z</time>
      </trkpt>
      <trkpt lat="48.80742" lon="2.46588">
        <ele>86.5</ele>
        <time>2015-06-08T19:22:29.822Z</time>
      </trkpt>
      <trkpt lat="48.80745" lon="2.46599">
        <ele>86.5</ele>
        <time>2015-06-08T19:22:31.744Z</time>
      </trkpt>
      <trkpt lat="48.80746" lon="2.46605">
        <ele>86.4</ele>
        <time>2015-06-08T19:22:32.866Z</time>
      </trkpt>
      <trkpt lat="48.80748" lon="2.46616">
        <ele>86.4</ele>
        <time>2015-06-08T19:22:34.800Z</time>
      </trkpt>
      <trkpt lat="48.80749" lon="2.46621">
        <ele>86.8</ele>
        <time>2015-06-08T19:22:35.824Z</time>
      </trkpt>
      <trkpt lat="48.80749" lon="2.46628">
        <ele>87.1</ele>
        <time>2015-06-08T19:22:36.747Z</time>
      </trkpt>
      <trkpt lat="48.80749" lon="2.46636">
        <ele>87.4</ele>
        <time>2015-06-08T19:22:37.706Z</time>
      </trkpt>
      <trkpt lat="48.80749" lon="2.46643">
        <ele>87.3</ele>
        <time>2015-06-08T19:22:38.765Z</time>
      </trkpt>
      <trkpt lat="48.8075" lon="2.46651">
        <ele>86.7</ele>
        <time>2015-06-08T19:22:39.773Z</time>
      </trkpt>
      <trkpt lat="48.8075" lon="2.46664">
        <ele>86.6</ele>
        <time>2015-06-08T19:22:41.843Z</time>
      </trkpt>
      <trkpt lat="48.80747" lon="2.46668">
        <ele>86.3</ele>
        <time>2015-06-08T19:22:42.888Z</time>
      </trkpt>
      <trkpt lat="48.8074" lon="2.46675">
        <ele>86.1</ele>
        <time>2015-06-08T19:22:44.801Z</time>
      </trkpt>
      <trkpt lat="48.80736" lon="2.46679">
        <ele>85.9</ele>
        <time>2015-06-08T19:22:45.742Z</time>
      </trkpt>
      <trkpt lat="48.80732" lon="2.46684">
        <ele>86</ele>
        <time>2015-06-08T19:22:46.753Z</time>
      </trkpt>
      <trkpt lat="48.80727" lon="2.46689">
        <ele>85.9</ele>
        <time>2015-06-08T19:22:47.818Z</time>
      </trkpt>
      <trkpt lat="48.80723" lon="2.46693">
        <ele>85.7</ele>
        <time>2015-06-08T19:22:48.754Z</time>
      </trkpt>
      <trkpt lat="48.80718" lon="2.46698">
        <ele>85.6</ele>
        <time>2015-06-08T19:22:49.766Z</time>
      </trkpt>
      <trkpt lat="48.80714" lon="2.46704">
        <ele>85.5</ele>
        <time>2015-06-08T19:22:51.465Z</time>
      </trkpt>
      <trkpt lat="48.8071" lon="2.4671">
        <ele>85.5</ele>
        <time>2015-06-08T19:22:51.796Z</time>
      </trkpt>
      <trkpt lat="48.80706" lon="2.46715">
        <ele>85.4</ele>
        <time>2015-06-08T19:22:52.800Z</time>
      </trkpt>
      <trkpt lat="48.80703" lon="2.46719">
        <ele>85.3</ele>
        <time>2015-06-08T19:22:53.810Z</time>
      </trkpt>
      <trkpt lat="48.80699" lon="2.46724">
        <ele>85.1</ele>
        <time>2015-06-08T19:22:54.818Z</time>
      </trkpt>
      <trkpt lat="48.80695" lon="2.46729">
        <ele>85</ele>
        <time>2015-06-08T19:22:55.709Z</time>
      </trkpt>
      <trkpt lat="48.80689" lon="2.46735">
        <ele>84.1</ele>
        <time>2015-06-08T19:22:57.767Z</time>
      </trkpt>
      <trkpt lat="48.80685" lon="2.46739">
        <ele>84.3</ele>
        <time>2015-06-08T19:22:58.793Z</time>
      </trkpt>
      <trkpt lat="48.80678" lon="2.46748">
        <ele>84.1</ele>
        <time>2015-06-08T19:23:01.643Z</time>
      </trkpt>
      <trkpt lat="48.80675" lon="2.46752">
        <ele>83.7</ele>
        <time>2015-06-08T19:23:01.727Z</time>
      </trkpt>
      <trkpt lat="48.8067" lon="2.46761">
        <ele>83.6</ele>
        <time>2015-06-08T19:23:03.772Z</time>
      </trkpt>
      <trkpt lat="48.80667" lon="2.46766">
        <ele>83.6</ele>
        <time>2015-06-08T19:23:04.844Z</time>
      </trkpt>
      <trkpt lat="48.80664" lon="2.46772">
        <ele>83.4</ele>
        <time>2015-06-08T19:23:05.747Z</time>
      </trkpt>
      <trkpt lat="48.80661" lon="2.46777">
        <ele>83.8</ele>
        <time>2015-06-08T19:23:06.765Z</time>
      </trkpt>
      <trkpt lat="48.80657" lon="2.46783">
        <ele>83.7</ele>
        <time>2015-06-08T19:23:07.785Z</time>
      </trkpt>
      <trkpt lat="48.80654" lon="2.46787">
        <ele>83.6</ele>
        <time>2015-06-08T19:23:08.800Z</time>
      </trkpt>
      <trkpt lat="48.8065" lon="2.46795">
        <ele>83.4</ele>
        <time>2015-06-08T19:23:09.814Z</time>
      </trkpt>
      <trkpt lat="48.80645" lon="2.46801">
        <ele>83.4</ele>
        <time>2015-06-08T19:23:10.739Z</time>
      </trkpt>
      <trkpt lat="48.80641" lon="2.46807">
        <ele>83.2</ele>
        <time>2015-06-08T19:23:11.876Z</time>
      </trkpt>
      <trkpt lat="48.80636" lon="2.46813">
        <ele>82.9</ele>
        <time>2015-06-08T19:23:12.749Z</time>
      </trkpt>
      <trkpt lat="48.80632" lon="2.46817">
        <ele>83</ele>
        <time>2015-06-08T19:23:13.775Z</time>
      </trkpt>
      <trkpt lat="48.80627" lon="2.46822">
        <ele>83</ele>
        <time>2015-06-08T19:23:14.786Z</time>
      </trkpt>
      <trkpt lat="48.80623" lon="2.46826">
        <ele>83.2</ele>
        <time>2015-06-08T19:23:15.798Z</time>
      </trkpt>
      <trkpt lat="48.80619" lon="2.46832">
        <ele>83.5</ele>
        <time>2015-06-08T19:23:16.804Z</time>
      </trkpt>
      <trkpt lat="48.80615" lon="2.46837">
        <ele>83.9</ele>
        <time>2015-06-08T19:23:17.814Z</time>
      </trkpt>
      <trkpt lat="48.80611" lon="2.46841">
        <ele>84.3</ele>
        <time>2015-06-08T19:23:18.824Z</time>
      </trkpt>
      <trkpt lat="48.80607" lon="2.46847">
        <ele>84.4</ele>
        <time>2015-06-08T19:23:19.747Z</time>
      </trkpt>
      <trkpt lat="48.80602" lon="2.46851">
        <ele>84.7</ele>
        <time>2015-06-08T19:23:20.847Z</time>
      </trkpt>
      <trkpt lat="48.80597" lon="2.46857">
        <ele>84.5</ele>
        <time>2015-06-08T19:23:21.739Z</time>
      </trkpt>
      <trkpt lat="48.80593" lon="2.46862">
        <ele>84.6</ele>
        <time>2015-06-08T19:23:22.742Z</time>
      </trkpt>
      <trkpt lat="48.80588" lon="2.46868">
        <ele>84.4</ele>
        <time>2015-06-08T19:23:23.752Z</time>
      </trkpt>
      <trkpt lat="48.80584" lon="2.46873">
        <ele>84.3</ele>
        <time>2015-06-08T19:23:24.756Z</time>
      </trkpt>
      <trkpt lat="48.80576" lon="2.46878">
        <ele>84.2</ele>
        <time>2015-06-08T19:23:26.828Z</time>
      </trkpt>
      <trkpt lat="48.80572" lon="2.46879">
        <ele>84.2</ele>
        <time>2015-06-08T19:23:27.869Z</time>
      </trkpt>
      <trkpt lat="48.80567" lon="2.46881">
        <ele>84.4</ele>
        <time>2015-06-08T19:23:28.793Z</time>
      </trkpt>
      <trkpt lat="48.80563" lon="2.46884">
        <ele>84.8</ele>
        <time>2015-06-08T19:23:29.811Z</time>
      </trkpt>
      <trkpt lat="48.80558" lon="2.46886">
        <ele>84.8</ele>
        <time>2015-06-08T19:23:30.739Z</time>
      </trkpt>
      <trkpt lat="48.80553" lon="2.46888">
        <ele>84.6</ele>
        <time>2015-06-08T19:23:31.753Z</time>
      </trkpt>
      <trkpt lat="48.80546" lon="2.46889">
        <ele>84</ele>
        <time>2015-06-08T19:23:32.830Z</time>
      </trkpt>
      <trkpt lat="48.8054" lon="2.46892">
        <ele>83.7</ele>
        <time>2015-06-08T19:23:33.818Z</time>
      </trkpt>
      <trkpt lat="48.80535" lon="2.46894">
        <ele>83.3</ele>
        <time>2015-06-08T19:23:34.734Z</time>
      </trkpt>
      <trkpt lat="48.8053" lon="2.46896">
        <ele>83.2</ele>
        <time>2015-06-08T19:23:35.737Z</time>
      </trkpt>
      <trkpt lat="48.80525" lon="2.46898">
        <ele>83</ele>
        <time>2015-06-08T19:23:36.782Z</time>
      </trkpt>
      <trkpt lat="48.8052" lon="2.46901">
        <ele>82.9</ele>
        <time>2015-06-08T19:23:37.796Z</time>
      </trkpt>
      <trkpt lat="48.80516" lon="2.46903">
        <ele>82.8</ele>
        <time>2015-06-08T19:23:38.816Z</time>
      </trkpt>
      <trkpt lat="48.80511" lon="2.46904">
        <ele>82.5</ele>
        <time>2015-06-08T19:23:39.722Z</time>
      </trkpt>
      <trkpt lat="48.80506" lon="2.46906">
        <ele>82.4</ele>
        <time>2015-06-08T19:23:40.725Z</time>
      </trkpt>
      <trkpt lat="48.80502" lon="2.46908">
        <ele>82.6</ele>
        <time>2015-06-08T19:23:41.729Z</time>
      </trkpt>
      <trkpt lat="48.80497" lon="2.4691">
        <ele>82.5</ele>
        <time>2015-06-08T19:23:42.741Z</time>
      </trkpt>
      <trkpt lat="48.80493" lon="2.46911">
        <ele>82.5</ele>
        <time>2015-06-08T19:23:43.753Z</time>
      </trkpt>
      <trkpt lat="48.80484" lon="2.46911">
        <ele>82.8</ele>
        <time>2015-06-08T19:23:45.748Z</time>
      </trkpt>
      <trkpt lat="48.8048" lon="2.46911">
        <ele>83.3</ele>
        <time>2015-06-08T19:23:46.773Z</time>
      </trkpt>
      <trkpt lat="48.80471" lon="2.46912">
        <ele>83.3</ele>
        <time>2015-06-08T19:23:48.769Z</time>
      </trkpt>
      <trkpt lat="48.80467" lon="2.46914">
        <ele>83.4</ele>
        <time>2015-06-08T19:23:49.879Z</time>
      </trkpt>
      <trkpt lat="48.80459" lon="2.46917">
        <ele>83.6</ele>
        <time>2015-06-08T19:23:51.775Z</time>
      </trkpt>
      <trkpt lat="48.80455" lon="2.46918">
        <ele>83.8</ele>
        <time>2015-06-08T19:23:52.789Z</time>
      </trkpt>
      <trkpt lat="48.8045" lon="2.4692">
        <ele>84.3</ele>
        <time>2015-06-08T19:23:53.813Z</time>
      </trkpt>
      <trkpt lat="48.80446" lon="2.46922">
        <ele>84.4</ele>
        <time>2015-06-08T19:23:54.720Z</time>
      </trkpt>
      <trkpt lat="48.80441" lon="2.46924">
        <ele>84.7</ele>
        <time>2015-06-08T19:23:55.751Z</time>
      </trkpt>
      <trkpt lat="48.80436" lon="2.46926">
        <ele>85</ele>
        <time>2015-06-08T19:23:56.765Z</time>
      </trkpt>
      <trkpt lat="48.80432" lon="2.46928">
        <ele>85.2</ele>
        <time>2015-06-08T19:23:57.774Z</time>
      </trkpt>
      <trkpt lat="48.80427" lon="2.46931">
        <ele>85.3</ele>
        <time>2015-06-08T19:23:58.790Z</time>
      </trkpt>
      <trkpt lat="48.80423" lon="2.46934">
        <ele>85.3</ele>
        <time>2015-06-08T19:23:59.816Z</time>
      </trkpt>
      <trkpt lat="48.80418" lon="2.46936">
        <ele>85.4</ele>
        <time>2015-06-08T19:24:00.851Z</time>
      </trkpt>
      <trkpt lat="48.80413" lon="2.46938">
        <ele>85.3</ele>
        <time>2015-06-08T19:24:01.748Z</time>
      </trkpt>
      <trkpt lat="48.80408" lon="2.4694">
        <ele>85.3</ele>
        <time>2015-06-08T19:24:02.808Z</time>
      </trkpt>
      <trkpt lat="48.80404" lon="2.46942">
        <ele>85.6</ele>
        <time>2015-06-08T19:24:03.812Z</time>
      </trkpt>
      <trkpt lat="48.80399" lon="2.46944">
        <ele>85.8</ele>
        <time>2015-06-08T19:24:04.820Z</time>
      </trkpt>
      <trkpt lat="48.80394" lon="2.46947">
        <ele>86</ele>
        <time>2015-06-08T19:24:05.826Z</time>
      </trkpt>
      <trkpt lat="48.8039" lon="2.4695">
        <ele>86.2</ele>
        <time>2015-06-08T19:24:06.820Z</time>
      </trkpt>
      <trkpt lat="48.80385" lon="2.46954">
        <ele>86.6</ele>
        <time>2015-06-08T19:24:07.748Z</time>
      </trkpt>
      <trkpt lat="48.8038" lon="2.46959">
        <ele>86.5</ele>
        <time>2015-06-08T19:24:08.804Z</time>
      </trkpt>
      <trkpt lat="48.80376" lon="2.46961">
        <ele>86.8</ele>
        <time>2015-06-08T19:24:09.800Z</time>
      </trkpt>
      <trkpt lat="48.80372" lon="2.46965">
        <ele>87</ele>
        <time>2015-06-08T19:24:10.836Z</time>
      </trkpt>
      <trkpt lat="48.80368" lon="2.46967">
        <ele>87.3</ele>
        <time>2015-06-08T19:24:12.052Z</time>
      </trkpt>
      <trkpt lat="48.80363" lon="2.46971">
        <ele>87.6</ele>
        <time>2015-06-08T19:24:12.763Z</time>
      </trkpt>
      <trkpt lat="48.80359" lon="2.46974">
        <ele>87.8</ele>
        <time>2015-06-08T19:24:13.777Z</time>
      </trkpt>
      <trkpt lat="48.80353" lon="2.46977">
        <ele>88.7</ele>
        <time>2015-06-08T19:24:14.796Z</time>
      </trkpt>
      <trkpt lat="48.80347" lon="2.46977">
        <ele>89</ele>
        <time>2015-06-08T19:24:15.806Z</time>
      </trkpt>
      <trkpt lat="48.80342" lon="2.46977">
        <ele>88.9</ele>
        <time>2015-06-08T19:24:16.827Z</time>
      </trkpt>
      <trkpt lat="48.80337" lon="2.46976">
        <ele>88.6</ele>
        <time>2015-06-08T19:24:17.742Z</time>
      </trkpt>
      <trkpt lat="48.80332" lon="2.46977">
        <ele>88.9</ele>
        <time>2015-06-08T19:24:18.739Z</time>
      </trkpt>
      <trkpt lat="48.80327" lon="2.46978">
        <ele>89</ele>
        <time>2015-06-08T19:24:19.750Z</time>
      </trkpt>
      <trkpt lat="48.80322" lon="2.46979">
        <ele>89.1</ele>
        <time>2015-06-08T19:24:20.822Z</time>
      </trkpt>
      <trkpt lat="48.80317" lon="2.4698">
        <ele>89.3</ele>
        <time>2015-06-08T19:24:21.709Z</time>
      </trkpt>
      <trkpt lat="48.80311" lon="2.4698">
        <ele>89.1</ele>
        <time>2015-06-08T19:24:22.726Z</time>
      </trkpt>
      <trkpt lat="48.80305" lon="2.46979">
        <ele>89.1</ele>
        <time>2015-06-08T19:24:23.736Z</time>
      </trkpt>
      <trkpt lat="48.80299" lon="2.46979">
        <ele>88.7</ele>
        <time>2015-06-08T19:24:24.741Z</time>
      </trkpt>
      <trkpt lat="48.80293" lon="2.46979">
        <ele>88.9</ele>
        <time>2015-06-08T19:24:25.769Z</time>
      </trkpt>
      <trkpt lat="48.80287" lon="2.46979">
        <ele>89</ele>
        <time>2015-06-08T19:24:26.810Z</time>
      </trkpt>
      <trkpt lat="48.8028" lon="2.46981">
        <ele>88.8</ele>
        <time>2015-06-08T19:24:27.819Z</time>
      </trkpt>
      <trkpt lat="48.80273" lon="2.46983">
        <ele>89.2</ele>
        <time>2015-06-08T19:24:28.741Z</time>
      </trkpt>
      <trkpt lat="48.80266" lon="2.46983">
        <ele>89.7</ele>
        <time>2015-06-08T19:24:29.743Z</time>
      </trkpt>
      <trkpt lat="48.80259" lon="2.46981">
        <ele>89.9</ele>
        <time>2015-06-08T19:24:30.734Z</time>
      </trkpt>
      <trkpt lat="48.80251" lon="2.46981">
        <ele>90.1</ele>
        <time>2015-06-08T19:24:31.755Z</time>
      </trkpt>
      <trkpt lat="48.80244" lon="2.46981">
        <ele>89.9</ele>
        <time>2015-06-08T19:24:32.775Z</time>
      </trkpt>
      <trkpt lat="48.80237" lon="2.4698">
        <ele>89.9</ele>
        <time>2015-06-08T19:24:33.802Z</time>
      </trkpt>
      <trkpt lat="48.8023" lon="2.46979">
        <ele>89.9</ele>
        <time>2015-06-08T19:24:34.727Z</time>
      </trkpt>
      <trkpt lat="48.80224" lon="2.46978">
        <ele>89.8</ele>
        <time>2015-06-08T19:24:35.697Z</time>
      </trkpt>
      <trkpt lat="48.80217" lon="2.46977">
        <ele>90.1</ele>
        <time>2015-06-08T19:24:36.725Z</time>
      </trkpt>
      <trkpt lat="48.8021" lon="2.46977">
        <ele>90.4</ele>
        <time>2015-06-08T19:24:37.742Z</time>
      </trkpt>
      <trkpt lat="48.80204" lon="2.46978">
        <ele>90</ele>
        <time>2015-06-08T19:24:38.774Z</time>
      </trkpt>
      <trkpt lat="48.80196" lon="2.46979">
        <ele>89.6</ele>
        <time>2015-06-08T19:24:39.766Z</time>
      </trkpt>
      <trkpt lat="48.80189" lon="2.4698">
        <ele>89.5</ele>
        <time>2015-06-08T19:24:40.774Z</time>
      </trkpt>
      <trkpt lat="48.80182" lon="2.46981">
        <ele>89.7</ele>
        <time>2015-06-08T19:24:41.796Z</time>
      </trkpt>
      <trkpt lat="48.80173" lon="2.46984">
        <ele>91.1</ele>
        <time>2015-06-08T19:24:42.812Z</time>
      </trkpt>
      <trkpt lat="48.80166" lon="2.46986">
        <ele>91.9</ele>
        <time>2015-06-08T19:24:43.742Z</time>
      </trkpt>
      <trkpt lat="48.80159" lon="2.46989">
        <ele>92</ele>
        <time>2015-06-08T19:24:44.773Z</time>
      </trkpt>
      <trkpt lat="48.80151" lon="2.46993">
        <ele>91.8</ele>
        <time>2015-06-08T19:24:45.777Z</time>
      </trkpt>
      <trkpt lat="48.80144" lon="2.46996">
        <ele>91.5</ele>
        <time>2015-06-08T19:24:46.787Z</time>
      </trkpt>
      <trkpt lat="48.80137" lon="2.47">
        <ele>90.8</ele>
        <time>2015-06-08T19:24:47.795Z</time>
      </trkpt>
      <trkpt lat="48.8013" lon="2.47003">
        <ele>90.2</ele>
        <time>2015-06-08T19:24:48.806Z</time>
      </trkpt>
      <trkpt lat="48.80123" lon="2.47005">
        <ele>90.1</ele>
        <time>2015-06-08T19:24:49.735Z</time>
      </trkpt>
      <trkpt lat="48.80116" lon="2.47008">
        <ele>90.3</ele>
        <time>2015-06-08T19:24:50.835Z</time>
      </trkpt>
      <trkpt lat="48.80109" lon="2.47011">
        <ele>90.6</ele>
        <time>2015-06-08T19:24:51.727Z</time>
      </trkpt>
      <trkpt lat="48.80102" lon="2.47014">
        <ele>90.6</ele>
        <time>2015-06-08T19:24:52.729Z</time>
      </trkpt>
      <trkpt lat="48.80094" lon="2.47019">
        <ele>90.9</ele>
        <time>2015-06-08T19:24:53.738Z</time>
      </trkpt>
      <trkpt lat="48.80087" lon="2.47025">
        <ele>91.4</ele>
        <time>2015-06-08T19:24:54.748Z</time>
      </trkpt>
      <trkpt lat="48.8008" lon="2.47028">
        <ele>91.3</ele>
        <time>2015-06-08T19:24:55.754Z</time>
      </trkpt>
      <trkpt lat="48.80073" lon="2.47032">
        <ele>91.2</ele>
        <time>2015-06-08T19:24:56.783Z</time>
      </trkpt>
      <trkpt lat="48.80067" lon="2.47033">
        <ele>91</ele>
        <time>2015-06-08T19:24:57.784Z</time>
      </trkpt>
      <trkpt lat="48.80059" lon="2.47036">
        <ele>91.1</ele>
        <time>2015-06-08T19:24:58.791Z</time>
      </trkpt>
      <trkpt lat="48.80052" lon="2.47038">
        <ele>91.2</ele>
        <time>2015-06-08T19:24:59.698Z</time>
      </trkpt>
      <trkpt lat="48.80045" lon="2.4704">
        <ele>91</ele>
        <time>2015-06-08T19:25:00.723Z</time>
      </trkpt>
      <trkpt lat="48.80038" lon="2.47044">
        <ele>90.4</ele>
        <time>2015-06-08T19:25:01.767Z</time>
      </trkpt>
      <trkpt lat="48.80031" lon="2.47048">
        <ele>90</ele>
        <time>2015-06-08T19:25:02.857Z</time>
      </trkpt>
      <trkpt lat="48.80024" lon="2.47052">
        <ele>89.7</ele>
        <time>2015-06-08T19:25:03.754Z</time>
      </trkpt>
      <trkpt lat="48.80016" lon="2.47056">
        <ele>89.4</ele>
        <time>2015-06-08T19:25:04.753Z</time>
      </trkpt>
      <trkpt lat="48.80009" lon="2.4706">
        <ele>89.6</ele>
        <time>2015-06-08T19:25:05.770Z</time>
      </trkpt>
      <trkpt lat="48.80001" lon="2.47064">
        <ele>90</ele>
        <time>2015-06-08T19:25:06.789Z</time>
      </trkpt>
      <trkpt lat="48.79993" lon="2.47065">
        <ele>89.8</ele>
        <time>2015-06-08T19:25:07.807Z</time>
      </trkpt>
      <trkpt lat="48.79986" lon="2.47068">
        <ele>89.7</ele>
        <time>2015-06-08T19:25:08.843Z</time>
      </trkpt>
      <trkpt lat="48.79978" lon="2.47072">
        <ele>89.8</ele>
        <time>2015-06-08T19:25:09.726Z</time>
      </trkpt>
      <trkpt lat="48.7997" lon="2.47075">
        <ele>89.8</ele>
        <time>2015-06-08T19:25:10.734Z</time>
      </trkpt>
      <trkpt lat="48.79962" lon="2.47079">
        <ele>89.9</ele>
        <time>2015-06-08T19:25:11.730Z</time>
      </trkpt>
      <trkpt lat="48.79955" lon="2.47083">
        <ele>90.1</ele>
        <time>2015-06-08T19:25:12.734Z</time>
      </trkpt>
      <trkpt lat="48.79949" lon="2.47087">
        <ele>90.1</ele>
        <time>2015-06-08T19:25:13.742Z</time>
      </trkpt>
      <trkpt lat="48.79942" lon="2.4709">
        <ele>90.1</ele>
        <time>2015-06-08T19:25:14.786Z</time>
      </trkpt>
      <trkpt lat="48.79937" lon="2.47094">
        <ele>89.9</ele>
        <time>2015-06-08T19:25:15.729Z</time>
      </trkpt>
      <trkpt lat="48.79932" lon="2.47098">
        <ele>90</ele>
        <time>2015-06-08T19:25:16.715Z</time>
      </trkpt>
      <trkpt lat="48.79927" lon="2.47101">
        <ele>90.3</ele>
        <time>2015-06-08T19:25:17.731Z</time>
      </trkpt>
      <trkpt lat="48.79922" lon="2.47103">
        <ele>90.5</ele>
        <time>2015-06-08T19:25:18.737Z</time>
      </trkpt>
      <trkpt lat="48.79917" lon="2.47107">
        <ele>90.8</ele>
        <time>2015-06-08T19:25:19.752Z</time>
      </trkpt>
      <trkpt lat="48.79912" lon="2.47109">
        <ele>90.8</ele>
        <time>2015-06-08T19:25:20.769Z</time>
      </trkpt>
      <trkpt lat="48.79904" lon="2.47113">
        <ele>90.1</ele>
        <time>2015-06-08T19:25:22.792Z</time>
      </trkpt>
      <trkpt lat="48.799" lon="2.47113">
        <ele>90.2</ele>
        <time>2015-06-08T19:25:23.746Z</time>
      </trkpt>
      <trkpt lat="48.79892" lon="2.47116">
        <ele>90.1</ele>
        <time>2015-06-08T19:25:25.774Z</time>
      </trkpt>
      <trkpt lat="48.79888" lon="2.47117">
        <ele>89.8</ele>
        <time>2015-06-08T19:25:26.812Z</time>
      </trkpt>
      <trkpt lat="48.79879" lon="2.4712">
        <ele>89.3</ele>
        <time>2015-06-08T19:25:28.740Z</time>
      </trkpt>
      <trkpt lat="48.79875" lon="2.47122">
        <ele>89.3</ele>
        <time>2015-06-08T19:25:29.747Z</time>
      </trkpt>
      <trkpt lat="48.7987" lon="2.47124">
        <ele>89.4</ele>
        <time>2015-06-08T19:25:30.733Z</time>
      </trkpt>
      <trkpt lat="48.79865" lon="2.47125">
        <ele>89.3</ele>
        <time>2015-06-08T19:25:31.734Z</time>
      </trkpt>
      <trkpt lat="48.7986" lon="2.47127">
        <ele>89.1</ele>
        <time>2015-06-08T19:25:32.769Z</time>
      </trkpt>
      <trkpt lat="48.79854" lon="2.47128">
        <ele>89.2</ele>
        <time>2015-06-08T19:25:33.779Z</time>
      </trkpt>
      <trkpt lat="48.79849" lon="2.47129">
        <ele>89.4</ele>
        <time>2015-06-08T19:25:34.789Z</time>
      </trkpt>
      <trkpt lat="48.79844" lon="2.4713">
        <ele>89.6</ele>
        <time>2015-06-08T19:25:35.724Z</time>
      </trkpt>
      <trkpt lat="48.79838" lon="2.47131">
        <ele>89.7</ele>
        <time>2015-06-08T19:25:36.723Z</time>
      </trkpt>
      <trkpt lat="48.79833" lon="2.47132">
        <ele>89.7</ele>
        <time>2015-06-08T19:25:37.744Z</time>
      </trkpt>
      <trkpt lat="48.79828" lon="2.47133">
        <ele>89.7</ele>
        <time>2015-06-08T19:25:38.858Z</time>
      </trkpt>
      <trkpt lat="48.79823" lon="2.47134">
        <ele>89.6</ele>
        <time>2015-06-08T19:25:39.862Z</time>
      </trkpt>
      <trkpt lat="48.79818" lon="2.47135">
        <ele>89.6</ele>
        <time>2015-06-08T19:25:40.727Z</time>
      </trkpt>
      <trkpt lat="48.79812" lon="2.47136">
        <ele>89.4</ele>
        <time>2015-06-08T19:25:41.746Z</time>
      </trkpt>
      <trkpt lat="48.79807" lon="2.47136">
        <ele>89.3</ele>
        <time>2015-06-08T19:25:42.873Z</time>
      </trkpt>
      <trkpt lat="48.79802" lon="2.47137">
        <ele>89.2</ele>
        <time>2015-06-08T19:25:43.759Z</time>
      </trkpt>
      <trkpt lat="48.79797" lon="2.47137">
        <ele>89.4</ele>
        <time>2015-06-08T19:25:44.790Z</time>
      </trkpt>
      <trkpt lat="48.79792" lon="2.47137">
        <ele>89.5</ele>
        <time>2015-06-08T19:25:45.824Z</time>
      </trkpt>
      <trkpt lat="48.79787" lon="2.47138">
        <ele>89.2</ele>
        <time>2015-06-08T19:25:46.724Z</time>
      </trkpt>
      <trkpt lat="48.79782" lon="2.47138">
        <ele>88.9</ele>
        <time>2015-06-08T19:25:47.732Z</time>
      </trkpt>
      <trkpt lat="48.79777" lon="2.47139">
        <ele>88.4</ele>
        <time>2015-06-08T19:25:48.747Z</time>
      </trkpt>
      <trkpt lat="48.79772" lon="2.4714">
        <ele>88.5</ele>
        <time>2015-06-08T19:25:49.761Z</time>
      </trkpt>
      <trkpt lat="48.79767" lon="2.47141">
        <ele>88.5</ele>
        <time>2015-06-08T19:25:50.780Z</time>
      </trkpt>
      <trkpt lat="48.79762" lon="2.47142">
        <ele>88.2</ele>
        <time>2015-06-08T19:25:51.782Z</time>
      </trkpt>
      <trkpt lat="48.79756" lon="2.47142">
        <ele>88.3</ele>
        <time>2015-06-08T19:25:52.701Z</time>
      </trkpt>
      <trkpt lat="48.79751" lon="2.47143">
        <ele>88.1</ele>
        <time>2015-06-08T19:25:53.778Z</time>
      </trkpt>
      <trkpt lat="48.79746" lon="2.47143">
        <ele>87.9</ele>
        <time>2015-06-08T19:25:54.805Z</time>
      </trkpt>
      <trkpt lat="48.7974" lon="2.47144">
        <ele>88.3</ele>
        <time>2015-06-08T19:25:55.721Z</time>
      </trkpt>
      <trkpt lat="48.79735" lon="2.47146">
        <ele>87.9</ele>
        <time>2015-06-08T19:25:56.816Z</time>
      </trkpt>
      <trkpt lat="48.79729" lon="2.47148">
        <ele>88.7</ele>
        <time>2015-06-08T19:25:57.791Z</time>
      </trkpt>
      <trkpt lat="48.79724" lon="2.47149">
        <ele>89</ele>
        <time>2015-06-08T19:25:58.794Z</time>
      </trkpt>
      <trkpt lat="48.79719" lon="2.4715">
        <ele>89.1</ele>
        <time>2015-06-08T19:25:59.813Z</time>
      </trkpt>
      <trkpt lat="48.79713" lon="2.47152">
        <ele>89.3</ele>
        <time>2015-06-08T19:26:00.730Z</time>
      </trkpt>
      <trkpt lat="48.79707" lon="2.47153">
        <ele>89.4</ele>
        <time>2015-06-08T19:26:01.738Z</time>
      </trkpt>
      <trkpt lat="48.79702" lon="2.47155">
        <ele>89.5</ele>
        <time>2015-06-08T19:26:02.850Z</time>
      </trkpt>
      <trkpt lat="48.79696" lon="2.47156">
        <ele>89.5</ele>
        <time>2015-06-08T19:26:03.824Z</time>
      </trkpt>
      <trkpt lat="48.7969" lon="2.47157">
        <ele>89.3</ele>
        <time>2015-06-08T19:26:04.702Z</time>
      </trkpt>
      <trkpt lat="48.79684" lon="2.47159">
        <ele>89.3</ele>
        <time>2015-06-08T19:26:05.717Z</time>
      </trkpt>
      <trkpt lat="48.79678" lon="2.4716">
        <ele>89.3</ele>
        <time>2015-06-08T19:26:06.746Z</time>
      </trkpt>
      <trkpt lat="48.79671" lon="2.47162">
        <ele>89.3</ele>
        <time>2015-06-08T19:26:07.755Z</time>
      </trkpt>
      <trkpt lat="48.79665" lon="2.47163">
        <ele>89.4</ele>
        <time>2015-06-08T19:26:08.776Z</time>
      </trkpt>
      <trkpt lat="48.79658" lon="2.47165">
        <ele>89.4</ele>
        <time>2015-06-08T19:26:09.777Z</time>
      </trkpt>
      <trkpt lat="48.79652" lon="2.47167">
        <ele>89.5</ele>
        <time>2015-06-08T19:26:10.870Z</time>
      </trkpt>
      <trkpt lat="48.79645" lon="2.47169">
        <ele>89.5</ele>
        <time>2015-06-08T19:26:11.744Z</time>
      </trkpt>
      <trkpt lat="48.79638" lon="2.47172">
        <ele>89.6</ele>
        <time>2015-06-08T19:26:12.816Z</time>
      </trkpt>
      <trkpt lat="48.79632" lon="2.47173">
        <ele>89.8</ele>
        <time>2015-06-08T19:26:13.727Z</time>
      </trkpt>
      <trkpt lat="48.79625" lon="2.47175">
        <ele>89.8</ele>
        <time>2015-06-08T19:26:14.816Z</time>
      </trkpt>
      <trkpt lat="48.79619" lon="2.47176">
        <ele>89.8</ele>
        <time>2015-06-08T19:26:15.781Z</time>
      </trkpt>
      <trkpt lat="48.79612" lon="2.47177">
        <ele>89.8</ele>
        <time>2015-06-08T19:26:16.789Z</time>
      </trkpt>
      <trkpt lat="48.79605" lon="2.47177">
        <ele>89.6</ele>
        <time>2015-06-08T19:26:17.806Z</time>
      </trkpt>
      <trkpt lat="48.79599" lon="2.47177">
        <ele>89.2</ele>
        <time>2015-06-08T19:26:18.718Z</time>
      </trkpt>
      <trkpt lat="48.79592" lon="2.47179">
        <ele>89.2</ele>
        <time>2015-06-08T19:26:19.740Z</time>
      </trkpt>
      <trkpt lat="48.79585" lon="2.4718">
        <ele>89.4</ele>
        <time>2015-06-08T19:26:20.799Z</time>
      </trkpt>
      <trkpt lat="48.79578" lon="2.47182">
        <ele>89.1</ele>
        <time>2015-06-08T19:26:21.727Z</time>
      </trkpt>
      <trkpt lat="48.79571" lon="2.47184">
        <ele>88.8</ele>
        <time>2015-06-08T19:26:22.758Z</time>
      </trkpt>
      <trkpt lat="48.79563" lon="2.47187">
        <ele>88.6</ele>
        <time>2015-06-08T19:26:23.774Z</time>
      </trkpt>
      <trkpt lat="48.79556" lon="2.47189">
        <ele>88.7</ele>
        <time>2015-06-08T19:26:24.734Z</time>
      </trkpt>
      <trkpt lat="48.79549" lon="2.4719">
        <ele>88.7</ele>
        <time>2015-06-08T19:26:25.721Z</time>
      </trkpt>
      <trkpt lat="48.79542" lon="2.47192">
        <ele>88.3</ele>
        <time>2015-06-08T19:26:26.762Z</time>
      </trkpt>
      <trkpt lat="48.79535" lon="2.47195">
        <ele>88.4</ele>
        <time>2015-06-08T19:26:27.764Z</time>
      </trkpt>
      <trkpt lat="48.79529" lon="2.47197">
        <ele>88.3</ele>
        <time>2015-06-08T19:26:28.688Z</time>
      </trkpt>
      <trkpt lat="48.79522" lon="2.47199">
        <ele>88.2</ele>
        <time>2015-06-08T19:26:29.709Z</time>
      </trkpt>
      <trkpt lat="48.79515" lon="2.47202">
        <ele>87.6</ele>
        <time>2015-06-08T19:26:30.715Z</time>
      </trkpt>
      <trkpt lat="48.79509" lon="2.47204">
        <ele>87.7</ele>
        <time>2015-06-08T19:26:31.718Z</time>
      </trkpt>
      <trkpt lat="48.79502" lon="2.47207">
        <ele>87.7</ele>
        <time>2015-06-08T19:26:32.750Z</time>
      </trkpt>
      <trkpt lat="48.79495" lon="2.4721">
        <ele>87.6</ele>
        <time>2015-06-08T19:26:33.762Z</time>
      </trkpt>
      <trkpt lat="48.79488" lon="2.47213">
        <ele>88</ele>
        <time>2015-06-08T19:26:34.778Z</time>
      </trkpt>
      <trkpt lat="48.79481" lon="2.47216">
        <ele>88.1</ele>
        <time>2015-06-08T19:26:35.702Z</time>
      </trkpt>
      <trkpt lat="48.79474" lon="2.47219">
        <ele>88.4</ele>
        <time>2015-06-08T19:26:36.739Z</time>
      </trkpt>
      <trkpt lat="48.79466" lon="2.47222">
        <ele>88.7</ele>
        <time>2015-06-08T19:26:37.780Z</time>
      </trkpt>
      <trkpt lat="48.79458" lon="2.47225">
        <ele>88.8</ele>
        <time>2015-06-08T19:26:38.796Z</time>
      </trkpt>
      <trkpt lat="48.79451" lon="2.47228">
        <ele>89</ele>
        <time>2015-06-08T19:26:39.747Z</time>
      </trkpt>
      <trkpt lat="48.79443" lon="2.47231">
        <ele>89.5</ele>
        <time>2015-06-08T19:26:40.746Z</time>
      </trkpt>
      <trkpt lat="48.79436" lon="2.47234">
        <ele>89.8</ele>
        <time>2015-06-08T19:26:41.757Z</time>
      </trkpt>
      <trkpt lat="48.79429" lon="2.47237">
        <ele>89.9</ele>
        <time>2015-06-08T19:26:42.765Z</time>
      </trkpt>
      <trkpt lat="48.79422" lon="2.4724">
        <ele>90</ele>
        <time>2015-06-08T19:26:43.788Z</time>
      </trkpt>
      <trkpt lat="48.79415" lon="2.47242">
        <ele>90</ele>
        <time>2015-06-08T19:26:44.806Z</time>
      </trkpt>
      <trkpt lat="48.79408" lon="2.47244">
        <ele>89.8</ele>
        <time>2015-06-08T19:26:45.809Z</time>
      </trkpt>
      <trkpt lat="48.79402" lon="2.47246">
        <ele>89.6</ele>
        <time>2015-06-08T19:26:46.723Z</time>
      </trkpt>
      <trkpt lat="48.79395" lon="2.47248">
        <ele>89.9</ele>
        <time>2015-06-08T19:26:47.738Z</time>
      </trkpt>
      <trkpt lat="48.79388" lon="2.47249">
        <ele>90.1</ele>
        <time>2015-06-08T19:26:48.754Z</time>
      </trkpt>
      <trkpt lat="48.7938" lon="2.4725">
        <ele>90.3</ele>
        <time>2015-06-08T19:26:49.765Z</time>
      </trkpt>
      <trkpt lat="48.79373" lon="2.47251">
        <ele>90.4</ele>
        <time>2015-06-08T19:26:50.784Z</time>
      </trkpt>
      <trkpt lat="48.79366" lon="2.47253">
        <ele>90.6</ele>
        <time>2015-06-08T19:26:51.736Z</time>
      </trkpt>
      <trkpt lat="48.7936" lon="2.47255">
        <ele>90</ele>
        <time>2015-06-08T19:26:52.698Z</time>
      </trkpt>
      <trkpt lat="48.79354" lon="2.47256">
        <ele>89.8</ele>
        <time>2015-06-08T19:26:53.725Z</time>
      </trkpt>
      <trkpt lat="48.79348" lon="2.47255">
        <ele>89.4</ele>
        <time>2015-06-08T19:26:54.751Z</time>
      </trkpt>
      <trkpt lat="48.79341" lon="2.47256">
        <ele>89.1</ele>
        <time>2015-06-08T19:26:55.762Z</time>
      </trkpt>
      <trkpt lat="48.79335" lon="2.47255">
        <ele>88.7</ele>
        <time>2015-06-08T19:26:56.779Z</time>
      </trkpt>
      <trkpt lat="48.79329" lon="2.47255">
        <ele>88.6</ele>
        <time>2015-06-08T19:26:57.788Z</time>
      </trkpt>
      <trkpt lat="48.79324" lon="2.47254">
        <ele>88.5</ele>
        <time>2015-06-08T19:26:58.796Z</time>
      </trkpt>
      <trkpt lat="48.79318" lon="2.47253">
        <ele>88.9</ele>
        <time>2015-06-08T19:26:59.804Z</time>
      </trkpt>
      <trkpt lat="48.79313" lon="2.47253">
        <ele>89.1</ele>
        <time>2015-06-08T19:27:00.709Z</time>
      </trkpt>
      <trkpt lat="48.79307" lon="2.47253">
        <ele>89.3</ele>
        <time>2015-06-08T19:27:01.737Z</time>
      </trkpt>
      <trkpt lat="48.79301" lon="2.47253">
        <ele>89.1</ele>
        <time>2015-06-08T19:27:02.789Z</time>
      </trkpt>
      <trkpt lat="48.79296" lon="2.47253">
        <ele>89.1</ele>
        <time>2015-06-08T19:27:03.792Z</time>
      </trkpt>
      <trkpt lat="48.79291" lon="2.47253">
        <ele>89.1</ele>
        <time>2015-06-08T19:27:04.731Z</time>
      </trkpt>
      <trkpt lat="48.79285" lon="2.47253">
        <ele>89.2</ele>
        <time>2015-06-08T19:27:05.734Z</time>
      </trkpt>
      <trkpt lat="48.79279" lon="2.47253">
        <ele>88.9</ele>
        <time>2015-06-08T19:27:06.724Z</time>
      </trkpt>
      <trkpt lat="48.79273" lon="2.47252">
        <ele>88.9</ele>
        <time>2015-06-08T19:27:07.739Z</time>
      </trkpt>
      <trkpt lat="48.79267" lon="2.47251">
        <ele>88.8</ele>
        <time>2015-06-08T19:27:08.780Z</time>
      </trkpt>
      <trkpt lat="48.79261" lon="2.4725">
        <ele>88.9</ele>
        <time>2015-06-08T19:27:09.796Z</time>
      </trkpt>
      <trkpt lat="48.79255" lon="2.47248">
        <ele>88.9</ele>
        <time>2015-06-08T19:27:10.815Z</time>
      </trkpt>
      <trkpt lat="48.7925" lon="2.47247">
        <ele>88.5</ele>
        <time>2015-06-08T19:27:11.732Z</time>
      </trkpt>
      <trkpt lat="48.79245" lon="2.47247">
        <ele>88.2</ele>
        <time>2015-06-08T19:27:12.725Z</time>
      </trkpt>
      <trkpt lat="48.79239" lon="2.47247">
        <ele>88.1</ele>
        <time>2015-06-08T19:27:13.724Z</time>
      </trkpt>
      <trkpt lat="48.79233" lon="2.47247">
        <ele>88.4</ele>
        <time>2015-06-08T19:27:14.775Z</time>
      </trkpt>
      <trkpt lat="48.79227" lon="2.47246">
        <ele>88.5</ele>
        <time>2015-06-08T19:27:15.768Z</time>
      </trkpt>
      <trkpt lat="48.79222" lon="2.47245">
        <ele>88.3</ele>
        <time>2015-06-08T19:27:16.781Z</time>
      </trkpt>
      <trkpt lat="48.79216" lon="2.47245">
        <ele>88</ele>
        <time>2015-06-08T19:27:17.794Z</time>
      </trkpt>
      <trkpt lat="48.7921" lon="2.47246">
        <ele>88</ele>
        <time>2015-06-08T19:27:18.809Z</time>
      </trkpt>
      <trkpt lat="48.79203" lon="2.47247">
        <ele>88</ele>
        <time>2015-06-08T19:27:19.723Z</time>
      </trkpt>
      <trkpt lat="48.79197" lon="2.47248">
        <ele>88.1</ele>
        <time>2015-06-08T19:27:20.776Z</time>
      </trkpt>
      <trkpt lat="48.7919" lon="2.47249">
        <ele>88.4</ele>
        <time>2015-06-08T19:27:21.788Z</time>
      </trkpt>
      <trkpt lat="48.79184" lon="2.47249">
        <ele>88.4</ele>
        <time>2015-06-08T19:27:22.728Z</time>
      </trkpt>
      <trkpt lat="48.79178" lon="2.47251">
        <ele>88.7</ele>
        <time>2015-06-08T19:27:23.727Z</time>
      </trkpt>
      <trkpt lat="48.79171" lon="2.47252">
        <ele>88.7</ele>
        <time>2015-06-08T19:27:24.745Z</time>
      </trkpt>
      <trkpt lat="48.79165" lon="2.47253">
        <ele>88.7</ele>
        <time>2015-06-08T19:27:25.756Z</time>
      </trkpt>
      <trkpt lat="48.79159" lon="2.47253">
        <ele>88.7</ele>
        <time>2015-06-08T19:27:26.775Z</time>
      </trkpt>
      <trkpt lat="48.79153" lon="2.47253">
        <ele>88.7</ele>
        <time>2015-06-08T19:27:27.770Z</time>
      </trkpt>
      <trkpt lat="48.79147" lon="2.47254">
        <ele>88.7</ele>
        <time>2015-06-08T19:27:28.779Z</time>
      </trkpt>
      <trkpt lat="48.79141" lon="2.47255">
        <ele>88.7</ele>
        <time>2015-06-08T19:27:29.786Z</time>
      </trkpt>
      <trkpt lat="48.79134" lon="2.47255">
        <ele>88.8</ele>
        <time>2015-06-08T19:27:30.741Z</time>
      </trkpt>
      <trkpt lat="48.79128" lon="2.47256">
        <ele>88.8</ele>
        <time>2015-06-08T19:27:31.725Z</time>
      </trkpt>
      <trkpt lat="48.79122" lon="2.47257">
        <ele>88.9</ele>
        <time>2015-06-08T19:27:32.779Z</time>
      </trkpt>
      <trkpt lat="48.79116" lon="2.4726">
        <ele>88.6</ele>
        <time>2015-06-08T19:27:33.779Z</time>
      </trkpt>
      <trkpt lat="48.7911" lon="2.47263">
        <ele>88.6</ele>
        <time>2015-06-08T19:27:34.796Z</time>
      </trkpt>
      <trkpt lat="48.79104" lon="2.47265">
        <ele>88.5</ele>
        <time>2015-06-08T19:27:35.805Z</time>
      </trkpt>
      <trkpt lat="48.79098" lon="2.47267">
        <ele>88.7</ele>
        <time>2015-06-08T19:27:36.723Z</time>
      </trkpt>
      <trkpt lat="48.79092" lon="2.4727">
        <ele>89</ele>
        <time>2015-06-08T19:27:37.726Z</time>
      </trkpt>
      <trkpt lat="48.79086" lon="2.47272">
        <ele>89.1</ele>
        <time>2015-06-08T19:27:38.777Z</time>
      </trkpt>
      <trkpt lat="48.79081" lon="2.47276">
        <ele>89.1</ele>
        <time>2015-06-08T19:27:39.778Z</time>
      </trkpt>
      <trkpt lat="48.79076" lon="2.47281">
        <ele>88.8</ele>
        <time>2015-06-08T19:27:40.814Z</time>
      </trkpt>
      <trkpt lat="48.7907" lon="2.47286">
        <ele>88.5</ele>
        <time>2015-06-08T19:27:41.752Z</time>
      </trkpt>
      <trkpt lat="48.79064" lon="2.47291">
        <ele>88.7</ele>
        <time>2015-06-08T19:27:42.865Z</time>
      </trkpt>
      <trkpt lat="48.79059" lon="2.47296">
        <ele>88.7</ele>
        <time>2015-06-08T19:27:43.800Z</time>
      </trkpt>
      <trkpt lat="48.79054" lon="2.473">
        <ele>88.8</ele>
        <time>2015-06-08T19:27:44.814Z</time>
      </trkpt>
      <trkpt lat="48.7905" lon="2.47304">
        <ele>88.7</ele>
        <time>2015-06-08T19:27:45.712Z</time>
      </trkpt>
      <trkpt lat="48.79045" lon="2.47309">
        <ele>88.2</ele>
        <time>2015-06-08T19:27:46.725Z</time>
      </trkpt>
      <trkpt lat="48.7904" lon="2.47313">
        <ele>88</ele>
        <time>2015-06-08T19:27:47.723Z</time>
      </trkpt>
      <trkpt lat="48.79034" lon="2.47317">
        <ele>87.5</ele>
        <time>2015-06-08T19:27:48.748Z</time>
      </trkpt>
      <trkpt lat="48.79028" lon="2.4732">
        <ele>87.5</ele>
        <time>2015-06-08T19:27:49.763Z</time>
      </trkpt>
      <trkpt lat="48.79023" lon="2.47324">
        <ele>87.5</ele>
        <time>2015-06-08T19:27:50.789Z</time>
      </trkpt>
      <trkpt lat="48.79018" lon="2.47329">
        <ele>87.1</ele>
        <time>2015-06-08T19:27:51.793Z</time>
      </trkpt>
      <trkpt lat="48.79013" lon="2.47334">
        <ele>87.1</ele>
        <time>2015-06-08T19:27:52.803Z</time>
      </trkpt>
      <trkpt lat="48.79008" lon="2.47339">
        <ele>86.7</ele>
        <time>2015-06-08T19:27:53.734Z</time>
      </trkpt>
      <trkpt lat="48.79003" lon="2.47344">
        <ele>86.2</ele>
        <time>2015-06-08T19:27:54.730Z</time>
      </trkpt>
      <trkpt lat="48.78999" lon="2.47349">
        <ele>86.4</ele>
        <time>2015-06-08T19:27:55.737Z</time>
      </trkpt>
      <trkpt lat="48.78994" lon="2.47354">
        <ele>86.7</ele>
        <time>2015-06-08T19:27:56.796Z</time>
      </trkpt>
      <trkpt lat="48.78989" lon="2.47359">
        <ele>87.2</ele>
        <time>2015-06-08T19:27:57.788Z</time>
      </trkpt>
      <trkpt lat="48.78984" lon="2.47364">
        <ele>87.1</ele>
        <time>2015-06-08T19:27:58.799Z</time>
      </trkpt>
      <trkpt lat="48.78978" lon="2.47369">
        <ele>87.3</ele>
        <time>2015-06-08T19:27:59.809Z</time>
      </trkpt>
      <trkpt lat="48.78973" lon="2.47374">
        <ele>87.1</ele>
        <time>2015-06-08T19:28:00.703Z</time>
      </trkpt>
      <trkpt lat="48.78968" lon="2.4738">
        <ele>87.1</ele>
        <time>2015-06-08T19:28:01.732Z</time>
      </trkpt>
      <trkpt lat="48.78962" lon="2.47385">
        <ele>86.8</ele>
        <time>2015-06-08T19:28:02.795Z</time>
      </trkpt>
      <trkpt lat="48.78957" lon="2.4739">
        <ele>86.9</ele>
        <time>2015-06-08T19:28:03.793Z</time>
      </trkpt>
      <trkpt lat="48.78952" lon="2.47394">
        <ele>87.1</ele>
        <time>2015-06-08T19:28:04.729Z</time>
      </trkpt>
      <trkpt lat="48.78948" lon="2.47399">
        <ele>87.1</ele>
        <time>2015-06-08T19:28:05.723Z</time>
      </trkpt>
      <trkpt lat="48.78943" lon="2.47403">
        <ele>87.1</ele>
        <time>2015-06-08T19:28:06.730Z</time>
      </trkpt>
      <trkpt lat="48.78938" lon="2.47408">
        <ele>86.8</ele>
        <time>2015-06-08T19:28:07.735Z</time>
      </trkpt>
      <trkpt lat="48.78933" lon="2.47412">
        <ele>86.8</ele>
        <time>2015-06-08T19:28:08.773Z</time>
      </trkpt>
      <trkpt lat="48.78929" lon="2.47418">
        <ele>87.3</ele>
        <time>2015-06-08T19:28:09.782Z</time>
      </trkpt>
      <trkpt lat="48.78924" lon="2.47423">
        <ele>87.1</ele>
        <time>2015-06-08T19:28:10.791Z</time>
      </trkpt>
      <trkpt lat="48.78919" lon="2.47428">
        <ele>86.7</ele>
        <time>2015-06-08T19:28:11.814Z</time>
      </trkpt>
      <trkpt lat="48.78914" lon="2.47432">
        <ele>86.6</ele>
        <time>2015-06-08T19:28:12.729Z</time>
      </trkpt>
      <trkpt lat="48.78909" lon="2.47436">
        <ele>86.6</ele>
        <time>2015-06-08T19:28:13.729Z</time>
      </trkpt>
      <trkpt lat="48.78903" lon="2.47439">
        <ele>86.7</ele>
        <time>2015-06-08T19:28:14.818Z</time>
      </trkpt>
      <trkpt lat="48.78897" lon="2.47443">
        <ele>86.6</ele>
        <time>2015-06-08T19:28:15.761Z</time>
      </trkpt>
      <trkpt lat="48.78891" lon="2.4745">
        <ele>87</ele>
        <time>2015-06-08T19:28:16.744Z</time>
      </trkpt>
      <trkpt lat="48.78886" lon="2.47456">
        <ele>87</ele>
        <time>2015-06-08T19:28:17.751Z</time>
      </trkpt>
      <trkpt lat="48.7888" lon="2.47462">
        <ele>86.8</ele>
        <time>2015-06-08T19:28:18.755Z</time>
      </trkpt>
      <trkpt lat="48.78874" lon="2.47468">
        <ele>86.8</ele>
        <time>2015-06-08T19:28:19.764Z</time>
      </trkpt>
      <trkpt lat="48.78868" lon="2.47476">
        <ele>86.7</ele>
        <time>2015-06-08T19:28:20.786Z</time>
      </trkpt>
      <trkpt lat="48.78862" lon="2.47483">
        <ele>86.4</ele>
        <time>2015-06-08T19:28:21.794Z</time>
      </trkpt>
      <trkpt lat="48.78857" lon="2.47489">
        <ele>86.6</ele>
        <time>2015-06-08T19:28:22.817Z</time>
      </trkpt>
      <trkpt lat="48.78852" lon="2.47495">
        <ele>86.8</ele>
        <time>2015-06-08T19:28:23.736Z</time>
      </trkpt>
      <trkpt lat="48.78846" lon="2.47501">
        <ele>86.7</ele>
        <time>2015-06-08T19:28:24.758Z</time>
      </trkpt>
      <trkpt lat="48.78841" lon="2.47507">
        <ele>86.3</ele>
        <time>2015-06-08T19:28:25.770Z</time>
      </trkpt>
      <trkpt lat="48.78836" lon="2.47514">
        <ele>85.3</ele>
        <time>2015-06-08T19:28:26.797Z</time>
      </trkpt>
      <trkpt lat="48.78831" lon="2.47519">
        <ele>85.3</ele>
        <time>2015-06-08T19:28:27.806Z</time>
      </trkpt>
      <trkpt lat="48.78826" lon="2.47524">
        <ele>85.7</ele>
        <time>2015-06-08T19:28:28.812Z</time>
      </trkpt>
      <trkpt lat="48.78821" lon="2.4753">
        <ele>85.8</ele>
        <time>2015-06-08T19:28:29.733Z</time>
      </trkpt>
      <trkpt lat="48.78817" lon="2.47536">
        <ele>85.8</ele>
        <time>2015-06-08T19:28:30.751Z</time>
      </trkpt>
      <trkpt lat="48.78813" lon="2.4754">
        <ele>86.1</ele>
        <time>2015-06-08T19:28:31.768Z</time>
      </trkpt>
      <trkpt lat="48.78808" lon="2.47546">
        <ele>86.5</ele>
        <time>2015-06-08T19:28:32.825Z</time>
      </trkpt>
      <trkpt lat="48.78804" lon="2.47551">
        <ele>86.6</ele>
        <time>2015-06-08T19:28:33.726Z</time>
      </trkpt>
      <trkpt lat="48.78798" lon="2.47561">
        <ele>86.9</ele>
        <time>2015-06-08T19:28:35.744Z</time>
      </trkpt>
      <trkpt lat="48.78796" lon="2.47565">
        <ele>87</ele>
        <time>2015-06-08T19:28:36.823Z</time>
      </trkpt>
      <trkpt lat="48.7879" lon="2.47572">
        <ele>86.5</ele>
        <time>2015-06-08T19:28:38.797Z</time>
      </trkpt>
      <trkpt lat="48.78788" lon="2.47577">
        <ele>86.2</ele>
        <time>2015-06-08T19:28:39.762Z</time>
      </trkpt>
      <trkpt lat="48.78784" lon="2.47581">
        <ele>86.5</ele>
        <time>2015-06-08T19:28:40.775Z</time>
      </trkpt>
      <trkpt lat="48.7878" lon="2.47586">
        <ele>86.8</ele>
        <time>2015-06-08T19:28:41.791Z</time>
      </trkpt>
      <trkpt lat="48.78776" lon="2.47592">
        <ele>87.1</ele>
        <time>2015-06-08T19:28:42.727Z</time>
      </trkpt>
      <trkpt lat="48.78772" lon="2.47598">
        <ele>87.3</ele>
        <time>2015-06-08T19:28:43.726Z</time>
      </trkpt>
      <trkpt lat="48.78769" lon="2.47605">
        <ele>87.5</ele>
        <time>2015-06-08T19:28:44.779Z</time>
      </trkpt>
      <trkpt lat="48.78766" lon="2.47612">
        <ele>87.8</ele>
        <time>2015-06-08T19:28:45.783Z</time>
      </trkpt>
      <trkpt lat="48.78762" lon="2.47619">
        <ele>87.8</ele>
        <time>2015-06-08T19:28:46.803Z</time>
      </trkpt>
      <trkpt lat="48.78759" lon="2.47626">
        <ele>88</ele>
        <time>2015-06-08T19:28:47.721Z</time>
      </trkpt>
      <trkpt lat="48.78756" lon="2.47633">
        <ele>88.1</ele>
        <time>2015-06-08T19:28:48.747Z</time>
      </trkpt>
      <trkpt lat="48.78754" lon="2.47639">
        <ele>89.1</ele>
        <time>2015-06-08T19:28:49.851Z</time>
      </trkpt>
      <trkpt lat="48.78751" lon="2.47646">
        <ele>89.5</ele>
        <time>2015-06-08T19:28:50.778Z</time>
      </trkpt>
      <trkpt lat="48.78748" lon="2.47654">
        <ele>89.2</ele>
        <time>2015-06-08T19:28:51.767Z</time>
      </trkpt>
      <trkpt lat="48.78745" lon="2.47662">
        <ele>89.3</ele>
        <time>2015-06-08T19:28:52.779Z</time>
      </trkpt>
      <trkpt lat="48.78741" lon="2.4767">
        <ele>89.2</ele>
        <time>2015-06-08T19:28:53.793Z</time>
      </trkpt>
      <trkpt lat="48.78738" lon="2.47678">
        <ele>88.8</ele>
        <time>2015-06-08T19:28:54.803Z</time>
      </trkpt>
      <trkpt lat="48.78734" lon="2.47686">
        <ele>88.5</ele>
        <time>2015-06-08T19:28:55.814Z</time>
      </trkpt>
      <trkpt lat="48.78731" lon="2.47694">
        <ele>88.1</ele>
        <time>2015-06-08T19:28:56.854Z</time>
      </trkpt>
      <trkpt lat="48.78728" lon="2.47702">
        <ele>87.8</ele>
        <time>2015-06-08T19:28:57.733Z</time>
      </trkpt>
      <trkpt lat="48.78724" lon="2.47709">
        <ele>87.6</ele>
        <time>2015-06-08T19:28:58.758Z</time>
      </trkpt>
      <trkpt lat="48.78722" lon="2.47716">
        <ele>87.4</ele>
        <time>2015-06-08T19:28:59.779Z</time>
      </trkpt>
      <trkpt lat="48.78719" lon="2.47725">
        <ele>87</ele>
        <time>2015-06-08T19:29:00.709Z</time>
      </trkpt>
      <trkpt lat="48.78716" lon="2.47733">
        <ele>86.8</ele>
        <time>2015-06-08T19:29:01.737Z</time>
      </trkpt>
      <trkpt lat="48.78712" lon="2.47741">
        <ele>86.7</ele>
        <time>2015-06-08T19:29:02.792Z</time>
      </trkpt>
      <trkpt lat="48.7871" lon="2.47749">
        <ele>86.6</ele>
        <time>2015-06-08T19:29:03.689Z</time>
      </trkpt>
      <trkpt lat="48.78707" lon="2.47758">
        <ele>86.7</ele>
        <time>2015-06-08T19:29:04.713Z</time>
      </trkpt>
      <trkpt lat="48.78704" lon="2.47768">
        <ele>86.8</ele>
        <time>2015-06-08T19:29:05.721Z</time>
      </trkpt>
      <trkpt lat="48.78702" lon="2.47776">
        <ele>86.5</ele>
        <time>2015-06-08T19:29:06.733Z</time>
      </trkpt>
      <trkpt lat="48.78698" lon="2.47785">
        <ele>86.5</ele>
        <time>2015-06-08T19:29:07.739Z</time>
      </trkpt>
      <trkpt lat="48.78695" lon="2.47792">
        <ele>86.6</ele>
        <time>2015-06-08T19:29:08.746Z</time>
      </trkpt>
      <trkpt lat="48.78692" lon="2.47801">
        <ele>86.6</ele>
        <time>2015-06-08T19:29:09.753Z</time>
      </trkpt>
      <trkpt lat="48.78689" lon="2.47809">
        <ele>86.4</ele>
        <time>2015-06-08T19:29:10.763Z</time>
      </trkpt>
      <trkpt lat="48.78685" lon="2.47817">
        <ele>86.2</ele>
        <time>2015-06-08T19:29:11.778Z</time>
      </trkpt>
      <trkpt lat="48.78682" lon="2.47825">
        <ele>85.8</ele>
        <time>2015-06-08T19:29:12.779Z</time>
      </trkpt>
      <trkpt lat="48.78679" lon="2.47834">
        <ele>86</ele>
        <time>2015-06-08T19:29:13.793Z</time>
      </trkpt>
      <trkpt lat="48.78676" lon="2.47843">
        <ele>86.2</ele>
        <time>2015-06-08T19:29:14.815Z</time>
      </trkpt>
      <trkpt lat="48.78673" lon="2.47851">
        <ele>85.9</ele>
        <time>2015-06-08T19:29:15.719Z</time>
      </trkpt>
      <trkpt lat="48.78669" lon="2.4786">
        <ele>86</ele>
        <time>2015-06-08T19:29:16.714Z</time>
      </trkpt>
      <trkpt lat="48.78666" lon="2.47869">
        <ele>85.8</ele>
        <time>2015-06-08T19:29:17.782Z</time>
      </trkpt>
      <trkpt lat="48.78662" lon="2.47878">
        <ele>85.5</ele>
        <time>2015-06-08T19:29:18.728Z</time>
      </trkpt>
      <trkpt lat="48.78659" lon="2.47887">
        <ele>85.8</ele>
        <time>2015-06-08T19:29:19.734Z</time>
      </trkpt>
      <trkpt lat="48.78656" lon="2.47895">
        <ele>86</ele>
        <time>2015-06-08T19:29:20.797Z</time>
      </trkpt>
      <trkpt lat="48.78653" lon="2.47903">
        <ele>86.4</ele>
        <time>2015-06-08T19:29:21.812Z</time>
      </trkpt>
      <trkpt lat="48.78649" lon="2.47912">
        <ele>86.1</ele>
        <time>2015-06-08T19:29:22.739Z</time>
      </trkpt>
      <trkpt lat="48.78647" lon="2.47921">
        <ele>86.6</ele>
        <time>2015-06-08T19:29:23.760Z</time>
      </trkpt>
      <trkpt lat="48.78645" lon="2.47928">
        <ele>86.8</ele>
        <time>2015-06-08T19:29:24.768Z</time>
      </trkpt>
      <trkpt lat="48.78642" lon="2.47936">
        <ele>87.1</ele>
        <time>2015-06-08T19:29:25.775Z</time>
      </trkpt>
      <trkpt lat="48.78639" lon="2.47944">
        <ele>87.7</ele>
        <time>2015-06-08T19:29:26.819Z</time>
      </trkpt>
      <trkpt lat="48.78636" lon="2.47952">
        <ele>87.8</ele>
        <time>2015-06-08T19:29:27.763Z</time>
      </trkpt>
      <trkpt lat="48.78632" lon="2.47962">
        <ele>88.1</ele>
        <time>2015-06-08T19:29:28.753Z</time>
      </trkpt>
      <trkpt lat="48.7863" lon="2.47972">
        <ele>88.4</ele>
        <time>2015-06-08T19:29:29.741Z</time>
      </trkpt>
      <trkpt lat="48.78627" lon="2.47981">
        <ele>88.5</ele>
        <time>2015-06-08T19:29:30.742Z</time>
      </trkpt>
      <trkpt lat="48.78625" lon="2.4799">
        <ele>88.6</ele>
        <time>2015-06-08T19:29:31.747Z</time>
      </trkpt>
      <trkpt lat="48.78622" lon="2.47999">
        <ele>88.3</ele>
        <time>2015-06-08T19:29:32.793Z</time>
      </trkpt>
      <trkpt lat="48.7862" lon="2.48009">
        <ele>88.3</ele>
        <time>2015-06-08T19:29:33.794Z</time>
      </trkpt>
      <trkpt lat="48.78617" lon="2.48018">
        <ele>88.4</ele>
        <time>2015-06-08T19:29:34.707Z</time>
      </trkpt>
      <trkpt lat="48.78615" lon="2.48026">
        <ele>88.3</ele>
        <time>2015-06-08T19:29:35.710Z</time>
      </trkpt>
      <trkpt lat="48.78613" lon="2.48034">
        <ele>88.5</ele>
        <time>2015-06-08T19:29:36.848Z</time>
      </trkpt>
      <trkpt lat="48.7861" lon="2.48044">
        <ele>88.5</ele>
        <time>2015-06-08T19:29:37.735Z</time>
      </trkpt>
      <trkpt lat="48.78608" lon="2.48053">
        <ele>88.6</ele>
        <time>2015-06-08T19:29:38.758Z</time>
      </trkpt>
      <trkpt lat="48.78606" lon="2.48063">
        <ele>89</ele>
        <time>2015-06-08T19:29:39.755Z</time>
      </trkpt>
      <trkpt lat="48.78603" lon="2.48071">
        <ele>88.9</ele>
        <time>2015-06-08T19:29:40.765Z</time>
      </trkpt>
      <trkpt lat="48.78599" lon="2.48081">
        <ele>89.1</ele>
        <time>2015-06-08T19:29:41.779Z</time>
      </trkpt>
      <trkpt lat="48.78597" lon="2.48089">
        <ele>89.1</ele>
        <time>2015-06-08T19:29:42.801Z</time>
      </trkpt>
      <trkpt lat="48.78594" lon="2.48098">
        <ele>88.8</ele>
        <time>2015-06-08T19:29:43.775Z</time>
      </trkpt>
      <trkpt lat="48.78592" lon="2.48108">
        <ele>88.3</ele>
        <time>2015-06-08T19:29:44.777Z</time>
      </trkpt>
      <trkpt lat="48.7859" lon="2.48116">
        <ele>88.3</ele>
        <time>2015-06-08T19:29:45.768Z</time>
      </trkpt>
      <trkpt lat="48.78589" lon="2.48124">
        <ele>88.4</ele>
        <time>2015-06-08T19:29:46.799Z</time>
      </trkpt>
      <trkpt lat="48.78589" lon="2.48132">
        <ele>89.4</ele>
        <time>2015-06-08T19:29:47.745Z</time>
      </trkpt>
      <trkpt lat="48.78586" lon="2.4814">
        <ele>89.6</ele>
        <time>2015-06-08T19:29:48.735Z</time>
      </trkpt>
      <trkpt lat="48.78585" lon="2.48148">
        <ele>89.6</ele>
        <time>2015-06-08T19:29:49.739Z</time>
      </trkpt>
      <trkpt lat="48.78583" lon="2.48157">
        <ele>89.9</ele>
        <time>2015-06-08T19:29:50.783Z</time>
      </trkpt>
      <trkpt lat="48.78582" lon="2.48165">
        <ele>89.9</ele>
        <time>2015-06-08T19:29:51.793Z</time>
      </trkpt>
      <trkpt lat="48.7858" lon="2.48173">
        <ele>90.1</ele>
        <time>2015-06-08T19:29:52.807Z</time>
      </trkpt>
      <trkpt lat="48.78579" lon="2.48183">
        <ele>90.1</ele>
        <time>2015-06-08T19:29:53.821Z</time>
      </trkpt>
      <trkpt lat="48.78578" lon="2.48192">
        <ele>89.8</ele>
        <time>2015-06-08T19:29:54.734Z</time>
      </trkpt>
      <trkpt lat="48.78577" lon="2.48201">
        <ele>89.4</ele>
        <time>2015-06-08T19:29:55.738Z</time>
      </trkpt>
      <trkpt lat="48.78575" lon="2.4821">
        <ele>88.9</ele>
        <time>2015-06-08T19:29:56.804Z</time>
      </trkpt>
      <trkpt lat="48.78573" lon="2.4822">
        <ele>89.1</ele>
        <time>2015-06-08T19:29:57.810Z</time>
      </trkpt>
      <trkpt lat="48.78571" lon="2.4823">
        <ele>89</ele>
        <time>2015-06-08T19:29:58.734Z</time>
      </trkpt>
      <trkpt lat="48.78569" lon="2.4824">
        <ele>89.1</ele>
        <time>2015-06-08T19:29:59.738Z</time>
      </trkpt>
      <trkpt lat="48.78567" lon="2.4825">
        <ele>88.9</ele>
        <time>2015-06-08T19:30:00.735Z</time>
      </trkpt>
      <trkpt lat="48.78565" lon="2.48259">
        <ele>88.9</ele>
        <time>2015-06-08T19:30:01.742Z</time>
      </trkpt>
      <trkpt lat="48.78563" lon="2.48269">
        <ele>88.8</ele>
        <time>2015-06-08T19:30:02.779Z</time>
      </trkpt>
      <trkpt lat="48.78561" lon="2.48277">
        <ele>88.9</ele>
        <time>2015-06-08T19:30:03.785Z</time>
      </trkpt>
      <trkpt lat="48.7856" lon="2.48286">
        <ele>89.1</ele>
        <time>2015-06-08T19:30:04.789Z</time>
      </trkpt>
      <trkpt lat="48.7856" lon="2.48293">
        <ele>89.6</ele>
        <time>2015-06-08T19:30:05.799Z</time>
      </trkpt>
      <trkpt lat="48.78559" lon="2.48302">
        <ele>89.4</ele>
        <time>2015-06-08T19:30:06.725Z</time>
      </trkpt>
      <trkpt lat="48.78557" lon="2.48312">
        <ele>89.4</ele>
        <time>2015-06-08T19:30:07.724Z</time>
      </trkpt>
      <trkpt lat="48.78555" lon="2.48321">
        <ele>89.5</ele>
        <time>2015-06-08T19:30:08.771Z</time>
      </trkpt>
      <trkpt lat="48.78552" lon="2.4833">
        <ele>89.8</ele>
        <time>2015-06-08T19:30:09.781Z</time>
      </trkpt>
      <trkpt lat="48.7855" lon="2.48339">
        <ele>90.1</ele>
        <time>2015-06-08T19:30:10.795Z</time>
      </trkpt>
      <trkpt lat="48.78547" lon="2.48348">
        <ele>90.2</ele>
        <time>2015-06-08T19:30:11.809Z</time>
      </trkpt>
      <trkpt lat="48.78544" lon="2.48357">
        <ele>90.2</ele>
        <time>2015-06-08T19:30:12.730Z</time>
      </trkpt>
      <trkpt lat="48.78542" lon="2.48366">
        <ele>90.2</ele>
        <time>2015-06-08T19:30:13.726Z</time>
      </trkpt>
      <trkpt lat="48.78539" lon="2.48376">
        <ele>89</ele>
        <time>2015-06-08T19:30:14.777Z</time>
      </trkpt>
      <trkpt lat="48.78538" lon="2.48385">
        <ele>90.4</ele>
        <time>2015-06-08T19:30:15.777Z</time>
      </trkpt>
      <trkpt lat="48.78536" lon="2.48395">
        <ele>91.1</ele>
        <time>2015-06-08T19:30:16.784Z</time>
      </trkpt>
      <trkpt lat="48.78533" lon="2.48403">
        <ele>91.5</ele>
        <time>2015-06-08T19:30:17.722Z</time>
      </trkpt>
      <trkpt lat="48.78531" lon="2.48412">
        <ele>91.8</ele>
        <time>2015-06-08T19:30:18.719Z</time>
      </trkpt>
      <trkpt lat="48.78528" lon="2.48421">
        <ele>92.1</ele>
        <time>2015-06-08T19:30:19.714Z</time>
      </trkpt>
      <trkpt lat="48.78525" lon="2.48431">
        <ele>92.2</ele>
        <time>2015-06-08T19:30:20.771Z</time>
      </trkpt>
      <trkpt lat="48.78523" lon="2.48441">
        <ele>92.4</ele>
        <time>2015-06-08T19:30:21.766Z</time>
      </trkpt>
      <trkpt lat="48.78521" lon="2.48451">
        <ele>92.6</ele>
        <time>2015-06-08T19:30:22.772Z</time>
      </trkpt>
      <trkpt lat="48.78518" lon="2.48459">
        <ele>92.5</ele>
        <time>2015-06-08T19:30:23.778Z</time>
      </trkpt>
      <trkpt lat="48.78514" lon="2.48467">
        <ele>92.3</ele>
        <time>2015-06-08T19:30:24.785Z</time>
      </trkpt>
      <trkpt lat="48.7851" lon="2.48476">
        <ele>92.2</ele>
        <time>2015-06-08T19:30:25.789Z</time>
      </trkpt>
      <trkpt lat="48.78506" lon="2.48486">
        <ele>92.3</ele>
        <time>2015-06-08T19:30:26.819Z</time>
      </trkpt>
      <trkpt lat="48.78504" lon="2.48495">
        <ele>92.2</ele>
        <time>2015-06-08T19:30:27.724Z</time>
      </trkpt>
      <trkpt lat="48.78502" lon="2.48504">
        <ele>92.3</ele>
        <time>2015-06-08T19:30:28.726Z</time>
      </trkpt>
      <trkpt lat="48.78499" lon="2.48513">
        <ele>92.1</ele>
        <time>2015-06-08T19:30:29.735Z</time>
      </trkpt>
      <trkpt lat="48.78497" lon="2.48522">
        <ele>92.1</ele>
        <time>2015-06-08T19:30:30.739Z</time>
      </trkpt>
      <trkpt lat="48.78495" lon="2.48531">
        <ele>92.4</ele>
        <time>2015-06-08T19:30:31.746Z</time>
      </trkpt>
      <trkpt lat="48.78492" lon="2.48539">
        <ele>92</ele>
        <time>2015-06-08T19:30:32.788Z</time>
      </trkpt>
      <trkpt lat="48.78491" lon="2.48549">
        <ele>91.8</ele>
        <time>2015-06-08T19:30:33.793Z</time>
      </trkpt>
      <trkpt lat="48.78488" lon="2.48559">
        <ele>91.4</ele>
        <time>2015-06-08T19:30:34.693Z</time>
      </trkpt>
      <trkpt lat="48.78486" lon="2.48567">
        <ele>91.5</ele>
        <time>2015-06-08T19:30:35.742Z</time>
      </trkpt>
      <trkpt lat="48.78483" lon="2.48577">
        <ele>92.8</ele>
        <time>2015-06-08T19:30:36.760Z</time>
      </trkpt>
      <trkpt lat="48.78481" lon="2.48586">
        <ele>93.1</ele>
        <time>2015-06-08T19:30:37.777Z</time>
      </trkpt>
      <trkpt lat="48.78479" lon="2.48594">
        <ele>93.5</ele>
        <time>2015-06-08T19:30:38.776Z</time>
      </trkpt>
      <trkpt lat="48.78478" lon="2.48603">
        <ele>94.8</ele>
        <time>2015-06-08T19:30:39.786Z</time>
      </trkpt>
      <trkpt lat="48.78477" lon="2.48613">
        <ele>96</ele>
        <time>2015-06-08T19:30:40.794Z</time>
      </trkpt>
      <trkpt lat="48.78476" lon="2.4862">
        <ele>95.4</ele>
        <time>2015-06-08T19:30:41.804Z</time>
      </trkpt>
      <trkpt lat="48.78475" lon="2.48629">
        <ele>95.4</ele>
        <time>2015-06-08T19:30:42.814Z</time>
      </trkpt>
      <trkpt lat="48.78474" lon="2.48638">
        <ele>95.1</ele>
        <time>2015-06-08T19:30:43.833Z</time>
      </trkpt>
      <trkpt lat="48.78473" lon="2.48647">
        <ele>94.8</ele>
        <time>2015-06-08T19:30:44.841Z</time>
      </trkpt>
      <trkpt lat="48.78473" lon="2.48657">
        <ele>94</ele>
        <time>2015-06-08T19:30:45.759Z</time>
      </trkpt>
      <trkpt lat="48.78473" lon="2.48665">
        <ele>93.9</ele>
        <time>2015-06-08T19:30:46.743Z</time>
      </trkpt>
      <trkpt lat="48.78473" lon="2.48673">
        <ele>93.8</ele>
        <time>2015-06-08T19:30:47.755Z</time>
      </trkpt>
      <trkpt lat="48.78473" lon="2.48682">
        <ele>93.8</ele>
        <time>2015-06-08T19:30:48.762Z</time>
      </trkpt>
      <trkpt lat="48.78472" lon="2.4869">
        <ele>93.9</ele>
        <time>2015-06-08T19:30:49.770Z</time>
      </trkpt>
      <trkpt lat="48.78471" lon="2.48698">
        <ele>93.7</ele>
        <time>2015-06-08T19:30:50.797Z</time>
      </trkpt>
      <trkpt lat="48.7847" lon="2.48705">
        <ele>93.8</ele>
        <time>2015-06-08T19:30:51.797Z</time>
      </trkpt>
      <trkpt lat="48.78469" lon="2.48712">
        <ele>93.6</ele>
        <time>2015-06-08T19:30:52.821Z</time>
      </trkpt>
      <trkpt lat="48.78468" lon="2.48718">
        <ele>93.2</ele>
        <time>2015-06-08T19:30:53.739Z</time>
      </trkpt>
      <trkpt lat="48.78468" lon="2.48725">
        <ele>92.9</ele>
        <time>2015-06-08T19:30:54.742Z</time>
      </trkpt>
      <trkpt lat="48.78468" lon="2.48733">
        <ele>92.1</ele>
        <time>2015-06-08T19:30:55.744Z</time>
      </trkpt>
      <trkpt lat="48.78467" lon="2.4874">
        <ele>91.7</ele>
        <time>2015-06-08T19:30:56.816Z</time>
      </trkpt>
      <trkpt lat="48.78466" lon="2.48747">
        <ele>91.2</ele>
        <time>2015-06-08T19:30:57.832Z</time>
      </trkpt>
      <trkpt lat="48.78466" lon="2.48755">
        <ele>90.6</ele>
        <time>2015-06-08T19:30:58.744Z</time>
      </trkpt>
      <trkpt lat="48.78465" lon="2.48763">
        <ele>90</ele>
        <time>2015-06-08T19:30:59.743Z</time>
      </trkpt>
      <trkpt lat="48.78465" lon="2.48771">
        <ele>90</ele>
        <time>2015-06-08T19:31:00.769Z</time>
      </trkpt>
      <trkpt lat="48.78465" lon="2.4878">
        <ele>89.8</ele>
        <time>2015-06-08T19:31:01.777Z</time>
      </trkpt>
      <trkpt lat="48.78465" lon="2.48789">
        <ele>89.4</ele>
        <time>2015-06-08T19:31:02.813Z</time>
      </trkpt>
      <trkpt lat="48.78464" lon="2.48798">
        <ele>89.3</ele>
        <time>2015-06-08T19:31:03.707Z</time>
      </trkpt>
      <trkpt lat="48.78464" lon="2.48806">
        <ele>89</ele>
        <time>2015-06-08T19:31:04.735Z</time>
      </trkpt>
      <trkpt lat="48.78464" lon="2.48815">
        <ele>88.8</ele>
        <time>2015-06-08T19:31:05.735Z</time>
      </trkpt>
      <trkpt lat="48.78463" lon="2.48824">
        <ele>88.7</ele>
        <time>2015-06-08T19:31:06.750Z</time>
      </trkpt>
      <trkpt lat="48.78463" lon="2.48833">
        <ele>89</ele>
        <time>2015-06-08T19:31:07.753Z</time>
      </trkpt>
      <trkpt lat="48.78463" lon="2.48842">
        <ele>89.5</ele>
        <time>2015-06-08T19:31:08.773Z</time>
      </trkpt>
      <trkpt lat="48.78463" lon="2.48851">
        <ele>90</ele>
        <time>2015-06-08T19:31:09.782Z</time>
      </trkpt>
      <trkpt lat="48.78463" lon="2.48859">
        <ele>90.1</ele>
        <time>2015-06-08T19:31:10.795Z</time>
      </trkpt>
      <trkpt lat="48.78463" lon="2.48868">
        <ele>90.3</ele>
        <time>2015-06-08T19:31:11.801Z</time>
      </trkpt>
      <trkpt lat="48.78462" lon="2.48876">
        <ele>90.4</ele>
        <time>2015-06-08T19:31:12.819Z</time>
      </trkpt>
      <trkpt lat="48.78463" lon="2.48884">
        <ele>90.3</ele>
        <time>2015-06-08T19:31:13.843Z</time>
      </trkpt>
      <trkpt lat="48.78462" lon="2.48891">
        <ele>90.2</ele>
        <time>2015-06-08T19:31:14.860Z</time>
      </trkpt>
      <trkpt lat="48.78462" lon="2.48898">
        <ele>89.9</ele>
        <time>2015-06-08T19:31:15.753Z</time>
      </trkpt>
      <trkpt lat="48.78461" lon="2.48906">
        <ele>89.7</ele>
        <time>2015-06-08T19:31:16.765Z</time>
      </trkpt>
      <trkpt lat="48.78461" lon="2.48915">
        <ele>89.6</ele>
        <time>2015-06-08T19:31:17.777Z</time>
      </trkpt>
      <trkpt lat="48.7846" lon="2.48923">
        <ele>89.8</ele>
        <time>2015-06-08T19:31:18.787Z</time>
      </trkpt>
      <trkpt lat="48.7846" lon="2.48931">
        <ele>89.7</ele>
        <time>2015-06-08T19:31:19.796Z</time>
      </trkpt>
      <trkpt lat="48.7846" lon="2.48938">
        <ele>89.7</ele>
        <time>2015-06-08T19:31:20.820Z</time>
      </trkpt>
      <trkpt lat="48.78459" lon="2.48945">
        <ele>89.8</ele>
        <time>2015-06-08T19:31:21.762Z</time>
      </trkpt>
      <trkpt lat="48.78459" lon="2.48952">
        <ele>90</ele>
        <time>2015-06-08T19:31:22.755Z</time>
      </trkpt>
      <trkpt lat="48.78461" lon="2.48959">
        <ele>91.2</ele>
        <time>2015-06-08T19:31:23.744Z</time>
      </trkpt>
      <trkpt lat="48.78461" lon="2.48966">
        <ele>91.4</ele>
        <time>2015-06-08T19:31:24.751Z</time>
      </trkpt>
      <trkpt lat="48.78461" lon="2.48974">
        <ele>91.3</ele>
        <time>2015-06-08T19:31:25.769Z</time>
      </trkpt>
      <trkpt lat="48.78461" lon="2.48982">
        <ele>91.4</ele>
        <time>2015-06-08T19:31:26.801Z</time>
      </trkpt>
      <trkpt lat="48.7846" lon="2.4899">
        <ele>91.5</ele>
        <time>2015-06-08T19:31:27.795Z</time>
      </trkpt>
      <trkpt lat="48.78459" lon="2.48998">
        <ele>91.5</ele>
        <time>2015-06-08T19:31:28.809Z</time>
      </trkpt>
      <trkpt lat="48.78459" lon="2.49004">
        <ele>91.4</ele>
        <time>2015-06-08T19:31:29.821Z</time>
      </trkpt>
      <trkpt lat="48.78459" lon="2.49012">
        <ele>91.5</ele>
        <time>2015-06-08T19:31:30.743Z</time>
      </trkpt>
      <trkpt lat="48.78459" lon="2.4902">
        <ele>91.6</ele>
        <time>2015-06-08T19:31:31.742Z</time>
      </trkpt>
      <trkpt lat="48.78459" lon="2.49029">
        <ele>91.3</ele>
        <time>2015-06-08T19:31:32.805Z</time>
      </trkpt>
      <trkpt lat="48.78459" lon="2.49038">
        <ele>91.6</ele>
        <time>2015-06-08T19:31:33.810Z</time>
      </trkpt>
      <trkpt lat="48.78459" lon="2.49046">
        <ele>91.6</ele>
        <time>2015-06-08T19:31:34.819Z</time>
      </trkpt>
      <trkpt lat="48.78459" lon="2.49055">
        <ele>91.7</ele>
        <time>2015-06-08T19:31:35.742Z</time>
      </trkpt>
      <trkpt lat="48.78458" lon="2.49064">
        <ele>91.6</ele>
        <time>2015-06-08T19:31:36.740Z</time>
      </trkpt>
      <trkpt lat="48.78458" lon="2.4907">
        <ele>91.7</ele>
        <time>2015-06-08T19:31:37.742Z</time>
      </trkpt>
      <trkpt lat="48.78458" lon="2.49078">
        <ele>92</ele>
        <time>2015-06-08T19:31:38.799Z</time>
      </trkpt>
      <trkpt lat="48.78459" lon="2.49086">
        <ele>92.2</ele>
        <time>2015-06-08T19:31:39.802Z</time>
      </trkpt>
      <trkpt lat="48.78459" lon="2.49094">
        <ele>92.1</ele>
        <time>2015-06-08T19:31:40.804Z</time>
      </trkpt>
      <trkpt lat="48.78459" lon="2.49102">
        <ele>91.8</ele>
        <time>2015-06-08T19:31:41.811Z</time>
      </trkpt>
      <trkpt lat="48.78459" lon="2.4911">
        <ele>91.8</ele>
        <time>2015-06-08T19:31:42.734Z</time>
      </trkpt>
      <trkpt lat="48.78459" lon="2.49119">
        <ele>91.8</ele>
        <time>2015-06-08T19:31:43.740Z</time>
      </trkpt>
      <trkpt lat="48.78459" lon="2.49126">
        <ele>91.9</ele>
        <time>2015-06-08T19:31:44.797Z</time>
      </trkpt>
      <trkpt lat="48.78459" lon="2.49134">
        <ele>91.7</ele>
        <time>2015-06-08T19:31:45.805Z</time>
      </trkpt>
      <trkpt lat="48.78459" lon="2.49142">
        <ele>91.7</ele>
        <time>2015-06-08T19:31:46.818Z</time>
      </trkpt>
      <trkpt lat="48.78458" lon="2.49149">
        <ele>91.6</ele>
        <time>2015-06-08T19:31:47.819Z</time>
      </trkpt>
      <trkpt lat="48.78458" lon="2.49159">
        <ele>90.5</ele>
        <time>2015-06-08T19:31:48.743Z</time>
      </trkpt>
      <trkpt lat="48.78459" lon="2.49167">
        <ele>90.6</ele>
        <time>2015-06-08T19:31:49.743Z</time>
      </trkpt>
      <trkpt lat="48.78461" lon="2.49179">
        <ele>90.8</ele>
        <time>2015-06-08T19:31:51.759Z</time>
      </trkpt>
      <trkpt lat="48.78462" lon="2.49187">
        <ele>90.9</ele>
        <time>2015-06-08T19:31:52.743Z</time>
      </trkpt>
      <trkpt lat="48.78463" lon="2.49195">
        <ele>91.1</ele>
        <time>2015-06-08T19:31:53.748Z</time>
      </trkpt>
      <trkpt lat="48.78463" lon="2.49203">
        <ele>91.1</ele>
        <time>2015-06-08T19:31:54.767Z</time>
      </trkpt>
      <trkpt lat="48.78463" lon="2.49212">
        <ele>91.2</ele>
        <time>2015-06-08T19:31:55.753Z</time>
      </trkpt>
      <trkpt lat="48.78463" lon="2.49221">
        <ele>91.1</ele>
        <time>2015-06-08T19:31:56.838Z</time>
      </trkpt>
      <trkpt lat="48.78462" lon="2.4923">
        <ele>91.3</ele>
        <time>2015-06-08T19:31:57.745Z</time>
      </trkpt>
      <trkpt lat="48.78461" lon="2.49238">
        <ele>91.5</ele>
        <time>2015-06-08T19:31:58.749Z</time>
      </trkpt>
      <trkpt lat="48.78461" lon="2.49247">
        <ele>91.6</ele>
        <time>2015-06-08T19:31:59.757Z</time>
      </trkpt>
      <trkpt lat="48.78461" lon="2.49256">
        <ele>91.5</ele>
        <time>2015-06-08T19:32:00.761Z</time>
      </trkpt>
      <trkpt lat="48.78461" lon="2.49265">
        <ele>91.4</ele>
        <time>2015-06-08T19:32:01.774Z</time>
      </trkpt>
      <trkpt lat="48.78461" lon="2.49274">
        <ele>91.6</ele>
        <time>2015-06-08T19:32:02.854Z</time>
      </trkpt>
      <trkpt lat="48.78462" lon="2.49284">
        <ele>92</ele>
        <time>2015-06-08T19:32:03.737Z</time>
      </trkpt>
      <trkpt lat="48.78463" lon="2.49293">
        <ele>92.2</ele>
        <time>2015-06-08T19:32:04.738Z</time>
      </trkpt>
      <trkpt lat="48.78464" lon="2.49304">
        <ele>92.3</ele>
        <time>2015-06-08T19:32:05.740Z</time>
      </trkpt>
      <trkpt lat="48.78465" lon="2.49313">
        <ele>92.5</ele>
        <time>2015-06-08T19:32:06.750Z</time>
      </trkpt>
      <trkpt lat="48.78467" lon="2.49322">
        <ele>92.7</ele>
        <time>2015-06-08T19:32:07.758Z</time>
      </trkpt>
      <trkpt lat="48.78469" lon="2.49331">
        <ele>92.7</ele>
        <time>2015-06-08T19:32:08.816Z</time>
      </trkpt>
      <trkpt lat="48.7847" lon="2.4934">
        <ele>92.7</ele>
        <time>2015-06-08T19:32:09.742Z</time>
      </trkpt>
      <trkpt lat="48.78472" lon="2.4935">
        <ele>92.6</ele>
        <time>2015-06-08T19:32:10.743Z</time>
      </trkpt>
      <trkpt lat="48.78472" lon="2.4936">
        <ele>92.8</ele>
        <time>2015-06-08T19:32:11.748Z</time>
      </trkpt>
      <trkpt lat="48.78474" lon="2.49371">
        <ele>93.2</ele>
        <time>2015-06-08T19:32:12.805Z</time>
      </trkpt>
      <trkpt lat="48.78474" lon="2.49381">
        <ele>93.1</ele>
        <time>2015-06-08T19:32:13.781Z</time>
      </trkpt>
      <trkpt lat="48.78474" lon="2.49391">
        <ele>92.9</ele>
        <time>2015-06-08T19:32:14.805Z</time>
      </trkpt>
      <trkpt lat="48.78474" lon="2.49401">
        <ele>92.9</ele>
        <time>2015-06-08T19:32:15.814Z</time>
      </trkpt>
      <trkpt lat="48.78474" lon="2.49411">
        <ele>92.9</ele>
        <time>2015-06-08T19:32:16.734Z</time>
      </trkpt>
      <trkpt lat="48.78475" lon="2.49421">
        <ele>92.9</ele>
        <time>2015-06-08T19:32:17.781Z</time>
      </trkpt>
      <trkpt lat="48.78476" lon="2.4943">
        <ele>92.3</ele>
        <time>2015-06-08T19:32:18.794Z</time>
      </trkpt>
      <trkpt lat="48.78478" lon="2.4944">
        <ele>92.3</ele>
        <time>2015-06-08T19:32:19.742Z</time>
      </trkpt>
      <trkpt lat="48.7848" lon="2.49451">
        <ele>91.4</ele>
        <time>2015-06-08T19:32:20.801Z</time>
      </trkpt>
      <trkpt lat="48.7848" lon="2.49461">
        <ele>91.5</ele>
        <time>2015-06-08T19:32:21.792Z</time>
      </trkpt>
      <trkpt lat="48.78481" lon="2.4947">
        <ele>91.5</ele>
        <time>2015-06-08T19:32:22.798Z</time>
      </trkpt>
      <trkpt lat="48.78482" lon="2.49479">
        <ele>91.4</ele>
        <time>2015-06-08T19:32:23.808Z</time>
      </trkpt>
      <trkpt lat="48.78482" lon="2.49486">
        <ele>90.9</ele>
        <time>2015-06-08T19:32:24.738Z</time>
      </trkpt>
      <trkpt lat="48.78483" lon="2.49494">
        <ele>90.9</ele>
        <time>2015-06-08T19:32:25.738Z</time>
      </trkpt>
      <trkpt lat="48.78484" lon="2.49501">
        <ele>91.3</ele>
        <time>2015-06-08T19:32:26.797Z</time>
      </trkpt>
      <trkpt lat="48.78486" lon="2.49511">
        <ele>91.7</ele>
        <time>2015-06-08T19:32:28.815Z</time>
      </trkpt>
      <trkpt lat="48.78487" lon="2.49515">
        <ele>91.7</ele>
        <time>2015-06-08T19:32:29.831Z</time>
      </trkpt>
      <trkpt lat="48.78485" lon="2.49525">
        <ele>93.2</ele>
        <time>2015-06-08T19:36:19.781Z</time>
      </trkpt>
      <trkpt lat="48.78485" lon="2.49525">
        <ele>93.4</ele>
        <time>2015-06-08T19:36:20.785Z</time>
      </trkpt>
      <trkpt lat="48.78484" lon="2.49525">
        <ele>93.2</ele>
        <time>2015-06-08T19:40:15.805Z</time>
      </trkpt>
      <trkpt lat="48.78486" lon="2.49533">
        <ele>91.5</ele>
        <time>2015-06-08T19:40:16.726Z</time>
      </trkpt>
      <trkpt lat="48.78488" lon="2.49545">
        <ele>91.4</ele>
        <time>2015-06-08T19:40:21.743Z</time>
      </trkpt>
      <trkpt lat="48.78489" lon="2.49547">
        <ele>91.4</ele>
        <time>2015-06-08T19:40:22.753Z</time>
      </trkpt>
      <trkpt lat="48.7849" lon="2.4956">
        <ele>91</ele>
        <time>2015-06-08T19:40:26.817Z</time>
      </trkpt>
      <trkpt lat="48.7849" lon="2.49564">
        <ele>90.7</ele>
        <time>2015-06-08T19:40:27.704Z</time>
      </trkpt>
      <trkpt lat="48.7849" lon="2.49574">
        <ele>90.3</ele>
        <time>2015-06-08T19:40:29.735Z</time>
      </trkpt>
      <trkpt lat="48.78489" lon="2.4958">
        <ele>90.3</ele>
        <time>2015-06-08T19:40:30.749Z</time>
      </trkpt>
      <trkpt lat="48.78488" lon="2.49587">
        <ele>90.2</ele>
        <time>2015-06-08T19:40:31.757Z</time>
      </trkpt>
      <trkpt lat="48.78487" lon="2.49595">
        <ele>90</ele>
        <time>2015-06-08T19:40:32.800Z</time>
      </trkpt>
      <trkpt lat="48.78487" lon="2.49602">
        <ele>90.2</ele>
        <time>2015-06-08T19:40:33.724Z</time>
      </trkpt>
      <trkpt lat="48.78487" lon="2.49611">
        <ele>90.2</ele>
        <time>2015-06-08T19:40:34.719Z</time>
      </trkpt>
      <trkpt lat="48.78487" lon="2.49619">
        <ele>90.1</ele>
        <time>2015-06-08T19:40:35.723Z</time>
      </trkpt>
      <trkpt lat="48.78488" lon="2.49628">
        <ele>89.8</ele>
        <time>2015-06-08T19:40:36.740Z</time>
      </trkpt>
      <trkpt lat="48.78489" lon="2.49637">
        <ele>89.1</ele>
        <time>2015-06-08T19:40:37.747Z</time>
      </trkpt>
      <trkpt lat="48.7849" lon="2.49645">
        <ele>88.6</ele>
        <time>2015-06-08T19:40:38.787Z</time>
      </trkpt>
      <trkpt lat="48.78492" lon="2.49653">
        <ele>88.6</ele>
        <time>2015-06-08T19:40:39.814Z</time>
      </trkpt>
      <trkpt lat="48.78494" lon="2.49661">
        <ele>88.6</ele>
        <time>2015-06-08T19:40:40.740Z</time>
      </trkpt>
      <trkpt lat="48.78495" lon="2.49669">
        <ele>88.7</ele>
        <time>2015-06-08T19:40:41.750Z</time>
      </trkpt>
      <trkpt lat="48.78496" lon="2.49678">
        <ele>88.9</ele>
        <time>2015-06-08T19:40:42.760Z</time>
      </trkpt>
      <trkpt lat="48.78497" lon="2.49686">
        <ele>88.9</ele>
        <time>2015-06-08T19:40:43.779Z</time>
      </trkpt>
      <trkpt lat="48.78498" lon="2.49694">
        <ele>89.2</ele>
        <time>2015-06-08T19:40:44.801Z</time>
      </trkpt>
      <trkpt lat="48.78499" lon="2.49702">
        <ele>89.3</ele>
        <time>2015-06-08T19:40:45.809Z</time>
      </trkpt>
      <trkpt lat="48.78501" lon="2.4971">
        <ele>89.6</ele>
        <time>2015-06-08T19:40:46.734Z</time>
      </trkpt>
      <trkpt lat="48.78503" lon="2.49717">
        <ele>89.6</ele>
        <time>2015-06-08T19:40:47.736Z</time>
      </trkpt>
      <trkpt lat="48.78504" lon="2.49725">
        <ele>89.9</ele>
        <time>2015-06-08T19:40:48.736Z</time>
      </trkpt>
      <trkpt lat="48.78505" lon="2.49732">
        <ele>89.9</ele>
        <time>2015-06-08T19:40:49.748Z</time>
      </trkpt>
      <trkpt lat="48.78506" lon="2.4974">
        <ele>89.7</ele>
        <time>2015-06-08T19:40:50.803Z</time>
      </trkpt>
      <trkpt lat="48.78506" lon="2.49748">
        <ele>89.5</ele>
        <time>2015-06-08T19:40:51.845Z</time>
      </trkpt>
      <trkpt lat="48.78507" lon="2.49755">
        <ele>89.3</ele>
        <time>2015-06-08T19:40:52.736Z</time>
      </trkpt>
      <trkpt lat="48.78508" lon="2.49762">
        <ele>89.3</ele>
        <time>2015-06-08T19:40:53.744Z</time>
      </trkpt>
      <trkpt lat="48.78509" lon="2.49769">
        <ele>89.2</ele>
        <time>2015-06-08T19:40:54.752Z</time>
      </trkpt>
      <trkpt lat="48.78509" lon="2.49776">
        <ele>89</ele>
        <time>2015-06-08T19:40:55.759Z</time>
      </trkpt>
      <trkpt lat="48.7851" lon="2.49783">
        <ele>89.1</ele>
        <time>2015-06-08T19:40:56.846Z</time>
      </trkpt>
      <trkpt lat="48.7851" lon="2.49796">
        <ele>89.3</ele>
        <time>2015-06-08T19:40:58.735Z</time>
      </trkpt>
      <trkpt lat="48.7851" lon="2.49802">
        <ele>89.5</ele>
        <time>2015-06-08T19:40:59.776Z</time>
      </trkpt>
      <trkpt lat="48.78511" lon="2.49814">
        <ele>89.6</ele>
        <time>2015-06-08T19:41:01.826Z</time>
      </trkpt>
      <trkpt lat="48.78512" lon="2.4982">
        <ele>89.7</ele>
        <time>2015-06-08T19:41:02.841Z</time>
      </trkpt>
      <trkpt lat="48.78512" lon="2.49832">
        <ele>89.3</ele>
        <time>2015-06-08T19:41:04.746Z</time>
      </trkpt>
      <trkpt lat="48.78512" lon="2.49839">
        <ele>88.2</ele>
        <time>2015-06-08T19:41:05.711Z</time>
      </trkpt>
      <trkpt lat="48.78511" lon="2.4985">
        <ele>88.1</ele>
        <time>2015-06-08T19:41:07.760Z</time>
      </trkpt>
      <trkpt lat="48.78511" lon="2.49855">
        <ele>88.3</ele>
        <time>2015-06-08T19:41:08.910Z</time>
      </trkpt>
      <trkpt lat="48.7851" lon="2.49866">
        <ele>88.3</ele>
        <time>2015-06-08T19:41:10.731Z</time>
      </trkpt>
      <trkpt lat="48.7851" lon="2.49872">
        <ele>88.4</ele>
        <time>2015-06-08T19:41:11.755Z</time>
      </trkpt>
      <trkpt lat="48.78511" lon="2.49884">
        <ele>87.4</ele>
        <time>2015-06-08T19:41:13.807Z</time>
      </trkpt>
      <trkpt lat="48.78512" lon="2.4989">
        <ele>86.6</ele>
        <time>2015-06-08T19:41:14.855Z</time>
      </trkpt>
      <trkpt lat="48.78514" lon="2.49901">
        <ele>86.8</ele>
        <time>2015-06-08T19:41:16.750Z</time>
      </trkpt>
      <trkpt lat="48.78514" lon="2.49907">
        <ele>86.5</ele>
        <time>2015-06-08T19:41:17.791Z</time>
      </trkpt>
      <trkpt lat="48.78514" lon="2.4992">
        <ele>86.5</ele>
        <time>2015-06-08T19:41:19.801Z</time>
      </trkpt>
      <trkpt lat="48.78514" lon="2.49928">
        <ele>86.7</ele>
        <time>2015-06-08T19:41:20.803Z</time>
      </trkpt>
      <trkpt lat="48.78514" lon="2.49935">
        <ele>86.4</ele>
        <time>2015-06-08T19:41:21.746Z</time>
      </trkpt>
      <trkpt lat="48.78514" lon="2.49942">
        <ele>86.2</ele>
        <time>2015-06-08T19:41:22.745Z</time>
      </trkpt>
      <trkpt lat="48.78513" lon="2.49955">
        <ele>86.5</ele>
        <time>2015-06-08T19:41:24.823Z</time>
      </trkpt>
      <trkpt lat="48.78514" lon="2.4996">
        <ele>86.5</ele>
        <time>2015-06-08T19:41:25.767Z</time>
      </trkpt>
      <trkpt lat="48.78515" lon="2.49971">
        <ele>86.5</ele>
        <time>2015-06-08T19:41:28.423Z</time>
      </trkpt>
      <trkpt lat="48.78514" lon="2.49977">
        <ele>86.8</ele>
        <time>2015-06-08T19:41:28.807Z</time>
      </trkpt>
      <trkpt lat="48.78514" lon="2.49987">
        <ele>86.8</ele>
        <time>2015-06-08T19:41:30.807Z</time>
      </trkpt>
      <trkpt lat="48.78514" lon="2.49993">
        <ele>87</ele>
        <time>2015-06-08T19:41:31.820Z</time>
      </trkpt>
      <trkpt lat="48.78513" lon="2.5">
        <ele>87.2</ele>
        <time>2015-06-08T19:41:32.876Z</time>
      </trkpt>
      <trkpt lat="48.78512" lon="2.50008">
        <ele>87.5</ele>
        <time>2015-06-08T19:41:33.740Z</time>
      </trkpt>
      <trkpt lat="48.78511" lon="2.50015">
        <ele>87.8</ele>
        <time>2015-06-08T19:41:34.747Z</time>
      </trkpt>
      <trkpt lat="48.78511" lon="2.50023">
        <ele>88</ele>
        <time>2015-06-08T19:41:35.748Z</time>
      </trkpt>
      <trkpt lat="48.78511" lon="2.50029">
        <ele>88.1</ele>
        <time>2015-06-08T19:41:37.055Z</time>
      </trkpt>
      <trkpt lat="48.78512" lon="2.50037">
        <ele>87.2</ele>
        <time>2015-06-08T19:41:37.749Z</time>
      </trkpt>
      <trkpt lat="48.78512" lon="2.5005">
        <ele>87.5</ele>
        <time>2015-06-08T19:41:39.818Z</time>
      </trkpt>
      <trkpt lat="48.78512" lon="2.50057">
        <ele>87.3</ele>
        <time>2015-06-08T19:41:40.748Z</time>
      </trkpt>
      <trkpt lat="48.78513" lon="2.50064">
        <ele>87.3</ele>
        <time>2015-06-08T19:41:41.747Z</time>
      </trkpt>
      <trkpt lat="48.78513" lon="2.50072">
        <ele>87.2</ele>
        <time>2015-06-08T19:41:42.784Z</time>
      </trkpt>
      <trkpt lat="48.78512" lon="2.5008">
        <ele>87.3</ele>
        <time>2015-06-08T19:41:43.757Z</time>
      </trkpt>
      <trkpt lat="48.78511" lon="2.50088">
        <ele>87.1</ele>
        <time>2015-06-08T19:41:44.820Z</time>
      </trkpt>
      <trkpt lat="48.7851" lon="2.50095">
        <ele>87.3</ele>
        <time>2015-06-08T19:41:46.351Z</time>
      </trkpt>
      <trkpt lat="48.7851" lon="2.50102">
        <ele>87.5</ele>
        <time>2015-06-08T19:41:46.831Z</time>
      </trkpt>
      <trkpt lat="48.78509" lon="2.50115">
        <ele>88.1</ele>
        <time>2015-06-08T19:41:48.760Z</time>
      </trkpt>
      <trkpt lat="48.78509" lon="2.50123">
        <ele>88.2</ele>
        <time>2015-06-08T19:41:49.786Z</time>
      </trkpt>
      <trkpt lat="48.78509" lon="2.5013">
        <ele>88.3</ele>
        <time>2015-06-08T19:41:51.386Z</time>
      </trkpt>
      <trkpt lat="48.78508" lon="2.50138">
        <ele>88.4</ele>
        <time>2015-06-08T19:41:51.823Z</time>
      </trkpt>
      <trkpt lat="48.78508" lon="2.50146">
        <ele>88.3</ele>
        <time>2015-06-08T19:41:52.755Z</time>
      </trkpt>
      <trkpt lat="48.78508" lon="2.50153">
        <ele>88.2</ele>
        <time>2015-06-08T19:41:53.722Z</time>
      </trkpt>
      <trkpt lat="48.78508" lon="2.50163">
        <ele>88.5</ele>
        <time>2015-06-08T19:41:54.731Z</time>
      </trkpt>
      <trkpt lat="48.78508" lon="2.50172">
        <ele>88.6</ele>
        <time>2015-06-08T19:41:55.757Z</time>
      </trkpt>
      <trkpt lat="48.78507" lon="2.50183">
        <ele>88.9</ele>
        <time>2015-06-08T19:41:56.827Z</time>
      </trkpt>
      <trkpt lat="48.78506" lon="2.50192">
        <ele>89.5</ele>
        <time>2015-06-08T19:41:57.820Z</time>
      </trkpt>
      <trkpt lat="48.78506" lon="2.50201">
        <ele>89.8</ele>
        <time>2015-06-08T19:41:58.739Z</time>
      </trkpt>
      <trkpt lat="48.78505" lon="2.5021">
        <ele>90</ele>
        <time>2015-06-08T19:41:59.745Z</time>
      </trkpt>
      <trkpt lat="48.78505" lon="2.50219">
        <ele>90</ele>
        <time>2015-06-08T19:42:01.553Z</time>
      </trkpt>
      <trkpt lat="48.78504" lon="2.50228">
        <ele>90</ele>
        <time>2015-06-08T19:42:01.766Z</time>
      </trkpt>
      <trkpt lat="48.78503" lon="2.50237">
        <ele>90.3</ele>
        <time>2015-06-08T19:42:02.814Z</time>
      </trkpt>
      <trkpt lat="48.78502" lon="2.50245">
        <ele>90.7</ele>
        <time>2015-06-08T19:42:03.745Z</time>
      </trkpt>
      <trkpt lat="48.78502" lon="2.50253">
        <ele>90.9</ele>
        <time>2015-06-08T19:42:04.741Z</time>
      </trkpt>
      <trkpt lat="48.78501" lon="2.5026">
        <ele>90.9</ele>
        <time>2015-06-08T19:42:05.751Z</time>
      </trkpt>
      <trkpt lat="48.78501" lon="2.50267">
        <ele>90.8</ele>
        <time>2015-06-08T19:42:06.769Z</time>
      </trkpt>
      <trkpt lat="48.78501" lon="2.50275">
        <ele>90.3</ele>
        <time>2015-06-08T19:42:07.777Z</time>
      </trkpt>
      <trkpt lat="48.78501" lon="2.50282">
        <ele>90</ele>
        <time>2015-06-08T19:42:08.843Z</time>
      </trkpt>
      <trkpt lat="48.785" lon="2.5029">
        <ele>89.9</ele>
        <time>2015-06-08T19:42:09.753Z</time>
      </trkpt>
      <trkpt lat="48.785" lon="2.50297">
        <ele>89.5</ele>
        <time>2015-06-08T19:42:10.755Z</time>
      </trkpt>
      <trkpt lat="48.78501" lon="2.50303">
        <ele>89.3</ele>
        <time>2015-06-08T19:42:11.766Z</time>
      </trkpt>
      <trkpt lat="48.785" lon="2.50317">
        <ele>88.8</ele>
        <time>2015-06-08T19:42:13.786Z</time>
      </trkpt>
      <trkpt lat="48.785" lon="2.50322">
        <ele>88.6</ele>
        <time>2015-06-08T19:42:14.869Z</time>
      </trkpt>
      <trkpt lat="48.785" lon="2.5033">
        <ele>88.4</ele>
        <time>2015-06-08T19:42:15.717Z</time>
      </trkpt>
      <trkpt lat="48.78499" lon="2.50337">
        <ele>88.3</ele>
        <time>2015-06-08T19:42:16.742Z</time>
      </trkpt>
      <trkpt lat="48.78499" lon="2.50346">
        <ele>88.1</ele>
        <time>2015-06-08T19:42:17.756Z</time>
      </trkpt>
      <trkpt lat="48.78497" lon="2.50356">
        <ele>88</ele>
        <time>2015-06-08T19:42:18.762Z</time>
      </trkpt>
      <trkpt lat="48.78495" lon="2.50366">
        <ele>88.2</ele>
        <time>2015-06-08T19:42:20.648Z</time>
      </trkpt>
      <trkpt lat="48.78493" lon="2.50376">
        <ele>88.2</ele>
        <time>2015-06-08T19:42:20.780Z</time>
      </trkpt>
      <trkpt lat="48.78491" lon="2.50387">
        <ele>88</ele>
        <time>2015-06-08T19:42:21.798Z</time>
      </trkpt>
      <trkpt lat="48.78489" lon="2.50402">
        <ele>87.8</ele>
        <time>2015-06-08T19:42:22.813Z</time>
      </trkpt>
      <trkpt lat="48.78487" lon="2.50415">
        <ele>87.8</ele>
        <time>2015-06-08T19:42:23.730Z</time>
      </trkpt>
      <trkpt lat="48.78486" lon="2.50429">
        <ele>87.8</ele>
        <time>2015-06-08T19:42:24.747Z</time>
      </trkpt>
      <trkpt lat="48.78484" lon="2.50442">
        <ele>87.6</ele>
        <time>2015-06-08T19:42:25.779Z</time>
      </trkpt>
      <trkpt lat="48.78483" lon="2.50453">
        <ele>87.3</ele>
        <time>2015-06-08T19:42:27.087Z</time>
      </trkpt>
      <trkpt lat="48.78484" lon="2.50461">
        <ele>87.5</ele>
        <time>2015-06-08T19:42:27.793Z</time>
      </trkpt>
      <trkpt lat="48.78485" lon="2.50469">
        <ele>88.2</ele>
        <time>2015-06-08T19:42:28.800Z</time>
      </trkpt>
      <trkpt lat="48.78486" lon="2.50479">
        <ele>89.4</ele>
        <time>2015-06-08T19:42:29.804Z</time>
      </trkpt>
      <trkpt lat="48.78486" lon="2.5049">
        <ele>89.5</ele>
        <time>2015-06-08T19:42:30.810Z</time>
      </trkpt>
      <trkpt lat="48.78485" lon="2.50501">
        <ele>89.8</ele>
        <time>2015-06-08T19:42:31.787Z</time>
      </trkpt>
      <trkpt lat="48.78483" lon="2.50513">
        <ele>90</ele>
        <time>2015-06-08T19:42:32.793Z</time>
      </trkpt>
      <trkpt lat="48.78481" lon="2.50523">
        <ele>89.4</ele>
        <time>2015-06-08T19:42:33.751Z</time>
      </trkpt>
      <trkpt lat="48.78481" lon="2.50531">
        <ele>89.4</ele>
        <time>2015-06-08T19:42:34.744Z</time>
      </trkpt>
      <trkpt lat="48.7848" lon="2.5054">
        <ele>89.2</ele>
        <time>2015-06-08T19:42:35.751Z</time>
      </trkpt>
      <trkpt lat="48.78479" lon="2.5055">
        <ele>89.2</ele>
        <time>2015-06-08T19:42:36.763Z</time>
      </trkpt>
      <trkpt lat="48.78477" lon="2.5056">
        <ele>88.8</ele>
        <time>2015-06-08T19:42:37.772Z</time>
      </trkpt>
      <trkpt lat="48.78476" lon="2.50569">
        <ele>89.1</ele>
        <time>2015-06-08T19:42:38.790Z</time>
      </trkpt>
      <trkpt lat="48.78474" lon="2.50579">
        <ele>89.5</ele>
        <time>2015-06-08T19:42:39.782Z</time>
      </trkpt>
      <trkpt lat="48.78474" lon="2.50587">
        <ele>89.5</ele>
        <time>2015-06-08T19:42:40.786Z</time>
      </trkpt>
      <trkpt lat="48.78473" lon="2.50595">
        <ele>89.5</ele>
        <time>2015-06-08T19:42:41.802Z</time>
      </trkpt>
      <trkpt lat="48.78472" lon="2.50602">
        <ele>89.3</ele>
        <time>2015-06-08T19:42:42.736Z</time>
      </trkpt>
      <trkpt lat="48.78471" lon="2.50613">
        <ele>88.8</ele>
        <time>2015-06-08T19:42:43.816Z</time>
      </trkpt>
      <trkpt lat="48.78471" lon="2.50622">
        <ele>88.7</ele>
        <time>2015-06-08T19:42:44.842Z</time>
      </trkpt>
      <trkpt lat="48.7847" lon="2.50629">
        <ele>88.6</ele>
        <time>2015-06-08T19:42:45.739Z</time>
      </trkpt>
      <trkpt lat="48.78469" lon="2.5064">
        <ele>88.4</ele>
        <time>2015-06-08T19:42:46.745Z</time>
      </trkpt>
      <trkpt lat="48.78467" lon="2.50652">
        <ele>88.5</ele>
        <time>2015-06-08T19:42:47.760Z</time>
      </trkpt>
      <trkpt lat="48.78467" lon="2.50663">
        <ele>88.1</ele>
        <time>2015-06-08T19:42:48.773Z</time>
      </trkpt>
      <trkpt lat="48.78466" lon="2.50674">
        <ele>88.7</ele>
        <time>2015-06-08T19:42:49.788Z</time>
      </trkpt>
      <trkpt lat="48.78466" lon="2.50683">
        <ele>89</ele>
        <time>2015-06-08T19:42:50.805Z</time>
      </trkpt>
      <trkpt lat="48.78466" lon="2.50694">
        <ele>89.6</ele>
        <time>2015-06-08T19:42:51.817Z</time>
      </trkpt>
      <trkpt lat="48.78465" lon="2.50702">
        <ele>89.6</ele>
        <time>2015-06-08T19:42:52.828Z</time>
      </trkpt>
      <trkpt lat="48.78463" lon="2.5071">
        <ele>89.4</ele>
        <time>2015-06-08T19:42:53.738Z</time>
      </trkpt>
      <trkpt lat="48.78461" lon="2.50722">
        <ele>89.2</ele>
        <time>2015-06-08T19:42:54.743Z</time>
      </trkpt>
      <trkpt lat="48.78461" lon="2.50734">
        <ele>88.7</ele>
        <time>2015-06-08T19:42:55.753Z</time>
      </trkpt>
      <trkpt lat="48.78459" lon="2.50744">
        <ele>88.2</ele>
        <time>2015-06-08T19:42:56.807Z</time>
      </trkpt>
      <trkpt lat="48.78459" lon="2.50752">
        <ele>87.9</ele>
        <time>2015-06-08T19:42:57.816Z</time>
      </trkpt>
      <trkpt lat="48.7846" lon="2.50761">
        <ele>87.5</ele>
        <time>2015-06-08T19:42:58.818Z</time>
      </trkpt>
      <trkpt lat="48.78464" lon="2.50767">
        <ele>87.4</ele>
        <time>2015-06-08T19:42:59.734Z</time>
      </trkpt>
      <trkpt lat="48.78467" lon="2.50772">
        <ele>87.2</ele>
        <time>2015-06-08T19:43:00.756Z</time>
      </trkpt>
      <trkpt lat="48.7847" lon="2.50783">
        <ele>86.7</ele>
        <time>2015-06-08T19:43:02.796Z</time>
      </trkpt>
      <trkpt lat="48.78471" lon="2.50789">
        <ele>86.8</ele>
        <time>2015-06-08T19:43:03.750Z</time>
      </trkpt>
      <trkpt lat="48.78474" lon="2.50801">
        <ele>86.8</ele>
        <time>2015-06-08T19:43:05.751Z</time>
      </trkpt>
      <trkpt lat="48.78475" lon="2.50807">
        <ele>86.7</ele>
        <time>2015-06-08T19:43:06.768Z</time>
      </trkpt>
      <trkpt lat="48.78477" lon="2.50815">
        <ele>86.8</ele>
        <time>2015-06-08T19:43:07.812Z</time>
      </trkpt>
      <trkpt lat="48.78478" lon="2.50821">
        <ele>87</ele>
        <time>2015-06-08T19:43:08.816Z</time>
      </trkpt>
      <trkpt lat="48.78479" lon="2.50831">
        <ele>86.9</ele>
        <time>2015-06-08T19:43:10.823Z</time>
      </trkpt>
      <trkpt lat="48.78479" lon="2.50836">
        <ele>86.7</ele>
        <time>2015-06-08T19:43:11.791Z</time>
      </trkpt>
      <trkpt lat="48.7848" lon="2.50849">
        <ele>85.9</ele>
        <time>2015-06-08T19:43:13.746Z</time>
      </trkpt>
      <trkpt lat="48.7848" lon="2.50856">
        <ele>85.8</ele>
        <time>2015-06-08T19:43:14.872Z</time>
      </trkpt>
      <trkpt lat="48.78482" lon="2.50869">
        <ele>85</ele>
        <time>2015-06-08T19:43:16.745Z</time>
      </trkpt>
      <trkpt lat="48.78482" lon="2.50876">
        <ele>85</ele>
        <time>2015-06-08T19:43:17.783Z</time>
      </trkpt>
      <trkpt lat="48.78482" lon="2.50885">
        <ele>84.4</ele>
        <time>2015-06-08T19:43:18.845Z</time>
      </trkpt>
      <trkpt lat="48.78481" lon="2.50895">
        <ele>84.5</ele>
        <time>2015-06-08T19:43:19.751Z</time>
      </trkpt>
      <trkpt lat="48.78481" lon="2.50906">
        <ele>84.5</ele>
        <time>2015-06-08T19:43:20.886Z</time>
      </trkpt>
      <trkpt lat="48.78481" lon="2.50917">
        <ele>84.8</ele>
        <time>2015-06-08T19:43:21.799Z</time>
      </trkpt>
      <trkpt lat="48.78482" lon="2.50926">
        <ele>85</ele>
        <time>2015-06-08T19:43:22.779Z</time>
      </trkpt>
      <trkpt lat="48.78482" lon="2.50937">
        <ele>85.1</ele>
        <time>2015-06-08T19:43:23.757Z</time>
      </trkpt>
      <trkpt lat="48.78482" lon="2.50948">
        <ele>85</ele>
        <time>2015-06-08T19:43:24.810Z</time>
      </trkpt>
      <trkpt lat="48.78482" lon="2.50962">
        <ele>85</ele>
        <time>2015-06-08T19:43:25.805Z</time>
      </trkpt>
      <trkpt lat="48.78481" lon="2.50977">
        <ele>83.1</ele>
        <time>2015-06-08T19:43:26.883Z</time>
      </trkpt>
      <trkpt lat="48.7848" lon="2.50992">
        <ele>81.8</ele>
        <time>2015-06-08T19:43:27.741Z</time>
      </trkpt>
      <trkpt lat="48.78478" lon="2.51006">
        <ele>80.9</ele>
        <time>2015-06-08T19:43:28.742Z</time>
      </trkpt>
      <trkpt lat="48.78478" lon="2.51017">
        <ele>81.3</ele>
        <time>2015-06-08T19:43:29.748Z</time>
      </trkpt>
      <trkpt lat="48.78476" lon="2.51031">
        <ele>81.6</ele>
        <time>2015-06-08T19:43:30.765Z</time>
      </trkpt>
      <trkpt lat="48.78474" lon="2.51043">
        <ele>82</ele>
        <time>2015-06-08T19:43:31.815Z</time>
      </trkpt>
      <trkpt lat="48.78476" lon="2.51052">
        <ele>82.4</ele>
        <time>2015-06-08T19:43:32.834Z</time>
      </trkpt>
      <trkpt lat="48.78477" lon="2.51061">
        <ele>82.4</ele>
        <time>2015-06-08T19:43:33.718Z</time>
      </trkpt>
      <trkpt lat="48.78479" lon="2.51071">
        <ele>82.6</ele>
        <time>2015-06-08T19:43:34.713Z</time>
      </trkpt>
      <trkpt lat="48.78481" lon="2.51082">
        <ele>82.8</ele>
        <time>2015-06-08T19:43:35.729Z</time>
      </trkpt>
      <trkpt lat="48.78485" lon="2.51094">
        <ele>83.6</ele>
        <time>2015-06-08T19:43:36.738Z</time>
      </trkpt>
      <trkpt lat="48.78491" lon="2.51107">
        <ele>82.9</ele>
        <time>2015-06-08T19:43:37.746Z</time>
      </trkpt>
      <trkpt lat="48.78495" lon="2.51119">
        <ele>83.3</ele>
        <time>2015-06-08T19:43:38.764Z</time>
      </trkpt>
      <trkpt lat="48.78499" lon="2.51131">
        <ele>84.6</ele>
        <time>2015-06-08T19:43:39.776Z</time>
      </trkpt>
      <trkpt lat="48.78504" lon="2.51139">
        <ele>85.1</ele>
        <time>2015-06-08T19:43:40.703Z</time>
      </trkpt>
      <trkpt lat="48.78507" lon="2.51147">
        <ele>85.2</ele>
        <time>2015-06-08T19:43:41.934Z</time>
      </trkpt>
      <trkpt lat="48.78512" lon="2.51154">
        <ele>85.4</ele>
        <time>2015-06-08T19:43:42.754Z</time>
      </trkpt>
      <trkpt lat="48.78517" lon="2.51161">
        <ele>85.4</ele>
        <time>2015-06-08T19:43:43.773Z</time>
      </trkpt>
      <trkpt lat="48.78522" lon="2.51165">
        <ele>84.9</ele>
        <time>2015-06-08T19:43:44.795Z</time>
      </trkpt>
      <trkpt lat="48.78526" lon="2.51171">
        <ele>84.7</ele>
        <time>2015-06-08T19:43:45.791Z</time>
      </trkpt>
      <trkpt lat="48.78529" lon="2.51178">
        <ele>84.6</ele>
        <time>2015-06-08T19:43:46.824Z</time>
      </trkpt>
      <trkpt lat="48.78532" lon="2.51185">
        <ele>84.7</ele>
        <time>2015-06-08T19:43:47.753Z</time>
      </trkpt>
      <trkpt lat="48.78535" lon="2.51192">
        <ele>84.6</ele>
        <time>2015-06-08T19:43:48.734Z</time>
      </trkpt>
      <trkpt lat="48.78539" lon="2.51199">
        <ele>84.7</ele>
        <time>2015-06-08T19:43:49.742Z</time>
      </trkpt>
      <trkpt lat="48.78544" lon="2.51206">
        <ele>84.9</ele>
        <time>2015-06-08T19:43:50.791Z</time>
      </trkpt>
      <trkpt lat="48.78548" lon="2.51211">
        <ele>84.7</ele>
        <time>2015-06-08T19:43:51.788Z</time>
      </trkpt>
      <trkpt lat="48.78553" lon="2.51217">
        <ele>84.6</ele>
        <time>2015-06-08T19:43:52.800Z</time>
      </trkpt>
      <trkpt lat="48.78558" lon="2.51222">
        <ele>84.3</ele>
        <time>2015-06-08T19:43:53.807Z</time>
      </trkpt>
      <trkpt lat="48.78562" lon="2.51227">
        <ele>84.3</ele>
        <time>2015-06-08T19:43:54.735Z</time>
      </trkpt>
      <trkpt lat="48.78567" lon="2.51233">
        <ele>84.4</ele>
        <time>2015-06-08T19:43:55.734Z</time>
      </trkpt>
      <trkpt lat="48.7857" lon="2.51239">
        <ele>84.4</ele>
        <time>2015-06-08T19:43:56.876Z</time>
      </trkpt>
      <trkpt lat="48.78573" lon="2.51246">
        <ele>84.6</ele>
        <time>2015-06-08T19:43:57.713Z</time>
      </trkpt>
      <trkpt lat="48.78578" lon="2.51253">
        <ele>84.7</ele>
        <time>2015-06-08T19:43:58.764Z</time>
      </trkpt>
      <trkpt lat="48.78582" lon="2.51261">
        <ele>85.1</ele>
        <time>2015-06-08T19:43:59.771Z</time>
      </trkpt>
      <trkpt lat="48.78585" lon="2.51268">
        <ele>85.5</ele>
        <time>2015-06-08T19:44:00.699Z</time>
      </trkpt>
      <trkpt lat="48.78588" lon="2.51275">
        <ele>85.7</ele>
        <time>2015-06-08T19:44:01.700Z</time>
      </trkpt>
      <trkpt lat="48.78592" lon="2.51282">
        <ele>85.8</ele>
        <time>2015-06-08T19:44:02.798Z</time>
      </trkpt>
      <trkpt lat="48.78596" lon="2.51291">
        <ele>85.6</ele>
        <time>2015-06-08T19:44:03.809Z</time>
      </trkpt>
      <trkpt lat="48.786" lon="2.513">
        <ele>85.7</ele>
        <time>2015-06-08T19:44:04.721Z</time>
      </trkpt>
      <trkpt lat="48.78606" lon="2.51311">
        <ele>85.9</ele>
        <time>2015-06-08T19:44:05.729Z</time>
      </trkpt>
      <trkpt lat="48.78611" lon="2.51319">
        <ele>86.6</ele>
        <time>2015-06-08T19:44:06.753Z</time>
      </trkpt>
      <trkpt lat="48.78616" lon="2.51329">
        <ele>86.5</ele>
        <time>2015-06-08T19:44:07.756Z</time>
      </trkpt>
      <trkpt lat="48.7862" lon="2.51337">
        <ele>86.7</ele>
        <time>2015-06-08T19:44:08.776Z</time>
      </trkpt>
      <trkpt lat="48.78624" lon="2.51345">
        <ele>86.6</ele>
        <time>2015-06-08T19:44:09.774Z</time>
      </trkpt>
      <trkpt lat="48.78628" lon="2.51353">
        <ele>86.5</ele>
        <time>2015-06-08T19:44:10.784Z</time>
      </trkpt>
      <trkpt lat="48.78631" lon="2.51361">
        <ele>86.7</ele>
        <time>2015-06-08T19:44:11.794Z</time>
      </trkpt>
      <trkpt lat="48.78632" lon="2.51371">
        <ele>86.2</ele>
        <time>2015-06-08T19:44:12.715Z</time>
      </trkpt>
      <trkpt lat="48.78634" lon="2.51381">
        <ele>86.2</ele>
        <time>2015-06-08T19:44:13.715Z</time>
      </trkpt>
      <trkpt lat="48.78636" lon="2.51391">
        <ele>86.5</ele>
        <time>2015-06-08T19:44:14.778Z</time>
      </trkpt>
      <trkpt lat="48.78638" lon="2.51402">
        <ele>86.6</ele>
        <time>2015-06-08T19:44:15.784Z</time>
      </trkpt>
      <trkpt lat="48.7864" lon="2.51413">
        <ele>86.9</ele>
        <time>2015-06-08T19:44:16.802Z</time>
      </trkpt>
      <trkpt lat="48.78642" lon="2.51422">
        <ele>87.2</ele>
        <time>2015-06-08T19:44:17.727Z</time>
      </trkpt>
      <trkpt lat="48.78644" lon="2.51431">
        <ele>87.5</ele>
        <time>2015-06-08T19:44:18.746Z</time>
      </trkpt>
      <trkpt lat="48.78647" lon="2.5144">
        <ele>87.2</ele>
        <time>2015-06-08T19:44:19.753Z</time>
      </trkpt>
      <trkpt lat="48.78649" lon="2.51449">
        <ele>87.5</ele>
        <time>2015-06-08T19:44:20.788Z</time>
      </trkpt>
      <trkpt lat="48.78649" lon="2.51456">
        <ele>87.4</ele>
        <time>2015-06-08T19:44:21.789Z</time>
      </trkpt>
      <trkpt lat="48.7865" lon="2.51466">
        <ele>87.4</ele>
        <time>2015-06-08T19:44:22.794Z</time>
      </trkpt>
      <trkpt lat="48.7865" lon="2.51474">
        <ele>87.7</ele>
        <time>2015-06-08T19:44:23.803Z</time>
      </trkpt>
      <trkpt lat="48.78651" lon="2.5148">
        <ele>88</ele>
        <time>2015-06-08T19:44:24.819Z</time>
      </trkpt>
      <trkpt lat="48.78652" lon="2.51487">
        <ele>88.3</ele>
        <time>2015-06-08T19:44:25.744Z</time>
      </trkpt>
      <trkpt lat="48.78654" lon="2.515">
        <ele>88.9</ele>
        <time>2015-06-08T19:44:27.778Z</time>
      </trkpt>
      <trkpt lat="48.78656" lon="2.51506">
        <ele>88.9</ele>
        <time>2015-06-08T19:44:28.793Z</time>
      </trkpt>
      <trkpt lat="48.78657" lon="2.51513">
        <ele>88.8</ele>
        <time>2015-06-08T19:44:29.730Z</time>
      </trkpt>
      <trkpt lat="48.78658" lon="2.5152">
        <ele>88.9</ele>
        <time>2015-06-08T19:44:30.742Z</time>
      </trkpt>
      <trkpt lat="48.78659" lon="2.51527">
        <ele>88.9</ele>
        <time>2015-06-08T19:44:31.762Z</time>
      </trkpt>
      <trkpt lat="48.78661" lon="2.51534">
        <ele>88.7</ele>
        <time>2015-06-08T19:44:32.854Z</time>
      </trkpt>
      <trkpt lat="48.78662" lon="2.51541">
        <ele>88.7</ele>
        <time>2015-06-08T19:44:33.714Z</time>
      </trkpt>
      <trkpt lat="48.78663" lon="2.51548">
        <ele>88.3</ele>
        <time>2015-06-08T19:44:34.714Z</time>
      </trkpt>
      <trkpt lat="48.78666" lon="2.51555">
        <ele>88.1</ele>
        <time>2015-06-08T19:44:35.734Z</time>
      </trkpt>
      <trkpt lat="48.78667" lon="2.51562">
        <ele>88</ele>
        <time>2015-06-08T19:44:36.750Z</time>
      </trkpt>
      <trkpt lat="48.78669" lon="2.51569">
        <ele>87.5</ele>
        <time>2015-06-08T19:44:37.754Z</time>
      </trkpt>
      <trkpt lat="48.7867" lon="2.51575">
        <ele>87.1</ele>
        <time>2015-06-08T19:44:38.774Z</time>
      </trkpt>
      <trkpt lat="48.78673" lon="2.51586">
        <ele>86.8</ele>
        <time>2015-06-08T19:44:40.807Z</time>
      </trkpt>
      <trkpt lat="48.78675" lon="2.51592">
        <ele>86.9</ele>
        <time>2015-06-08T19:44:41.754Z</time>
      </trkpt>
      <trkpt lat="48.78677" lon="2.51599">
        <ele>86.8</ele>
        <time>2015-06-08T19:44:42.728Z</time>
      </trkpt>
      <trkpt lat="48.78678" lon="2.51607">
        <ele>86.1</ele>
        <time>2015-06-08T19:44:43.860Z</time>
      </trkpt>
      <trkpt lat="48.7868" lon="2.51614">
        <ele>85.9</ele>
        <time>2015-06-08T19:44:44.827Z</time>
      </trkpt>
      <trkpt lat="48.78683" lon="2.51619">
        <ele>86.1</ele>
        <time>2015-06-08T19:44:45.729Z</time>
      </trkpt>
      <trkpt lat="48.78685" lon="2.51625">
        <ele>86.3</ele>
        <time>2015-06-08T19:44:46.729Z</time>
      </trkpt>
      <trkpt lat="48.78687" lon="2.51632">
        <ele>86.6</ele>
        <time>2015-06-08T19:44:47.739Z</time>
      </trkpt>
      <trkpt lat="48.78688" lon="2.51643">
        <ele>86.7</ele>
        <time>2015-06-08T19:44:48.755Z</time>
      </trkpt>
      <trkpt lat="48.78691" lon="2.51652">
        <ele>86.2</ele>
        <time>2015-06-08T19:44:49.757Z</time>
      </trkpt>
      <trkpt lat="48.78694" lon="2.51661">
        <ele>85.5</ele>
        <time>2015-06-08T19:44:50.790Z</time>
      </trkpt>
      <trkpt lat="48.78697" lon="2.51669">
        <ele>85.6</ele>
        <time>2015-06-08T19:44:51.729Z</time>
      </trkpt>
      <trkpt lat="48.787" lon="2.51677">
        <ele>85.4</ele>
        <time>2015-06-08T19:44:52.721Z</time>
      </trkpt>
      <trkpt lat="48.78704" lon="2.51685">
        <ele>85.3</ele>
        <time>2015-06-08T19:44:53.711Z</time>
      </trkpt>
      <trkpt lat="48.78708" lon="2.51692">
        <ele>85.4</ele>
        <time>2015-06-08T19:44:54.737Z</time>
      </trkpt>
      <trkpt lat="48.78712" lon="2.51699">
        <ele>86</ele>
        <time>2015-06-08T19:44:55.750Z</time>
      </trkpt>
      <trkpt lat="48.78715" lon="2.51706">
        <ele>85.6</ele>
        <time>2015-06-08T19:44:56.791Z</time>
      </trkpt>
      <trkpt lat="48.78718" lon="2.51714">
        <ele>85.7</ele>
        <time>2015-06-08T19:44:57.788Z</time>
      </trkpt>
      <trkpt lat="48.7872" lon="2.51722">
        <ele>85.8</ele>
        <time>2015-06-08T19:44:58.803Z</time>
      </trkpt>
      <trkpt lat="48.78723" lon="2.51728">
        <ele>85.9</ele>
        <time>2015-06-08T19:44:59.733Z</time>
      </trkpt>
      <trkpt lat="48.78725" lon="2.51735">
        <ele>86</ele>
        <time>2015-06-08T19:45:00.737Z</time>
      </trkpt>
      <trkpt lat="48.78728" lon="2.51742">
        <ele>86.1</ele>
        <time>2015-06-08T19:45:01.729Z</time>
      </trkpt>
      <trkpt lat="48.78732" lon="2.51748">
        <ele>86</ele>
        <time>2015-06-08T19:45:02.789Z</time>
      </trkpt>
      <trkpt lat="48.78736" lon="2.51754">
        <ele>85.7</ele>
        <time>2015-06-08T19:45:03.796Z</time>
      </trkpt>
      <trkpt lat="48.78739" lon="2.51762">
        <ele>85.8</ele>
        <time>2015-06-08T19:45:04.804Z</time>
      </trkpt>
      <trkpt lat="48.78743" lon="2.51769">
        <ele>85.9</ele>
        <time>2015-06-08T19:45:05.811Z</time>
      </trkpt>
      <trkpt lat="48.78746" lon="2.51776">
        <ele>86</ele>
        <time>2015-06-08T19:45:06.705Z</time>
      </trkpt>
      <trkpt lat="48.7875" lon="2.51783">
        <ele>86.3</ele>
        <time>2015-06-08T19:45:07.710Z</time>
      </trkpt>
      <trkpt lat="48.78754" lon="2.51789">
        <ele>86.3</ele>
        <time>2015-06-08T19:45:08.809Z</time>
      </trkpt>
      <trkpt lat="48.78758" lon="2.51795">
        <ele>86.4</ele>
        <time>2015-06-08T19:45:09.812Z</time>
      </trkpt>
      <trkpt lat="48.78762" lon="2.51802">
        <ele>86.1</ele>
        <time>2015-06-08T19:45:10.827Z</time>
      </trkpt>
      <trkpt lat="48.78766" lon="2.51809">
        <ele>85.9</ele>
        <time>2015-06-08T19:45:11.740Z</time>
      </trkpt>
      <trkpt lat="48.78768" lon="2.51817">
        <ele>85.8</ele>
        <time>2015-06-08T19:45:12.746Z</time>
      </trkpt>
      <trkpt lat="48.78772" lon="2.51825">
        <ele>85.8</ele>
        <time>2015-06-08T19:45:13.747Z</time>
      </trkpt>
      <trkpt lat="48.78777" lon="2.5183">
        <ele>85.9</ele>
        <time>2015-06-08T19:45:14.811Z</time>
      </trkpt>
      <trkpt lat="48.78784" lon="2.51835">
        <ele>86.1</ele>
        <time>2015-06-08T19:45:15.809Z</time>
      </trkpt>
      <trkpt lat="48.7879" lon="2.51841">
        <ele>85.8</ele>
        <time>2015-06-08T19:45:16.741Z</time>
      </trkpt>
      <trkpt lat="48.78795" lon="2.51847">
        <ele>85.8</ele>
        <time>2015-06-08T19:45:17.740Z</time>
      </trkpt>
      <trkpt lat="48.788" lon="2.51852">
        <ele>86</ele>
        <time>2015-06-08T19:45:18.796Z</time>
      </trkpt>
      <trkpt lat="48.78806" lon="2.51858">
        <ele>86</ele>
        <time>2015-06-08T19:45:19.820Z</time>
      </trkpt>
      <trkpt lat="48.7881" lon="2.51863">
        <ele>86.1</ele>
        <time>2015-06-08T19:45:20.844Z</time>
      </trkpt>
      <trkpt lat="48.78814" lon="2.51869">
        <ele>86.3</ele>
        <time>2015-06-08T19:45:21.726Z</time>
      </trkpt>
      <trkpt lat="48.7882" lon="2.51875">
        <ele>86.3</ele>
        <time>2015-06-08T19:45:22.736Z</time>
      </trkpt>
      <trkpt lat="48.78826" lon="2.51882">
        <ele>86.5</ele>
        <time>2015-06-08T19:45:23.755Z</time>
      </trkpt>
      <trkpt lat="48.78833" lon="2.51888">
        <ele>86.4</ele>
        <time>2015-06-08T19:45:24.768Z</time>
      </trkpt>
      <trkpt lat="48.78839" lon="2.51894">
        <ele>86.6</ele>
        <time>2015-06-08T19:45:25.772Z</time>
      </trkpt>
      <trkpt lat="48.78845" lon="2.519">
        <ele>87.1</ele>
        <time>2015-06-08T19:45:26.789Z</time>
      </trkpt>
      <trkpt lat="48.78851" lon="2.51906">
        <ele>86.8</ele>
        <time>2015-06-08T19:45:27.795Z</time>
      </trkpt>
      <trkpt lat="48.78857" lon="2.51911">
        <ele>86.5</ele>
        <time>2015-06-08T19:45:28.813Z</time>
      </trkpt>
      <trkpt lat="48.78864" lon="2.51916">
        <ele>86.4</ele>
        <time>2015-06-08T19:45:29.729Z</time>
      </trkpt>
      <trkpt lat="48.78869" lon="2.51921">
        <ele>86.2</ele>
        <time>2015-06-08T19:45:30.759Z</time>
      </trkpt>
      <trkpt lat="48.78873" lon="2.51928">
        <ele>86.1</ele>
        <time>2015-06-08T19:45:31.760Z</time>
      </trkpt>
      <trkpt lat="48.78878" lon="2.51934">
        <ele>86.1</ele>
        <time>2015-06-08T19:45:32.799Z</time>
      </trkpt>
      <trkpt lat="48.78884" lon="2.51941">
        <ele>85.9</ele>
        <time>2015-06-08T19:45:33.800Z</time>
      </trkpt>
      <trkpt lat="48.78888" lon="2.51947">
        <ele>85.7</ele>
        <time>2015-06-08T19:45:34.695Z</time>
      </trkpt>
      <trkpt lat="48.78893" lon="2.51953">
        <ele>85.7</ele>
        <time>2015-06-08T19:45:35.713Z</time>
      </trkpt>
      <trkpt lat="48.78898" lon="2.51959">
        <ele>86.1</ele>
        <time>2015-06-08T19:45:36.717Z</time>
      </trkpt>
      <trkpt lat="48.78904" lon="2.51964">
        <ele>86.1</ele>
        <time>2015-06-08T19:45:37.729Z</time>
      </trkpt>
      <trkpt lat="48.78909" lon="2.51969">
        <ele>85.6</ele>
        <time>2015-06-08T19:45:38.811Z</time>
      </trkpt>
      <trkpt lat="48.78915" lon="2.51974">
        <ele>85.5</ele>
        <time>2015-06-08T19:45:39.805Z</time>
      </trkpt>
      <trkpt lat="48.78921" lon="2.5198">
        <ele>85.1</ele>
        <time>2015-06-08T19:45:40.717Z</time>
      </trkpt>
      <trkpt lat="48.78925" lon="2.51986">
        <ele>85.6</ele>
        <time>2015-06-08T19:45:41.717Z</time>
      </trkpt>
      <trkpt lat="48.7893" lon="2.51991">
        <ele>85.8</ele>
        <time>2015-06-08T19:45:42.724Z</time>
      </trkpt>
      <trkpt lat="48.78936" lon="2.51998">
        <ele>85.9</ele>
        <time>2015-06-08T19:45:43.728Z</time>
      </trkpt>
      <trkpt lat="48.78942" lon="2.52004">
        <ele>85.7</ele>
        <time>2015-06-08T19:45:44.771Z</time>
      </trkpt>
      <trkpt lat="48.78948" lon="2.5201">
        <ele>85.4</ele>
        <time>2015-06-08T19:45:45.791Z</time>
      </trkpt>
      <trkpt lat="48.78953" lon="2.52017">
        <ele>85.2</ele>
        <time>2015-06-08T19:45:46.797Z</time>
      </trkpt>
      <trkpt lat="48.78959" lon="2.52024">
        <ele>85.5</ele>
        <time>2015-06-08T19:45:47.720Z</time>
      </trkpt>
      <trkpt lat="48.78965" lon="2.52029">
        <ele>85.8</ele>
        <time>2015-06-08T19:45:48.731Z</time>
      </trkpt>
      <trkpt lat="48.78971" lon="2.52032">
        <ele>86.1</ele>
        <time>2015-06-08T19:45:49.746Z</time>
      </trkpt>
      <trkpt lat="48.78977" lon="2.52035">
        <ele>86.7</ele>
        <time>2015-06-08T19:45:50.753Z</time>
      </trkpt>
      <trkpt lat="48.78982" lon="2.52039">
        <ele>86.6</ele>
        <time>2015-06-08T19:45:51.762Z</time>
      </trkpt>
      <trkpt lat="48.78986" lon="2.52044">
        <ele>86.7</ele>
        <time>2015-06-08T19:45:52.770Z</time>
      </trkpt>
      <trkpt lat="48.78991" lon="2.52049">
        <ele>86.7</ele>
        <time>2015-06-08T19:45:53.774Z</time>
      </trkpt>
      <trkpt lat="48.78996" lon="2.52054">
        <ele>87</ele>
        <time>2015-06-08T19:45:54.736Z</time>
      </trkpt>
      <trkpt lat="48.79003" lon="2.52059">
        <ele>87.1</ele>
        <time>2015-06-08T19:45:55.717Z</time>
      </trkpt>
      <trkpt lat="48.79008" lon="2.52065">
        <ele>87.1</ele>
        <time>2015-06-08T19:45:56.753Z</time>
      </trkpt>
      <trkpt lat="48.79014" lon="2.52069">
        <ele>87.2</ele>
        <time>2015-06-08T19:45:57.748Z</time>
      </trkpt>
      <trkpt lat="48.79019" lon="2.52073">
        <ele>87.1</ele>
        <time>2015-06-08T19:45:58.754Z</time>
      </trkpt>
      <trkpt lat="48.79024" lon="2.52074">
        <ele>87.2</ele>
        <time>2015-06-08T19:45:59.759Z</time>
      </trkpt>
      <trkpt lat="48.7903" lon="2.52075">
        <ele>87.2</ele>
        <time>2015-06-08T19:46:00.774Z</time>
      </trkpt>
      <trkpt lat="48.79035" lon="2.52076">
        <ele>87</ele>
        <time>2015-06-08T19:46:01.775Z</time>
      </trkpt>
      <trkpt lat="48.79041" lon="2.52076">
        <ele>87.3</ele>
        <time>2015-06-08T19:46:02.790Z</time>
      </trkpt>
      <trkpt lat="48.79049" lon="2.52074">
        <ele>87</ele>
        <time>2015-06-08T19:46:03.702Z</time>
      </trkpt>
      <trkpt lat="48.79057" lon="2.52072">
        <ele>87.6</ele>
        <time>2015-06-08T19:46:04.714Z</time>
      </trkpt>
      <trkpt lat="48.79062" lon="2.52072">
        <ele>87.7</ele>
        <time>2015-06-08T19:46:05.726Z</time>
      </trkpt>
      <trkpt lat="48.79068" lon="2.52073">
        <ele>87.9</ele>
        <time>2015-06-08T19:46:06.729Z</time>
      </trkpt>
      <trkpt lat="48.79073" lon="2.52073">
        <ele>88.1</ele>
        <time>2015-06-08T19:46:07.734Z</time>
      </trkpt>
      <trkpt lat="48.7908" lon="2.52079">
        <ele>88</ele>
        <time>2015-06-08T19:46:09.758Z</time>
      </trkpt>
      <trkpt lat="48.79081" lon="2.52082">
        <ele>88.4</ele>
        <time>2015-06-08T19:46:10.770Z</time>
      </trkpt>
      <trkpt lat="48.79086" lon="2.52087">
        <ele>89.4</ele>
        <time>2015-06-08T19:50:41.798Z</time>
      </trkpt>
      <trkpt lat="48.79094" lon="2.52088">
        <ele>90.9</ele>
        <time>2015-06-08T19:50:42.746Z</time>
      </trkpt>
      <trkpt lat="48.79101" lon="2.52089">
        <ele>90.7</ele>
        <time>2015-06-08T19:50:46.782Z</time>
      </trkpt>
      <trkpt lat="48.79103" lon="2.52089">
        <ele>90.7</ele>
        <time>2015-06-08T19:50:47.742Z</time>
      </trkpt>
      <trkpt lat="48.79112" lon="2.5209">
        <ele>90.7</ele>
        <time>2015-06-08T19:50:51.740Z</time>
      </trkpt>
      <trkpt lat="48.79114" lon="2.52091">
        <ele>90.9</ele>
        <time>2015-06-08T19:50:52.838Z</time>
      </trkpt>
      <trkpt lat="48.7912" lon="2.52099">
        <ele>91</ele>
        <time>2015-06-08T19:50:56.792Z</time>
      </trkpt>
      <trkpt lat="48.79121" lon="2.52101">
        <ele>90.8</ele>
        <time>2015-06-08T19:50:57.793Z</time>
      </trkpt>
      <trkpt lat="48.79126" lon="2.52103">
        <ele>90.6</ele>
        <time>2015-06-08T19:50:59.816Z</time>
      </trkpt>
      <trkpt lat="48.79131" lon="2.52102">
        <ele>90.5</ele>
        <time>2015-06-08T19:51:00.754Z</time>
      </trkpt>
      <trkpt lat="48.79136" lon="2.52101">
        <ele>90.5</ele>
        <time>2015-06-08T19:51:01.694Z</time>
      </trkpt>
      <trkpt lat="48.7914" lon="2.52097">
        <ele>90.5</ele>
        <time>2015-06-08T19:51:02.788Z</time>
      </trkpt>
      <trkpt lat="48.79144" lon="2.52093">
        <ele>90.4</ele>
        <time>2015-06-08T19:51:03.779Z</time>
      </trkpt>
      <trkpt lat="48.79148" lon="2.52088">
        <ele>90.4</ele>
        <time>2015-06-08T19:51:04.663Z</time>
      </trkpt>
      <trkpt lat="48.79152" lon="2.52078">
        <ele>90.2</ele>
        <time>2015-06-08T19:51:06.695Z</time>
      </trkpt>
      <trkpt lat="48.79155" lon="2.52072">
        <ele>90.1</ele>
        <time>2015-06-08T19:51:07.785Z</time>
      </trkpt>
      <trkpt lat="48.79159" lon="2.5206">
        <ele>90.1</ele>
        <time>2015-06-08T19:51:10.717Z</time>
      </trkpt>
      <trkpt lat="48.79163" lon="2.52053">
        <ele>89.7</ele>
        <time>2015-06-08T19:51:10.775Z</time>
      </trkpt>
      <trkpt lat="48.79169" lon="2.52048">
        <ele>89.4</ele>
        <time>2015-06-08T19:51:12.650Z</time>
      </trkpt>
      <trkpt lat="48.79172" lon="2.52047">
        <ele>89.6</ele>
        <time>2015-06-08T19:51:13.687Z</time>
      </trkpt>
      <trkpt lat="48.79179" lon="2.52046">
        <ele>90</ele>
        <time>2015-06-08T19:51:14.679Z</time>
      </trkpt>
      <trkpt lat="48.79183" lon="2.52046">
        <ele>90.4</ele>
        <time>2015-06-08T19:51:15.692Z</time>
      </trkpt>
      <trkpt lat="48.7919" lon="2.52054">
        <ele>90.8</ele>
        <time>2015-06-08T19:51:17.704Z</time>
      </trkpt>
      <trkpt lat="48.79192" lon="2.52058">
        <ele>90.8</ele>
        <time>2015-06-08T19:51:18.849Z</time>
      </trkpt>
      <trkpt lat="48.79196" lon="2.52062">
        <ele>90.8</ele>
        <time>2015-06-08T19:51:19.667Z</time>
      </trkpt>
      <trkpt lat="48.79199" lon="2.5207">
        <ele>89.8</ele>
        <time>2015-06-08T19:51:20.693Z</time>
      </trkpt>
      <trkpt lat="48.79202" lon="2.52083">
        <ele>89.2</ele>
        <time>2015-06-08T19:51:22.723Z</time>
      </trkpt>
      <trkpt lat="48.79201" lon="2.52089">
        <ele>89.3</ele>
        <time>2015-06-08T19:51:23.738Z</time>
      </trkpt>
      <trkpt lat="48.792" lon="2.521">
        <ele>89.4</ele>
        <time>2015-06-08T19:51:25.672Z</time>
      </trkpt>
      <trkpt lat="48.79202" lon="2.52105">
        <ele>88.8</ele>
        <time>2015-06-08T19:51:26.721Z</time>
      </trkpt>
      <trkpt lat="48.79203" lon="2.52112">
        <ele>88.5</ele>
        <time>2015-06-08T19:51:27.667Z</time>
      </trkpt>
      <trkpt lat="48.79204" lon="2.52121">
        <ele>88.3</ele>
        <time>2015-06-08T19:51:28.665Z</time>
      </trkpt>
      <trkpt lat="48.79205" lon="2.52132">
        <ele>87.9</ele>
        <time>2015-06-08T19:51:29.667Z</time>
      </trkpt>
      <trkpt lat="48.79207" lon="2.52139">
        <ele>88.1</ele>
        <time>2015-06-08T19:51:30.701Z</time>
      </trkpt>
      <trkpt lat="48.79211" lon="2.52148">
        <ele>88.6</ele>
        <time>2015-06-08T19:51:32.739Z</time>
      </trkpt>
      <trkpt lat="48.79214" lon="2.52152">
        <ele>88.9</ele>
        <time>2015-06-08T19:51:33.703Z</time>
      </trkpt>
      <trkpt lat="48.79221" lon="2.52157">
        <ele>88.3</ele>
        <time>2015-06-08T19:51:35.692Z</time>
      </trkpt>
      <trkpt lat="48.79227" lon="2.52161">
        <ele>88.2</ele>
        <time>2015-06-08T19:51:36.734Z</time>
      </trkpt>
      <trkpt lat="48.79234" lon="2.52163">
        <ele>87.7</ele>
        <time>2015-06-08T19:51:37.678Z</time>
      </trkpt>
      <trkpt lat="48.79239" lon="2.52163">
        <ele>87.7</ele>
        <time>2015-06-08T19:51:38.724Z</time>
      </trkpt>
      <trkpt lat="48.79243" lon="2.52164">
        <ele>87.7</ele>
        <time>2015-06-08T19:51:39.722Z</time>
      </trkpt>
      <trkpt lat="48.79248" lon="2.52167">
        <ele>87.5</ele>
        <time>2015-06-08T19:51:40.734Z</time>
      </trkpt>
      <trkpt lat="48.79253" lon="2.52169">
        <ele>87.3</ele>
        <time>2015-06-08T19:51:41.740Z</time>
      </trkpt>
      <trkpt lat="48.79258" lon="2.52172">
        <ele>86.9</ele>
        <time>2015-06-08T19:51:42.750Z</time>
      </trkpt>
      <trkpt lat="48.79263" lon="2.52173">
        <ele>86.5</ele>
        <time>2015-06-08T19:51:43.653Z</time>
      </trkpt>
      <trkpt lat="48.79269" lon="2.52174">
        <ele>85.9</ele>
        <time>2015-06-08T19:51:44.724Z</time>
      </trkpt>
      <trkpt lat="48.79277" lon="2.52179">
        <ele>84.9</ele>
        <time>2015-06-08T19:51:46.732Z</time>
      </trkpt>
      <trkpt lat="48.7928" lon="2.52181">
        <ele>85</ele>
        <time>2015-06-08T19:51:47.788Z</time>
      </trkpt>
      <trkpt lat="48.79288" lon="2.52185">
        <ele>85.8</ele>
        <time>2015-06-08T19:51:49.743Z</time>
      </trkpt>
      <trkpt lat="48.79292" lon="2.52186">
        <ele>86.3</ele>
        <time>2015-06-08T19:51:50.771Z</time>
      </trkpt>
      <trkpt lat="48.79296" lon="2.52187">
        <ele>86.6</ele>
        <time>2015-06-08T19:51:51.760Z</time>
      </trkpt>
      <trkpt lat="48.79301" lon="2.52188">
        <ele>85.7</ele>
        <time>2015-06-08T19:51:52.690Z</time>
      </trkpt>
      <trkpt lat="48.79306" lon="2.52189">
        <ele>85.7</ele>
        <time>2015-06-08T19:51:53.722Z</time>
      </trkpt>
      <trkpt lat="48.79312" lon="2.52188">
        <ele>85.9</ele>
        <time>2015-06-08T19:51:54.722Z</time>
      </trkpt>
      <trkpt lat="48.79317" lon="2.52188">
        <ele>86</ele>
        <time>2015-06-08T19:51:55.741Z</time>
      </trkpt>
      <trkpt lat="48.79322" lon="2.52189">
        <ele>86.1</ele>
        <time>2015-06-08T19:51:56.749Z</time>
      </trkpt>
      <trkpt lat="48.79327" lon="2.52188">
        <ele>86.3</ele>
        <time>2015-06-08T19:51:57.680Z</time>
      </trkpt>
      <trkpt lat="48.79332" lon="2.52188">
        <ele>86.5</ele>
        <time>2015-06-08T19:51:58.688Z</time>
      </trkpt>
      <trkpt lat="48.79337" lon="2.52189">
        <ele>86.2</ele>
        <time>2015-06-08T19:51:59.749Z</time>
      </trkpt>
      <trkpt lat="48.79341" lon="2.52191">
        <ele>86.3</ele>
        <time>2015-06-08T19:52:00.747Z</time>
      </trkpt>
      <trkpt lat="48.79346" lon="2.52192">
        <ele>85.8</ele>
        <time>2015-06-08T19:52:01.871Z</time>
      </trkpt>
      <trkpt lat="48.79352" lon="2.52191">
        <ele>85.7</ele>
        <time>2015-06-08T19:52:02.842Z</time>
      </trkpt>
      <trkpt lat="48.79359" lon="2.52191">
        <ele>85.9</ele>
        <time>2015-06-08T19:52:03.687Z</time>
      </trkpt>
      <trkpt lat="48.79366" lon="2.5219">
        <ele>86</ele>
        <time>2015-06-08T19:52:04.711Z</time>
      </trkpt>
      <trkpt lat="48.79373" lon="2.5219">
        <ele>86</ele>
        <time>2015-06-08T19:52:05.733Z</time>
      </trkpt>
      <trkpt lat="48.79379" lon="2.5219">
        <ele>85.9</ele>
        <time>2015-06-08T19:52:06.744Z</time>
      </trkpt>
      <trkpt lat="48.79383" lon="2.52189">
        <ele>85.6</ele>
        <time>2015-06-08T19:52:07.688Z</time>
      </trkpt>
      <trkpt lat="48.79389" lon="2.52188">
        <ele>85.5</ele>
        <time>2015-06-08T19:52:08.734Z</time>
      </trkpt>
      <trkpt lat="48.79397" lon="2.5219">
        <ele>85.1</ele>
        <time>2015-06-08T19:52:10.752Z</time>
      </trkpt>
      <trkpt lat="48.79402" lon="2.52191">
        <ele>85</ele>
        <time>2015-06-08T19:52:11.763Z</time>
      </trkpt>
      <trkpt lat="48.7941" lon="2.52194">
        <ele>84.7</ele>
        <time>2015-06-08T19:52:13.699Z</time>
      </trkpt>
      <trkpt lat="48.79416" lon="2.52195">
        <ele>84.9</ele>
        <time>2015-06-08T19:52:14.762Z</time>
      </trkpt>
      <trkpt lat="48.79424" lon="2.52197">
        <ele>85.5</ele>
        <time>2015-06-08T19:52:16.690Z</time>
      </trkpt>
      <trkpt lat="48.79428" lon="2.52197">
        <ele>86</ele>
        <time>2015-06-08T19:52:17.692Z</time>
      </trkpt>
      <trkpt lat="48.79436" lon="2.52199">
        <ele>87.1</ele>
        <time>2015-06-08T19:52:19.722Z</time>
      </trkpt>
      <trkpt lat="48.7944" lon="2.52201">
        <ele>86.8</ele>
        <time>2015-06-08T19:52:20.769Z</time>
      </trkpt>
      <trkpt lat="48.79449" lon="2.52202">
        <ele>87.7</ele>
        <time>2015-06-08T19:52:22.724Z</time>
      </trkpt>
      <trkpt lat="48.79454" lon="2.52202">
        <ele>87.8</ele>
        <time>2015-06-08T19:52:23.756Z</time>
      </trkpt>
      <trkpt lat="48.79459" lon="2.52202">
        <ele>87.4</ele>
        <time>2015-06-08T19:52:24.773Z</time>
      </trkpt>
      <trkpt lat="48.79465" lon="2.52203">
        <ele>87.1</ele>
        <time>2015-06-08T19:52:25.778Z</time>
      </trkpt>
      <trkpt lat="48.7947" lon="2.52205">
        <ele>87</ele>
        <time>2015-06-08T19:52:26.794Z</time>
      </trkpt>
      <trkpt lat="48.79477" lon="2.52205">
        <ele>86.8</ele>
        <time>2015-06-08T19:52:27.691Z</time>
      </trkpt>
      <trkpt lat="48.79483" lon="2.52205">
        <ele>86.9</ele>
        <time>2015-06-08T19:52:28.710Z</time>
      </trkpt>
      <trkpt lat="48.7949" lon="2.52206">
        <ele>87.2</ele>
        <time>2015-06-08T19:52:29.716Z</time>
      </trkpt>
      <trkpt lat="48.79498" lon="2.52207">
        <ele>87.2</ele>
        <time>2015-06-08T19:52:30.740Z</time>
      </trkpt>
      <trkpt lat="48.79504" lon="2.52209">
        <ele>87</ele>
        <time>2015-06-08T19:52:31.757Z</time>
      </trkpt>
      <trkpt lat="48.79511" lon="2.5221">
        <ele>87.1</ele>
        <time>2015-06-08T19:52:32.821Z</time>
      </trkpt>
      <trkpt lat="48.79515" lon="2.52211">
        <ele>87.3</ele>
        <time>2015-06-08T19:52:33.685Z</time>
      </trkpt>
      <trkpt lat="48.7952" lon="2.52211">
        <ele>87.3</ele>
        <time>2015-06-08T19:52:34.716Z</time>
      </trkpt>
      <trkpt lat="48.79528" lon="2.52209">
        <ele>87.3</ele>
        <time>2015-06-08T19:52:35.732Z</time>
      </trkpt>
      <trkpt lat="48.79536" lon="2.52214">
        <ele>87.5</ele>
        <time>2015-06-08T19:52:37.661Z</time>
      </trkpt>
      <trkpt lat="48.79542" lon="2.52217">
        <ele>87.5</ele>
        <time>2015-06-08T19:52:38.749Z</time>
      </trkpt>
      <trkpt lat="48.79548" lon="2.52219">
        <ele>87.5</ele>
        <time>2015-06-08T19:52:39.687Z</time>
      </trkpt>
      <trkpt lat="48.79554" lon="2.52221">
        <ele>87.6</ele>
        <time>2015-06-08T19:52:40.688Z</time>
      </trkpt>
      <trkpt lat="48.79559" lon="2.52223">
        <ele>87.2</ele>
        <time>2015-06-08T19:52:41.709Z</time>
      </trkpt>
      <trkpt lat="48.79563" lon="2.52225">
        <ele>86.9</ele>
        <time>2015-06-08T19:52:42.700Z</time>
      </trkpt>
      <trkpt lat="48.79571" lon="2.5223">
        <ele>85.9</ele>
        <time>2015-06-08T19:52:44.722Z</time>
      </trkpt>
      <trkpt lat="48.79573" lon="2.52232">
        <ele>85.5</ele>
        <time>2015-06-08T19:52:45.751Z</time>
      </trkpt>
      <trkpt lat="48.79582" lon="2.52236">
        <ele>85.2</ele>
        <time>2015-06-08T19:52:47.699Z</time>
      </trkpt>
      <trkpt lat="48.79588" lon="2.52237">
        <ele>84.9</ele>
        <time>2015-06-08T19:52:48.755Z</time>
      </trkpt>
      <trkpt lat="48.79594" lon="2.52237">
        <ele>85</ele>
        <time>2015-06-08T19:52:49.697Z</time>
      </trkpt>
      <trkpt lat="48.796" lon="2.52237">
        <ele>85.3</ele>
        <time>2015-06-08T19:52:50.732Z</time>
      </trkpt>
      <trkpt lat="48.79607" lon="2.52238">
        <ele>85.4</ele>
        <time>2015-06-08T19:52:51.736Z</time>
      </trkpt>
      <trkpt lat="48.79614" lon="2.52239">
        <ele>85.4</ele>
        <time>2015-06-08T19:52:52.751Z</time>
      </trkpt>
      <trkpt lat="48.79619" lon="2.5224">
        <ele>85.3</ele>
        <time>2015-06-08T19:52:53.759Z</time>
      </trkpt>
      <trkpt lat="48.79624" lon="2.52241">
        <ele>85.4</ele>
        <time>2015-06-08T19:52:54.763Z</time>
      </trkpt>
      <trkpt lat="48.79628" lon="2.52243">
        <ele>85.3</ele>
        <time>2015-06-08T19:52:55.710Z</time>
      </trkpt>
      <trkpt lat="48.79633" lon="2.52245">
        <ele>85.2</ele>
        <time>2015-06-08T19:52:56.824Z</time>
      </trkpt>
      <trkpt lat="48.79639" lon="2.52247">
        <ele>85.3</ele>
        <time>2015-06-08T19:52:57.684Z</time>
      </trkpt>
      <trkpt lat="48.79645" lon="2.52248">
        <ele>85.2</ele>
        <time>2015-06-08T19:52:58.709Z</time>
      </trkpt>
      <trkpt lat="48.79651" lon="2.52248">
        <ele>85</ele>
        <time>2015-06-08T19:52:59.692Z</time>
      </trkpt>
      <trkpt lat="48.79658" lon="2.52246">
        <ele>85.1</ele>
        <time>2015-06-08T19:53:00.684Z</time>
      </trkpt>
      <trkpt lat="48.79665" lon="2.52247">
        <ele>84.9</ele>
        <time>2015-06-08T19:53:01.699Z</time>
      </trkpt>
      <trkpt lat="48.7967" lon="2.52248">
        <ele>84.8</ele>
        <time>2015-06-08T19:53:02.762Z</time>
      </trkpt>
      <trkpt lat="48.79677" lon="2.52249">
        <ele>84.7</ele>
        <time>2015-06-08T19:53:03.764Z</time>
      </trkpt>
      <trkpt lat="48.79684" lon="2.5225">
        <ele>84.4</ele>
        <time>2015-06-08T19:53:04.773Z</time>
      </trkpt>
      <trkpt lat="48.79688" lon="2.52251">
        <ele>84.5</ele>
        <time>2015-06-08T19:53:05.785Z</time>
      </trkpt>
      <trkpt lat="48.79695" lon="2.5225">
        <ele>85.1</ele>
        <time>2015-06-08T19:53:06.704Z</time>
      </trkpt>
      <trkpt lat="48.797" lon="2.52251">
        <ele>84.9</ele>
        <time>2015-06-08T19:53:07.704Z</time>
      </trkpt>
      <trkpt lat="48.79705" lon="2.52249">
        <ele>85.1</ele>
        <time>2015-06-08T19:53:08.750Z</time>
      </trkpt>
      <trkpt lat="48.79711" lon="2.52246">
        <ele>85.5</ele>
        <time>2015-06-08T19:53:09.768Z</time>
      </trkpt>
      <trkpt lat="48.79716" lon="2.52246">
        <ele>85.3</ele>
        <time>2015-06-08T19:53:10.686Z</time>
      </trkpt>
      <trkpt lat="48.79723" lon="2.52246">
        <ele>85.6</ele>
        <time>2015-06-08T19:53:11.688Z</time>
      </trkpt>
      <trkpt lat="48.79734" lon="2.52242">
        <ele>85.9</ele>
        <time>2015-06-08T19:53:12.701Z</time>
      </trkpt>
      <trkpt lat="48.79743" lon="2.52239">
        <ele>86.2</ele>
        <time>2015-06-08T19:53:13.715Z</time>
      </trkpt>
      <trkpt lat="48.7975" lon="2.52237">
        <ele>86.3</ele>
        <time>2015-06-08T19:53:14.743Z</time>
      </trkpt>
      <trkpt lat="48.79758" lon="2.52234">
        <ele>86.6</ele>
        <time>2015-06-08T19:53:15.743Z</time>
      </trkpt>
      <trkpt lat="48.79763" lon="2.52232">
        <ele>86.8</ele>
        <time>2015-06-08T19:53:16.763Z</time>
      </trkpt>
      <trkpt lat="48.79769" lon="2.52231">
        <ele>86.8</ele>
        <time>2015-06-08T19:53:17.780Z</time>
      </trkpt>
      <trkpt lat="48.79775" lon="2.5223">
        <ele>86.9</ele>
        <time>2015-06-08T19:53:18.704Z</time>
      </trkpt>
      <trkpt lat="48.79782" lon="2.52228">
        <ele>86.4</ele>
        <time>2015-06-08T19:53:19.703Z</time>
      </trkpt>
      <trkpt lat="48.79789" lon="2.52229">
        <ele>86</ele>
        <time>2015-06-08T19:53:20.765Z</time>
      </trkpt>
      <trkpt lat="48.79794" lon="2.52228">
        <ele>85.4</ele>
        <time>2015-06-08T19:53:21.758Z</time>
      </trkpt>
      <trkpt lat="48.798" lon="2.52227">
        <ele>85.1</ele>
        <time>2015-06-08T19:53:22.773Z</time>
      </trkpt>
      <trkpt lat="48.79806" lon="2.52226">
        <ele>85.1</ele>
        <time>2015-06-08T19:53:23.788Z</time>
      </trkpt>
      <trkpt lat="48.79811" lon="2.52225">
        <ele>85.2</ele>
        <time>2015-06-08T19:53:24.719Z</time>
      </trkpt>
      <trkpt lat="48.79816" lon="2.52224">
        <ele>85.2</ele>
        <time>2015-06-08T19:53:25.695Z</time>
      </trkpt>
      <trkpt lat="48.79822" lon="2.52223">
        <ele>85.2</ele>
        <time>2015-06-08T19:53:26.746Z</time>
      </trkpt>
      <trkpt lat="48.79828" lon="2.52222">
        <ele>85.2</ele>
        <time>2015-06-08T19:53:27.749Z</time>
      </trkpt>
      <trkpt lat="48.79834" lon="2.52222">
        <ele>85.4</ele>
        <time>2015-06-08T19:53:28.759Z</time>
      </trkpt>
      <trkpt lat="48.7984" lon="2.52221">
        <ele>85.7</ele>
        <time>2015-06-08T19:53:29.770Z</time>
      </trkpt>
      <trkpt lat="48.79846" lon="2.52221">
        <ele>85.5</ele>
        <time>2015-06-08T19:53:30.775Z</time>
      </trkpt>
      <trkpt lat="48.79851" lon="2.5222">
        <ele>85.6</ele>
        <time>2015-06-08T19:53:31.778Z</time>
      </trkpt>
      <trkpt lat="48.79855" lon="2.5222">
        <ele>85.8</ele>
        <time>2015-06-08T19:53:32.799Z</time>
      </trkpt>
      <trkpt lat="48.7986" lon="2.52221">
        <ele>85.4</ele>
        <time>2015-06-08T19:53:33.702Z</time>
      </trkpt>
      <trkpt lat="48.79864" lon="2.52221">
        <ele>85.3</ele>
        <time>2015-06-08T19:53:34.708Z</time>
      </trkpt>
      <trkpt lat="48.79869" lon="2.5222">
        <ele>85.2</ele>
        <time>2015-06-08T19:53:35.722Z</time>
      </trkpt>
      <trkpt lat="48.79874" lon="2.52219">
        <ele>85.4</ele>
        <time>2015-06-08T19:53:36.736Z</time>
      </trkpt>
      <trkpt lat="48.7988" lon="2.52218">
        <ele>85.3</ele>
        <time>2015-06-08T19:53:37.749Z</time>
      </trkpt>
      <trkpt lat="48.79885" lon="2.52216">
        <ele>85.3</ele>
        <time>2015-06-08T19:53:38.763Z</time>
      </trkpt>
      <trkpt lat="48.79892" lon="2.52216">
        <ele>85.4</ele>
        <time>2015-06-08T19:53:39.780Z</time>
      </trkpt>
      <trkpt lat="48.79899" lon="2.52215">
        <ele>85.4</ele>
        <time>2015-06-08T19:53:40.696Z</time>
      </trkpt>
      <trkpt lat="48.79906" lon="2.52214">
        <ele>85</ele>
        <time>2015-06-08T19:53:41.698Z</time>
      </trkpt>
      <trkpt lat="48.79913" lon="2.52213">
        <ele>84.6</ele>
        <time>2015-06-08T19:53:42.725Z</time>
      </trkpt>
      <trkpt lat="48.79922" lon="2.52213">
        <ele>84.1</ele>
        <time>2015-06-08T19:53:43.733Z</time>
      </trkpt>
      <trkpt lat="48.79931" lon="2.5221">
        <ele>83.8</ele>
        <time>2015-06-08T19:53:44.753Z</time>
      </trkpt>
      <trkpt lat="48.79941" lon="2.52209">
        <ele>83.5</ele>
        <time>2015-06-08T19:53:45.751Z</time>
      </trkpt>
      <trkpt lat="48.79949" lon="2.52206">
        <ele>83.2</ele>
        <time>2015-06-08T19:53:46.773Z</time>
      </trkpt>
      <trkpt lat="48.79957" lon="2.52205">
        <ele>83.1</ele>
        <time>2015-06-08T19:53:47.707Z</time>
      </trkpt>
      <trkpt lat="48.79965" lon="2.52206">
        <ele>83.3</ele>
        <time>2015-06-08T19:53:48.690Z</time>
      </trkpt>
      <trkpt lat="48.79971" lon="2.52204">
        <ele>83.3</ele>
        <time>2015-06-08T19:53:49.699Z</time>
      </trkpt>
      <trkpt lat="48.7998" lon="2.52201">
        <ele>82.5</ele>
        <time>2015-06-08T19:53:50.750Z</time>
      </trkpt>
      <trkpt lat="48.79985" lon="2.522">
        <ele>82.2</ele>
        <time>2015-06-08T19:53:51.756Z</time>
      </trkpt>
      <trkpt lat="48.79991" lon="2.52201">
        <ele>82.3</ele>
        <time>2015-06-08T19:53:52.767Z</time>
      </trkpt>
      <trkpt lat="48.79996" lon="2.52204">
        <ele>82.4</ele>
        <time>2015-06-08T19:53:53.701Z</time>
      </trkpt>
      <trkpt lat="48.80001" lon="2.52208">
        <ele>82.4</ele>
        <time>2015-06-08T19:53:54.700Z</time>
      </trkpt>
      <trkpt lat="48.80005" lon="2.52212">
        <ele>82.5</ele>
        <time>2015-06-08T19:53:55.704Z</time>
      </trkpt>
      <trkpt lat="48.80009" lon="2.52216">
        <ele>82.9</ele>
        <time>2015-06-08T19:53:56.744Z</time>
      </trkpt>
      <trkpt lat="48.80018" lon="2.52219">
        <ele>84</ele>
        <time>2015-06-08T19:53:58.754Z</time>
      </trkpt>
      <trkpt lat="48.80025" lon="2.52217">
        <ele>84.2</ele>
        <time>2015-06-08T19:53:59.720Z</time>
      </trkpt>
      <trkpt lat="48.80033" lon="2.52216">
        <ele>84.7</ele>
        <time>2015-06-08T19:54:00.674Z</time>
      </trkpt>
      <trkpt lat="48.80043" lon="2.52214">
        <ele>84.4</ele>
        <time>2015-06-08T19:54:01.700Z</time>
      </trkpt>
      <trkpt lat="48.80052" lon="2.52214">
        <ele>84.5</ele>
        <time>2015-06-08T19:54:02.748Z</time>
      </trkpt>
      <trkpt lat="48.80061" lon="2.52213">
        <ele>84.8</ele>
        <time>2015-06-08T19:54:03.749Z</time>
      </trkpt>
      <trkpt lat="48.80067" lon="2.52213">
        <ele>84.7</ele>
        <time>2015-06-08T19:54:04.767Z</time>
      </trkpt>
      <trkpt lat="48.80073" lon="2.52214">
        <ele>84.7</ele>
        <time>2015-06-08T19:54:05.687Z</time>
      </trkpt>
      <trkpt lat="48.8008" lon="2.52217">
        <ele>84.8</ele>
        <time>2015-06-08T19:54:06.691Z</time>
      </trkpt>
      <trkpt lat="48.80087" lon="2.52219">
        <ele>85.2</ele>
        <time>2015-06-08T19:54:07.708Z</time>
      </trkpt>
      <trkpt lat="48.80094" lon="2.52221">
        <ele>85.3</ele>
        <time>2015-06-08T19:54:08.728Z</time>
      </trkpt>
      <trkpt lat="48.80102" lon="2.52223">
        <ele>85.9</ele>
        <time>2015-06-08T19:54:09.699Z</time>
      </trkpt>
      <trkpt lat="48.8011" lon="2.52225">
        <ele>86.3</ele>
        <time>2015-06-08T19:54:10.702Z</time>
      </trkpt>
      <trkpt lat="48.8012" lon="2.52226">
        <ele>86.7</ele>
        <time>2015-06-08T19:54:11.726Z</time>
      </trkpt>
      <trkpt lat="48.80126" lon="2.52226">
        <ele>86.1</ele>
        <time>2015-06-08T19:54:12.714Z</time>
      </trkpt>
      <trkpt lat="48.80132" lon="2.52228">
        <ele>86</ele>
        <time>2015-06-08T19:54:13.742Z</time>
      </trkpt>
      <trkpt lat="48.80141" lon="2.52229">
        <ele>85.6</ele>
        <time>2015-06-08T19:54:14.786Z</time>
      </trkpt>
      <trkpt lat="48.80148" lon="2.52229">
        <ele>85.3</ele>
        <time>2015-06-08T19:54:15.762Z</time>
      </trkpt>
      <trkpt lat="48.80155" lon="2.52231">
        <ele>85.5</ele>
        <time>2015-06-08T19:54:16.730Z</time>
      </trkpt>
      <trkpt lat="48.80161" lon="2.52232">
        <ele>86</ele>
        <time>2015-06-08T19:54:17.698Z</time>
      </trkpt>
      <trkpt lat="48.80168" lon="2.52232">
        <ele>86.3</ele>
        <time>2015-06-08T19:54:18.720Z</time>
      </trkpt>
      <trkpt lat="48.80174" lon="2.52231">
        <ele>85.9</ele>
        <time>2015-06-08T19:54:19.737Z</time>
      </trkpt>
      <trkpt lat="48.80181" lon="2.52231">
        <ele>85.1</ele>
        <time>2015-06-08T19:54:20.738Z</time>
      </trkpt>
      <trkpt lat="48.80188" lon="2.5223">
        <ele>85</ele>
        <time>2015-06-08T19:54:21.741Z</time>
      </trkpt>
      <trkpt lat="48.80196" lon="2.5223">
        <ele>85.9</ele>
        <time>2015-06-08T19:54:22.758Z</time>
      </trkpt>
      <trkpt lat="48.80203" lon="2.5223">
        <ele>85.7</ele>
        <time>2015-06-08T19:54:23.666Z</time>
      </trkpt>
      <trkpt lat="48.80209" lon="2.52229">
        <ele>86.1</ele>
        <time>2015-06-08T19:54:24.723Z</time>
      </trkpt>
      <trkpt lat="48.80216" lon="2.52229">
        <ele>85.8</ele>
        <time>2015-06-08T19:54:25.729Z</time>
      </trkpt>
      <trkpt lat="48.80222" lon="2.52229">
        <ele>85.2</ele>
        <time>2015-06-08T19:54:26.770Z</time>
      </trkpt>
      <trkpt lat="48.8023" lon="2.52229">
        <ele>85</ele>
        <time>2015-06-08T19:54:27.678Z</time>
      </trkpt>
      <trkpt lat="48.80235" lon="2.52227">
        <ele>84.9</ele>
        <time>2015-06-08T19:54:28.723Z</time>
      </trkpt>
      <trkpt lat="48.80242" lon="2.52224">
        <ele>85.5</ele>
        <time>2015-06-08T19:54:29.743Z</time>
      </trkpt>
      <trkpt lat="48.8025" lon="2.52222">
        <ele>85.8</ele>
        <time>2015-06-08T19:54:30.729Z</time>
      </trkpt>
      <trkpt lat="48.80256" lon="2.52221">
        <ele>85.9</ele>
        <time>2015-06-08T19:54:31.720Z</time>
      </trkpt>
      <trkpt lat="48.80267" lon="2.5222">
        <ele>85.9</ele>
        <time>2015-06-08T19:54:32.774Z</time>
      </trkpt>
      <trkpt lat="48.80276" lon="2.5222">
        <ele>85.6</ele>
        <time>2015-06-08T19:54:33.699Z</time>
      </trkpt>
      <trkpt lat="48.80284" lon="2.52219">
        <ele>85.6</ele>
        <time>2015-06-08T19:54:34.696Z</time>
      </trkpt>
      <trkpt lat="48.8029" lon="2.52217">
        <ele>85.8</ele>
        <time>2015-06-08T19:54:35.727Z</time>
      </trkpt>
      <trkpt lat="48.80296" lon="2.52214">
        <ele>86.1</ele>
        <time>2015-06-08T19:54:36.758Z</time>
      </trkpt>
      <trkpt lat="48.80303" lon="2.52211">
        <ele>86.3</ele>
        <time>2015-06-08T19:54:37.768Z</time>
      </trkpt>
      <trkpt lat="48.80309" lon="2.52209">
        <ele>86.2</ele>
        <time>2015-06-08T19:54:38.827Z</time>
      </trkpt>
      <trkpt lat="48.80315" lon="2.52207">
        <ele>86.4</ele>
        <time>2015-06-08T19:54:39.697Z</time>
      </trkpt>
      <trkpt lat="48.80322" lon="2.52206">
        <ele>86.5</ele>
        <time>2015-06-08T19:54:40.728Z</time>
      </trkpt>
      <trkpt lat="48.80329" lon="2.52205">
        <ele>86.5</ele>
        <time>2015-06-08T19:54:41.778Z</time>
      </trkpt>
      <trkpt lat="48.80335" lon="2.52203">
        <ele>86.3</ele>
        <time>2015-06-08T19:54:42.689Z</time>
      </trkpt>
      <trkpt lat="48.80339" lon="2.52203">
        <ele>86.6</ele>
        <time>2015-06-08T19:54:43.713Z</time>
      </trkpt>
      <trkpt lat="48.80343" lon="2.52202">
        <ele>86.9</ele>
        <time>2015-06-08T19:54:44.742Z</time>
      </trkpt>
      <trkpt lat="48.80348" lon="2.52202">
        <ele>87.1</ele>
        <time>2015-06-08T19:54:45.742Z</time>
      </trkpt>
      <trkpt lat="48.80357" lon="2.52201">
        <ele>87.5</ele>
        <time>2015-06-08T19:54:47.769Z</time>
      </trkpt>
      <trkpt lat="48.80361" lon="2.522">
        <ele>87.3</ele>
        <time>2015-06-08T19:54:48.687Z</time>
      </trkpt>
      <trkpt lat="48.80366" lon="2.52198">
        <ele>87.5</ele>
        <time>2015-06-08T19:54:49.686Z</time>
      </trkpt>
      <trkpt lat="48.80372" lon="2.52196">
        <ele>88.2</ele>
        <time>2015-06-08T19:54:50.751Z</time>
      </trkpt>
      <trkpt lat="48.80378" lon="2.52193">
        <ele>88.2</ele>
        <time>2015-06-08T19:54:51.770Z</time>
      </trkpt>
      <trkpt lat="48.80384" lon="2.52191">
        <ele>88.6</ele>
        <time>2015-06-08T19:54:52.690Z</time>
      </trkpt>
      <trkpt lat="48.8039" lon="2.52188">
        <ele>88.5</ele>
        <time>2015-06-08T19:54:53.682Z</time>
      </trkpt>
      <trkpt lat="48.80398" lon="2.52184">
        <ele>88.5</ele>
        <time>2015-06-08T19:54:54.692Z</time>
      </trkpt>
      <trkpt lat="48.80405" lon="2.52181">
        <ele>88</ele>
        <time>2015-06-08T19:54:55.707Z</time>
      </trkpt>
      <trkpt lat="48.80411" lon="2.52179">
        <ele>87.7</ele>
        <time>2015-06-08T19:54:56.728Z</time>
      </trkpt>
      <trkpt lat="48.80418" lon="2.52177">
        <ele>87.8</ele>
        <time>2015-06-08T19:54:57.719Z</time>
      </trkpt>
      <trkpt lat="48.80424" lon="2.52176">
        <ele>88</ele>
        <time>2015-06-08T19:54:58.729Z</time>
      </trkpt>
      <trkpt lat="48.80431" lon="2.52177">
        <ele>87.7</ele>
        <time>2015-06-08T19:54:59.661Z</time>
      </trkpt>
      <trkpt lat="48.80437" lon="2.52177">
        <ele>87.8</ele>
        <time>2015-06-08T19:55:00.678Z</time>
      </trkpt>
      <trkpt lat="48.80444" lon="2.52172">
        <ele>86.9</ele>
        <time>2015-06-08T19:55:01.680Z</time>
      </trkpt>
      <trkpt lat="48.8045" lon="2.52165">
        <ele>87.1</ele>
        <time>2015-06-08T19:55:02.732Z</time>
      </trkpt>
      <trkpt lat="48.80456" lon="2.52157">
        <ele>87.1</ele>
        <time>2015-06-08T19:55:03.735Z</time>
      </trkpt>
      <trkpt lat="48.80462" lon="2.52151">
        <ele>87.1</ele>
        <time>2015-06-08T19:55:04.749Z</time>
      </trkpt>
      <trkpt lat="48.80467" lon="2.52147">
        <ele>87.1</ele>
        <time>2015-06-08T19:55:05.755Z</time>
      </trkpt>
      <trkpt lat="48.80472" lon="2.52143">
        <ele>87.8</ele>
        <time>2015-06-08T19:55:06.766Z</time>
      </trkpt>
      <trkpt lat="48.80476" lon="2.5214">
        <ele>88.5</ele>
        <time>2015-06-08T19:55:07.782Z</time>
      </trkpt>
      <trkpt lat="48.80481" lon="2.52137">
        <ele>88.7</ele>
        <time>2015-06-08T19:55:08.790Z</time>
      </trkpt>
      <trkpt lat="48.80488" lon="2.52133">
        <ele>88.7</ele>
        <time>2015-06-08T19:55:09.714Z</time>
      </trkpt>
      <trkpt lat="48.80494" lon="2.52127">
        <ele>89</ele>
        <time>2015-06-08T19:55:10.707Z</time>
      </trkpt>
      <trkpt lat="48.805" lon="2.52122">
        <ele>89</ele>
        <time>2015-06-08T19:55:11.716Z</time>
      </trkpt>
      <trkpt lat="48.80506" lon="2.52116">
        <ele>89.3</ele>
        <time>2015-06-08T19:55:12.728Z</time>
      </trkpt>
      <trkpt lat="48.80512" lon="2.52111">
        <ele>89.4</ele>
        <time>2015-06-08T19:55:13.740Z</time>
      </trkpt>
      <trkpt lat="48.80519" lon="2.52106">
        <ele>88.9</ele>
        <time>2015-06-08T19:55:14.770Z</time>
      </trkpt>
      <trkpt lat="48.80523" lon="2.52101">
        <ele>88.6</ele>
        <time>2015-06-08T19:55:15.773Z</time>
      </trkpt>
      <trkpt lat="48.80528" lon="2.52096">
        <ele>88.3</ele>
        <time>2015-06-08T19:55:16.777Z</time>
      </trkpt>
      <trkpt lat="48.80533" lon="2.52092">
        <ele>87.7</ele>
        <time>2015-06-08T19:55:17.783Z</time>
      </trkpt>
      <trkpt lat="48.80538" lon="2.52087">
        <ele>86.6</ele>
        <time>2015-06-08T19:55:18.784Z</time>
      </trkpt>
      <trkpt lat="48.80544" lon="2.52081">
        <ele>86.8</ele>
        <time>2015-06-08T19:55:19.748Z</time>
      </trkpt>
      <trkpt lat="48.8055" lon="2.52077">
        <ele>86.9</ele>
        <time>2015-06-08T19:55:20.785Z</time>
      </trkpt>
      <trkpt lat="48.80555" lon="2.52073">
        <ele>87.2</ele>
        <time>2015-06-08T19:55:21.775Z</time>
      </trkpt>
      <trkpt lat="48.80561" lon="2.5207">
        <ele>87.3</ele>
        <time>2015-06-08T19:55:22.711Z</time>
      </trkpt>
      <trkpt lat="48.80566" lon="2.52066">
        <ele>87.4</ele>
        <time>2015-06-08T19:55:23.710Z</time>
      </trkpt>
      <trkpt lat="48.80571" lon="2.5206">
        <ele>87.3</ele>
        <time>2015-06-08T19:55:24.708Z</time>
      </trkpt>
      <trkpt lat="48.80577" lon="2.52054">
        <ele>86.8</ele>
        <time>2015-06-08T19:55:25.716Z</time>
      </trkpt>
      <trkpt lat="48.80582" lon="2.52048">
        <ele>86.7</ele>
        <time>2015-06-08T19:55:26.757Z</time>
      </trkpt>
      <trkpt lat="48.80587" lon="2.52043">
        <ele>86.9</ele>
        <time>2015-06-08T19:55:27.763Z</time>
      </trkpt>
      <trkpt lat="48.80591" lon="2.52038">
        <ele>86.8</ele>
        <time>2015-06-08T19:55:28.768Z</time>
      </trkpt>
      <trkpt lat="48.80597" lon="2.52032">
        <ele>87.4</ele>
        <time>2015-06-08T19:55:29.776Z</time>
      </trkpt>
      <trkpt lat="48.80603" lon="2.52027">
        <ele>87.7</ele>
        <time>2015-06-08T19:55:30.695Z</time>
      </trkpt>
      <trkpt lat="48.80608" lon="2.52021">
        <ele>87.9</ele>
        <time>2015-06-08T19:55:31.702Z</time>
      </trkpt>
      <trkpt lat="48.80614" lon="2.52017">
        <ele>87.9</ele>
        <time>2015-06-08T19:55:32.745Z</time>
      </trkpt>
      <trkpt lat="48.80619" lon="2.52012">
        <ele>86.9</ele>
        <time>2015-06-08T19:55:33.748Z</time>
      </trkpt>
      <trkpt lat="48.80624" lon="2.52006">
        <ele>85.8</ele>
        <time>2015-06-08T19:55:34.757Z</time>
      </trkpt>
      <trkpt lat="48.8063" lon="2.52">
        <ele>85.5</ele>
        <time>2015-06-08T19:55:35.756Z</time>
      </trkpt>
      <trkpt lat="48.80635" lon="2.51995">
        <ele>85.5</ele>
        <time>2015-06-08T19:55:36.764Z</time>
      </trkpt>
      <trkpt lat="48.80641" lon="2.5199">
        <ele>85.8</ele>
        <time>2015-06-08T19:55:37.781Z</time>
      </trkpt>
      <trkpt lat="48.80648" lon="2.51986">
        <ele>84.8</ele>
        <time>2015-06-08T19:55:38.787Z</time>
      </trkpt>
      <trkpt lat="48.80655" lon="2.51981">
        <ele>84.8</ele>
        <time>2015-06-08T19:55:39.720Z</time>
      </trkpt>
      <trkpt lat="48.80661" lon="2.51976">
        <ele>85</ele>
        <time>2015-06-08T19:55:40.723Z</time>
      </trkpt>
      <trkpt lat="48.80666" lon="2.51971">
        <ele>84.7</ele>
        <time>2015-06-08T19:55:41.741Z</time>
      </trkpt>
      <trkpt lat="48.80672" lon="2.51966">
        <ele>84.2</ele>
        <time>2015-06-08T19:55:42.746Z</time>
      </trkpt>
      <trkpt lat="48.80676" lon="2.5196">
        <ele>84.2</ele>
        <time>2015-06-08T19:55:43.764Z</time>
      </trkpt>
      <trkpt lat="48.80681" lon="2.51954">
        <ele>83.8</ele>
        <time>2015-06-08T19:55:44.812Z</time>
      </trkpt>
      <trkpt lat="48.80686" lon="2.51948">
        <ele>83.7</ele>
        <time>2015-06-08T19:55:45.734Z</time>
      </trkpt>
      <trkpt lat="48.80691" lon="2.51943">
        <ele>83.7</ele>
        <time>2015-06-08T19:55:46.723Z</time>
      </trkpt>
      <trkpt lat="48.80696" lon="2.51937">
        <ele>83.8</ele>
        <time>2015-06-08T19:55:47.743Z</time>
      </trkpt>
      <trkpt lat="48.80701" lon="2.51931">
        <ele>83.6</ele>
        <time>2015-06-08T19:55:48.769Z</time>
      </trkpt>
      <trkpt lat="48.80706" lon="2.51925">
        <ele>83.7</ele>
        <time>2015-06-08T19:55:49.784Z</time>
      </trkpt>
      <trkpt lat="48.80712" lon="2.51918">
        <ele>84.3</ele>
        <time>2015-06-08T19:55:50.815Z</time>
      </trkpt>
      <trkpt lat="48.80717" lon="2.51912">
        <ele>84.4</ele>
        <time>2015-06-08T19:55:51.702Z</time>
      </trkpt>
      <trkpt lat="48.80722" lon="2.51907">
        <ele>85.2</ele>
        <time>2015-06-08T19:55:52.700Z</time>
      </trkpt>
      <trkpt lat="48.80727" lon="2.51901">
        <ele>85.7</ele>
        <time>2015-06-08T19:55:53.705Z</time>
      </trkpt>
      <trkpt lat="48.80732" lon="2.51895">
        <ele>85.9</ele>
        <time>2015-06-08T19:55:54.709Z</time>
      </trkpt>
      <trkpt lat="48.80737" lon="2.51888">
        <ele>85.8</ele>
        <time>2015-06-08T19:55:55.723Z</time>
      </trkpt>
      <trkpt lat="48.80742" lon="2.51882">
        <ele>85.7</ele>
        <time>2015-06-08T19:55:56.740Z</time>
      </trkpt>
      <trkpt lat="48.80747" lon="2.51876">
        <ele>85.8</ele>
        <time>2015-06-08T19:55:57.759Z</time>
      </trkpt>
      <trkpt lat="48.80753" lon="2.51871">
        <ele>85.1</ele>
        <time>2015-06-08T19:55:58.757Z</time>
      </trkpt>
      <trkpt lat="48.80757" lon="2.51864">
        <ele>85.1</ele>
        <time>2015-06-08T19:55:59.767Z</time>
      </trkpt>
      <trkpt lat="48.80761" lon="2.51857">
        <ele>85.2</ele>
        <time>2015-06-08T19:56:00.683Z</time>
      </trkpt>
      <trkpt lat="48.80765" lon="2.5185">
        <ele>85.1</ele>
        <time>2015-06-08T19:56:01.676Z</time>
      </trkpt>
      <trkpt lat="48.80767" lon="2.51844">
        <ele>85</ele>
        <time>2015-06-08T19:56:02.730Z</time>
      </trkpt>
      <trkpt lat="48.8077" lon="2.51837">
        <ele>85.1</ele>
        <time>2015-06-08T19:56:03.720Z</time>
      </trkpt>
      <trkpt lat="48.80775" lon="2.51828">
        <ele>85.9</ele>
        <time>2015-06-08T19:56:04.743Z</time>
      </trkpt>
      <trkpt lat="48.80779" lon="2.51821">
        <ele>86.4</ele>
        <time>2015-06-08T19:56:05.673Z</time>
      </trkpt>
      <trkpt lat="48.80783" lon="2.51814">
        <ele>86.6</ele>
        <time>2015-06-08T19:56:06.673Z</time>
      </trkpt>
      <trkpt lat="48.80787" lon="2.51808">
        <ele>86.8</ele>
        <time>2015-06-08T19:56:07.660Z</time>
      </trkpt>
      <trkpt lat="48.8079" lon="2.51801">
        <ele>87.1</ele>
        <time>2015-06-08T19:56:08.718Z</time>
      </trkpt>
      <trkpt lat="48.80794" lon="2.51794">
        <ele>87.1</ele>
        <time>2015-06-08T19:56:09.731Z</time>
      </trkpt>
      <trkpt lat="48.80798" lon="2.51788">
        <ele>87</ele>
        <time>2015-06-08T19:56:10.735Z</time>
      </trkpt>
      <trkpt lat="48.80802" lon="2.51782">
        <ele>87.2</ele>
        <time>2015-06-08T19:56:11.753Z</time>
      </trkpt>
      <trkpt lat="48.80807" lon="2.51775">
        <ele>87.1</ele>
        <time>2015-06-08T19:56:12.676Z</time>
      </trkpt>
      <trkpt lat="48.80812" lon="2.51767">
        <ele>87</ele>
        <time>2015-06-08T19:56:13.686Z</time>
      </trkpt>
      <trkpt lat="48.80816" lon="2.51758">
        <ele>87.7</ele>
        <time>2015-06-08T19:56:14.685Z</time>
      </trkpt>
      <trkpt lat="48.80818" lon="2.5175">
        <ele>87.6</ele>
        <time>2015-06-08T19:56:15.696Z</time>
      </trkpt>
      <trkpt lat="48.80821" lon="2.51741">
        <ele>87.3</ele>
        <time>2015-06-08T19:56:16.707Z</time>
      </trkpt>
      <trkpt lat="48.80825" lon="2.51733">
        <ele>87.2</ele>
        <time>2015-06-08T19:56:17.725Z</time>
      </trkpt>
      <trkpt lat="48.80828" lon="2.51726">
        <ele>86.7</ele>
        <time>2015-06-08T19:56:18.735Z</time>
      </trkpt>
      <trkpt lat="48.80832" lon="2.51718">
        <ele>86.4</ele>
        <time>2015-06-08T19:56:19.662Z</time>
      </trkpt>
      <trkpt lat="48.80835" lon="2.5171">
        <ele>86.4</ele>
        <time>2015-06-08T19:56:20.762Z</time>
      </trkpt>
      <trkpt lat="48.80838" lon="2.51701">
        <ele>86</ele>
        <time>2015-06-08T19:56:21.646Z</time>
      </trkpt>
      <trkpt lat="48.80841" lon="2.51693">
        <ele>85.7</ele>
        <time>2015-06-08T19:56:22.677Z</time>
      </trkpt>
      <trkpt lat="48.80843" lon="2.51685">
        <ele>85.6</ele>
        <time>2015-06-08T19:56:23.670Z</time>
      </trkpt>
      <trkpt lat="48.80846" lon="2.51677">
        <ele>85.5</ele>
        <time>2015-06-08T19:56:24.682Z</time>
      </trkpt>
      <trkpt lat="48.80848" lon="2.51668">
        <ele>85.9</ele>
        <time>2015-06-08T19:56:25.683Z</time>
      </trkpt>
      <trkpt lat="48.80851" lon="2.5166">
        <ele>86.2</ele>
        <time>2015-06-08T19:56:26.710Z</time>
      </trkpt>
      <trkpt lat="48.80855" lon="2.51651">
        <ele>87</ele>
        <time>2015-06-08T19:56:27.707Z</time>
      </trkpt>
      <trkpt lat="48.80858" lon="2.51642">
        <ele>87.5</ele>
        <time>2015-06-08T19:56:28.709Z</time>
      </trkpt>
      <trkpt lat="48.80861" lon="2.51633">
        <ele>87.4</ele>
        <time>2015-06-08T19:56:29.733Z</time>
      </trkpt>
      <trkpt lat="48.80865" lon="2.51624">
        <ele>88.4</ele>
        <time>2015-06-08T19:56:30.754Z</time>
      </trkpt>
      <trkpt lat="48.80866" lon="2.51614">
        <ele>88.2</ele>
        <time>2015-06-08T19:56:31.763Z</time>
      </trkpt>
      <trkpt lat="48.80869" lon="2.51605">
        <ele>88.2</ele>
        <time>2015-06-08T19:56:32.775Z</time>
      </trkpt>
      <trkpt lat="48.80871" lon="2.51596">
        <ele>88</ele>
        <time>2015-06-08T19:56:33.695Z</time>
      </trkpt>
      <trkpt lat="48.80873" lon="2.51587">
        <ele>88.3</ele>
        <time>2015-06-08T19:56:34.696Z</time>
      </trkpt>
      <trkpt lat="48.80874" lon="2.51577">
        <ele>88.4</ele>
        <time>2015-06-08T19:56:35.700Z</time>
      </trkpt>
      <trkpt lat="48.80877" lon="2.51568">
        <ele>88.6</ele>
        <time>2015-06-08T19:56:36.705Z</time>
      </trkpt>
      <trkpt lat="48.80879" lon="2.51558">
        <ele>88.6</ele>
        <time>2015-06-08T19:56:37.716Z</time>
      </trkpt>
      <trkpt lat="48.8088" lon="2.51548">
        <ele>88.5</ele>
        <time>2015-06-08T19:56:38.745Z</time>
      </trkpt>
      <trkpt lat="48.80882" lon="2.51539">
        <ele>88.9</ele>
        <time>2015-06-08T19:56:39.757Z</time>
      </trkpt>
      <trkpt lat="48.80884" lon="2.51531">
        <ele>88.8</ele>
        <time>2015-06-08T19:56:40.764Z</time>
      </trkpt>
      <trkpt lat="48.80887" lon="2.51521">
        <ele>89</ele>
        <time>2015-06-08T19:56:41.778Z</time>
      </trkpt>
      <trkpt lat="48.80888" lon="2.51513">
        <ele>88.6</ele>
        <time>2015-06-08T19:56:42.715Z</time>
      </trkpt>
      <trkpt lat="48.8089" lon="2.51505">
        <ele>88.6</ele>
        <time>2015-06-08T19:56:43.758Z</time>
      </trkpt>
      <trkpt lat="48.80891" lon="2.51496">
        <ele>88.3</ele>
        <time>2015-06-08T19:56:44.764Z</time>
      </trkpt>
      <trkpt lat="48.80893" lon="2.51487">
        <ele>88.6</ele>
        <time>2015-06-08T19:56:45.668Z</time>
      </trkpt>
      <trkpt lat="48.80894" lon="2.51477">
        <ele>89.1</ele>
        <time>2015-06-08T19:56:46.697Z</time>
      </trkpt>
      <trkpt lat="48.80896" lon="2.51468">
        <ele>89.5</ele>
        <time>2015-06-08T19:56:47.721Z</time>
      </trkpt>
      <trkpt lat="48.80898" lon="2.51458">
        <ele>89.6</ele>
        <time>2015-06-08T19:56:48.721Z</time>
      </trkpt>
      <trkpt lat="48.80901" lon="2.51449">
        <ele>90</ele>
        <time>2015-06-08T19:56:49.742Z</time>
      </trkpt>
      <trkpt lat="48.80903" lon="2.51439">
        <ele>90.3</ele>
        <time>2015-06-08T19:56:50.750Z</time>
      </trkpt>
      <trkpt lat="48.80905" lon="2.51429">
        <ele>90.5</ele>
        <time>2015-06-08T19:56:51.753Z</time>
      </trkpt>
      <trkpt lat="48.80906" lon="2.51419">
        <ele>90.3</ele>
        <time>2015-06-08T19:56:52.755Z</time>
      </trkpt>
      <trkpt lat="48.80907" lon="2.51408">
        <ele>90.3</ele>
        <time>2015-06-08T19:56:53.776Z</time>
      </trkpt>
      <trkpt lat="48.80909" lon="2.51397">
        <ele>90.4</ele>
        <time>2015-06-08T19:56:54.685Z</time>
      </trkpt>
      <trkpt lat="48.8091" lon="2.51386">
        <ele>90.2</ele>
        <time>2015-06-08T19:56:55.691Z</time>
      </trkpt>
      <trkpt lat="48.80911" lon="2.51376">
        <ele>89.6</ele>
        <time>2015-06-08T19:56:56.743Z</time>
      </trkpt>
      <trkpt lat="48.80913" lon="2.51365">
        <ele>88.8</ele>
        <time>2015-06-08T19:56:57.740Z</time>
      </trkpt>
      <trkpt lat="48.80914" lon="2.51356">
        <ele>88.9</ele>
        <time>2015-06-08T19:56:58.751Z</time>
      </trkpt>
      <trkpt lat="48.80916" lon="2.51345">
        <ele>89</ele>
        <time>2015-06-08T19:56:59.690Z</time>
      </trkpt>
      <trkpt lat="48.80917" lon="2.51335">
        <ele>88.8</ele>
        <time>2015-06-08T19:57:00.697Z</time>
      </trkpt>
      <trkpt lat="48.80918" lon="2.51325">
        <ele>88.3</ele>
        <time>2015-06-08T19:57:01.695Z</time>
      </trkpt>
      <trkpt lat="48.80919" lon="2.51315">
        <ele>87.8</ele>
        <time>2015-06-08T19:57:02.770Z</time>
      </trkpt>
      <trkpt lat="48.80921" lon="2.51305">
        <ele>87</ele>
        <time>2015-06-08T19:57:03.768Z</time>
      </trkpt>
      <trkpt lat="48.80922" lon="2.51296">
        <ele>86.3</ele>
        <time>2015-06-08T19:57:04.683Z</time>
      </trkpt>
      <trkpt lat="48.80923" lon="2.51286">
        <ele>86.4</ele>
        <time>2015-06-08T19:57:05.688Z</time>
      </trkpt>
      <trkpt lat="48.80923" lon="2.51276">
        <ele>86.6</ele>
        <time>2015-06-08T19:57:06.693Z</time>
      </trkpt>
      <trkpt lat="48.80923" lon="2.51266">
        <ele>86.1</ele>
        <time>2015-06-08T19:57:07.703Z</time>
      </trkpt>
      <trkpt lat="48.80924" lon="2.51255">
        <ele>86.5</ele>
        <time>2015-06-08T19:57:08.722Z</time>
      </trkpt>
      <trkpt lat="48.80926" lon="2.51245">
        <ele>86</ele>
        <time>2015-06-08T19:57:09.742Z</time>
      </trkpt>
      <trkpt lat="48.80927" lon="2.51234">
        <ele>86.1</ele>
        <time>2015-06-08T19:57:10.686Z</time>
      </trkpt>
      <trkpt lat="48.80928" lon="2.51224">
        <ele>86</ele>
        <time>2015-06-08T19:57:11.668Z</time>
      </trkpt>
      <trkpt lat="48.8093" lon="2.51214">
        <ele>86.1</ele>
        <time>2015-06-08T19:57:12.668Z</time>
      </trkpt>
      <trkpt lat="48.80931" lon="2.51204">
        <ele>86.2</ele>
        <time>2015-06-08T19:57:13.766Z</time>
      </trkpt>
      <trkpt lat="48.80931" lon="2.51193">
        <ele>86.1</ele>
        <time>2015-06-08T19:57:14.798Z</time>
      </trkpt>
      <trkpt lat="48.80931" lon="2.51183">
        <ele>85.8</ele>
        <time>2015-06-08T19:57:15.681Z</time>
      </trkpt>
      <trkpt lat="48.80932" lon="2.51172">
        <ele>86</ele>
        <time>2015-06-08T19:57:16.680Z</time>
      </trkpt>
      <trkpt lat="48.80932" lon="2.51162">
        <ele>86</ele>
        <time>2015-06-08T19:57:17.704Z</time>
      </trkpt>
      <trkpt lat="48.80933" lon="2.51151">
        <ele>86.2</ele>
        <time>2015-06-08T19:57:18.719Z</time>
      </trkpt>
      <trkpt lat="48.80935" lon="2.51141">
        <ele>86.5</ele>
        <time>2015-06-08T19:57:19.754Z</time>
      </trkpt>
      <trkpt lat="48.80936" lon="2.5113">
        <ele>87.1</ele>
        <time>2015-06-08T19:57:20.760Z</time>
      </trkpt>
      <trkpt lat="48.80937" lon="2.51119">
        <ele>87.1</ele>
        <time>2015-06-08T19:57:21.646Z</time>
      </trkpt>
      <trkpt lat="48.80938" lon="2.51109">
        <ele>86.9</ele>
        <time>2015-06-08T19:57:22.663Z</time>
      </trkpt>
      <trkpt lat="48.80939" lon="2.51098">
        <ele>86.8</ele>
        <time>2015-06-08T19:57:23.679Z</time>
      </trkpt>
      <trkpt lat="48.8094" lon="2.51088">
        <ele>87</ele>
        <time>2015-06-08T19:57:24.695Z</time>
      </trkpt>
      <trkpt lat="48.80941" lon="2.51079">
        <ele>86.6</ele>
        <time>2015-06-08T19:57:25.714Z</time>
      </trkpt>
      <trkpt lat="48.80944" lon="2.5107">
        <ele>87.2</ele>
        <time>2015-06-08T19:57:26.732Z</time>
      </trkpt>
      <trkpt lat="48.80944" lon="2.51063">
        <ele>87.1</ele>
        <time>2015-06-08T19:57:27.741Z</time>
      </trkpt>
      <trkpt lat="48.80945" lon="2.51056">
        <ele>87.5</ele>
        <time>2015-06-08T19:57:28.746Z</time>
      </trkpt>
      <trkpt lat="48.80946" lon="2.51043">
        <ele>87.9</ele>
        <time>2015-06-08T19:57:30.651Z</time>
      </trkpt>
      <trkpt lat="48.80947" lon="2.51038">
        <ele>88.1</ele>
        <time>2015-06-08T19:57:31.701Z</time>
      </trkpt>
      <trkpt lat="48.80948" lon="2.51027">
        <ele>88.2</ele>
        <time>2015-06-08T19:57:33.750Z</time>
      </trkpt>
      <trkpt lat="48.80948" lon="2.51022">
        <ele>88.4</ele>
        <time>2015-06-08T19:57:34.777Z</time>
      </trkpt>
      <trkpt lat="48.80949" lon="2.51009">
        <ele>89.1</ele>
        <time>2015-06-08T19:57:37.703Z</time>
      </trkpt>
      <trkpt lat="48.80949" lon="2.51005">
        <ele>89.3</ele>
        <time>2015-06-08T19:57:38.757Z</time>
      </trkpt>
      <trkpt lat="48.8095" lon="2.50992">
        <ele>90.5</ele>
        <time>2015-06-08T19:57:42.703Z</time>
      </trkpt>
      <trkpt lat="48.8095" lon="2.50989">
        <ele>90.7</ele>
        <time>2015-06-08T19:57:43.704Z</time>
      </trkpt>
      <trkpt lat="48.80951" lon="2.50984">
        <ele>91</ele>
        <time>2015-06-08T20:04:06.775Z</time>
      </trkpt>
      <trkpt lat="48.80952" lon="2.50963">
        <ele>94.3</ele>
        <time>2015-06-08T20:04:07.789Z</time>
      </trkpt>
      <trkpt lat="48.80951" lon="2.50951">
        <ele>94.1</ele>
        <time>2015-06-08T20:04:11.703Z</time>
      </trkpt>
      <trkpt lat="48.80951" lon="2.50947">
        <ele>94.1</ele>
        <time>2015-06-08T20:04:12.741Z</time>
      </trkpt>
      <trkpt lat="48.80951" lon="2.50936">
        <ele>94.3</ele>
        <time>2015-06-08T20:04:14.777Z</time>
      </trkpt>
      <trkpt lat="48.80951" lon="2.50929">
        <ele>94.6</ele>
        <time>2015-06-08T20:04:15.787Z</time>
      </trkpt>
      <trkpt lat="48.80953" lon="2.50922">
        <ele>94.4</ele>
        <time>2015-06-08T20:04:16.704Z</time>
      </trkpt>
      <trkpt lat="48.80954" lon="2.50915">
        <ele>94.3</ele>
        <time>2015-06-08T20:04:17.731Z</time>
      </trkpt>
      <trkpt lat="48.80955" lon="2.50907">
        <ele>94.2</ele>
        <time>2015-06-08T20:04:18.711Z</time>
      </trkpt>
      <trkpt lat="48.80956" lon="2.509">
        <ele>94.1</ele>
        <time>2015-06-08T20:04:19.708Z</time>
      </trkpt>
      <trkpt lat="48.80958" lon="2.50891">
        <ele>94</ele>
        <time>2015-06-08T20:04:20.790Z</time>
      </trkpt>
      <trkpt lat="48.80961" lon="2.50883">
        <ele>94.1</ele>
        <time>2015-06-08T20:04:21.731Z</time>
      </trkpt>
      <trkpt lat="48.80964" lon="2.50875">
        <ele>94.1</ele>
        <time>2015-06-08T20:04:22.748Z</time>
      </trkpt>
      <trkpt lat="48.80968" lon="2.50866">
        <ele>94.2</ele>
        <time>2015-06-08T20:04:23.778Z</time>
      </trkpt>
      <trkpt lat="48.80971" lon="2.50857">
        <ele>94.3</ele>
        <time>2015-06-08T20:04:24.790Z</time>
      </trkpt>
      <trkpt lat="48.80974" lon="2.50847">
        <ele>94.3</ele>
        <time>2015-06-08T20:04:25.681Z</time>
      </trkpt>
      <trkpt lat="48.80977" lon="2.50838">
        <ele>94.1</ele>
        <time>2015-06-08T20:04:26.769Z</time>
      </trkpt>
      <trkpt lat="48.80978" lon="2.50828">
        <ele>93.7</ele>
        <time>2015-06-08T20:04:27.774Z</time>
      </trkpt>
      <trkpt lat="48.8098" lon="2.50818">
        <ele>94.1</ele>
        <time>2015-06-08T20:04:28.782Z</time>
      </trkpt>
      <trkpt lat="48.80983" lon="2.50809">
        <ele>94.3</ele>
        <time>2015-06-08T20:04:29.697Z</time>
      </trkpt>
      <trkpt lat="48.80986" lon="2.508">
        <ele>94.5</ele>
        <time>2015-06-08T20:04:30.706Z</time>
      </trkpt>
      <trkpt lat="48.80988" lon="2.50792">
        <ele>94.7</ele>
        <time>2015-06-08T20:04:31.715Z</time>
      </trkpt>
      <trkpt lat="48.80989" lon="2.50783">
        <ele>94.7</ele>
        <time>2015-06-08T20:04:32.758Z</time>
      </trkpt>
      <trkpt lat="48.80991" lon="2.50774">
        <ele>94.5</ele>
        <time>2015-06-08T20:04:33.768Z</time>
      </trkpt>
      <trkpt lat="48.80992" lon="2.50765">
        <ele>94.4</ele>
        <time>2015-06-08T20:04:34.788Z</time>
      </trkpt>
      <trkpt lat="48.80992" lon="2.50756">
        <ele>94.3</ele>
        <time>2015-06-08T20:04:35.720Z</time>
      </trkpt>
      <trkpt lat="48.80992" lon="2.50747">
        <ele>93.7</ele>
        <time>2015-06-08T20:04:36.709Z</time>
      </trkpt>
      <trkpt lat="48.80992" lon="2.50738">
        <ele>93.4</ele>
        <time>2015-06-08T20:04:37.747Z</time>
      </trkpt>
      <trkpt lat="48.80992" lon="2.50729">
        <ele>93.3</ele>
        <time>2015-06-08T20:04:38.848Z</time>
      </trkpt>
      <trkpt lat="48.80992" lon="2.5072">
        <ele>93</ele>
        <time>2015-06-08T20:04:39.764Z</time>
      </trkpt>
      <trkpt lat="48.80992" lon="2.50713">
        <ele>92.8</ele>
        <time>2015-06-08T20:04:40.729Z</time>
      </trkpt>
      <trkpt lat="48.80992" lon="2.50705">
        <ele>92.4</ele>
        <time>2015-06-08T20:04:41.702Z</time>
      </trkpt>
      <trkpt lat="48.80992" lon="2.50698">
        <ele>92.1</ele>
        <time>2015-06-08T20:04:42.697Z</time>
      </trkpt>
      <trkpt lat="48.80993" lon="2.5069">
        <ele>92</ele>
        <time>2015-06-08T20:04:43.714Z</time>
      </trkpt>
      <trkpt lat="48.80993" lon="2.50682">
        <ele>91.9</ele>
        <time>2015-06-08T20:04:44.758Z</time>
      </trkpt>
      <trkpt lat="48.80993" lon="2.50674">
        <ele>91.7</ele>
        <time>2015-06-08T20:04:45.766Z</time>
      </trkpt>
      <trkpt lat="48.80992" lon="2.50666">
        <ele>91.5</ele>
        <time>2015-06-08T20:04:46.772Z</time>
      </trkpt>
      <trkpt lat="48.80991" lon="2.50659">
        <ele>91.3</ele>
        <time>2015-06-08T20:04:47.779Z</time>
      </trkpt>
      <trkpt lat="48.80989" lon="2.50646">
        <ele>91</ele>
        <time>2015-06-08T20:04:49.722Z</time>
      </trkpt>
      <trkpt lat="48.80989" lon="2.5064">
        <ele>91</ele>
        <time>2015-06-08T20:04:50.782Z</time>
      </trkpt>
      <trkpt lat="48.80993" lon="2.50634">
        <ele>89.9</ele>
        <time>2015-06-08T20:04:51.731Z</time>
      </trkpt>
      <trkpt lat="48.80996" lon="2.50628">
        <ele>88.8</ele>
        <time>2015-06-08T20:04:52.719Z</time>
      </trkpt>
      <trkpt lat="48.80997" lon="2.50622">
        <ele>88.6</ele>
        <time>2015-06-08T20:04:53.725Z</time>
      </trkpt>
      <trkpt lat="48.80997" lon="2.50613">
        <ele>88.5</ele>
        <time>2015-06-08T20:04:54.733Z</time>
      </trkpt>
      <trkpt lat="48.80997" lon="2.50607">
        <ele>88.6</ele>
        <time>2015-06-08T20:04:55.749Z</time>
      </trkpt>
      <trkpt lat="48.80998" lon="2.50599">
        <ele>88.7</ele>
        <time>2015-06-08T20:04:56.759Z</time>
      </trkpt>
      <trkpt lat="48.80999" lon="2.50591">
        <ele>88.6</ele>
        <time>2015-06-08T20:04:57.779Z</time>
      </trkpt>
      <trkpt lat="48.80999" lon="2.50582">
        <ele>88.8</ele>
        <time>2015-06-08T20:04:58.697Z</time>
      </trkpt>
      <trkpt lat="48.81" lon="2.50574">
        <ele>89</ele>
        <time>2015-06-08T20:04:59.701Z</time>
      </trkpt>
      <trkpt lat="48.81001" lon="2.50567">
        <ele>88.9</ele>
        <time>2015-06-08T20:05:00.726Z</time>
      </trkpt>
      <trkpt lat="48.81002" lon="2.50554">
        <ele>89.1</ele>
        <time>2015-06-08T20:05:02.752Z</time>
      </trkpt>
      <trkpt lat="48.81003" lon="2.50545">
        <ele>89.4</ele>
        <time>2015-06-08T20:05:03.756Z</time>
      </trkpt>
      <trkpt lat="48.81004" lon="2.50536">
        <ele>89.4</ele>
        <time>2015-06-08T20:05:04.796Z</time>
      </trkpt>
      <trkpt lat="48.81005" lon="2.50528">
        <ele>89.6</ele>
        <time>2015-06-08T20:05:05.699Z</time>
      </trkpt>
      <trkpt lat="48.81005" lon="2.50519">
        <ele>89.6</ele>
        <time>2015-06-08T20:05:06.727Z</time>
      </trkpt>
      <trkpt lat="48.81005" lon="2.5051">
        <ele>89.3</ele>
        <time>2015-06-08T20:05:07.742Z</time>
      </trkpt>
      <trkpt lat="48.81005" lon="2.50501">
        <ele>88.9</ele>
        <time>2015-06-08T20:05:08.756Z</time>
      </trkpt>
      <trkpt lat="48.81006" lon="2.50492">
        <ele>88.8</ele>
        <time>2015-06-08T20:05:09.777Z</time>
      </trkpt>
      <trkpt lat="48.81007" lon="2.50483">
        <ele>88.4</ele>
        <time>2015-06-08T20:05:10.677Z</time>
      </trkpt>
      <trkpt lat="48.81007" lon="2.50474">
        <ele>88.3</ele>
        <time>2015-06-08T20:05:11.707Z</time>
      </trkpt>
      <trkpt lat="48.81008" lon="2.50465">
        <ele>88.2</ele>
        <time>2015-06-08T20:05:12.751Z</time>
      </trkpt>
      <trkpt lat="48.81009" lon="2.50457">
        <ele>88.1</ele>
        <time>2015-06-08T20:05:13.746Z</time>
      </trkpt>
      <trkpt lat="48.8101" lon="2.50448">
        <ele>88</ele>
        <time>2015-06-08T20:05:14.764Z</time>
      </trkpt>
      <trkpt lat="48.81011" lon="2.5044">
        <ele>88.1</ele>
        <time>2015-06-08T20:05:15.779Z</time>
      </trkpt>
      <trkpt lat="48.81011" lon="2.5043">
        <ele>88.5</ele>
        <time>2015-06-08T20:05:16.666Z</time>
      </trkpt>
      <trkpt lat="48.81011" lon="2.50419">
        <ele>88.9</ele>
        <time>2015-06-08T20:05:17.700Z</time>
      </trkpt>
      <trkpt lat="48.81011" lon="2.5041">
        <ele>89.3</ele>
        <time>2015-06-08T20:05:18.700Z</time>
      </trkpt>
      <trkpt lat="48.81012" lon="2.504">
        <ele>89.3</ele>
        <time>2015-06-08T20:05:19.707Z</time>
      </trkpt>
      <trkpt lat="48.81012" lon="2.50391">
        <ele>88.9</ele>
        <time>2015-06-08T20:05:20.731Z</time>
      </trkpt>
      <trkpt lat="48.81014" lon="2.50383">
        <ele>89</ele>
        <time>2015-06-08T20:05:21.746Z</time>
      </trkpt>
      <trkpt lat="48.81014" lon="2.50374">
        <ele>89.3</ele>
        <time>2015-06-08T20:05:22.680Z</time>
      </trkpt>
      <trkpt lat="48.81015" lon="2.50365">
        <ele>89.4</ele>
        <time>2015-06-08T20:05:23.692Z</time>
      </trkpt>
      <trkpt lat="48.81014" lon="2.50354">
        <ele>89.2</ele>
        <time>2015-06-08T20:05:24.680Z</time>
      </trkpt>
      <trkpt lat="48.81014" lon="2.50345">
        <ele>89.1</ele>
        <time>2015-06-08T20:05:25.690Z</time>
      </trkpt>
      <trkpt lat="48.81014" lon="2.50336">
        <ele>88.7</ele>
        <time>2015-06-08T20:05:26.987Z</time>
      </trkpt>
      <trkpt lat="48.81016" lon="2.50326">
        <ele>88.8</ele>
        <time>2015-06-08T20:05:27.743Z</time>
      </trkpt>
      <trkpt lat="48.81018" lon="2.50318">
        <ele>88.9</ele>
        <time>2015-06-08T20:05:28.748Z</time>
      </trkpt>
      <trkpt lat="48.81019" lon="2.50309">
        <ele>88.3</ele>
        <time>2015-06-08T20:05:29.759Z</time>
      </trkpt>
      <trkpt lat="48.81021" lon="2.50301">
        <ele>87.7</ele>
        <time>2015-06-08T20:05:30.768Z</time>
      </trkpt>
      <trkpt lat="48.81022" lon="2.50293">
        <ele>87.5</ele>
        <time>2015-06-08T20:05:31.685Z</time>
      </trkpt>
      <trkpt lat="48.81022" lon="2.50285">
        <ele>87.6</ele>
        <time>2015-06-08T20:05:32.736Z</time>
      </trkpt>
      <trkpt lat="48.81022" lon="2.50276">
        <ele>88</ele>
        <time>2015-06-08T20:05:33.746Z</time>
      </trkpt>
      <trkpt lat="48.81023" lon="2.50268">
        <ele>88.1</ele>
        <time>2015-06-08T20:05:34.772Z</time>
      </trkpt>
      <trkpt lat="48.81024" lon="2.50261">
        <ele>88.5</ele>
        <time>2015-06-08T20:05:35.698Z</time>
      </trkpt>
      <trkpt lat="48.81024" lon="2.50254">
        <ele>88.4</ele>
        <time>2015-06-08T20:05:36.706Z</time>
      </trkpt>
      <trkpt lat="48.81023" lon="2.50246">
        <ele>88.1</ele>
        <time>2015-06-08T20:05:37.716Z</time>
      </trkpt>
      <trkpt lat="48.81022" lon="2.50236">
        <ele>87.6</ele>
        <time>2015-06-08T20:05:38.739Z</time>
      </trkpt>
      <trkpt lat="48.81022" lon="2.50228">
        <ele>87.8</ele>
        <time>2015-06-08T20:05:39.746Z</time>
      </trkpt>
      <trkpt lat="48.81023" lon="2.5022">
        <ele>87.8</ele>
        <time>2015-06-08T20:05:40.767Z</time>
      </trkpt>
      <trkpt lat="48.81024" lon="2.50212">
        <ele>86.6</ele>
        <time>2015-06-08T20:05:41.686Z</time>
      </trkpt>
      <trkpt lat="48.81024" lon="2.50204">
        <ele>86.2</ele>
        <time>2015-06-08T20:05:42.690Z</time>
      </trkpt>
      <trkpt lat="48.81024" lon="2.50195">
        <ele>85.8</ele>
        <time>2015-06-08T20:05:43.702Z</time>
      </trkpt>
      <trkpt lat="48.81024" lon="2.50187">
        <ele>85.7</ele>
        <time>2015-06-08T20:05:44.754Z</time>
      </trkpt>
      <trkpt lat="48.81024" lon="2.50179">
        <ele>85.8</ele>
        <time>2015-06-08T20:05:45.758Z</time>
      </trkpt>
      <trkpt lat="48.81024" lon="2.50172">
        <ele>86</ele>
        <time>2015-06-08T20:05:46.690Z</time>
      </trkpt>
      <trkpt lat="48.81023" lon="2.50165">
        <ele>86.3</ele>
        <time>2015-06-08T20:05:47.689Z</time>
      </trkpt>
      <trkpt lat="48.81023" lon="2.50156">
        <ele>86.4</ele>
        <time>2015-06-08T20:05:48.890Z</time>
      </trkpt>
      <trkpt lat="48.81022" lon="2.50147">
        <ele>86.2</ele>
        <time>2015-06-08T20:05:49.698Z</time>
      </trkpt>
      <trkpt lat="48.81021" lon="2.50136">
        <ele>85.9</ele>
        <time>2015-06-08T20:05:50.735Z</time>
      </trkpt>
      <trkpt lat="48.81019" lon="2.50128">
        <ele>85.8</ele>
        <time>2015-06-08T20:05:51.736Z</time>
      </trkpt>
      <trkpt lat="48.81019" lon="2.50121">
        <ele>86</ele>
        <time>2015-06-08T20:05:52.759Z</time>
      </trkpt>
      <trkpt lat="48.81018" lon="2.50113">
        <ele>86.2</ele>
        <time>2015-06-08T20:05:53.769Z</time>
      </trkpt>
      <trkpt lat="48.81017" lon="2.50105">
        <ele>86.2</ele>
        <time>2015-06-08T20:05:54.682Z</time>
      </trkpt>
      <trkpt lat="48.81016" lon="2.50096">
        <ele>86</ele>
        <time>2015-06-08T20:05:55.694Z</time>
      </trkpt>
      <trkpt lat="48.81015" lon="2.50088">
        <ele>85.8</ele>
        <time>2015-06-08T20:05:56.740Z</time>
      </trkpt>
      <trkpt lat="48.81014" lon="2.50079">
        <ele>85.5</ele>
        <time>2015-06-08T20:05:57.739Z</time>
      </trkpt>
      <trkpt lat="48.81013" lon="2.50071">
        <ele>85.1</ele>
        <time>2015-06-08T20:05:58.737Z</time>
      </trkpt>
      <trkpt lat="48.81011" lon="2.50063">
        <ele>84.9</ele>
        <time>2015-06-08T20:05:59.742Z</time>
      </trkpt>
      <trkpt lat="48.8101" lon="2.50056">
        <ele>84.9</ele>
        <time>2015-06-08T20:06:00.755Z</time>
      </trkpt>
      <trkpt lat="48.81009" lon="2.50048">
        <ele>84.8</ele>
        <time>2015-06-08T20:06:01.767Z</time>
      </trkpt>
      <trkpt lat="48.81009" lon="2.50041">
        <ele>84.4</ele>
        <time>2015-06-08T20:06:02.775Z</time>
      </trkpt>
      <trkpt lat="48.81008" lon="2.50033">
        <ele>84.2</ele>
        <time>2015-06-08T20:06:03.777Z</time>
      </trkpt>
      <trkpt lat="48.81008" lon="2.50026">
        <ele>84.3</ele>
        <time>2015-06-08T20:06:04.708Z</time>
      </trkpt>
      <trkpt lat="48.81006" lon="2.5002">
        <ele>84.1</ele>
        <time>2015-06-08T20:06:05.715Z</time>
      </trkpt>
      <trkpt lat="48.81003" lon="2.50008">
        <ele>83.9</ele>
        <time>2015-06-08T20:06:07.736Z</time>
      </trkpt>
      <trkpt lat="48.81002" lon="2.50002">
        <ele>83.8</ele>
        <time>2015-06-08T20:06:08.791Z</time>
      </trkpt>
      <trkpt lat="48.80999" lon="2.49989">
        <ele>83.5</ele>
        <time>2015-06-08T20:06:10.706Z</time>
      </trkpt>
      <trkpt lat="48.80999" lon="2.49984">
        <ele>83.7</ele>
        <time>2015-06-08T20:06:11.710Z</time>
      </trkpt>
      <trkpt lat="48.80998" lon="2.49973">
        <ele>83.7</ele>
        <time>2015-06-08T20:06:13.673Z</time>
      </trkpt>
      <trkpt lat="48.80998" lon="2.49966">
        <ele>83.7</ele>
        <time>2015-06-08T20:06:14.763Z</time>
      </trkpt>
      <trkpt lat="48.80996" lon="2.49953">
        <ele>83.3</ele>
        <time>2015-06-08T20:06:16.724Z</time>
      </trkpt>
      <trkpt lat="48.80995" lon="2.49946">
        <ele>82.7</ele>
        <time>2015-06-08T20:06:17.725Z</time>
      </trkpt>
      <trkpt lat="48.80993" lon="2.49939">
        <ele>82.5</ele>
        <time>2015-06-08T20:06:18.693Z</time>
      </trkpt>
      <trkpt lat="48.80992" lon="2.49931">
        <ele>82.2</ele>
        <time>2015-06-08T20:06:19.700Z</time>
      </trkpt>
      <trkpt lat="48.8099" lon="2.49923">
        <ele>82.5</ele>
        <time>2015-06-08T20:06:20.751Z</time>
      </trkpt>
      <trkpt lat="48.80989" lon="2.49915">
        <ele>82.9</ele>
        <time>2015-06-08T20:06:21.765Z</time>
      </trkpt>
      <trkpt lat="48.80987" lon="2.49906">
        <ele>83.3</ele>
        <time>2015-06-08T20:06:22.673Z</time>
      </trkpt>
      <trkpt lat="48.80987" lon="2.49898">
        <ele>83.5</ele>
        <time>2015-06-08T20:06:23.680Z</time>
      </trkpt>
      <trkpt lat="48.80986" lon="2.49889">
        <ele>83.9</ele>
        <time>2015-06-08T20:06:24.683Z</time>
      </trkpt>
      <trkpt lat="48.80986" lon="2.49881">
        <ele>84.3</ele>
        <time>2015-06-08T20:06:25.689Z</time>
      </trkpt>
      <trkpt lat="48.80987" lon="2.49873">
        <ele>84.8</ele>
        <time>2015-06-08T20:06:26.749Z</time>
      </trkpt>
      <trkpt lat="48.80988" lon="2.49865">
        <ele>85</ele>
        <time>2015-06-08T20:06:27.734Z</time>
      </trkpt>
      <trkpt lat="48.80988" lon="2.49858">
        <ele>85.4</ele>
        <time>2015-06-08T20:06:28.760Z</time>
      </trkpt>
      <trkpt lat="48.80989" lon="2.4985">
        <ele>86.1</ele>
        <time>2015-06-08T20:06:29.676Z</time>
      </trkpt>
      <trkpt lat="48.80989" lon="2.49842">
        <ele>86.3</ele>
        <time>2015-06-08T20:06:30.709Z</time>
      </trkpt>
      <trkpt lat="48.8099" lon="2.49836">
        <ele>86.3</ele>
        <time>2015-06-08T20:06:31.732Z</time>
      </trkpt>
      <trkpt lat="48.80991" lon="2.49823">
        <ele>86.9</ele>
        <time>2015-06-08T20:06:33.679Z</time>
      </trkpt>
      <trkpt lat="48.8099" lon="2.49816">
        <ele>87.2</ele>
        <time>2015-06-08T20:06:34.690Z</time>
      </trkpt>
      <trkpt lat="48.8099" lon="2.49808">
        <ele>87.4</ele>
        <time>2015-06-08T20:06:35.707Z</time>
      </trkpt>
      <trkpt lat="48.80989" lon="2.498">
        <ele>87</ele>
        <time>2015-06-08T20:06:36.755Z</time>
      </trkpt>
      <trkpt lat="48.80988" lon="2.49793">
        <ele>86.7</ele>
        <time>2015-06-08T20:06:37.740Z</time>
      </trkpt>
      <trkpt lat="48.80988" lon="2.49785">
        <ele>86.2</ele>
        <time>2015-06-08T20:06:38.744Z</time>
      </trkpt>
      <trkpt lat="48.80987" lon="2.49778">
        <ele>86</ele>
        <time>2015-06-08T20:06:39.748Z</time>
      </trkpt>
      <trkpt lat="48.80986" lon="2.4977">
        <ele>86.1</ele>
        <time>2015-06-08T20:06:40.669Z</time>
      </trkpt>
      <trkpt lat="48.80986" lon="2.49763">
        <ele>85.7</ele>
        <time>2015-06-08T20:06:41.651Z</time>
      </trkpt>
      <trkpt lat="48.80987" lon="2.49756">
        <ele>85.5</ele>
        <time>2015-06-08T20:06:42.680Z</time>
      </trkpt>
      <trkpt lat="48.80988" lon="2.49748">
        <ele>85.7</ele>
        <time>2015-06-08T20:06:43.684Z</time>
      </trkpt>
      <trkpt lat="48.80988" lon="2.49741">
        <ele>85.7</ele>
        <time>2015-06-08T20:06:44.729Z</time>
      </trkpt>
      <trkpt lat="48.8099" lon="2.49733">
        <ele>85.8</ele>
        <time>2015-06-08T20:06:45.736Z</time>
      </trkpt>
      <trkpt lat="48.8099" lon="2.49726">
        <ele>85.6</ele>
        <time>2015-06-08T20:06:46.758Z</time>
      </trkpt>
      <trkpt lat="48.80991" lon="2.49713">
        <ele>86</ele>
        <time>2015-06-08T20:06:48.676Z</time>
      </trkpt>
      <trkpt lat="48.80991" lon="2.49707">
        <ele>86.4</ele>
        <time>2015-06-08T20:06:49.708Z</time>
      </trkpt>
      <trkpt lat="48.80993" lon="2.49699">
        <ele>86.5</ele>
        <time>2015-06-08T20:06:50.752Z</time>
      </trkpt>
      <trkpt lat="48.80994" lon="2.49692">
        <ele>86.5</ele>
        <time>2015-06-08T20:06:51.695Z</time>
      </trkpt>
      <trkpt lat="48.80997" lon="2.4968">
        <ele>86.5</ele>
        <time>2015-06-08T20:06:53.686Z</time>
      </trkpt>
      <trkpt lat="48.80997" lon="2.49673">
        <ele>86.7</ele>
        <time>2015-06-08T20:06:54.705Z</time>
      </trkpt>
      <trkpt lat="48.80999" lon="2.49664">
        <ele>86.9</ele>
        <time>2015-06-08T20:06:55.752Z</time>
      </trkpt>
      <trkpt lat="48.81001" lon="2.49657">
        <ele>87.2</ele>
        <time>2015-06-08T20:06:56.759Z</time>
      </trkpt>
      <trkpt lat="48.81002" lon="2.4965">
        <ele>87.6</ele>
        <time>2015-06-08T20:06:57.677Z</time>
      </trkpt>
      <trkpt lat="48.81003" lon="2.49643">
        <ele>87.9</ele>
        <time>2015-06-08T20:06:58.680Z</time>
      </trkpt>
      <trkpt lat="48.81005" lon="2.49637">
        <ele>87.8</ele>
        <time>2015-06-08T20:06:59.682Z</time>
      </trkpt>
      <trkpt lat="48.81006" lon="2.49629">
        <ele>87.3</ele>
        <time>2015-06-08T20:07:00.688Z</time>
      </trkpt>
      <trkpt lat="48.81007" lon="2.49622">
        <ele>87</ele>
        <time>2015-06-08T20:07:01.712Z</time>
      </trkpt>
      <trkpt lat="48.81008" lon="2.49615">
        <ele>87</ele>
        <time>2015-06-08T20:07:02.734Z</time>
      </trkpt>
      <trkpt lat="48.81008" lon="2.49608">
        <ele>87</ele>
        <time>2015-06-08T20:07:03.648Z</time>
      </trkpt>
      <trkpt lat="48.81009" lon="2.49599">
        <ele>87</ele>
        <time>2015-06-08T20:07:04.754Z</time>
      </trkpt>
      <trkpt lat="48.81009" lon="2.49591">
        <ele>87</ele>
        <time>2015-06-08T20:07:05.757Z</time>
      </trkpt>
      <trkpt lat="48.8101" lon="2.49584">
        <ele>86.9</ele>
        <time>2015-06-08T20:07:06.768Z</time>
      </trkpt>
      <trkpt lat="48.81011" lon="2.4957">
        <ele>86.6</ele>
        <time>2015-06-08T20:07:08.767Z</time>
      </trkpt>
      <trkpt lat="48.81012" lon="2.49563">
        <ele>86.5</ele>
        <time>2015-06-08T20:07:09.771Z</time>
      </trkpt>
      <trkpt lat="48.81014" lon="2.49555">
        <ele>85.9</ele>
        <time>2015-06-08T20:07:10.689Z</time>
      </trkpt>
      <trkpt lat="48.81015" lon="2.49549">
        <ele>85.7</ele>
        <time>2015-06-08T20:07:11.796Z</time>
      </trkpt>
      <trkpt lat="48.81015" lon="2.49535">
        <ele>85.9</ele>
        <time>2015-06-08T20:07:13.802Z</time>
      </trkpt>
      <trkpt lat="48.81017" lon="2.49526">
        <ele>86</ele>
        <time>2015-06-08T20:07:14.811Z</time>
      </trkpt>
      <trkpt lat="48.81019" lon="2.49518">
        <ele>85.8</ele>
        <time>2015-06-08T20:07:15.785Z</time>
      </trkpt>
      <trkpt lat="48.8102" lon="2.49509">
        <ele>85.6</ele>
        <time>2015-06-08T20:07:16.742Z</time>
      </trkpt>
      <trkpt lat="48.81021" lon="2.49501">
        <ele>86</ele>
        <time>2015-06-08T20:07:17.746Z</time>
      </trkpt>
      <trkpt lat="48.81021" lon="2.49494">
        <ele>86.6</ele>
        <time>2015-06-08T20:07:18.779Z</time>
      </trkpt>
      <trkpt lat="48.81021" lon="2.49487">
        <ele>86.9</ele>
        <time>2015-06-08T20:07:19.706Z</time>
      </trkpt>
      <trkpt lat="48.81021" lon="2.4948">
        <ele>87.5</ele>
        <time>2015-06-08T20:07:20.811Z</time>
      </trkpt>
      <trkpt lat="48.81024" lon="2.49469">
        <ele>87.9</ele>
        <time>2015-06-08T20:07:22.692Z</time>
      </trkpt>
      <trkpt lat="48.81025" lon="2.49462">
        <ele>88.1</ele>
        <time>2015-06-08T20:07:23.715Z</time>
      </trkpt>
      <trkpt lat="48.81025" lon="2.49455">
        <ele>88</ele>
        <time>2015-06-08T20:07:24.729Z</time>
      </trkpt>
      <trkpt lat="48.81026" lon="2.49448">
        <ele>87.9</ele>
        <time>2015-06-08T20:07:25.737Z</time>
      </trkpt>
      <trkpt lat="48.81025" lon="2.49437">
        <ele>88</ele>
        <time>2015-06-08T20:07:27.766Z</time>
      </trkpt>
      <trkpt lat="48.81025" lon="2.4943">
        <ele>88</ele>
        <time>2015-06-08T20:07:28.775Z</time>
      </trkpt>
      <trkpt lat="48.81028" lon="2.49423">
        <ele>87.6</ele>
        <time>2015-06-08T20:07:29.789Z</time>
      </trkpt>
      <trkpt lat="48.8103" lon="2.49415">
        <ele>88.1</ele>
        <time>2015-06-08T20:07:30.743Z</time>
      </trkpt>
      <trkpt lat="48.81032" lon="2.49406">
        <ele>88.4</ele>
        <time>2015-06-08T20:07:31.713Z</time>
      </trkpt>
      <trkpt lat="48.81033" lon="2.49398">
        <ele>89</ele>
        <time>2015-06-08T20:07:32.774Z</time>
      </trkpt>
      <trkpt lat="48.81034" lon="2.4939">
        <ele>89.1</ele>
        <time>2015-06-08T20:07:33.783Z</time>
      </trkpt>
      <trkpt lat="48.81035" lon="2.49383">
        <ele>89.5</ele>
        <time>2015-06-08T20:07:34.707Z</time>
      </trkpt>
      <trkpt lat="48.81036" lon="2.49375">
        <ele>89.4</ele>
        <time>2015-06-08T20:07:35.701Z</time>
      </trkpt>
      <trkpt lat="48.81039" lon="2.49369">
        <ele>89.4</ele>
        <time>2015-06-08T20:07:36.711Z</time>
      </trkpt>
      <trkpt lat="48.81041" lon="2.49361">
        <ele>89.5</ele>
        <time>2015-06-08T20:07:37.721Z</time>
      </trkpt>
      <trkpt lat="48.81043" lon="2.49355">
        <ele>89.4</ele>
        <time>2015-06-08T20:07:38.739Z</time>
      </trkpt>
      <trkpt lat="48.81047" lon="2.49348">
        <ele>89.1</ele>
        <time>2015-06-08T20:07:39.751Z</time>
      </trkpt>
      <trkpt lat="48.81051" lon="2.4934">
        <ele>89.1</ele>
        <time>2015-06-08T20:07:40.760Z</time>
      </trkpt>
      <trkpt lat="48.81053" lon="2.49333">
        <ele>89</ele>
        <time>2015-06-08T20:07:41.778Z</time>
      </trkpt>
      <trkpt lat="48.81055" lon="2.49325">
        <ele>89.2</ele>
        <time>2015-06-08T20:07:42.790Z</time>
      </trkpt>
      <trkpt lat="48.81058" lon="2.49317">
        <ele>89.4</ele>
        <time>2015-06-08T20:07:43.673Z</time>
      </trkpt>
      <trkpt lat="48.8106" lon="2.49312">
        <ele>89.2</ele>
        <time>2015-06-08T20:07:44.771Z</time>
      </trkpt>
      <trkpt lat="48.81066" lon="2.49303">
        <ele>89.3</ele>
        <time>2015-06-08T20:07:46.668Z</time>
      </trkpt>
      <trkpt lat="48.81068" lon="2.49298">
        <ele>89.3</ele>
        <time>2015-06-08T20:07:47.707Z</time>
      </trkpt>
      <trkpt lat="48.81071" lon="2.49292">
        <ele>89.4</ele>
        <time>2015-06-08T20:07:48.709Z</time>
      </trkpt>
      <trkpt lat="48.81073" lon="2.49287">
        <ele>89.5</ele>
        <time>2015-06-08T20:07:49.716Z</time>
      </trkpt>
      <trkpt lat="48.81074" lon="2.4928">
        <ele>89.6</ele>
        <time>2015-06-08T20:07:50.913Z</time>
      </trkpt>
      <trkpt lat="48.81076" lon="2.49273">
        <ele>89.6</ele>
        <time>2015-06-08T20:07:51.668Z</time>
      </trkpt>
      <trkpt lat="48.81076" lon="2.49263">
        <ele>89.1</ele>
        <time>2015-06-08T20:07:52.689Z</time>
      </trkpt>
      <trkpt lat="48.81076" lon="2.49254">
        <ele>89</ele>
        <time>2015-06-08T20:07:53.711Z</time>
      </trkpt>
      <trkpt lat="48.81077" lon="2.49247">
        <ele>88.6</ele>
        <time>2015-06-08T20:07:54.707Z</time>
      </trkpt>
      <trkpt lat="48.81077" lon="2.49238">
        <ele>88.4</ele>
        <time>2015-06-08T20:07:55.707Z</time>
      </trkpt>
      <trkpt lat="48.81079" lon="2.49229">
        <ele>88.3</ele>
        <time>2015-06-08T20:07:57.498Z</time>
      </trkpt>
      <trkpt lat="48.81079" lon="2.49221">
        <ele>88</ele>
        <time>2015-06-08T20:07:57.826Z</time>
      </trkpt>
      <trkpt lat="48.81079" lon="2.49212">
        <ele>87.9</ele>
        <time>2015-06-08T20:07:58.758Z</time>
      </trkpt>
      <trkpt lat="48.8108" lon="2.49207">
        <ele>87.7</ele>
        <time>2015-06-08T20:07:59.664Z</time>
      </trkpt>
      <trkpt lat="48.81082" lon="2.49196">
        <ele>87.5</ele>
        <time>2015-06-08T20:08:02.597Z</time>
      </trkpt>
      <trkpt lat="48.81082" lon="2.4919">
        <ele>87.5</ele>
        <time>2015-06-08T20:08:02.757Z</time>
      </trkpt>
      <trkpt lat="48.81082" lon="2.49184">
        <ele>87.5</ele>
        <time>2015-06-08T20:08:03.810Z</time>
      </trkpt>
      <trkpt lat="48.81083" lon="2.49176">
        <ele>87.3</ele>
        <time>2015-06-08T20:08:04.708Z</time>
      </trkpt>
      <trkpt lat="48.81083" lon="2.49165">
        <ele>87</ele>
        <time>2015-06-08T20:08:05.721Z</time>
      </trkpt>
      <trkpt lat="48.81085" lon="2.49157">
        <ele>87</ele>
        <time>2015-06-08T20:08:06.746Z</time>
      </trkpt>
      <trkpt lat="48.81091" lon="2.49148">
        <ele>86.5</ele>
        <time>2015-06-08T20:08:07.748Z</time>
      </trkpt>
      <trkpt lat="48.81093" lon="2.49141">
        <ele>86.5</ele>
        <time>2015-06-08T20:08:08.795Z</time>
      </trkpt>
      <trkpt lat="48.81095" lon="2.49135">
        <ele>86.3</ele>
        <time>2015-06-08T20:08:09.789Z</time>
      </trkpt>
      <trkpt lat="48.81099" lon="2.49126">
        <ele>86.5</ele>
        <time>2015-06-08T20:08:10.679Z</time>
      </trkpt>
      <trkpt lat="48.81102" lon="2.49117">
        <ele>86.5</ele>
        <time>2015-06-08T20:08:11.715Z</time>
      </trkpt>
      <trkpt lat="48.81104" lon="2.49109">
        <ele>86.5</ele>
        <time>2015-06-08T20:08:12.711Z</time>
      </trkpt>
      <trkpt lat="48.81102" lon="2.49099">
        <ele>85.5</ele>
        <time>2015-06-08T20:08:13.733Z</time>
      </trkpt>
      <trkpt lat="48.81102" lon="2.4909">
        <ele>85</ele>
        <time>2015-06-08T20:08:14.758Z</time>
      </trkpt>
      <trkpt lat="48.81104" lon="2.49079">
        <ele>85.4</ele>
        <time>2015-06-08T20:08:16.773Z</time>
      </trkpt>
      <trkpt lat="48.81108" lon="2.49074">
        <ele>85.5</ele>
        <time>2015-06-08T20:08:17.780Z</time>
      </trkpt>
      <trkpt lat="48.8111" lon="2.49066">
        <ele>85.4</ele>
        <time>2015-06-08T20:08:18.712Z</time>
      </trkpt>
      <trkpt lat="48.81112" lon="2.49059">
        <ele>85.4</ele>
        <time>2015-06-08T20:08:19.716Z</time>
      </trkpt>
      <trkpt lat="48.81115" lon="2.49048">
        <ele>85.7</ele>
        <time>2015-06-08T20:08:20.751Z</time>
      </trkpt>
      <trkpt lat="48.81117" lon="2.4904">
        <ele>86</ele>
        <time>2015-06-08T20:08:21.749Z</time>
      </trkpt>
      <trkpt lat="48.8112" lon="2.49034">
        <ele>85.9</ele>
        <time>2015-06-08T20:08:22.692Z</time>
      </trkpt>
      <trkpt lat="48.81121" lon="2.49027">
        <ele>85.8</ele>
        <time>2015-06-08T20:08:23.691Z</time>
      </trkpt>
      <trkpt lat="48.81121" lon="2.4902">
        <ele>85.8</ele>
        <time>2015-06-08T20:08:24.705Z</time>
      </trkpt>
      <trkpt lat="48.81122" lon="2.49012">
        <ele>86</ele>
        <time>2015-06-08T20:08:25.707Z</time>
      </trkpt>
      <trkpt lat="48.81123" lon="2.49005">
        <ele>86</ele>
        <time>2015-06-08T20:08:26.765Z</time>
      </trkpt>
      <trkpt lat="48.81125" lon="2.48998">
        <ele>86.2</ele>
        <time>2015-06-08T20:08:27.767Z</time>
      </trkpt>
      <trkpt lat="48.81127" lon="2.48992">
        <ele>86.4</ele>
        <time>2015-06-08T20:08:28.772Z</time>
      </trkpt>
      <trkpt lat="48.81128" lon="2.48985">
        <ele>86.1</ele>
        <time>2015-06-08T20:08:29.780Z</time>
      </trkpt>
      <trkpt lat="48.81129" lon="2.48978">
        <ele>85.9</ele>
        <time>2015-06-08T20:08:30.702Z</time>
      </trkpt>
      <trkpt lat="48.8113" lon="2.48969">
        <ele>85.9</ele>
        <time>2015-06-08T20:08:31.714Z</time>
      </trkpt>
      <trkpt lat="48.8113" lon="2.4896">
        <ele>85.9</ele>
        <time>2015-06-08T20:08:32.761Z</time>
      </trkpt>
      <trkpt lat="48.81131" lon="2.48953">
        <ele>86</ele>
        <time>2015-06-08T20:08:33.756Z</time>
      </trkpt>
      <trkpt lat="48.81133" lon="2.48946">
        <ele>85.9</ele>
        <time>2015-06-08T20:08:34.708Z</time>
      </trkpt>
      <trkpt lat="48.81137" lon="2.48938">
        <ele>86.3</ele>
        <time>2015-06-08T20:08:35.701Z</time>
      </trkpt>
      <trkpt lat="48.81139" lon="2.48931">
        <ele>86.4</ele>
        <time>2015-06-08T20:08:36.717Z</time>
      </trkpt>
      <trkpt lat="48.81141" lon="2.48922">
        <ele>86.8</ele>
        <time>2015-06-08T20:08:37.730Z</time>
      </trkpt>
      <trkpt lat="48.81142" lon="2.48914">
        <ele>87.1</ele>
        <time>2015-06-08T20:08:38.766Z</time>
      </trkpt>
      <trkpt lat="48.81144" lon="2.48906">
        <ele>87.3</ele>
        <time>2015-06-08T20:08:39.759Z</time>
      </trkpt>
      <trkpt lat="48.81145" lon="2.48899">
        <ele>87.4</ele>
        <time>2015-06-08T20:08:40.767Z</time>
      </trkpt>
      <trkpt lat="48.81146" lon="2.48891">
        <ele>87.5</ele>
        <time>2015-06-08T20:08:41.775Z</time>
      </trkpt>
      <trkpt lat="48.81148" lon="2.48884">
        <ele>87.5</ele>
        <time>2015-06-08T20:08:42.700Z</time>
      </trkpt>
      <trkpt lat="48.81149" lon="2.48875">
        <ele>87.6</ele>
        <time>2015-06-08T20:08:43.733Z</time>
      </trkpt>
      <trkpt lat="48.8115" lon="2.48867">
        <ele>87.5</ele>
        <time>2015-06-08T20:08:44.772Z</time>
      </trkpt>
      <trkpt lat="48.81151" lon="2.4886">
        <ele>87.3</ele>
        <time>2015-06-08T20:08:45.781Z</time>
      </trkpt>
      <trkpt lat="48.81152" lon="2.48854">
        <ele>87.2</ele>
        <time>2015-06-08T20:08:46.789Z</time>
      </trkpt>
      <trkpt lat="48.81154" lon="2.48845">
        <ele>87.3</ele>
        <time>2015-06-08T20:08:47.717Z</time>
      </trkpt>
      <trkpt lat="48.81156" lon="2.48837">
        <ele>87.4</ele>
        <time>2015-06-08T20:08:48.707Z</time>
      </trkpt>
      <trkpt lat="48.81158" lon="2.4883">
        <ele>87.4</ele>
        <time>2015-06-08T20:08:49.710Z</time>
      </trkpt>
      <trkpt lat="48.8116" lon="2.48822">
        <ele>87.3</ele>
        <time>2015-06-08T20:08:50.764Z</time>
      </trkpt>
      <trkpt lat="48.81162" lon="2.48815">
        <ele>87.2</ele>
        <time>2015-06-08T20:08:51.758Z</time>
      </trkpt>
      <trkpt lat="48.81164" lon="2.48809">
        <ele>87.5</ele>
        <time>2015-06-08T20:08:52.780Z</time>
      </trkpt>
      <trkpt lat="48.81166" lon="2.48803">
        <ele>87.8</ele>
        <time>2015-06-08T20:08:53.702Z</time>
      </trkpt>
      <trkpt lat="48.81168" lon="2.48796">
        <ele>87.6</ele>
        <time>2015-06-08T20:08:54.702Z</time>
      </trkpt>
      <trkpt lat="48.8117" lon="2.4879">
        <ele>87.8</ele>
        <time>2015-06-08T20:08:55.713Z</time>
      </trkpt>
      <trkpt lat="48.81172" lon="2.48782">
        <ele>87.8</ele>
        <time>2015-06-08T20:08:56.773Z</time>
      </trkpt>
      <trkpt lat="48.81173" lon="2.48774">
        <ele>87.8</ele>
        <time>2015-06-08T20:08:57.773Z</time>
      </trkpt>
      <trkpt lat="48.81175" lon="2.48765">
        <ele>87.5</ele>
        <time>2015-06-08T20:08:58.700Z</time>
      </trkpt>
      <trkpt lat="48.81176" lon="2.48757">
        <ele>87.4</ele>
        <time>2015-06-08T20:08:59.700Z</time>
      </trkpt>
      <trkpt lat="48.81178" lon="2.48749">
        <ele>87.4</ele>
        <time>2015-06-08T20:09:00.706Z</time>
      </trkpt>
      <trkpt lat="48.8118" lon="2.48742">
        <ele>87.3</ele>
        <time>2015-06-08T20:09:01.716Z</time>
      </trkpt>
      <trkpt lat="48.81182" lon="2.48735">
        <ele>87</ele>
        <time>2015-06-08T20:09:02.764Z</time>
      </trkpt>
      <trkpt lat="48.81184" lon="2.48728">
        <ele>86.6</ele>
        <time>2015-06-08T20:09:03.750Z</time>
      </trkpt>
      <trkpt lat="48.81186" lon="2.48722">
        <ele>86.6</ele>
        <time>2015-06-08T20:09:04.759Z</time>
      </trkpt>
      <trkpt lat="48.81187" lon="2.48716">
        <ele>86.8</ele>
        <time>2015-06-08T20:09:05.768Z</time>
      </trkpt>
      <trkpt lat="48.8119" lon="2.48704">
        <ele>86.1</ele>
        <time>2015-06-08T20:09:07.698Z</time>
      </trkpt>
      <trkpt lat="48.81192" lon="2.487">
        <ele>86.1</ele>
        <time>2015-06-08T20:09:08.796Z</time>
      </trkpt>
      <trkpt lat="48.81195" lon="2.4869">
        <ele>86.1</ele>
        <time>2015-06-08T20:09:10.705Z</time>
      </trkpt>
      <trkpt lat="48.81196" lon="2.48684">
        <ele>85.7</ele>
        <time>2015-06-08T20:09:11.728Z</time>
      </trkpt>
      <trkpt lat="48.81196" lon="2.48677">
        <ele>85.4</ele>
        <time>2015-06-08T20:09:12.782Z</time>
      </trkpt>
      <trkpt lat="48.81197" lon="2.48668">
        <ele>85.1</ele>
        <time>2015-06-08T20:09:13.705Z</time>
      </trkpt>
      <trkpt lat="48.81198" lon="2.48656">
        <ele>84.7</ele>
        <time>2015-06-08T20:09:15.757Z</time>
      </trkpt>
      <trkpt lat="48.812" lon="2.4865">
        <ele>84.5</ele>
        <time>2015-06-08T20:09:16.766Z</time>
      </trkpt>
      <trkpt lat="48.81202" lon="2.4864">
        <ele>84.5</ele>
        <time>2015-06-08T20:09:18.724Z</time>
      </trkpt>
      <trkpt lat="48.81202" lon="2.48633">
        <ele>84.8</ele>
        <time>2015-06-08T20:09:19.766Z</time>
      </trkpt>
      <trkpt lat="48.81202" lon="2.48621">
        <ele>84.7</ele>
        <time>2015-06-08T20:09:21.772Z</time>
      </trkpt>
      <trkpt lat="48.81202" lon="2.48616">
        <ele>84.7</ele>
        <time>2015-06-08T20:09:22.729Z</time>
      </trkpt>
      <trkpt lat="48.81202" lon="2.48605">
        <ele>84.6</ele>
        <time>2015-06-08T20:09:24.704Z</time>
      </trkpt>
      <trkpt lat="48.81205" lon="2.48601">
        <ele>84.4</ele>
        <time>2015-06-08T20:09:25.737Z</time>
      </trkpt>
      <trkpt lat="48.81208" lon="2.48596">
        <ele>84.1</ele>
        <time>2015-06-08T20:09:26.795Z</time>
      </trkpt>
      <trkpt lat="48.8121" lon="2.4859">
        <ele>83.7</ele>
        <time>2015-06-08T20:09:27.704Z</time>
      </trkpt>
      <trkpt lat="48.81215" lon="2.48579">
        <ele>83.2</ele>
        <time>2015-06-08T20:09:29.729Z</time>
      </trkpt>
      <trkpt lat="48.81217" lon="2.48573">
        <ele>82.9</ele>
        <time>2015-06-08T20:09:30.748Z</time>
      </trkpt>
      <trkpt lat="48.81218" lon="2.48566">
        <ele>82.9</ele>
        <time>2015-06-08T20:09:31.702Z</time>
      </trkpt>
      <trkpt lat="48.81219" lon="2.4856">
        <ele>83</ele>
        <time>2015-06-08T20:09:32.824Z</time>
      </trkpt>
      <trkpt lat="48.81221" lon="2.48547">
        <ele>83.1</ele>
        <time>2015-06-08T20:09:34.717Z</time>
      </trkpt>
      <trkpt lat="48.81221" lon="2.48539">
        <ele>83</ele>
        <time>2015-06-08T20:09:35.712Z</time>
      </trkpt>
      <trkpt lat="48.81221" lon="2.4853">
        <ele>82.7</ele>
        <time>2015-06-08T20:09:36.667Z</time>
      </trkpt>
      <trkpt lat="48.81221" lon="2.48522">
        <ele>82.8</ele>
        <time>2015-06-08T20:09:37.665Z</time>
      </trkpt>
      <trkpt lat="48.8122" lon="2.48515">
        <ele>82.9</ele>
        <time>2015-06-08T20:09:38.718Z</time>
      </trkpt>
      <trkpt lat="48.8122" lon="2.48507">
        <ele>82.9</ele>
        <time>2015-06-08T20:09:39.845Z</time>
      </trkpt>
      <trkpt lat="48.8122" lon="2.485">
        <ele>83</ele>
        <time>2015-06-08T20:09:41.327Z</time>
      </trkpt>
      <trkpt lat="48.8122" lon="2.48492">
        <ele>83.2</ele>
        <time>2015-06-08T20:09:41.634Z</time>
      </trkpt>
      <trkpt lat="48.8122" lon="2.4848">
        <ele>83.3</ele>
        <time>2015-06-08T20:09:43.706Z</time>
      </trkpt>
      <trkpt lat="48.8122" lon="2.48475">
        <ele>83.4</ele>
        <time>2015-06-08T20:09:44.719Z</time>
      </trkpt>
      <trkpt lat="48.81221" lon="2.48468">
        <ele>83.3</ele>
        <time>2015-06-08T20:09:46.486Z</time>
      </trkpt>
      <trkpt lat="48.81222" lon="2.4846">
        <ele>83.2</ele>
        <time>2015-06-08T20:09:46.640Z</time>
      </trkpt>
      <trkpt lat="48.81223" lon="2.48452">
        <ele>83.3</ele>
        <time>2015-06-08T20:09:47.669Z</time>
      </trkpt>
      <trkpt lat="48.81223" lon="2.48443">
        <ele>83.9</ele>
        <time>2015-06-08T20:09:48.684Z</time>
      </trkpt>
      <trkpt lat="48.81225" lon="2.48434">
        <ele>84</ele>
        <time>2015-06-08T20:09:49.691Z</time>
      </trkpt>
      <trkpt lat="48.81226" lon="2.48425">
        <ele>84.1</ele>
        <time>2015-06-08T20:09:50.726Z</time>
      </trkpt>
      <trkpt lat="48.81226" lon="2.48416">
        <ele>84.2</ele>
        <time>2015-06-08T20:09:51.704Z</time>
      </trkpt>
      <trkpt lat="48.81226" lon="2.48408">
        <ele>84.4</ele>
        <time>2015-06-08T20:09:52.732Z</time>
      </trkpt>
      <trkpt lat="48.81227" lon="2.48399">
        <ele>84.2</ele>
        <time>2015-06-08T20:09:53.747Z</time>
      </trkpt>
      <trkpt lat="48.81228" lon="2.48392">
        <ele>84.2</ele>
        <time>2015-06-08T20:09:54.645Z</time>
      </trkpt>
      <trkpt lat="48.8123" lon="2.48385">
        <ele>84.4</ele>
        <time>2015-06-08T20:09:55.682Z</time>
      </trkpt>
      <trkpt lat="48.81233" lon="2.48376">
        <ele>84.4</ele>
        <time>2015-06-08T20:09:56.795Z</time>
      </trkpt>
      <trkpt lat="48.81235" lon="2.48369">
        <ele>84.3</ele>
        <time>2015-06-08T20:09:57.716Z</time>
      </trkpt>
      <trkpt lat="48.81236" lon="2.48362">
        <ele>84.4</ele>
        <time>2015-06-08T20:09:58.723Z</time>
      </trkpt>
      <trkpt lat="48.81237" lon="2.48354">
        <ele>84.6</ele>
        <time>2015-06-08T20:09:59.729Z</time>
      </trkpt>
      <trkpt lat="48.81238" lon="2.48348">
        <ele>84.8</ele>
        <time>2015-06-08T20:10:00.748Z</time>
      </trkpt>
      <trkpt lat="48.81241" lon="2.48335">
        <ele>84.7</ele>
        <time>2015-06-08T20:10:02.766Z</time>
      </trkpt>
      <trkpt lat="48.81241" lon="2.48329">
        <ele>85</ele>
        <time>2015-06-08T20:10:03.688Z</time>
      </trkpt>
      <trkpt lat="48.81243" lon="2.48317">
        <ele>84.8</ele>
        <time>2015-06-08T20:10:05.707Z</time>
      </trkpt>
      <trkpt lat="48.81243" lon="2.48312">
        <ele>85.1</ele>
        <time>2015-06-08T20:10:06.730Z</time>
      </trkpt>
      <trkpt lat="48.81244" lon="2.48305">
        <ele>85.4</ele>
        <time>2015-06-08T20:10:07.679Z</time>
      </trkpt>
      <trkpt lat="48.81244" lon="2.48298">
        <ele>85.6</ele>
        <time>2015-06-08T20:10:08.772Z</time>
      </trkpt>
      <trkpt lat="48.81245" lon="2.48291">
        <ele>85.8</ele>
        <time>2015-06-08T20:10:09.686Z</time>
      </trkpt>
      <trkpt lat="48.81247" lon="2.48285">
        <ele>86.1</ele>
        <time>2015-06-08T20:10:10.695Z</time>
      </trkpt>
      <trkpt lat="48.81248" lon="2.48278">
        <ele>86</ele>
        <time>2015-06-08T20:10:11.691Z</time>
      </trkpt>
      <trkpt lat="48.81248" lon="2.4827">
        <ele>86</ele>
        <time>2015-06-08T20:10:12.688Z</time>
      </trkpt>
      <trkpt lat="48.8125" lon="2.48262">
        <ele>86</ele>
        <time>2015-06-08T20:10:13.703Z</time>
      </trkpt>
      <trkpt lat="48.81251" lon="2.48255">
        <ele>86.3</ele>
        <time>2015-06-08T20:10:14.740Z</time>
      </trkpt>
      <trkpt lat="48.81253" lon="2.48248">
        <ele>86.5</ele>
        <time>2015-06-08T20:10:15.684Z</time>
      </trkpt>
      <trkpt lat="48.81254" lon="2.48241">
        <ele>86.9</ele>
        <time>2015-06-08T20:10:16.905Z</time>
      </trkpt>
      <trkpt lat="48.81256" lon="2.48234">
        <ele>86.8</ele>
        <time>2015-06-08T20:10:17.704Z</time>
      </trkpt>
      <trkpt lat="48.81256" lon="2.48227">
        <ele>86.9</ele>
        <time>2015-06-08T20:10:18.711Z</time>
      </trkpt>
      <trkpt lat="48.81257" lon="2.48215">
        <ele>87</ele>
        <time>2015-06-08T20:10:20.739Z</time>
      </trkpt>
      <trkpt lat="48.81257" lon="2.48209">
        <ele>87.1</ele>
        <time>2015-06-08T20:10:21.791Z</time>
      </trkpt>
      <trkpt lat="48.81259" lon="2.48198">
        <ele>87.3</ele>
        <time>2015-06-08T20:10:23.762Z</time>
      </trkpt>
      <trkpt lat="48.81261" lon="2.48191">
        <ele>87.1</ele>
        <time>2015-06-08T20:10:24.711Z</time>
      </trkpt>
      <trkpt lat="48.81263" lon="2.48179">
        <ele>86.7</ele>
        <time>2015-06-08T20:10:26.813Z</time>
      </trkpt>
      <trkpt lat="48.81264" lon="2.48172">
        <ele>86.4</ele>
        <time>2015-06-08T20:10:27.701Z</time>
      </trkpt>
      <trkpt lat="48.81267" lon="2.48165">
        <ele>86.4</ele>
        <time>2015-06-08T20:10:28.697Z</time>
      </trkpt>
      <trkpt lat="48.81267" lon="2.48159">
        <ele>86.4</ele>
        <time>2015-06-08T20:10:29.762Z</time>
      </trkpt>
      <trkpt lat="48.81269" lon="2.48148">
        <ele>86.4</ele>
        <time>2015-06-08T20:10:31.690Z</time>
      </trkpt>
      <trkpt lat="48.8127" lon="2.48143">
        <ele>86.4</ele>
        <time>2015-06-08T20:10:32.776Z</time>
      </trkpt>
      <trkpt lat="48.81272" lon="2.48133">
        <ele>86.8</ele>
        <time>2015-06-08T20:10:34.714Z</time>
      </trkpt>
      <trkpt lat="48.81273" lon="2.48128">
        <ele>86.9</ele>
        <time>2015-06-08T20:10:35.654Z</time>
      </trkpt>
      <trkpt lat="48.81276" lon="2.48118">
        <ele>87.4</ele>
        <time>2015-06-08T20:10:37.663Z</time>
      </trkpt>
      <trkpt lat="48.81277" lon="2.48113">
        <ele>87.5</ele>
        <time>2015-06-08T20:10:38.755Z</time>
      </trkpt>
      <trkpt lat="48.81277" lon="2.48102">
        <ele>87.7</ele>
        <time>2015-06-08T20:10:41.434Z</time>
      </trkpt>
      <trkpt lat="48.81278" lon="2.48097">
        <ele>87.7</ele>
        <time>2015-06-08T20:10:41.737Z</time>
      </trkpt>
      <trkpt lat="48.8128" lon="2.48087">
        <ele>88.2</ele>
        <time>2015-06-08T20:10:43.668Z</time>
      </trkpt>
      <trkpt lat="48.81281" lon="2.48083">
        <ele>88.7</ele>
        <time>2015-06-08T20:10:44.788Z</time>
      </trkpt>
      <trkpt lat="48.81281" lon="2.48073">
        <ele>89.4</ele>
        <time>2015-06-08T20:10:46.677Z</time>
      </trkpt>
      <trkpt lat="48.81281" lon="2.48068">
        <ele>89.6</ele>
        <time>2015-06-08T20:10:47.785Z</time>
      </trkpt>
      <trkpt lat="48.81281" lon="2.48057">
        <ele>90.3</ele>
        <time>2015-06-08T20:10:49.697Z</time>
      </trkpt>
      <trkpt lat="48.81282" lon="2.48053">
        <ele>90.4</ele>
        <time>2015-06-08T20:10:50.878Z</time>
      </trkpt>
      <trkpt lat="48.81284" lon="2.48043">
        <ele>90.9</ele>
        <time>2015-06-08T20:10:53.754Z</time>
      </trkpt>
      <trkpt lat="48.81285" lon="2.4804">
        <ele>91</ele>
        <time>2015-06-08T20:10:54.788Z</time>
      </trkpt>
      <trkpt lat="48.81288" lon="2.48028">
        <ele>89.8</ele>
        <time>2015-06-08T20:10:57.743Z</time>
      </trkpt>
      <trkpt lat="48.81289" lon="2.48025">
        <ele>90.2</ele>
        <time>2015-06-08T20:10:58.758Z</time>
      </trkpt>
      <trkpt lat="48.8129" lon="2.48011">
        <ele>90.6</ele>
        <time>2015-06-08T20:11:03.695Z</time>
      </trkpt>
      <trkpt lat="48.8129" lon="2.48009">
        <ele>90.5</ele>
        <time>2015-06-08T20:11:04.754Z</time>
      </trkpt>
      <trkpt lat="48.81292" lon="2.47997">
        <ele>90.5</ele>
        <time>2015-06-08T20:11:08.769Z</time>
      </trkpt>
      <trkpt lat="48.81293" lon="2.47994">
        <ele>90.8</ele>
        <time>2015-06-08T20:11:09.708Z</time>
      </trkpt>
      <trkpt lat="48.81295" lon="2.47987">
        <ele>90.9</ele>
        <time>2015-06-08T20:12:56.574Z</time>
      </trkpt>
      <trkpt lat="48.81301" lon="2.4795">
        <ele>93</ele>
        <time>2015-06-08T20:12:56.728Z</time>
      </trkpt>
      <trkpt lat="48.81306" lon="2.47942">
        <ele>92.8</ele>
        <time>2015-06-08T20:12:58.752Z</time>
      </trkpt>
      <trkpt lat="48.8131" lon="2.47936">
        <ele>93.2</ele>
        <time>2015-06-08T20:12:59.767Z</time>
      </trkpt>
      <trkpt lat="48.81315" lon="2.47927">
        <ele>92.5</ele>
        <time>2015-06-08T20:13:01.758Z</time>
      </trkpt>
      <trkpt lat="48.81317" lon="2.47923">
        <ele>91.9</ele>
        <time>2015-06-08T20:13:02.763Z</time>
      </trkpt>
      <trkpt lat="48.81322" lon="2.47912">
        <ele>91.8</ele>
        <time>2015-06-08T20:13:04.815Z</time>
      </trkpt>
      <trkpt lat="48.81324" lon="2.47906">
        <ele>91.7</ele>
        <time>2015-06-08T20:13:05.708Z</time>
      </trkpt>
      <trkpt lat="48.81328" lon="2.47896">
        <ele>91.4</ele>
        <time>2015-06-08T20:13:07.738Z</time>
      </trkpt>
      <trkpt lat="48.81329" lon="2.47891">
        <ele>90.8</ele>
        <time>2015-06-08T20:13:08.795Z</time>
      </trkpt>
      <trkpt lat="48.81327" lon="2.4788">
        <ele>90.9</ele>
        <time>2015-06-08T20:13:11.813Z</time>
      </trkpt>
      <trkpt lat="48.81327" lon="2.47876">
        <ele>91.1</ele>
        <time>2015-06-08T20:13:12.719Z</time>
      </trkpt>
      <trkpt lat="48.81333" lon="2.47868">
        <ele>90.4</ele>
        <time>2015-06-08T20:13:16.938Z</time>
      </trkpt>
      <trkpt lat="48.81335" lon="2.47865">
        <ele>90.3</ele>
        <time>2015-06-08T20:13:17.705Z</time>
      </trkpt>
      <trkpt lat="48.81341" lon="2.47858">
        <ele>89.7</ele>
        <time>2015-06-08T20:13:19.770Z</time>
      </trkpt>
      <trkpt lat="48.81344" lon="2.47854">
        <ele>89.1</ele>
        <time>2015-06-08T20:13:20.814Z</time>
      </trkpt>
      <trkpt lat="48.8135" lon="2.47844">
        <ele>88.9</ele>
        <time>2015-06-08T20:13:22.718Z</time>
      </trkpt>
      <trkpt lat="48.81353" lon="2.47839">
        <ele>88.8</ele>
        <time>2015-06-08T20:13:23.731Z</time>
      </trkpt>
      <trkpt lat="48.81357" lon="2.47828">
        <ele>88.3</ele>
        <time>2015-06-08T20:13:25.748Z</time>
      </trkpt>
      <trkpt lat="48.81358" lon="2.47823">
        <ele>88.1</ele>
        <time>2015-06-08T20:13:26.765Z</time>
      </trkpt>
      <trkpt lat="48.81362" lon="2.47812">
        <ele>87.9</ele>
        <time>2015-06-08T20:13:28.788Z</time>
      </trkpt>
      <trkpt lat="48.81365" lon="2.47806">
        <ele>87.9</ele>
        <time>2015-06-08T20:13:29.710Z</time>
      </trkpt>
      <trkpt lat="48.8137" lon="2.47795">
        <ele>87.7</ele>
        <time>2015-06-08T20:13:32.140Z</time>
      </trkpt>
      <trkpt lat="48.81373" lon="2.4779">
        <ele>87.6</ele>
        <time>2015-06-08T20:13:32.770Z</time>
      </trkpt>
      <trkpt lat="48.81377" lon="2.47778">
        <ele>87.4</ele>
        <time>2015-06-08T20:13:34.776Z</time>
      </trkpt>
      <trkpt lat="48.81379" lon="2.47772">
        <ele>87.3</ele>
        <time>2015-06-08T20:13:35.693Z</time>
      </trkpt>
      <trkpt lat="48.81382" lon="2.47761">
        <ele>86.5</ele>
        <time>2015-06-08T20:13:37.748Z</time>
      </trkpt>
      <trkpt lat="48.81385" lon="2.47755">
        <ele>86.1</ele>
        <time>2015-06-08T20:13:38.756Z</time>
      </trkpt>
      <trkpt lat="48.81388" lon="2.47749">
        <ele>86.3</ele>
        <time>2015-06-08T20:13:39.651Z</time>
      </trkpt>
      <trkpt lat="48.8139" lon="2.47742">
        <ele>86.5</ele>
        <time>2015-06-08T20:13:40.743Z</time>
      </trkpt>
      <trkpt lat="48.81392" lon="2.47734">
        <ele>86.5</ele>
        <time>2015-06-08T20:13:41.765Z</time>
      </trkpt>
      <trkpt lat="48.81395" lon="2.47727">
        <ele>86.5</ele>
        <time>2015-06-08T20:13:42.688Z</time>
      </trkpt>
      <trkpt lat="48.81397" lon="2.47719">
        <ele>86.1</ele>
        <time>2015-06-08T20:13:43.679Z</time>
      </trkpt>
      <trkpt lat="48.814" lon="2.47711">
        <ele>85.9</ele>
        <time>2015-06-08T20:13:44.743Z</time>
      </trkpt>
      <trkpt lat="48.81402" lon="2.47704">
        <ele>85.7</ele>
        <time>2015-06-08T20:13:45.766Z</time>
      </trkpt>
      <trkpt lat="48.81405" lon="2.47696">
        <ele>85.9</ele>
        <time>2015-06-08T20:13:46.686Z</time>
      </trkpt>
      <trkpt lat="48.81407" lon="2.47689">
        <ele>85.5</ele>
        <time>2015-06-08T20:13:47.704Z</time>
      </trkpt>
      <trkpt lat="48.81411" lon="2.47681">
        <ele>86.5</ele>
        <time>2015-06-08T20:13:48.683Z</time>
      </trkpt>
      <trkpt lat="48.81414" lon="2.47673">
        <ele>86.8</ele>
        <time>2015-06-08T20:13:49.695Z</time>
      </trkpt>
      <trkpt lat="48.81416" lon="2.47665">
        <ele>86.5</ele>
        <time>2015-06-08T20:13:50.725Z</time>
      </trkpt>
      <trkpt lat="48.81418" lon="2.47657">
        <ele>86.7</ele>
        <time>2015-06-08T20:13:51.732Z</time>
      </trkpt>
      <trkpt lat="48.8142" lon="2.4765">
        <ele>86.9</ele>
        <time>2015-06-08T20:13:52.754Z</time>
      </trkpt>
      <trkpt lat="48.81423" lon="2.47642">
        <ele>86.4</ele>
        <time>2015-06-08T20:13:53.746Z</time>
      </trkpt>
      <trkpt lat="48.81426" lon="2.47634">
        <ele>86.4</ele>
        <time>2015-06-08T20:13:54.766Z</time>
      </trkpt>
      <trkpt lat="48.81428" lon="2.47627">
        <ele>86.3</ele>
        <time>2015-06-08T20:13:55.686Z</time>
      </trkpt>
      <trkpt lat="48.81431" lon="2.47619">
        <ele>86.4</ele>
        <time>2015-06-08T20:13:56.802Z</time>
      </trkpt>
      <trkpt lat="48.81434" lon="2.47611">
        <ele>86.6</ele>
        <time>2015-06-08T20:13:57.708Z</time>
      </trkpt>
      <trkpt lat="48.81437" lon="2.47603">
        <ele>86.6</ele>
        <time>2015-06-08T20:13:58.723Z</time>
      </trkpt>
      <trkpt lat="48.8144" lon="2.47594">
        <ele>86.6</ele>
        <time>2015-06-08T20:13:59.713Z</time>
      </trkpt>
      <trkpt lat="48.81443" lon="2.47586">
        <ele>86.5</ele>
        <time>2015-06-08T20:14:00.686Z</time>
      </trkpt>
      <trkpt lat="48.81446" lon="2.47577">
        <ele>86.4</ele>
        <time>2015-06-08T20:14:01.683Z</time>
      </trkpt>
      <trkpt lat="48.81449" lon="2.47569">
        <ele>86.6</ele>
        <time>2015-06-08T20:14:02.746Z</time>
      </trkpt>
      <trkpt lat="48.81452" lon="2.4756">
        <ele>86.6</ele>
        <time>2015-06-08T20:14:03.751Z</time>
      </trkpt>
      <trkpt lat="48.81455" lon="2.47551">
        <ele>86.7</ele>
        <time>2015-06-08T20:14:04.764Z</time>
      </trkpt>
      <trkpt lat="48.81458" lon="2.47543">
        <ele>86.4</ele>
        <time>2015-06-08T20:14:05.703Z</time>
      </trkpt>
      <trkpt lat="48.81462" lon="2.47534">
        <ele>86.4</ele>
        <time>2015-06-08T20:14:06.725Z</time>
      </trkpt>
      <trkpt lat="48.81465" lon="2.47525">
        <ele>86</ele>
        <time>2015-06-08T20:14:07.759Z</time>
      </trkpt>
      <trkpt lat="48.81468" lon="2.47516">
        <ele>86</ele>
        <time>2015-06-08T20:14:08.827Z</time>
      </trkpt>
      <trkpt lat="48.81472" lon="2.47508">
        <ele>86</ele>
        <time>2015-06-08T20:14:09.684Z</time>
      </trkpt>
      <trkpt lat="48.81475" lon="2.475">
        <ele>86.2</ele>
        <time>2015-06-08T20:14:10.682Z</time>
      </trkpt>
      <trkpt lat="48.81478" lon="2.47493">
        <ele>86.6</ele>
        <time>2015-06-08T20:14:11.687Z</time>
      </trkpt>
      <trkpt lat="48.81482" lon="2.47486">
        <ele>86.9</ele>
        <time>2015-06-08T20:14:12.710Z</time>
      </trkpt>
      <trkpt lat="48.81485" lon="2.47478">
        <ele>86.9</ele>
        <time>2015-06-08T20:14:13.741Z</time>
      </trkpt>
      <trkpt lat="48.81488" lon="2.47471">
        <ele>87</ele>
        <time>2015-06-08T20:14:14.757Z</time>
      </trkpt>
      <trkpt lat="48.81492" lon="2.47463">
        <ele>87.3</ele>
        <time>2015-06-08T20:14:15.665Z</time>
      </trkpt>
      <trkpt lat="48.81495" lon="2.47455">
        <ele>87.7</ele>
        <time>2015-06-08T20:14:16.680Z</time>
      </trkpt>
      <trkpt lat="48.81499" lon="2.47448">
        <ele>88</ele>
        <time>2015-06-08T20:14:17.684Z</time>
      </trkpt>
      <trkpt lat="48.81502" lon="2.4744">
        <ele>88.2</ele>
        <time>2015-06-08T20:14:18.700Z</time>
      </trkpt>
      <trkpt lat="48.81506" lon="2.47432">
        <ele>88.1</ele>
        <time>2015-06-08T20:14:19.705Z</time>
      </trkpt>
      <trkpt lat="48.8151" lon="2.47425">
        <ele>88.1</ele>
        <time>2015-06-08T20:14:20.741Z</time>
      </trkpt>
      <trkpt lat="48.81514" lon="2.47417">
        <ele>88</ele>
        <time>2015-06-08T20:14:21.747Z</time>
      </trkpt>
      <trkpt lat="48.81517" lon="2.47409">
        <ele>87.9</ele>
        <time>2015-06-08T20:14:22.752Z</time>
      </trkpt>
      <trkpt lat="48.81521" lon="2.47402">
        <ele>87.7</ele>
        <time>2015-06-08T20:14:23.674Z</time>
      </trkpt>
      <trkpt lat="48.81524" lon="2.47394">
        <ele>87.6</ele>
        <time>2015-06-08T20:14:24.672Z</time>
      </trkpt>
      <trkpt lat="48.81526" lon="2.47386">
        <ele>87.1</ele>
        <time>2015-06-08T20:14:25.684Z</time>
      </trkpt>
      <trkpt lat="48.81529" lon="2.47378">
        <ele>87</ele>
        <time>2015-06-08T20:14:26.740Z</time>
      </trkpt>
      <trkpt lat="48.81532" lon="2.47371">
        <ele>86.7</ele>
        <time>2015-06-08T20:14:27.743Z</time>
      </trkpt>
      <trkpt lat="48.81534" lon="2.47362">
        <ele>86.5</ele>
        <time>2015-06-08T20:14:28.756Z</time>
      </trkpt>
      <trkpt lat="48.81537" lon="2.47354">
        <ele>86.9</ele>
        <time>2015-06-08T20:14:29.683Z</time>
      </trkpt>
      <trkpt lat="48.8154" lon="2.47346">
        <ele>87.1</ele>
        <time>2015-06-08T20:14:30.681Z</time>
      </trkpt>
      <trkpt lat="48.81543" lon="2.47339">
        <ele>87.1</ele>
        <time>2015-06-08T20:14:31.688Z</time>
      </trkpt>
      <trkpt lat="48.81547" lon="2.47331">
        <ele>87.2</ele>
        <time>2015-06-08T20:14:32.746Z</time>
      </trkpt>
      <trkpt lat="48.8155" lon="2.47323">
        <ele>87</ele>
        <time>2015-06-08T20:14:33.736Z</time>
      </trkpt>
      <trkpt lat="48.81553" lon="2.47316">
        <ele>87</ele>
        <time>2015-06-08T20:14:34.669Z</time>
      </trkpt>
      <trkpt lat="48.81556" lon="2.47308">
        <ele>86.8</ele>
        <time>2015-06-08T20:14:35.677Z</time>
      </trkpt>
      <trkpt lat="48.81559" lon="2.473">
        <ele>86.6</ele>
        <time>2015-06-08T20:14:36.676Z</time>
      </trkpt>
      <trkpt lat="48.81563" lon="2.47293">
        <ele>86.5</ele>
        <time>2015-06-08T20:14:37.678Z</time>
      </trkpt>
      <trkpt lat="48.81566" lon="2.47286">
        <ele>86</ele>
        <time>2015-06-08T20:14:38.744Z</time>
      </trkpt>
      <trkpt lat="48.8157" lon="2.47278">
        <ele>85.2</ele>
        <time>2015-06-08T20:14:39.751Z</time>
      </trkpt>
      <trkpt lat="48.81574" lon="2.47271">
        <ele>84.7</ele>
        <time>2015-06-08T20:14:40.684Z</time>
      </trkpt>
      <trkpt lat="48.81578" lon="2.47265">
        <ele>84.3</ele>
        <time>2015-06-08T20:14:41.672Z</time>
      </trkpt>
      <trkpt lat="48.81581" lon="2.47258">
        <ele>84.4</ele>
        <time>2015-06-08T20:14:42.687Z</time>
      </trkpt>
      <trkpt lat="48.81585" lon="2.47251">
        <ele>84.4</ele>
        <time>2015-06-08T20:14:43.687Z</time>
      </trkpt>
      <trkpt lat="48.81591" lon="2.47244">
        <ele>85.1</ele>
        <time>2015-06-08T20:14:44.775Z</time>
      </trkpt>
      <trkpt lat="48.81597" lon="2.47237">
        <ele>85.2</ele>
        <time>2015-06-08T20:14:45.657Z</time>
      </trkpt>
      <trkpt lat="48.81602" lon="2.47229">
        <ele>85.1</ele>
        <time>2015-06-08T20:14:46.699Z</time>
      </trkpt>
      <trkpt lat="48.81608" lon="2.47222">
        <ele>84.9</ele>
        <time>2015-06-08T20:14:47.687Z</time>
      </trkpt>
      <trkpt lat="48.81613" lon="2.47216">
        <ele>85</ele>
        <time>2015-06-08T20:14:48.693Z</time>
      </trkpt>
      <trkpt lat="48.81619" lon="2.4721">
        <ele>85.4</ele>
        <time>2015-06-08T20:14:49.723Z</time>
      </trkpt>
      <trkpt lat="48.81624" lon="2.47205">
        <ele>85.6</ele>
        <time>2015-06-08T20:14:50.731Z</time>
      </trkpt>
      <trkpt lat="48.81629" lon="2.472">
        <ele>85.5</ele>
        <time>2015-06-08T20:14:51.740Z</time>
      </trkpt>
      <trkpt lat="48.81633" lon="2.47196">
        <ele>85.6</ele>
        <time>2015-06-08T20:14:52.773Z</time>
      </trkpt>
      <trkpt lat="48.81638" lon="2.47192">
        <ele>85.8</ele>
        <time>2015-06-08T20:14:53.647Z</time>
      </trkpt>
      <trkpt lat="48.81643" lon="2.47187">
        <ele>85.9</ele>
        <time>2015-06-08T20:14:54.675Z</time>
      </trkpt>
      <trkpt lat="48.81647" lon="2.47181">
        <ele>86.2</ele>
        <time>2015-06-08T20:14:55.684Z</time>
      </trkpt>
      <trkpt lat="48.8165" lon="2.47175">
        <ele>86.5</ele>
        <time>2015-06-08T20:14:56.731Z</time>
      </trkpt>
      <trkpt lat="48.81653" lon="2.4717">
        <ele>86.2</ele>
        <time>2015-06-08T20:14:57.763Z</time>
      </trkpt>
      <trkpt lat="48.81658" lon="2.47166">
        <ele>86</ele>
        <time>2015-06-08T20:14:58.681Z</time>
      </trkpt>
      <trkpt lat="48.81663" lon="2.47161">
        <ele>86.2</ele>
        <time>2015-06-08T20:14:59.682Z</time>
      </trkpt>
      <trkpt lat="48.81669" lon="2.47155">
        <ele>85.8</ele>
        <time>2015-06-08T20:15:00.669Z</time>
      </trkpt>
      <trkpt lat="48.81676" lon="2.47149">
        <ele>85.7</ele>
        <time>2015-06-08T20:15:01.696Z</time>
      </trkpt>
      <trkpt lat="48.81681" lon="2.47142">
        <ele>86.2</ele>
        <time>2015-06-08T20:15:02.738Z</time>
      </trkpt>
      <trkpt lat="48.81686" lon="2.47136">
        <ele>85.9</ele>
        <time>2015-06-08T20:15:03.743Z</time>
      </trkpt>
      <trkpt lat="48.81691" lon="2.4713">
        <ele>86.1</ele>
        <time>2015-06-08T20:15:04.743Z</time>
      </trkpt>
      <trkpt lat="48.81696" lon="2.47124">
        <ele>86.4</ele>
        <time>2015-06-08T20:15:05.759Z</time>
      </trkpt>
      <trkpt lat="48.81701" lon="2.47117">
        <ele>86.5</ele>
        <time>2015-06-08T20:15:06.681Z</time>
      </trkpt>
      <trkpt lat="48.81707" lon="2.47111">
        <ele>86.9</ele>
        <time>2015-06-08T20:15:07.682Z</time>
      </trkpt>
      <trkpt lat="48.81712" lon="2.47105">
        <ele>87</ele>
        <time>2015-06-08T20:15:08.741Z</time>
      </trkpt>
      <trkpt lat="48.81717" lon="2.47099">
        <ele>87.2</ele>
        <time>2015-06-08T20:15:09.736Z</time>
      </trkpt>
      <trkpt lat="48.8172" lon="2.47094">
        <ele>87.1</ele>
        <time>2015-06-08T20:15:10.740Z</time>
      </trkpt>
      <trkpt lat="48.81725" lon="2.47088">
        <ele>87.2</ele>
        <time>2015-06-08T20:15:11.749Z</time>
      </trkpt>
      <trkpt lat="48.81728" lon="2.47083">
        <ele>87.4</ele>
        <time>2015-06-08T20:15:12.895Z</time>
      </trkpt>
      <trkpt lat="48.81732" lon="2.47077">
        <ele>87.2</ele>
        <time>2015-06-08T20:15:13.766Z</time>
      </trkpt>
      <trkpt lat="48.81736" lon="2.47072">
        <ele>86.9</ele>
        <time>2015-06-08T20:15:14.776Z</time>
      </trkpt>
      <trkpt lat="48.81743" lon="2.47066">
        <ele>85.7</ele>
        <time>2015-06-08T20:15:15.696Z</time>
      </trkpt>
      <trkpt lat="48.81749" lon="2.4706">
        <ele>84.8</ele>
        <time>2015-06-08T20:15:16.690Z</time>
      </trkpt>
      <trkpt lat="48.81753" lon="2.47055">
        <ele>84.7</ele>
        <time>2015-06-08T20:15:17.688Z</time>
      </trkpt>
      <trkpt lat="48.81758" lon="2.47049">
        <ele>84.9</ele>
        <time>2015-06-08T20:15:18.697Z</time>
      </trkpt>
      <trkpt lat="48.81762" lon="2.47044">
        <ele>84.9</ele>
        <time>2015-06-08T20:15:19.729Z</time>
      </trkpt>
      <trkpt lat="48.81766" lon="2.4704">
        <ele>85.1</ele>
        <time>2015-06-08T20:15:20.739Z</time>
      </trkpt>
      <trkpt lat="48.8177" lon="2.47035">
        <ele>85.2</ele>
        <time>2015-06-08T20:15:21.743Z</time>
      </trkpt>
      <trkpt lat="48.81775" lon="2.4703">
        <ele>85</ele>
        <time>2015-06-08T20:15:22.758Z</time>
      </trkpt>
      <trkpt lat="48.81778" lon="2.47026">
        <ele>85.3</ele>
        <time>2015-06-08T20:15:23.684Z</time>
      </trkpt>
      <trkpt lat="48.81781" lon="2.47021">
        <ele>85.6</ele>
        <time>2015-06-08T20:15:24.687Z</time>
      </trkpt>
      <trkpt lat="48.81784" lon="2.47016">
        <ele>85.6</ele>
        <time>2015-06-08T20:15:25.693Z</time>
      </trkpt>
      <trkpt lat="48.81788" lon="2.4701">
        <ele>85.5</ele>
        <time>2015-06-08T20:15:26.743Z</time>
      </trkpt>
      <trkpt lat="48.8179" lon="2.47005">
        <ele>85.5</ele>
        <time>2015-06-08T20:15:27.746Z</time>
      </trkpt>
      <trkpt lat="48.81792" lon="2.46998">
        <ele>85.4</ele>
        <time>2015-06-08T20:15:28.745Z</time>
      </trkpt>
      <trkpt lat="48.81795" lon="2.46986">
        <ele>85.6</ele>
        <time>2015-06-08T20:15:30.683Z</time>
      </trkpt>
      <trkpt lat="48.81796" lon="2.46981">
        <ele>86</ele>
        <time>2015-06-08T20:15:31.742Z</time>
      </trkpt>
      <trkpt lat="48.81797" lon="2.46969">
        <ele>86.7</ele>
        <time>2015-06-08T20:15:33.759Z</time>
      </trkpt>
      <trkpt lat="48.81797" lon="2.46964">
        <ele>86.9</ele>
        <time>2015-06-08T20:15:34.680Z</time>
      </trkpt>
      <trkpt lat="48.81798" lon="2.46956">
        <ele>87</ele>
        <time>2015-06-08T20:15:36.704Z</time>
      </trkpt>
      <trkpt lat="48.81799" lon="2.46951">
        <ele>86.8</ele>
        <time>2015-06-08T20:15:37.707Z</time>
      </trkpt>
      <trkpt lat="48.81802" lon="2.46939">
        <ele>87.1</ele>
        <time>2015-06-08T20:15:40.729Z</time>
      </trkpt>
      <trkpt lat="48.81802" lon="2.46937">
        <ele>87.4</ele>
        <time>2015-06-08T20:15:41.749Z</time>
      </trkpt>
      <trkpt lat="48.81801" lon="2.46924">
        <ele>87.3</ele>
        <time>2015-06-08T20:15:44.782Z</time>
      </trkpt>
      <trkpt lat="48.81799" lon="2.4692">
        <ele>87.4</ele>
        <time>2015-06-08T20:15:45.717Z</time>
      </trkpt>
      <trkpt lat="48.81795" lon="2.46914">
        <ele>87.4</ele>
        <time>2015-06-08T20:15:47.699Z</time>
      </trkpt>
      <trkpt lat="48.81792" lon="2.46911">
        <ele>87.5</ele>
        <time>2015-06-08T20:15:48.757Z</time>
      </trkpt>
      <trkpt lat="48.81788" lon="2.46905">
        <ele>87.7</ele>
        <time>2015-06-08T20:15:50.744Z</time>
      </trkpt>
      <trkpt lat="48.81785" lon="2.469">
        <ele>87.6</ele>
        <time>2015-06-08T20:15:51.750Z</time>
      </trkpt>
      <trkpt lat="48.8178" lon="2.46889">
        <ele>87</ele>
        <time>2015-06-08T20:15:53.715Z</time>
      </trkpt>
      <trkpt lat="48.81778" lon="2.46883">
        <ele>86.7</ele>
        <time>2015-06-08T20:15:54.730Z</time>
      </trkpt>
      <trkpt lat="48.81775" lon="2.46872">
        <ele>86.5</ele>
        <time>2015-06-08T20:15:56.761Z</time>
      </trkpt>
      <trkpt lat="48.81774" lon="2.46867">
        <ele>86.6</ele>
        <time>2015-06-08T20:15:57.775Z</time>
      </trkpt>
      <trkpt lat="48.81772" lon="2.46857">
        <ele>86.9</ele>
        <time>2015-06-08T20:15:59.703Z</time>
      </trkpt>
      <trkpt lat="48.81771" lon="2.46852">
        <ele>87.3</ele>
        <time>2015-06-08T20:16:00.742Z</time>
      </trkpt>
      <trkpt lat="48.81768" lon="2.4684">
        <ele>89.7</ele>
        <time>2015-06-08T20:16:03.644Z</time>
      </trkpt>
      <trkpt lat="48.81767" lon="2.46837">
        <ele>90.3</ele>
        <time>2015-06-08T20:16:04.674Z</time>
      </trkpt>
      <trkpt lat="48.81768" lon="2.46828">
        <ele>92.2</ele>
        <time>2015-06-08T20:17:42.627Z</time>
      </trkpt>
      <trkpt lat="48.81776" lon="2.46816">
        <ele>100.3</ele>
        <time>2015-06-08T20:17:43.660Z</time>
      </trkpt>
      <trkpt lat="48.81783" lon="2.4681">
        <ele>100.6</ele>
        <time>2015-06-08T20:17:46.735Z</time>
      </trkpt>
      <trkpt lat="48.81786" lon="2.46807">
        <ele>100.9</ele>
        <time>2015-06-08T20:17:47.686Z</time>
      </trkpt>
      <trkpt lat="48.81791" lon="2.468">
        <ele>101.5</ele>
        <time>2015-06-08T20:17:49.698Z</time>
      </trkpt>
      <trkpt lat="48.81793" lon="2.46798">
        <ele>101.8</ele>
        <time>2015-06-08T20:17:50.716Z</time>
      </trkpt>
      <trkpt lat="48.8179" lon="2.4679">
        <ele>100.4</ele>
        <time>2015-06-08T20:17:55.687Z</time>
      </trkpt>
      <trkpt lat="48.81785" lon="2.46789">
        <ele>99.6</ele>
        <time>2015-06-08T20:17:56.723Z</time>
      </trkpt>
      <trkpt lat="48.81778" lon="2.46784">
        <ele>99.3</ele>
        <time>2015-06-08T20:17:58.674Z</time>
      </trkpt>
      <trkpt lat="48.81774" lon="2.4678">
        <ele>99.3</ele>
        <time>2015-06-08T20:17:59.704Z</time>
      </trkpt>
      <trkpt lat="48.81769" lon="2.4677">
        <ele>99</ele>
        <time>2015-06-08T20:18:01.720Z</time>
      </trkpt>
      <trkpt lat="48.81765" lon="2.46765">
        <ele>98.9</ele>
        <time>2015-06-08T20:18:02.748Z</time>
      </trkpt>
      <trkpt lat="48.81761" lon="2.46756">
        <ele>99.2</ele>
        <time>2015-06-08T20:18:04.678Z</time>
      </trkpt>
      <trkpt lat="48.81758" lon="2.46751">
        <ele>99.2</ele>
        <time>2015-06-08T20:18:05.670Z</time>
      </trkpt>
      <trkpt lat="48.81753" lon="2.46741">
        <ele>98.8</ele>
        <time>2015-06-08T20:18:07.683Z</time>
      </trkpt>
      <trkpt lat="48.8175" lon="2.46736">
        <ele>98.1</ele>
        <time>2015-06-08T20:18:08.685Z</time>
      </trkpt>
      <trkpt lat="48.81745" lon="2.46728">
        <ele>97.9</ele>
        <time>2015-06-08T20:18:10.651Z</time>
      </trkpt>
      <trkpt lat="48.81743" lon="2.46724">
        <ele>97.8</ele>
        <time>2015-06-08T20:18:11.720Z</time>
      </trkpt>
      <trkpt lat="48.81742" lon="2.46712">
        <ele>98.8</ele>
        <time>2015-06-08T20:18:19.978Z</time>
      </trkpt>
      <trkpt lat="48.8174" lon="2.467">
        <ele>100.1</ele>
        <time>2015-06-08T20:18:20.732Z</time>
      </trkpt>
      <trkpt lat="48.81735" lon="2.46691">
        <ele>101.2</ele>
        <time>2015-06-08T20:18:25.012Z</time>
      </trkpt>
      <trkpt lat="48.81734" lon="2.4669">
        <ele>101.4</ele>
        <time>2015-06-08T20:18:25.683Z</time>
      </trkpt>
      <trkpt lat="48.81731" lon="2.46689">
        <ele>102.1</ele>
        <time>2015-06-08T20:20:03.744Z</time>
      </trkpt>
      <trkpt lat="48.81724" lon="2.46696">
        <ele>109.2</ele>
        <time>2015-06-08T20:20:05.054Z</time>
      </trkpt>
      <trkpt lat="48.8172" lon="2.46691">
        <ele>109.5</ele>
        <time>2015-06-08T20:20:06.658Z</time>
      </trkpt>
      <trkpt lat="48.81718" lon="2.46685">
        <ele>109.4</ele>
        <time>2015-06-08T20:20:07.689Z</time>
      </trkpt>
      <trkpt lat="48.81715" lon="2.46679">
        <ele>109.5</ele>
        <time>2015-06-08T20:20:08.717Z</time>
      </trkpt>
      <trkpt lat="48.81712" lon="2.46674">
        <ele>109.9</ele>
        <time>2015-06-08T20:20:09.744Z</time>
      </trkpt>
      <trkpt lat="48.81704" lon="2.46668">
        <ele>109.9</ele>
        <time>2015-06-08T20:20:11.658Z</time>
      </trkpt>
      <trkpt lat="48.817" lon="2.46665">
        <ele>109.8</ele>
        <time>2015-06-08T20:20:12.666Z</time>
      </trkpt>
      <trkpt lat="48.81696" lon="2.46662">
        <ele>109.7</ele>
        <time>2015-06-08T20:20:13.686Z</time>
      </trkpt>
      <trkpt lat="48.81693" lon="2.46657">
        <ele>109.6</ele>
        <time>2015-06-08T20:20:14.696Z</time>
      </trkpt>
      <trkpt lat="48.81688" lon="2.46651">
        <ele>109.3</ele>
        <time>2015-06-08T20:20:15.701Z</time>
      </trkpt>
      <trkpt lat="48.81685" lon="2.46644">
        <ele>109.1</ele>
        <time>2015-06-08T20:20:16.706Z</time>
      </trkpt>
      <trkpt lat="48.81681" lon="2.46635">
        <ele>109.1</ele>
        <time>2015-06-08T20:20:17.709Z</time>
      </trkpt>
      <trkpt lat="48.81678" lon="2.46627">
        <ele>109</ele>
        <time>2015-06-08T20:20:18.726Z</time>
      </trkpt>
      <trkpt lat="48.81674" lon="2.4662">
        <ele>108.9</ele>
        <time>2015-06-08T20:20:20.221Z</time>
      </trkpt>
      <trkpt lat="48.8167" lon="2.46614">
        <ele>108.7</ele>
        <time>2015-06-08T20:20:20.753Z</time>
      </trkpt>
      <trkpt lat="48.81666" lon="2.46607">
        <ele>108.4</ele>
        <time>2015-06-08T20:20:21.655Z</time>
      </trkpt>
      <trkpt lat="48.81662" lon="2.466">
        <ele>108.1</ele>
        <time>2015-06-08T20:20:22.657Z</time>
      </trkpt>
      <trkpt lat="48.81658" lon="2.46593">
        <ele>107.8</ele>
        <time>2015-06-08T20:20:23.693Z</time>
      </trkpt>
      <trkpt lat="48.81655" lon="2.46587">
        <ele>107.5</ele>
        <time>2015-06-08T20:20:24.699Z</time>
      </trkpt>
      <trkpt lat="48.81652" lon="2.4658">
        <ele>107.4</ele>
        <time>2015-06-08T20:20:25.719Z</time>
      </trkpt>
      <trkpt lat="48.81648" lon="2.46574">
        <ele>107.1</ele>
        <time>2015-06-08T20:20:26.734Z</time>
      </trkpt>
      <trkpt lat="48.81643" lon="2.46567">
        <ele>106.9</ele>
        <time>2015-06-08T20:20:27.687Z</time>
      </trkpt>
      <trkpt lat="48.81638" lon="2.46558">
        <ele>106.8</ele>
        <time>2015-06-08T20:20:28.715Z</time>
      </trkpt>
      <trkpt lat="48.81634" lon="2.4655">
        <ele>106.7</ele>
        <time>2015-06-08T20:20:29.675Z</time>
      </trkpt>
      <trkpt lat="48.8163" lon="2.46542">
        <ele>106.9</ele>
        <time>2015-06-08T20:20:30.684Z</time>
      </trkpt>
      <trkpt lat="48.81626" lon="2.46534">
        <ele>106.9</ele>
        <time>2015-06-08T20:20:31.692Z</time>
      </trkpt>
      <trkpt lat="48.81621" lon="2.46527">
        <ele>107</ele>
        <time>2015-06-08T20:20:32.724Z</time>
      </trkpt>
      <trkpt lat="48.81616" lon="2.46519">
        <ele>107.1</ele>
        <time>2015-06-08T20:20:33.735Z</time>
      </trkpt>
      <trkpt lat="48.81612" lon="2.46512">
        <ele>107.1</ele>
        <time>2015-06-08T20:20:34.816Z</time>
      </trkpt>
      <trkpt lat="48.81608" lon="2.46505">
        <ele>107</ele>
        <time>2015-06-08T20:20:35.663Z</time>
      </trkpt>
      <trkpt lat="48.81603" lon="2.46498">
        <ele>107</ele>
        <time>2015-06-08T20:20:36.670Z</time>
      </trkpt>
      <trkpt lat="48.81598" lon="2.46492">
        <ele>106.9</ele>
        <time>2015-06-08T20:20:37.720Z</time>
      </trkpt>
      <trkpt lat="48.81593" lon="2.46484">
        <ele>106.6</ele>
        <time>2015-06-08T20:20:38.734Z</time>
      </trkpt>
      <trkpt lat="48.8159" lon="2.46476">
        <ele>106.3</ele>
        <time>2015-06-08T20:20:39.897Z</time>
      </trkpt>
      <trkpt lat="48.81586" lon="2.46467">
        <ele>106</ele>
        <time>2015-06-08T20:20:40.666Z</time>
      </trkpt>
      <trkpt lat="48.81582" lon="2.46461">
        <ele>105.8</ele>
        <time>2015-06-08T20:20:41.682Z</time>
      </trkpt>
      <trkpt lat="48.81577" lon="2.46455">
        <ele>105.5</ele>
        <time>2015-06-08T20:20:42.674Z</time>
      </trkpt>
      <trkpt lat="48.81572" lon="2.46447">
        <ele>105.3</ele>
        <time>2015-06-08T20:20:43.708Z</time>
      </trkpt>
      <trkpt lat="48.81567" lon="2.46439">
        <ele>105.5</ele>
        <time>2015-06-08T20:20:44.717Z</time>
      </trkpt>
      <trkpt lat="48.81563" lon="2.46431">
        <ele>105.3</ele>
        <time>2015-06-08T20:20:45.671Z</time>
      </trkpt>
      <trkpt lat="48.81558" lon="2.46423">
        <ele>105.3</ele>
        <time>2015-06-08T20:20:46.733Z</time>
      </trkpt>
      <trkpt lat="48.81554" lon="2.46415">
        <ele>105.2</ele>
        <time>2015-06-08T20:20:47.714Z</time>
      </trkpt>
      <trkpt lat="48.81549" lon="2.46408">
        <ele>105.1</ele>
        <time>2015-06-08T20:20:48.726Z</time>
      </trkpt>
      <trkpt lat="48.81544" lon="2.46401">
        <ele>104.2</ele>
        <time>2015-06-08T20:20:49.644Z</time>
      </trkpt>
      <trkpt lat="48.81538" lon="2.46393">
        <ele>103.3</ele>
        <time>2015-06-08T20:20:50.702Z</time>
      </trkpt>
      <trkpt lat="48.81534" lon="2.46383">
        <ele>103.2</ele>
        <time>2015-06-08T20:20:51.842Z</time>
      </trkpt>
      <trkpt lat="48.8153" lon="2.46375">
        <ele>103.4</ele>
        <time>2015-06-08T20:20:52.725Z</time>
      </trkpt>
      <trkpt lat="48.81525" lon="2.46367">
        <ele>103.2</ele>
        <time>2015-06-08T20:20:53.645Z</time>
      </trkpt>
      <trkpt lat="48.8152" lon="2.4636">
        <ele>103.2</ele>
        <time>2015-06-08T20:20:54.655Z</time>
      </trkpt>
      <trkpt lat="48.81516" lon="2.46355">
        <ele>103.2</ele>
        <time>2015-06-08T20:20:55.661Z</time>
      </trkpt>
      <trkpt lat="48.81512" lon="2.46349">
        <ele>103</ele>
        <time>2015-06-08T20:20:56.690Z</time>
      </trkpt>
      <trkpt lat="48.81508" lon="2.46343">
        <ele>102.5</ele>
        <time>2015-06-08T20:20:57.712Z</time>
      </trkpt>
      <trkpt lat="48.81504" lon="2.46338">
        <ele>102.3</ele>
        <time>2015-06-08T20:20:58.691Z</time>
      </trkpt>
      <trkpt lat="48.81499" lon="2.46332">
        <ele>101.4</ele>
        <time>2015-06-08T20:21:00.644Z</time>
      </trkpt>
      <trkpt lat="48.81497" lon="2.46329">
        <ele>101.4</ele>
        <time>2015-06-08T20:21:01.693Z</time>
      </trkpt>
      <trkpt lat="48.81498" lon="2.46319">
        <ele>101.7</ele>
        <time>2015-06-08T20:21:03.749Z</time>
      </trkpt>
      <trkpt lat="48.81498" lon="2.46314">
        <ele>102.5</ele>
        <time>2015-06-08T20:21:04.653Z</time>
      </trkpt>
      <trkpt lat="48.81501" lon="2.46303">
        <ele>102.7</ele>
        <time>2015-06-08T20:21:07.677Z</time>
      </trkpt>
      <trkpt lat="48.81502" lon="2.463">
        <ele>102.8</ele>
        <time>2015-06-08T20:21:08.708Z</time>
      </trkpt>
      <trkpt lat="48.81505" lon="2.46292">
        <ele>103.2</ele>
        <time>2015-06-08T20:21:10.668Z</time>
      </trkpt>
      <trkpt lat="48.81507" lon="2.46288">
        <ele>103</ele>
        <time>2015-06-08T20:21:11.713Z</time>
      </trkpt>
      <trkpt lat="48.8151" lon="2.46281">
        <ele>103.1</ele>
        <time>2015-06-08T20:21:13.746Z</time>
      </trkpt>
      <trkpt lat="48.81511" lon="2.46276">
        <ele>104.7</ele>
        <time>2015-06-08T20:21:14.773Z</time>
      </trkpt>
      <trkpt lat="48.81514" lon="2.46267">
        <ele>106.6</ele>
        <time>2015-06-08T20:21:16.664Z</time>
      </trkpt>
      <trkpt lat="48.81516" lon="2.46264">
        <ele>106.2</ele>
        <time>2015-06-08T20:21:17.693Z</time>
      </trkpt>
      <trkpt lat="48.8152" lon="2.46252">
        <ele>105.2</ele>
        <time>2015-06-08T20:21:20.733Z</time>
      </trkpt>
      <trkpt lat="48.81522" lon="2.46248">
        <ele>105</ele>
        <time>2015-06-08T20:21:21.838Z</time>
      </trkpt>
      <trkpt lat="48.81526" lon="2.46241">
        <ele>105.6</ele>
        <time>2015-06-08T20:21:23.673Z</time>
      </trkpt>
      <trkpt lat="48.81528" lon="2.46237">
        <ele>105.6</ele>
        <time>2015-06-08T20:21:24.698Z</time>
      </trkpt>
      <trkpt lat="48.81532" lon="2.46229">
        <ele>105.2</ele>
        <time>2015-06-08T20:21:26.799Z</time>
      </trkpt>
      <trkpt lat="48.81535" lon="2.46225">
        <ele>105.3</ele>
        <time>2015-06-08T20:21:27.668Z</time>
      </trkpt>
      <trkpt lat="48.81539" lon="2.46218">
        <ele>105.8</ele>
        <time>2015-06-08T20:21:29.719Z</time>
      </trkpt>
      <trkpt lat="48.81541" lon="2.46214">
        <ele>105.6</ele>
        <time>2015-06-08T20:21:30.721Z</time>
      </trkpt>
      <trkpt lat="48.81546" lon="2.46204">
        <ele>105.4</ele>
        <time>2015-06-08T20:21:33.674Z</time>
      </trkpt>
      <trkpt lat="48.81548" lon="2.46201">
        <ele>105.5</ele>
        <time>2015-06-08T20:21:34.741Z</time>
      </trkpt>
      <trkpt lat="48.81554" lon="2.46191">
        <ele>105.7</ele>
        <time>2015-06-08T20:21:37.767Z</time>
      </trkpt>
      <trkpt lat="48.81556" lon="2.46188">
        <ele>105.9</ele>
        <time>2015-06-08T20:21:38.813Z</time>
      </trkpt>
      <trkpt lat="48.8156" lon="2.46176">
        <ele>105.6</ele>
        <time>2015-06-08T20:21:41.708Z</time>
      </trkpt>
      <trkpt lat="48.81561" lon="2.46172">
        <ele>105.3</ele>
        <time>2015-06-08T20:21:42.678Z</time>
      </trkpt>
      <trkpt lat="48.81565" lon="2.46161">
        <ele>105</ele>
        <time>2015-06-08T20:21:45.737Z</time>
      </trkpt>
      <trkpt lat="48.81567" lon="2.46158">
        <ele>104.7</ele>
        <time>2015-06-08T20:21:46.665Z</time>
      </trkpt>
      <trkpt lat="48.81572" lon="2.46148">
        <ele>104.7</ele>
        <time>2015-06-08T20:21:49.703Z</time>
      </trkpt>
      <trkpt lat="48.81574" lon="2.46145">
        <ele>104.7</ele>
        <time>2015-06-08T20:21:50.770Z</time>
      </trkpt>
      <trkpt lat="48.81579" lon="2.46135">
        <ele>104.6</ele>
        <time>2015-06-08T20:21:53.686Z</time>
      </trkpt>
      <trkpt lat="48.81581" lon="2.46133">
        <ele>105.1</ele>
        <time>2015-06-08T20:21:54.686Z</time>
      </trkpt>
      <trkpt lat="48.81586" lon="2.46124">
        <ele>104.8</ele>
        <time>2015-06-08T20:21:57.678Z</time>
      </trkpt>
      <trkpt lat="48.81587" lon="2.46121">
        <ele>104.6</ele>
        <time>2015-06-08T20:21:58.688Z</time>
      </trkpt>
      <trkpt lat="48.81593" lon="2.46111">
        <ele>104.6</ele>
        <time>2015-06-08T20:22:02.114Z</time>
      </trkpt>
      <trkpt lat="48.81595" lon="2.46107">
        <ele>104.7</ele>
        <time>2015-06-08T20:22:02.783Z</time>
      </trkpt>
      <trkpt lat="48.81599" lon="2.46099">
        <ele>105.1</ele>
        <time>2015-06-08T20:22:04.675Z</time>
      </trkpt>
      <trkpt lat="48.81601" lon="2.46095">
        <ele>105.4</ele>
        <time>2015-06-08T20:22:05.694Z</time>
      </trkpt>
      <trkpt lat="48.81605" lon="2.46086">
        <ele>105.8</ele>
        <time>2015-06-08T20:22:07.909Z</time>
      </trkpt>
      <trkpt lat="48.81607" lon="2.46081">
        <ele>105.9</ele>
        <time>2015-06-08T20:22:08.769Z</time>
      </trkpt>
      <trkpt lat="48.81612" lon="2.46074">
        <ele>105.6</ele>
        <time>2015-06-08T20:22:10.683Z</time>
      </trkpt>
      <trkpt lat="48.81614" lon="2.46071">
        <ele>105.3</ele>
        <time>2015-06-08T20:22:11.720Z</time>
      </trkpt>
      <trkpt lat="48.81618" lon="2.46062">
        <ele>105</ele>
        <time>2015-06-08T20:22:13.746Z</time>
      </trkpt>
      <trkpt lat="48.81621" lon="2.46058">
        <ele>105</ele>
        <time>2015-06-08T20:22:14.755Z</time>
      </trkpt>
      <trkpt lat="48.81626" lon="2.4605">
        <ele>105.5</ele>
        <time>2015-06-08T20:22:17.232Z</time>
      </trkpt>
      <trkpt lat="48.81628" lon="2.46046">
        <ele>105.2</ele>
        <time>2015-06-08T20:22:17.672Z</time>
      </trkpt>
      <trkpt lat="48.81633" lon="2.46037">
        <ele>104.8</ele>
        <time>2015-06-08T20:22:19.708Z</time>
      </trkpt>
      <trkpt lat="48.81635" lon="2.46033">
        <ele>104.8</ele>
        <time>2015-06-08T20:22:20.740Z</time>
      </trkpt>
      <trkpt lat="48.81639" lon="2.46024">
        <ele>105.6</ele>
        <time>2015-06-08T20:22:22.684Z</time>
      </trkpt>
      <trkpt lat="48.81641" lon="2.4602">
        <ele>105.9</ele>
        <time>2015-06-08T20:22:23.678Z</time>
      </trkpt>
      <trkpt lat="48.81647" lon="2.46011">
        <ele>106.1</ele>
        <time>2015-06-08T20:22:25.717Z</time>
      </trkpt>
      <trkpt lat="48.81648" lon="2.46007">
        <ele>106.5</ele>
        <time>2015-06-08T20:22:26.732Z</time>
      </trkpt>
      <trkpt lat="48.81653" lon="2.46">
        <ele>106.8</ele>
        <time>2015-06-08T20:22:28.684Z</time>
      </trkpt>
      <trkpt lat="48.81655" lon="2.45996">
        <ele>107.1</ele>
        <time>2015-06-08T20:22:29.684Z</time>
      </trkpt>
      <trkpt lat="48.81661" lon="2.45989">
        <ele>108.1</ele>
        <time>2015-06-08T20:22:32.496Z</time>
      </trkpt>
      <trkpt lat="48.81664" lon="2.45985">
        <ele>108.5</ele>
        <time>2015-06-08T20:22:32.747Z</time>
      </trkpt>
      <trkpt lat="48.81669" lon="2.45976">
        <ele>108.7</ele>
        <time>2015-06-08T20:22:34.767Z</time>
      </trkpt>
      <trkpt lat="48.81672" lon="2.45972">
        <ele>108.4</ele>
        <time>2015-06-08T20:22:35.687Z</time>
      </trkpt>
      <trkpt lat="48.81679" lon="2.45965">
        <ele>108.5</ele>
        <time>2015-06-08T20:22:37.689Z</time>
      </trkpt>
      <trkpt lat="48.81682" lon="2.45962">
        <ele>108.6</ele>
        <time>2015-06-08T20:22:38.731Z</time>
      </trkpt>
      <trkpt lat="48.81687" lon="2.45955">
        <ele>108.4</ele>
        <time>2015-06-08T20:22:41.364Z</time>
      </trkpt>
      <trkpt lat="48.8169" lon="2.45951">
        <ele>108.3</ele>
        <time>2015-06-08T20:22:41.658Z</time>
      </trkpt>
      <trkpt lat="48.81695" lon="2.45945">
        <ele>109.1</ele>
        <time>2015-06-08T20:22:43.733Z</time>
      </trkpt>
      <trkpt lat="48.81698" lon="2.45942">
        <ele>109.3</ele>
        <time>2015-06-08T20:22:44.744Z</time>
      </trkpt>
      <trkpt lat="48.81702" lon="2.45935">
        <ele>109.5</ele>
        <time>2015-06-08T20:22:46.648Z</time>
      </trkpt>
      <trkpt lat="48.81705" lon="2.45932">
        <ele>109.5</ele>
        <time>2015-06-08T20:22:47.712Z</time>
      </trkpt>
      <trkpt lat="48.81712" lon="2.45924">
        <ele>109.4</ele>
        <time>2015-06-08T20:22:51.654Z</time>
      </trkpt>
      <trkpt lat="48.81713" lon="2.45923">
        <ele>109.3</ele>
        <time>2015-06-08T20:22:52.682Z</time>
      </trkpt>
      <trkpt lat="48.81717" lon="2.45924">
        <ele>111.1</ele>
        <time>2015-06-08T20:23:10.655Z</time>
      </trkpt>
      <trkpt lat="48.81717" lon="2.45925">
        <ele>111.4</ele>
        <time>2015-06-08T20:23:11.669Z</time>
      </trkpt>
      <trkpt lat="48.81717" lon="2.45925">
        <ele>111.4</ele>
        <time>2015-06-08T20:24:11.662Z</time>
      </trkpt>
      <trkpt lat="48.81721" lon="2.45909">
        <ele>115.9</ele>
        <time>2015-06-08T20:24:12.669Z</time>
      </trkpt>
      <trkpt lat="48.81723" lon="2.459">
        <ele>115.4</ele>
        <time>2015-06-08T20:24:15.773Z</time>
      </trkpt>
      <trkpt lat="48.81724" lon="2.45895">
        <ele>115.7</ele>
        <time>2015-06-08T20:24:16.677Z</time>
      </trkpt>
      <trkpt lat="48.81725" lon="2.45883">
        <ele>116</ele>
        <time>2015-06-08T20:24:18.772Z</time>
      </trkpt>
      <trkpt lat="48.81725" lon="2.45876">
        <ele>116.1</ele>
        <time>2015-06-08T20:24:19.649Z</time>
      </trkpt>
      <trkpt lat="48.81725" lon="2.45868">
        <ele>115.7</ele>
        <time>2015-06-08T20:24:20.749Z</time>
      </trkpt>
      <trkpt lat="48.81724" lon="2.4586">
        <ele>115.6</ele>
        <time>2015-06-08T20:24:21.669Z</time>
      </trkpt>
      <trkpt lat="48.81723" lon="2.4585">
        <ele>115.7</ele>
        <time>2015-06-08T20:24:22.674Z</time>
      </trkpt>
      <trkpt lat="48.81723" lon="2.4584">
        <ele>115.4</ele>
        <time>2015-06-08T20:24:23.668Z</time>
      </trkpt>
      <trkpt lat="48.81724" lon="2.4583">
        <ele>115.1</ele>
        <time>2015-06-08T20:24:24.674Z</time>
      </trkpt>
      <trkpt lat="48.81724" lon="2.4582">
        <ele>114.7</ele>
        <time>2015-06-08T20:24:25.686Z</time>
      </trkpt>
      <trkpt lat="48.81725" lon="2.45809">
        <ele>114.8</ele>
        <time>2015-06-08T20:24:26.724Z</time>
      </trkpt>
      <trkpt lat="48.81726" lon="2.45799">
        <ele>114.7</ele>
        <time>2015-06-08T20:24:27.730Z</time>
      </trkpt>
      <trkpt lat="48.81726" lon="2.4579">
        <ele>114.7</ele>
        <time>2015-06-08T20:24:28.744Z</time>
      </trkpt>
      <trkpt lat="48.81727" lon="2.45781">
        <ele>114.6</ele>
        <time>2015-06-08T20:24:29.672Z</time>
      </trkpt>
      <trkpt lat="48.81728" lon="2.45773">
        <ele>114.8</ele>
        <time>2015-06-08T20:24:30.675Z</time>
      </trkpt>
      <trkpt lat="48.81729" lon="2.45765">
        <ele>114.8</ele>
        <time>2015-06-08T20:24:31.682Z</time>
      </trkpt>
      <trkpt lat="48.8173" lon="2.45758">
        <ele>114.7</ele>
        <time>2015-06-08T20:24:32.736Z</time>
      </trkpt>
      <trkpt lat="48.81731" lon="2.45751">
        <ele>114.8</ele>
        <time>2015-06-08T20:24:33.738Z</time>
      </trkpt>
      <trkpt lat="48.81733" lon="2.45738">
        <ele>114.4</ele>
        <time>2015-06-08T20:24:35.687Z</time>
      </trkpt>
      <trkpt lat="48.81734" lon="2.45731">
        <ele>114.5</ele>
        <time>2015-06-08T20:24:36.740Z</time>
      </trkpt>
      <trkpt lat="48.81736" lon="2.45724">
        <ele>114.6</ele>
        <time>2015-06-08T20:24:37.681Z</time>
      </trkpt>
      <trkpt lat="48.81738" lon="2.45717">
        <ele>114.7</ele>
        <time>2015-06-08T20:24:38.720Z</time>
      </trkpt>
      <trkpt lat="48.81741" lon="2.45705">
        <ele>115</ele>
        <time>2015-06-08T20:24:40.722Z</time>
      </trkpt>
      <trkpt lat="48.81742" lon="2.45699">
        <ele>115</ele>
        <time>2015-06-08T20:24:41.770Z</time>
      </trkpt>
      <trkpt lat="48.81744" lon="2.45686">
        <ele>114.6</ele>
        <time>2015-06-08T20:24:43.678Z</time>
      </trkpt>
      <trkpt lat="48.81746" lon="2.45681">
        <ele>114.7</ele>
        <time>2015-06-08T20:24:44.754Z</time>
      </trkpt>
      <trkpt lat="48.81751" lon="2.45669">
        <ele>114.9</ele>
        <time>2015-06-08T20:24:46.668Z</time>
      </trkpt>
      <trkpt lat="48.81752" lon="2.45663">
        <ele>114.8</ele>
        <time>2015-06-08T20:24:47.698Z</time>
      </trkpt>
      <trkpt lat="48.81756" lon="2.45652">
        <ele>114.7</ele>
        <time>2015-06-08T20:24:49.727Z</time>
      </trkpt>
      <trkpt lat="48.81757" lon="2.45646">
        <ele>114.6</ele>
        <time>2015-06-08T20:24:50.801Z</time>
      </trkpt>
      <trkpt lat="48.8176" lon="2.45633">
        <ele>115.4</ele>
        <time>2015-06-08T20:24:52.677Z</time>
      </trkpt>
      <trkpt lat="48.8176" lon="2.45627">
        <ele>115.4</ele>
        <time>2015-06-08T20:24:53.672Z</time>
      </trkpt>
      <trkpt lat="48.81761" lon="2.4562">
        <ele>115.5</ele>
        <time>2015-06-08T20:24:54.704Z</time>
      </trkpt>
      <trkpt lat="48.81762" lon="2.45612">
        <ele>115.4</ele>
        <time>2015-06-08T20:24:55.715Z</time>
      </trkpt>
      <trkpt lat="48.81763" lon="2.45605">
        <ele>115.4</ele>
        <time>2015-06-08T20:24:56.728Z</time>
      </trkpt>
      <trkpt lat="48.81764" lon="2.45598">
        <ele>115.4</ele>
        <time>2015-06-08T20:24:57.732Z</time>
      </trkpt>
      <trkpt lat="48.81765" lon="2.45591">
        <ele>115.3</ele>
        <time>2015-06-08T20:24:58.673Z</time>
      </trkpt>
      <trkpt lat="48.81766" lon="2.45583">
        <ele>115.3</ele>
        <time>2015-06-08T20:24:59.655Z</time>
      </trkpt>
      <trkpt lat="48.81767" lon="2.45576">
        <ele>115.4</ele>
        <time>2015-06-08T20:25:00.667Z</time>
      </trkpt>
      <trkpt lat="48.81768" lon="2.45569">
        <ele>115.5</ele>
        <time>2015-06-08T20:25:01.667Z</time>
      </trkpt>
      <trkpt lat="48.8177" lon="2.45562">
        <ele>115.5</ele>
        <time>2015-06-08T20:25:02.738Z</time>
      </trkpt>
      <trkpt lat="48.81771" lon="2.45555">
        <ele>115.5</ele>
        <time>2015-06-08T20:25:03.680Z</time>
      </trkpt>
      <trkpt lat="48.81773" lon="2.45548">
        <ele>115.2</ele>
        <time>2015-06-08T20:25:04.672Z</time>
      </trkpt>
      <trkpt lat="48.81775" lon="2.4554">
        <ele>115.2</ele>
        <time>2015-06-08T20:25:05.684Z</time>
      </trkpt>
      <trkpt lat="48.81776" lon="2.45533">
        <ele>115.2</ele>
        <time>2015-06-08T20:25:06.706Z</time>
      </trkpt>
      <trkpt lat="48.81778" lon="2.45525">
        <ele>115.2</ele>
        <time>2015-06-08T20:25:07.711Z</time>
      </trkpt>
      <trkpt lat="48.8178" lon="2.45518">
        <ele>115.1</ele>
        <time>2015-06-08T20:25:08.722Z</time>
      </trkpt>
      <trkpt lat="48.81781" lon="2.45511">
        <ele>115.3</ele>
        <time>2015-06-08T20:25:09.729Z</time>
      </trkpt>
      <trkpt lat="48.81783" lon="2.45504">
        <ele>115.3</ele>
        <time>2015-06-08T20:25:10.735Z</time>
      </trkpt>
      <trkpt lat="48.81784" lon="2.45497">
        <ele>115.2</ele>
        <time>2015-06-08T20:25:11.742Z</time>
      </trkpt>
      <trkpt lat="48.81786" lon="2.4549">
        <ele>115.2</ele>
        <time>2015-06-08T20:25:12.648Z</time>
      </trkpt>
      <trkpt lat="48.81787" lon="2.45482">
        <ele>115.1</ele>
        <time>2015-06-08T20:25:13.681Z</time>
      </trkpt>
      <trkpt lat="48.81789" lon="2.45475">
        <ele>115.3</ele>
        <time>2015-06-08T20:25:14.758Z</time>
      </trkpt>
      <trkpt lat="48.8179" lon="2.45467">
        <ele>115.6</ele>
        <time>2015-06-08T20:25:15.722Z</time>
      </trkpt>
      <trkpt lat="48.81791" lon="2.4546">
        <ele>115.6</ele>
        <time>2015-06-08T20:25:16.677Z</time>
      </trkpt>
      <trkpt lat="48.81792" lon="2.45452">
        <ele>115.7</ele>
        <time>2015-06-08T20:25:17.736Z</time>
      </trkpt>
      <trkpt lat="48.81794" lon="2.45445">
        <ele>115.6</ele>
        <time>2015-06-08T20:25:18.689Z</time>
      </trkpt>
      <trkpt lat="48.81795" lon="2.45438">
        <ele>115.5</ele>
        <time>2015-06-08T20:25:19.695Z</time>
      </trkpt>
      <trkpt lat="48.81796" lon="2.45431">
        <ele>115.6</ele>
        <time>2015-06-08T20:25:20.700Z</time>
      </trkpt>
      <trkpt lat="48.81797" lon="2.45423">
        <ele>115.7</ele>
        <time>2015-06-08T20:25:21.712Z</time>
      </trkpt>
      <trkpt lat="48.81797" lon="2.45415">
        <ele>115.8</ele>
        <time>2015-06-08T20:25:22.735Z</time>
      </trkpt>
      <trkpt lat="48.81798" lon="2.45408">
        <ele>115.8</ele>
        <time>2015-06-08T20:25:23.691Z</time>
      </trkpt>
      <trkpt lat="48.81799" lon="2.454">
        <ele>115.9</ele>
        <time>2015-06-08T20:25:24.689Z</time>
      </trkpt>
      <trkpt lat="48.81801" lon="2.45393">
        <ele>115.7</ele>
        <time>2015-06-08T20:25:25.694Z</time>
      </trkpt>
      <trkpt lat="48.81802" lon="2.45385">
        <ele>115.7</ele>
        <time>2015-06-08T20:25:26.757Z</time>
      </trkpt>
      <trkpt lat="48.81804" lon="2.45378">
        <ele>115.6</ele>
        <time>2015-06-08T20:25:27.773Z</time>
      </trkpt>
      <trkpt lat="48.81805" lon="2.45371">
        <ele>115.5</ele>
        <time>2015-06-08T20:25:28.666Z</time>
      </trkpt>
      <trkpt lat="48.81806" lon="2.45364">
        <ele>115.7</ele>
        <time>2015-06-08T20:25:29.672Z</time>
      </trkpt>
      <trkpt lat="48.81807" lon="2.45357">
        <ele>115.6</ele>
        <time>2015-06-08T20:25:30.696Z</time>
      </trkpt>
      <trkpt lat="48.81808" lon="2.4535">
        <ele>115.7</ele>
        <time>2015-06-08T20:25:31.719Z</time>
      </trkpt>
      <trkpt lat="48.81809" lon="2.45343">
        <ele>115.6</ele>
        <time>2015-06-08T20:25:32.751Z</time>
      </trkpt>
      <trkpt lat="48.8181" lon="2.45336">
        <ele>115.4</ele>
        <time>2015-06-08T20:25:33.699Z</time>
      </trkpt>
      <trkpt lat="48.81811" lon="2.4533">
        <ele>115.2</ele>
        <time>2015-06-08T20:25:34.677Z</time>
      </trkpt>
      <trkpt lat="48.81812" lon="2.45323">
        <ele>115.2</ele>
        <time>2015-06-08T20:25:35.682Z</time>
      </trkpt>
      <trkpt lat="48.81812" lon="2.45316">
        <ele>115.3</ele>
        <time>2015-06-08T20:25:36.702Z</time>
      </trkpt>
      <trkpt lat="48.81814" lon="2.45309">
        <ele>115.4</ele>
        <time>2015-06-08T20:25:37.709Z</time>
      </trkpt>
      <trkpt lat="48.81815" lon="2.45302">
        <ele>115.4</ele>
        <time>2015-06-08T20:25:38.719Z</time>
      </trkpt>
      <trkpt lat="48.81816" lon="2.45296">
        <ele>115.2</ele>
        <time>2015-06-08T20:25:39.733Z</time>
      </trkpt>
      <trkpt lat="48.81818" lon="2.45289">
        <ele>115</ele>
        <time>2015-06-08T20:25:41.346Z</time>
      </trkpt>
      <trkpt lat="48.8182" lon="2.45282">
        <ele>115</ele>
        <time>2015-06-08T20:25:41.772Z</time>
      </trkpt>
      <trkpt lat="48.81821" lon="2.45275">
        <ele>114.8</ele>
        <time>2015-06-08T20:25:42.687Z</time>
      </trkpt>
      <trkpt lat="48.81823" lon="2.45267">
        <ele>114.6</ele>
        <time>2015-06-08T20:25:43.665Z</time>
      </trkpt>
      <trkpt lat="48.81824" lon="2.4526">
        <ele>114.7</ele>
        <time>2015-06-08T20:25:44.695Z</time>
      </trkpt>
      <trkpt lat="48.81825" lon="2.45252">
        <ele>114.7</ele>
        <time>2015-06-08T20:25:45.709Z</time>
      </trkpt>
      <trkpt lat="48.81826" lon="2.45245">
        <ele>114.8</ele>
        <time>2015-06-08T20:25:46.717Z</time>
      </trkpt>
      <trkpt lat="48.81827" lon="2.45238">
        <ele>114.7</ele>
        <time>2015-06-08T20:25:47.829Z</time>
      </trkpt>
      <trkpt lat="48.81829" lon="2.4523">
        <ele>114.8</ele>
        <time>2015-06-08T20:25:48.663Z</time>
      </trkpt>
      <trkpt lat="48.8183" lon="2.45222">
        <ele>115.1</ele>
        <time>2015-06-08T20:25:49.688Z</time>
      </trkpt>
      <trkpt lat="48.81832" lon="2.45215">
        <ele>115.4</ele>
        <time>2015-06-08T20:25:50.721Z</time>
      </trkpt>
      <trkpt lat="48.81833" lon="2.45207">
        <ele>115.5</ele>
        <time>2015-06-08T20:25:51.726Z</time>
      </trkpt>
      <trkpt lat="48.81834" lon="2.45199">
        <ele>115.6</ele>
        <time>2015-06-08T20:25:52.660Z</time>
      </trkpt>
      <trkpt lat="48.81835" lon="2.45192">
        <ele>115.8</ele>
        <time>2015-06-08T20:25:53.671Z</time>
      </trkpt>
      <trkpt lat="48.81837" lon="2.45184">
        <ele>115.8</ele>
        <time>2015-06-08T20:25:54.682Z</time>
      </trkpt>
      <trkpt lat="48.81839" lon="2.45177">
        <ele>115.9</ele>
        <time>2015-06-08T20:25:55.689Z</time>
      </trkpt>
      <trkpt lat="48.8184" lon="2.45169">
        <ele>116.2</ele>
        <time>2015-06-08T20:25:56.714Z</time>
      </trkpt>
      <trkpt lat="48.81841" lon="2.45161">
        <ele>116.4</ele>
        <time>2015-06-08T20:25:57.644Z</time>
      </trkpt>
      <trkpt lat="48.81842" lon="2.45154">
        <ele>116.9</ele>
        <time>2015-06-08T20:25:58.685Z</time>
      </trkpt>
      <trkpt lat="48.81844" lon="2.45147">
        <ele>117</ele>
        <time>2015-06-08T20:25:59.687Z</time>
      </trkpt>
      <trkpt lat="48.81845" lon="2.45138">
        <ele>117.2</ele>
        <time>2015-06-08T20:26:00.643Z</time>
      </trkpt>
      <trkpt lat="48.81846" lon="2.4513">
        <ele>117.2</ele>
        <time>2015-06-08T20:26:01.647Z</time>
      </trkpt>
      <trkpt lat="48.81847" lon="2.45122">
        <ele>117.5</ele>
        <time>2015-06-08T20:26:02.717Z</time>
      </trkpt>
      <trkpt lat="48.81849" lon="2.45113">
        <ele>118</ele>
        <time>2015-06-08T20:26:03.734Z</time>
      </trkpt>
      <trkpt lat="48.8185" lon="2.45104">
        <ele>118.2</ele>
        <time>2015-06-08T20:26:04.659Z</time>
      </trkpt>
      <trkpt lat="48.81852" lon="2.45093">
        <ele>118.5</ele>
        <time>2015-06-08T20:26:05.977Z</time>
      </trkpt>
      <trkpt lat="48.81853" lon="2.45083">
        <ele>118.8</ele>
        <time>2015-06-08T20:26:06.681Z</time>
      </trkpt>
      <trkpt lat="48.81854" lon="2.45073">
        <ele>119.1</ele>
        <time>2015-06-08T20:26:07.741Z</time>
      </trkpt>
      <trkpt lat="48.81856" lon="2.45062">
        <ele>119.3</ele>
        <time>2015-06-08T20:26:08.749Z</time>
      </trkpt>
      <trkpt lat="48.81858" lon="2.45051">
        <ele>119.4</ele>
        <time>2015-06-08T20:26:09.645Z</time>
      </trkpt>
      <trkpt lat="48.81859" lon="2.45041">
        <ele>119.6</ele>
        <time>2015-06-08T20:26:10.674Z</time>
      </trkpt>
      <trkpt lat="48.81861" lon="2.4503">
        <ele>119.6</ele>
        <time>2015-06-08T20:26:11.681Z</time>
      </trkpt>
      <trkpt lat="48.81862" lon="2.45019">
        <ele>119.9</ele>
        <time>2015-06-08T20:26:12.689Z</time>
      </trkpt>
      <trkpt lat="48.81863" lon="2.45009">
        <ele>120.5</ele>
        <time>2015-06-08T20:26:13.706Z</time>
      </trkpt>
      <trkpt lat="48.81864" lon="2.44999">
        <ele>120.8</ele>
        <time>2015-06-08T20:26:14.722Z</time>
      </trkpt>
      <trkpt lat="48.81865" lon="2.44989">
        <ele>120.8</ele>
        <time>2015-06-08T20:26:15.727Z</time>
      </trkpt>
      <trkpt lat="48.81865" lon="2.44978">
        <ele>120.7</ele>
        <time>2015-06-08T20:26:16.734Z</time>
      </trkpt>
      <trkpt lat="48.81866" lon="2.44967">
        <ele>120.7</ele>
        <time>2015-06-08T20:26:17.744Z</time>
      </trkpt>
      <trkpt lat="48.81867" lon="2.44956">
        <ele>120.7</ele>
        <time>2015-06-08T20:26:18.643Z</time>
      </trkpt>
      <trkpt lat="48.81867" lon="2.44946">
        <ele>120.8</ele>
        <time>2015-06-08T20:26:19.665Z</time>
      </trkpt>
      <trkpt lat="48.81867" lon="2.44936">
        <ele>120.5</ele>
        <time>2015-06-08T20:26:20.723Z</time>
      </trkpt>
      <trkpt lat="48.81867" lon="2.44925">
        <ele>120.5</ele>
        <time>2015-06-08T20:26:21.732Z</time>
      </trkpt>
      <trkpt lat="48.81867" lon="2.44914">
        <ele>120.6</ele>
        <time>2015-06-08T20:26:22.757Z</time>
      </trkpt>
      <trkpt lat="48.81868" lon="2.44904">
        <ele>120.6</ele>
        <time>2015-06-08T20:26:23.754Z</time>
      </trkpt>
      <trkpt lat="48.81868" lon="2.44894">
        <ele>120.6</ele>
        <time>2015-06-08T20:26:24.662Z</time>
      </trkpt>
      <trkpt lat="48.81868" lon="2.44884">
        <ele>120.5</ele>
        <time>2015-06-08T20:26:25.667Z</time>
      </trkpt>
      <trkpt lat="48.81869" lon="2.44874">
        <ele>120.5</ele>
        <time>2015-06-08T20:26:26.737Z</time>
      </trkpt>
      <trkpt lat="48.81869" lon="2.44864">
        <ele>120.6</ele>
        <time>2015-06-08T20:26:27.737Z</time>
      </trkpt>
      <trkpt lat="48.81868" lon="2.44854">
        <ele>120.5</ele>
        <time>2015-06-08T20:26:28.751Z</time>
      </trkpt>
      <trkpt lat="48.81869" lon="2.44844">
        <ele>120.2</ele>
        <time>2015-06-08T20:26:29.679Z</time>
      </trkpt>
      <trkpt lat="48.81869" lon="2.44833">
        <ele>119.9</ele>
        <time>2015-06-08T20:26:30.685Z</time>
      </trkpt>
      <trkpt lat="48.81869" lon="2.44823">
        <ele>119.6</ele>
        <time>2015-06-08T20:26:31.693Z</time>
      </trkpt>
      <trkpt lat="48.81869" lon="2.44813">
        <ele>119.6</ele>
        <time>2015-06-08T20:26:32.732Z</time>
      </trkpt>
      <trkpt lat="48.81869" lon="2.44802">
        <ele>119.7</ele>
        <time>2015-06-08T20:26:33.736Z</time>
      </trkpt>
      <trkpt lat="48.8187" lon="2.44791">
        <ele>119.7</ele>
        <time>2015-06-08T20:26:34.646Z</time>
      </trkpt>
      <trkpt lat="48.81871" lon="2.4478">
        <ele>119.4</ele>
        <time>2015-06-08T20:26:35.668Z</time>
      </trkpt>
      <trkpt lat="48.81872" lon="2.44768">
        <ele>119.1</ele>
        <time>2015-06-08T20:26:36.680Z</time>
      </trkpt>
      <trkpt lat="48.81872" lon="2.44757">
        <ele>118.6</ele>
        <time>2015-06-08T20:26:37.675Z</time>
      </trkpt>
      <trkpt lat="48.81872" lon="2.44746">
        <ele>118.1</ele>
        <time>2015-06-08T20:26:38.731Z</time>
      </trkpt>
      <trkpt lat="48.81873" lon="2.44735">
        <ele>117.6</ele>
        <time>2015-06-08T20:26:39.697Z</time>
      </trkpt>
      <trkpt lat="48.81873" lon="2.44723">
        <ele>117.5</ele>
        <time>2015-06-08T20:26:40.712Z</time>
      </trkpt>
      <trkpt lat="48.81873" lon="2.44712">
        <ele>117.4</ele>
        <time>2015-06-08T20:26:41.719Z</time>
      </trkpt>
      <trkpt lat="48.81873" lon="2.447">
        <ele>117</ele>
        <time>2015-06-08T20:26:42.726Z</time>
      </trkpt>
      <trkpt lat="48.81873" lon="2.44689">
        <ele>116.9</ele>
        <time>2015-06-08T20:26:43.733Z</time>
      </trkpt>
      <trkpt lat="48.81873" lon="2.44678">
        <ele>116.9</ele>
        <time>2015-06-08T20:26:44.739Z</time>
      </trkpt>
      <trkpt lat="48.81873" lon="2.44667">
        <ele>117.1</ele>
        <time>2015-06-08T20:26:45.740Z</time>
      </trkpt>
      <trkpt lat="48.81872" lon="2.44655">
        <ele>117.2</ele>
        <time>2015-06-08T20:26:46.759Z</time>
      </trkpt>
      <trkpt lat="48.81871" lon="2.44644">
        <ele>117.2</ele>
        <time>2015-06-08T20:26:47.769Z</time>
      </trkpt>
      <trkpt lat="48.81871" lon="2.44633">
        <ele>117</ele>
        <time>2015-06-08T20:26:48.642Z</time>
      </trkpt>
      <trkpt lat="48.81871" lon="2.44622">
        <ele>116.7</ele>
        <time>2015-06-08T20:26:49.675Z</time>
      </trkpt>
      <trkpt lat="48.81871" lon="2.44611">
        <ele>116.7</ele>
        <time>2015-06-08T20:26:50.722Z</time>
      </trkpt>
      <trkpt lat="48.8187" lon="2.446">
        <ele>116.7</ele>
        <time>2015-06-08T20:26:51.902Z</time>
      </trkpt>
      <trkpt lat="48.8187" lon="2.44589">
        <ele>116.7</ele>
        <time>2015-06-08T20:26:52.741Z</time>
      </trkpt>
      <trkpt lat="48.81869" lon="2.44578">
        <ele>116.7</ele>
        <time>2015-06-08T20:26:53.665Z</time>
      </trkpt>
      <trkpt lat="48.81869" lon="2.44568">
        <ele>116.8</ele>
        <time>2015-06-08T20:26:54.666Z</time>
      </trkpt>
      <trkpt lat="48.81869" lon="2.44558">
        <ele>116.2</ele>
        <time>2015-06-08T20:26:55.669Z</time>
      </trkpt>
      <trkpt lat="48.81869" lon="2.44547">
        <ele>116.3</ele>
        <time>2015-06-08T20:26:56.722Z</time>
      </trkpt>
      <trkpt lat="48.81868" lon="2.44536">
        <ele>116.3</ele>
        <time>2015-06-08T20:26:57.732Z</time>
      </trkpt>
      <trkpt lat="48.81869" lon="2.44525">
        <ele>116.2</ele>
        <time>2015-06-08T20:26:58.787Z</time>
      </trkpt>
      <trkpt lat="48.81869" lon="2.44515">
        <ele>116</ele>
        <time>2015-06-08T20:26:59.770Z</time>
      </trkpt>
      <trkpt lat="48.81868" lon="2.44504">
        <ele>116</ele>
        <time>2015-06-08T20:27:00.667Z</time>
      </trkpt>
      <trkpt lat="48.81868" lon="2.44493">
        <ele>115.9</ele>
        <time>2015-06-08T20:27:01.672Z</time>
      </trkpt>
      <trkpt lat="48.81867" lon="2.44482">
        <ele>115.7</ele>
        <time>2015-06-08T20:27:02.724Z</time>
      </trkpt>
      <trkpt lat="48.81867" lon="2.4447">
        <ele>115.6</ele>
        <time>2015-06-08T20:27:03.715Z</time>
      </trkpt>
      <trkpt lat="48.81866" lon="2.44459">
        <ele>116.2</ele>
        <time>2015-06-08T20:27:04.744Z</time>
      </trkpt>
      <trkpt lat="48.81866" lon="2.44448">
        <ele>116.4</ele>
        <time>2015-06-08T20:27:05.655Z</time>
      </trkpt>
      <trkpt lat="48.81866" lon="2.44437">
        <ele>116.5</ele>
        <time>2015-06-08T20:27:06.653Z</time>
      </trkpt>
      <trkpt lat="48.81865" lon="2.44426">
        <ele>116.4</ele>
        <time>2015-06-08T20:27:07.662Z</time>
      </trkpt>
      <trkpt lat="48.81865" lon="2.44416">
        <ele>116.2</ele>
        <time>2015-06-08T20:27:08.689Z</time>
      </trkpt>
      <trkpt lat="48.81864" lon="2.44406">
        <ele>116.2</ele>
        <time>2015-06-08T20:27:09.693Z</time>
      </trkpt>
      <trkpt lat="48.81864" lon="2.44396">
        <ele>116.1</ele>
        <time>2015-06-08T20:27:10.700Z</time>
      </trkpt>
      <trkpt lat="48.81863" lon="2.44386">
        <ele>115.9</ele>
        <time>2015-06-08T20:27:11.705Z</time>
      </trkpt>
      <trkpt lat="48.81863" lon="2.44377">
        <ele>115.7</ele>
        <time>2015-06-08T20:27:12.719Z</time>
      </trkpt>
      <trkpt lat="48.81863" lon="2.44368">
        <ele>115.5</ele>
        <time>2015-06-08T20:27:13.725Z</time>
      </trkpt>
      <trkpt lat="48.81863" lon="2.44359">
        <ele>115.3</ele>
        <time>2015-06-08T20:27:14.737Z</time>
      </trkpt>
      <trkpt lat="48.81862" lon="2.4435">
        <ele>115.3</ele>
        <time>2015-06-08T20:27:15.661Z</time>
      </trkpt>
      <trkpt lat="48.81862" lon="2.44342">
        <ele>115.6</ele>
        <time>2015-06-08T20:27:16.647Z</time>
      </trkpt>
      <trkpt lat="48.81863" lon="2.44334">
        <ele>115.3</ele>
        <time>2015-06-08T20:27:17.672Z</time>
      </trkpt>
      <trkpt lat="48.81863" lon="2.44327">
        <ele>115.2</ele>
        <time>2015-06-08T20:27:18.679Z</time>
      </trkpt>
      <trkpt lat="48.81864" lon="2.4432">
        <ele>115.2</ele>
        <time>2015-06-08T20:27:19.690Z</time>
      </trkpt>
      <trkpt lat="48.81864" lon="2.44308">
        <ele>116.1</ele>
        <time>2015-06-08T20:27:21.714Z</time>
      </trkpt>
      <trkpt lat="48.81865" lon="2.44304">
        <ele>116.4</ele>
        <time>2015-06-08T20:27:22.732Z</time>
      </trkpt>
      <trkpt lat="48.81867" lon="2.44293">
        <ele>113.2</ele>
        <time>2015-06-08T20:28:26.717Z</time>
      </trkpt>
      <trkpt lat="48.81866" lon="2.44288">
        <ele>113</ele>
        <time>2015-06-08T20:28:27.720Z</time>
      </trkpt>
      <trkpt lat="48.81866" lon="2.44278">
        <ele>112.9</ele>
        <time>2015-06-08T20:28:29.666Z</time>
      </trkpt>
      <trkpt lat="48.81866" lon="2.44272">
        <ele>112.8</ele>
        <time>2015-06-08T20:28:30.695Z</time>
      </trkpt>
      <trkpt lat="48.81867" lon="2.4426">
        <ele>112.3</ele>
        <time>2015-06-08T20:28:32.724Z</time>
      </trkpt>
      <trkpt lat="48.81867" lon="2.44254">
        <ele>112.2</ele>
        <time>2015-06-08T20:28:33.774Z</time>
      </trkpt>
      <trkpt lat="48.81868" lon="2.44241">
        <ele>111.6</ele>
        <time>2015-06-08T20:28:35.640Z</time>
      </trkpt>
      <trkpt lat="48.81869" lon="2.44234">
        <ele>111.2</ele>
        <time>2015-06-08T20:28:36.669Z</time>
      </trkpt>
      <trkpt lat="48.8187" lon="2.44227">
        <ele>110.9</ele>
        <time>2015-06-08T20:28:37.679Z</time>
      </trkpt>
      <trkpt lat="48.8187" lon="2.44219">
        <ele>110.8</ele>
        <time>2015-06-08T20:28:38.711Z</time>
      </trkpt>
      <trkpt lat="48.81871" lon="2.44211">
        <ele>110.8</ele>
        <time>2015-06-08T20:28:39.658Z</time>
      </trkpt>
      <trkpt lat="48.81872" lon="2.44203">
        <ele>110.9</ele>
        <time>2015-06-08T20:28:40.653Z</time>
      </trkpt>
      <trkpt lat="48.81873" lon="2.44194">
        <ele>110.9</ele>
        <time>2015-06-08T20:28:41.674Z</time>
      </trkpt>
      <trkpt lat="48.81874" lon="2.44185">
        <ele>110.9</ele>
        <time>2015-06-08T20:28:42.678Z</time>
      </trkpt>
      <trkpt lat="48.81875" lon="2.44176">
        <ele>110.8</ele>
        <time>2015-06-08T20:28:43.693Z</time>
      </trkpt>
      <trkpt lat="48.81876" lon="2.44166">
        <ele>110.9</ele>
        <time>2015-06-08T20:28:44.699Z</time>
      </trkpt>
      <trkpt lat="48.81877" lon="2.44157">
        <ele>110.6</ele>
        <time>2015-06-08T20:28:45.716Z</time>
      </trkpt>
      <trkpt lat="48.81878" lon="2.44146">
        <ele>110.7</ele>
        <time>2015-06-08T20:28:46.732Z</time>
      </trkpt>
      <trkpt lat="48.81879" lon="2.44136">
        <ele>111.1</ele>
        <time>2015-06-08T20:28:47.669Z</time>
      </trkpt>
      <trkpt lat="48.81879" lon="2.44125">
        <ele>111.7</ele>
        <time>2015-06-08T20:28:48.661Z</time>
      </trkpt>
      <trkpt lat="48.8188" lon="2.44114">
        <ele>111.9</ele>
        <time>2015-06-08T20:28:49.667Z</time>
      </trkpt>
      <trkpt lat="48.81881" lon="2.44103">
        <ele>112.6</ele>
        <time>2015-06-08T20:28:50.707Z</time>
      </trkpt>
      <trkpt lat="48.81882" lon="2.44093">
        <ele>112.7</ele>
        <time>2015-06-08T20:28:51.693Z</time>
      </trkpt>
      <trkpt lat="48.81884" lon="2.44082">
        <ele>112.5</ele>
        <time>2015-06-08T20:28:52.714Z</time>
      </trkpt>
      <trkpt lat="48.81885" lon="2.44072">
        <ele>112.3</ele>
        <time>2015-06-08T20:28:53.725Z</time>
      </trkpt>
      <trkpt lat="48.81886" lon="2.44061">
        <ele>111.9</ele>
        <time>2015-06-08T20:28:54.733Z</time>
      </trkpt>
      <trkpt lat="48.81887" lon="2.44049">
        <ele>112</ele>
        <time>2015-06-08T20:28:55.751Z</time>
      </trkpt>
      <trkpt lat="48.81889" lon="2.44039">
        <ele>112</ele>
        <time>2015-06-08T20:28:56.758Z</time>
      </trkpt>
      <trkpt lat="48.8189" lon="2.44027">
        <ele>111.8</ele>
        <time>2015-06-08T20:28:57.625Z</time>
      </trkpt>
      <trkpt lat="48.81892" lon="2.44017">
        <ele>111.8</ele>
        <time>2015-06-08T20:28:58.653Z</time>
      </trkpt>
      <trkpt lat="48.81894" lon="2.44005">
        <ele>111.7</ele>
        <time>2015-06-08T20:28:59.681Z</time>
      </trkpt>
      <trkpt lat="48.81896" lon="2.43994">
        <ele>111.8</ele>
        <time>2015-06-08T20:29:00.707Z</time>
      </trkpt>
      <trkpt lat="48.81897" lon="2.43984">
        <ele>111.8</ele>
        <time>2015-06-08T20:29:01.657Z</time>
      </trkpt>
      <trkpt lat="48.81898" lon="2.43973">
        <ele>111.6</ele>
        <time>2015-06-08T20:29:02.715Z</time>
      </trkpt>
      <trkpt lat="48.819" lon="2.43962">
        <ele>111.9</ele>
        <time>2015-06-08T20:29:03.720Z</time>
      </trkpt>
      <trkpt lat="48.81901" lon="2.43952">
        <ele>112</ele>
        <time>2015-06-08T20:29:04.629Z</time>
      </trkpt>
      <trkpt lat="48.81903" lon="2.43942">
        <ele>112.2</ele>
        <time>2015-06-08T20:29:05.653Z</time>
      </trkpt>
      <trkpt lat="48.81904" lon="2.43932">
        <ele>112.6</ele>
        <time>2015-06-08T20:29:06.660Z</time>
      </trkpt>
      <trkpt lat="48.81906" lon="2.43923">
        <ele>112.7</ele>
        <time>2015-06-08T20:29:07.657Z</time>
      </trkpt>
      <trkpt lat="48.81907" lon="2.43914">
        <ele>113</ele>
        <time>2015-06-08T20:29:08.697Z</time>
      </trkpt>
      <trkpt lat="48.81908" lon="2.43905">
        <ele>113.3</ele>
        <time>2015-06-08T20:29:09.701Z</time>
      </trkpt>
      <trkpt lat="48.8191" lon="2.43895">
        <ele>113.5</ele>
        <time>2015-06-08T20:29:10.720Z</time>
      </trkpt>
      <trkpt lat="48.81911" lon="2.43886">
        <ele>113.3</ele>
        <time>2015-06-08T20:29:11.771Z</time>
      </trkpt>
      <trkpt lat="48.81913" lon="2.43877">
        <ele>113</ele>
        <time>2015-06-08T20:29:12.667Z</time>
      </trkpt>
      <trkpt lat="48.81914" lon="2.43867">
        <ele>113.3</ele>
        <time>2015-06-08T20:29:13.669Z</time>
      </trkpt>
      <trkpt lat="48.81915" lon="2.43858">
        <ele>113.9</ele>
        <time>2015-06-08T20:29:14.726Z</time>
      </trkpt>
      <trkpt lat="48.81917" lon="2.43848">
        <ele>114.4</ele>
        <time>2015-06-08T20:29:15.719Z</time>
      </trkpt>
      <trkpt lat="48.81918" lon="2.43839">
        <ele>114.9</ele>
        <time>2015-06-08T20:29:16.735Z</time>
      </trkpt>
      <trkpt lat="48.8192" lon="2.43829">
        <ele>115.1</ele>
        <time>2015-06-08T20:29:17.661Z</time>
      </trkpt>
      <trkpt lat="48.81922" lon="2.4382">
        <ele>115.3</ele>
        <time>2015-06-08T20:29:18.664Z</time>
      </trkpt>
      <trkpt lat="48.81924" lon="2.43811">
        <ele>115.5</ele>
        <time>2015-06-08T20:29:19.713Z</time>
      </trkpt>
      <trkpt lat="48.81926" lon="2.43802">
        <ele>116</ele>
        <time>2015-06-08T20:29:20.732Z</time>
      </trkpt>
      <trkpt lat="48.81929" lon="2.43793">
        <ele>116.4</ele>
        <time>2015-06-08T20:29:21.734Z</time>
      </trkpt>
      <trkpt lat="48.8193" lon="2.43784">
        <ele>116.7</ele>
        <time>2015-06-08T20:29:22.738Z</time>
      </trkpt>
      <trkpt lat="48.81932" lon="2.43776">
        <ele>116.9</ele>
        <time>2015-06-08T20:29:23.748Z</time>
      </trkpt>
      <trkpt lat="48.81934" lon="2.43767">
        <ele>117.1</ele>
        <time>2015-06-08T20:29:24.690Z</time>
      </trkpt>
      <trkpt lat="48.81936" lon="2.43758">
        <ele>117.4</ele>
        <time>2015-06-08T20:29:25.699Z</time>
      </trkpt>
      <trkpt lat="48.81938" lon="2.4375">
        <ele>117.6</ele>
        <time>2015-06-08T20:29:26.736Z</time>
      </trkpt>
      <trkpt lat="48.8194" lon="2.43742">
        <ele>117.5</ele>
        <time>2015-06-08T20:29:27.709Z</time>
      </trkpt>
      <trkpt lat="48.81942" lon="2.43735">
        <ele>117.5</ele>
        <time>2015-06-08T20:29:28.684Z</time>
      </trkpt>
      <trkpt lat="48.81944" lon="2.43728">
        <ele>117.6</ele>
        <time>2015-06-08T20:29:29.671Z</time>
      </trkpt>
      <trkpt lat="48.81945" lon="2.43722">
        <ele>117.6</ele>
        <time>2015-06-08T20:29:30.674Z</time>
      </trkpt>
      <trkpt lat="48.81946" lon="2.43715">
        <ele>117.4</ele>
        <time>2015-06-08T20:29:31.709Z</time>
      </trkpt>
      <trkpt lat="48.81948" lon="2.43708">
        <ele>117.7</ele>
        <time>2015-06-08T20:29:32.727Z</time>
      </trkpt>
      <trkpt lat="48.81949" lon="2.43701">
        <ele>118.1</ele>
        <time>2015-06-08T20:29:33.727Z</time>
      </trkpt>
      <trkpt lat="48.81952" lon="2.43695">
        <ele>118.5</ele>
        <time>2015-06-08T20:29:34.737Z</time>
      </trkpt>
      <trkpt lat="48.81954" lon="2.43688">
        <ele>118.6</ele>
        <time>2015-06-08T20:29:35.664Z</time>
      </trkpt>
      <trkpt lat="48.81956" lon="2.43682">
        <ele>118.9</ele>
        <time>2015-06-08T20:29:36.678Z</time>
      </trkpt>
      <trkpt lat="48.81958" lon="2.43675">
        <ele>119.1</ele>
        <time>2015-06-08T20:29:37.674Z</time>
      </trkpt>
      <trkpt lat="48.81961" lon="2.43669">
        <ele>119.3</ele>
        <time>2015-06-08T20:29:38.716Z</time>
      </trkpt>
      <trkpt lat="48.81963" lon="2.43663">
        <ele>119.5</ele>
        <time>2015-06-08T20:29:39.734Z</time>
      </trkpt>
      <trkpt lat="48.81965" lon="2.43656">
        <ele>119.8</ele>
        <time>2015-06-08T20:29:40.643Z</time>
      </trkpt>
      <trkpt lat="48.81967" lon="2.43648">
        <ele>119.5</ele>
        <time>2015-06-08T20:29:41.661Z</time>
      </trkpt>
      <trkpt lat="48.81968" lon="2.43641">
        <ele>119.3</ele>
        <time>2015-06-08T20:29:42.671Z</time>
      </trkpt>
      <trkpt lat="48.8197" lon="2.43633">
        <ele>119.3</ele>
        <time>2015-06-08T20:29:43.680Z</time>
      </trkpt>
      <trkpt lat="48.81972" lon="2.43627">
        <ele>119.3</ele>
        <time>2015-06-08T20:29:44.738Z</time>
      </trkpt>
      <trkpt lat="48.81975" lon="2.4362">
        <ele>119.3</ele>
        <time>2015-06-08T20:29:45.758Z</time>
      </trkpt>
      <trkpt lat="48.81978" lon="2.43614">
        <ele>119.2</ele>
        <time>2015-06-08T20:29:46.674Z</time>
      </trkpt>
      <trkpt lat="48.8198" lon="2.43608">
        <ele>118.7</ele>
        <time>2015-06-08T20:29:47.642Z</time>
      </trkpt>
      <trkpt lat="48.81983" lon="2.43603">
        <ele>118.4</ele>
        <time>2015-06-08T20:29:48.674Z</time>
      </trkpt>
      <trkpt lat="48.81986" lon="2.43597">
        <ele>118</ele>
        <time>2015-06-08T20:29:49.694Z</time>
      </trkpt>
      <trkpt lat="48.81989" lon="2.4359">
        <ele>117.7</ele>
        <time>2015-06-08T20:29:50.730Z</time>
      </trkpt>
      <trkpt lat="48.81992" lon="2.43584">
        <ele>117.6</ele>
        <time>2015-06-08T20:29:51.747Z</time>
      </trkpt>
      <trkpt lat="48.81994" lon="2.43577">
        <ele>117.3</ele>
        <time>2015-06-08T20:29:52.649Z</time>
      </trkpt>
      <trkpt lat="48.81998" lon="2.43571">
        <ele>117.3</ele>
        <time>2015-06-08T20:29:54.053Z</time>
      </trkpt>
      <trkpt lat="48.82001" lon="2.43566">
        <ele>117.2</ele>
        <time>2015-06-08T20:29:54.696Z</time>
      </trkpt>
      <trkpt lat="48.82004" lon="2.4356">
        <ele>117.1</ele>
        <time>2015-06-08T20:29:55.703Z</time>
      </trkpt>
      <trkpt lat="48.82008" lon="2.43554">
        <ele>117.2</ele>
        <time>2015-06-08T20:29:56.725Z</time>
      </trkpt>
      <trkpt lat="48.82012" lon="2.43548">
        <ele>117</ele>
        <time>2015-06-08T20:29:57.784Z</time>
      </trkpt>
      <trkpt lat="48.82015" lon="2.43541">
        <ele>117.3</ele>
        <time>2015-06-08T20:29:58.631Z</time>
      </trkpt>
      <trkpt lat="48.82018" lon="2.43535">
        <ele>117.4</ele>
        <time>2015-06-08T20:29:59.652Z</time>
      </trkpt>
      <trkpt lat="48.82021" lon="2.43528">
        <ele>117.8</ele>
        <time>2015-06-08T20:30:00.665Z</time>
      </trkpt>
      <trkpt lat="48.82024" lon="2.43522">
        <ele>118.2</ele>
        <time>2015-06-08T20:30:01.690Z</time>
      </trkpt>
      <trkpt lat="48.82027" lon="2.43515">
        <ele>118.3</ele>
        <time>2015-06-08T20:30:02.726Z</time>
      </trkpt>
      <trkpt lat="48.8203" lon="2.43509">
        <ele>118.3</ele>
        <time>2015-06-08T20:30:03.718Z</time>
      </trkpt>
      <trkpt lat="48.82033" lon="2.43503">
        <ele>118.3</ele>
        <time>2015-06-08T20:30:04.723Z</time>
      </trkpt>
      <trkpt lat="48.82037" lon="2.43496">
        <ele>118.5</ele>
        <time>2015-06-08T20:30:05.744Z</time>
      </trkpt>
      <trkpt lat="48.8204" lon="2.43489">
        <ele>118.5</ele>
        <time>2015-06-08T20:30:06.754Z</time>
      </trkpt>
      <trkpt lat="48.82043" lon="2.43482">
        <ele>118.3</ele>
        <time>2015-06-08T20:30:07.659Z</time>
      </trkpt>
      <trkpt lat="48.82046" lon="2.43475">
        <ele>118.4</ele>
        <time>2015-06-08T20:30:08.732Z</time>
      </trkpt>
      <trkpt lat="48.8205" lon="2.43468">
        <ele>118.5</ele>
        <time>2015-06-08T20:30:09.711Z</time>
      </trkpt>
      <trkpt lat="48.82053" lon="2.4346">
        <ele>118.5</ele>
        <time>2015-06-08T20:30:10.725Z</time>
      </trkpt>
      <trkpt lat="48.82058" lon="2.43453">
        <ele>118.4</ele>
        <time>2015-06-08T20:30:11.727Z</time>
      </trkpt>
      <trkpt lat="48.82061" lon="2.43446">
        <ele>118.5</ele>
        <time>2015-06-08T20:30:12.652Z</time>
      </trkpt>
      <trkpt lat="48.82063" lon="2.43439">
        <ele>118.9</ele>
        <time>2015-06-08T20:30:13.663Z</time>
      </trkpt>
      <trkpt lat="48.82065" lon="2.43431">
        <ele>118.9</ele>
        <time>2015-06-08T20:30:14.763Z</time>
      </trkpt>
      <trkpt lat="48.82068" lon="2.43425">
        <ele>119</ele>
        <time>2015-06-08T20:30:15.736Z</time>
      </trkpt>
      <trkpt lat="48.82072" lon="2.43419">
        <ele>119.3</ele>
        <time>2015-06-08T20:30:16.746Z</time>
      </trkpt>
      <trkpt lat="48.82076" lon="2.43413">
        <ele>119.4</ele>
        <time>2015-06-08T20:30:17.687Z</time>
      </trkpt>
      <trkpt lat="48.82081" lon="2.43406">
        <ele>119.6</ele>
        <time>2015-06-08T20:30:18.697Z</time>
      </trkpt>
      <trkpt lat="48.82086" lon="2.434">
        <ele>119.8</ele>
        <time>2015-06-08T20:30:19.671Z</time>
      </trkpt>
      <trkpt lat="48.82092" lon="2.43395">
        <ele>120.1</ele>
        <time>2015-06-08T20:30:20.714Z</time>
      </trkpt>
      <trkpt lat="48.82097" lon="2.43389">
        <ele>120.1</ele>
        <time>2015-06-08T20:30:21.703Z</time>
      </trkpt>
      <trkpt lat="48.82103" lon="2.43382">
        <ele>119.9</ele>
        <time>2015-06-08T20:30:22.708Z</time>
      </trkpt>
      <trkpt lat="48.82107" lon="2.43376">
        <ele>119.7</ele>
        <time>2015-06-08T20:30:23.722Z</time>
      </trkpt>
      <trkpt lat="48.82111" lon="2.4337">
        <ele>119.4</ele>
        <time>2015-06-08T20:30:24.731Z</time>
      </trkpt>
      <trkpt lat="48.82116" lon="2.43366">
        <ele>119.4</ele>
        <time>2015-06-08T20:30:25.743Z</time>
      </trkpt>
      <trkpt lat="48.8212" lon="2.4336">
        <ele>119</ele>
        <time>2015-06-08T20:30:26.752Z</time>
      </trkpt>
      <trkpt lat="48.82123" lon="2.43355">
        <ele>118.8</ele>
        <time>2015-06-08T20:30:27.674Z</time>
      </trkpt>
      <trkpt lat="48.82127" lon="2.43348">
        <ele>118.5</ele>
        <time>2015-06-08T20:30:28.675Z</time>
      </trkpt>
      <trkpt lat="48.82132" lon="2.4334">
        <ele>118.2</ele>
        <time>2015-06-08T20:30:29.732Z</time>
      </trkpt>
      <trkpt lat="48.82136" lon="2.43334">
        <ele>118.1</ele>
        <time>2015-06-08T20:30:30.709Z</time>
      </trkpt>
      <trkpt lat="48.82141" lon="2.43327">
        <ele>118.2</ele>
        <time>2015-06-08T20:30:31.730Z</time>
      </trkpt>
      <trkpt lat="48.82146" lon="2.4332">
        <ele>118.1</ele>
        <time>2015-06-08T20:30:32.742Z</time>
      </trkpt>
      <trkpt lat="48.8215" lon="2.43312">
        <ele>118.1</ele>
        <time>2015-06-08T20:30:33.665Z</time>
      </trkpt>
      <trkpt lat="48.82154" lon="2.43307">
        <ele>118</ele>
        <time>2015-06-08T20:30:34.664Z</time>
      </trkpt>
      <trkpt lat="48.82157" lon="2.43302">
        <ele>117.7</ele>
        <time>2015-06-08T20:30:35.679Z</time>
      </trkpt>
      <trkpt lat="48.82161" lon="2.43298">
        <ele>117.4</ele>
        <time>2015-06-08T20:30:36.749Z</time>
      </trkpt>
      <trkpt lat="48.82166" lon="2.43293">
        <ele>117.4</ele>
        <time>2015-06-08T20:30:37.659Z</time>
      </trkpt>
      <trkpt lat="48.82173" lon="2.43289">
        <ele>117.4</ele>
        <time>2015-06-08T20:30:38.712Z</time>
      </trkpt>
      <trkpt lat="48.82181" lon="2.43283">
        <ele>117.3</ele>
        <time>2015-06-08T20:30:39.704Z</time>
      </trkpt>
      <trkpt lat="48.82189" lon="2.43276">
        <ele>117.1</ele>
        <time>2015-06-08T20:30:40.713Z</time>
      </trkpt>
      <trkpt lat="48.82198" lon="2.43269">
        <ele>117</ele>
        <time>2015-06-08T20:30:41.723Z</time>
      </trkpt>
      <trkpt lat="48.82203" lon="2.43263">
        <ele>116.5</ele>
        <time>2015-06-08T20:30:42.651Z</time>
      </trkpt>
      <trkpt lat="48.82207" lon="2.43256">
        <ele>116.3</ele>
        <time>2015-06-08T20:30:43.648Z</time>
      </trkpt>
      <trkpt lat="48.8221" lon="2.43248">
        <ele>116.3</ele>
        <time>2015-06-08T20:30:44.687Z</time>
      </trkpt>
      <trkpt lat="48.82212" lon="2.43241">
        <ele>116.2</ele>
        <time>2015-06-08T20:30:45.696Z</time>
      </trkpt>
      <trkpt lat="48.82217" lon="2.43234">
        <ele>115.8</ele>
        <time>2015-06-08T20:30:46.648Z</time>
      </trkpt>
      <trkpt lat="48.82221" lon="2.43227">
        <ele>115.4</ele>
        <time>2015-06-08T20:30:47.651Z</time>
      </trkpt>
      <trkpt lat="48.82227" lon="2.4322">
        <ele>115.2</ele>
        <time>2015-06-08T20:30:48.672Z</time>
      </trkpt>
      <trkpt lat="48.82232" lon="2.43213">
        <ele>115</ele>
        <time>2015-06-08T20:30:49.680Z</time>
      </trkpt>
      <trkpt lat="48.82237" lon="2.43207">
        <ele>115</ele>
        <time>2015-06-08T20:30:50.692Z</time>
      </trkpt>
      <trkpt lat="48.82242" lon="2.432">
        <ele>115</ele>
        <time>2015-06-08T20:30:51.708Z</time>
      </trkpt>
      <trkpt lat="48.82247" lon="2.43194">
        <ele>115</ele>
        <time>2015-06-08T20:30:52.713Z</time>
      </trkpt>
      <trkpt lat="48.82251" lon="2.43188">
        <ele>115</ele>
        <time>2015-06-08T20:30:53.630Z</time>
      </trkpt>
      <trkpt lat="48.82255" lon="2.43181">
        <ele>115.1</ele>
        <time>2015-06-08T20:30:54.673Z</time>
      </trkpt>
      <trkpt lat="48.82259" lon="2.43174">
        <ele>115.2</ele>
        <time>2015-06-08T20:30:55.682Z</time>
      </trkpt>
      <trkpt lat="48.82263" lon="2.43167">
        <ele>115.8</ele>
        <time>2015-06-08T20:30:56.693Z</time>
      </trkpt>
      <trkpt lat="48.82267" lon="2.43159">
        <ele>116</ele>
        <time>2015-06-08T20:30:57.712Z</time>
      </trkpt>
      <trkpt lat="48.8227" lon="2.43152">
        <ele>116.3</ele>
        <time>2015-06-08T20:30:58.631Z</time>
      </trkpt>
      <trkpt lat="48.82275" lon="2.43144">
        <ele>116.8</ele>
        <time>2015-06-08T20:30:59.642Z</time>
      </trkpt>
      <trkpt lat="48.8228" lon="2.43137">
        <ele>117.1</ele>
        <time>2015-06-08T20:31:00.654Z</time>
      </trkpt>
      <trkpt lat="48.82285" lon="2.4313">
        <ele>117.4</ele>
        <time>2015-06-08T20:31:01.658Z</time>
      </trkpt>
      <trkpt lat="48.82289" lon="2.43122">
        <ele>117.7</ele>
        <time>2015-06-08T20:31:02.759Z</time>
      </trkpt>
      <trkpt lat="48.82293" lon="2.43112">
        <ele>118.4</ele>
        <time>2015-06-08T20:31:03.724Z</time>
      </trkpt>
      <trkpt lat="48.82296" lon="2.43103">
        <ele>118.7</ele>
        <time>2015-06-08T20:31:04.755Z</time>
      </trkpt>
      <trkpt lat="48.82298" lon="2.43093">
        <ele>118.8</ele>
        <time>2015-06-08T20:31:05.650Z</time>
      </trkpt>
      <trkpt lat="48.823" lon="2.43084">
        <ele>118.9</ele>
        <time>2015-06-08T20:31:06.665Z</time>
      </trkpt>
      <trkpt lat="48.82303" lon="2.43075">
        <ele>119.1</ele>
        <time>2015-06-08T20:31:07.668Z</time>
      </trkpt>
      <trkpt lat="48.82306" lon="2.43066">
        <ele>119.5</ele>
        <time>2015-06-08T20:31:08.698Z</time>
      </trkpt>
      <trkpt lat="48.82309" lon="2.43056">
        <ele>119.7</ele>
        <time>2015-06-08T20:31:09.704Z</time>
      </trkpt>
      <trkpt lat="48.82313" lon="2.43047">
        <ele>119.8</ele>
        <time>2015-06-08T20:31:10.708Z</time>
      </trkpt>
      <trkpt lat="48.82317" lon="2.43038">
        <ele>120.1</ele>
        <time>2015-06-08T20:31:11.717Z</time>
      </trkpt>
      <trkpt lat="48.82322" lon="2.4303">
        <ele>120.8</ele>
        <time>2015-06-08T20:31:12.640Z</time>
      </trkpt>
      <trkpt lat="48.82325" lon="2.43021">
        <ele>120.9</ele>
        <time>2015-06-08T20:31:13.757Z</time>
      </trkpt>
      <trkpt lat="48.82328" lon="2.43011">
        <ele>120.9</ele>
        <time>2015-06-08T20:31:14.769Z</time>
      </trkpt>
      <trkpt lat="48.82331" lon="2.43002">
        <ele>121</ele>
        <time>2015-06-08T20:31:15.644Z</time>
      </trkpt>
      <trkpt lat="48.82334" lon="2.42994">
        <ele>121.5</ele>
        <time>2015-06-08T20:31:16.651Z</time>
      </trkpt>
      <trkpt lat="48.82337" lon="2.42985">
        <ele>121.8</ele>
        <time>2015-06-08T20:31:17.663Z</time>
      </trkpt>
      <trkpt lat="48.82341" lon="2.42976">
        <ele>121.9</ele>
        <time>2015-06-08T20:31:18.662Z</time>
      </trkpt>
      <trkpt lat="48.82344" lon="2.42967">
        <ele>122.1</ele>
        <time>2015-06-08T20:31:19.670Z</time>
      </trkpt>
      <trkpt lat="48.82346" lon="2.42958">
        <ele>121.6</ele>
        <time>2015-06-08T20:31:20.723Z</time>
      </trkpt>
      <trkpt lat="48.82348" lon="2.42949">
        <ele>121.2</ele>
        <time>2015-06-08T20:31:21.728Z</time>
      </trkpt>
      <trkpt lat="48.8235" lon="2.4294">
        <ele>120.2</ele>
        <time>2015-06-08T20:31:22.648Z</time>
      </trkpt>
      <trkpt lat="48.82352" lon="2.42931">
        <ele>119.6</ele>
        <time>2015-06-08T20:31:23.672Z</time>
      </trkpt>
      <trkpt lat="48.82355" lon="2.42923">
        <ele>119.5</ele>
        <time>2015-06-08T20:31:24.695Z</time>
      </trkpt>
      <trkpt lat="48.82359" lon="2.42915">
        <ele>119</ele>
        <time>2015-06-08T20:31:25.699Z</time>
      </trkpt>
      <trkpt lat="48.82362" lon="2.42906">
        <ele>118.6</ele>
        <time>2015-06-08T20:31:26.725Z</time>
      </trkpt>
      <trkpt lat="48.82365" lon="2.42898">
        <ele>118.1</ele>
        <time>2015-06-08T20:31:27.662Z</time>
      </trkpt>
      <trkpt lat="48.82367" lon="2.42889">
        <ele>117.4</ele>
        <time>2015-06-08T20:31:28.651Z</time>
      </trkpt>
      <trkpt lat="48.8237" lon="2.42882">
        <ele>117.2</ele>
        <time>2015-06-08T20:31:29.665Z</time>
      </trkpt>
      <trkpt lat="48.82373" lon="2.42873">
        <ele>116.8</ele>
        <time>2015-06-08T20:31:30.672Z</time>
      </trkpt>
      <trkpt lat="48.82376" lon="2.42865">
        <ele>116.3</ele>
        <time>2015-06-08T20:31:31.683Z</time>
      </trkpt>
      <trkpt lat="48.82378" lon="2.42857">
        <ele>116</ele>
        <time>2015-06-08T20:31:32.718Z</time>
      </trkpt>
      <trkpt lat="48.82381" lon="2.42849">
        <ele>115.8</ele>
        <time>2015-06-08T20:31:33.712Z</time>
      </trkpt>
      <trkpt lat="48.82382" lon="2.4284">
        <ele>115.4</ele>
        <time>2015-06-08T20:31:34.725Z</time>
      </trkpt>
      <trkpt lat="48.82382" lon="2.42832">
        <ele>115.3</ele>
        <time>2015-06-08T20:31:35.662Z</time>
      </trkpt>
      <trkpt lat="48.82383" lon="2.42822">
        <ele>115.2</ele>
        <time>2015-06-08T20:31:36.660Z</time>
      </trkpt>
      <trkpt lat="48.82384" lon="2.42812">
        <ele>115.2</ele>
        <time>2015-06-08T20:31:37.668Z</time>
      </trkpt>
      <trkpt lat="48.82386" lon="2.42802">
        <ele>115.4</ele>
        <time>2015-06-08T20:31:38.716Z</time>
      </trkpt>
      <trkpt lat="48.82387" lon="2.42792">
        <ele>115.5</ele>
        <time>2015-06-08T20:31:39.722Z</time>
      </trkpt>
      <trkpt lat="48.82388" lon="2.42782">
        <ele>115.6</ele>
        <time>2015-06-08T20:31:40.636Z</time>
      </trkpt>
      <trkpt lat="48.8239" lon="2.42773">
        <ele>115.9</ele>
        <time>2015-06-08T20:31:41.655Z</time>
      </trkpt>
      <trkpt lat="48.82392" lon="2.42764">
        <ele>116.1</ele>
        <time>2015-06-08T20:31:42.676Z</time>
      </trkpt>
      <trkpt lat="48.82394" lon="2.42755">
        <ele>116</ele>
        <time>2015-06-08T20:31:43.686Z</time>
      </trkpt>
      <trkpt lat="48.82395" lon="2.42747">
        <ele>115.9</ele>
        <time>2015-06-08T20:31:44.716Z</time>
      </trkpt>
      <trkpt lat="48.82397" lon="2.42738">
        <ele>115.6</ele>
        <time>2015-06-08T20:31:45.724Z</time>
      </trkpt>
      <trkpt lat="48.82398" lon="2.42729">
        <ele>115.4</ele>
        <time>2015-06-08T20:31:46.734Z</time>
      </trkpt>
      <trkpt lat="48.824" lon="2.4272">
        <ele>114.9</ele>
        <time>2015-06-08T20:31:47.737Z</time>
      </trkpt>
      <trkpt lat="48.82401" lon="2.42712">
        <ele>114.5</ele>
        <time>2015-06-08T20:31:48.741Z</time>
      </trkpt>
      <trkpt lat="48.82401" lon="2.42703">
        <ele>114.4</ele>
        <time>2015-06-08T20:31:49.669Z</time>
      </trkpt>
      <trkpt lat="48.82402" lon="2.42695">
        <ele>114.3</ele>
        <time>2015-06-08T20:31:50.716Z</time>
      </trkpt>
      <trkpt lat="48.82402" lon="2.42687">
        <ele>114</ele>
        <time>2015-06-08T20:31:51.725Z</time>
      </trkpt>
      <trkpt lat="48.82404" lon="2.42677">
        <ele>113.6</ele>
        <time>2015-06-08T20:31:52.741Z</time>
      </trkpt>
      <trkpt lat="48.82405" lon="2.42668">
        <ele>113.6</ele>
        <time>2015-06-08T20:31:53.655Z</time>
      </trkpt>
      <trkpt lat="48.82405" lon="2.42659">
        <ele>113.7</ele>
        <time>2015-06-08T20:31:54.663Z</time>
      </trkpt>
      <trkpt lat="48.82405" lon="2.4265">
        <ele>113.7</ele>
        <time>2015-06-08T20:31:55.673Z</time>
      </trkpt>
      <trkpt lat="48.82406" lon="2.42642">
        <ele>113.9</ele>
        <time>2015-06-08T20:31:56.729Z</time>
      </trkpt>
      <trkpt lat="48.82407" lon="2.42633">
        <ele>114.5</ele>
        <time>2015-06-08T20:31:57.727Z</time>
      </trkpt>
      <trkpt lat="48.82407" lon="2.42624">
        <ele>114.5</ele>
        <time>2015-06-08T20:31:58.656Z</time>
      </trkpt>
      <trkpt lat="48.82407" lon="2.42615">
        <ele>114.2</ele>
        <time>2015-06-08T20:31:59.666Z</time>
      </trkpt>
      <trkpt lat="48.82408" lon="2.42606">
        <ele>114</ele>
        <time>2015-06-08T20:32:00.685Z</time>
      </trkpt>
      <trkpt lat="48.82409" lon="2.42597">
        <ele>113.7</ele>
        <time>2015-06-08T20:32:01.692Z</time>
      </trkpt>
      <trkpt lat="48.8241" lon="2.42588">
        <ele>113.7</ele>
        <time>2015-06-08T20:32:02.756Z</time>
      </trkpt>
      <trkpt lat="48.8241" lon="2.42579">
        <ele>113.5</ele>
        <time>2015-06-08T20:32:03.665Z</time>
      </trkpt>
      <trkpt lat="48.82411" lon="2.4257">
        <ele>113.8</ele>
        <time>2015-06-08T20:32:04.663Z</time>
      </trkpt>
      <trkpt lat="48.82412" lon="2.4256">
        <ele>113.4</ele>
        <time>2015-06-08T20:32:05.678Z</time>
      </trkpt>
      <trkpt lat="48.82412" lon="2.4255">
        <ele>113.3</ele>
        <time>2015-06-08T20:32:06.699Z</time>
      </trkpt>
      <trkpt lat="48.82413" lon="2.42541">
        <ele>113</ele>
        <time>2015-06-08T20:32:07.710Z</time>
      </trkpt>
      <trkpt lat="48.82414" lon="2.42531">
        <ele>112.5</ele>
        <time>2015-06-08T20:32:08.718Z</time>
      </trkpt>
      <trkpt lat="48.82415" lon="2.42522">
        <ele>111.9</ele>
        <time>2015-06-08T20:32:09.725Z</time>
      </trkpt>
      <trkpt lat="48.82416" lon="2.42513">
        <ele>111.7</ele>
        <time>2015-06-08T20:32:10.731Z</time>
      </trkpt>
      <trkpt lat="48.82416" lon="2.42504">
        <ele>111.3</ele>
        <time>2015-06-08T20:32:11.743Z</time>
      </trkpt>
      <trkpt lat="48.82417" lon="2.42496">
        <ele>111.1</ele>
        <time>2015-06-08T20:32:12.660Z</time>
      </trkpt>
      <trkpt lat="48.82417" lon="2.42487">
        <ele>110.9</ele>
        <time>2015-06-08T20:32:13.671Z</time>
      </trkpt>
      <trkpt lat="48.82418" lon="2.42478">
        <ele>110.8</ele>
        <time>2015-06-08T20:32:14.727Z</time>
      </trkpt>
      <trkpt lat="48.82418" lon="2.4247">
        <ele>110.8</ele>
        <time>2015-06-08T20:32:15.724Z</time>
      </trkpt>
      <trkpt lat="48.82419" lon="2.42462">
        <ele>110.6</ele>
        <time>2015-06-08T20:32:16.734Z</time>
      </trkpt>
      <trkpt lat="48.82419" lon="2.42453">
        <ele>110.5</ele>
        <time>2015-06-08T20:32:17.746Z</time>
      </trkpt>
      <trkpt lat="48.82419" lon="2.42443">
        <ele>110.1</ele>
        <time>2015-06-08T20:32:18.637Z</time>
      </trkpt>
      <trkpt lat="48.82419" lon="2.42434">
        <ele>109.8</ele>
        <time>2015-06-08T20:32:19.659Z</time>
      </trkpt>
      <trkpt lat="48.8242" lon="2.42425">
        <ele>109.5</ele>
        <time>2015-06-08T20:32:20.712Z</time>
      </trkpt>
      <trkpt lat="48.8242" lon="2.42415">
        <ele>109.2</ele>
        <time>2015-06-08T20:32:21.715Z</time>
      </trkpt>
      <trkpt lat="48.8242" lon="2.42406">
        <ele>109</ele>
        <time>2015-06-08T20:32:22.722Z</time>
      </trkpt>
      <trkpt lat="48.82418" lon="2.42398">
        <ele>109.1</ele>
        <time>2015-06-08T20:32:23.728Z</time>
      </trkpt>
      <trkpt lat="48.82417" lon="2.4239">
        <ele>109.3</ele>
        <time>2015-06-08T20:32:24.736Z</time>
      </trkpt>
      <trkpt lat="48.82415" lon="2.42382">
        <ele>109.1</ele>
        <time>2015-06-08T20:32:25.739Z</time>
      </trkpt>
      <trkpt lat="48.82415" lon="2.42375">
        <ele>109.1</ele>
        <time>2015-06-08T20:32:26.754Z</time>
      </trkpt>
      <trkpt lat="48.82415" lon="2.42368">
        <ele>109.2</ele>
        <time>2015-06-08T20:32:27.664Z</time>
      </trkpt>
      <trkpt lat="48.82415" lon="2.42355">
        <ele>109.6</ele>
        <time>2015-06-08T20:32:29.662Z</time>
      </trkpt>
      <trkpt lat="48.82415" lon="2.42348">
        <ele>109.5</ele>
        <time>2015-06-08T20:32:30.682Z</time>
      </trkpt>
      <trkpt lat="48.82418" lon="2.42335">
        <ele>109.1</ele>
        <time>2015-06-08T20:32:33.739Z</time>
      </trkpt>
      <trkpt lat="48.82418" lon="2.42331">
        <ele>109</ele>
        <time>2015-06-08T20:32:34.685Z</time>
      </trkpt>
      <trkpt lat="48.82418" lon="2.4232">
        <ele>109.9</ele>
        <time>2015-06-08T20:32:37.739Z</time>
      </trkpt>
      <trkpt lat="48.82417" lon="2.42316">
        <ele>110.2</ele>
        <time>2015-06-08T20:32:38.771Z</time>
      </trkpt>
      <trkpt lat="48.82415" lon="2.42305">
        <ele>110.8</ele>
        <time>2015-06-08T20:32:41.677Z</time>
      </trkpt>
      <trkpt lat="48.82415" lon="2.42301">
        <ele>110.5</ele>
        <time>2015-06-08T20:32:42.689Z</time>
      </trkpt>
      <trkpt lat="48.82418" lon="2.42292">
        <ele>110.4</ele>
        <time>2015-06-08T20:35:11.734Z</time>
      </trkpt>
      <trkpt lat="48.82423" lon="2.42294">
        <ele>107.6</ele>
        <time>2015-06-08T20:35:12.657Z</time>
      </trkpt>
      <trkpt lat="48.8242" lon="2.42284">
        <ele>106.2</ele>
        <time>2015-06-08T20:38:41.676Z</time>
      </trkpt>
      <trkpt lat="48.82419" lon="2.42282">
        <ele>106.3</ele>
        <time>2015-06-08T20:38:42.689Z</time>
      </trkpt>
      <trkpt lat="48.82417" lon="2.42271">
        <ele>107.1</ele>
        <time>2015-06-08T20:38:46.644Z</time>
      </trkpt>
      <trkpt lat="48.82416" lon="2.42267">
        <ele>107.2</ele>
        <time>2015-06-08T20:38:47.643Z</time>
      </trkpt>
      <trkpt lat="48.82416" lon="2.42255">
        <ele>106.9</ele>
        <time>2015-06-08T20:38:50.729Z</time>
      </trkpt>
      <trkpt lat="48.82415" lon="2.42251">
        <ele>106.9</ele>
        <time>2015-06-08T20:38:51.660Z</time>
      </trkpt>
      <trkpt lat="48.82413" lon="2.42239">
        <ele>107</ele>
        <time>2015-06-08T20:38:54.670Z</time>
      </trkpt>
      <trkpt lat="48.82412" lon="2.42235">
        <ele>107</ele>
        <time>2015-06-08T20:38:55.682Z</time>
      </trkpt>
      <trkpt lat="48.82411" lon="2.42222">
        <ele>107.5</ele>
        <time>2015-06-08T20:38:58.671Z</time>
      </trkpt>
      <trkpt lat="48.8241" lon="2.42217">
        <ele>107.7</ele>
        <time>2015-06-08T20:38:59.697Z</time>
      </trkpt>
      <trkpt lat="48.82409" lon="2.42207">
        <ele>108</ele>
        <time>2015-06-08T20:39:01.689Z</time>
      </trkpt>
      <trkpt lat="48.82408" lon="2.42202">
        <ele>108.1</ele>
        <time>2015-06-08T20:39:02.726Z</time>
      </trkpt>
      <trkpt lat="48.82408" lon="2.42191">
        <ele>108.3</ele>
        <time>2015-06-08T20:39:04.637Z</time>
      </trkpt>
      <trkpt lat="48.82408" lon="2.42186">
        <ele>108.4</ele>
        <time>2015-06-08T20:39:05.657Z</time>
      </trkpt>
      <trkpt lat="48.82407" lon="2.42175">
        <ele>108.8</ele>
        <time>2015-06-08T20:39:07.717Z</time>
      </trkpt>
      <trkpt lat="48.82407" lon="2.4217">
        <ele>108.8</ele>
        <time>2015-06-08T20:39:08.724Z</time>
      </trkpt>
      <trkpt lat="48.82406" lon="2.42159">
        <ele>108.9</ele>
        <time>2015-06-08T20:39:10.646Z</time>
      </trkpt>
      <trkpt lat="48.82405" lon="2.42154">
        <ele>109</ele>
        <time>2015-06-08T20:39:11.648Z</time>
      </trkpt>
      <trkpt lat="48.82405" lon="2.42143">
        <ele>108.8</ele>
        <time>2015-06-08T20:39:13.723Z</time>
      </trkpt>
      <trkpt lat="48.82406" lon="2.42138">
        <ele>108.7</ele>
        <time>2015-06-08T20:39:14.771Z</time>
      </trkpt>
      <trkpt lat="48.82405" lon="2.42127">
        <ele>108.9</ele>
        <time>2015-06-08T20:39:16.657Z</time>
      </trkpt>
      <trkpt lat="48.82405" lon="2.42122">
        <ele>108.8</ele>
        <time>2015-06-08T20:39:17.678Z</time>
      </trkpt>
      <trkpt lat="48.82404" lon="2.42111">
        <ele>108.7</ele>
        <time>2015-06-08T20:39:19.700Z</time>
      </trkpt>
      <trkpt lat="48.82403" lon="2.42105">
        <ele>108.5</ele>
        <time>2015-06-08T20:39:20.709Z</time>
      </trkpt>
      <trkpt lat="48.82402" lon="2.42094">
        <ele>108.6</ele>
        <time>2015-06-08T20:39:22.734Z</time>
      </trkpt>
      <trkpt lat="48.82402" lon="2.42088">
        <ele>108.5</ele>
        <time>2015-06-08T20:39:23.672Z</time>
      </trkpt>
      <trkpt lat="48.82402" lon="2.42078">
        <ele>108.5</ele>
        <time>2015-06-08T20:39:25.670Z</time>
      </trkpt>
      <trkpt lat="48.82401" lon="2.42072">
        <ele>108.3</ele>
        <time>2015-06-08T20:39:26.741Z</time>
      </trkpt>
      <trkpt lat="48.82402" lon="2.42061">
        <ele>108.8</ele>
        <time>2015-06-08T20:39:28.652Z</time>
      </trkpt>
      <trkpt lat="48.82403" lon="2.42056">
        <ele>109.3</ele>
        <time>2015-06-08T20:39:29.654Z</time>
      </trkpt>
      <trkpt lat="48.82405" lon="2.42045">
        <ele>110</ele>
        <time>2015-06-08T20:39:31.681Z</time>
      </trkpt>
      <trkpt lat="48.82406" lon="2.4204">
        <ele>110.2</ele>
        <time>2015-06-08T20:39:32.744Z</time>
      </trkpt>
      <trkpt lat="48.82407" lon="2.42029">
        <ele>109.8</ele>
        <time>2015-06-08T20:39:34.679Z</time>
      </trkpt>
      <trkpt lat="48.82408" lon="2.42023">
        <ele>109.8</ele>
        <time>2015-06-08T20:39:35.652Z</time>
      </trkpt>
      <trkpt lat="48.82409" lon="2.42012">
        <ele>110</ele>
        <time>2015-06-08T20:39:37.727Z</time>
      </trkpt>
      <trkpt lat="48.82409" lon="2.42006">
        <ele>110.3</ele>
        <time>2015-06-08T20:39:38.711Z</time>
      </trkpt>
      <trkpt lat="48.82409" lon="2.41995">
        <ele>110.7</ele>
        <time>2015-06-08T20:39:41.400Z</time>
      </trkpt>
      <trkpt lat="48.8241" lon="2.4199">
        <ele>110.8</ele>
        <time>2015-06-08T20:39:41.685Z</time>
      </trkpt>
      <trkpt lat="48.82411" lon="2.41978">
        <ele>111.2</ele>
        <time>2015-06-08T20:39:43.654Z</time>
      </trkpt>
      <trkpt lat="48.82411" lon="2.41972">
        <ele>111.2</ele>
        <time>2015-06-08T20:39:44.762Z</time>
      </trkpt>
      <trkpt lat="48.82411" lon="2.41965">
        <ele>111</ele>
        <time>2015-06-08T20:39:45.654Z</time>
      </trkpt>
      <trkpt lat="48.82412" lon="2.41958">
        <ele>110.8</ele>
        <time>2015-06-08T20:39:46.665Z</time>
      </trkpt>
      <trkpt lat="48.82414" lon="2.41945">
        <ele>110.1</ele>
        <time>2015-06-08T20:39:48.702Z</time>
      </trkpt>
      <trkpt lat="48.82415" lon="2.41939">
        <ele>109.6</ele>
        <time>2015-06-08T20:39:49.733Z</time>
      </trkpt>
      <trkpt lat="48.82417" lon="2.41926">
        <ele>108.8</ele>
        <time>2015-06-08T20:39:51.736Z</time>
      </trkpt>
      <trkpt lat="48.82418" lon="2.4192">
        <ele>108.6</ele>
        <time>2015-06-08T20:39:52.739Z</time>
      </trkpt>
      <trkpt lat="48.8242" lon="2.41907">
        <ele>108.1</ele>
        <time>2015-06-08T20:39:54.784Z</time>
      </trkpt>
      <trkpt lat="48.8242" lon="2.41901">
        <ele>108</ele>
        <time>2015-06-08T20:39:55.671Z</time>
      </trkpt>
      <trkpt lat="48.82422" lon="2.41889">
        <ele>107.9</ele>
        <time>2015-06-08T20:39:57.637Z</time>
      </trkpt>
      <trkpt lat="48.82423" lon="2.41883">
        <ele>108</ele>
        <time>2015-06-08T20:39:58.667Z</time>
      </trkpt>
      <trkpt lat="48.82426" lon="2.41871">
        <ele>108.1</ele>
        <time>2015-06-08T20:40:00.664Z</time>
      </trkpt>
      <trkpt lat="48.82427" lon="2.41864">
        <ele>108.1</ele>
        <time>2015-06-08T20:40:01.666Z</time>
      </trkpt>
      <trkpt lat="48.8243" lon="2.41852">
        <ele>107.9</ele>
        <time>2015-06-08T20:40:03.702Z</time>
      </trkpt>
      <trkpt lat="48.82432" lon="2.41846">
        <ele>108</ele>
        <time>2015-06-08T20:40:04.712Z</time>
      </trkpt>
      <trkpt lat="48.82434" lon="2.41839">
        <ele>108.2</ele>
        <time>2015-06-08T20:40:05.623Z</time>
      </trkpt>
      <trkpt lat="48.82436" lon="2.41833">
        <ele>108.2</ele>
        <time>2015-06-08T20:40:06.652Z</time>
      </trkpt>
      <trkpt lat="48.82438" lon="2.41826">
        <ele>108.3</ele>
        <time>2015-06-08T20:40:07.670Z</time>
      </trkpt>
      <trkpt lat="48.82439" lon="2.4182">
        <ele>108.2</ele>
        <time>2015-06-08T20:40:08.725Z</time>
      </trkpt>
      <trkpt lat="48.82441" lon="2.41813">
        <ele>108</ele>
        <time>2015-06-08T20:40:09.708Z</time>
      </trkpt>
      <trkpt lat="48.82442" lon="2.41806">
        <ele>107.9</ele>
        <time>2015-06-08T20:40:10.717Z</time>
      </trkpt>
      <trkpt lat="48.82443" lon="2.418">
        <ele>107.9</ele>
        <time>2015-06-08T20:40:12.229Z</time>
      </trkpt>
      <trkpt lat="48.82447" lon="2.41794">
        <ele>106.8</ele>
        <time>2015-06-08T20:40:12.638Z</time>
      </trkpt>
      <trkpt lat="48.82449" lon="2.41788">
        <ele>106.5</ele>
        <time>2015-06-08T20:40:13.656Z</time>
      </trkpt>
      <trkpt lat="48.82451" lon="2.41781">
        <ele>106.4</ele>
        <time>2015-06-08T20:40:14.707Z</time>
      </trkpt>
      <trkpt lat="48.82453" lon="2.41774">
        <ele>106.4</ele>
        <time>2015-06-08T20:40:15.692Z</time>
      </trkpt>
      <trkpt lat="48.82454" lon="2.41767">
        <ele>106.4</ele>
        <time>2015-06-08T20:40:16.708Z</time>
      </trkpt>
      <trkpt lat="48.82456" lon="2.41759">
        <ele>106.5</ele>
        <time>2015-06-08T20:40:17.719Z</time>
      </trkpt>
      <trkpt lat="48.82457" lon="2.41751">
        <ele>106.5</ele>
        <time>2015-06-08T20:40:18.617Z</time>
      </trkpt>
      <trkpt lat="48.82458" lon="2.41743">
        <ele>106.9</ele>
        <time>2015-06-08T20:40:19.682Z</time>
      </trkpt>
      <trkpt lat="48.8246" lon="2.41736">
        <ele>107</ele>
        <time>2015-06-08T20:40:20.682Z</time>
      </trkpt>
      <trkpt lat="48.82461" lon="2.41729">
        <ele>107.1</ele>
        <time>2015-06-08T20:40:21.699Z</time>
      </trkpt>
      <trkpt lat="48.82462" lon="2.41721">
        <ele>107.2</ele>
        <time>2015-06-08T20:40:22.713Z</time>
      </trkpt>
      <trkpt lat="48.82464" lon="2.41714">
        <ele>106.8</ele>
        <time>2015-06-08T20:40:23.630Z</time>
      </trkpt>
      <trkpt lat="48.82465" lon="2.41707">
        <ele>106.5</ele>
        <time>2015-06-08T20:40:24.652Z</time>
      </trkpt>
      <trkpt lat="48.82466" lon="2.417">
        <ele>106.2</ele>
        <time>2015-06-08T20:40:25.674Z</time>
      </trkpt>
      <trkpt lat="48.82466" lon="2.41692">
        <ele>106.1</ele>
        <time>2015-06-08T20:40:26.683Z</time>
      </trkpt>
      <trkpt lat="48.82468" lon="2.41685">
        <ele>105.1</ele>
        <time>2015-06-08T20:40:27.741Z</time>
      </trkpt>
      <trkpt lat="48.8247" lon="2.41679">
        <ele>104.8</ele>
        <time>2015-06-08T20:40:28.642Z</time>
      </trkpt>
      <trkpt lat="48.82471" lon="2.41672">
        <ele>104.6</ele>
        <time>2015-06-08T20:40:29.635Z</time>
      </trkpt>
      <trkpt lat="48.82472" lon="2.41665">
        <ele>104.4</ele>
        <time>2015-06-08T20:40:30.644Z</time>
      </trkpt>
      <trkpt lat="48.82473" lon="2.41652">
        <ele>104.1</ele>
        <time>2015-06-08T20:40:32.815Z</time>
      </trkpt>
      <trkpt lat="48.82473" lon="2.41646">
        <ele>104.2</ele>
        <time>2015-06-08T20:40:33.663Z</time>
      </trkpt>
      <trkpt lat="48.82473" lon="2.41639">
        <ele>104.4</ele>
        <time>2015-06-08T20:40:34.773Z</time>
      </trkpt>
      <trkpt lat="48.82474" lon="2.41632">
        <ele>104.4</ele>
        <time>2015-06-08T20:40:35.636Z</time>
      </trkpt>
      <trkpt lat="48.82474" lon="2.41624">
        <ele>104.5</ele>
        <time>2015-06-08T20:40:36.644Z</time>
      </trkpt>
      <trkpt lat="48.82474" lon="2.41616">
        <ele>104.5</ele>
        <time>2015-06-08T20:40:37.655Z</time>
      </trkpt>
      <trkpt lat="48.82474" lon="2.41608">
        <ele>104.5</ele>
        <time>2015-06-08T20:40:38.692Z</time>
      </trkpt>
      <trkpt lat="48.82475" lon="2.41601">
        <ele>104.6</ele>
        <time>2015-06-08T20:40:39.683Z</time>
      </trkpt>
      <trkpt lat="48.82476" lon="2.41593">
        <ele>105.1</ele>
        <time>2015-06-08T20:40:40.638Z</time>
      </trkpt>
      <trkpt lat="48.82476" lon="2.41585">
        <ele>105.1</ele>
        <time>2015-06-08T20:40:41.639Z</time>
      </trkpt>
      <trkpt lat="48.82476" lon="2.41576">
        <ele>105.4</ele>
        <time>2015-06-08T20:40:42.662Z</time>
      </trkpt>
      <trkpt lat="48.82477" lon="2.41568">
        <ele>105.4</ele>
        <time>2015-06-08T20:40:43.748Z</time>
      </trkpt>
      <trkpt lat="48.82477" lon="2.41561">
        <ele>105.5</ele>
        <time>2015-06-08T20:40:44.772Z</time>
      </trkpt>
      <trkpt lat="48.82477" lon="2.41553">
        <ele>105.4</ele>
        <time>2015-06-08T20:40:45.639Z</time>
      </trkpt>
      <trkpt lat="48.82478" lon="2.41545">
        <ele>105.2</ele>
        <time>2015-06-08T20:40:46.646Z</time>
      </trkpt>
      <trkpt lat="48.82478" lon="2.41536">
        <ele>105.3</ele>
        <time>2015-06-08T20:40:47.654Z</time>
      </trkpt>
      <trkpt lat="48.82478" lon="2.41528">
        <ele>105.7</ele>
        <time>2015-06-08T20:40:48.699Z</time>
      </trkpt>
      <trkpt lat="48.82478" lon="2.41521">
        <ele>105.8</ele>
        <time>2015-06-08T20:40:49.621Z</time>
      </trkpt>
      <trkpt lat="48.82477" lon="2.41512">
        <ele>105.9</ele>
        <time>2015-06-08T20:40:50.688Z</time>
      </trkpt>
      <trkpt lat="48.82477" lon="2.41505">
        <ele>106.2</ele>
        <time>2015-06-08T20:40:51.700Z</time>
      </trkpt>
      <trkpt lat="48.82477" lon="2.41497">
        <ele>106.5</ele>
        <time>2015-06-08T20:40:52.629Z</time>
      </trkpt>
      <trkpt lat="48.82476" lon="2.41491">
        <ele>106.7</ele>
        <time>2015-06-08T20:40:53.653Z</time>
      </trkpt>
      <trkpt lat="48.82475" lon="2.41483">
        <ele>106.9</ele>
        <time>2015-06-08T20:40:54.666Z</time>
      </trkpt>
      <trkpt lat="48.82475" lon="2.41476">
        <ele>107</ele>
        <time>2015-06-08T20:40:55.671Z</time>
      </trkpt>
      <trkpt lat="48.82474" lon="2.41469">
        <ele>106.8</ele>
        <time>2015-06-08T20:40:56.676Z</time>
      </trkpt>
      <trkpt lat="48.82474" lon="2.41462">
        <ele>106.7</ele>
        <time>2015-06-08T20:40:57.683Z</time>
      </trkpt>
      <trkpt lat="48.82474" lon="2.41455">
        <ele>106.5</ele>
        <time>2015-06-08T20:40:58.701Z</time>
      </trkpt>
      <trkpt lat="48.82474" lon="2.41448">
        <ele>106.4</ele>
        <time>2015-06-08T20:40:59.708Z</time>
      </trkpt>
      <trkpt lat="48.82473" lon="2.41441">
        <ele>106.4</ele>
        <time>2015-06-08T20:41:00.724Z</time>
      </trkpt>
      <trkpt lat="48.82473" lon="2.41433">
        <ele>106.5</ele>
        <time>2015-06-08T20:41:01.726Z</time>
      </trkpt>
      <trkpt lat="48.82472" lon="2.41426">
        <ele>106.6</ele>
        <time>2015-06-08T20:41:02.729Z</time>
      </trkpt>
      <trkpt lat="48.82472" lon="2.41419">
        <ele>107</ele>
        <time>2015-06-08T20:41:03.600Z</time>
      </trkpt>
      <trkpt lat="48.82472" lon="2.41412">
        <ele>106.8</ele>
        <time>2015-06-08T20:41:04.622Z</time>
      </trkpt>
      <trkpt lat="48.82472" lon="2.41404">
        <ele>106.8</ele>
        <time>2015-06-08T20:41:05.622Z</time>
      </trkpt>
      <trkpt lat="48.82471" lon="2.41397">
        <ele>106.9</ele>
        <time>2015-06-08T20:41:06.627Z</time>
      </trkpt>
      <trkpt lat="48.82471" lon="2.41389">
        <ele>107</ele>
        <time>2015-06-08T20:41:07.640Z</time>
      </trkpt>
      <trkpt lat="48.82471" lon="2.41382">
        <ele>107</ele>
        <time>2015-06-08T20:41:08.679Z</time>
      </trkpt>
      <trkpt lat="48.8247" lon="2.41374">
        <ele>107.1</ele>
        <time>2015-06-08T20:41:09.700Z</time>
      </trkpt>
      <trkpt lat="48.82469" lon="2.41366">
        <ele>107.2</ele>
        <time>2015-06-08T20:41:10.644Z</time>
      </trkpt>
      <trkpt lat="48.82468" lon="2.41358">
        <ele>107.5</ele>
        <time>2015-06-08T20:41:11.638Z</time>
      </trkpt>
      <trkpt lat="48.82467" lon="2.4135">
        <ele>107.9</ele>
        <time>2015-06-08T20:41:12.653Z</time>
      </trkpt>
      <trkpt lat="48.82466" lon="2.41342">
        <ele>108</ele>
        <time>2015-06-08T20:41:13.661Z</time>
      </trkpt>
      <trkpt lat="48.82465" lon="2.41333">
        <ele>108</ele>
        <time>2015-06-08T20:41:14.688Z</time>
      </trkpt>
      <trkpt lat="48.82463" lon="2.41325">
        <ele>109</ele>
        <time>2015-06-08T20:41:15.695Z</time>
      </trkpt>
      <trkpt lat="48.82461" lon="2.41316">
        <ele>109.7</ele>
        <time>2015-06-08T20:41:16.635Z</time>
      </trkpt>
      <trkpt lat="48.8246" lon="2.41308">
        <ele>109.7</ele>
        <time>2015-06-08T20:41:17.615Z</time>
      </trkpt>
      <trkpt lat="48.8246" lon="2.41299">
        <ele>109.4</ele>
        <time>2015-06-08T20:41:18.633Z</time>
      </trkpt>
      <trkpt lat="48.8246" lon="2.41291">
        <ele>109.4</ele>
        <time>2015-06-08T20:41:19.642Z</time>
      </trkpt>
      <trkpt lat="48.8246" lon="2.41282">
        <ele>109.2</ele>
        <time>2015-06-08T20:41:20.680Z</time>
      </trkpt>
      <trkpt lat="48.82462" lon="2.41273">
        <ele>109.6</ele>
        <time>2015-06-08T20:41:21.682Z</time>
      </trkpt>
      <trkpt lat="48.82464" lon="2.41264">
        <ele>110.1</ele>
        <time>2015-06-08T20:41:22.596Z</time>
      </trkpt>
      <trkpt lat="48.82465" lon="2.41256">
        <ele>110.1</ele>
        <time>2015-06-08T20:41:23.625Z</time>
      </trkpt>
      <trkpt lat="48.82466" lon="2.41246">
        <ele>109.4</ele>
        <time>2015-06-08T20:41:24.639Z</time>
      </trkpt>
      <trkpt lat="48.82467" lon="2.41235">
        <ele>109.7</ele>
        <time>2015-06-08T20:41:25.666Z</time>
      </trkpt>
      <trkpt lat="48.82468" lon="2.41226">
        <ele>109.7</ele>
        <time>2015-06-08T20:41:26.678Z</time>
      </trkpt>
      <trkpt lat="48.82469" lon="2.41217">
        <ele>109.7</ele>
        <time>2015-06-08T20:41:27.681Z</time>
      </trkpt>
      <trkpt lat="48.8247" lon="2.41207">
        <ele>109.5</ele>
        <time>2015-06-08T20:41:28.690Z</time>
      </trkpt>
      <trkpt lat="48.8247" lon="2.41198">
        <ele>109.6</ele>
        <time>2015-06-08T20:41:29.695Z</time>
      </trkpt>
      <trkpt lat="48.82471" lon="2.41189">
        <ele>109.2</ele>
        <time>2015-06-08T20:41:30.716Z</time>
      </trkpt>
      <trkpt lat="48.82471" lon="2.41179">
        <ele>109.3</ele>
        <time>2015-06-08T20:41:31.627Z</time>
      </trkpt>
      <trkpt lat="48.82471" lon="2.41168">
        <ele>109.4</ele>
        <time>2015-06-08T20:41:32.694Z</time>
      </trkpt>
      <trkpt lat="48.82471" lon="2.41157">
        <ele>109.7</ele>
        <time>2015-06-08T20:41:33.703Z</time>
      </trkpt>
      <trkpt lat="48.82473" lon="2.41147">
        <ele>109.8</ele>
        <time>2015-06-08T20:41:34.628Z</time>
      </trkpt>
      <trkpt lat="48.82475" lon="2.41138">
        <ele>109.9</ele>
        <time>2015-06-08T20:41:35.624Z</time>
      </trkpt>
      <trkpt lat="48.82477" lon="2.41129">
        <ele>109.8</ele>
        <time>2015-06-08T20:41:36.632Z</time>
      </trkpt>
      <trkpt lat="48.82479" lon="2.4112">
        <ele>109.5</ele>
        <time>2015-06-08T20:41:37.638Z</time>
      </trkpt>
      <trkpt lat="48.8248" lon="2.4111">
        <ele>109.4</ele>
        <time>2015-06-08T20:41:38.675Z</time>
      </trkpt>
      <trkpt lat="48.82482" lon="2.41101">
        <ele>109</ele>
        <time>2015-06-08T20:41:39.682Z</time>
      </trkpt>
      <trkpt lat="48.82486" lon="2.41092">
        <ele>107.7</ele>
        <time>2015-06-08T20:41:40.623Z</time>
      </trkpt>
      <trkpt lat="48.8249" lon="2.41083">
        <ele>107.1</ele>
        <time>2015-06-08T20:41:41.630Z</time>
      </trkpt>
      <trkpt lat="48.82492" lon="2.41073">
        <ele>107.4</ele>
        <time>2015-06-08T20:41:42.633Z</time>
      </trkpt>
      <trkpt lat="48.82494" lon="2.41064">
        <ele>107.4</ele>
        <time>2015-06-08T20:41:43.646Z</time>
      </trkpt>
      <trkpt lat="48.82496" lon="2.41054">
        <ele>107.7</ele>
        <time>2015-06-08T20:41:44.693Z</time>
      </trkpt>
      <trkpt lat="48.82498" lon="2.41045">
        <ele>107.3</ele>
        <time>2015-06-08T20:41:45.684Z</time>
      </trkpt>
      <trkpt lat="48.82501" lon="2.41036">
        <ele>107.6</ele>
        <time>2015-06-08T20:41:46.695Z</time>
      </trkpt>
      <trkpt lat="48.82504" lon="2.41028">
        <ele>107.8</ele>
        <time>2015-06-08T20:41:47.701Z</time>
      </trkpt>
      <trkpt lat="48.82508" lon="2.4102">
        <ele>107.5</ele>
        <time>2015-06-08T20:41:48.714Z</time>
      </trkpt>
      <trkpt lat="48.82511" lon="2.41011">
        <ele>107.4</ele>
        <time>2015-06-08T20:41:49.633Z</time>
      </trkpt>
      <trkpt lat="48.82513" lon="2.41">
        <ele>107.4</ele>
        <time>2015-06-08T20:41:50.734Z</time>
      </trkpt>
      <trkpt lat="48.82518" lon="2.40992">
        <ele>106.1</ele>
        <time>2015-06-08T20:41:51.642Z</time>
      </trkpt>
      <trkpt lat="48.82522" lon="2.40983">
        <ele>105.9</ele>
        <time>2015-06-08T20:41:52.646Z</time>
      </trkpt>
      <trkpt lat="48.82524" lon="2.40974">
        <ele>106.2</ele>
        <time>2015-06-08T20:41:53.646Z</time>
      </trkpt>
      <trkpt lat="48.82527" lon="2.40965">
        <ele>105.8</ele>
        <time>2015-06-08T20:41:54.667Z</time>
      </trkpt>
      <trkpt lat="48.82532" lon="2.40957">
        <ele>106.2</ele>
        <time>2015-06-08T20:41:55.681Z</time>
      </trkpt>
      <trkpt lat="48.82535" lon="2.40949">
        <ele>106.7</ele>
        <time>2015-06-08T20:41:56.712Z</time>
      </trkpt>
      <trkpt lat="48.82538" lon="2.40941">
        <ele>106.9</ele>
        <time>2015-06-08T20:41:57.717Z</time>
      </trkpt>
      <trkpt lat="48.82541" lon="2.40932">
        <ele>107.2</ele>
        <time>2015-06-08T20:41:58.630Z</time>
      </trkpt>
      <trkpt lat="48.82545" lon="2.40924">
        <ele>107.4</ele>
        <time>2015-06-08T20:41:59.652Z</time>
      </trkpt>
      <trkpt lat="48.82548" lon="2.40916">
        <ele>107.7</ele>
        <time>2015-06-08T20:42:00.666Z</time>
      </trkpt>
      <trkpt lat="48.82552" lon="2.40907">
        <ele>107.9</ele>
        <time>2015-06-08T20:42:01.672Z</time>
      </trkpt>
      <trkpt lat="48.82556" lon="2.409">
        <ele>107.3</ele>
        <time>2015-06-08T20:42:02.691Z</time>
      </trkpt>
      <trkpt lat="48.82561" lon="2.40892">
        <ele>107.4</ele>
        <time>2015-06-08T20:42:03.699Z</time>
      </trkpt>
      <trkpt lat="48.82565" lon="2.40884">
        <ele>107.2</ele>
        <time>2015-06-08T20:42:04.713Z</time>
      </trkpt>
      <trkpt lat="48.8257" lon="2.40877">
        <ele>107</ele>
        <time>2015-06-08T20:42:05.629Z</time>
      </trkpt>
      <trkpt lat="48.82574" lon="2.40869">
        <ele>107.2</ele>
        <time>2015-06-08T20:42:06.628Z</time>
      </trkpt>
      <trkpt lat="48.82579" lon="2.40862">
        <ele>107.1</ele>
        <time>2015-06-08T20:42:07.640Z</time>
      </trkpt>
      <trkpt lat="48.82583" lon="2.40854">
        <ele>106.8</ele>
        <time>2015-06-08T20:42:08.674Z</time>
      </trkpt>
      <trkpt lat="48.82588" lon="2.40846">
        <ele>106.9</ele>
        <time>2015-06-08T20:42:09.678Z</time>
      </trkpt>
      <trkpt lat="48.82593" lon="2.40838">
        <ele>106.8</ele>
        <time>2015-06-08T20:42:10.693Z</time>
      </trkpt>
      <trkpt lat="48.82597" lon="2.4083">
        <ele>106.6</ele>
        <time>2015-06-08T20:42:11.697Z</time>
      </trkpt>
      <trkpt lat="48.82602" lon="2.40823">
        <ele>106.2</ele>
        <time>2015-06-08T20:42:12.708Z</time>
      </trkpt>
      <trkpt lat="48.82606" lon="2.40814">
        <ele>106.2</ele>
        <time>2015-06-08T20:42:13.630Z</time>
      </trkpt>
      <trkpt lat="48.8261" lon="2.40807">
        <ele>106.2</ele>
        <time>2015-06-08T20:42:14.646Z</time>
      </trkpt>
      <trkpt lat="48.82614" lon="2.408">
        <ele>106.6</ele>
        <time>2015-06-08T20:42:15.657Z</time>
      </trkpt>
      <trkpt lat="48.82619" lon="2.40793">
        <ele>106.8</ele>
        <time>2015-06-08T20:42:16.657Z</time>
      </trkpt>
      <trkpt lat="48.82623" lon="2.40786">
        <ele>107</ele>
        <time>2015-06-08T20:42:17.660Z</time>
      </trkpt>
      <trkpt lat="48.82627" lon="2.40779">
        <ele>107.4</ele>
        <time>2015-06-08T20:42:18.689Z</time>
      </trkpt>
      <trkpt lat="48.82632" lon="2.40773">
        <ele>107.8</ele>
        <time>2015-06-08T20:42:19.701Z</time>
      </trkpt>
      <trkpt lat="48.82636" lon="2.40766">
        <ele>107.8</ele>
        <time>2015-06-08T20:42:20.705Z</time>
      </trkpt>
      <trkpt lat="48.82641" lon="2.40759">
        <ele>107.8</ele>
        <time>2015-06-08T20:42:21.708Z</time>
      </trkpt>
      <trkpt lat="48.82645" lon="2.40751">
        <ele>108.3</ele>
        <time>2015-06-08T20:42:22.632Z</time>
      </trkpt>
      <trkpt lat="48.8265" lon="2.40744">
        <ele>108.8</ele>
        <time>2015-06-08T20:42:23.639Z</time>
      </trkpt>
      <trkpt lat="48.82655" lon="2.40737">
        <ele>109.1</ele>
        <time>2015-06-08T20:42:24.643Z</time>
      </trkpt>
      <trkpt lat="48.8266" lon="2.4073">
        <ele>109</ele>
        <time>2015-06-08T20:42:25.647Z</time>
      </trkpt>
      <trkpt lat="48.82665" lon="2.40724">
        <ele>109.5</ele>
        <time>2015-06-08T20:42:26.750Z</time>
      </trkpt>
      <trkpt lat="48.8267" lon="2.40717">
        <ele>109.6</ele>
        <time>2015-06-08T20:42:27.687Z</time>
      </trkpt>
      <trkpt lat="48.82676" lon="2.4071">
        <ele>109.3</ele>
        <time>2015-06-08T20:42:28.723Z</time>
      </trkpt>
      <trkpt lat="48.82681" lon="2.40703">
        <ele>108.8</ele>
        <time>2015-06-08T20:42:29.628Z</time>
      </trkpt>
      <trkpt lat="48.82686" lon="2.40697">
        <ele>107.9</ele>
        <time>2015-06-08T20:42:30.654Z</time>
      </trkpt>
      <trkpt lat="48.82691" lon="2.40689">
        <ele>107.3</ele>
        <time>2015-06-08T20:42:31.659Z</time>
      </trkpt>
      <trkpt lat="48.82696" lon="2.40682">
        <ele>107</ele>
        <time>2015-06-08T20:42:32.712Z</time>
      </trkpt>
      <trkpt lat="48.827" lon="2.40676">
        <ele>107</ele>
        <time>2015-06-08T20:42:33.713Z</time>
      </trkpt>
      <trkpt lat="48.82705" lon="2.40669">
        <ele>107.1</ele>
        <time>2015-06-08T20:42:34.629Z</time>
      </trkpt>
      <trkpt lat="48.8271" lon="2.40663">
        <ele>106.9</ele>
        <time>2015-06-08T20:42:35.631Z</time>
      </trkpt>
      <trkpt lat="48.82715" lon="2.40658">
        <ele>107</ele>
        <time>2015-06-08T20:42:36.636Z</time>
      </trkpt>
      <trkpt lat="48.82721" lon="2.40652">
        <ele>106.8</ele>
        <time>2015-06-08T20:42:37.655Z</time>
      </trkpt>
      <trkpt lat="48.82726" lon="2.40646">
        <ele>106.9</ele>
        <time>2015-06-08T20:42:38.677Z</time>
      </trkpt>
      <trkpt lat="48.82731" lon="2.40641">
        <ele>106.5</ele>
        <time>2015-06-08T20:42:39.678Z</time>
      </trkpt>
      <trkpt lat="48.82736" lon="2.40635">
        <ele>106.1</ele>
        <time>2015-06-08T20:42:40.687Z</time>
      </trkpt>
      <trkpt lat="48.82741" lon="2.40629">
        <ele>106</ele>
        <time>2015-06-08T20:42:41.689Z</time>
      </trkpt>
      <trkpt lat="48.82746" lon="2.40623">
        <ele>105.5</ele>
        <time>2015-06-08T20:42:42.704Z</time>
      </trkpt>
      <trkpt lat="48.82751" lon="2.40617">
        <ele>105.3</ele>
        <time>2015-06-08T20:42:43.629Z</time>
      </trkpt>
      <trkpt lat="48.82756" lon="2.40611">
        <ele>105.4</ele>
        <time>2015-06-08T20:42:44.645Z</time>
      </trkpt>
      <trkpt lat="48.8276" lon="2.40606">
        <ele>105.1</ele>
        <time>2015-06-08T20:42:45.658Z</time>
      </trkpt>
      <trkpt lat="48.82765" lon="2.406">
        <ele>104.9</ele>
        <time>2015-06-08T20:42:46.674Z</time>
      </trkpt>
      <trkpt lat="48.8277" lon="2.40595">
        <ele>104.6</ele>
        <time>2015-06-08T20:42:47.684Z</time>
      </trkpt>
      <trkpt lat="48.82775" lon="2.40588">
        <ele>104.6</ele>
        <time>2015-06-08T20:42:48.694Z</time>
      </trkpt>
      <trkpt lat="48.8278" lon="2.40582">
        <ele>104.6</ele>
        <time>2015-06-08T20:42:49.709Z</time>
      </trkpt>
      <trkpt lat="48.82785" lon="2.40576">
        <ele>104.7</ele>
        <time>2015-06-08T20:42:50.721Z</time>
      </trkpt>
      <trkpt lat="48.8279" lon="2.40569">
        <ele>104.7</ele>
        <time>2015-06-08T20:42:51.625Z</time>
      </trkpt>
      <trkpt lat="48.82795" lon="2.40562">
        <ele>104.5</ele>
        <time>2015-06-08T20:42:52.632Z</time>
      </trkpt>
      <trkpt lat="48.82799" lon="2.40556">
        <ele>104.8</ele>
        <time>2015-06-08T20:42:53.638Z</time>
      </trkpt>
      <trkpt lat="48.82804" lon="2.40549">
        <ele>104.4</ele>
        <time>2015-06-08T20:42:54.645Z</time>
      </trkpt>
      <trkpt lat="48.82808" lon="2.40542">
        <ele>104.4</ele>
        <time>2015-06-08T20:42:55.654Z</time>
      </trkpt>
      <trkpt lat="48.82813" lon="2.40536">
        <ele>104.6</ele>
        <time>2015-06-08T20:42:56.675Z</time>
      </trkpt>
      <trkpt lat="48.82817" lon="2.40529">
        <ele>104.8</ele>
        <time>2015-06-08T20:42:57.676Z</time>
      </trkpt>
      <trkpt lat="48.82821" lon="2.40522">
        <ele>105.2</ele>
        <time>2015-06-08T20:42:58.694Z</time>
      </trkpt>
      <trkpt lat="48.82825" lon="2.40515">
        <ele>105.6</ele>
        <time>2015-06-08T20:42:59.627Z</time>
      </trkpt>
      <trkpt lat="48.8283" lon="2.40508">
        <ele>105.9</ele>
        <time>2015-06-08T20:43:00.645Z</time>
      </trkpt>
      <trkpt lat="48.82836" lon="2.40501">
        <ele>106.1</ele>
        <time>2015-06-08T20:43:01.653Z</time>
      </trkpt>
      <trkpt lat="48.82841" lon="2.40495">
        <ele>106.2</ele>
        <time>2015-06-08T20:43:02.694Z</time>
      </trkpt>
      <trkpt lat="48.82846" lon="2.40488">
        <ele>106.8</ele>
        <time>2015-06-08T20:43:03.697Z</time>
      </trkpt>
      <trkpt lat="48.8285" lon="2.40481">
        <ele>107.4</ele>
        <time>2015-06-08T20:43:04.710Z</time>
      </trkpt>
      <trkpt lat="48.82853" lon="2.40474">
        <ele>107.7</ele>
        <time>2015-06-08T20:43:05.648Z</time>
      </trkpt>
      <trkpt lat="48.82857" lon="2.40468">
        <ele>107.5</ele>
        <time>2015-06-08T20:43:06.635Z</time>
      </trkpt>
      <trkpt lat="48.8286" lon="2.40462">
        <ele>107.4</ele>
        <time>2015-06-08T20:43:07.632Z</time>
      </trkpt>
      <trkpt lat="48.82863" lon="2.40456">
        <ele>107.5</ele>
        <time>2015-06-08T20:43:08.676Z</time>
      </trkpt>
      <trkpt lat="48.82866" lon="2.4045">
        <ele>107.6</ele>
        <time>2015-06-08T20:43:09.672Z</time>
      </trkpt>
      <trkpt lat="48.82868" lon="2.40444">
        <ele>107.5</ele>
        <time>2015-06-08T20:43:10.684Z</time>
      </trkpt>
      <trkpt lat="48.8287" lon="2.40438">
        <ele>107.5</ele>
        <time>2015-06-08T20:43:11.688Z</time>
      </trkpt>
      <trkpt lat="48.82873" lon="2.40431">
        <ele>107.5</ele>
        <time>2015-06-08T20:43:12.704Z</time>
      </trkpt>
      <trkpt lat="48.82877" lon="2.40425">
        <ele>107.6</ele>
        <time>2015-06-08T20:43:13.627Z</time>
      </trkpt>
      <trkpt lat="48.82881" lon="2.40419">
        <ele>107.9</ele>
        <time>2015-06-08T20:43:14.678Z</time>
      </trkpt>
      <trkpt lat="48.82884" lon="2.40414">
        <ele>107.7</ele>
        <time>2015-06-08T20:43:15.684Z</time>
      </trkpt>
      <trkpt lat="48.82888" lon="2.40408">
        <ele>107.7</ele>
        <time>2015-06-08T20:43:16.694Z</time>
      </trkpt>
      <trkpt lat="48.82892" lon="2.40402">
        <ele>107.3</ele>
        <time>2015-06-08T20:43:17.738Z</time>
      </trkpt>
      <trkpt lat="48.82896" lon="2.40398">
        <ele>106.7</ele>
        <time>2015-06-08T20:43:18.628Z</time>
      </trkpt>
      <trkpt lat="48.82901" lon="2.40393">
        <ele>106.2</ele>
        <time>2015-06-08T20:43:19.626Z</time>
      </trkpt>
      <trkpt lat="48.82904" lon="2.40389">
        <ele>105.8</ele>
        <time>2015-06-08T20:43:20.671Z</time>
      </trkpt>
      <trkpt lat="48.82908" lon="2.40384">
        <ele>105.7</ele>
        <time>2015-06-08T20:43:21.659Z</time>
      </trkpt>
      <trkpt lat="48.82915" lon="2.40377">
        <ele>105</ele>
        <time>2015-06-08T20:43:23.677Z</time>
      </trkpt>
      <trkpt lat="48.82918" lon="2.40372">
        <ele>104.9</ele>
        <time>2015-06-08T20:43:24.683Z</time>
      </trkpt>
      <trkpt lat="48.82924" lon="2.40364">
        <ele>104.7</ele>
        <time>2015-06-08T20:43:26.687Z</time>
      </trkpt>
      <trkpt lat="48.82926" lon="2.4036">
        <ele>104.5</ele>
        <time>2015-06-08T20:43:27.713Z</time>
      </trkpt>
      <trkpt lat="48.82929" lon="2.4035">
        <ele>104.1</ele>
        <time>2015-06-08T20:43:29.662Z</time>
      </trkpt>
      <trkpt lat="48.82929" lon="2.40346">
        <ele>104</ele>
        <time>2015-06-08T20:43:30.683Z</time>
      </trkpt>
      <trkpt lat="48.8293" lon="2.40334">
        <ele>103.8</ele>
        <time>2015-06-08T20:43:32.697Z</time>
      </trkpt>
      <trkpt lat="48.82931" lon="2.40329">
        <ele>103.7</ele>
        <time>2015-06-08T20:43:33.643Z</time>
      </trkpt>
      <trkpt lat="48.82931" lon="2.40318">
        <ele>103.4</ele>
        <time>2015-06-08T20:43:35.671Z</time>
      </trkpt>
      <trkpt lat="48.82932" lon="2.40314">
        <ele>103.4</ele>
        <time>2015-06-08T20:43:36.613Z</time>
      </trkpt>
      <trkpt lat="48.82935" lon="2.40304">
        <ele>103.1</ele>
        <time>2015-06-08T20:43:38.726Z</time>
      </trkpt>
      <trkpt lat="48.82937" lon="2.40299">
        <ele>102.8</ele>
        <time>2015-06-08T20:43:39.735Z</time>
      </trkpt>
      <trkpt lat="48.82941" lon="2.4029">
        <ele>102.5</ele>
        <time>2015-06-08T20:43:41.701Z</time>
      </trkpt>
      <trkpt lat="48.82943" lon="2.40285">
        <ele>102.4</ele>
        <time>2015-06-08T20:43:42.709Z</time>
      </trkpt>
      <trkpt lat="48.82947" lon="2.40274">
        <ele>102.5</ele>
        <time>2015-06-08T20:43:44.702Z</time>
      </trkpt>
      <trkpt lat="48.82949" lon="2.40269">
        <ele>102.9</ele>
        <time>2015-06-08T20:43:45.722Z</time>
      </trkpt>
      <trkpt lat="48.82954" lon="2.40259">
        <ele>102.6</ele>
        <time>2015-06-08T20:43:48.217Z</time>
      </trkpt>
      <trkpt lat="48.82956" lon="2.40253">
        <ele>102.8</ele>
        <time>2015-06-08T20:43:48.681Z</time>
      </trkpt>
      <trkpt lat="48.82956" lon="2.40246">
        <ele>103</ele>
        <time>2015-06-08T20:43:49.679Z</time>
      </trkpt>
      <trkpt lat="48.82957" lon="2.40239">
        <ele>102.9</ele>
        <time>2015-06-08T20:43:50.700Z</time>
      </trkpt>
      <trkpt lat="48.82959" lon="2.40232">
        <ele>103.1</ele>
        <time>2015-06-08T20:43:51.555Z</time>
      </trkpt>
      <trkpt lat="48.8296" lon="2.40225">
        <ele>103.4</ele>
        <time>2015-06-08T20:43:52.717Z</time>
      </trkpt>
      <trkpt lat="48.82962" lon="2.40218">
        <ele>103.5</ele>
        <time>2015-06-08T20:43:53.662Z</time>
      </trkpt>
      <trkpt lat="48.82963" lon="2.40211">
        <ele>103.5</ele>
        <time>2015-06-08T20:43:54.636Z</time>
      </trkpt>
      <trkpt lat="48.82964" lon="2.40204">
        <ele>103.6</ele>
        <time>2015-06-08T20:43:55.646Z</time>
      </trkpt>
      <trkpt lat="48.82965" lon="2.40197">
        <ele>103.6</ele>
        <time>2015-06-08T20:43:56.715Z</time>
      </trkpt>
      <trkpt lat="48.82967" lon="2.40189">
        <ele>103.7</ele>
        <time>2015-06-08T20:43:57.712Z</time>
      </trkpt>
      <trkpt lat="48.82969" lon="2.40182">
        <ele>103.4</ele>
        <time>2015-06-08T20:43:58.719Z</time>
      </trkpt>
      <trkpt lat="48.82972" lon="2.40175">
        <ele>103.3</ele>
        <time>2015-06-08T20:43:59.608Z</time>
      </trkpt>
      <trkpt lat="48.82974" lon="2.40169">
        <ele>103.3</ele>
        <time>2015-06-08T20:44:00.638Z</time>
      </trkpt>
      <trkpt lat="48.82975" lon="2.40156">
        <ele>103.7</ele>
        <time>2015-06-08T20:44:02.729Z</time>
      </trkpt>
      <trkpt lat="48.82976" lon="2.40149">
        <ele>103.9</ele>
        <time>2015-06-08T20:44:03.634Z</time>
      </trkpt>
      <trkpt lat="48.82979" lon="2.40138">
        <ele>103.8</ele>
        <time>2015-06-08T20:44:05.653Z</time>
      </trkpt>
      <trkpt lat="48.82981" lon="2.40134">
        <ele>103.5</ele>
        <time>2015-06-08T20:44:06.658Z</time>
      </trkpt>
      <trkpt lat="48.82982" lon="2.40124">
        <ele>103.2</ele>
        <time>2015-06-08T20:44:08.684Z</time>
      </trkpt>
      <trkpt lat="48.82982" lon="2.40118">
        <ele>103.1</ele>
        <time>2015-06-08T20:44:09.684Z</time>
      </trkpt>
      <trkpt lat="48.8298" lon="2.40105">
        <ele>103.3</ele>
        <time>2015-06-08T20:44:14.722Z</time>
      </trkpt>
      <trkpt lat="48.8298" lon="2.40103">
        <ele>103.6</ele>
        <time>2015-06-08T20:44:15.644Z</time>
      </trkpt>
      <trkpt lat="48.82979" lon="2.40092">
        <ele>103.5</ele>
        <time>2015-06-08T20:46:26.732Z</time>
      </trkpt>
      <trkpt lat="48.82981" lon="2.40088">
        <ele>103.5</ele>
        <time>2015-06-08T20:46:27.643Z</time>
      </trkpt>
      <trkpt lat="48.82984" lon="2.40081">
        <ele>103.1</ele>
        <time>2015-06-08T20:46:29.675Z</time>
      </trkpt>
      <trkpt lat="48.82986" lon="2.40077">
        <ele>103</ele>
        <time>2015-06-08T20:46:30.717Z</time>
      </trkpt>
      <trkpt lat="48.8299" lon="2.40069">
        <ele>103.1</ele>
        <time>2015-06-08T20:46:32.692Z</time>
      </trkpt>
      <trkpt lat="48.82991" lon="2.40065">
        <ele>103.2</ele>
        <time>2015-06-08T20:46:33.686Z</time>
      </trkpt>
      <trkpt lat="48.82996" lon="2.40057">
        <ele>102.5</ele>
        <time>2015-06-08T20:46:35.636Z</time>
      </trkpt>
      <trkpt lat="48.82999" lon="2.40053">
        <ele>102.6</ele>
        <time>2015-06-08T20:46:36.664Z</time>
      </trkpt>
      <trkpt lat="48.83003" lon="2.40046">
        <ele>102.4</ele>
        <time>2015-06-08T20:46:38.735Z</time>
      </trkpt>
      <trkpt lat="48.83005" lon="2.40042">
        <ele>102.1</ele>
        <time>2015-06-08T20:46:39.665Z</time>
      </trkpt>
      <trkpt lat="48.83011" lon="2.40034">
        <ele>102</ele>
        <time>2015-06-08T20:46:41.687Z</time>
      </trkpt>
      <trkpt lat="48.83013" lon="2.4003">
        <ele>102.1</ele>
        <time>2015-06-08T20:46:42.681Z</time>
      </trkpt>
      <trkpt lat="48.83018" lon="2.40022">
        <ele>101.9</ele>
        <time>2015-06-08T20:46:44.683Z</time>
      </trkpt>
      <trkpt lat="48.83021" lon="2.40017">
        <ele>101.7</ele>
        <time>2015-06-08T20:46:45.704Z</time>
      </trkpt>
      <trkpt lat="48.83026" lon="2.40009">
        <ele>101.8</ele>
        <time>2015-06-08T20:46:47.716Z</time>
      </trkpt>
      <trkpt lat="48.83029" lon="2.40004">
        <ele>102.1</ele>
        <time>2015-06-08T20:46:48.729Z</time>
      </trkpt>
      <trkpt lat="48.83034" lon="2.39996">
        <ele>102.5</ele>
        <time>2015-06-08T20:46:50.673Z</time>
      </trkpt>
      <trkpt lat="48.83037" lon="2.39991">
        <ele>102.8</ele>
        <time>2015-06-08T20:46:51.678Z</time>
      </trkpt>
      <trkpt lat="48.83044" lon="2.39983">
        <ele>103.1</ele>
        <time>2015-06-08T20:46:53.700Z</time>
      </trkpt>
      <trkpt lat="48.83048" lon="2.39979">
        <ele>102.6</ele>
        <time>2015-06-08T20:46:54.628Z</time>
      </trkpt>
      <trkpt lat="48.83052" lon="2.39975">
        <ele>102.4</ele>
        <time>2015-06-08T20:46:55.645Z</time>
      </trkpt>
      <trkpt lat="48.83056" lon="2.39971">
        <ele>102.4</ele>
        <time>2015-06-08T20:46:56.694Z</time>
      </trkpt>
      <trkpt lat="48.8306" lon="2.39966">
        <ele>102.5</ele>
        <time>2015-06-08T20:46:57.715Z</time>
      </trkpt>
      <trkpt lat="48.83063" lon="2.39961">
        <ele>102.6</ele>
        <time>2015-06-08T20:46:58.647Z</time>
      </trkpt>
      <trkpt lat="48.83069" lon="2.39952">
        <ele>102</ele>
        <time>2015-06-08T20:46:59.738Z</time>
      </trkpt>
      <trkpt lat="48.83072" lon="2.39948">
        <ele>101.7</ele>
        <time>2015-06-08T20:47:01.679Z</time>
      </trkpt>
      <trkpt lat="48.83079" lon="2.39939">
        <ele>101.9</ele>
        <time>2015-06-08T20:47:03.641Z</time>
      </trkpt>
      <trkpt lat="48.83082" lon="2.39934">
        <ele>101.8</ele>
        <time>2015-06-08T20:47:04.654Z</time>
      </trkpt>
      <trkpt lat="48.83085" lon="2.39928">
        <ele>101.9</ele>
        <time>2015-06-08T20:47:05.713Z</time>
      </trkpt>
      <trkpt lat="48.83089" lon="2.39922">
        <ele>101.7</ele>
        <time>2015-06-08T20:47:06.643Z</time>
      </trkpt>
      <trkpt lat="48.83092" lon="2.39917">
        <ele>101.6</ele>
        <time>2015-06-08T20:47:07.624Z</time>
      </trkpt>
      <trkpt lat="48.83096" lon="2.39913">
        <ele>101.4</ele>
        <time>2015-06-08T20:47:08.708Z</time>
      </trkpt>
      <trkpt lat="48.831" lon="2.39908">
        <ele>101.2</ele>
        <time>2015-06-08T20:47:09.823Z</time>
      </trkpt>
      <trkpt lat="48.83103" lon="2.39903">
        <ele>101.1</ele>
        <time>2015-06-08T20:47:10.629Z</time>
      </trkpt>
      <trkpt lat="48.83106" lon="2.39898">
        <ele>100.8</ele>
        <time>2015-06-08T20:47:11.637Z</time>
      </trkpt>
      <trkpt lat="48.8311" lon="2.39893">
        <ele>100.9</ele>
        <time>2015-06-08T20:47:12.652Z</time>
      </trkpt>
      <trkpt lat="48.83114" lon="2.39888">
        <ele>101.3</ele>
        <time>2015-06-08T20:47:13.674Z</time>
      </trkpt>
      <trkpt lat="48.83117" lon="2.39883">
        <ele>101.2</ele>
        <time>2015-06-08T20:47:14.727Z</time>
      </trkpt>
      <trkpt lat="48.8312" lon="2.39877">
        <ele>101.2</ele>
        <time>2015-06-08T20:47:15.619Z</time>
      </trkpt>
      <trkpt lat="48.83123" lon="2.39872">
        <ele>101</ele>
        <time>2015-06-08T20:47:16.641Z</time>
      </trkpt>
      <trkpt lat="48.83127" lon="2.39867">
        <ele>101</ele>
        <time>2015-06-08T20:47:17.666Z</time>
      </trkpt>
      <trkpt lat="48.8313" lon="2.39862">
        <ele>100.9</ele>
        <time>2015-06-08T20:47:18.681Z</time>
      </trkpt>
      <trkpt lat="48.83134" lon="2.39857">
        <ele>100.7</ele>
        <time>2015-06-08T20:47:19.688Z</time>
      </trkpt>
      <trkpt lat="48.83137" lon="2.39851">
        <ele>100.9</ele>
        <time>2015-06-08T20:47:20.730Z</time>
      </trkpt>
      <trkpt lat="48.83141" lon="2.39846">
        <ele>100.7</ele>
        <time>2015-06-08T20:47:21.644Z</time>
      </trkpt>
      <trkpt lat="48.83144" lon="2.3984">
        <ele>100.2</ele>
        <time>2015-06-08T20:47:22.643Z</time>
      </trkpt>
      <trkpt lat="48.83147" lon="2.39835">
        <ele>99.6</ele>
        <time>2015-06-08T20:47:23.656Z</time>
      </trkpt>
      <trkpt lat="48.83151" lon="2.39831">
        <ele>99.6</ele>
        <time>2015-06-08T20:47:24.671Z</time>
      </trkpt>
      <trkpt lat="48.83157" lon="2.39823">
        <ele>99.3</ele>
        <time>2015-06-08T20:47:26.699Z</time>
      </trkpt>
      <trkpt lat="48.83159" lon="2.39819">
        <ele>99.2</ele>
        <time>2015-06-08T20:47:27.703Z</time>
      </trkpt>
      <trkpt lat="48.83164" lon="2.39811">
        <ele>99.6</ele>
        <time>2015-06-08T20:47:29.648Z</time>
      </trkpt>
      <trkpt lat="48.83166" lon="2.39808">
        <ele>99.4</ele>
        <time>2015-06-08T20:47:30.695Z</time>
      </trkpt>
      <trkpt lat="48.83173" lon="2.39799">
        <ele>99.8</ele>
        <time>2015-06-08T20:47:46.623Z</time>
      </trkpt>
      <trkpt lat="48.83184" lon="2.39784">
        <ele>101.7</ele>
        <time>2015-06-08T20:47:47.652Z</time>
      </trkpt>
      <trkpt lat="48.83189" lon="2.39773">
        <ele>101.3</ele>
        <time>2015-06-08T20:47:51.627Z</time>
      </trkpt>
      <trkpt lat="48.83191" lon="2.3977">
        <ele>101.2</ele>
        <time>2015-06-08T20:47:52.646Z</time>
      </trkpt>
      <trkpt lat="48.83195" lon="2.39763">
        <ele>101.3</ele>
        <time>2015-06-08T20:47:54.691Z</time>
      </trkpt>
      <trkpt lat="48.83197" lon="2.39759">
        <ele>101.5</ele>
        <time>2015-06-08T20:47:55.709Z</time>
      </trkpt>
      <trkpt lat="48.83201" lon="2.39752">
        <ele>101.7</ele>
        <time>2015-06-08T20:47:57.655Z</time>
      </trkpt>
      <trkpt lat="48.83203" lon="2.39749">
        <ele>101.7</ele>
        <time>2015-06-08T20:47:58.678Z</time>
      </trkpt>
      <trkpt lat="48.83208" lon="2.39739">
        <ele>101.5</ele>
        <time>2015-06-08T20:48:01.664Z</time>
      </trkpt>
      <trkpt lat="48.83209" lon="2.39736">
        <ele>101.5</ele>
        <time>2015-06-08T20:48:02.721Z</time>
      </trkpt>
      <trkpt lat="48.83213" lon="2.39728">
        <ele>101.7</ele>
        <time>2015-06-08T20:48:04.650Z</time>
      </trkpt>
      <trkpt lat="48.83215" lon="2.39725">
        <ele>101.8</ele>
        <time>2015-06-08T20:48:05.675Z</time>
      </trkpt>
      <trkpt lat="48.83218" lon="2.39716">
        <ele>102</ele>
        <time>2015-06-08T20:48:07.714Z</time>
      </trkpt>
      <trkpt lat="48.83221" lon="2.39713">
        <ele>102.2</ele>
        <time>2015-06-08T20:48:08.752Z</time>
      </trkpt>
      <trkpt lat="48.83226" lon="2.39705">
        <ele>102.4</ele>
        <time>2015-06-08T20:48:10.694Z</time>
      </trkpt>
      <trkpt lat="48.83228" lon="2.397">
        <ele>102.4</ele>
        <time>2015-06-08T20:48:11.665Z</time>
      </trkpt>
      <trkpt lat="48.83234" lon="2.39692">
        <ele>102.3</ele>
        <time>2015-06-08T20:48:13.669Z</time>
      </trkpt>
      <trkpt lat="48.83237" lon="2.39688">
        <ele>102.1</ele>
        <time>2015-06-08T20:48:14.695Z</time>
      </trkpt>
      <trkpt lat="48.83243" lon="2.3968">
        <ele>101.7</ele>
        <time>2015-06-08T20:48:16.717Z</time>
      </trkpt>
      <trkpt lat="48.83247" lon="2.39675">
        <ele>101.5</ele>
        <time>2015-06-08T20:48:17.729Z</time>
      </trkpt>
      <trkpt lat="48.8325" lon="2.3967">
        <ele>101.2</ele>
        <time>2015-06-08T20:48:18.672Z</time>
      </trkpt>
      <trkpt lat="48.83253" lon="2.39665">
        <ele>100.7</ele>
        <time>2015-06-08T20:48:19.688Z</time>
      </trkpt>
      <trkpt lat="48.83259" lon="2.39656">
        <ele>100.6</ele>
        <time>2015-06-08T20:48:21.729Z</time>
      </trkpt>
      <trkpt lat="48.83262" lon="2.39651">
        <ele>100.3</ele>
        <time>2015-06-08T20:48:22.741Z</time>
      </trkpt>
      <trkpt lat="48.83267" lon="2.39642">
        <ele>100.3</ele>
        <time>2015-06-08T20:48:24.638Z</time>
      </trkpt>
      <trkpt lat="48.8327" lon="2.39637">
        <ele>100</ele>
        <time>2015-06-08T20:48:25.657Z</time>
      </trkpt>
      <trkpt lat="48.83274" lon="2.39632">
        <ele>100.1</ele>
        <time>2015-06-08T20:48:26.694Z</time>
      </trkpt>
      <trkpt lat="48.83278" lon="2.39628">
        <ele>100.1</ele>
        <time>2015-06-08T20:48:27.709Z</time>
      </trkpt>
      <trkpt lat="48.83282" lon="2.39623">
        <ele>100.3</ele>
        <time>2015-06-08T20:48:28.710Z</time>
      </trkpt>
      <trkpt lat="48.83286" lon="2.39618">
        <ele>100.2</ele>
        <time>2015-06-08T20:48:29.726Z</time>
      </trkpt>
      <trkpt lat="48.8329" lon="2.39613">
        <ele>100.2</ele>
        <time>2015-06-08T20:48:30.735Z</time>
      </trkpt>
      <trkpt lat="48.83293" lon="2.39607">
        <ele>100.1</ele>
        <time>2015-06-08T20:48:31.676Z</time>
      </trkpt>
      <trkpt lat="48.83297" lon="2.39602">
        <ele>100</ele>
        <time>2015-06-08T20:48:28.541Z</time>
      </trkpt>
      <trkpt lat="48.833" lon="2.39597">
        <ele>100</ele>
        <time>2015-06-08T20:48:33.665Z</time>
      </trkpt>
      <trkpt lat="48.83306" lon="2.39587">
        <ele>99.9</ele>
        <time>2015-06-08T20:48:35.686Z</time>
      </trkpt>
      <trkpt lat="48.83308" lon="2.39582">
        <ele>99.8</ele>
        <time>2015-06-08T20:48:36.656Z</time>
      </trkpt>
      <trkpt lat="48.83314" lon="2.39572">
        <ele>99.5</ele>
        <time>2015-06-08T20:48:38.772Z</time>
      </trkpt>
      <trkpt lat="48.83316" lon="2.39567">
        <ele>99.3</ele>
        <time>2015-06-08T20:48:39.653Z</time>
      </trkpt>
      <trkpt lat="48.8332" lon="2.39563">
        <ele>99.5</ele>
        <time>2015-06-08T20:48:40.657Z</time>
      </trkpt>
      <trkpt lat="48.83323" lon="2.39558">
        <ele>99.3</ele>
        <time>2015-06-08T20:48:41.678Z</time>
      </trkpt>
      <trkpt lat="48.83326" lon="2.39553">
        <ele>99</ele>
        <time>2015-06-08T20:48:42.641Z</time>
      </trkpt>
      <trkpt lat="48.83329" lon="2.39547">
        <ele>98.9</ele>
        <time>2015-06-08T20:48:43.646Z</time>
      </trkpt>
      <trkpt lat="48.83332" lon="2.39541">
        <ele>98.8</ele>
        <time>2015-06-08T20:48:44.698Z</time>
      </trkpt>
      <trkpt lat="48.83335" lon="2.39536">
        <ele>99</ele>
        <time>2015-06-08T20:48:45.692Z</time>
      </trkpt>
      <trkpt lat="48.83337" lon="2.39529">
        <ele>99.2</ele>
        <time>2015-06-08T20:48:46.697Z</time>
      </trkpt>
      <trkpt lat="48.8334" lon="2.39523">
        <ele>99.5</ele>
        <time>2015-06-08T20:48:47.700Z</time>
      </trkpt>
      <trkpt lat="48.83343" lon="2.39517">
        <ele>99.7</ele>
        <time>2015-06-08T20:48:48.714Z</time>
      </trkpt>
      <trkpt lat="48.83347" lon="2.39511">
        <ele>99.8</ele>
        <time>2015-06-08T20:48:49.726Z</time>
      </trkpt>
      <trkpt lat="48.8335" lon="2.39506">
        <ele>99.6</ele>
        <time>2015-06-08T20:48:50.747Z</time>
      </trkpt>
      <trkpt lat="48.83355" lon="2.395">
        <ele>99.7</ele>
        <time>2015-06-08T20:48:51.659Z</time>
      </trkpt>
      <trkpt lat="48.83358" lon="2.39494">
        <ele>99.8</ele>
        <time>2015-06-08T20:48:52.657Z</time>
      </trkpt>
      <trkpt lat="48.83361" lon="2.39487">
        <ele>99.8</ele>
        <time>2015-06-08T20:48:53.664Z</time>
      </trkpt>
      <trkpt lat="48.83364" lon="2.39481">
        <ele>99.9</ele>
        <time>2015-06-08T20:48:54.686Z</time>
      </trkpt>
      <trkpt lat="48.83368" lon="2.39476">
        <ele>100.1</ele>
        <time>2015-06-08T20:48:55.690Z</time>
      </trkpt>
      <trkpt lat="48.83372" lon="2.39471">
        <ele>99.9</ele>
        <time>2015-06-08T20:48:56.719Z</time>
      </trkpt>
      <trkpt lat="48.83377" lon="2.39467">
        <ele>99.8</ele>
        <time>2015-06-08T20:48:57.724Z</time>
      </trkpt>
      <trkpt lat="48.83381" lon="2.39463">
        <ele>99.9</ele>
        <time>2015-06-08T20:48:58.642Z</time>
      </trkpt>
      <trkpt lat="48.83385" lon="2.39457">
        <ele>99.5</ele>
        <time>2015-06-08T20:48:59.640Z</time>
      </trkpt>
      <trkpt lat="48.83388" lon="2.39452">
        <ele>99.2</ele>
        <time>2015-06-08T20:49:00.652Z</time>
      </trkpt>
      <trkpt lat="48.83392" lon="2.39447">
        <ele>98.9</ele>
        <time>2015-06-08T20:49:01.656Z</time>
      </trkpt>
      <trkpt lat="48.83395" lon="2.39442">
        <ele>98.9</ele>
        <time>2015-06-08T20:49:02.726Z</time>
      </trkpt>
      <trkpt lat="48.83398" lon="2.39437">
        <ele>98.7</ele>
        <time>2015-06-08T20:49:03.632Z</time>
      </trkpt>
      <trkpt lat="48.83405" lon="2.39427">
        <ele>98.4</ele>
        <time>2015-06-08T20:49:05.646Z</time>
      </trkpt>
      <trkpt lat="48.83409" lon="2.39424">
        <ele>98.7</ele>
        <time>2015-06-08T20:49:06.657Z</time>
      </trkpt>
      <trkpt lat="48.83415" lon="2.39416">
        <ele>98.7</ele>
        <time>2015-06-08T20:49:08.727Z</time>
      </trkpt>
      <trkpt lat="48.83418" lon="2.39413">
        <ele>99.1</ele>
        <time>2015-06-08T20:49:09.668Z</time>
      </trkpt>
      <trkpt lat="48.83425" lon="2.39407">
        <ele>99</ele>
        <time>2015-06-08T20:49:11.635Z</time>
      </trkpt>
      <trkpt lat="48.83428" lon="2.39403">
        <ele>99.1</ele>
        <time>2015-06-08T20:49:12.693Z</time>
      </trkpt>
      <trkpt lat="48.83434" lon="2.39398">
        <ele>98.5</ele>
        <time>2015-06-08T20:49:14.711Z</time>
      </trkpt>
      <trkpt lat="48.83436" lon="2.39394">
        <ele>98.1</ele>
        <time>2015-06-08T20:49:15.610Z</time>
      </trkpt>
      <trkpt lat="48.83443" lon="2.39386">
        <ele>98.3</ele>
        <time>2015-06-08T20:49:17.663Z</time>
      </trkpt>
      <trkpt lat="48.83446" lon="2.3938">
        <ele>98.4</ele>
        <time>2015-06-08T20:49:18.672Z</time>
      </trkpt>
      <trkpt lat="48.83449" lon="2.39376">
        <ele>98.7</ele>
        <time>2015-06-08T20:49:19.718Z</time>
      </trkpt>
      <trkpt lat="48.83452" lon="2.3937">
        <ele>99.3</ele>
        <time>2015-06-08T20:49:20.730Z</time>
      </trkpt>
      <trkpt lat="48.83455" lon="2.39364">
        <ele>99.8</ele>
        <time>2015-06-08T20:49:21.631Z</time>
      </trkpt>
      <trkpt lat="48.83459" lon="2.39359">
        <ele>99.8</ele>
        <time>2015-06-08T20:49:22.625Z</time>
      </trkpt>
      <trkpt lat="48.83463" lon="2.39355">
        <ele>100.1</ele>
        <time>2015-06-08T20:49:23.641Z</time>
      </trkpt>
      <trkpt lat="48.83467" lon="2.3935">
        <ele>100.5</ele>
        <time>2015-06-08T20:49:24.654Z</time>
      </trkpt>
      <trkpt lat="48.8347" lon="2.39346">
        <ele>100.6</ele>
        <time>2015-06-08T20:49:25.683Z</time>
      </trkpt>
      <trkpt lat="48.83474" lon="2.39341">
        <ele>100.9</ele>
        <time>2015-06-08T20:49:26.689Z</time>
      </trkpt>
      <trkpt lat="48.83478" lon="2.39337">
        <ele>101.1</ele>
        <time>2015-06-08T20:49:27.696Z</time>
      </trkpt>
      <trkpt lat="48.83482" lon="2.39334">
        <ele>101.2</ele>
        <time>2015-06-08T20:49:28.708Z</time>
      </trkpt>
      <trkpt lat="48.83487" lon="2.39331">
        <ele>101.4</ele>
        <time>2015-06-08T20:49:29.632Z</time>
      </trkpt>
      <trkpt lat="48.83491" lon="2.39329">
        <ele>101.9</ele>
        <time>2015-06-08T20:49:30.627Z</time>
      </trkpt>
      <trkpt lat="48.83495" lon="2.39326">
        <ele>101.9</ele>
        <time>2015-06-08T20:49:31.632Z</time>
      </trkpt>
      <trkpt lat="48.83499" lon="2.39322">
        <ele>101.8</ele>
        <time>2015-06-08T20:49:32.684Z</time>
      </trkpt>
      <trkpt lat="48.83503" lon="2.39317">
        <ele>101.6</ele>
        <time>2015-06-08T20:49:33.681Z</time>
      </trkpt>
      <trkpt lat="48.83507" lon="2.39312">
        <ele>101.5</ele>
        <time>2015-06-08T20:49:34.695Z</time>
      </trkpt>
      <trkpt lat="48.83511" lon="2.39308">
        <ele>101.4</ele>
        <time>2015-06-08T20:49:35.623Z</time>
      </trkpt>
      <trkpt lat="48.83515" lon="2.39304">
        <ele>100.8</ele>
        <time>2015-06-08T20:49:36.626Z</time>
      </trkpt>
      <trkpt lat="48.83518" lon="2.39299">
        <ele>100.6</ele>
        <time>2015-06-08T20:49:37.627Z</time>
      </trkpt>
      <trkpt lat="48.83522" lon="2.39293">
        <ele>100.5</ele>
        <time>2015-06-08T20:49:38.672Z</time>
      </trkpt>
      <trkpt lat="48.83528" lon="2.39284">
        <ele>100.5</ele>
        <time>2015-06-08T20:49:40.687Z</time>
      </trkpt>
      <trkpt lat="48.83531" lon="2.39281">
        <ele>100.8</ele>
        <time>2015-06-08T20:49:41.661Z</time>
      </trkpt>
      <trkpt lat="48.83539" lon="2.39275">
        <ele>100.8</ele>
        <time>2015-06-08T20:49:43.629Z</time>
      </trkpt>
      <trkpt lat="48.83544" lon="2.39273">
        <ele>101.3</ele>
        <time>2015-06-08T20:49:44.696Z</time>
      </trkpt>
      <trkpt lat="48.8355" lon="2.3927">
        <ele>101.4</ele>
        <time>2015-06-08T20:49:45.626Z</time>
      </trkpt>
      <trkpt lat="48.83555" lon="2.39265">
        <ele>101.5</ele>
        <time>2015-06-08T20:49:46.626Z</time>
      </trkpt>
      <trkpt lat="48.83559" lon="2.39261">
        <ele>101.4</ele>
        <time>2015-06-08T20:49:47.648Z</time>
      </trkpt>
      <trkpt lat="48.83564" lon="2.39257">
        <ele>101.3</ele>
        <time>2015-06-08T20:49:48.662Z</time>
      </trkpt>
      <trkpt lat="48.83569" lon="2.39253">
        <ele>100.9</ele>
        <time>2015-06-08T20:49:49.632Z</time>
      </trkpt>
      <trkpt lat="48.83576" lon="2.39248">
        <ele>100.3</ele>
        <time>2015-06-08T20:49:50.667Z</time>
      </trkpt>
      <trkpt lat="48.8358" lon="2.39243">
        <ele>100.3</ele>
        <time>2015-06-08T20:49:51.663Z</time>
      </trkpt>
      <trkpt lat="48.83584" lon="2.39237">
        <ele>100.4</ele>
        <time>2015-06-08T20:49:52.673Z</time>
      </trkpt>
      <trkpt lat="48.83588" lon="2.39232">
        <ele>100.5</ele>
        <time>2015-06-08T20:49:53.695Z</time>
      </trkpt>
      <trkpt lat="48.83593" lon="2.39227">
        <ele>100.5</ele>
        <time>2015-06-08T20:49:54.619Z</time>
      </trkpt>
      <trkpt lat="48.83599" lon="2.39223">
        <ele>100</ele>
        <time>2015-06-08T20:49:55.623Z</time>
      </trkpt>
      <trkpt lat="48.83605" lon="2.39219">
        <ele>99.6</ele>
        <time>2015-06-08T20:49:56.680Z</time>
      </trkpt>
      <trkpt lat="48.83612" lon="2.39215">
        <ele>99.2</ele>
        <time>2015-06-08T20:49:57.692Z</time>
      </trkpt>
      <trkpt lat="48.83617" lon="2.3921">
        <ele>98.7</ele>
        <time>2015-06-08T20:49:58.597Z</time>
      </trkpt>
      <trkpt lat="48.83621" lon="2.39205">
        <ele>98.5</ele>
        <time>2015-06-08T20:49:59.621Z</time>
      </trkpt>
      <trkpt lat="48.83626" lon="2.39202">
        <ele>98.3</ele>
        <time>2015-06-08T20:50:00.595Z</time>
      </trkpt>
      <trkpt lat="48.83631" lon="2.39199">
        <ele>98.1</ele>
        <time>2015-06-08T20:50:01.661Z</time>
      </trkpt>
      <trkpt lat="48.83636" lon="2.39193">
        <ele>97.9</ele>
        <time>2015-06-08T20:50:02.670Z</time>
      </trkpt>
      <trkpt lat="48.83641" lon="2.39188">
        <ele>98</ele>
        <time>2015-06-08T20:50:03.695Z</time>
      </trkpt>
      <trkpt lat="48.83647" lon="2.39185">
        <ele>97.7</ele>
        <time>2015-06-08T20:50:04.619Z</time>
      </trkpt>
      <trkpt lat="48.83652" lon="2.39182">
        <ele>97.3</ele>
        <time>2015-06-08T20:50:05.624Z</time>
      </trkpt>
      <trkpt lat="48.83657" lon="2.39178">
        <ele>97</ele>
        <time>2015-06-08T20:50:06.630Z</time>
      </trkpt>
      <trkpt lat="48.83663" lon="2.39175">
        <ele>96.9</ele>
        <time>2015-06-08T20:50:07.648Z</time>
      </trkpt>
      <trkpt lat="48.8367" lon="2.39172">
        <ele>96.1</ele>
        <time>2015-06-08T20:50:08.652Z</time>
      </trkpt>
      <trkpt lat="48.83677" lon="2.39169">
        <ele>95.5</ele>
        <time>2015-06-08T20:50:09.665Z</time>
      </trkpt>
      <trkpt lat="48.83683" lon="2.39165">
        <ele>95.1</ele>
        <time>2015-06-08T20:50:10.677Z</time>
      </trkpt>
      <trkpt lat="48.8369" lon="2.39161">
        <ele>95</ele>
        <time>2015-06-08T20:50:11.637Z</time>
      </trkpt>
      <trkpt lat="48.83695" lon="2.39156">
        <ele>95.2</ele>
        <time>2015-06-08T20:50:12.634Z</time>
      </trkpt>
      <trkpt lat="48.83701" lon="2.39151">
        <ele>95.3</ele>
        <time>2015-06-08T20:50:13.752Z</time>
      </trkpt>
      <trkpt lat="48.83706" lon="2.39145">
        <ele>95.5</ele>
        <time>2015-06-08T20:50:14.681Z</time>
      </trkpt>
      <trkpt lat="48.83711" lon="2.39141">
        <ele>95.7</ele>
        <time>2015-06-08T20:50:15.666Z</time>
      </trkpt>
      <trkpt lat="48.83715" lon="2.39137">
        <ele>95.7</ele>
        <time>2015-06-08T20:50:16.674Z</time>
      </trkpt>
      <trkpt lat="48.83721" lon="2.39131">
        <ele>95.5</ele>
        <time>2015-06-08T20:50:18.692Z</time>
      </trkpt>
      <trkpt lat="48.83724" lon="2.39127">
        <ele>95.5</ele>
        <time>2015-06-08T20:50:19.726Z</time>
      </trkpt>
      <trkpt lat="48.8373" lon="2.39123">
        <ele>95.8</ele>
        <time>2015-06-08T20:50:21.642Z</time>
      </trkpt>
      <trkpt lat="48.83732" lon="2.39121">
        <ele>95.6</ele>
        <time>2015-06-08T20:50:22.665Z</time>
      </trkpt>
      <trkpt lat="48.83738" lon="2.39117">
        <ele>95.3</ele>
        <time>2015-06-08T20:50:24.646Z</time>
      </trkpt>
      <trkpt lat="48.8374" lon="2.39114">
        <ele>95.5</ele>
        <time>2015-06-08T20:50:25.656Z</time>
      </trkpt>
      <trkpt lat="48.83744" lon="2.39105">
        <ele>95.7</ele>
        <time>2015-06-08T20:50:27.692Z</time>
      </trkpt>
      <trkpt lat="48.83747" lon="2.39101">
        <ele>95.3</ele>
        <time>2015-06-08T20:50:28.703Z</time>
      </trkpt>
      <trkpt lat="48.83752" lon="2.39094">
        <ele>94.6</ele>
        <time>2015-06-08T20:50:30.637Z</time>
      </trkpt>
      <trkpt lat="48.83756" lon="2.39089">
        <ele>94.3</ele>
        <time>2015-06-08T20:50:31.654Z</time>
      </trkpt>
      <trkpt lat="48.83759" lon="2.39084">
        <ele>94.2</ele>
        <time>2015-06-08T20:50:32.724Z</time>
      </trkpt>
      <trkpt lat="48.83764" lon="2.39079">
        <ele>93.9</ele>
        <time>2015-06-08T20:50:33.617Z</time>
      </trkpt>
      <trkpt lat="48.83769" lon="2.39075">
        <ele>93.4</ele>
        <time>2015-06-08T20:50:34.615Z</time>
      </trkpt>
      <trkpt lat="48.83774" lon="2.39071">
        <ele>93.2</ele>
        <time>2015-06-08T20:50:35.622Z</time>
      </trkpt>
      <trkpt lat="48.83779" lon="2.39065">
        <ele>93.1</ele>
        <time>2015-06-08T20:50:36.628Z</time>
      </trkpt>
      <trkpt lat="48.83784" lon="2.39059">
        <ele>93</ele>
        <time>2015-06-08T20:50:37.631Z</time>
      </trkpt>
      <trkpt lat="48.83789" lon="2.39054">
        <ele>92.8</ele>
        <time>2015-06-08T20:50:38.663Z</time>
      </trkpt>
      <trkpt lat="48.83795" lon="2.39048">
        <ele>92.8</ele>
        <time>2015-06-08T20:50:39.675Z</time>
      </trkpt>
      <trkpt lat="48.838" lon="2.39042">
        <ele>92.7</ele>
        <time>2015-06-08T20:50:40.683Z</time>
      </trkpt>
      <trkpt lat="48.83804" lon="2.39036">
        <ele>92.6</ele>
        <time>2015-06-08T20:50:41.695Z</time>
      </trkpt>
      <trkpt lat="48.83809" lon="2.39031">
        <ele>92.2</ele>
        <time>2015-06-08T20:50:42.617Z</time>
      </trkpt>
      <trkpt lat="48.83814" lon="2.39024">
        <ele>92</ele>
        <time>2015-06-08T20:50:43.626Z</time>
      </trkpt>
      <trkpt lat="48.83819" lon="2.39017">
        <ele>91.8</ele>
        <time>2015-06-08T20:50:44.666Z</time>
      </trkpt>
      <trkpt lat="48.83824" lon="2.39012">
        <ele>91.7</ele>
        <time>2015-06-08T20:50:45.679Z</time>
      </trkpt>
      <trkpt lat="48.8383" lon="2.39007">
        <ele>91.7</ele>
        <time>2015-06-08T20:50:46.686Z</time>
      </trkpt>
      <trkpt lat="48.83835" lon="2.39002">
        <ele>91.4</ele>
        <time>2015-06-08T20:50:47.690Z</time>
      </trkpt>
      <trkpt lat="48.8384" lon="2.38995">
        <ele>91.3</ele>
        <time>2015-06-08T20:50:48.695Z</time>
      </trkpt>
      <trkpt lat="48.83845" lon="2.38988">
        <ele>91.4</ele>
        <time>2015-06-08T20:50:49.618Z</time>
      </trkpt>
      <trkpt lat="48.83849" lon="2.3898">
        <ele>91.4</ele>
        <time>2015-06-08T20:50:50.665Z</time>
      </trkpt>
      <trkpt lat="48.83853" lon="2.38973">
        <ele>91.2</ele>
        <time>2015-06-08T20:50:51.660Z</time>
      </trkpt>
      <trkpt lat="48.83858" lon="2.38969">
        <ele>91.2</ele>
        <time>2015-06-08T20:50:52.664Z</time>
      </trkpt>
      <trkpt lat="48.83862" lon="2.38963">
        <ele>91.5</ele>
        <time>2015-06-08T20:50:53.666Z</time>
      </trkpt>
      <trkpt lat="48.83866" lon="2.38959">
        <ele>91.5</ele>
        <time>2015-06-08T20:50:54.620Z</time>
      </trkpt>
      <trkpt lat="48.83871" lon="2.38956">
        <ele>91.6</ele>
        <time>2015-06-08T20:50:55.614Z</time>
      </trkpt>
      <trkpt lat="48.83877" lon="2.38948">
        <ele>91.2</ele>
        <time>2015-06-08T20:50:57.664Z</time>
      </trkpt>
      <trkpt lat="48.83881" lon="2.38945">
        <ele>91.2</ele>
        <time>2015-06-08T20:50:58.700Z</time>
      </trkpt>
      <trkpt lat="48.83887" lon="2.3894">
        <ele>91.7</ele>
        <time>2015-06-08T20:51:00.638Z</time>
      </trkpt>
      <trkpt lat="48.83889" lon="2.38938">
        <ele>91.8</ele>
        <time>2015-06-08T20:51:01.704Z</time>
      </trkpt>
      <trkpt lat="48.83892" lon="2.3894">
        <ele>89.6</ele>
        <time>2015-06-08T20:52:25.693Z</time>
      </trkpt>
      <trkpt lat="48.839" lon="2.38927">
        <ele>94.6</ele>
        <time>2015-06-08T20:52:26.707Z</time>
      </trkpt>
      <trkpt lat="48.83907" lon="2.38919">
        <ele>94.9</ele>
        <time>2015-06-08T20:52:30.657Z</time>
      </trkpt>
      <trkpt lat="48.83909" lon="2.38917">
        <ele>94.8</ele>
        <time>2015-06-08T20:52:31.669Z</time>
      </trkpt>
      <trkpt lat="48.83915" lon="2.3891">
        <ele>94.8</ele>
        <time>2015-06-08T20:52:34.641Z</time>
      </trkpt>
      <trkpt lat="48.83917" lon="2.38906">
        <ele>95</ele>
        <time>2015-06-08T20:52:35.655Z</time>
      </trkpt>
      <trkpt lat="48.83923" lon="2.38897">
        <ele>95.4</ele>
        <time>2015-06-08T20:52:38.677Z</time>
      </trkpt>
      <trkpt lat="48.83926" lon="2.38895">
        <ele>95.7</ele>
        <time>2015-06-08T20:52:39.671Z</time>
      </trkpt>
      <trkpt lat="48.83931" lon="2.38885">
        <ele>96.5</ele>
        <time>2015-06-08T20:52:41.680Z</time>
      </trkpt>
      <trkpt lat="48.83934" lon="2.38881">
        <ele>96.6</ele>
        <time>2015-06-08T20:52:42.700Z</time>
      </trkpt>
      <trkpt lat="48.83939" lon="2.38872">
        <ele>96.3</ele>
        <time>2015-06-08T20:52:44.674Z</time>
      </trkpt>
      <trkpt lat="48.83944" lon="2.38869">
        <ele>96.2</ele>
        <time>2015-06-08T20:52:45.650Z</time>
      </trkpt>
      <trkpt lat="48.83948" lon="2.38865">
        <ele>95.7</ele>
        <time>2015-06-08T20:52:46.632Z</time>
      </trkpt>
      <trkpt lat="48.83952" lon="2.38863">
        <ele>95.2</ele>
        <time>2015-06-08T20:52:47.629Z</time>
      </trkpt>
      <trkpt lat="48.8396" lon="2.38858">
        <ele>94</ele>
        <time>2015-06-08T20:52:49.647Z</time>
      </trkpt>
      <trkpt lat="48.83963" lon="2.38856">
        <ele>93.9</ele>
        <time>2015-06-08T20:52:50.706Z</time>
      </trkpt>
      <trkpt lat="48.8397" lon="2.38851">
        <ele>93.8</ele>
        <time>2015-06-08T20:52:52.626Z</time>
      </trkpt>
      <trkpt lat="48.83974" lon="2.38849">
        <ele>93.6</ele>
        <time>2015-06-08T20:52:53.769Z</time>
      </trkpt>
      <trkpt lat="48.83982" lon="2.38844">
        <ele>93.6</ele>
        <time>2015-06-08T20:52:55.625Z</time>
      </trkpt>
      <trkpt lat="48.83986" lon="2.38841">
        <ele>93.5</ele>
        <time>2015-06-08T20:52:56.699Z</time>
      </trkpt>
      <trkpt lat="48.83991" lon="2.38839">
        <ele>93.5</ele>
        <time>2015-06-08T20:52:57.633Z</time>
      </trkpt>
      <trkpt lat="48.83995" lon="2.38837">
        <ele>93.4</ele>
        <time>2015-06-08T20:52:58.625Z</time>
      </trkpt>
      <trkpt lat="48.84001" lon="2.38835">
        <ele>93.2</ele>
        <time>2015-06-08T20:52:59.632Z</time>
      </trkpt>
      <trkpt lat="48.84006" lon="2.38834">
        <ele>93.1</ele>
        <time>2015-06-08T20:53:00.652Z</time>
      </trkpt>
      <trkpt lat="48.84011" lon="2.38831">
        <ele>93.1</ele>
        <time>2015-06-08T20:53:01.658Z</time>
      </trkpt>
      <trkpt lat="48.84017" lon="2.38829">
        <ele>93.2</ele>
        <time>2015-06-08T20:53:02.671Z</time>
      </trkpt>
      <trkpt lat="48.84022" lon="2.38826">
        <ele>93.3</ele>
        <time>2015-06-08T20:53:03.693Z</time>
      </trkpt>
      <trkpt lat="48.84028" lon="2.38822">
        <ele>93.2</ele>
        <time>2015-06-08T20:53:04.612Z</time>
      </trkpt>
      <trkpt lat="48.84033" lon="2.38819">
        <ele>93.4</ele>
        <time>2015-06-08T20:53:05.606Z</time>
      </trkpt>
      <trkpt lat="48.84038" lon="2.38814">
        <ele>93.4</ele>
        <time>2015-06-08T20:53:06.627Z</time>
      </trkpt>
      <trkpt lat="48.84044" lon="2.38811">
        <ele>93.6</ele>
        <time>2015-06-08T20:53:07.632Z</time>
      </trkpt>
      <trkpt lat="48.84049" lon="2.38807">
        <ele>93.7</ele>
        <time>2015-06-08T20:53:08.676Z</time>
      </trkpt>
      <trkpt lat="48.84053" lon="2.38802">
        <ele>93.7</ele>
        <time>2015-06-08T20:53:09.693Z</time>
      </trkpt>
      <trkpt lat="48.84058" lon="2.38797">
        <ele>93.5</ele>
        <time>2015-06-08T20:53:10.611Z</time>
      </trkpt>
      <trkpt lat="48.84063" lon="2.38792">
        <ele>93.7</ele>
        <time>2015-06-08T20:53:11.616Z</time>
      </trkpt>
      <trkpt lat="48.84068" lon="2.38788">
        <ele>94</ele>
        <time>2015-06-08T20:53:12.618Z</time>
      </trkpt>
      <trkpt lat="48.84073" lon="2.38784">
        <ele>93.9</ele>
        <time>2015-06-08T20:53:13.627Z</time>
      </trkpt>
      <trkpt lat="48.84078" lon="2.3878">
        <ele>93.9</ele>
        <time>2015-06-08T20:53:14.663Z</time>
      </trkpt>
      <trkpt lat="48.84083" lon="2.38777">
        <ele>93.8</ele>
        <time>2015-06-08T20:53:15.679Z</time>
      </trkpt>
      <trkpt lat="48.84088" lon="2.38774">
        <ele>93.7</ele>
        <time>2015-06-08T20:53:16.694Z</time>
      </trkpt>
      <trkpt lat="48.84092" lon="2.38771">
        <ele>93.7</ele>
        <time>2015-06-08T20:53:17.624Z</time>
      </trkpt>
      <trkpt lat="48.84097" lon="2.38767">
        <ele>93.6</ele>
        <time>2015-06-08T20:53:18.622Z</time>
      </trkpt>
      <trkpt lat="48.84101" lon="2.38764">
        <ele>93.3</ele>
        <time>2015-06-08T20:53:19.633Z</time>
      </trkpt>
      <trkpt lat="48.84105" lon="2.3876">
        <ele>92.7</ele>
        <time>2015-06-08T20:53:20.662Z</time>
      </trkpt>
      <trkpt lat="48.84111" lon="2.38752">
        <ele>91.4</ele>
        <time>2015-06-08T20:53:22.677Z</time>
      </trkpt>
      <trkpt lat="48.84113" lon="2.38745">
        <ele>91.2</ele>
        <time>2015-06-08T20:53:23.680Z</time>
      </trkpt>
      <trkpt lat="48.8412" lon="2.38737">
        <ele>92.3</ele>
        <time>2015-06-08T20:53:25.617Z</time>
      </trkpt>
      <trkpt lat="48.84123" lon="2.38733">
        <ele>92.8</ele>
        <time>2015-06-08T20:53:26.694Z</time>
      </trkpt>
      <trkpt lat="48.84129" lon="2.38726">
        <ele>93.6</ele>
        <time>2015-06-08T20:53:28.618Z</time>
      </trkpt>
      <trkpt lat="48.84131" lon="2.38723">
        <ele>93.2</ele>
        <time>2015-06-08T20:53:29.645Z</time>
      </trkpt>
      <trkpt lat="48.84137" lon="2.38717">
        <ele>92.5</ele>
        <time>2015-06-08T20:53:32.701Z</time>
      </trkpt>
      <trkpt lat="48.8414" lon="2.38717">
        <ele>93.1</ele>
        <time>2015-06-08T20:53:33.633Z</time>
      </trkpt>
      <trkpt lat="48.84148" lon="2.3872">
        <ele>94</ele>
        <time>2015-06-08T20:53:37.647Z</time>
      </trkpt>
      <trkpt lat="48.84149" lon="2.3872">
        <ele>94</ele>
        <time>2015-06-08T20:53:38.688Z</time>
      </trkpt>
      <trkpt lat="48.84154" lon="2.38714">
        <ele>92.9</ele>
        <time>2015-06-08T20:53:41.639Z</time>
      </trkpt>
      <trkpt lat="48.84156" lon="2.38711">
        <ele>93.2</ele>
        <time>2015-06-08T20:53:42.654Z</time>
      </trkpt>
      <trkpt lat="48.84161" lon="2.38704">
        <ele>93.7</ele>
        <time>2015-06-08T20:53:44.676Z</time>
      </trkpt>
      <trkpt lat="48.84164" lon="2.38701">
        <ele>94</ele>
        <time>2015-06-08T20:53:45.680Z</time>
      </trkpt>
      <trkpt lat="48.84169" lon="2.38695">
        <ele>94.1</ele>
        <time>2015-06-08T20:53:47.615Z</time>
      </trkpt>
      <trkpt lat="48.84171" lon="2.38692">
        <ele>93.5</ele>
        <time>2015-06-08T20:53:48.646Z</time>
      </trkpt>
      <trkpt lat="48.84176" lon="2.38684">
        <ele>93.9</ele>
        <time>2015-06-08T20:53:50.685Z</time>
      </trkpt>
      <trkpt lat="48.84178" lon="2.38679">
        <ele>94.1</ele>
        <time>2015-06-08T20:53:51.692Z</time>
      </trkpt>
      <trkpt lat="48.84181" lon="2.3867">
        <ele>94</ele>
        <time>2015-06-08T20:53:53.627Z</time>
      </trkpt>
      <trkpt lat="48.84183" lon="2.38666">
        <ele>93.4</ele>
        <time>2015-06-08T20:53:54.642Z</time>
      </trkpt>
      <trkpt lat="48.84189" lon="2.38656">
        <ele>92.9</ele>
        <time>2015-06-08T20:53:56.685Z</time>
      </trkpt>
      <trkpt lat="48.84191" lon="2.38651">
        <ele>93.1</ele>
        <time>2015-06-08T20:53:57.703Z</time>
      </trkpt>
      <trkpt lat="48.84195" lon="2.3864">
        <ele>93.5</ele>
        <time>2015-06-08T20:53:59.624Z</time>
      </trkpt>
      <trkpt lat="48.84197" lon="2.38634">
        <ele>93.7</ele>
        <time>2015-06-08T20:54:00.656Z</time>
      </trkpt>
      <trkpt lat="48.84199" lon="2.38622">
        <ele>94.2</ele>
        <time>2015-06-08T20:54:02.691Z</time>
      </trkpt>
      <trkpt lat="48.84201" lon="2.38616">
        <ele>94.4</ele>
        <time>2015-06-08T20:54:03.640Z</time>
      </trkpt>
      <trkpt lat="48.84205" lon="2.38604">
        <ele>95.2</ele>
        <time>2015-06-08T20:54:05.627Z</time>
      </trkpt>
      <trkpt lat="48.84206" lon="2.38597">
        <ele>95.6</ele>
        <time>2015-06-08T20:54:06.644Z</time>
      </trkpt>
      <trkpt lat="48.84209" lon="2.38592">
        <ele>95.7</ele>
        <time>2015-06-08T20:54:07.659Z</time>
      </trkpt>
      <trkpt lat="48.84211" lon="2.38586">
        <ele>95.8</ele>
        <time>2015-06-08T20:54:08.686Z</time>
      </trkpt>
      <trkpt lat="48.84212" lon="2.38579">
        <ele>96.1</ele>
        <time>2015-06-08T20:54:09.611Z</time>
      </trkpt>
      <trkpt lat="48.84214" lon="2.38572">
        <ele>96.3</ele>
        <time>2015-06-08T20:54:10.612Z</time>
      </trkpt>
      <trkpt lat="48.84217" lon="2.38566">
        <ele>96.7</ele>
        <time>2015-06-08T20:54:11.619Z</time>
      </trkpt>
      <trkpt lat="48.84219" lon="2.38559">
        <ele>96.8</ele>
        <time>2015-06-08T20:54:12.629Z</time>
      </trkpt>
      <trkpt lat="48.84222" lon="2.38553">
        <ele>96.8</ele>
        <time>2015-06-08T20:54:13.638Z</time>
      </trkpt>
      <trkpt lat="48.84225" lon="2.38547">
        <ele>97.1</ele>
        <time>2015-06-08T20:54:14.653Z</time>
      </trkpt>
      <trkpt lat="48.84228" lon="2.38535">
        <ele>97.5</ele>
        <time>2015-06-08T20:54:16.689Z</time>
      </trkpt>
      <trkpt lat="48.84231" lon="2.3853">
        <ele>97.7</ele>
        <time>2015-06-08T20:54:17.618Z</time>
      </trkpt>
      <trkpt lat="48.84236" lon="2.38524">
        <ele>97.5</ele>
        <time>2015-06-08T20:54:18.639Z</time>
      </trkpt>
      <trkpt lat="48.84239" lon="2.38517">
        <ele>97.2</ele>
        <time>2015-06-08T20:54:19.726Z</time>
      </trkpt>
      <trkpt lat="48.84242" lon="2.38511">
        <ele>97.1</ele>
        <time>2015-06-08T20:54:20.683Z</time>
      </trkpt>
      <trkpt lat="48.84244" lon="2.38506">
        <ele>97.1</ele>
        <time>2015-06-08T20:54:21.697Z</time>
      </trkpt>
      <trkpt lat="48.84246" lon="2.385">
        <ele>97</ele>
        <time>2015-06-08T20:54:22.711Z</time>
      </trkpt>
      <trkpt lat="48.84253" lon="2.38495">
        <ele>97.8</ele>
        <time>2015-06-08T20:54:23.672Z</time>
      </trkpt>
      <trkpt lat="48.84257" lon="2.38491">
        <ele>98.2</ele>
        <time>2015-06-08T20:54:25.100Z</time>
      </trkpt>
      <trkpt lat="48.84262" lon="2.38487">
        <ele>98.7</ele>
        <time>2015-06-08T20:54:25.672Z</time>
      </trkpt>
      <trkpt lat="48.84267" lon="2.38476">
        <ele>99.2</ele>
        <time>2015-06-08T20:54:27.659Z</time>
      </trkpt>
      <trkpt lat="48.84269" lon="2.3847">
        <ele>99.4</ele>
        <time>2015-06-08T20:54:28.664Z</time>
      </trkpt>
      <trkpt lat="48.8427" lon="2.38462">
        <ele>99.4</ele>
        <time>2015-06-08T20:54:30.242Z</time>
      </trkpt>
      <trkpt lat="48.84272" lon="2.38456">
        <ele>99.5</ele>
        <time>2015-06-08T20:54:30.615Z</time>
      </trkpt>
      <trkpt lat="48.84274" lon="2.38448">
        <ele>99.4</ele>
        <time>2015-06-08T20:54:31.643Z</time>
      </trkpt>
      <trkpt lat="48.84276" lon="2.38441">
        <ele>99.3</ele>
        <time>2015-06-08T20:54:32.891Z</time>
      </trkpt>
      <trkpt lat="48.84277" lon="2.38434">
        <ele>99.2</ele>
        <time>2015-06-08T20:54:33.582Z</time>
      </trkpt>
      <trkpt lat="48.84279" lon="2.38427">
        <ele>99.1</ele>
        <time>2015-06-08T20:54:34.610Z</time>
      </trkpt>
      <trkpt lat="48.84282" lon="2.38419">
        <ele>99.2</ele>
        <time>2015-06-08T20:54:35.616Z</time>
      </trkpt>
      <trkpt lat="48.84285" lon="2.38412">
        <ele>98.7</ele>
        <time>2015-06-08T20:54:36.621Z</time>
      </trkpt>
      <trkpt lat="48.84292" lon="2.38405">
        <ele>97.9</ele>
        <time>2015-06-08T20:54:37.627Z</time>
      </trkpt>
      <trkpt lat="48.84295" lon="2.38396">
        <ele>97.4</ele>
        <time>2015-06-08T20:54:38.659Z</time>
      </trkpt>
      <trkpt lat="48.84299" lon="2.38387">
        <ele>97</ele>
        <time>2015-06-08T20:54:39.654Z</time>
      </trkpt>
      <trkpt lat="48.84303" lon="2.38378">
        <ele>97.1</ele>
        <time>2015-06-08T20:54:40.660Z</time>
      </trkpt>
      <trkpt lat="48.84309" lon="2.38371">
        <ele>97.3</ele>
        <time>2015-06-08T20:54:41.672Z</time>
      </trkpt>
      <trkpt lat="48.84314" lon="2.38364">
        <ele>97.6</ele>
        <time>2015-06-08T20:54:42.675Z</time>
      </trkpt>
      <trkpt lat="48.8432" lon="2.38355">
        <ele>98.1</ele>
        <time>2015-06-08T20:54:43.677Z</time>
      </trkpt>
      <trkpt lat="48.84325" lon="2.38346">
        <ele>98.3</ele>
        <time>2015-06-08T20:54:44.690Z</time>
      </trkpt>
      <trkpt lat="48.84329" lon="2.38339">
        <ele>98.9</ele>
        <time>2015-06-08T20:54:45.600Z</time>
      </trkpt>
      <trkpt lat="48.84334" lon="2.3833">
        <ele>99.2</ele>
        <time>2015-06-08T20:54:46.613Z</time>
      </trkpt>
      <trkpt lat="48.84339" lon="2.38321">
        <ele>99.6</ele>
        <time>2015-06-08T20:54:47.619Z</time>
      </trkpt>
      <trkpt lat="48.84343" lon="2.38311">
        <ele>99.8</ele>
        <time>2015-06-08T20:54:48.626Z</time>
      </trkpt>
      <trkpt lat="48.84348" lon="2.38304">
        <ele>99.6</ele>
        <time>2015-06-08T20:54:49.642Z</time>
      </trkpt>
      <trkpt lat="48.84354" lon="2.38296">
        <ele>99.6</ele>
        <time>2015-06-08T20:54:50.662Z</time>
      </trkpt>
      <trkpt lat="48.84359" lon="2.38289">
        <ele>98.9</ele>
        <time>2015-06-08T20:54:51.676Z</time>
      </trkpt>
      <trkpt lat="48.84364" lon="2.38282">
        <ele>98.5</ele>
        <time>2015-06-08T20:54:52.688Z</time>
      </trkpt>
      <trkpt lat="48.84371" lon="2.38276">
        <ele>97.7</ele>
        <time>2015-06-08T20:54:53.617Z</time>
      </trkpt>
      <trkpt lat="48.84378" lon="2.38269">
        <ele>97.3</ele>
        <time>2015-06-08T20:54:54.624Z</time>
      </trkpt>
      <trkpt lat="48.84383" lon="2.38262">
        <ele>97.1</ele>
        <time>2015-06-08T20:54:55.632Z</time>
      </trkpt>
      <trkpt lat="48.84388" lon="2.38256">
        <ele>97.1</ele>
        <time>2015-06-08T20:54:56.654Z</time>
      </trkpt>
      <trkpt lat="48.84393" lon="2.38248">
        <ele>97</ele>
        <time>2015-06-08T20:54:57.666Z</time>
      </trkpt>
      <trkpt lat="48.84396" lon="2.38241">
        <ele>96.7</ele>
        <time>2015-06-08T20:54:58.695Z</time>
      </trkpt>
      <trkpt lat="48.84403" lon="2.38236">
        <ele>95.6</ele>
        <time>2015-06-08T20:54:59.605Z</time>
      </trkpt>
      <trkpt lat="48.84407" lon="2.3823">
        <ele>95.6</ele>
        <time>2015-06-08T20:55:00.623Z</time>
      </trkpt>
      <trkpt lat="48.84409" lon="2.38222">
        <ele>95.1</ele>
        <time>2015-06-08T20:55:01.638Z</time>
      </trkpt>
      <trkpt lat="48.8441" lon="2.38215">
        <ele>95</ele>
        <time>2015-06-08T20:55:02.689Z</time>
      </trkpt>
      <trkpt lat="48.8441" lon="2.38206">
        <ele>95</ele>
        <time>2015-06-08T20:55:03.613Z</time>
      </trkpt>
      <trkpt lat="48.84413" lon="2.382">
        <ele>95</ele>
        <time>2015-06-08T20:55:04.609Z</time>
      </trkpt>
      <trkpt lat="48.84418" lon="2.3819">
        <ele>94.6</ele>
        <time>2015-06-08T20:55:06.625Z</time>
      </trkpt>
      <trkpt lat="48.84419" lon="2.38185">
        <ele>94.6</ele>
        <time>2015-06-08T20:55:07.630Z</time>
      </trkpt>
      <trkpt lat="48.84425" lon="2.38176">
        <ele>93.5</ele>
        <time>2015-06-08T20:55:09.682Z</time>
      </trkpt>
      <trkpt lat="48.84427" lon="2.38172">
        <ele>93.6</ele>
        <time>2015-06-08T20:55:10.762Z</time>
      </trkpt>
      <trkpt lat="48.84432" lon="2.38163">
        <ele>94.2</ele>
        <time>2015-06-08T20:55:12.627Z</time>
      </trkpt>
      <trkpt lat="48.84433" lon="2.38156">
        <ele>94.5</ele>
        <time>2015-06-08T20:55:13.644Z</time>
      </trkpt>
      <trkpt lat="48.84435" lon="2.38143">
        <ele>95.3</ele>
        <time>2015-06-08T20:55:15.692Z</time>
      </trkpt>
      <trkpt lat="48.84436" lon="2.38137">
        <ele>95.6</ele>
        <time>2015-06-08T20:55:16.587Z</time>
      </trkpt>
      <trkpt lat="48.84438" lon="2.3813">
        <ele>95.4</ele>
        <time>2015-06-08T20:55:17.661Z</time>
      </trkpt>
      <trkpt lat="48.8444" lon="2.38123">
        <ele>95.3</ele>
        <time>2015-06-08T20:55:18.668Z</time>
      </trkpt>
      <trkpt lat="48.84442" lon="2.38116">
        <ele>95.2</ele>
        <time>2015-06-08T20:55:19.694Z</time>
      </trkpt>
      <trkpt lat="48.84443" lon="2.3811">
        <ele>95.2</ele>
        <time>2015-06-08T20:55:20.706Z</time>
      </trkpt>
      <trkpt lat="48.84448" lon="2.38099">
        <ele>95.3</ele>
        <time>2015-06-08T20:55:22.606Z</time>
      </trkpt>
      <trkpt lat="48.8445" lon="2.38095">
        <ele>95.2</ele>
        <time>2015-06-08T20:55:23.637Z</time>
      </trkpt>
      <trkpt lat="48.84454" lon="2.38086">
        <ele>95.1</ele>
        <time>2015-06-08T20:55:25.676Z</time>
      </trkpt>
      <trkpt lat="48.84457" lon="2.38081">
        <ele>95.8</ele>
        <time>2015-06-08T20:55:26.689Z</time>
      </trkpt>
      <trkpt lat="48.8446" lon="2.38076">
        <ele>95.8</ele>
        <time>2015-06-08T20:55:27.719Z</time>
      </trkpt>
      <trkpt lat="48.84463" lon="2.38069">
        <ele>95.8</ele>
        <time>2015-06-08T20:55:28.609Z</time>
      </trkpt>
      <trkpt lat="48.84467" lon="2.38061">
        <ele>95.8</ele>
        <time>2015-06-08T20:55:29.619Z</time>
      </trkpt>
      <trkpt lat="48.84472" lon="2.38054">
        <ele>95</ele>
        <time>2015-06-08T20:55:30.626Z</time>
      </trkpt>
      <trkpt lat="48.84476" lon="2.38047">
        <ele>94.5</ele>
        <time>2015-06-08T20:55:31.635Z</time>
      </trkpt>
      <trkpt lat="48.84479" lon="2.3804">
        <ele>94.1</ele>
        <time>2015-06-08T20:55:32.669Z</time>
      </trkpt>
      <trkpt lat="48.84482" lon="2.38033">
        <ele>94.2</ele>
        <time>2015-06-08T20:55:33.658Z</time>
      </trkpt>
      <trkpt lat="48.84486" lon="2.38026">
        <ele>94.5</ele>
        <time>2015-06-08T20:55:34.661Z</time>
      </trkpt>
      <trkpt lat="48.84488" lon="2.3802">
        <ele>94.5</ele>
        <time>2015-06-08T20:55:35.664Z</time>
      </trkpt>
      <trkpt lat="48.84491" lon="2.38014">
        <ele>94.1</ele>
        <time>2015-06-08T20:55:36.676Z</time>
      </trkpt>
      <trkpt lat="48.84496" lon="2.38003">
        <ele>93.7</ele>
        <time>2015-06-08T20:55:38.697Z</time>
      </trkpt>
      <trkpt lat="48.84498" lon="2.37998">
        <ele>93.6</ele>
        <time>2015-06-08T20:55:39.637Z</time>
      </trkpt>
      <trkpt lat="48.84502" lon="2.37993">
        <ele>93.5</ele>
        <time>2015-06-08T20:55:40.622Z</time>
      </trkpt>
      <trkpt lat="48.84507" lon="2.3799">
        <ele>93.7</ele>
        <time>2015-06-08T20:55:41.626Z</time>
      </trkpt>
      <trkpt lat="48.84511" lon="2.37987">
        <ele>93.6</ele>
        <time>2015-06-08T20:55:42.638Z</time>
      </trkpt>
      <trkpt lat="48.84516" lon="2.37981">
        <ele>93.9</ele>
        <time>2015-06-08T20:55:43.648Z</time>
      </trkpt>
      <trkpt lat="48.84519" lon="2.37975">
        <ele>93.8</ele>
        <time>2015-06-08T20:55:44.692Z</time>
      </trkpt>
      <trkpt lat="48.84522" lon="2.37968">
        <ele>93.7</ele>
        <time>2015-06-08T20:55:45.660Z</time>
      </trkpt>
      <trkpt lat="48.84526" lon="2.37961">
        <ele>93.3</ele>
        <time>2015-06-08T20:55:46.665Z</time>
      </trkpt>
      <trkpt lat="48.84529" lon="2.37952">
        <ele>93.2</ele>
        <time>2015-06-08T20:55:47.669Z</time>
      </trkpt>
      <trkpt lat="48.84533" lon="2.37944">
        <ele>93.4</ele>
        <time>2015-06-08T20:55:48.667Z</time>
      </trkpt>
      <trkpt lat="48.84535" lon="2.37937">
        <ele>93.6</ele>
        <time>2015-06-08T20:55:49.677Z</time>
      </trkpt>
      <trkpt lat="48.8454" lon="2.37931">
        <ele>93.7</ele>
        <time>2015-06-08T20:55:50.722Z</time>
      </trkpt>
      <trkpt lat="48.84544" lon="2.37924">
        <ele>93.8</ele>
        <time>2015-06-08T20:55:51.613Z</time>
      </trkpt>
      <trkpt lat="48.84548" lon="2.37917">
        <ele>93.7</ele>
        <time>2015-06-08T20:55:52.624Z</time>
      </trkpt>
      <trkpt lat="48.84551" lon="2.3791">
        <ele>93.6</ele>
        <time>2015-06-08T20:55:53.627Z</time>
      </trkpt>
      <trkpt lat="48.84554" lon="2.37903">
        <ele>93.7</ele>
        <time>2015-06-08T20:55:54.636Z</time>
      </trkpt>
      <trkpt lat="48.84557" lon="2.37895">
        <ele>93.9</ele>
        <time>2015-06-08T20:55:55.644Z</time>
      </trkpt>
      <trkpt lat="48.84559" lon="2.37888">
        <ele>94.1</ele>
        <time>2015-06-08T20:55:56.658Z</time>
      </trkpt>
      <trkpt lat="48.84561" lon="2.37879">
        <ele>94.1</ele>
        <time>2015-06-08T20:55:57.874Z</time>
      </trkpt>
      <trkpt lat="48.84563" lon="2.37871">
        <ele>94.4</ele>
        <time>2015-06-08T20:55:58.614Z</time>
      </trkpt>
      <trkpt lat="48.84566" lon="2.37865">
        <ele>94.4</ele>
        <time>2015-06-08T20:55:59.620Z</time>
      </trkpt>
      <trkpt lat="48.84569" lon="2.37857">
        <ele>94.5</ele>
        <time>2015-06-08T20:56:00.631Z</time>
      </trkpt>
      <trkpt lat="48.84572" lon="2.3785">
        <ele>94.8</ele>
        <time>2015-06-08T20:56:01.641Z</time>
      </trkpt>
      <trkpt lat="48.84576" lon="2.37844">
        <ele>95.2</ele>
        <time>2015-06-08T20:56:02.666Z</time>
      </trkpt>
      <trkpt lat="48.84579" lon="2.37838">
        <ele>95.1</ele>
        <time>2015-06-08T20:56:03.672Z</time>
      </trkpt>
      <trkpt lat="48.84582" lon="2.37831">
        <ele>94.7</ele>
        <time>2015-06-08T20:56:04.600Z</time>
      </trkpt>
      <trkpt lat="48.84585" lon="2.37823">
        <ele>94.5</ele>
        <time>2015-06-08T20:56:05.603Z</time>
      </trkpt>
      <trkpt lat="48.84588" lon="2.37817">
        <ele>94.3</ele>
        <time>2015-06-08T20:56:06.601Z</time>
      </trkpt>
      <trkpt lat="48.8459" lon="2.37809">
        <ele>93.8</ele>
        <time>2015-06-08T20:56:07.614Z</time>
      </trkpt>
      <trkpt lat="48.84592" lon="2.37803">
        <ele>93.8</ele>
        <time>2015-06-08T20:56:08.671Z</time>
      </trkpt>
      <trkpt lat="48.84595" lon="2.37795">
        <ele>94</ele>
        <time>2015-06-08T20:56:09.626Z</time>
      </trkpt>
      <trkpt lat="48.84598" lon="2.37788">
        <ele>93.9</ele>
        <time>2015-06-08T20:56:10.603Z</time>
      </trkpt>
      <trkpt lat="48.84601" lon="2.37781">
        <ele>94</ele>
        <time>2015-06-08T20:56:11.602Z</time>
      </trkpt>
      <trkpt lat="48.84606" lon="2.37776">
        <ele>93.3</ele>
        <time>2015-06-08T20:56:12.623Z</time>
      </trkpt>
      <trkpt lat="48.8461" lon="2.3777">
        <ele>93.2</ele>
        <time>2015-06-08T20:56:13.631Z</time>
      </trkpt>
      <trkpt lat="48.84615" lon="2.37765">
        <ele>93.9</ele>
        <time>2015-06-08T20:56:14.657Z</time>
      </trkpt>
      <trkpt lat="48.84618" lon="2.3776">
        <ele>94</ele>
        <time>2015-06-08T20:56:15.653Z</time>
      </trkpt>
      <trkpt lat="48.84622" lon="2.37756">
        <ele>94.3</ele>
        <time>2015-06-08T20:56:16.674Z</time>
      </trkpt>
      <trkpt lat="48.84626" lon="2.37753">
        <ele>94.2</ele>
        <time>2015-06-08T20:56:17.680Z</time>
      </trkpt>
      <trkpt lat="48.84627" lon="2.37744">
        <ele>97.1</ele>
        <time>2015-06-08T20:56:54.617Z</time>
      </trkpt>
      <trkpt lat="48.84628" lon="2.37738">
        <ele>97</ele>
        <time>2015-06-08T20:56:55.622Z</time>
      </trkpt>
      <trkpt lat="48.84632" lon="2.37726">
        <ele>97.4</ele>
        <time>2015-06-08T20:56:57.619Z</time>
      </trkpt>
      <trkpt lat="48.84635" lon="2.37721">
        <ele>97.7</ele>
        <time>2015-06-08T20:56:58.629Z</time>
      </trkpt>
      <trkpt lat="48.84637" lon="2.37714">
        <ele>97.7</ele>
        <time>2015-06-08T20:56:59.655Z</time>
      </trkpt>
      <trkpt lat="48.84639" lon="2.37707">
        <ele>97.6</ele>
        <time>2015-06-08T20:57:00.665Z</time>
      </trkpt>
      <trkpt lat="48.84643" lon="2.37701">
        <ele>97.4</ele>
        <time>2015-06-08T20:57:01.670Z</time>
      </trkpt>
      <trkpt lat="48.84647" lon="2.37695">
        <ele>97.4</ele>
        <time>2015-06-08T20:57:02.840Z</time>
      </trkpt>
      <trkpt lat="48.84652" lon="2.37689">
        <ele>96.6</ele>
        <time>2015-06-08T20:57:03.642Z</time>
      </trkpt>
      <trkpt lat="48.84657" lon="2.37682">
        <ele>95.4</ele>
        <time>2015-06-08T20:57:04.658Z</time>
      </trkpt>
      <trkpt lat="48.84661" lon="2.37674">
        <ele>95.3</ele>
        <time>2015-06-08T20:57:05.682Z</time>
      </trkpt>
      <trkpt lat="48.84664" lon="2.37667">
        <ele>95.2</ele>
        <time>2015-06-08T20:57:06.687Z</time>
      </trkpt>
      <trkpt lat="48.84667" lon="2.37658">
        <ele>95.2</ele>
        <time>2015-06-08T20:57:07.635Z</time>
      </trkpt>
      <trkpt lat="48.8467" lon="2.37649">
        <ele>95</ele>
        <time>2015-06-08T20:57:08.666Z</time>
      </trkpt>
      <trkpt lat="48.84673" lon="2.3764">
        <ele>94.4</ele>
        <time>2015-06-08T20:57:08.318Z</time>
      </trkpt>
      <trkpt lat="48.84676" lon="2.37631">
        <ele>94.6</ele>
        <time>2015-06-08T20:57:10.622Z</time>
      </trkpt>
      <trkpt lat="48.84679" lon="2.37621">
        <ele>94.4</ele>
        <time>2015-06-08T20:57:11.623Z</time>
      </trkpt>
      <trkpt lat="48.84681" lon="2.37611">
        <ele>94.4</ele>
        <time>2015-06-08T20:57:12.631Z</time>
      </trkpt>
      <trkpt lat="48.84685" lon="2.37602">
        <ele>94.6</ele>
        <time>2015-06-08T20:57:13.711Z</time>
      </trkpt>
      <trkpt lat="48.84689" lon="2.37592">
        <ele>94.2</ele>
        <time>2015-06-08T20:57:14.721Z</time>
      </trkpt>
      <trkpt lat="48.84692" lon="2.37584">
        <ele>94.2</ele>
        <time>2015-06-08T20:57:15.588Z</time>
      </trkpt>
      <trkpt lat="48.84696" lon="2.37575">
        <ele>94.4</ele>
        <time>2015-06-08T20:57:16.610Z</time>
      </trkpt>
      <trkpt lat="48.84699" lon="2.37565">
        <ele>94.8</ele>
        <time>2015-06-08T20:57:17.616Z</time>
      </trkpt>
      <trkpt lat="48.84703" lon="2.37556">
        <ele>95.3</ele>
        <time>2015-06-08T20:57:18.620Z</time>
      </trkpt>
      <trkpt lat="48.8471" lon="2.37549">
        <ele>94.7</ele>
        <time>2015-06-08T20:57:19.629Z</time>
      </trkpt>
      <trkpt lat="48.84715" lon="2.37541">
        <ele>94.1</ele>
        <time>2015-06-08T20:57:20.663Z</time>
      </trkpt>
      <trkpt lat="48.8472" lon="2.37533">
        <ele>93.8</ele>
        <time>2015-06-08T20:57:21.654Z</time>
      </trkpt>
      <trkpt lat="48.84724" lon="2.37524">
        <ele>94</ele>
        <time>2015-06-08T20:57:22.659Z</time>
      </trkpt>
      <trkpt lat="48.84728" lon="2.37515">
        <ele>94.2</ele>
        <time>2015-06-08T20:57:23.668Z</time>
      </trkpt>
      <trkpt lat="48.84731" lon="2.37507">
        <ele>94.1</ele>
        <time>2015-06-08T20:57:24.677Z</time>
      </trkpt>
      <trkpt lat="48.84735" lon="2.37499">
        <ele>94.2</ele>
        <time>2015-06-08T20:57:25.663Z</time>
      </trkpt>
      <trkpt lat="48.84738" lon="2.37491">
        <ele>93.7</ele>
        <time>2015-06-08T20:57:26.729Z</time>
      </trkpt>
      <trkpt lat="48.84742" lon="2.37484">
        <ele>94</ele>
        <time>2015-06-08T20:57:27.637Z</time>
      </trkpt>
      <trkpt lat="48.84746" lon="2.37477">
        <ele>94.1</ele>
        <time>2015-06-08T20:57:28.615Z</time>
      </trkpt>
      <trkpt lat="48.84747" lon="2.37468">
        <ele>94.2</ele>
        <time>2015-06-08T20:57:29.609Z</time>
      </trkpt>
      <trkpt lat="48.84749" lon="2.37459">
        <ele>94</ele>
        <time>2015-06-08T20:57:30.633Z</time>
      </trkpt>
      <trkpt lat="48.8475" lon="2.37451">
        <ele>93.9</ele>
        <time>2015-06-08T20:57:31.647Z</time>
      </trkpt>
      <trkpt lat="48.84751" lon="2.37443">
        <ele>93.7</ele>
        <time>2015-06-08T20:57:32.792Z</time>
      </trkpt>
      <trkpt lat="48.84754" lon="2.37436">
        <ele>93.5</ele>
        <time>2015-06-08T20:57:33.670Z</time>
      </trkpt>
      <trkpt lat="48.84757" lon="2.37431">
        <ele>93.5</ele>
        <time>2015-06-08T20:57:34.674Z</time>
      </trkpt>
      <trkpt lat="48.84762" lon="2.37425">
        <ele>93</ele>
        <time>2015-06-08T20:57:35.600Z</time>
      </trkpt>
      <trkpt lat="48.84766" lon="2.37419">
        <ele>92.8</ele>
        <time>2015-06-08T20:57:36.600Z</time>
      </trkpt>
      <trkpt lat="48.84769" lon="2.37413">
        <ele>92.3</ele>
        <time>2015-06-08T20:57:37.601Z</time>
      </trkpt>
      <trkpt lat="48.84773" lon="2.37407">
        <ele>92</ele>
        <time>2015-06-08T20:57:38.644Z</time>
      </trkpt>
      <trkpt lat="48.84776" lon="2.374">
        <ele>92</ele>
        <time>2015-06-08T20:57:39.636Z</time>
      </trkpt>
      <trkpt lat="48.84779" lon="2.37394">
        <ele>92.1</ele>
        <time>2015-06-08T20:57:40.650Z</time>
      </trkpt>
      <trkpt lat="48.84784" lon="2.37388">
        <ele>92.7</ele>
        <time>2015-06-08T20:57:41.662Z</time>
      </trkpt>
      <trkpt lat="48.84789" lon="2.37382">
        <ele>93.2</ele>
        <time>2015-06-08T20:57:42.670Z</time>
      </trkpt>
      <trkpt lat="48.84793" lon="2.37377">
        <ele>93.7</ele>
        <time>2015-06-08T20:57:43.688Z</time>
      </trkpt>
      <trkpt lat="48.84796" lon="2.3737">
        <ele>93.9</ele>
        <time>2015-06-08T20:57:44.716Z</time>
      </trkpt>
      <trkpt lat="48.848" lon="2.37363">
        <ele>93.7</ele>
        <time>2015-06-08T20:57:45.612Z</time>
      </trkpt>
      <trkpt lat="48.84804" lon="2.37358">
        <ele>93.8</ele>
        <time>2015-06-08T20:57:46.616Z</time>
      </trkpt>
      <trkpt lat="48.84807" lon="2.37352">
        <ele>93.8</ele>
        <time>2015-06-08T20:57:47.620Z</time>
      </trkpt>
      <trkpt lat="48.84811" lon="2.37346">
        <ele>92.8</ele>
        <time>2015-06-08T20:57:48.626Z</time>
      </trkpt>
      <trkpt lat="48.84816" lon="2.37334">
        <ele>93.1</ele>
        <time>2015-06-08T20:57:50.661Z</time>
      </trkpt>
      <trkpt lat="48.84818" lon="2.37329">
        <ele>93.2</ele>
        <time>2015-06-08T20:57:51.656Z</time>
      </trkpt>
      <trkpt lat="48.84822" lon="2.37324">
        <ele>93.7</ele>
        <time>2015-06-08T20:57:52.693Z</time>
      </trkpt>
      <trkpt lat="48.84824" lon="2.37317">
        <ele>93.9</ele>
        <time>2015-06-08T20:57:53.703Z</time>
      </trkpt>
      <trkpt lat="48.84827" lon="2.37312">
        <ele>94.3</ele>
        <time>2015-06-08T20:57:54.600Z</time>
      </trkpt>
      <trkpt lat="48.8483" lon="2.37305">
        <ele>94.2</ele>
        <time>2015-06-08T20:57:55.609Z</time>
      </trkpt>
      <trkpt lat="48.84833" lon="2.37299">
        <ele>93.7</ele>
        <time>2015-06-08T20:57:56.658Z</time>
      </trkpt>
      <trkpt lat="48.84836" lon="2.37294">
        <ele>93.9</ele>
        <time>2015-06-08T20:57:57.663Z</time>
      </trkpt>
      <trkpt lat="48.84841" lon="2.37284">
        <ele>93.6</ele>
        <time>2015-06-08T20:57:59.684Z</time>
      </trkpt>
      <trkpt lat="48.84844" lon="2.37279">
        <ele>93.5</ele>
        <time>2015-06-08T20:58:00.698Z</time>
      </trkpt>
      <trkpt lat="48.84847" lon="2.37274">
        <ele>93.2</ele>
        <time>2015-06-08T20:58:01.634Z</time>
      </trkpt>
      <trkpt lat="48.84851" lon="2.3727">
        <ele>92.9</ele>
        <time>2015-06-08T20:58:02.658Z</time>
      </trkpt>
      <trkpt lat="48.84857" lon="2.3726">
        <ele>92.9</ele>
        <time>2015-06-08T20:58:05.680Z</time>
      </trkpt>
      <trkpt lat="48.84858" lon="2.37257">
        <ele>93.7</ele>
        <time>2015-06-08T20:58:06.701Z</time>
      </trkpt>
      <trkpt lat="48.84864" lon="2.3725">
        <ele>94.7</ele>
        <time>2015-06-08T20:58:11.636Z</time>
      </trkpt>
      <trkpt lat="48.84865" lon="2.37247">
        <ele>94.9</ele>
        <time>2015-06-08T20:58:12.862Z</time>
      </trkpt>
      <trkpt lat="48.84869" lon="2.37238">
        <ele>95</ele>
        <time>2015-06-08T20:58:15.752Z</time>
      </trkpt>
      <trkpt lat="48.84871" lon="2.37234">
        <ele>95</ele>
        <time>2015-06-08T20:58:16.673Z</time>
      </trkpt>
      <trkpt lat="48.84877" lon="2.37228">
        <ele>94.2</ele>
        <time>2015-06-08T20:58:19.641Z</time>
      </trkpt>
      <trkpt lat="48.84879" lon="2.37224">
        <ele>94</ele>
        <time>2015-06-08T20:58:20.639Z</time>
      </trkpt>
      <trkpt lat="48.84883" lon="2.37216">
        <ele>94.2</ele>
        <time>2015-06-08T20:58:22.678Z</time>
      </trkpt>
      <trkpt lat="48.84885" lon="2.37212">
        <ele>94.3</ele>
        <time>2015-06-08T20:58:23.665Z</time>
      </trkpt>
      <trkpt lat="48.84888" lon="2.37202">
        <ele>94.7</ele>
        <time>2015-06-08T20:58:25.655Z</time>
      </trkpt>
      <trkpt lat="48.8489" lon="2.37197">
        <ele>94.9</ele>
        <time>2015-06-08T20:58:26.788Z</time>
      </trkpt>
      <trkpt lat="48.84893" lon="2.37185">
        <ele>95.6</ele>
        <time>2015-06-08T20:58:28.666Z</time>
      </trkpt>
      <trkpt lat="48.84894" lon="2.37178">
        <ele>95.9</ele>
        <time>2015-06-08T20:58:29.654Z</time>
      </trkpt>
      <trkpt lat="48.84898" lon="2.37166">
        <ele>96.2</ele>
        <time>2015-06-08T20:58:31.685Z</time>
      </trkpt>
      <trkpt lat="48.84899" lon="2.3716">
        <ele>96.2</ele>
        <time>2015-06-08T20:58:32.710Z</time>
      </trkpt>
      <trkpt lat="48.84902" lon="2.37153">
        <ele>96.1</ele>
        <time>2015-06-08T20:58:33.609Z</time>
      </trkpt>
      <trkpt lat="48.84904" lon="2.37147">
        <ele>96.4</ele>
        <time>2015-06-08T20:58:34.642Z</time>
      </trkpt>
      <trkpt lat="48.84907" lon="2.37141">
        <ele>96.6</ele>
        <time>2015-06-08T20:58:35.657Z</time>
      </trkpt>
      <trkpt lat="48.8491" lon="2.37135">
        <ele>96.6</ele>
        <time>2015-06-08T20:58:36.666Z</time>
      </trkpt>
      <trkpt lat="48.84916" lon="2.3713">
        <ele>96.1</ele>
        <time>2015-06-08T20:58:37.600Z</time>
      </trkpt>
      <trkpt lat="48.8492" lon="2.37124">
        <ele>96.1</ele>
        <time>2015-06-08T20:58:38.659Z</time>
      </trkpt>
      <trkpt lat="48.84924" lon="2.37117">
        <ele>96.5</ele>
        <time>2015-06-08T20:58:39.685Z</time>
      </trkpt>
      <trkpt lat="48.84929" lon="2.37111">
        <ele>96.8</ele>
        <time>2015-06-08T20:58:40.602Z</time>
      </trkpt>
      <trkpt lat="48.84932" lon="2.37105">
        <ele>97</ele>
        <time>2015-06-08T20:58:41.786Z</time>
      </trkpt>
      <trkpt lat="48.84935" lon="2.37098">
        <ele>97</ele>
        <time>2015-06-08T20:58:42.614Z</time>
      </trkpt>
      <trkpt lat="48.8494" lon="2.37093">
        <ele>97.5</ele>
        <time>2015-06-08T20:58:43.613Z</time>
      </trkpt>
      <trkpt lat="48.84944" lon="2.37086">
        <ele>97.4</ele>
        <time>2015-06-08T20:58:44.682Z</time>
      </trkpt>
      <trkpt lat="48.84948" lon="2.37079">
        <ele>97.6</ele>
        <time>2015-06-08T20:58:45.613Z</time>
      </trkpt>
      <trkpt lat="48.84953" lon="2.37073">
        <ele>98.2</ele>
        <time>2015-06-08T20:58:46.611Z</time>
      </trkpt>
      <trkpt lat="48.84957" lon="2.37067">
        <ele>98.6</ele>
        <time>2015-06-08T20:58:47.618Z</time>
      </trkpt>
      <trkpt lat="48.84962" lon="2.37061">
        <ele>99</ele>
        <time>2015-06-08T20:58:48.631Z</time>
      </trkpt>
      <trkpt lat="48.84966" lon="2.37056">
        <ele>99.3</ele>
        <time>2015-06-08T20:58:49.656Z</time>
      </trkpt>
      <trkpt lat="48.8497" lon="2.37049">
        <ele>99.2</ele>
        <time>2015-06-08T20:58:50.662Z</time>
      </trkpt>
      <trkpt lat="48.84974" lon="2.37047">
        <ele>99.2</ele>
        <time>2015-06-08T20:58:51.680Z</time>
      </trkpt>
      <trkpt lat="48.84979" lon="2.37045">
        <ele>99.5</ele>
        <time>2015-06-08T20:58:52.608Z</time>
      </trkpt>
      <trkpt lat="48.84984" lon="2.37043">
        <ele>99.4</ele>
        <time>2015-06-08T20:58:53.612Z</time>
      </trkpt>
      <trkpt lat="48.8499" lon="2.37041">
        <ele>99.2</ele>
        <time>2015-06-08T20:58:54.624Z</time>
      </trkpt>
      <trkpt lat="48.84994" lon="2.3704">
        <ele>99.1</ele>
        <time>2015-06-08T20:58:55.633Z</time>
      </trkpt>
      <trkpt lat="48.85" lon="2.37039">
        <ele>99.2</ele>
        <time>2015-06-08T20:58:56.653Z</time>
      </trkpt>
      <trkpt lat="48.85005" lon="2.37039">
        <ele>99.4</ele>
        <time>2015-06-08T20:58:57.675Z</time>
      </trkpt>
      <trkpt lat="48.85009" lon="2.37036">
        <ele>99.6</ele>
        <time>2015-06-08T20:58:58.684Z</time>
      </trkpt>
      <trkpt lat="48.85016" lon="2.3703">
        <ele>99.7</ele>
        <time>2015-06-08T20:59:00.611Z</time>
      </trkpt>
      <trkpt lat="48.8502" lon="2.37028">
        <ele>99.8</ele>
        <time>2015-06-08T20:59:01.632Z</time>
      </trkpt>
      <trkpt lat="48.85025" lon="2.37026">
        <ele>100.2</ele>
        <time>2015-06-08T20:59:02.669Z</time>
      </trkpt>
      <trkpt lat="48.8503" lon="2.37024">
        <ele>100.2</ele>
        <time>2015-06-08T20:59:03.673Z</time>
      </trkpt>
      <trkpt lat="48.85037" lon="2.37021">
        <ele>98.7</ele>
        <time>2015-06-08T20:59:04.578Z</time>
      </trkpt>
      <trkpt lat="48.85044" lon="2.37019">
        <ele>97.4</ele>
        <time>2015-06-08T20:59:05.612Z</time>
      </trkpt>
      <trkpt lat="48.85049" lon="2.37018">
        <ele>97.7</ele>
        <time>2015-06-08T20:59:06.609Z</time>
      </trkpt>
      <trkpt lat="48.85055" lon="2.37017">
        <ele>98.1</ele>
        <time>2015-06-08T20:59:07.617Z</time>
      </trkpt>
      <trkpt lat="48.8506" lon="2.37015">
        <ele>98.4</ele>
        <time>2015-06-08T20:59:08.648Z</time>
      </trkpt>
      <trkpt lat="48.85064" lon="2.37012">
        <ele>98.9</ele>
        <time>2015-06-08T20:59:09.652Z</time>
      </trkpt>
      <trkpt lat="48.85069" lon="2.3701">
        <ele>99.2</ele>
        <time>2015-06-08T20:59:10.655Z</time>
      </trkpt>
      <trkpt lat="48.85073" lon="2.37005">
        <ele>99.2</ele>
        <time>2015-06-08T20:59:11.660Z</time>
      </trkpt>
      <trkpt lat="48.85078" lon="2.37002">
        <ele>99.6</ele>
        <time>2015-06-08T20:59:12.671Z</time>
      </trkpt>
      <trkpt lat="48.85082" lon="2.37">
        <ele>100</ele>
        <time>2015-06-08T20:59:13.691Z</time>
      </trkpt>
      <trkpt lat="48.85087" lon="2.36999">
        <ele>100.4</ele>
        <time>2015-06-08T20:59:14.709Z</time>
      </trkpt>
      <trkpt lat="48.85091" lon="2.36997">
        <ele>100.7</ele>
        <time>2015-06-08T20:59:15.623Z</time>
      </trkpt>
      <trkpt lat="48.85097" lon="2.36996">
        <ele>100.9</ele>
        <time>2015-06-08T20:59:16.627Z</time>
      </trkpt>
      <trkpt lat="48.85101" lon="2.36994">
        <ele>100.9</ele>
        <time>2015-06-08T20:59:17.642Z</time>
      </trkpt>
      <trkpt lat="48.85106" lon="2.36993">
        <ele>101.2</ele>
        <time>2015-06-08T20:59:18.664Z</time>
      </trkpt>
      <trkpt lat="48.8511" lon="2.36992">
        <ele>101.2</ele>
        <time>2015-06-08T20:59:19.676Z</time>
      </trkpt>
      <trkpt lat="48.85115" lon="2.3699">
        <ele>101.5</ele>
        <time>2015-06-08T20:59:20.678Z</time>
      </trkpt>
      <trkpt lat="48.8512" lon="2.36988">
        <ele>101.9</ele>
        <time>2015-06-08T20:59:21.597Z</time>
      </trkpt>
      <trkpt lat="48.85124" lon="2.36986">
        <ele>102.2</ele>
        <time>2015-06-08T20:59:22.603Z</time>
      </trkpt>
      <trkpt lat="48.85129" lon="2.36983">
        <ele>102.3</ele>
        <time>2015-06-08T20:59:23.599Z</time>
      </trkpt>
      <trkpt lat="48.85134" lon="2.36981">
        <ele>102.3</ele>
        <time>2015-06-08T20:59:24.604Z</time>
      </trkpt>
      <trkpt lat="48.85139" lon="2.36978">
        <ele>102.4</ele>
        <time>2015-06-08T20:59:25.613Z</time>
      </trkpt>
      <trkpt lat="48.85144" lon="2.36975">
        <ele>102.2</ele>
        <time>2015-06-08T20:59:26.648Z</time>
      </trkpt>
      <trkpt lat="48.85152" lon="2.36973">
        <ele>100.6</ele>
        <time>2015-06-08T20:59:27.652Z</time>
      </trkpt>
      <trkpt lat="48.85158" lon="2.36969">
        <ele>99.1</ele>
        <time>2015-06-08T20:59:28.663Z</time>
      </trkpt>
      <trkpt lat="48.85164" lon="2.36968">
        <ele>98</ele>
        <time>2015-06-08T20:59:29.669Z</time>
      </trkpt>
      <trkpt lat="48.85169" lon="2.36966">
        <ele>96.9</ele>
        <time>2015-06-08T20:59:30.677Z</time>
      </trkpt>
      <trkpt lat="48.85174" lon="2.36963">
        <ele>96.2</ele>
        <time>2015-06-08T20:59:31.597Z</time>
      </trkpt>
      <trkpt lat="48.85179" lon="2.36961">
        <ele>95.6</ele>
        <time>2015-06-08T20:59:32.680Z</time>
      </trkpt>
      <trkpt lat="48.85183" lon="2.36959">
        <ele>95</ele>
        <time>2015-06-08T20:59:33.656Z</time>
      </trkpt>
      <trkpt lat="48.85187" lon="2.36957">
        <ele>94.8</ele>
        <time>2015-06-08T20:59:34.588Z</time>
      </trkpt>
      <trkpt lat="48.85193" lon="2.36956">
        <ele>94.6</ele>
        <time>2015-06-08T20:59:35.588Z</time>
      </trkpt>
      <trkpt lat="48.85198" lon="2.36954">
        <ele>94.9</ele>
        <time>2015-06-08T20:59:36.594Z</time>
      </trkpt>
      <trkpt lat="48.85202" lon="2.36951">
        <ele>94.5</ele>
        <time>2015-06-08T20:59:37.607Z</time>
      </trkpt>
      <trkpt lat="48.8521" lon="2.36948">
        <ele>94.3</ele>
        <time>2015-06-08T20:59:39.655Z</time>
      </trkpt>
      <trkpt lat="48.85213" lon="2.36947">
        <ele>93.9</ele>
        <time>2015-06-08T20:59:40.568Z</time>
      </trkpt>
      <trkpt lat="48.85221" lon="2.36945">
        <ele>93.3</ele>
        <time>2015-06-08T20:59:41.500Z</time>
      </trkpt>
      <trkpt lat="48.85224" lon="2.36943">
        <ele>93.2</ele>
        <time>2015-06-08T20:59:43.661Z</time>
      </trkpt>
      <trkpt lat="48.8523" lon="2.36943">
        <ele>93.4</ele>
        <time>2015-06-08T20:59:45.705Z</time>
      </trkpt>
      <trkpt lat="48.85235" lon="2.36944">
        <ele>93.3</ele>
        <time>2015-06-08T20:59:46.607Z</time>
      </trkpt>
      <trkpt lat="48.85242" lon="2.36944">
        <ele>93.1</ele>
        <time>2015-06-08T20:59:48.767Z</time>
      </trkpt>
      <trkpt lat="48.85244" lon="2.36944">
        <ele>93.1</ele>
        <time>2015-06-08T20:59:49.743Z</time>
      </trkpt>
      <trkpt lat="48.85253" lon="2.36945">
        <ele>94</ele>
        <time>2015-06-08T20:59:53.745Z</time>
      </trkpt>
      <trkpt lat="48.85256" lon="2.36949">
        <ele>94.2</ele>
        <time>2015-06-08T20:59:54.771Z</time>
      </trkpt>
      <trkpt lat="48.85253" lon="2.36961">
        <ele>93.8</ele>
        <time>2015-06-08T21:02:28.626Z</time>
      </trkpt>
      <trkpt lat="48.85245" lon="2.36944">
        <ele>98.4</ele>
        <time>2015-06-08T21:02:29.613Z</time>
      </trkpt>
      <trkpt lat="48.85253" lon="2.3694">
        <ele>98.5</ele>
        <time>2015-06-08T21:02:33.656Z</time>
      </trkpt>
      <trkpt lat="48.85255" lon="2.36941">
        <ele>98.2</ele>
        <time>2015-06-08T21:02:34.690Z</time>
      </trkpt>
      <trkpt lat="48.85263" lon="2.36938">
        <ele>97.4</ele>
        <time>2015-06-08T21:02:39.652Z</time>
      </trkpt>
      <trkpt lat="48.85264" lon="2.36937">
        <ele>97</ele>
        <time>2015-06-08T21:02:40.670Z</time>
      </trkpt>
      <trkpt lat="48.85268" lon="2.36927">
        <ele>96.1</ele>
        <time>2015-06-08T21:02:45.660Z</time>
      </trkpt>
      <trkpt lat="48.85269" lon="2.36925">
        <ele>95.8</ele>
        <time>2015-06-08T21:02:46.672Z</time>
      </trkpt>
      <trkpt lat="48.85271" lon="2.36912">
        <ele>94.9</ele>
        <time>2015-06-08T21:02:51.619Z</time>
      </trkpt>
      <trkpt lat="48.8527" lon="2.36908">
        <ele>94.8</ele>
        <time>2015-06-08T21:02:52.676Z</time>
      </trkpt>
      <trkpt lat="48.85271" lon="2.36899">
        <ele>94.8</ele>
        <time>2015-06-08T21:02:55.649Z</time>
      </trkpt>
      <trkpt lat="48.85272" lon="2.36895">
        <ele>94.6</ele>
        <time>2015-06-08T21:02:56.666Z</time>
      </trkpt>
      <trkpt lat="48.85275" lon="2.36884">
        <ele>94.3</ele>
        <time>2015-06-08T21:02:59.697Z</time>
      </trkpt>
      <trkpt lat="48.85275" lon="2.36879">
        <ele>94</ele>
        <time>2015-06-08T21:03:00.631Z</time>
      </trkpt>
      <trkpt lat="48.85277" lon="2.36871">
        <ele>93.5</ele>
        <time>2015-06-08T21:03:02.701Z</time>
      </trkpt>
      <trkpt lat="48.85278" lon="2.36866">
        <ele>93.2</ele>
        <time>2015-06-08T21:03:03.649Z</time>
      </trkpt>
      <trkpt lat="48.8528" lon="2.36855">
        <ele>92.8</ele>
        <time>2015-06-08T21:03:06.645Z</time>
      </trkpt>
      <trkpt lat="48.8528" lon="2.36851">
        <ele>92.9</ele>
        <time>2015-06-08T21:03:07.825Z</time>
      </trkpt>
      <trkpt lat="48.85281" lon="2.36838">
        <ele>93.5</ele>
        <time>2015-06-08T21:03:13.644Z</time>
      </trkpt>
      <trkpt lat="48.85279" lon="2.36835">
        <ele>93.6</ele>
        <time>2015-06-08T21:03:14.762Z</time>
      </trkpt>
      <trkpt lat="48.85276" lon="2.36824">
        <ele>94.2</ele>
        <time>2015-06-08T21:03:18.678Z</time>
      </trkpt>
      <trkpt lat="48.85276" lon="2.36822">
        <ele>94.6</ele>
        <time>2015-06-08T21:03:19.710Z</time>
      </trkpt>
      <trkpt lat="48.85276" lon="2.36813">
        <ele>94.5</ele>
        <time>2015-06-08T21:03:40.626Z</time>
      </trkpt>
      <trkpt lat="48.85291" lon="2.36816">
        <ele>87.1</ele>
        <time>2015-06-08T21:03:41.685Z</time>
      </trkpt>
      <trkpt lat="48.85299" lon="2.3682">
        <ele>86.3</ele>
        <time>2015-06-08T21:03:44.687Z</time>
      </trkpt>
      <trkpt lat="48.85301" lon="2.36821">
        <ele>86.5</ele>
        <time>2015-06-08T21:03:45.682Z</time>
      </trkpt>
      <trkpt lat="48.8531" lon="2.36823">
        <ele>86.2</ele>
        <time>2015-06-08T21:03:49.664Z</time>
      </trkpt>
      <trkpt lat="48.85313" lon="2.36823">
        <ele>87</ele>
        <time>2015-06-08T21:03:50.685Z</time>
      </trkpt>
      <trkpt lat="48.85319" lon="2.36819">
        <ele>87.6</ele>
        <time>2015-06-08T21:03:54.670Z</time>
      </trkpt>
      <trkpt lat="48.85321" lon="2.36816">
        <ele>87.4</ele>
        <time>2015-06-08T21:03:55.673Z</time>
      </trkpt>
      <trkpt lat="48.85325" lon="2.36805">
        <ele>86</ele>
        <time>2015-06-08T21:03:58.673Z</time>
      </trkpt>
      <trkpt lat="48.85326" lon="2.36803">
        <ele>86.2</ele>
        <time>2015-06-08T21:03:59.682Z</time>
      </trkpt>
      <trkpt lat="48.8533" lon="2.36797">
        <ele>86.2</ele>
        <time>2015-06-08T21:04:01.627Z</time>
      </trkpt>
      <trkpt lat="48.85334" lon="2.36793">
        <ele>86.3</ele>
        <time>2015-06-08T21:04:02.710Z</time>
      </trkpt>
      <trkpt lat="48.85338" lon="2.36785">
        <ele>86.3</ele>
        <time>2015-06-08T21:04:04.653Z</time>
      </trkpt>
      <trkpt lat="48.85339" lon="2.36781">
        <ele>86.6</ele>
        <time>2015-06-08T21:04:05.685Z</time>
      </trkpt>
      <trkpt lat="48.85337" lon="2.36772">
        <ele>86.5</ele>
        <time>2015-06-08T21:04:07.670Z</time>
      </trkpt>
      <trkpt lat="48.85338" lon="2.36768">
        <ele>86.7</ele>
        <time>2015-06-08T21:04:08.718Z</time>
      </trkpt>
      <trkpt lat="48.85339" lon="2.36755">
        <ele>87.2</ele>
        <time>2015-06-08T21:04:11.700Z</time>
      </trkpt>
      <trkpt lat="48.8534" lon="2.36751">
        <ele>87</ele>
        <time>2015-06-08T21:04:12.722Z</time>
      </trkpt>
      <trkpt lat="48.85344" lon="2.36742">
        <ele>86.9</ele>
        <time>2015-06-08T21:04:14.679Z</time>
      </trkpt>
      <trkpt lat="48.85345" lon="2.36737">
        <ele>86.9</ele>
        <time>2015-06-08T21:04:15.693Z</time>
      </trkpt>
      <trkpt lat="48.85348" lon="2.36729">
        <ele>86.8</ele>
        <time>2015-06-08T21:04:17.644Z</time>
      </trkpt>
      <trkpt lat="48.8535" lon="2.36723">
        <ele>86.7</ele>
        <time>2015-06-08T21:04:18.652Z</time>
      </trkpt>
      <trkpt lat="48.85353" lon="2.36712">
        <ele>86.6</ele>
        <time>2015-06-08T21:04:20.664Z</time>
      </trkpt>
      <trkpt lat="48.85352" lon="2.36706">
        <ele>86.9</ele>
        <time>2015-06-08T21:04:21.680Z</time>
      </trkpt>
      <trkpt lat="48.85354" lon="2.36694">
        <ele>87.4</ele>
        <time>2015-06-08T21:04:23.629Z</time>
      </trkpt>
      <trkpt lat="48.85353" lon="2.36687">
        <ele>87.3</ele>
        <time>2015-06-08T21:04:24.676Z</time>
      </trkpt>
      <trkpt lat="48.85354" lon="2.36675">
        <ele>88.1</ele>
        <time>2015-06-08T21:04:26.902Z</time>
      </trkpt>
      <trkpt lat="48.85355" lon="2.36668">
        <ele>88.8</ele>
        <time>2015-06-08T21:04:27.653Z</time>
      </trkpt>
      <trkpt lat="48.85354" lon="2.36655">
        <ele>89.4</ele>
        <time>2015-06-08T21:04:29.636Z</time>
      </trkpt>
      <trkpt lat="48.85355" lon="2.36648">
        <ele>89.7</ele>
        <time>2015-06-08T21:04:30.630Z</time>
      </trkpt>
      <trkpt lat="48.85358" lon="2.36635">
        <ele>90.1</ele>
        <time>2015-06-08T21:04:32.663Z</time>
      </trkpt>
      <trkpt lat="48.85359" lon="2.36628">
        <ele>90.3</ele>
        <time>2015-06-08T21:04:33.674Z</time>
      </trkpt>
      <trkpt lat="48.85359" lon="2.36622">
        <ele>90.2</ele>
        <time>2015-06-08T21:04:34.639Z</time>
      </trkpt>
      <trkpt lat="48.8536" lon="2.36615">
        <ele>90.5</ele>
        <time>2015-06-08T21:04:35.588Z</time>
      </trkpt>
      <trkpt lat="48.85361" lon="2.36608">
        <ele>90.7</ele>
        <time>2015-06-08T21:04:36.648Z</time>
      </trkpt>
      <trkpt lat="48.85362" lon="2.36601">
        <ele>91</ele>
        <time>2015-06-08T21:04:37.660Z</time>
      </trkpt>
      <trkpt lat="48.85364" lon="2.36595">
        <ele>91</ele>
        <time>2015-06-08T21:04:38.678Z</time>
      </trkpt>
      <trkpt lat="48.85366" lon="2.36589">
        <ele>91.2</ele>
        <time>2015-06-08T21:04:39.684Z</time>
      </trkpt>
      <trkpt lat="48.85372" lon="2.36579">
        <ele>90.8</ele>
        <time>2015-06-08T21:04:41.580Z</time>
      </trkpt>
      <trkpt lat="48.85372" lon="2.36572">
        <ele>91.2</ele>
        <time>2015-06-08T21:04:42.656Z</time>
      </trkpt>
      <trkpt lat="48.85375" lon="2.36559">
        <ele>91.1</ele>
        <time>2015-06-08T21:04:44.643Z</time>
      </trkpt>
      <trkpt lat="48.85376" lon="2.36553">
        <ele>91.3</ele>
        <time>2015-06-08T21:04:45.650Z</time>
      </trkpt>
      <trkpt lat="48.85378" lon="2.36546">
        <ele>91.6</ele>
        <time>2015-06-08T21:04:46.667Z</time>
      </trkpt>
      <trkpt lat="48.8538" lon="2.36539">
        <ele>92</ele>
        <time>2015-06-08T21:04:47.582Z</time>
      </trkpt>
      <trkpt lat="48.85381" lon="2.36532">
        <ele>92.2</ele>
        <time>2015-06-08T21:04:48.573Z</time>
      </trkpt>
      <trkpt lat="48.85382" lon="2.36525">
        <ele>92.2</ele>
        <time>2015-06-08T21:04:49.628Z</time>
      </trkpt>
      <trkpt lat="48.85383" lon="2.36518">
        <ele>92.2</ele>
        <time>2015-06-08T21:04:50.639Z</time>
      </trkpt>
      <trkpt lat="48.85384" lon="2.36511">
        <ele>92.7</ele>
        <time>2015-06-08T21:04:51.642Z</time>
      </trkpt>
      <trkpt lat="48.85385" lon="2.36504">
        <ele>92.9</ele>
        <time>2015-06-08T21:04:52.656Z</time>
      </trkpt>
      <trkpt lat="48.85387" lon="2.36497">
        <ele>92.9</ele>
        <time>2015-06-08T21:04:53.665Z</time>
      </trkpt>
      <trkpt lat="48.85389" lon="2.36491">
        <ele>93.3</ele>
        <time>2015-06-08T21:04:55.103Z</time>
      </trkpt>
      <trkpt lat="48.8539" lon="2.36484">
        <ele>93.3</ele>
        <time>2015-06-08T21:04:55.683Z</time>
      </trkpt>
      <trkpt lat="48.85394" lon="2.36473">
        <ele>93</ele>
        <time>2015-06-08T21:04:57.611Z</time>
      </trkpt>
      <trkpt lat="48.85397" lon="2.36466">
        <ele>93.1</ele>
        <time>2015-06-08T21:04:58.644Z</time>
      </trkpt>
      <trkpt lat="48.854" lon="2.36459">
        <ele>93</ele>
        <time>2015-06-08T21:05:00.515Z</time>
      </trkpt>
      <trkpt lat="48.85403" lon="2.36453">
        <ele>92.8</ele>
        <time>2015-06-08T21:05:00.585Z</time>
      </trkpt>
      <trkpt lat="48.85406" lon="2.36447">
        <ele>92.6</ele>
        <time>2015-06-08T21:05:01.611Z</time>
      </trkpt>
      <trkpt lat="48.85408" lon="2.36439">
        <ele>92.2</ele>
        <time>2015-06-08T21:05:02.666Z</time>
      </trkpt>
      <trkpt lat="48.8541" lon="2.36432">
        <ele>92.1</ele>
        <time>2015-06-08T21:05:03.654Z</time>
      </trkpt>
      <trkpt lat="48.85412" lon="2.36425">
        <ele>92.2</ele>
        <time>2015-06-08T21:05:04.660Z</time>
      </trkpt>
      <trkpt lat="48.85414" lon="2.36418">
        <ele>92</ele>
        <time>2015-06-08T21:05:05.568Z</time>
      </trkpt>
      <trkpt lat="48.85415" lon="2.36411">
        <ele>92.1</ele>
        <time>2015-06-08T21:05:06.596Z</time>
      </trkpt>
      <trkpt lat="48.85415" lon="2.36403">
        <ele>92.1</ele>
        <time>2015-06-08T21:05:07.613Z</time>
      </trkpt>
      <trkpt lat="48.85416" lon="2.36395">
        <ele>92.3</ele>
        <time>2015-06-08T21:05:08.658Z</time>
      </trkpt>
      <trkpt lat="48.85417" lon="2.36386">
        <ele>92.3</ele>
        <time>2015-06-08T21:05:09.675Z</time>
      </trkpt>
      <trkpt lat="48.85419" lon="2.36379">
        <ele>92.3</ele>
        <time>2015-06-08T21:05:10.731Z</time>
      </trkpt>
      <trkpt lat="48.85422" lon="2.36373">
        <ele>92.1</ele>
        <time>2015-06-08T21:05:11.600Z</time>
      </trkpt>
      <trkpt lat="48.85425" lon="2.36367">
        <ele>91.9</ele>
        <time>2015-06-08T21:05:12.602Z</time>
      </trkpt>
      <trkpt lat="48.85427" lon="2.3636">
        <ele>92</ele>
        <time>2015-06-08T21:05:13.629Z</time>
      </trkpt>
      <trkpt lat="48.85429" lon="2.36354">
        <ele>91.8</ele>
        <time>2015-06-08T21:05:14.648Z</time>
      </trkpt>
      <trkpt lat="48.8543" lon="2.36348">
        <ele>92</ele>
        <time>2015-06-08T21:05:15.654Z</time>
      </trkpt>
      <trkpt lat="48.85432" lon="2.3634">
        <ele>92.1</ele>
        <time>2015-06-08T21:05:16.665Z</time>
      </trkpt>
      <trkpt lat="48.85434" lon="2.36333">
        <ele>92</ele>
        <time>2015-06-08T21:05:17.597Z</time>
      </trkpt>
      <trkpt lat="48.85434" lon="2.36325">
        <ele>92.2</ele>
        <time>2015-06-08T21:05:18.603Z</time>
      </trkpt>
      <trkpt lat="48.85435" lon="2.36317">
        <ele>92.3</ele>
        <time>2015-06-08T21:05:19.617Z</time>
      </trkpt>
      <trkpt lat="48.85437" lon="2.36309">
        <ele>92.5</ele>
        <time>2015-06-08T21:05:20.651Z</time>
      </trkpt>
      <trkpt lat="48.85438" lon="2.36302">
        <ele>92.6</ele>
        <time>2015-06-08T21:05:21.671Z</time>
      </trkpt>
      <trkpt lat="48.85439" lon="2.36295">
        <ele>92.8</ele>
        <time>2015-06-08T21:05:22.681Z</time>
      </trkpt>
      <trkpt lat="48.85442" lon="2.36289">
        <ele>92.9</ele>
        <time>2015-06-08T21:05:23.600Z</time>
      </trkpt>
      <trkpt lat="48.85445" lon="2.36283">
        <ele>93</ele>
        <time>2015-06-08T21:05:24.585Z</time>
      </trkpt>
      <trkpt lat="48.85449" lon="2.36278">
        <ele>93</ele>
        <time>2015-06-08T21:05:25.604Z</time>
      </trkpt>
      <trkpt lat="48.85452" lon="2.36272">
        <ele>93.3</ele>
        <time>2015-06-08T21:05:26.649Z</time>
      </trkpt>
      <trkpt lat="48.85455" lon="2.36266">
        <ele>93.6</ele>
        <time>2015-06-08T21:05:27.666Z</time>
      </trkpt>
      <trkpt lat="48.85459" lon="2.36261">
        <ele>93.7</ele>
        <time>2015-06-08T21:05:28.675Z</time>
      </trkpt>
      <trkpt lat="48.85461" lon="2.36254">
        <ele>94</ele>
        <time>2015-06-08T21:05:29.589Z</time>
      </trkpt>
      <trkpt lat="48.85463" lon="2.36248">
        <ele>94.2</ele>
        <time>2015-06-08T21:05:30.599Z</time>
      </trkpt>
      <trkpt lat="48.85465" lon="2.36241">
        <ele>94.4</ele>
        <time>2015-06-08T21:05:31.614Z</time>
      </trkpt>
      <trkpt lat="48.85467" lon="2.36235">
        <ele>94.4</ele>
        <time>2015-06-08T21:05:32.646Z</time>
      </trkpt>
      <trkpt lat="48.8547" lon="2.36222">
        <ele>94.5</ele>
        <time>2015-06-08T21:05:34.592Z</time>
      </trkpt>
      <trkpt lat="48.85473" lon="2.36217">
        <ele>94.7</ele>
        <time>2015-06-08T21:05:35.620Z</time>
      </trkpt>
      <trkpt lat="48.85478" lon="2.36207">
        <ele>95</ele>
        <time>2015-06-08T21:05:37.643Z</time>
      </trkpt>
      <trkpt lat="48.85481" lon="2.36203">
        <ele>95.4</ele>
        <time>2015-06-08T21:05:38.658Z</time>
      </trkpt>
      <trkpt lat="48.85486" lon="2.36195">
        <ele>96</ele>
        <time>2015-06-08T21:05:40.594Z</time>
      </trkpt>
      <trkpt lat="48.85488" lon="2.3619">
        <ele>96</ele>
        <time>2015-06-08T21:05:41.604Z</time>
      </trkpt>
      <trkpt lat="48.85493" lon="2.36179">
        <ele>96.3</ele>
        <time>2015-06-08T21:05:43.652Z</time>
      </trkpt>
      <trkpt lat="48.85495" lon="2.36173">
        <ele>96.7</ele>
        <time>2015-06-08T21:05:44.668Z</time>
      </trkpt>
      <trkpt lat="48.85496" lon="2.36161">
        <ele>97.2</ele>
        <time>2015-06-08T21:05:46.589Z</time>
      </trkpt>
      <trkpt lat="48.85497" lon="2.36155">
        <ele>97.3</ele>
        <time>2015-06-08T21:05:47.628Z</time>
      </trkpt>
      <trkpt lat="48.85501" lon="2.36144">
        <ele>98.3</ele>
        <time>2015-06-08T21:05:49.723Z</time>
      </trkpt>
      <trkpt lat="48.85504" lon="2.36138">
        <ele>98.4</ele>
        <time>2015-06-08T21:05:50.721Z</time>
      </trkpt>
      <trkpt lat="48.85506" lon="2.36131">
        <ele>98.4</ele>
        <time>2015-06-08T21:05:51.589Z</time>
      </trkpt>
      <trkpt lat="48.85508" lon="2.36124">
        <ele>98.8</ele>
        <time>2015-06-08T21:05:52.587Z</time>
      </trkpt>
      <trkpt lat="48.85512" lon="2.36113">
        <ele>99.1</ele>
        <time>2015-06-08T21:05:54.641Z</time>
      </trkpt>
      <trkpt lat="48.85515" lon="2.36107">
        <ele>99.2</ele>
        <time>2015-06-08T21:05:55.664Z</time>
      </trkpt>
      <trkpt lat="48.85517" lon="2.361">
        <ele>99.4</ele>
        <time>2015-06-08T21:05:56.728Z</time>
      </trkpt>
      <trkpt lat="48.8552" lon="2.36093">
        <ele>99.6</ele>
        <time>2015-06-08T21:05:57.599Z</time>
      </trkpt>
      <trkpt lat="48.85522" lon="2.36087">
        <ele>99.6</ele>
        <time>2015-06-08T21:05:58.637Z</time>
      </trkpt>
      <trkpt lat="48.85524" lon="2.3608">
        <ele>99.5</ele>
        <time>2015-06-08T21:05:59.669Z</time>
      </trkpt>
      <trkpt lat="48.85527" lon="2.36073">
        <ele>99.3</ele>
        <time>2015-06-08T21:06:00.571Z</time>
      </trkpt>
      <trkpt lat="48.85529" lon="2.36066">
        <ele>99.4</ele>
        <time>2015-06-08T21:06:01.578Z</time>
      </trkpt>
      <trkpt lat="48.8553" lon="2.36059">
        <ele>99.2</ele>
        <time>2015-06-08T21:06:02.691Z</time>
      </trkpt>
      <trkpt lat="48.85532" lon="2.36052">
        <ele>98.9</ele>
        <time>2015-06-08T21:06:03.610Z</time>
      </trkpt>
      <trkpt lat="48.85534" lon="2.36045">
        <ele>98.7</ele>
        <time>2015-06-08T21:06:04.674Z</time>
      </trkpt>
      <trkpt lat="48.85535" lon="2.36038">
        <ele>98.6</ele>
        <time>2015-06-08T21:06:05.597Z</time>
      </trkpt>
      <trkpt lat="48.85537" lon="2.3603">
        <ele>98.7</ele>
        <time>2015-06-08T21:06:06.644Z</time>
      </trkpt>
      <trkpt lat="48.85539" lon="2.36022">
        <ele>99.3</ele>
        <time>2015-06-08T21:06:07.655Z</time>
      </trkpt>
      <trkpt lat="48.8554" lon="2.36015">
        <ele>99.6</ele>
        <time>2015-06-08T21:06:08.668Z</time>
      </trkpt>
      <trkpt lat="48.85543" lon="2.36008">
        <ele>99.6</ele>
        <time>2015-06-08T21:06:09.626Z</time>
      </trkpt>
      <trkpt lat="48.85544" lon="2.36001">
        <ele>99.5</ele>
        <time>2015-06-08T21:06:10.657Z</time>
      </trkpt>
      <trkpt lat="48.85546" lon="2.35993">
        <ele>99.7</ele>
        <time>2015-06-08T21:06:11.672Z</time>
      </trkpt>
      <trkpt lat="48.85548" lon="2.35986">
        <ele>99.9</ele>
        <time>2015-06-08T21:06:12.684Z</time>
      </trkpt>
      <trkpt lat="48.85551" lon="2.35978">
        <ele>100.1</ele>
        <time>2015-06-08T21:06:13.622Z</time>
      </trkpt>
      <trkpt lat="48.85552" lon="2.3597">
        <ele>100.1</ele>
        <time>2015-06-08T21:06:14.664Z</time>
      </trkpt>
      <trkpt lat="48.85554" lon="2.35962">
        <ele>100.2</ele>
        <time>2015-06-08T21:06:15.655Z</time>
      </trkpt>
      <trkpt lat="48.85556" lon="2.35955">
        <ele>100.4</ele>
        <time>2015-06-08T21:06:16.610Z</time>
      </trkpt>
      <trkpt lat="48.85557" lon="2.35947">
        <ele>100.3</ele>
        <time>2015-06-08T21:06:17.612Z</time>
      </trkpt>
      <trkpt lat="48.85558" lon="2.35939">
        <ele>100.2</ele>
        <time>2015-06-08T21:06:18.631Z</time>
      </trkpt>
      <trkpt lat="48.85559" lon="2.35932">
        <ele>99.7</ele>
        <time>2015-06-08T21:06:19.652Z</time>
      </trkpt>
      <trkpt lat="48.8556" lon="2.35923">
        <ele>99.8</ele>
        <time>2015-06-08T21:06:20.666Z</time>
      </trkpt>
      <trkpt lat="48.85561" lon="2.35914">
        <ele>100</ele>
        <time>2015-06-08T21:06:21.618Z</time>
      </trkpt>
      <trkpt lat="48.85563" lon="2.35907">
        <ele>100.3</ele>
        <time>2015-06-08T21:06:22.635Z</time>
      </trkpt>
      <trkpt lat="48.85563" lon="2.359">
        <ele>100.2</ele>
        <time>2015-06-08T21:06:23.624Z</time>
      </trkpt>
      <trkpt lat="48.85565" lon="2.35892">
        <ele>100.2</ele>
        <time>2015-06-08T21:06:24.655Z</time>
      </trkpt>
      <trkpt lat="48.85566" lon="2.35885">
        <ele>100.2</ele>
        <time>2015-06-08T21:06:25.654Z</time>
      </trkpt>
      <trkpt lat="48.85567" lon="2.35878">
        <ele>100.1</ele>
        <time>2015-06-08T21:06:26.665Z</time>
      </trkpt>
      <trkpt lat="48.85569" lon="2.3587">
        <ele>100.5</ele>
        <time>2015-06-08T21:06:27.671Z</time>
      </trkpt>
      <trkpt lat="48.8557" lon="2.35863">
        <ele>100.3</ele>
        <time>2015-06-08T21:06:28.587Z</time>
      </trkpt>
      <trkpt lat="48.85572" lon="2.35856">
        <ele>100.6</ele>
        <time>2015-06-08T21:06:29.608Z</time>
      </trkpt>
      <trkpt lat="48.85574" lon="2.35849">
        <ele>100.9</ele>
        <time>2015-06-08T21:06:30.623Z</time>
      </trkpt>
      <trkpt lat="48.85575" lon="2.35842">
        <ele>101.1</ele>
        <time>2015-06-08T21:06:31.631Z</time>
      </trkpt>
      <trkpt lat="48.85576" lon="2.35834">
        <ele>101.1</ele>
        <time>2015-06-08T21:06:32.658Z</time>
      </trkpt>
      <trkpt lat="48.85578" lon="2.35827">
        <ele>101</ele>
        <time>2015-06-08T21:06:33.658Z</time>
      </trkpt>
      <trkpt lat="48.8558" lon="2.3582">
        <ele>101.2</ele>
        <time>2015-06-08T21:06:34.682Z</time>
      </trkpt>
      <trkpt lat="48.85582" lon="2.35813">
        <ele>101.2</ele>
        <time>2015-06-08T21:06:35.622Z</time>
      </trkpt>
      <trkpt lat="48.85585" lon="2.35805">
        <ele>101</ele>
        <time>2015-06-08T21:06:36.664Z</time>
      </trkpt>
      <trkpt lat="48.85589" lon="2.35799">
        <ele>101.2</ele>
        <time>2015-06-08T21:06:37.674Z</time>
      </trkpt>
      <trkpt lat="48.85591" lon="2.35792">
        <ele>101.2</ele>
        <time>2015-06-08T21:06:38.684Z</time>
      </trkpt>
      <trkpt lat="48.85593" lon="2.35785">
        <ele>101.1</ele>
        <time>2015-06-08T21:06:39.589Z</time>
      </trkpt>
      <trkpt lat="48.85594" lon="2.35778">
        <ele>100.8</ele>
        <time>2015-06-08T21:06:40.593Z</time>
      </trkpt>
      <trkpt lat="48.85596" lon="2.3577">
        <ele>100.7</ele>
        <time>2015-06-08T21:06:41.608Z</time>
      </trkpt>
      <trkpt lat="48.85597" lon="2.35763">
        <ele>100.5</ele>
        <time>2015-06-08T21:06:42.620Z</time>
      </trkpt>
      <trkpt lat="48.85597" lon="2.35755">
        <ele>100.3</ele>
        <time>2015-06-08T21:06:43.654Z</time>
      </trkpt>
      <trkpt lat="48.85598" lon="2.35747">
        <ele>100.5</ele>
        <time>2015-06-08T21:06:44.646Z</time>
      </trkpt>
      <trkpt lat="48.85599" lon="2.35738">
        <ele>100.8</ele>
        <time>2015-06-08T21:06:45.654Z</time>
      </trkpt>
      <trkpt lat="48.856" lon="2.3573">
        <ele>100.8</ele>
        <time>2015-06-08T21:06:46.668Z</time>
      </trkpt>
      <trkpt lat="48.85601" lon="2.35721">
        <ele>101.2</ele>
        <time>2015-06-08T21:06:47.585Z</time>
      </trkpt>
      <trkpt lat="48.85602" lon="2.35714">
        <ele>101.3</ele>
        <time>2015-06-08T21:06:48.597Z</time>
      </trkpt>
      <trkpt lat="48.85604" lon="2.35706">
        <ele>101.3</ele>
        <time>2015-06-08T21:06:49.605Z</time>
      </trkpt>
      <trkpt lat="48.85608" lon="2.35699">
        <ele>101.2</ele>
        <time>2015-06-08T21:06:50.633Z</time>
      </trkpt>
      <trkpt lat="48.8561" lon="2.35691">
        <ele>101.5</ele>
        <time>2015-06-08T21:06:51.638Z</time>
      </trkpt>
      <trkpt lat="48.85611" lon="2.35683">
        <ele>101.8</ele>
        <time>2015-06-08T21:06:52.646Z</time>
      </trkpt>
      <trkpt lat="48.85612" lon="2.35675">
        <ele>101.8</ele>
        <time>2015-06-08T21:06:53.651Z</time>
      </trkpt>
      <trkpt lat="48.85612" lon="2.35667">
        <ele>101.5</ele>
        <time>2015-06-08T21:06:54.657Z</time>
      </trkpt>
      <trkpt lat="48.85614" lon="2.3566">
        <ele>101.2</ele>
        <time>2015-06-08T21:06:55.664Z</time>
      </trkpt>
      <trkpt lat="48.85618" lon="2.35654">
        <ele>101.2</ele>
        <time>2015-06-08T21:06:56.676Z</time>
      </trkpt>
      <trkpt lat="48.85621" lon="2.35648">
        <ele>101.2</ele>
        <time>2015-06-08T21:06:57.581Z</time>
      </trkpt>
      <trkpt lat="48.85625" lon="2.35642">
        <ele>101.4</ele>
        <time>2015-06-08T21:06:58.593Z</time>
      </trkpt>
      <trkpt lat="48.85627" lon="2.35635">
        <ele>101.3</ele>
        <time>2015-06-08T21:06:59.599Z</time>
      </trkpt>
      <trkpt lat="48.85629" lon="2.35627">
        <ele>100.7</ele>
        <time>2015-06-08T21:07:00.627Z</time>
      </trkpt>
      <trkpt lat="48.8563" lon="2.3562">
        <ele>100.3</ele>
        <time>2015-06-08T21:07:01.631Z</time>
      </trkpt>
      <trkpt lat="48.85631" lon="2.35612">
        <ele>100.3</ele>
        <time>2015-06-08T21:07:02.641Z</time>
      </trkpt>
      <trkpt lat="48.85632" lon="2.35603">
        <ele>100.5</ele>
        <time>2015-06-08T21:07:03.656Z</time>
      </trkpt>
      <trkpt lat="48.85632" lon="2.35594">
        <ele>100.6</ele>
        <time>2015-06-08T21:07:04.658Z</time>
      </trkpt>
      <trkpt lat="48.85632" lon="2.35585">
        <ele>100.7</ele>
        <time>2015-06-08T21:07:05.578Z</time>
      </trkpt>
      <trkpt lat="48.85634" lon="2.35578">
        <ele>100.4</ele>
        <time>2015-06-08T21:07:06.587Z</time>
      </trkpt>
      <trkpt lat="48.85634" lon="2.35569">
        <ele>100.3</ele>
        <time>2015-06-08T21:07:07.586Z</time>
      </trkpt>
      <trkpt lat="48.85637" lon="2.35563">
        <ele>100.1</ele>
        <time>2015-06-08T21:07:08.633Z</time>
      </trkpt>
      <trkpt lat="48.8564" lon="2.35555">
        <ele>100</ele>
        <time>2015-06-08T21:07:09.631Z</time>
      </trkpt>
      <trkpt lat="48.85645" lon="2.35549">
        <ele>100</ele>
        <time>2015-06-08T21:07:10.639Z</time>
      </trkpt>
      <trkpt lat="48.85648" lon="2.35543">
        <ele>99.7</ele>
        <time>2015-06-08T21:07:11.645Z</time>
      </trkpt>
      <trkpt lat="48.85652" lon="2.35536">
        <ele>99.2</ele>
        <time>2015-06-08T21:07:12.646Z</time>
      </trkpt>
      <trkpt lat="48.85655" lon="2.35529">
        <ele>98.6</ele>
        <time>2015-06-08T21:07:13.577Z</time>
      </trkpt>
      <trkpt lat="48.85657" lon="2.35521">
        <ele>98.3</ele>
        <time>2015-06-08T21:07:14.633Z</time>
      </trkpt>
      <trkpt lat="48.85659" lon="2.35513">
        <ele>97.9</ele>
        <time>2015-06-08T21:07:15.623Z</time>
      </trkpt>
      <trkpt lat="48.85662" lon="2.35506">
        <ele>97.9</ele>
        <time>2015-06-08T21:07:16.633Z</time>
      </trkpt>
      <trkpt lat="48.85665" lon="2.35498">
        <ele>97.6</ele>
        <time>2015-06-08T21:07:17.655Z</time>
      </trkpt>
      <trkpt lat="48.85667" lon="2.3549">
        <ele>97.4</ele>
        <time>2015-06-08T21:07:18.669Z</time>
      </trkpt>
      <trkpt lat="48.85668" lon="2.35482">
        <ele>97.3</ele>
        <time>2015-06-08T21:07:19.558Z</time>
      </trkpt>
      <trkpt lat="48.8567" lon="2.35474">
        <ele>97.2</ele>
        <time>2015-06-08T21:07:20.635Z</time>
      </trkpt>
      <trkpt lat="48.85672" lon="2.35467">
        <ele>97</ele>
        <time>2015-06-08T21:07:21.633Z</time>
      </trkpt>
      <trkpt lat="48.85675" lon="2.35459">
        <ele>97.1</ele>
        <time>2015-06-08T21:07:22.645Z</time>
      </trkpt>
      <trkpt lat="48.85678" lon="2.35452">
        <ele>97.3</ele>
        <time>2015-06-08T21:07:23.646Z</time>
      </trkpt>
      <trkpt lat="48.85681" lon="2.35444">
        <ele>97.4</ele>
        <time>2015-06-08T21:07:24.546Z</time>
      </trkpt>
      <trkpt lat="48.85683" lon="2.35434">
        <ele>97.6</ele>
        <time>2015-06-08T21:07:25.875Z</time>
      </trkpt>
      <trkpt lat="48.85683" lon="2.35424">
        <ele>97.5</ele>
        <time>2015-06-08T21:07:26.614Z</time>
      </trkpt>
      <trkpt lat="48.85684" lon="2.35414">
        <ele>97.3</ele>
        <time>2015-06-08T21:07:27.627Z</time>
      </trkpt>
      <trkpt lat="48.85686" lon="2.35404">
        <ele>97</ele>
        <time>2015-06-08T21:07:28.643Z</time>
      </trkpt>
      <trkpt lat="48.85688" lon="2.35394">
        <ele>97.2</ele>
        <time>2015-06-08T21:07:29.653Z</time>
      </trkpt>
      <trkpt lat="48.8569" lon="2.35384">
        <ele>97.1</ele>
        <time>2015-06-08T21:07:30.660Z</time>
      </trkpt>
      <trkpt lat="48.85692" lon="2.35374">
        <ele>96.7</ele>
        <time>2015-06-08T21:07:31.670Z</time>
      </trkpt>
      <trkpt lat="48.85695" lon="2.35365">
        <ele>96.4</ele>
        <time>2015-06-08T21:07:32.673Z</time>
      </trkpt>
      <trkpt lat="48.85698" lon="2.35356">
        <ele>96.2</ele>
        <time>2015-06-08T21:07:33.553Z</time>
      </trkpt>
      <trkpt lat="48.857" lon="2.35347">
        <ele>96.5</ele>
        <time>2015-06-08T21:07:34.588Z</time>
      </trkpt>
      <trkpt lat="48.85703" lon="2.35337">
        <ele>96.8</ele>
        <time>2015-06-08T21:07:35.588Z</time>
      </trkpt>
      <trkpt lat="48.85704" lon="2.35328">
        <ele>96.6</ele>
        <time>2015-06-08T21:07:36.603Z</time>
      </trkpt>
      <trkpt lat="48.85705" lon="2.35318">
        <ele>96.4</ele>
        <time>2015-06-08T21:07:37.646Z</time>
      </trkpt>
      <trkpt lat="48.85708" lon="2.35309">
        <ele>96.4</ele>
        <time>2015-06-08T21:07:38.690Z</time>
      </trkpt>
      <trkpt lat="48.8571" lon="2.35299">
        <ele>96.9</ele>
        <time>2015-06-08T21:07:39.597Z</time>
      </trkpt>
      <trkpt lat="48.85712" lon="2.3529">
        <ele>97.1</ele>
        <time>2015-06-08T21:07:40.603Z</time>
      </trkpt>
      <trkpt lat="48.85715" lon="2.35281">
        <ele>97</ele>
        <time>2015-06-08T21:07:41.614Z</time>
      </trkpt>
      <trkpt lat="48.85716" lon="2.35271">
        <ele>97.1</ele>
        <time>2015-06-08T21:07:42.650Z</time>
      </trkpt>
      <trkpt lat="48.85718" lon="2.35261">
        <ele>96.5</ele>
        <time>2015-06-08T21:07:43.684Z</time>
      </trkpt>
      <trkpt lat="48.8572" lon="2.3525">
        <ele>96</ele>
        <time>2015-06-08T21:07:44.683Z</time>
      </trkpt>
      <trkpt lat="48.85723" lon="2.3524">
        <ele>96.2</ele>
        <time>2015-06-08T21:07:45.689Z</time>
      </trkpt>
      <trkpt lat="48.85726" lon="2.35232">
        <ele>95.9</ele>
        <time>2015-06-08T21:07:46.699Z</time>
      </trkpt>
      <trkpt lat="48.85728" lon="2.35224">
        <ele>95.8</ele>
        <time>2015-06-08T21:07:47.606Z</time>
      </trkpt>
      <trkpt lat="48.8573" lon="2.35215">
        <ele>96</ele>
        <time>2015-06-08T21:07:48.619Z</time>
      </trkpt>
      <trkpt lat="48.85732" lon="2.35207">
        <ele>96.2</ele>
        <time>2015-06-08T21:07:49.634Z</time>
      </trkpt>
      <trkpt lat="48.85733" lon="2.352">
        <ele>96.8</ele>
        <time>2015-06-08T21:07:50.656Z</time>
      </trkpt>
      <trkpt lat="48.85735" lon="2.35192">
        <ele>96.9</ele>
        <time>2015-06-08T21:07:51.658Z</time>
      </trkpt>
      <trkpt lat="48.85736" lon="2.35185">
        <ele>97.2</ele>
        <time>2015-06-08T21:07:52.687Z</time>
      </trkpt>
      <trkpt lat="48.85738" lon="2.35179">
        <ele>97.4</ele>
        <time>2015-06-08T21:07:53.693Z</time>
      </trkpt>
      <trkpt lat="48.85741" lon="2.35168">
        <ele>96.9</ele>
        <time>2015-06-08T21:07:55.613Z</time>
      </trkpt>
      <trkpt lat="48.85742" lon="2.35164">
        <ele>96.8</ele>
        <time>2015-06-08T21:07:56.682Z</time>
      </trkpt>
      <trkpt lat="48.85742" lon="2.35152">
        <ele>97</ele>
        <time>2015-06-08T21:08:00.593Z</time>
      </trkpt>
      <trkpt lat="48.85742" lon="2.35149">
        <ele>97.4</ele>
        <time>2015-06-08T21:08:01.607Z</time>
      </trkpt>
      <trkpt lat="48.85745" lon="2.35144">
        <ele>97.3</ele>
        <time>2015-06-08T21:08:23.658Z</time>
      </trkpt>
      <trkpt lat="48.85748" lon="2.35136">
        <ele>95.2</ele>
        <time>2015-06-08T21:08:24.627Z</time>
      </trkpt>
      <trkpt lat="48.85752" lon="2.35128">
        <ele>95.6</ele>
        <time>2015-06-08T21:08:26.652Z</time>
      </trkpt>
      <trkpt lat="48.85753" lon="2.35124">
        <ele>95.6</ele>
        <time>2015-06-08T21:08:27.645Z</time>
      </trkpt>
      <trkpt lat="48.85757" lon="2.35113">
        <ele>95.1</ele>
        <time>2015-06-08T21:08:29.601Z</time>
      </trkpt>
      <trkpt lat="48.85756" lon="2.35107">
        <ele>96</ele>
        <time>2015-06-08T21:08:30.628Z</time>
      </trkpt>
      <trkpt lat="48.85758" lon="2.35093">
        <ele>97</ele>
        <time>2015-06-08T21:08:32.628Z</time>
      </trkpt>
      <trkpt lat="48.85759" lon="2.35087">
        <ele>97.3</ele>
        <time>2015-06-08T21:08:33.633Z</time>
      </trkpt>
      <trkpt lat="48.85761" lon="2.3508">
        <ele>97.4</ele>
        <time>2015-06-08T21:08:34.657Z</time>
      </trkpt>
      <trkpt lat="48.85764" lon="2.35074">
        <ele>97.5</ele>
        <time>2015-06-08T21:08:35.585Z</time>
      </trkpt>
      <trkpt lat="48.85766" lon="2.35068">
        <ele>97.5</ele>
        <time>2015-06-08T21:08:36.617Z</time>
      </trkpt>
      <trkpt lat="48.85768" lon="2.35062">
        <ele>97.6</ele>
        <time>2015-06-08T21:08:37.662Z</time>
      </trkpt>
      <trkpt lat="48.85772" lon="2.35052">
        <ele>97.5</ele>
        <time>2015-06-08T21:08:39.606Z</time>
      </trkpt>
      <trkpt lat="48.85773" lon="2.35047">
        <ele>97.4</ele>
        <time>2015-06-08T21:08:40.622Z</time>
      </trkpt>
      <trkpt lat="48.85776" lon="2.35035">
        <ele>97.6</ele>
        <time>2015-06-08T21:08:42.658Z</time>
      </trkpt>
      <trkpt lat="48.85778" lon="2.3503">
        <ele>97.6</ele>
        <time>2015-06-08T21:08:43.576Z</time>
      </trkpt>
      <trkpt lat="48.85779" lon="2.35017">
        <ele>97.4</ele>
        <time>2015-06-08T21:08:45.664Z</time>
      </trkpt>
      <trkpt lat="48.8578" lon="2.35011">
        <ele>97.5</ele>
        <time>2015-06-08T21:08:46.673Z</time>
      </trkpt>
      <trkpt lat="48.85783" lon="2.34998">
        <ele>98.3</ele>
        <time>2015-06-08T21:08:48.612Z</time>
      </trkpt>
      <trkpt lat="48.85784" lon="2.34992">
        <ele>98.3</ele>
        <time>2015-06-08T21:08:49.651Z</time>
      </trkpt>
      <trkpt lat="48.85785" lon="2.34984">
        <ele>98.4</ele>
        <time>2015-06-08T21:08:50.677Z</time>
      </trkpt>
      <trkpt lat="48.85786" lon="2.34976">
        <ele>98.4</ele>
        <time>2015-06-08T21:08:51.679Z</time>
      </trkpt>
      <trkpt lat="48.85788" lon="2.34969">
        <ele>98.6</ele>
        <time>2015-06-08T21:08:52.587Z</time>
      </trkpt>
      <trkpt lat="48.8579" lon="2.34962">
        <ele>98.8</ele>
        <time>2015-06-08T21:08:53.593Z</time>
      </trkpt>
      <trkpt lat="48.85792" lon="2.34955">
        <ele>99.1</ele>
        <time>2015-06-08T21:08:54.603Z</time>
      </trkpt>
      <trkpt lat="48.85795" lon="2.3495">
        <ele>99.5</ele>
        <time>2015-06-08T21:08:55.614Z</time>
      </trkpt>
      <trkpt lat="48.85797" lon="2.34944">
        <ele>99.8</ele>
        <time>2015-06-08T21:08:56.629Z</time>
      </trkpt>
      <trkpt lat="48.858" lon="2.34937">
        <ele>100.1</ele>
        <time>2015-06-08T21:08:57.628Z</time>
      </trkpt>
      <trkpt lat="48.85801" lon="2.34929">
        <ele>100.1</ele>
        <time>2015-06-08T21:08:58.663Z</time>
      </trkpt>
      <trkpt lat="48.85803" lon="2.34921">
        <ele>100.4</ele>
        <time>2015-06-08T21:08:59.626Z</time>
      </trkpt>
      <trkpt lat="48.85806" lon="2.34913">
        <ele>100.6</ele>
        <time>2015-06-08T21:09:00.606Z</time>
      </trkpt>
      <trkpt lat="48.85808" lon="2.34906">
        <ele>100.6</ele>
        <time>2015-06-08T21:09:01.604Z</time>
      </trkpt>
      <trkpt lat="48.8581" lon="2.34899">
        <ele>100.8</ele>
        <time>2015-06-08T21:09:02.641Z</time>
      </trkpt>
      <trkpt lat="48.85812" lon="2.34893">
        <ele>101.1</ele>
        <time>2015-06-08T21:09:03.639Z</time>
      </trkpt>
      <trkpt lat="48.85814" lon="2.34886">
        <ele>101.4</ele>
        <time>2015-06-08T21:09:04.647Z</time>
      </trkpt>
      <trkpt lat="48.85817" lon="2.3488">
        <ele>101.9</ele>
        <time>2015-06-08T21:09:05.655Z</time>
      </trkpt>
      <trkpt lat="48.85821" lon="2.34874">
        <ele>102.2</ele>
        <time>2015-06-08T21:09:06.664Z</time>
      </trkpt>
      <trkpt lat="48.85825" lon="2.34867">
        <ele>102.6</ele>
        <time>2015-06-08T21:09:07.670Z</time>
      </trkpt>
      <trkpt lat="48.85828" lon="2.34861">
        <ele>102.7</ele>
        <time>2015-06-08T21:09:08.685Z</time>
      </trkpt>
      <trkpt lat="48.85831" lon="2.34855">
        <ele>103</ele>
        <time>2015-06-08T21:09:09.599Z</time>
      </trkpt>
      <trkpt lat="48.85835" lon="2.3485">
        <ele>103.2</ele>
        <time>2015-06-08T21:09:10.602Z</time>
      </trkpt>
      <trkpt lat="48.85838" lon="2.34844">
        <ele>103.3</ele>
        <time>2015-06-08T21:09:11.611Z</time>
      </trkpt>
      <trkpt lat="48.85842" lon="2.34833">
        <ele>102.7</ele>
        <time>2015-06-08T21:09:13.619Z</time>
      </trkpt>
      <trkpt lat="48.85845" lon="2.34826">
        <ele>102.6</ele>
        <time>2015-06-08T21:09:14.751Z</time>
      </trkpt>
      <trkpt lat="48.85847" lon="2.3482">
        <ele>102.3</ele>
        <time>2015-06-08T21:09:15.607Z</time>
      </trkpt>
      <trkpt lat="48.85849" lon="2.34814">
        <ele>102.4</ele>
        <time>2015-06-08T21:09:16.616Z</time>
      </trkpt>
      <trkpt lat="48.85854" lon="2.34803">
        <ele>102.2</ele>
        <time>2015-06-08T21:09:18.638Z</time>
      </trkpt>
      <trkpt lat="48.85856" lon="2.34796">
        <ele>102.2</ele>
        <time>2015-06-08T21:09:19.764Z</time>
      </trkpt>
      <trkpt lat="48.8586" lon="2.34785">
        <ele>101.7</ele>
        <time>2015-06-08T21:09:21.596Z</time>
      </trkpt>
      <trkpt lat="48.85864" lon="2.3478">
        <ele>100.1</ele>
        <time>2015-06-08T21:09:22.638Z</time>
      </trkpt>
      <trkpt lat="48.85867" lon="2.34773">
        <ele>98.7</ele>
        <time>2015-06-08T21:09:23.697Z</time>
      </trkpt>
      <trkpt lat="48.85869" lon="2.34767">
        <ele>98.1</ele>
        <time>2015-06-08T21:09:24.600Z</time>
      </trkpt>
      <trkpt lat="48.85872" lon="2.34761">
        <ele>96.7</ele>
        <time>2015-06-08T21:09:25.600Z</time>
      </trkpt>
      <trkpt lat="48.85873" lon="2.34755">
        <ele>96.5</ele>
        <time>2015-06-08T21:09:26.640Z</time>
      </trkpt>
      <trkpt lat="48.85877" lon="2.34744">
        <ele>96.4</ele>
        <time>2015-06-08T21:09:28.647Z</time>
      </trkpt>
      <trkpt lat="48.8588" lon="2.34742">
        <ele>96.2</ele>
        <time>2015-06-08T21:09:29.652Z</time>
      </trkpt>
      <trkpt lat="48.85886" lon="2.34737">
        <ele>97</ele>
        <time>2015-06-08T21:09:31.631Z</time>
      </trkpt>
      <trkpt lat="48.8589" lon="2.34735">
        <ele>97.1</ele>
        <time>2015-06-08T21:09:32.774Z</time>
      </trkpt>
      <trkpt lat="48.85895" lon="2.34734">
        <ele>96.9</ele>
        <time>2015-06-08T21:09:33.674Z</time>
      </trkpt>
      <trkpt lat="48.859" lon="2.34732">
        <ele>96.3</ele>
        <time>2015-06-08T21:09:34.623Z</time>
      </trkpt>
      <trkpt lat="48.85904" lon="2.3473">
        <ele>95.8</ele>
        <time>2015-06-08T21:09:35.670Z</time>
      </trkpt>
      <trkpt lat="48.85909" lon="2.34727">
        <ele>95</ele>
        <time>2015-06-08T21:09:36.693Z</time>
      </trkpt>
      <trkpt lat="48.85912" lon="2.34722">
        <ele>94.7</ele>
        <time>2015-06-08T21:09:37.687Z</time>
      </trkpt>
      <trkpt lat="48.85917" lon="2.34717">
        <ele>92.9</ele>
        <time>2015-06-08T21:09:38.692Z</time>
      </trkpt>
      <trkpt lat="48.85921" lon="2.34714">
        <ele>92.8</ele>
        <time>2015-06-08T21:09:39.617Z</time>
      </trkpt>
      <trkpt lat="48.85925" lon="2.34711">
        <ele>92.8</ele>
        <time>2015-06-08T21:09:40.602Z</time>
      </trkpt>
      <trkpt lat="48.85932" lon="2.34705">
        <ele>92.4</ele>
        <time>2015-06-08T21:09:42.631Z</time>
      </trkpt>
      <trkpt lat="48.85935" lon="2.34701">
        <ele>92</ele>
        <time>2015-06-08T21:09:43.637Z</time>
      </trkpt>
      <trkpt lat="48.85944" lon="2.34697">
        <ele>91.4</ele>
        <time>2015-06-08T21:09:46.686Z</time>
      </trkpt>
      <trkpt lat="48.85947" lon="2.34699">
        <ele>91.8</ele>
        <time>2015-06-08T21:09:47.609Z</time>
      </trkpt>
      <trkpt lat="48.85953" lon="2.34706">
        <ele>92.3</ele>
        <time>2015-06-08T21:09:49.618Z</time>
      </trkpt>
      <trkpt lat="48.85957" lon="2.3471">
        <ele>93</ele>
        <time>2015-06-08T21:09:50.718Z</time>
      </trkpt>
      <trkpt lat="48.85959" lon="2.34713">
        <ele>94.6</ele>
        <time>2015-06-08T21:11:06.482Z</time>
      </trkpt>
    </trkseg>
  </trk>
  <trk>
    <name><![CDATA[2 Place du Châtelet]]></name>
    <extensions>
      <line xmlns="http://www.topografix.com/GPX/gpx_style/0/2">
        <color>000000</color>
      </line>
    </extensions>
    <trkseg>
      <trkpt lat="48.85732" lon="2.34733">
        <ele>107.6</ele>
        <time>2015-06-29T18:18:19.394Z</time>
      </trkpt>
      <trkpt lat="48.85735" lon="2.3473">
        <ele>101.6</ele>
        <time>2015-06-29T18:18:56.854Z</time>
      </trkpt>
      <trkpt lat="48.85735" lon="2.34731">
        <ele>101.6</ele>
        <time>2015-06-29T18:18:57.841Z</time>
      </trkpt>
      <trkpt lat="48.85735" lon="2.34731">
        <ele>101.5</ele>
        <time>2015-06-29T18:18:58.777Z</time>
      </trkpt>
      <trkpt lat="48.85727" lon="2.34733">
        <ele>100</ele>
        <time>2015-06-29T18:19:21.816Z</time>
      </trkpt>
      <trkpt lat="48.85728" lon="2.34733">
        <ele>99.8</ele>
        <time>2015-06-29T18:19:22.826Z</time>
      </trkpt>
      <trkpt lat="48.85728" lon="2.34734">
        <ele>99</ele>
        <time>2015-06-29T18:19:26.795Z</time>
      </trkpt>
      <trkpt lat="48.85729" lon="2.34736">
        <ele>98.3</ele>
        <time>2015-06-29T18:19:27.805Z</time>
      </trkpt>
      <trkpt lat="48.8573" lon="2.34741">
        <ele>97.3</ele>
        <time>2015-06-29T18:19:30.802Z</time>
      </trkpt>
      <trkpt lat="48.85729" lon="2.34742">
        <ele>97.1</ele>
        <time>2015-06-29T18:19:31.806Z</time>
      </trkpt>
      <trkpt lat="48.85729" lon="2.34741">
        <ele>97.1</ele>
        <time>2015-06-29T18:19:32.857Z</time>
      </trkpt>
      <trkpt lat="48.85736" lon="2.34742">
        <ele>96.4</ele>
        <time>2015-06-29T18:20:21.857Z</time>
      </trkpt>
      <trkpt lat="48.85736" lon="2.34742">
        <ele>96</ele>
        <time>2015-06-29T18:20:22.793Z</time>
      </trkpt>
      <trkpt lat="48.85737" lon="2.34741">
        <ele>95.8</ele>
        <time>2015-06-29T18:20:28.805Z</time>
      </trkpt>
      <trkpt lat="48.85737" lon="2.34742">
        <ele>95.6</ele>
        <time>2015-06-29T18:20:29.813Z</time>
      </trkpt>
      <trkpt lat="48.85746" lon="2.34744">
        <ele>95.1</ele>
        <time>2015-06-29T18:20:40.773Z</time>
      </trkpt>
      <trkpt lat="48.85748" lon="2.34742">
        <ele>95.1</ele>
        <time>2015-06-29T18:20:41.873Z</time>
      </trkpt>
      <trkpt lat="48.85756" lon="2.34736">
        <ele>95.3</ele>
        <time>2015-06-29T18:20:45.808Z</time>
      </trkpt>
      <trkpt lat="48.85759" lon="2.34734">
        <ele>95.3</ele>
        <time>2015-06-29T18:20:46.819Z</time>
      </trkpt>
      <trkpt lat="48.85768" lon="2.34731">
        <ele>95.6</ele>
        <time>2015-06-29T18:20:48.792Z</time>
      </trkpt>
      <trkpt lat="48.85771" lon="2.3473">
        <ele>95.6</ele>
        <time>2015-06-29T18:20:49.813Z</time>
      </trkpt>
      <trkpt lat="48.85778" lon="2.34729">
        <ele>95.7</ele>
        <time>2015-06-29T18:20:51.865Z</time>
      </trkpt>
      <trkpt lat="48.85783" lon="2.34726">
        <ele>95.4</ele>
        <time>2015-06-29T18:20:52.810Z</time>
      </trkpt>
      <trkpt lat="48.85791" lon="2.34728">
        <ele>95.6</ele>
        <time>2015-06-29T18:20:54.784Z</time>
      </trkpt>
      <trkpt lat="48.85795" lon="2.34729">
        <ele>95.6</ele>
        <time>2015-06-29T18:20:55.792Z</time>
      </trkpt>
      <trkpt lat="48.85803" lon="2.34729">
        <ele>95.9</ele>
        <time>2015-06-29T18:20:57.804Z</time>
      </trkpt>
      <trkpt lat="48.85808" lon="2.3473">
        <ele>96</ele>
        <time>2015-06-29T18:20:58.809Z</time>
      </trkpt>
      <trkpt lat="48.85812" lon="2.3473">
        <ele>96.1</ele>
        <time>2015-06-29T18:20:59.826Z</time>
      </trkpt>
      <trkpt lat="48.85817" lon="2.3473">
        <ele>96.2</ele>
        <time>2015-06-29T18:21:00.832Z</time>
      </trkpt>
      <trkpt lat="48.85822" lon="2.34731">
        <ele>96.3</ele>
        <time>2015-06-29T18:21:01.845Z</time>
      </trkpt>
      <trkpt lat="48.85826" lon="2.34732">
        <ele>96.4</ele>
        <time>2015-06-29T18:21:02.853Z</time>
      </trkpt>
      <trkpt lat="48.85831" lon="2.34733">
        <ele>96.4</ele>
        <time>2015-06-29T18:21:03.796Z</time>
      </trkpt>
      <trkpt lat="48.85835" lon="2.34734">
        <ele>96.4</ele>
        <time>2015-06-29T18:21:04.794Z</time>
      </trkpt>
      <trkpt lat="48.85843" lon="2.34735">
        <ele>96</ele>
        <time>2015-06-29T18:21:06.831Z</time>
      </trkpt>
      <trkpt lat="48.85847" lon="2.34737">
        <ele>95.7</ele>
        <time>2015-06-29T18:21:07.865Z</time>
      </trkpt>
      <trkpt lat="48.85852" lon="2.34739">
        <ele>95</ele>
        <time>2015-06-29T18:21:08.888Z</time>
      </trkpt>
      <trkpt lat="48.85856" lon="2.3474">
        <ele>94.9</ele>
        <time>2015-06-29T18:21:09.810Z</time>
      </trkpt>
      <trkpt lat="48.85864" lon="2.34741">
        <ele>95.2</ele>
        <time>2015-06-29T18:21:12.808Z</time>
      </trkpt>
      <trkpt lat="48.85868" lon="2.3474">
        <ele>95.4</ele>
        <time>2015-06-29T18:21:13.820Z</time>
      </trkpt>
      <trkpt lat="48.85874" lon="2.34735">
        <ele>95.5</ele>
        <time>2015-06-29T18:21:16.782Z</time>
      </trkpt>
      <trkpt lat="48.85876" lon="2.34732">
        <ele>95.7</ele>
        <time>2015-06-29T18:21:17.820Z</time>
      </trkpt>
      <trkpt lat="48.8588" lon="2.34721">
        <ele>96</ele>
        <time>2015-06-29T18:21:20.797Z</time>
      </trkpt>
      <trkpt lat="48.85882" lon="2.34717">
        <ele>96.2</ele>
        <time>2015-06-29T18:21:21.796Z</time>
      </trkpt>
      <trkpt lat="48.85886" lon="2.34707">
        <ele>96.7</ele>
        <time>2015-06-29T18:21:23.746Z</time>
      </trkpt>
      <trkpt lat="48.85889" lon="2.34701">
        <ele>97</ele>
        <time>2015-06-29T18:21:24.773Z</time>
      </trkpt>
      <trkpt lat="48.85891" lon="2.34696">
        <ele>97.4</ele>
        <time>2015-06-29T18:21:25.783Z</time>
      </trkpt>
      <trkpt lat="48.85894" lon="2.3469">
        <ele>97.8</ele>
        <time>2015-06-29T18:21:26.792Z</time>
      </trkpt>
      <trkpt lat="48.85896" lon="2.34686">
        <ele>98.1</ele>
        <time>2015-06-29T18:21:27.800Z</time>
      </trkpt>
      <trkpt lat="48.85898" lon="2.34678">
        <ele>98.1</ele>
        <time>2015-06-29T18:21:28.813Z</time>
      </trkpt>
      <trkpt lat="48.859" lon="2.34671">
        <ele>97.8</ele>
        <time>2015-06-29T18:21:29.744Z</time>
      </trkpt>
      <trkpt lat="48.85902" lon="2.34665">
        <ele>97.7</ele>
        <time>2015-06-29T18:21:30.724Z</time>
      </trkpt>
      <trkpt lat="48.85906" lon="2.34656">
        <ele>98.3</ele>
        <time>2015-06-29T18:21:32.769Z</time>
      </trkpt>
      <trkpt lat="48.85907" lon="2.34653">
        <ele>98.8</ele>
        <time>2015-06-29T18:21:33.784Z</time>
      </trkpt>
      <trkpt lat="48.85911" lon="2.34643">
        <ele>99.8</ele>
        <time>2015-06-29T18:21:36.819Z</time>
      </trkpt>
      <trkpt lat="48.85911" lon="2.34639">
        <ele>99.9</ele>
        <time>2015-06-29T18:21:37.755Z</time>
      </trkpt>
      <trkpt lat="48.85915" lon="2.34628">
        <ele>100.1</ele>
        <time>2015-06-29T18:21:40.812Z</time>
      </trkpt>
      <trkpt lat="48.85918" lon="2.34623">
        <ele>100.2</ele>
        <time>2015-06-29T18:21:41.926Z</time>
      </trkpt>
      <trkpt lat="48.85922" lon="2.34618">
        <ele>100.3</ele>
        <time>2015-06-29T18:21:42.780Z</time>
      </trkpt>
      <trkpt lat="48.85925" lon="2.34611">
        <ele>100.1</ele>
        <time>2015-06-29T18:21:43.773Z</time>
      </trkpt>
      <trkpt lat="48.85928" lon="2.34605">
        <ele>100</ele>
        <time>2015-06-29T18:21:44.792Z</time>
      </trkpt>
      <trkpt lat="48.85931" lon="2.34599">
        <ele>99.9</ele>
        <time>2015-06-29T18:21:45.793Z</time>
      </trkpt>
      <trkpt lat="48.85933" lon="2.34592">
        <ele>99.6</ele>
        <time>2015-06-29T18:21:46.798Z</time>
      </trkpt>
      <trkpt lat="48.85936" lon="2.34586">
        <ele>99.5</ele>
        <time>2015-06-29T18:21:47.726Z</time>
      </trkpt>
      <trkpt lat="48.85939" lon="2.3458">
        <ele>99.7</ele>
        <time>2015-06-29T18:21:48.732Z</time>
      </trkpt>
      <trkpt lat="48.85941" lon="2.34574">
        <ele>100.1</ele>
        <time>2015-06-29T18:21:49.719Z</time>
      </trkpt>
      <trkpt lat="48.85945" lon="2.34569">
        <ele>100.3</ele>
        <time>2015-06-29T18:21:50.768Z</time>
      </trkpt>
      <trkpt lat="48.85947" lon="2.34563">
        <ele>100.5</ele>
        <time>2015-06-29T18:21:51.775Z</time>
      </trkpt>
      <trkpt lat="48.85948" lon="2.34555">
        <ele>100.5</ele>
        <time>2015-06-29T18:21:52.783Z</time>
      </trkpt>
      <trkpt lat="48.85949" lon="2.34547">
        <ele>100.7</ele>
        <time>2015-06-29T18:21:53.785Z</time>
      </trkpt>
      <trkpt lat="48.85952" lon="2.34541">
        <ele>100.9</ele>
        <time>2015-06-29T18:21:54.805Z</time>
      </trkpt>
      <trkpt lat="48.85955" lon="2.34534">
        <ele>101.2</ele>
        <time>2015-06-29T18:21:55.832Z</time>
      </trkpt>
      <trkpt lat="48.85958" lon="2.34529">
        <ele>101.4</ele>
        <time>2015-06-29T18:21:56.807Z</time>
      </trkpt>
      <trkpt lat="48.85962" lon="2.34524">
        <ele>101.4</ele>
        <time>2015-06-29T18:21:57.730Z</time>
      </trkpt>
      <trkpt lat="48.85964" lon="2.34517">
        <ele>101.1</ele>
        <time>2015-06-29T18:21:58.738Z</time>
      </trkpt>
      <trkpt lat="48.85966" lon="2.34508">
        <ele>100.6</ele>
        <time>2015-06-29T18:21:59.744Z</time>
      </trkpt>
      <trkpt lat="48.85969" lon="2.34501">
        <ele>100.7</ele>
        <time>2015-06-29T18:22:00.751Z</time>
      </trkpt>
      <trkpt lat="48.85971" lon="2.34494">
        <ele>100.8</ele>
        <time>2015-06-29T18:22:01.764Z</time>
      </trkpt>
      <trkpt lat="48.85973" lon="2.34488">
        <ele>100.9</ele>
        <time>2015-06-29T18:22:02.778Z</time>
      </trkpt>
      <trkpt lat="48.85975" lon="2.34481">
        <ele>100.8</ele>
        <time>2015-06-29T18:22:03.788Z</time>
      </trkpt>
      <trkpt lat="48.85976" lon="2.34474">
        <ele>100.7</ele>
        <time>2015-06-29T18:22:04.798Z</time>
      </trkpt>
      <trkpt lat="48.85977" lon="2.34467">
        <ele>100.5</ele>
        <time>2015-06-29T18:22:05.804Z</time>
      </trkpt>
      <trkpt lat="48.85979" lon="2.3446">
        <ele>101.1</ele>
        <time>2015-06-29T18:22:06.810Z</time>
      </trkpt>
      <trkpt lat="48.85981" lon="2.34453">
        <ele>101.7</ele>
        <time>2015-06-29T18:22:07.733Z</time>
      </trkpt>
      <trkpt lat="48.85984" lon="2.34445">
        <ele>102.2</ele>
        <time>2015-06-29T18:22:08.768Z</time>
      </trkpt>
      <trkpt lat="48.85984" lon="2.34435">
        <ele>102.4</ele>
        <time>2015-06-29T18:22:09.775Z</time>
      </trkpt>
      <trkpt lat="48.85985" lon="2.34424">
        <ele>102.5</ele>
        <time>2015-06-29T18:22:10.791Z</time>
      </trkpt>
      <trkpt lat="48.85985" lon="2.34416">
        <ele>102.6</ele>
        <time>2015-06-29T18:22:11.799Z</time>
      </trkpt>
      <trkpt lat="48.85987" lon="2.34408">
        <ele>102.6</ele>
        <time>2015-06-29T18:22:12.807Z</time>
      </trkpt>
      <trkpt lat="48.85989" lon="2.34401">
        <ele>103</ele>
        <time>2015-06-29T18:22:13.813Z</time>
      </trkpt>
      <trkpt lat="48.85992" lon="2.34394">
        <ele>103.1</ele>
        <time>2015-06-29T18:22:14.810Z</time>
      </trkpt>
      <trkpt lat="48.85993" lon="2.34387">
        <ele>103</ele>
        <time>2015-06-29T18:22:15.802Z</time>
      </trkpt>
      <trkpt lat="48.85996" lon="2.3438">
        <ele>103.2</ele>
        <time>2015-06-29T18:22:16.818Z</time>
      </trkpt>
      <trkpt lat="48.85998" lon="2.34371">
        <ele>103.6</ele>
        <time>2015-06-29T18:22:17.842Z</time>
      </trkpt>
      <trkpt lat="48.86" lon="2.34361">
        <ele>103.6</ele>
        <time>2015-06-29T18:22:18.746Z</time>
      </trkpt>
      <trkpt lat="48.86001" lon="2.34352">
        <ele>103.7</ele>
        <time>2015-06-29T18:22:19.767Z</time>
      </trkpt>
      <trkpt lat="48.86003" lon="2.34343">
        <ele>103.7</ele>
        <time>2015-06-29T18:22:20.798Z</time>
      </trkpt>
      <trkpt lat="48.86004" lon="2.34335">
        <ele>103.7</ele>
        <time>2015-06-29T18:22:21.806Z</time>
      </trkpt>
      <trkpt lat="48.86007" lon="2.34327">
        <ele>103.6</ele>
        <time>2015-06-29T18:22:22.899Z</time>
      </trkpt>
      <trkpt lat="48.8601" lon="2.34319">
        <ele>103.7</ele>
        <time>2015-06-29T18:22:23.717Z</time>
      </trkpt>
      <trkpt lat="48.86012" lon="2.34311">
        <ele>103.6</ele>
        <time>2015-06-29T18:22:24.730Z</time>
      </trkpt>
      <trkpt lat="48.86014" lon="2.34304">
        <ele>103.4</ele>
        <time>2015-06-29T18:22:25.761Z</time>
      </trkpt>
      <trkpt lat="48.86017" lon="2.34296">
        <ele>103.5</ele>
        <time>2015-06-29T18:22:26.817Z</time>
      </trkpt>
      <trkpt lat="48.86018" lon="2.34287">
        <ele>103.5</ele>
        <time>2015-06-29T18:22:27.845Z</time>
      </trkpt>
      <trkpt lat="48.8602" lon="2.3428">
        <ele>103.5</ele>
        <time>2015-06-29T18:22:28.742Z</time>
      </trkpt>
      <trkpt lat="48.86023" lon="2.34272">
        <ele>103.6</ele>
        <time>2015-06-29T18:22:29.747Z</time>
      </trkpt>
      <trkpt lat="48.86026" lon="2.34263">
        <ele>103.8</ele>
        <time>2015-06-29T18:22:30.762Z</time>
      </trkpt>
      <trkpt lat="48.86028" lon="2.34255">
        <ele>103.9</ele>
        <time>2015-06-29T18:22:31.763Z</time>
      </trkpt>
      <trkpt lat="48.86032" lon="2.34247">
        <ele>103.9</ele>
        <time>2015-06-29T18:22:32.781Z</time>
      </trkpt>
      <trkpt lat="48.86035" lon="2.34239">
        <ele>103.9</ele>
        <time>2015-06-29T18:22:33.788Z</time>
      </trkpt>
      <trkpt lat="48.86036" lon="2.3423">
        <ele>104.3</ele>
        <time>2015-06-29T18:22:34.796Z</time>
      </trkpt>
      <trkpt lat="48.86038" lon="2.34224">
        <ele>104.3</ele>
        <time>2015-06-29T18:22:35.814Z</time>
      </trkpt>
      <trkpt lat="48.86039" lon="2.34217">
        <ele>104.8</ele>
        <time>2015-06-29T18:22:36.830Z</time>
      </trkpt>
      <trkpt lat="48.86041" lon="2.34209">
        <ele>104.9</ele>
        <time>2015-06-29T18:22:37.752Z</time>
      </trkpt>
      <trkpt lat="48.86043" lon="2.34203">
        <ele>104.9</ele>
        <time>2015-06-29T18:22:38.881Z</time>
      </trkpt>
      <trkpt lat="48.86045" lon="2.34196">
        <ele>104.8</ele>
        <time>2015-06-29T18:22:39.748Z</time>
      </trkpt>
      <trkpt lat="48.86047" lon="2.34188">
        <ele>104.7</ele>
        <time>2015-06-29T18:22:40.756Z</time>
      </trkpt>
      <trkpt lat="48.86049" lon="2.34181">
        <ele>104.6</ele>
        <time>2015-06-29T18:22:41.773Z</time>
      </trkpt>
      <trkpt lat="48.86052" lon="2.34174">
        <ele>104.7</ele>
        <time>2015-06-29T18:22:42.782Z</time>
      </trkpt>
      <trkpt lat="48.86055" lon="2.34167">
        <ele>104.7</ele>
        <time>2015-06-29T18:22:43.791Z</time>
      </trkpt>
      <trkpt lat="48.86057" lon="2.3416">
        <ele>104.8</ele>
        <time>2015-06-29T18:22:44.797Z</time>
      </trkpt>
      <trkpt lat="48.86061" lon="2.34153">
        <ele>104.7</ele>
        <time>2015-06-29T18:22:45.811Z</time>
      </trkpt>
      <trkpt lat="48.86064" lon="2.34146">
        <ele>104.7</ele>
        <time>2015-06-29T18:22:46.819Z</time>
      </trkpt>
      <trkpt lat="48.86068" lon="2.3414">
        <ele>104.5</ele>
        <time>2015-06-29T18:22:47.741Z</time>
      </trkpt>
      <trkpt lat="48.86072" lon="2.34134">
        <ele>104.4</ele>
        <time>2015-06-29T18:22:48.751Z</time>
      </trkpt>
      <trkpt lat="48.86075" lon="2.34128">
        <ele>104.5</ele>
        <time>2015-06-29T18:22:49.760Z</time>
      </trkpt>
      <trkpt lat="48.86078" lon="2.34122">
        <ele>104.4</ele>
        <time>2015-06-29T18:22:50.789Z</time>
      </trkpt>
      <trkpt lat="48.8608" lon="2.34115">
        <ele>104.3</ele>
        <time>2015-06-29T18:22:51.792Z</time>
      </trkpt>
      <trkpt lat="48.86084" lon="2.34107">
        <ele>103.3</ele>
        <time>2015-06-29T18:22:52.808Z</time>
      </trkpt>
      <trkpt lat="48.86086" lon="2.341">
        <ele>102.8</ele>
        <time>2015-06-29T18:22:53.817Z</time>
      </trkpt>
      <trkpt lat="48.8609" lon="2.3409">
        <ele>102.2</ele>
        <time>2015-06-29T18:22:55.744Z</time>
      </trkpt>
      <trkpt lat="48.86091" lon="2.34087">
        <ele>102.4</ele>
        <time>2015-06-29T18:22:56.817Z</time>
      </trkpt>
      <trkpt lat="48.86093" lon="2.34083">
        <ele>101.5</ele>
        <time>2015-06-29T18:22:59.791Z</time>
      </trkpt>
      <trkpt lat="48.86092" lon="2.34083">
        <ele>101.4</ele>
        <time>2015-06-29T18:23:00.804Z</time>
      </trkpt>
      <trkpt lat="48.86092" lon="2.34084">
        <ele>101.2</ele>
        <time>2015-06-29T18:23:06.792Z</time>
      </trkpt>
      <trkpt lat="48.86094" lon="2.34085">
        <ele>100.9</ele>
        <time>2015-06-29T18:23:07.802Z</time>
      </trkpt>
      <trkpt lat="48.86094" lon="2.34087">
        <ele>100.4</ele>
        <time>2015-06-29T18:23:14.819Z</time>
      </trkpt>
      <trkpt lat="48.86093" lon="2.34087">
        <ele>100.3</ele>
        <time>2015-06-29T18:23:15.834Z</time>
      </trkpt>
      <trkpt lat="48.86092" lon="2.34087">
        <ele>100.3</ele>
        <time>2015-06-29T18:23:20.873Z</time>
      </trkpt>
      <trkpt lat="48.86091" lon="2.34085">
        <ele>100.2</ele>
        <time>2015-06-29T18:23:21.796Z</time>
      </trkpt>
      <trkpt lat="48.86095" lon="2.34075">
        <ele>99.5</ele>
        <time>2015-06-29T18:23:24.794Z</time>
      </trkpt>
      <trkpt lat="48.86097" lon="2.3407">
        <ele>98.8</ele>
        <time>2015-06-29T18:23:25.856Z</time>
      </trkpt>
      <trkpt lat="48.861" lon="2.34059">
        <ele>98.7</ele>
        <time>2015-06-29T18:23:27.726Z</time>
      </trkpt>
      <trkpt lat="48.86102" lon="2.34054">
        <ele>98.6</ele>
        <time>2015-06-29T18:23:28.795Z</time>
      </trkpt>
      <trkpt lat="48.86105" lon="2.34043">
        <ele>98.6</ele>
        <time>2015-06-29T18:23:30.776Z</time>
      </trkpt>
      <trkpt lat="48.86107" lon="2.34037">
        <ele>98.4</ele>
        <time>2015-06-29T18:23:31.835Z</time>
      </trkpt>
      <trkpt lat="48.86109" lon="2.3403">
        <ele>98.3</ele>
        <time>2015-06-29T18:23:32.852Z</time>
      </trkpt>
      <trkpt lat="48.8611" lon="2.34024">
        <ele>98.2</ele>
        <time>2015-06-29T18:23:33.733Z</time>
      </trkpt>
      <trkpt lat="48.86112" lon="2.34018">
        <ele>98</ele>
        <time>2015-06-29T18:23:34.731Z</time>
      </trkpt>
      <trkpt lat="48.86114" lon="2.34011">
        <ele>97.9</ele>
        <time>2015-06-29T18:23:35.743Z</time>
      </trkpt>
      <trkpt lat="48.86116" lon="2.34003">
        <ele>97.7</ele>
        <time>2015-06-29T18:23:36.756Z</time>
      </trkpt>
      <trkpt lat="48.86118" lon="2.33996">
        <ele>97.6</ele>
        <time>2015-06-29T18:23:37.760Z</time>
      </trkpt>
      <trkpt lat="48.8612" lon="2.33989">
        <ele>97.5</ele>
        <time>2015-06-29T18:23:38.774Z</time>
      </trkpt>
      <trkpt lat="48.86121" lon="2.33982">
        <ele>97.5</ele>
        <time>2015-06-29T18:23:39.793Z</time>
      </trkpt>
      <trkpt lat="48.86124" lon="2.33975">
        <ele>97.6</ele>
        <time>2015-06-29T18:23:40.811Z</time>
      </trkpt>
      <trkpt lat="48.86126" lon="2.33968">
        <ele>97.6</ele>
        <time>2015-06-29T18:23:41.772Z</time>
      </trkpt>
      <trkpt lat="48.86128" lon="2.3396">
        <ele>97.7</ele>
        <time>2015-06-29T18:23:42.724Z</time>
      </trkpt>
      <trkpt lat="48.86131" lon="2.33953">
        <ele>97.6</ele>
        <time>2015-06-29T18:23:43.726Z</time>
      </trkpt>
      <trkpt lat="48.86133" lon="2.33946">
        <ele>97.5</ele>
        <time>2015-06-29T18:23:44.756Z</time>
      </trkpt>
      <trkpt lat="48.86135" lon="2.33939">
        <ele>97.5</ele>
        <time>2015-06-29T18:23:45.746Z</time>
      </trkpt>
      <trkpt lat="48.86137" lon="2.33932">
        <ele>97.4</ele>
        <time>2015-06-29T18:23:46.760Z</time>
      </trkpt>
      <trkpt lat="48.8614" lon="2.33924">
        <ele>97.4</ele>
        <time>2015-06-29T18:23:47.770Z</time>
      </trkpt>
      <trkpt lat="48.86142" lon="2.33917">
        <ele>97.3</ele>
        <time>2015-06-29T18:23:48.786Z</time>
      </trkpt>
      <trkpt lat="48.86145" lon="2.33909">
        <ele>97.3</ele>
        <time>2015-06-29T18:23:49.795Z</time>
      </trkpt>
      <trkpt lat="48.86147" lon="2.33902">
        <ele>97.3</ele>
        <time>2015-06-29T18:23:50.837Z</time>
      </trkpt>
      <trkpt lat="48.86149" lon="2.33894">
        <ele>97.3</ele>
        <time>2015-06-29T18:23:51.709Z</time>
      </trkpt>
      <trkpt lat="48.86152" lon="2.33887">
        <ele>97.2</ele>
        <time>2015-06-29T18:23:52.754Z</time>
      </trkpt>
      <trkpt lat="48.86154" lon="2.33879">
        <ele>97.2</ele>
        <time>2015-06-29T18:23:53.770Z</time>
      </trkpt>
      <trkpt lat="48.86156" lon="2.33871">
        <ele>97.2</ele>
        <time>2015-06-29T18:23:54.783Z</time>
      </trkpt>
      <trkpt lat="48.86158" lon="2.33864">
        <ele>97.2</ele>
        <time>2015-06-29T18:23:55.802Z</time>
      </trkpt>
      <trkpt lat="48.8616" lon="2.33856">
        <ele>97.3</ele>
        <time>2015-06-29T18:23:56.823Z</time>
      </trkpt>
      <trkpt lat="48.86163" lon="2.33848">
        <ele>97.5</ele>
        <time>2015-06-29T18:23:57.721Z</time>
      </trkpt>
      <trkpt lat="48.86165" lon="2.3384">
        <ele>97.6</ele>
        <time>2015-06-29T18:23:58.725Z</time>
      </trkpt>
      <trkpt lat="48.86167" lon="2.33832">
        <ele>97.7</ele>
        <time>2015-06-29T18:23:59.732Z</time>
      </trkpt>
      <trkpt lat="48.8617" lon="2.33824">
        <ele>97.9</ele>
        <time>2015-06-29T18:24:00.747Z</time>
      </trkpt>
      <trkpt lat="48.86172" lon="2.33817">
        <ele>97.9</ele>
        <time>2015-06-29T18:24:01.762Z</time>
      </trkpt>
      <trkpt lat="48.86174" lon="2.3381">
        <ele>98</ele>
        <time>2015-06-29T18:24:02.785Z</time>
      </trkpt>
      <trkpt lat="48.86177" lon="2.33803">
        <ele>98.1</ele>
        <time>2015-06-29T18:24:03.790Z</time>
      </trkpt>
      <trkpt lat="48.86179" lon="2.33796">
        <ele>98.1</ele>
        <time>2015-06-29T18:24:04.688Z</time>
      </trkpt>
      <trkpt lat="48.86183" lon="2.33789">
        <ele>98.2</ele>
        <time>2015-06-29T18:24:05.705Z</time>
      </trkpt>
      <trkpt lat="48.86186" lon="2.33781">
        <ele>98.1</ele>
        <time>2015-06-29T18:24:06.718Z</time>
      </trkpt>
      <trkpt lat="48.86189" lon="2.33773">
        <ele>98.2</ele>
        <time>2015-06-29T18:24:07.730Z</time>
      </trkpt>
      <trkpt lat="48.86192" lon="2.33765">
        <ele>98.2</ele>
        <time>2015-06-29T18:24:08.735Z</time>
      </trkpt>
      <trkpt lat="48.86207" lon="2.3372">
        <ele>98.3</ele>
        <time>2015-06-29T18:24:14.807Z</time>
      </trkpt>
      <trkpt lat="48.8621" lon="2.33712">
        <ele>98.4</ele>
        <time>2015-06-29T18:24:15.714Z</time>
      </trkpt>
      <trkpt lat="48.86213" lon="2.33706">
        <ele>98.5</ele>
        <time>2015-06-29T18:24:16.725Z</time>
      </trkpt>
      <trkpt lat="48.86216" lon="2.33699">
        <ele>98.6</ele>
        <time>2015-06-29T18:24:17.770Z</time>
      </trkpt>
      <trkpt lat="48.8622" lon="2.33691">
        <ele>98.8</ele>
        <time>2015-06-29T18:24:18.787Z</time>
      </trkpt>
      <trkpt lat="48.86223" lon="2.33685">
        <ele>98.8</ele>
        <time>2015-06-29T18:24:19.786Z</time>
      </trkpt>
      <trkpt lat="48.86225" lon="2.33678">
        <ele>98.8</ele>
        <time>2015-06-29T18:24:20.792Z</time>
      </trkpt>
      <trkpt lat="48.8623" lon="2.33667">
        <ele>99</ele>
        <time>2015-06-29T18:24:22.721Z</time>
      </trkpt>
      <trkpt lat="48.86232" lon="2.33662">
        <ele>98.8</ele>
        <time>2015-06-29T18:24:23.742Z</time>
      </trkpt>
      <trkpt lat="48.86234" lon="2.33656">
        <ele>98.7</ele>
        <time>2015-06-29T18:24:24.772Z</time>
      </trkpt>
      <trkpt lat="48.86237" lon="2.3365">
        <ele>98.8</ele>
        <time>2015-06-29T18:24:25.782Z</time>
      </trkpt>
      <trkpt lat="48.86239" lon="2.33643">
        <ele>99</ele>
        <time>2015-06-29T18:24:26.792Z</time>
      </trkpt>
      <trkpt lat="48.86242" lon="2.33637">
        <ele>99</ele>
        <time>2015-06-29T18:24:27.801Z</time>
      </trkpt>
      <trkpt lat="48.86245" lon="2.3363">
        <ele>99.1</ele>
        <time>2015-06-29T18:24:28.717Z</time>
      </trkpt>
      <trkpt lat="48.86247" lon="2.33623">
        <ele>99.4</ele>
        <time>2015-06-29T18:24:29.719Z</time>
      </trkpt>
      <trkpt lat="48.86249" lon="2.33616">
        <ele>99.5</ele>
        <time>2015-06-29T18:24:30.721Z</time>
      </trkpt>
      <trkpt lat="48.86252" lon="2.33609">
        <ele>99.7</ele>
        <time>2015-06-29T18:24:31.737Z</time>
      </trkpt>
      <trkpt lat="48.86254" lon="2.33602">
        <ele>99.9</ele>
        <time>2015-06-29T18:24:32.738Z</time>
      </trkpt>
      <trkpt lat="48.86256" lon="2.33595">
        <ele>100.1</ele>
        <time>2015-06-29T18:24:33.842Z</time>
      </trkpt>
      <trkpt lat="48.86257" lon="2.33588">
        <ele>100.5</ele>
        <time>2015-06-29T18:24:34.762Z</time>
      </trkpt>
      <trkpt lat="48.86259" lon="2.3358">
        <ele>100.9</ele>
        <time>2015-06-29T18:24:35.786Z</time>
      </trkpt>
      <trkpt lat="48.86261" lon="2.33572">
        <ele>101.1</ele>
        <time>2015-06-29T18:24:36.805Z</time>
      </trkpt>
      <trkpt lat="48.86263" lon="2.33565">
        <ele>101.3</ele>
        <time>2015-06-29T18:24:37.812Z</time>
      </trkpt>
      <trkpt lat="48.86265" lon="2.33558">
        <ele>101.6</ele>
        <time>2015-06-29T18:24:38.842Z</time>
      </trkpt>
      <trkpt lat="48.86268" lon="2.3355">
        <ele>101.5</ele>
        <time>2015-06-29T18:24:39.765Z</time>
      </trkpt>
      <trkpt lat="48.8627" lon="2.33543">
        <ele>101.5</ele>
        <time>2015-06-29T18:24:40.783Z</time>
      </trkpt>
      <trkpt lat="48.86273" lon="2.33535">
        <ele>101.5</ele>
        <time>2015-06-29T18:24:41.782Z</time>
      </trkpt>
      <trkpt lat="48.86276" lon="2.33527">
        <ele>101.5</ele>
        <time>2015-06-29T18:24:42.794Z</time>
      </trkpt>
      <trkpt lat="48.86278" lon="2.33519">
        <ele>101.4</ele>
        <time>2015-06-29T18:24:43.719Z</time>
      </trkpt>
      <trkpt lat="48.86279" lon="2.33512">
        <ele>100.9</ele>
        <time>2015-06-29T18:24:44.738Z</time>
      </trkpt>
      <trkpt lat="48.8628" lon="2.33504">
        <ele>100.6</ele>
        <time>2015-06-29T18:24:45.842Z</time>
      </trkpt>
      <trkpt lat="48.86282" lon="2.33496">
        <ele>100.4</ele>
        <time>2015-06-29T18:24:46.734Z</time>
      </trkpt>
      <trkpt lat="48.86284" lon="2.33488">
        <ele>100.4</ele>
        <time>2015-06-29T18:24:47.746Z</time>
      </trkpt>
      <trkpt lat="48.86284" lon="2.3348">
        <ele>100</ele>
        <time>2015-06-29T18:24:48.749Z</time>
      </trkpt>
      <trkpt lat="48.86285" lon="2.33472">
        <ele>99.7</ele>
        <time>2015-06-29T18:24:49.768Z</time>
      </trkpt>
      <trkpt lat="48.86287" lon="2.33464">
        <ele>99.4</ele>
        <time>2015-06-29T18:24:50.777Z</time>
      </trkpt>
      <trkpt lat="48.8629" lon="2.33457">
        <ele>99.3</ele>
        <time>2015-06-29T18:24:51.777Z</time>
      </trkpt>
      <trkpt lat="48.86293" lon="2.3345">
        <ele>98.9</ele>
        <time>2015-06-29T18:24:52.790Z</time>
      </trkpt>
      <trkpt lat="48.86296" lon="2.33443">
        <ele>98.9</ele>
        <time>2015-06-29T18:24:53.708Z</time>
      </trkpt>
      <trkpt lat="48.86298" lon="2.33436">
        <ele>98.8</ele>
        <time>2015-06-29T18:24:54.707Z</time>
      </trkpt>
      <trkpt lat="48.86299" lon="2.33429">
        <ele>98.6</ele>
        <time>2015-06-29T18:24:55.711Z</time>
      </trkpt>
      <trkpt lat="48.86301" lon="2.33422">
        <ele>98.5</ele>
        <time>2015-06-29T18:24:56.739Z</time>
      </trkpt>
      <trkpt lat="48.86303" lon="2.33416">
        <ele>98.4</ele>
        <time>2015-06-29T18:24:57.729Z</time>
      </trkpt>
      <trkpt lat="48.86305" lon="2.33409">
        <ele>98.4</ele>
        <time>2015-06-29T18:24:58.747Z</time>
      </trkpt>
      <trkpt lat="48.86307" lon="2.33402">
        <ele>98.4</ele>
        <time>2015-06-29T18:24:59.753Z</time>
      </trkpt>
      <trkpt lat="48.8631" lon="2.33396">
        <ele>98.7</ele>
        <time>2015-06-29T18:25:00.766Z</time>
      </trkpt>
      <trkpt lat="48.86312" lon="2.33389">
        <ele>98.8</ele>
        <time>2015-06-29T18:25:01.772Z</time>
      </trkpt>
      <trkpt lat="48.86314" lon="2.33382">
        <ele>98.8</ele>
        <time>2015-06-29T18:25:02.782Z</time>
      </trkpt>
      <trkpt lat="48.86316" lon="2.33375">
        <ele>98.7</ele>
        <time>2015-06-29T18:25:03.790Z</time>
      </trkpt>
      <trkpt lat="48.8632" lon="2.33364">
        <ele>98.8</ele>
        <time>2015-06-29T18:25:05.698Z</time>
      </trkpt>
      <trkpt lat="48.86321" lon="2.33358">
        <ele>98.9</ele>
        <time>2015-06-29T18:25:06.797Z</time>
      </trkpt>
      <trkpt lat="48.86324" lon="2.33345">
        <ele>99.1</ele>
        <time>2015-06-29T18:25:08.830Z</time>
      </trkpt>
      <trkpt lat="48.86325" lon="2.33338">
        <ele>99.3</ele>
        <time>2015-06-29T18:25:09.729Z</time>
      </trkpt>
      <trkpt lat="48.86327" lon="2.33331">
        <ele>99.3</ele>
        <time>2015-06-29T18:25:10.770Z</time>
      </trkpt>
      <trkpt lat="48.86329" lon="2.33325">
        <ele>99.3</ele>
        <time>2015-06-29T18:25:11.769Z</time>
      </trkpt>
      <trkpt lat="48.8633" lon="2.33317">
        <ele>99.5</ele>
        <time>2015-06-29T18:25:12.783Z</time>
      </trkpt>
      <trkpt lat="48.86333" lon="2.3331">
        <ele>99.6</ele>
        <time>2015-06-29T18:25:13.792Z</time>
      </trkpt>
      <trkpt lat="48.86335" lon="2.33303">
        <ele>99.5</ele>
        <time>2015-06-29T18:25:14.803Z</time>
      </trkpt>
      <trkpt lat="48.86338" lon="2.33296">
        <ele>99.8</ele>
        <time>2015-06-29T18:25:15.720Z</time>
      </trkpt>
      <trkpt lat="48.8634" lon="2.3329">
        <ele>99.8</ele>
        <time>2015-06-29T18:25:16.728Z</time>
      </trkpt>
      <trkpt lat="48.86343" lon="2.33283">
        <ele>99.1</ele>
        <time>2015-06-29T18:25:17.730Z</time>
      </trkpt>
      <trkpt lat="48.86347" lon="2.33275">
        <ele>98.7</ele>
        <time>2015-06-29T18:25:19.754Z</time>
      </trkpt>
      <trkpt lat="48.86348" lon="2.33271">
        <ele>98.8</ele>
        <time>2015-06-29T18:25:20.792Z</time>
      </trkpt>
      <trkpt lat="48.8635" lon="2.33263">
        <ele>98.8</ele>
        <time>2015-06-29T18:25:22.729Z</time>
      </trkpt>
      <trkpt lat="48.86352" lon="2.33257">
        <ele>98.8</ele>
        <time>2015-06-29T18:25:23.743Z</time>
      </trkpt>
      <trkpt lat="48.86354" lon="2.33245">
        <ele>98.2</ele>
        <time>2015-06-29T18:25:25.809Z</time>
      </trkpt>
      <trkpt lat="48.86356" lon="2.3324">
        <ele>97.7</ele>
        <time>2015-06-29T18:25:26.813Z</time>
      </trkpt>
      <trkpt lat="48.86355" lon="2.33229">
        <ele>97.4</ele>
        <time>2015-06-29T18:25:29.762Z</time>
      </trkpt>
      <trkpt lat="48.86358" lon="2.33225">
        <ele>95.9</ele>
        <time>2015-06-29T18:25:30.777Z</time>
      </trkpt>
      <trkpt lat="48.8636" lon="2.33213">
        <ele>96.3</ele>
        <time>2015-06-29T18:25:44.816Z</time>
      </trkpt>
      <trkpt lat="48.86359" lon="2.3321">
        <ele>96</ele>
        <time>2015-06-29T18:25:45.769Z</time>
      </trkpt>
      <trkpt lat="48.86364" lon="2.33202">
        <ele>94.1</ele>
        <time>2015-06-29T18:25:47.807Z</time>
      </trkpt>
      <trkpt lat="48.86368" lon="2.33196">
        <ele>93.8</ele>
        <time>2015-06-29T18:25:48.816Z</time>
      </trkpt>
      <trkpt lat="48.86373" lon="2.33191">
        <ele>93.3</ele>
        <time>2015-06-29T18:25:49.858Z</time>
      </trkpt>
      <trkpt lat="48.86376" lon="2.33185">
        <ele>92.6</ele>
        <time>2015-06-29T18:25:50.885Z</time>
      </trkpt>
      <trkpt lat="48.8638" lon="2.33179">
        <ele>92.4</ele>
        <time>2015-06-29T18:25:51.750Z</time>
      </trkpt>
      <trkpt lat="48.86383" lon="2.33174">
        <ele>92.4</ele>
        <time>2015-06-29T18:25:52.762Z</time>
      </trkpt>
      <trkpt lat="48.86385" lon="2.33168">
        <ele>92.7</ele>
        <time>2015-06-29T18:25:53.776Z</time>
      </trkpt>
      <trkpt lat="48.86387" lon="2.33161">
        <ele>92.3</ele>
        <time>2015-06-29T18:25:54.780Z</time>
      </trkpt>
      <trkpt lat="48.86389" lon="2.33155">
        <ele>91.9</ele>
        <time>2015-06-29T18:25:55.792Z</time>
      </trkpt>
      <trkpt lat="48.86392" lon="2.33148">
        <ele>91.9</ele>
        <time>2015-06-29T18:25:56.828Z</time>
      </trkpt>
      <trkpt lat="48.86394" lon="2.33141">
        <ele>91.9</ele>
        <time>2015-06-29T18:25:57.830Z</time>
      </trkpt>
      <trkpt lat="48.86396" lon="2.33135">
        <ele>91.8</ele>
        <time>2015-06-29T18:25:58.836Z</time>
      </trkpt>
      <trkpt lat="48.86398" lon="2.33129">
        <ele>91.3</ele>
        <time>2015-06-29T18:25:59.791Z</time>
      </trkpt>
      <trkpt lat="48.864" lon="2.33123">
        <ele>90.9</ele>
        <time>2015-06-29T18:26:00.771Z</time>
      </trkpt>
      <trkpt lat="48.86403" lon="2.33117">
        <ele>91.1</ele>
        <time>2015-06-29T18:26:01.784Z</time>
      </trkpt>
      <trkpt lat="48.86405" lon="2.33111">
        <ele>91.3</ele>
        <time>2015-06-29T18:26:02.826Z</time>
      </trkpt>
      <trkpt lat="48.86409" lon="2.331">
        <ele>91.5</ele>
        <time>2015-06-29T18:26:04.765Z</time>
      </trkpt>
      <trkpt lat="48.8641" lon="2.33093">
        <ele>91.7</ele>
        <time>2015-06-29T18:26:05.780Z</time>
      </trkpt>
      <trkpt lat="48.86413" lon="2.3308">
        <ele>92.2</ele>
        <time>2015-06-29T18:26:07.767Z</time>
      </trkpt>
      <trkpt lat="48.86414" lon="2.33074">
        <ele>92.3</ele>
        <time>2015-06-29T18:26:08.835Z</time>
      </trkpt>
      <trkpt lat="48.86417" lon="2.33063">
        <ele>92.5</ele>
        <time>2015-06-29T18:26:10.789Z</time>
      </trkpt>
      <trkpt lat="48.86419" lon="2.33057">
        <ele>92.6</ele>
        <time>2015-06-29T18:26:11.758Z</time>
      </trkpt>
      <trkpt lat="48.86422" lon="2.3305">
        <ele>93.1</ele>
        <time>2015-06-29T18:26:12.776Z</time>
      </trkpt>
      <trkpt lat="48.86424" lon="2.33043">
        <ele>93.2</ele>
        <time>2015-06-29T18:26:13.789Z</time>
      </trkpt>
      <trkpt lat="48.86426" lon="2.33037">
        <ele>93.3</ele>
        <time>2015-06-29T18:26:14.817Z</time>
      </trkpt>
      <trkpt lat="48.86429" lon="2.33031">
        <ele>93.1</ele>
        <time>2015-06-29T18:26:15.826Z</time>
      </trkpt>
      <trkpt lat="48.86431" lon="2.33026">
        <ele>93.2</ele>
        <time>2015-06-29T18:26:16.836Z</time>
      </trkpt>
      <trkpt lat="48.86434" lon="2.33019">
        <ele>93.5</ele>
        <time>2015-06-29T18:26:17.751Z</time>
      </trkpt>
      <trkpt lat="48.86435" lon="2.33012">
        <ele>93.6</ele>
        <time>2015-06-29T18:26:18.759Z</time>
      </trkpt>
      <trkpt lat="48.86436" lon="2.33006">
        <ele>93.6</ele>
        <time>2015-06-29T18:26:19.792Z</time>
      </trkpt>
      <trkpt lat="48.86439" lon="2.32993">
        <ele>93.5</ele>
        <time>2015-06-29T18:26:21.823Z</time>
      </trkpt>
      <trkpt lat="48.86441" lon="2.32988">
        <ele>93.6</ele>
        <time>2015-06-29T18:26:22.820Z</time>
      </trkpt>
      <trkpt lat="48.86443" lon="2.32981">
        <ele>93.5</ele>
        <time>2015-06-29T18:26:23.732Z</time>
      </trkpt>
      <trkpt lat="48.86446" lon="2.32974">
        <ele>93.5</ele>
        <time>2015-06-29T18:26:24.752Z</time>
      </trkpt>
      <trkpt lat="48.86448" lon="2.32965">
        <ele>93.5</ele>
        <time>2015-06-29T18:26:25.780Z</time>
      </trkpt>
      <trkpt lat="48.8645" lon="2.32957">
        <ele>93.4</ele>
        <time>2015-06-29T18:26:26.807Z</time>
      </trkpt>
      <trkpt lat="48.86452" lon="2.3295">
        <ele>93.4</ele>
        <time>2015-06-29T18:26:27.809Z</time>
      </trkpt>
      <trkpt lat="48.86455" lon="2.32943">
        <ele>93.3</ele>
        <time>2015-06-29T18:26:28.816Z</time>
      </trkpt>
      <trkpt lat="48.86457" lon="2.32936">
        <ele>93.3</ele>
        <time>2015-06-29T18:26:29.828Z</time>
      </trkpt>
      <trkpt lat="48.86459" lon="2.32929">
        <ele>93.4</ele>
        <time>2015-06-29T18:26:30.832Z</time>
      </trkpt>
      <trkpt lat="48.86461" lon="2.32923">
        <ele>93.4</ele>
        <time>2015-06-29T18:26:31.748Z</time>
      </trkpt>
      <trkpt lat="48.86463" lon="2.32916">
        <ele>93.4</ele>
        <time>2015-06-29T18:26:32.850Z</time>
      </trkpt>
      <trkpt lat="48.86466" lon="2.32909">
        <ele>93.3</ele>
        <time>2015-06-29T18:26:33.756Z</time>
      </trkpt>
      <trkpt lat="48.86467" lon="2.32901">
        <ele>93.3</ele>
        <time>2015-06-29T18:26:34.773Z</time>
      </trkpt>
      <trkpt lat="48.86469" lon="2.32895">
        <ele>93.3</ele>
        <time>2015-06-29T18:26:35.779Z</time>
      </trkpt>
      <trkpt lat="48.86471" lon="2.32888">
        <ele>93.3</ele>
        <time>2015-06-29T18:26:36.781Z</time>
      </trkpt>
      <trkpt lat="48.86473" lon="2.32881">
        <ele>93.4</ele>
        <time>2015-06-29T18:26:37.785Z</time>
      </trkpt>
      <trkpt lat="48.86475" lon="2.32875">
        <ele>93.4</ele>
        <time>2015-06-29T18:26:38.793Z</time>
      </trkpt>
      <trkpt lat="48.86476" lon="2.32867">
        <ele>93.4</ele>
        <time>2015-06-29T18:26:39.799Z</time>
      </trkpt>
      <trkpt lat="48.86479" lon="2.32861">
        <ele>93.5</ele>
        <time>2015-06-29T18:26:40.808Z</time>
      </trkpt>
      <trkpt lat="48.8648" lon="2.32854">
        <ele>93.4</ele>
        <time>2015-06-29T18:26:41.812Z</time>
      </trkpt>
      <trkpt lat="48.86483" lon="2.32847">
        <ele>93.3</ele>
        <time>2015-06-29T18:26:42.813Z</time>
      </trkpt>
      <trkpt lat="48.86485" lon="2.3284">
        <ele>93.3</ele>
        <time>2015-06-29T18:26:43.825Z</time>
      </trkpt>
      <trkpt lat="48.86487" lon="2.32833">
        <ele>93.3</ele>
        <time>2015-06-29T18:26:44.839Z</time>
      </trkpt>
      <trkpt lat="48.86489" lon="2.32827">
        <ele>93.2</ele>
        <time>2015-06-29T18:26:45.777Z</time>
      </trkpt>
      <trkpt lat="48.86492" lon="2.32821">
        <ele>93.2</ele>
        <time>2015-06-29T18:26:46.758Z</time>
      </trkpt>
      <trkpt lat="48.86494" lon="2.32814">
        <ele>93.2</ele>
        <time>2015-06-29T18:26:47.774Z</time>
      </trkpt>
      <trkpt lat="48.86496" lon="2.32807">
        <ele>93.1</ele>
        <time>2015-06-29T18:26:48.779Z</time>
      </trkpt>
      <trkpt lat="48.86499" lon="2.32801">
        <ele>93</ele>
        <time>2015-06-29T18:26:49.797Z</time>
      </trkpt>
      <trkpt lat="48.86502" lon="2.32794">
        <ele>92.9</ele>
        <time>2015-06-29T18:26:50.801Z</time>
      </trkpt>
      <trkpt lat="48.86504" lon="2.32787">
        <ele>92.7</ele>
        <time>2015-06-29T18:26:51.811Z</time>
      </trkpt>
      <trkpt lat="48.86506" lon="2.3278">
        <ele>92.6</ele>
        <time>2015-06-29T18:26:52.820Z</time>
      </trkpt>
      <trkpt lat="48.86509" lon="2.32773">
        <ele>92.5</ele>
        <time>2015-06-29T18:26:53.826Z</time>
      </trkpt>
      <trkpt lat="48.86511" lon="2.32765">
        <ele>92.4</ele>
        <time>2015-06-29T18:26:54.725Z</time>
      </trkpt>
      <trkpt lat="48.86513" lon="2.32758">
        <ele>92.3</ele>
        <time>2015-06-29T18:26:55.746Z</time>
      </trkpt>
      <trkpt lat="48.86515" lon="2.3275">
        <ele>92.3</ele>
        <time>2015-06-29T18:26:56.789Z</time>
      </trkpt>
      <trkpt lat="48.86518" lon="2.32743">
        <ele>92.2</ele>
        <time>2015-06-29T18:26:57.805Z</time>
      </trkpt>
      <trkpt lat="48.8652" lon="2.32736">
        <ele>92</ele>
        <time>2015-06-29T18:26:58.802Z</time>
      </trkpt>
      <trkpt lat="48.86523" lon="2.3273">
        <ele>91.8</ele>
        <time>2015-06-29T18:26:59.823Z</time>
      </trkpt>
      <trkpt lat="48.86525" lon="2.32724">
        <ele>91.5</ele>
        <time>2015-06-29T18:27:00.751Z</time>
      </trkpt>
      <trkpt lat="48.86528" lon="2.32717">
        <ele>91.4</ele>
        <time>2015-06-29T18:27:01.746Z</time>
      </trkpt>
      <trkpt lat="48.8653" lon="2.3271">
        <ele>91.5</ele>
        <time>2015-06-29T18:27:02.830Z</time>
      </trkpt>
      <trkpt lat="48.86533" lon="2.32703">
        <ele>91.5</ele>
        <time>2015-06-29T18:27:03.741Z</time>
      </trkpt>
      <trkpt lat="48.86535" lon="2.32695">
        <ele>91.5</ele>
        <time>2015-06-29T18:27:04.771Z</time>
      </trkpt>
      <trkpt lat="48.86537" lon="2.32688">
        <ele>91.5</ele>
        <time>2015-06-29T18:27:05.793Z</time>
      </trkpt>
      <trkpt lat="48.86539" lon="2.32681">
        <ele>91.4</ele>
        <time>2015-06-29T18:27:06.801Z</time>
      </trkpt>
      <trkpt lat="48.86542" lon="2.32673">
        <ele>91.3</ele>
        <time>2015-06-29T18:27:07.808Z</time>
      </trkpt>
      <trkpt lat="48.86544" lon="2.32666">
        <ele>91.4</ele>
        <time>2015-06-29T18:27:08.815Z</time>
      </trkpt>
      <trkpt lat="48.86546" lon="2.32658">
        <ele>91.3</ele>
        <time>2015-06-29T18:27:09.732Z</time>
      </trkpt>
      <trkpt lat="48.86548" lon="2.32651">
        <ele>91.3</ele>
        <time>2015-06-29T18:27:10.745Z</time>
      </trkpt>
      <trkpt lat="48.86551" lon="2.32644">
        <ele>91.3</ele>
        <time>2015-06-29T18:27:11.758Z</time>
      </trkpt>
      <trkpt lat="48.86553" lon="2.32637">
        <ele>91.3</ele>
        <time>2015-06-29T18:27:12.767Z</time>
      </trkpt>
      <trkpt lat="48.86555" lon="2.3263">
        <ele>91.2</ele>
        <time>2015-06-29T18:27:13.771Z</time>
      </trkpt>
      <trkpt lat="48.86558" lon="2.32623">
        <ele>91.1</ele>
        <time>2015-06-29T18:27:14.806Z</time>
      </trkpt>
      <trkpt lat="48.8656" lon="2.32616">
        <ele>91</ele>
        <time>2015-06-29T18:27:15.931Z</time>
      </trkpt>
      <trkpt lat="48.86563" lon="2.32609">
        <ele>91</ele>
        <time>2015-06-29T18:27:16.743Z</time>
      </trkpt>
      <trkpt lat="48.86565" lon="2.32602">
        <ele>90.9</ele>
        <time>2015-06-29T18:27:17.743Z</time>
      </trkpt>
      <trkpt lat="48.86567" lon="2.32595">
        <ele>90.9</ele>
        <time>2015-06-29T18:27:18.766Z</time>
      </trkpt>
      <trkpt lat="48.8657" lon="2.32588">
        <ele>90.8</ele>
        <time>2015-06-29T18:27:19.771Z</time>
      </trkpt>
      <trkpt lat="48.86572" lon="2.32581">
        <ele>90.7</ele>
        <time>2015-06-29T18:27:20.801Z</time>
      </trkpt>
      <trkpt lat="48.86575" lon="2.32574">
        <ele>90.6</ele>
        <time>2015-06-29T18:27:21.818Z</time>
      </trkpt>
      <trkpt lat="48.86578" lon="2.32567">
        <ele>90.6</ele>
        <time>2015-06-29T18:27:22.821Z</time>
      </trkpt>
      <trkpt lat="48.8658" lon="2.3256">
        <ele>90.6</ele>
        <time>2015-06-29T18:27:23.749Z</time>
      </trkpt>
      <trkpt lat="48.86583" lon="2.32552">
        <ele>90.6</ele>
        <time>2015-06-29T18:27:24.730Z</time>
      </trkpt>
      <trkpt lat="48.86585" lon="2.32545">
        <ele>90.6</ele>
        <time>2015-06-29T18:27:25.751Z</time>
      </trkpt>
      <trkpt lat="48.86588" lon="2.32539">
        <ele>89.7</ele>
        <time>2015-06-29T18:27:26.802Z</time>
      </trkpt>
      <trkpt lat="48.86591" lon="2.32532">
        <ele>89.3</ele>
        <time>2015-06-29T18:27:27.808Z</time>
      </trkpt>
      <trkpt lat="48.86593" lon="2.32526">
        <ele>88.9</ele>
        <time>2015-06-29T18:27:28.810Z</time>
      </trkpt>
      <trkpt lat="48.86596" lon="2.32514">
        <ele>89.1</ele>
        <time>2015-06-29T18:27:30.823Z</time>
      </trkpt>
      <trkpt lat="48.86598" lon="2.32509">
        <ele>89.1</ele>
        <time>2015-06-29T18:27:31.995Z</time>
      </trkpt>
      <trkpt lat="48.86601" lon="2.32498">
        <ele>89.2</ele>
        <time>2015-06-29T18:27:33.833Z</time>
      </trkpt>
      <trkpt lat="48.86602" lon="2.32492">
        <ele>89.2</ele>
        <time>2015-06-29T18:27:34.766Z</time>
      </trkpt>
      <trkpt lat="48.86606" lon="2.3248">
        <ele>89.2</ele>
        <time>2015-06-29T18:27:36.763Z</time>
      </trkpt>
      <trkpt lat="48.86609" lon="2.32474">
        <ele>89.3</ele>
        <time>2015-06-29T18:27:37.800Z</time>
      </trkpt>
      <trkpt lat="48.86611" lon="2.32466">
        <ele>89.5</ele>
        <time>2015-06-29T18:27:38.828Z</time>
      </trkpt>
      <trkpt lat="48.86613" lon="2.3246">
        <ele>89.5</ele>
        <time>2015-06-29T18:27:39.834Z</time>
      </trkpt>
      <trkpt lat="48.86615" lon="2.32453">
        <ele>89.6</ele>
        <time>2015-06-29T18:27:40.754Z</time>
      </trkpt>
      <trkpt lat="48.86617" lon="2.32446">
        <ele>89.7</ele>
        <time>2015-06-29T18:27:41.753Z</time>
      </trkpt>
      <trkpt lat="48.86619" lon="2.3244">
        <ele>89.8</ele>
        <time>2015-06-29T18:27:42.756Z</time>
      </trkpt>
      <trkpt lat="48.8662" lon="2.32434">
        <ele>89.1</ele>
        <time>2015-06-29T18:27:43.762Z</time>
      </trkpt>
      <trkpt lat="48.86624" lon="2.32421">
        <ele>88.1</ele>
        <time>2015-06-29T18:27:45.810Z</time>
      </trkpt>
      <trkpt lat="48.86626" lon="2.32415">
        <ele>87</ele>
        <time>2015-06-29T18:27:46.833Z</time>
      </trkpt>
      <trkpt lat="48.86631" lon="2.32404">
        <ele>85.9</ele>
        <time>2015-06-29T18:27:48.769Z</time>
      </trkpt>
      <trkpt lat="48.86632" lon="2.32398">
        <ele>85.8</ele>
        <time>2015-06-29T18:27:49.783Z</time>
      </trkpt>
      <trkpt lat="48.86637" lon="2.32386">
        <ele>85.7</ele>
        <time>2015-06-29T18:27:51.755Z</time>
      </trkpt>
      <trkpt lat="48.86638" lon="2.3238">
        <ele>85.8</ele>
        <time>2015-06-29T18:27:52.790Z</time>
      </trkpt>
      <trkpt lat="48.86639" lon="2.32369">
        <ele>85.3</ele>
        <time>2015-06-29T18:27:54.814Z</time>
      </trkpt>
      <trkpt lat="48.86639" lon="2.32363">
        <ele>85.1</ele>
        <time>2015-06-29T18:27:55.827Z</time>
      </trkpt>
      <trkpt lat="48.8664" lon="2.32352">
        <ele>85</ele>
        <time>2015-06-29T18:27:57.756Z</time>
      </trkpt>
      <trkpt lat="48.86641" lon="2.32347">
        <ele>84.9</ele>
        <time>2015-06-29T18:27:58.779Z</time>
      </trkpt>
      <trkpt lat="48.86643" lon="2.32336">
        <ele>84.8</ele>
        <time>2015-06-29T18:28:00.793Z</time>
      </trkpt>
      <trkpt lat="48.86644" lon="2.32331">
        <ele>85</ele>
        <time>2015-06-29T18:28:01.821Z</time>
      </trkpt>
      <trkpt lat="48.86647" lon="2.32322">
        <ele>84.7</ele>
        <time>2015-06-29T18:28:03.750Z</time>
      </trkpt>
      <trkpt lat="48.86649" lon="2.32317">
        <ele>84.7</ele>
        <time>2015-06-29T18:28:04.751Z</time>
      </trkpt>
      <trkpt lat="48.86653" lon="2.32307">
        <ele>84.4</ele>
        <time>2015-06-29T18:28:06.785Z</time>
      </trkpt>
      <trkpt lat="48.86655" lon="2.32302">
        <ele>84.4</ele>
        <time>2015-06-29T18:28:07.820Z</time>
      </trkpt>
      <trkpt lat="48.8666" lon="2.32292">
        <ele>84.2</ele>
        <time>2015-06-29T18:28:09.755Z</time>
      </trkpt>
      <trkpt lat="48.86662" lon="2.32287">
        <ele>84.1</ele>
        <time>2015-06-29T18:28:10.837Z</time>
      </trkpt>
      <trkpt lat="48.86667" lon="2.32276">
        <ele>84.3</ele>
        <time>2015-06-29T18:28:12.777Z</time>
      </trkpt>
      <trkpt lat="48.86669" lon="2.32271">
        <ele>84.6</ele>
        <time>2015-06-29T18:28:13.791Z</time>
      </trkpt>
      <trkpt lat="48.86671" lon="2.32259">
        <ele>84.7</ele>
        <time>2015-06-29T18:28:16.827Z</time>
      </trkpt>
      <trkpt lat="48.86671" lon="2.32256">
        <ele>84.7</ele>
        <time>2015-06-29T18:28:17.750Z</time>
      </trkpt>
      <trkpt lat="48.86673" lon="2.32244">
        <ele>84.9</ele>
        <time>2015-06-29T18:28:20.828Z</time>
      </trkpt>
      <trkpt lat="48.86674" lon="2.3224">
        <ele>85.1</ele>
        <time>2015-06-29T18:28:21.765Z</time>
      </trkpt>
      <trkpt lat="48.86677" lon="2.32228">
        <ele>85.2</ele>
        <time>2015-06-29T18:28:27.835Z</time>
      </trkpt>
      <trkpt lat="48.86677" lon="2.32227">
        <ele>85.3</ele>
        <time>2015-06-29T18:28:28.909Z</time>
      </trkpt>
      <trkpt lat="48.86677" lon="2.32227">
        <ele>85.4</ele>
        <time>2015-06-29T18:28:30.761Z</time>
      </trkpt>
      <trkpt lat="48.86677" lon="2.32225">
        <ele>85.5</ele>
        <time>2015-06-29T18:28:31.853Z</time>
      </trkpt>
      <trkpt lat="48.86681" lon="2.32215">
        <ele>86.1</ele>
        <time>2015-06-29T18:28:41.831Z</time>
      </trkpt>
      <trkpt lat="48.86682" lon="2.32212">
        <ele>86.1</ele>
        <time>2015-06-29T18:28:42.845Z</time>
      </trkpt>
      <trkpt lat="48.86686" lon="2.32201">
        <ele>86.1</ele>
        <time>2015-06-29T18:28:45.809Z</time>
      </trkpt>
      <trkpt lat="48.86688" lon="2.32198">
        <ele>86.3</ele>
        <time>2015-06-29T18:28:46.852Z</time>
      </trkpt>
      <trkpt lat="48.86692" lon="2.3219">
        <ele>86.5</ele>
        <time>2015-06-29T18:28:48.764Z</time>
      </trkpt>
      <trkpt lat="48.86694" lon="2.32185">
        <ele>86.6</ele>
        <time>2015-06-29T18:28:49.788Z</time>
      </trkpt>
      <trkpt lat="48.86696" lon="2.32176">
        <ele>86.6</ele>
        <time>2015-06-29T18:28:51.841Z</time>
      </trkpt>
      <trkpt lat="48.86696" lon="2.32172">
        <ele>86.6</ele>
        <time>2015-06-29T18:28:52.846Z</time>
      </trkpt>
      <trkpt lat="48.86697" lon="2.32162">
        <ele>86.6</ele>
        <time>2015-06-29T18:28:55.766Z</time>
      </trkpt>
      <trkpt lat="48.86695" lon="2.32157">
        <ele>86.7</ele>
        <time>2015-06-29T18:28:56.871Z</time>
      </trkpt>
      <trkpt lat="48.86694" lon="2.32148">
        <ele>86.7</ele>
        <time>2015-06-29T18:28:58.771Z</time>
      </trkpt>
      <trkpt lat="48.86695" lon="2.32143">
        <ele>86.8</ele>
        <time>2015-06-29T18:28:59.786Z</time>
      </trkpt>
      <trkpt lat="48.86696" lon="2.32132">
        <ele>86.8</ele>
        <time>2015-06-29T18:29:01.819Z</time>
      </trkpt>
      <trkpt lat="48.86696" lon="2.32126">
        <ele>87</ele>
        <time>2015-06-29T18:29:02.834Z</time>
      </trkpt>
      <trkpt lat="48.86697" lon="2.32114">
        <ele>87.1</ele>
        <time>2015-06-29T18:29:05.764Z</time>
      </trkpt>
      <trkpt lat="48.86698" lon="2.32109">
        <ele>87.4</ele>
        <time>2015-06-29T18:29:06.770Z</time>
      </trkpt>
      <trkpt lat="48.867" lon="2.321">
        <ele>87.4</ele>
        <time>2015-06-29T18:29:08.821Z</time>
      </trkpt>
      <trkpt lat="48.867" lon="2.32095">
        <ele>87.6</ele>
        <time>2015-06-29T18:29:09.839Z</time>
      </trkpt>
      <trkpt lat="48.86701" lon="2.32082">
        <ele>88.3</ele>
        <time>2015-06-29T18:29:12.793Z</time>
      </trkpt>
      <trkpt lat="48.86701" lon="2.32079">
        <ele>88.5</ele>
        <time>2015-06-29T18:29:13.804Z</time>
      </trkpt>
      <trkpt lat="48.86699" lon="2.32067">
        <ele>89.4</ele>
        <time>2015-06-29T18:29:17.821Z</time>
      </trkpt>
      <trkpt lat="48.86699" lon="2.32063">
        <ele>89.5</ele>
        <time>2015-06-29T18:29:18.849Z</time>
      </trkpt>
      <trkpt lat="48.867" lon="2.32052">
        <ele>89.9</ele>
        <time>2015-06-29T18:29:21.803Z</time>
      </trkpt>
      <trkpt lat="48.867" lon="2.32048">
        <ele>90.2</ele>
        <time>2015-06-29T18:29:22.828Z</time>
      </trkpt>
      <trkpt lat="48.86697" lon="2.32035">
        <ele>89.7</ele>
        <time>2015-06-29T18:29:26.844Z</time>
      </trkpt>
      <trkpt lat="48.86696" lon="2.32035">
        <ele>89.1</ele>
        <time>2015-06-29T18:29:27.867Z</time>
      </trkpt>
      <trkpt lat="48.86689" lon="2.32043">
        <ele>89.2</ele>
        <time>2015-06-29T18:29:31.795Z</time>
      </trkpt>
      <trkpt lat="48.86688" lon="2.32045">
        <ele>89.2</ele>
        <time>2015-06-29T18:29:32.847Z</time>
      </trkpt>
      <trkpt lat="48.86689" lon="2.32058">
        <ele>89.1</ele>
        <time>2015-06-29T18:29:36.798Z</time>
      </trkpt>
      <trkpt lat="48.86686" lon="2.3206">
        <ele>89.1</ele>
        <time>2015-06-29T18:29:37.805Z</time>
      </trkpt>
      <trkpt lat="48.8668" lon="2.32062">
        <ele>89.1</ele>
        <time>2015-06-29T18:29:39.787Z</time>
      </trkpt>
      <trkpt lat="48.86676" lon="2.32063">
        <ele>89.1</ele>
        <time>2015-06-29T18:29:40.775Z</time>
      </trkpt>
      <trkpt lat="48.86668" lon="2.32065">
        <ele>88.8</ele>
        <time>2015-06-29T18:29:42.847Z</time>
      </trkpt>
      <trkpt lat="48.86664" lon="2.32066">
        <ele>88.5</ele>
        <time>2015-06-29T18:29:43.786Z</time>
      </trkpt>
      <trkpt lat="48.86657" lon="2.32065">
        <ele>88.3</ele>
        <time>2015-06-29T18:29:45.799Z</time>
      </trkpt>
      <trkpt lat="48.86653" lon="2.32064">
        <ele>88.6</ele>
        <time>2015-06-29T18:29:46.811Z</time>
      </trkpt>
      <trkpt lat="48.86646" lon="2.32061">
        <ele>88.3</ele>
        <time>2015-06-29T18:29:48.844Z</time>
      </trkpt>
      <trkpt lat="48.86643" lon="2.3206">
        <ele>87.8</ele>
        <time>2015-06-29T18:29:49.856Z</time>
      </trkpt>
      <trkpt lat="48.86636" lon="2.32057">
        <ele>87.6</ele>
        <time>2015-06-29T18:29:51.752Z</time>
      </trkpt>
      <trkpt lat="48.86632" lon="2.32054">
        <ele>87.5</ele>
        <time>2015-06-29T18:29:52.766Z</time>
      </trkpt>
      <trkpt lat="48.86625" lon="2.3205">
        <ele>87.1</ele>
        <time>2015-06-29T18:29:54.618Z</time>
      </trkpt>
      <trkpt lat="48.86622" lon="2.32048">
        <ele>86.9</ele>
        <time>2015-06-29T18:29:55.835Z</time>
      </trkpt>
      <trkpt lat="48.86616" lon="2.32044">
        <ele>86.1</ele>
        <time>2015-06-29T18:29:58.599Z</time>
      </trkpt>
      <trkpt lat="48.86614" lon="2.32041">
        <ele>86.2</ele>
        <time>2015-06-29T18:29:58.745Z</time>
      </trkpt>
      <trkpt lat="48.86606" lon="2.32036">
        <ele>85.9</ele>
        <time>2015-06-29T18:30:01.775Z</time>
      </trkpt>
      <trkpt lat="48.86605" lon="2.32034">
        <ele>85.7</ele>
        <time>2015-06-29T18:30:02.883Z</time>
      </trkpt>
      <trkpt lat="48.86602" lon="2.32024">
        <ele>85.3</ele>
        <time>2015-06-29T18:30:04.763Z</time>
      </trkpt>
      <trkpt lat="48.86601" lon="2.3202">
        <ele>85.4</ele>
        <time>2015-06-29T18:30:05.777Z</time>
      </trkpt>
      <trkpt lat="48.86598" lon="2.32008">
        <ele>85.3</ele>
        <time>2015-06-29T18:30:08.890Z</time>
      </trkpt>
      <trkpt lat="48.86598" lon="2.32006">
        <ele>85.3</ele>
        <time>2015-06-29T18:30:09.767Z</time>
      </trkpt>
      <trkpt lat="48.86599" lon="2.32003">
        <ele>85.3</ele>
        <time>2015-06-29T18:30:10.791Z</time>
      </trkpt>
      <trkpt lat="48.866" lon="2.32001">
        <ele>85.2</ele>
        <time>2015-06-29T18:30:11.814Z</time>
      </trkpt>
      <trkpt lat="48.86602" lon="2.31996">
        <ele>83.7</ele>
        <time>2015-06-29T18:30:42.764Z</time>
      </trkpt>
      <trkpt lat="48.86603" lon="2.31989">
        <ele>82.6</ele>
        <time>2015-06-29T18:30:43.793Z</time>
      </trkpt>
      <trkpt lat="48.86603" lon="2.31988">
        <ele>82.6</ele>
        <time>2015-06-29T18:30:45.345Z</time>
      </trkpt>
      <trkpt lat="48.86604" lon="2.31988">
        <ele>82.5</ele>
        <time>2015-06-29T18:30:45.841Z</time>
      </trkpt>
      <trkpt lat="48.86604" lon="2.31987">
        <ele>82.6</ele>
        <time>2015-06-29T18:30:47.854Z</time>
      </trkpt>
      <trkpt lat="48.86604" lon="2.31985">
        <ele>83</ele>
        <time>2015-06-29T18:30:48.862Z</time>
      </trkpt>
      <trkpt lat="48.86596" lon="2.31979">
        <ele>82.7</ele>
        <time>2015-06-29T18:30:53.822Z</time>
      </trkpt>
      <trkpt lat="48.86595" lon="2.31978">
        <ele>82.5</ele>
        <time>2015-06-29T18:30:54.855Z</time>
      </trkpt>
      <trkpt lat="48.86588" lon="2.31974">
        <ele>81.8</ele>
        <time>2015-06-29T18:30:58.839Z</time>
      </trkpt>
      <trkpt lat="48.86586" lon="2.31973">
        <ele>81.8</ele>
        <time>2015-06-29T18:30:59.761Z</time>
      </trkpt>
      <trkpt lat="48.86579" lon="2.31969">
        <ele>81.8</ele>
        <time>2015-06-29T18:31:02.888Z</time>
      </trkpt>
      <trkpt lat="48.86577" lon="2.31967">
        <ele>82</ele>
        <time>2015-06-29T18:31:03.830Z</time>
      </trkpt>
      <trkpt lat="48.86571" lon="2.31962">
        <ele>82.1</ele>
        <time>2015-06-29T18:31:06.829Z</time>
      </trkpt>
      <trkpt lat="48.86568" lon="2.31959">
        <ele>82.1</ele>
        <time>2015-06-29T18:31:07.852Z</time>
      </trkpt>
      <trkpt lat="48.86562" lon="2.31954">
        <ele>82</ele>
        <time>2015-06-29T18:31:09.780Z</time>
      </trkpt>
      <trkpt lat="48.86559" lon="2.31951">
        <ele>81.8</ele>
        <time>2015-06-29T18:31:10.789Z</time>
      </trkpt>
      <trkpt lat="48.86553" lon="2.31946">
        <ele>81.8</ele>
        <time>2015-06-29T18:31:12.813Z</time>
      </trkpt>
      <trkpt lat="48.86549" lon="2.31943">
        <ele>81.7</ele>
        <time>2015-06-29T18:31:13.826Z</time>
      </trkpt>
      <trkpt lat="48.86542" lon="2.31937">
        <ele>81.7</ele>
        <time>2015-06-29T18:31:15.909Z</time>
      </trkpt>
      <trkpt lat="48.8654" lon="2.31935">
        <ele>81.8</ele>
        <time>2015-06-29T18:31:16.788Z</time>
      </trkpt>
      <trkpt lat="48.86533" lon="2.3193">
        <ele>81.8</ele>
        <time>2015-06-29T18:31:19.698Z</time>
      </trkpt>
      <trkpt lat="48.86529" lon="2.31928">
        <ele>81.8</ele>
        <time>2015-06-29T18:31:19.802Z</time>
      </trkpt>
      <trkpt lat="48.86523" lon="2.31924">
        <ele>81.6</ele>
        <time>2015-06-29T18:31:21.779Z</time>
      </trkpt>
      <trkpt lat="48.86519" lon="2.3192">
        <ele>81</ele>
        <time>2015-06-29T18:31:22.812Z</time>
      </trkpt>
      <trkpt lat="48.86513" lon="2.31913">
        <ele>80.8</ele>
        <time>2015-06-29T18:31:24.792Z</time>
      </trkpt>
      <trkpt lat="48.86511" lon="2.3191">
        <ele>80.8</ele>
        <time>2015-06-29T18:31:25.801Z</time>
      </trkpt>
      <trkpt lat="48.86505" lon="2.31901">
        <ele>80.9</ele>
        <time>2015-06-29T18:31:27.865Z</time>
      </trkpt>
      <trkpt lat="48.86502" lon="2.31898">
        <ele>81</ele>
        <time>2015-06-29T18:31:28.786Z</time>
      </trkpt>
      <trkpt lat="48.865" lon="2.31884">
        <ele>81.3</ele>
        <time>2015-06-29T18:31:30.792Z</time>
      </trkpt>
      <trkpt lat="48.865" lon="2.31878">
        <ele>81.4</ele>
        <time>2015-06-29T18:31:31.800Z</time>
      </trkpt>
      <trkpt lat="48.86501" lon="2.31867">
        <ele>81.2</ele>
        <time>2015-06-29T18:31:33.776Z</time>
      </trkpt>
      <trkpt lat="48.86501" lon="2.31862">
        <ele>81.1</ele>
        <time>2015-06-29T18:31:34.905Z</time>
      </trkpt>
      <trkpt lat="48.86504" lon="2.31849">
        <ele>81.2</ele>
        <time>2015-06-29T18:31:37.847Z</time>
      </trkpt>
      <trkpt lat="48.86505" lon="2.31845">
        <ele>81.1</ele>
        <time>2015-06-29T18:31:38.864Z</time>
      </trkpt>
      <trkpt lat="48.86507" lon="2.31835">
        <ele>81</ele>
        <time>2015-06-29T18:31:41.806Z</time>
      </trkpt>
      <trkpt lat="48.86508" lon="2.31831">
        <ele>81.1</ele>
        <time>2015-06-29T18:31:42.806Z</time>
      </trkpt>
      <trkpt lat="48.8651" lon="2.31818">
        <ele>81.7</ele>
        <time>2015-06-29T18:31:45.845Z</time>
      </trkpt>
      <trkpt lat="48.86511" lon="2.31813">
        <ele>81.9</ele>
        <time>2015-06-29T18:31:46.779Z</time>
      </trkpt>
      <trkpt lat="48.86513" lon="2.31802">
        <ele>82.4</ele>
        <time>2015-06-29T18:31:48.818Z</time>
      </trkpt>
      <trkpt lat="48.86513" lon="2.31796">
        <ele>82.5</ele>
        <time>2015-06-29T18:31:49.848Z</time>
      </trkpt>
      <trkpt lat="48.86515" lon="2.31785">
        <ele>82.7</ele>
        <time>2015-06-29T18:31:51.782Z</time>
      </trkpt>
      <trkpt lat="48.86515" lon="2.31779">
        <ele>82.7</ele>
        <time>2015-06-29T18:31:52.789Z</time>
      </trkpt>
      <trkpt lat="48.86515" lon="2.31767">
        <ele>82.8</ele>
        <time>2015-06-29T18:31:55.184Z</time>
      </trkpt>
      <trkpt lat="48.86515" lon="2.3176">
        <ele>83</ele>
        <time>2015-06-29T18:31:55.884Z</time>
      </trkpt>
      <trkpt lat="48.86514" lon="2.31747">
        <ele>83.3</ele>
        <time>2015-06-29T18:31:57.786Z</time>
      </trkpt>
      <trkpt lat="48.86513" lon="2.31738">
        <ele>83.2</ele>
        <time>2015-06-29T18:31:58.795Z</time>
      </trkpt>
      <trkpt lat="48.86513" lon="2.3173">
        <ele>83.3</ele>
        <time>2015-06-29T18:32:00.300Z</time>
      </trkpt>
      <trkpt lat="48.86513" lon="2.31723">
        <ele>83.1</ele>
        <time>2015-06-29T18:32:00.818Z</time>
      </trkpt>
      <trkpt lat="48.86513" lon="2.31715">
        <ele>83.1</ele>
        <time>2015-06-29T18:32:01.830Z</time>
      </trkpt>
      <trkpt lat="48.86513" lon="2.31709">
        <ele>83.2</ele>
        <time>2015-06-29T18:32:02.848Z</time>
      </trkpt>
      <trkpt lat="48.86513" lon="2.31701">
        <ele>83.3</ele>
        <time>2015-06-29T18:32:03.771Z</time>
      </trkpt>
      <trkpt lat="48.86512" lon="2.31693">
        <ele>83.6</ele>
        <time>2015-06-29T18:32:04.744Z</time>
      </trkpt>
      <trkpt lat="48.86512" lon="2.3168">
        <ele>83.4</ele>
        <time>2015-06-29T18:32:06.780Z</time>
      </trkpt>
      <trkpt lat="48.86513" lon="2.31673">
        <ele>83.3</ele>
        <time>2015-06-29T18:32:07.800Z</time>
      </trkpt>
      <trkpt lat="48.86513" lon="2.31661">
        <ele>83.5</ele>
        <time>2015-06-29T18:32:09.860Z</time>
      </trkpt>
      <trkpt lat="48.86513" lon="2.31654">
        <ele>83.4</ele>
        <time>2015-06-29T18:32:10.847Z</time>
      </trkpt>
      <trkpt lat="48.86513" lon="2.31642">
        <ele>83.5</ele>
        <time>2015-06-29T18:32:12.772Z</time>
      </trkpt>
      <trkpt lat="48.86513" lon="2.31636">
        <ele>83.5</ele>
        <time>2015-06-29T18:32:13.799Z</time>
      </trkpt>
      <trkpt lat="48.86512" lon="2.31627">
        <ele>83.5</ele>
        <time>2015-06-29T18:32:15.835Z</time>
      </trkpt>
      <trkpt lat="48.86511" lon="2.31622">
        <ele>83.3</ele>
        <time>2015-06-29T18:32:16.927Z</time>
      </trkpt>
      <trkpt lat="48.86511" lon="2.31612">
        <ele>83.2</ele>
        <time>2015-06-29T18:32:18.766Z</time>
      </trkpt>
      <trkpt lat="48.86511" lon="2.31606">
        <ele>82.9</ele>
        <time>2015-06-29T18:32:19.815Z</time>
      </trkpt>
      <trkpt lat="48.86512" lon="2.31596">
        <ele>82.4</ele>
        <time>2015-06-29T18:32:21.773Z</time>
      </trkpt>
      <trkpt lat="48.86512" lon="2.31591">
        <ele>82.4</ele>
        <time>2015-06-29T18:32:22.799Z</time>
      </trkpt>
      <trkpt lat="48.86511" lon="2.31581">
        <ele>82.6</ele>
        <time>2015-06-29T18:32:24.842Z</time>
      </trkpt>
      <trkpt lat="48.8651" lon="2.31575">
        <ele>82.6</ele>
        <time>2015-06-29T18:32:25.781Z</time>
      </trkpt>
      <trkpt lat="48.86509" lon="2.31565">
        <ele>82.6</ele>
        <time>2015-06-29T18:32:27.842Z</time>
      </trkpt>
      <trkpt lat="48.86508" lon="2.31561">
        <ele>82.5</ele>
        <time>2015-06-29T18:32:28.759Z</time>
      </trkpt>
      <trkpt lat="48.86505" lon="2.31549">
        <ele>82.3</ele>
        <time>2015-06-29T18:32:30.779Z</time>
      </trkpt>
      <trkpt lat="48.86504" lon="2.31542">
        <ele>82.4</ele>
        <time>2015-06-29T18:32:31.790Z</time>
      </trkpt>
      <trkpt lat="48.86504" lon="2.31535">
        <ele>82.3</ele>
        <time>2015-06-29T18:32:32.867Z</time>
      </trkpt>
      <trkpt lat="48.86504" lon="2.31528">
        <ele>82.3</ele>
        <time>2015-06-29T18:32:33.743Z</time>
      </trkpt>
      <trkpt lat="48.86504" lon="2.3152">
        <ele>82.2</ele>
        <time>2015-06-29T18:32:34.804Z</time>
      </trkpt>
      <trkpt lat="48.86503" lon="2.31512">
        <ele>82.2</ele>
        <time>2015-06-29T18:32:35.727Z</time>
      </trkpt>
      <trkpt lat="48.86503" lon="2.31505">
        <ele>82.4</ele>
        <time>2015-06-29T18:32:36.769Z</time>
      </trkpt>
      <trkpt lat="48.86502" lon="2.31498">
        <ele>82.4</ele>
        <time>2015-06-29T18:32:37.779Z</time>
      </trkpt>
      <trkpt lat="48.86502" lon="2.31491">
        <ele>82.6</ele>
        <time>2015-06-29T18:32:38.831Z</time>
      </trkpt>
      <trkpt lat="48.86501" lon="2.31483">
        <ele>82.8</ele>
        <time>2015-06-29T18:32:39.718Z</time>
      </trkpt>
      <trkpt lat="48.86501" lon="2.31475">
        <ele>82.8</ele>
        <time>2015-06-29T18:32:40.781Z</time>
      </trkpt>
      <trkpt lat="48.86501" lon="2.31468">
        <ele>83</ele>
        <time>2015-06-29T18:32:41.787Z</time>
      </trkpt>
      <trkpt lat="48.865" lon="2.31455">
        <ele>82.6</ele>
        <time>2015-06-29T18:32:43.813Z</time>
      </trkpt>
      <trkpt lat="48.865" lon="2.31449">
        <ele>82.6</ele>
        <time>2015-06-29T18:32:44.817Z</time>
      </trkpt>
      <trkpt lat="48.865" lon="2.31436">
        <ele>82.8</ele>
        <time>2015-06-29T18:32:46.740Z</time>
      </trkpt>
      <trkpt lat="48.86501" lon="2.31431">
        <ele>82.9</ele>
        <time>2015-06-29T18:32:47.811Z</time>
      </trkpt>
      <trkpt lat="48.86502" lon="2.31421">
        <ele>82.6</ele>
        <time>2015-06-29T18:32:49.742Z</time>
      </trkpt>
      <trkpt lat="48.86502" lon="2.31416">
        <ele>82.6</ele>
        <time>2015-06-29T18:32:50.764Z</time>
      </trkpt>
      <trkpt lat="48.86502" lon="2.31404">
        <ele>82.1</ele>
        <time>2015-06-29T18:32:53.778Z</time>
      </trkpt>
      <trkpt lat="48.86502" lon="2.314">
        <ele>81.9</ele>
        <time>2015-06-29T18:32:54.792Z</time>
      </trkpt>
      <trkpt lat="48.86503" lon="2.31388">
        <ele>83.4</ele>
        <time>2015-06-29T18:32:58.749Z</time>
      </trkpt>
      <trkpt lat="48.86504" lon="2.31387">
        <ele>83.8</ele>
        <time>2015-06-29T18:32:59.793Z</time>
      </trkpt>
      <trkpt lat="48.86507" lon="2.31383">
        <ele>84.9</ele>
        <time>2015-06-29T18:33:03.771Z</time>
      </trkpt>
      <trkpt lat="48.86507" lon="2.31383">
        <ele>84.9</ele>
        <time>2015-06-29T18:33:04.735Z</time>
      </trkpt>
      <trkpt lat="48.86506" lon="2.31383">
        <ele>85</ele>
        <time>2015-06-29T18:33:12.774Z</time>
      </trkpt>
      <trkpt lat="48.86507" lon="2.31381">
        <ele>85.5</ele>
        <time>2015-06-29T18:33:13.789Z</time>
      </trkpt>
      <trkpt lat="48.86506" lon="2.31381">
        <ele>85</ele>
        <time>2015-06-29T18:33:21.740Z</time>
      </trkpt>
      <trkpt lat="48.86506" lon="2.31381">
        <ele>84.8</ele>
        <time>2015-06-29T18:33:22.781Z</time>
      </trkpt>
      <trkpt lat="48.86506" lon="2.31381">
        <ele>84.7</ele>
        <time>2015-06-29T18:33:23.805Z</time>
      </trkpt>
      <trkpt lat="48.86507" lon="2.31382">
        <ele>83.9</ele>
        <time>2015-06-29T18:33:29.792Z</time>
      </trkpt>
      <trkpt lat="48.86507" lon="2.31383">
        <ele>83.7</ele>
        <time>2015-06-29T18:33:30.863Z</time>
      </trkpt>
      <trkpt lat="48.86507" lon="2.31383">
        <ele>83.7</ele>
        <time>2015-06-29T18:33:31.756Z</time>
      </trkpt>
      <trkpt lat="48.86507" lon="2.31384">
        <ele>83.5</ele>
        <time>2015-06-29T18:33:32.824Z</time>
      </trkpt>
      <trkpt lat="48.86506" lon="2.31385">
        <ele>83.5</ele>
        <time>2015-06-29T18:33:33.829Z</time>
      </trkpt>
      <trkpt lat="48.86506" lon="2.31384">
        <ele>83.5</ele>
        <time>2015-06-29T18:33:34.737Z</time>
      </trkpt>
      <trkpt lat="48.86506" lon="2.31383">
        <ele>83.6</ele>
        <time>2015-06-29T18:33:35.740Z</time>
      </trkpt>
      <trkpt lat="48.86507" lon="2.3137">
        <ele>83.7</ele>
        <time>2015-06-29T18:33:39.768Z</time>
      </trkpt>
      <trkpt lat="48.86507" lon="2.31366">
        <ele>83.6</ele>
        <time>2015-06-29T18:33:40.772Z</time>
      </trkpt>
      <trkpt lat="48.86506" lon="2.31356">
        <ele>83.8</ele>
        <time>2015-06-29T18:33:43.746Z</time>
      </trkpt>
      <trkpt lat="48.86506" lon="2.31352">
        <ele>83.7</ele>
        <time>2015-06-29T18:33:44.783Z</time>
      </trkpt>
      <trkpt lat="48.86505" lon="2.31341">
        <ele>82.2</ele>
        <time>2015-06-29T18:33:47.810Z</time>
      </trkpt>
      <trkpt lat="48.86506" lon="2.31337">
        <ele>82</ele>
        <time>2015-06-29T18:33:48.769Z</time>
      </trkpt>
      <trkpt lat="48.86508" lon="2.31328">
        <ele>81.9</ele>
        <time>2015-06-29T18:33:50.756Z</time>
      </trkpt>
      <trkpt lat="48.86508" lon="2.31322">
        <ele>81.9</ele>
        <time>2015-06-29T18:33:51.816Z</time>
      </trkpt>
      <trkpt lat="48.86507" lon="2.31313">
        <ele>81.8</ele>
        <time>2015-06-29T18:33:53.761Z</time>
      </trkpt>
      <trkpt lat="48.86506" lon="2.31308">
        <ele>81.8</ele>
        <time>2015-06-29T18:33:54.790Z</time>
      </trkpt>
      <trkpt lat="48.86505" lon="2.31302">
        <ele>81.7</ele>
        <time>2015-06-29T18:33:55.742Z</time>
      </trkpt>
      <trkpt lat="48.86504" lon="2.31294">
        <ele>81.5</ele>
        <time>2015-06-29T18:33:56.791Z</time>
      </trkpt>
      <trkpt lat="48.86504" lon="2.31287">
        <ele>81.4</ele>
        <time>2015-06-29T18:33:57.788Z</time>
      </trkpt>
      <trkpt lat="48.86504" lon="2.3128">
        <ele>81.2</ele>
        <time>2015-06-29T18:33:58.805Z</time>
      </trkpt>
      <trkpt lat="48.86504" lon="2.31266">
        <ele>81.1</ele>
        <time>2015-06-29T18:34:00.749Z</time>
      </trkpt>
      <trkpt lat="48.86504" lon="2.31259">
        <ele>81</ele>
        <time>2015-06-29T18:34:01.748Z</time>
      </trkpt>
      <trkpt lat="48.86503" lon="2.31253">
        <ele>81</ele>
        <time>2015-06-29T18:34:02.798Z</time>
      </trkpt>
      <trkpt lat="48.86503" lon="2.31245">
        <ele>80.9</ele>
        <time>2015-06-29T18:34:03.798Z</time>
      </trkpt>
      <trkpt lat="48.86504" lon="2.31232">
        <ele>81.2</ele>
        <time>2015-06-29T18:34:05.808Z</time>
      </trkpt>
      <trkpt lat="48.86504" lon="2.31226">
        <ele>81.1</ele>
        <time>2015-06-29T18:34:06.820Z</time>
      </trkpt>
      <trkpt lat="48.86502" lon="2.31214">
        <ele>81.1</ele>
        <time>2015-06-29T18:34:08.805Z</time>
      </trkpt>
      <trkpt lat="48.86501" lon="2.31207">
        <ele>81.3</ele>
        <time>2015-06-29T18:34:09.806Z</time>
      </trkpt>
      <trkpt lat="48.865" lon="2.31195">
        <ele>81.7</ele>
        <time>2015-06-29T18:34:11.762Z</time>
      </trkpt>
      <trkpt lat="48.865" lon="2.31189">
        <ele>81.9</ele>
        <time>2015-06-29T18:34:12.767Z</time>
      </trkpt>
      <trkpt lat="48.86499" lon="2.31176">
        <ele>82.1</ele>
        <time>2015-06-29T18:34:15.794Z</time>
      </trkpt>
      <trkpt lat="48.86499" lon="2.31173">
        <ele>82</ele>
        <time>2015-06-29T18:34:16.855Z</time>
      </trkpt>
      <trkpt lat="48.86498" lon="2.31164">
        <ele>81.7</ele>
        <time>2015-06-29T18:34:20.825Z</time>
      </trkpt>
      <trkpt lat="48.86498" lon="2.31159">
        <ele>81.6</ele>
        <time>2015-06-29T18:34:21.731Z</time>
      </trkpt>
      <trkpt lat="48.86497" lon="2.31149">
        <ele>81.5</ele>
        <time>2015-06-29T18:34:23.763Z</time>
      </trkpt>
      <trkpt lat="48.86496" lon="2.31145">
        <ele>81.7</ele>
        <time>2015-06-29T18:34:24.763Z</time>
      </trkpt>
      <trkpt lat="48.86493" lon="2.31132">
        <ele>81.8</ele>
        <time>2015-06-29T18:34:28.767Z</time>
      </trkpt>
      <trkpt lat="48.86492" lon="2.3113">
        <ele>82.1</ele>
        <time>2015-06-29T18:34:29.784Z</time>
      </trkpt>
      <trkpt lat="48.86493" lon="2.31122">
        <ele>81.8</ele>
        <time>2015-06-29T18:34:32.816Z</time>
      </trkpt>
      <trkpt lat="48.86494" lon="2.31113">
        <ele>82.3</ele>
        <time>2015-06-29T18:34:33.733Z</time>
      </trkpt>
      <trkpt lat="48.86494" lon="2.31106">
        <ele>82.5</ele>
        <time>2015-06-29T18:34:34.791Z</time>
      </trkpt>
      <trkpt lat="48.86494" lon="2.31099">
        <ele>82.4</ele>
        <time>2015-06-29T18:34:35.801Z</time>
      </trkpt>
      <trkpt lat="48.86495" lon="2.31086">
        <ele>82.2</ele>
        <time>2015-06-29T18:34:37.728Z</time>
      </trkpt>
      <trkpt lat="48.86496" lon="2.31079">
        <ele>82.3</ele>
        <time>2015-06-29T18:34:38.792Z</time>
      </trkpt>
      <trkpt lat="48.86497" lon="2.31068">
        <ele>82.9</ele>
        <time>2015-06-29T18:34:40.726Z</time>
      </trkpt>
      <trkpt lat="48.86497" lon="2.31063">
        <ele>83.2</ele>
        <time>2015-06-29T18:34:41.725Z</time>
      </trkpt>
      <trkpt lat="48.86502" lon="2.31054">
        <ele>83.4</ele>
        <time>2015-06-29T18:34:45.802Z</time>
      </trkpt>
      <trkpt lat="48.86503" lon="2.31052">
        <ele>83.3</ele>
        <time>2015-06-29T18:34:46.704Z</time>
      </trkpt>
      <trkpt lat="48.86506" lon="2.31041">
        <ele>84.9</ele>
        <time>2015-06-29T18:34:51.859Z</time>
      </trkpt>
      <trkpt lat="48.86506" lon="2.31037">
        <ele>84.6</ele>
        <time>2015-06-29T18:34:52.829Z</time>
      </trkpt>
      <trkpt lat="48.86506" lon="2.31026">
        <ele>84.2</ele>
        <time>2015-06-29T18:34:55.770Z</time>
      </trkpt>
      <trkpt lat="48.86506" lon="2.31022">
        <ele>84.1</ele>
        <time>2015-06-29T18:34:56.769Z</time>
      </trkpt>
      <trkpt lat="48.86503" lon="2.3101">
        <ele>84.2</ele>
        <time>2015-06-29T18:34:59.797Z</time>
      </trkpt>
      <trkpt lat="48.86503" lon="2.31006">
        <ele>84.2</ele>
        <time>2015-06-29T18:35:00.805Z</time>
      </trkpt>
      <trkpt lat="48.86501" lon="2.30995">
        <ele>84.5</ele>
        <time>2015-06-29T18:35:03.721Z</time>
      </trkpt>
      <trkpt lat="48.865" lon="2.30991">
        <ele>84.3</ele>
        <time>2015-06-29T18:35:04.718Z</time>
      </trkpt>
      <trkpt lat="48.86496" lon="2.30982">
        <ele>82.7</ele>
        <time>2015-06-29T18:35:07.747Z</time>
      </trkpt>
      <trkpt lat="48.86495" lon="2.30978">
        <ele>83</ele>
        <time>2015-06-29T18:35:08.788Z</time>
      </trkpt>
      <trkpt lat="48.86493" lon="2.30969">
        <ele>82.9</ele>
        <time>2015-06-29T18:35:10.720Z</time>
      </trkpt>
      <trkpt lat="48.86492" lon="2.30964">
        <ele>82.9</ele>
        <time>2015-06-29T18:35:11.736Z</time>
      </trkpt>
      <trkpt lat="48.86492" lon="2.30954">
        <ele>83</ele>
        <time>2015-06-29T18:35:13.791Z</time>
      </trkpt>
      <trkpt lat="48.86492" lon="2.30948">
        <ele>82.9</ele>
        <time>2015-06-29T18:35:14.835Z</time>
      </trkpt>
      <trkpt lat="48.86491" lon="2.30937">
        <ele>83</ele>
        <time>2015-06-29T18:35:16.736Z</time>
      </trkpt>
      <trkpt lat="48.86491" lon="2.30931">
        <ele>83.2</ele>
        <time>2015-06-29T18:35:17.745Z</time>
      </trkpt>
      <trkpt lat="48.86489" lon="2.30919">
        <ele>83.2</ele>
        <time>2015-06-29T18:35:19.757Z</time>
      </trkpt>
      <trkpt lat="48.86489" lon="2.30914">
        <ele>83.2</ele>
        <time>2015-06-29T18:35:20.764Z</time>
      </trkpt>
      <trkpt lat="48.86488" lon="2.309">
        <ele>83</ele>
        <time>2015-06-29T18:35:22.787Z</time>
      </trkpt>
      <trkpt lat="48.86488" lon="2.30893">
        <ele>83</ele>
        <time>2015-06-29T18:35:23.806Z</time>
      </trkpt>
      <trkpt lat="48.86487" lon="2.30886">
        <ele>83</ele>
        <time>2015-06-29T18:35:24.874Z</time>
      </trkpt>
      <trkpt lat="48.86487" lon="2.30879">
        <ele>83.2</ele>
        <time>2015-06-29T18:35:25.722Z</time>
      </trkpt>
      <trkpt lat="48.86487" lon="2.30872">
        <ele>83.3</ele>
        <time>2015-06-29T18:35:26.792Z</time>
      </trkpt>
      <trkpt lat="48.86487" lon="2.30864">
        <ele>83.3</ele>
        <time>2015-06-29T18:35:27.936Z</time>
      </trkpt>
      <trkpt lat="48.86487" lon="2.30857">
        <ele>83.3</ele>
        <time>2015-06-29T18:35:28.752Z</time>
      </trkpt>
      <trkpt lat="48.86487" lon="2.30849">
        <ele>83.4</ele>
        <time>2015-06-29T18:35:29.756Z</time>
      </trkpt>
      <trkpt lat="48.86486" lon="2.30841">
        <ele>83.5</ele>
        <time>2015-06-29T18:35:30.768Z</time>
      </trkpt>
      <trkpt lat="48.86486" lon="2.30832">
        <ele>83.5</ele>
        <time>2015-06-29T18:35:31.778Z</time>
      </trkpt>
      <trkpt lat="48.86486" lon="2.30824">
        <ele>83.6</ele>
        <time>2015-06-29T18:35:32.788Z</time>
      </trkpt>
      <trkpt lat="48.86486" lon="2.30816">
        <ele>83.5</ele>
        <time>2015-06-29T18:35:33.793Z</time>
      </trkpt>
      <trkpt lat="48.86487" lon="2.30808">
        <ele>83.6</ele>
        <time>2015-06-29T18:35:34.802Z</time>
      </trkpt>
      <trkpt lat="48.86487" lon="2.30801">
        <ele>83.6</ele>
        <time>2015-06-29T18:35:35.742Z</time>
      </trkpt>
      <trkpt lat="48.86486" lon="2.30793">
        <ele>83.6</ele>
        <time>2015-06-29T18:35:36.733Z</time>
      </trkpt>
      <trkpt lat="48.86486" lon="2.30786">
        <ele>83.5</ele>
        <time>2015-06-29T18:35:37.736Z</time>
      </trkpt>
      <trkpt lat="48.86486" lon="2.3078">
        <ele>83.5</ele>
        <time>2015-06-29T18:35:38.793Z</time>
      </trkpt>
      <trkpt lat="48.86485" lon="2.30772">
        <ele>83.6</ele>
        <time>2015-06-29T18:35:39.801Z</time>
      </trkpt>
      <trkpt lat="48.86485" lon="2.30765">
        <ele>83.8</ele>
        <time>2015-06-29T18:35:40.826Z</time>
      </trkpt>
      <trkpt lat="48.86485" lon="2.30757">
        <ele>83.8</ele>
        <time>2015-06-29T18:35:41.736Z</time>
      </trkpt>
      <trkpt lat="48.86485" lon="2.3075">
        <ele>83.8</ele>
        <time>2015-06-29T18:35:42.736Z</time>
      </trkpt>
      <trkpt lat="48.86484" lon="2.30742">
        <ele>83.9</ele>
        <time>2015-06-29T18:35:43.739Z</time>
      </trkpt>
      <trkpt lat="48.86484" lon="2.30735">
        <ele>83.9</ele>
        <time>2015-06-29T18:35:44.777Z</time>
      </trkpt>
      <trkpt lat="48.86483" lon="2.30727">
        <ele>84</ele>
        <time>2015-06-29T18:35:45.780Z</time>
      </trkpt>
      <trkpt lat="48.86483" lon="2.30719">
        <ele>84</ele>
        <time>2015-06-29T18:35:46.790Z</time>
      </trkpt>
      <trkpt lat="48.86483" lon="2.30712">
        <ele>84.1</ele>
        <time>2015-06-29T18:35:47.802Z</time>
      </trkpt>
      <trkpt lat="48.86483" lon="2.30705">
        <ele>84.2</ele>
        <time>2015-06-29T18:35:48.697Z</time>
      </trkpt>
      <trkpt lat="48.86482" lon="2.30697">
        <ele>84.2</ele>
        <time>2015-06-29T18:35:49.708Z</time>
      </trkpt>
      <trkpt lat="48.86481" lon="2.3069">
        <ele>84.2</ele>
        <time>2015-06-29T18:35:50.776Z</time>
      </trkpt>
      <trkpt lat="48.86481" lon="2.30682">
        <ele>84.3</ele>
        <time>2015-06-29T18:35:51.764Z</time>
      </trkpt>
      <trkpt lat="48.8648" lon="2.30674">
        <ele>84.4</ele>
        <time>2015-06-29T18:35:52.778Z</time>
      </trkpt>
      <trkpt lat="48.8648" lon="2.30666">
        <ele>84.6</ele>
        <time>2015-06-29T18:35:53.922Z</time>
      </trkpt>
      <trkpt lat="48.8648" lon="2.30658">
        <ele>84.8</ele>
        <time>2015-06-29T18:35:54.803Z</time>
      </trkpt>
      <trkpt lat="48.8648" lon="2.3065">
        <ele>84.9</ele>
        <time>2015-06-29T18:35:55.819Z</time>
      </trkpt>
      <trkpt lat="48.8648" lon="2.30643">
        <ele>85.1</ele>
        <time>2015-06-29T18:35:56.841Z</time>
      </trkpt>
      <trkpt lat="48.8648" lon="2.30635">
        <ele>85.3</ele>
        <time>2015-06-29T18:35:57.730Z</time>
      </trkpt>
      <trkpt lat="48.86479" lon="2.30627">
        <ele>85.4</ele>
        <time>2015-06-29T18:35:58.730Z</time>
      </trkpt>
      <trkpt lat="48.86479" lon="2.30619">
        <ele>85.6</ele>
        <time>2015-06-29T18:35:59.740Z</time>
      </trkpt>
      <trkpt lat="48.86479" lon="2.3061">
        <ele>85.8</ele>
        <time>2015-06-29T18:36:00.754Z</time>
      </trkpt>
      <trkpt lat="48.86478" lon="2.30602">
        <ele>85.8</ele>
        <time>2015-06-29T18:36:01.757Z</time>
      </trkpt>
      <trkpt lat="48.86479" lon="2.30594">
        <ele>85.8</ele>
        <time>2015-06-29T18:36:02.816Z</time>
      </trkpt>
      <trkpt lat="48.86478" lon="2.30586">
        <ele>86</ele>
        <time>2015-06-29T18:36:03.808Z</time>
      </trkpt>
      <trkpt lat="48.86479" lon="2.30577">
        <ele>86.2</ele>
        <time>2015-06-29T18:36:04.769Z</time>
      </trkpt>
      <trkpt lat="48.86479" lon="2.30569">
        <ele>86.3</ele>
        <time>2015-06-29T18:36:05.930Z</time>
      </trkpt>
      <trkpt lat="48.86479" lon="2.30561">
        <ele>86.3</ele>
        <time>2015-06-29T18:36:06.784Z</time>
      </trkpt>
      <trkpt lat="48.86479" lon="2.30553">
        <ele>86.3</ele>
        <time>2015-06-29T18:36:07.778Z</time>
      </trkpt>
      <trkpt lat="48.86479" lon="2.30545">
        <ele>86.6</ele>
        <time>2015-06-29T18:36:08.787Z</time>
      </trkpt>
      <trkpt lat="48.86479" lon="2.30537">
        <ele>86.7</ele>
        <time>2015-06-29T18:36:09.798Z</time>
      </trkpt>
      <trkpt lat="48.86479" lon="2.30529">
        <ele>86.9</ele>
        <time>2015-06-29T18:36:10.823Z</time>
      </trkpt>
      <trkpt lat="48.86479" lon="2.30521">
        <ele>86.8</ele>
        <time>2015-06-29T18:36:11.729Z</time>
      </trkpt>
      <trkpt lat="48.86478" lon="2.30512">
        <ele>86.6</ele>
        <time>2015-06-29T18:36:12.737Z</time>
      </trkpt>
      <trkpt lat="48.86478" lon="2.30504">
        <ele>86.4</ele>
        <time>2015-06-29T18:36:13.745Z</time>
      </trkpt>
      <trkpt lat="48.86478" lon="2.30495">
        <ele>86</ele>
        <time>2015-06-29T18:36:14.795Z</time>
      </trkpt>
      <trkpt lat="48.86478" lon="2.30487">
        <ele>85.8</ele>
        <time>2015-06-29T18:36:15.787Z</time>
      </trkpt>
      <trkpt lat="48.86478" lon="2.30478">
        <ele>85.3</ele>
        <time>2015-06-29T18:36:16.801Z</time>
      </trkpt>
      <trkpt lat="48.86478" lon="2.3047">
        <ele>85.3</ele>
        <time>2015-06-29T18:36:17.805Z</time>
      </trkpt>
      <trkpt lat="48.86477" lon="2.30461">
        <ele>85.2</ele>
        <time>2015-06-29T18:36:18.814Z</time>
      </trkpt>
      <trkpt lat="48.86477" lon="2.30453">
        <ele>85.3</ele>
        <time>2015-06-29T18:36:19.733Z</time>
      </trkpt>
      <trkpt lat="48.86477" lon="2.30444">
        <ele>85.3</ele>
        <time>2015-06-29T18:36:20.833Z</time>
      </trkpt>
      <trkpt lat="48.86476" lon="2.30435">
        <ele>85.2</ele>
        <time>2015-06-29T18:36:21.735Z</time>
      </trkpt>
      <trkpt lat="48.86476" lon="2.30427">
        <ele>84.9</ele>
        <time>2015-06-29T18:36:22.737Z</time>
      </trkpt>
      <trkpt lat="48.86475" lon="2.30419">
        <ele>84.8</ele>
        <time>2015-06-29T18:36:23.747Z</time>
      </trkpt>
      <trkpt lat="48.86475" lon="2.30411">
        <ele>84.8</ele>
        <time>2015-06-29T18:36:24.756Z</time>
      </trkpt>
      <trkpt lat="48.86475" lon="2.30402">
        <ele>85</ele>
        <time>2015-06-29T18:36:25.770Z</time>
      </trkpt>
      <trkpt lat="48.86475" lon="2.30393">
        <ele>85.2</ele>
        <time>2015-06-29T18:36:26.784Z</time>
      </trkpt>
      <trkpt lat="48.86475" lon="2.30384">
        <ele>85.2</ele>
        <time>2015-06-29T18:36:27.801Z</time>
      </trkpt>
      <trkpt lat="48.86474" lon="2.30374">
        <ele>85.3</ele>
        <time>2015-06-29T18:36:28.806Z</time>
      </trkpt>
      <trkpt lat="48.86475" lon="2.30366">
        <ele>85.4</ele>
        <time>2015-06-29T18:36:29.764Z</time>
      </trkpt>
      <trkpt lat="48.86475" lon="2.30357">
        <ele>85.3</ele>
        <time>2015-06-29T18:36:30.741Z</time>
      </trkpt>
      <trkpt lat="48.86475" lon="2.30349">
        <ele>85.1</ele>
        <time>2015-06-29T18:36:31.747Z</time>
      </trkpt>
      <trkpt lat="48.86475" lon="2.30341">
        <ele>84.9</ele>
        <time>2015-06-29T18:36:32.849Z</time>
      </trkpt>
      <trkpt lat="48.86475" lon="2.30333">
        <ele>84.9</ele>
        <time>2015-06-29T18:36:33.712Z</time>
      </trkpt>
      <trkpt lat="48.86475" lon="2.30326">
        <ele>84.9</ele>
        <time>2015-06-29T18:36:34.742Z</time>
      </trkpt>
      <trkpt lat="48.86476" lon="2.30318">
        <ele>84.8</ele>
        <time>2015-06-29T18:36:35.751Z</time>
      </trkpt>
      <trkpt lat="48.86476" lon="2.3031">
        <ele>84.9</ele>
        <time>2015-06-29T18:36:36.793Z</time>
      </trkpt>
      <trkpt lat="48.86477" lon="2.30304">
        <ele>85</ele>
        <time>2015-06-29T18:36:37.798Z</time>
      </trkpt>
      <trkpt lat="48.86476" lon="2.30296">
        <ele>85.2</ele>
        <time>2015-06-29T18:36:38.810Z</time>
      </trkpt>
      <trkpt lat="48.86476" lon="2.30289">
        <ele>85.2</ele>
        <time>2015-06-29T18:36:39.820Z</time>
      </trkpt>
      <trkpt lat="48.86476" lon="2.30282">
        <ele>85.3</ele>
        <time>2015-06-29T18:36:40.740Z</time>
      </trkpt>
      <trkpt lat="48.86476" lon="2.30275">
        <ele>85.3</ele>
        <time>2015-06-29T18:36:41.746Z</time>
      </trkpt>
      <trkpt lat="48.86476" lon="2.30262">
        <ele>85.4</ele>
        <time>2015-06-29T18:36:43.790Z</time>
      </trkpt>
      <trkpt lat="48.86476" lon="2.30257">
        <ele>85.4</ele>
        <time>2015-06-29T18:36:44.920Z</time>
      </trkpt>
      <trkpt lat="48.86476" lon="2.30245">
        <ele>85.3</ele>
        <time>2015-06-29T18:36:46.768Z</time>
      </trkpt>
      <trkpt lat="48.86476" lon="2.3024">
        <ele>85.3</ele>
        <time>2015-06-29T18:36:47.797Z</time>
      </trkpt>
      <trkpt lat="48.86474" lon="2.30231">
        <ele>85.3</ele>
        <time>2015-06-29T18:36:49.821Z</time>
      </trkpt>
      <trkpt lat="48.86472" lon="2.30226">
        <ele>85.3</ele>
        <time>2015-06-29T18:36:50.839Z</time>
      </trkpt>
      <trkpt lat="48.86469" lon="2.30214">
        <ele>84.4</ele>
        <time>2015-06-29T18:36:53.763Z</time>
      </trkpt>
      <trkpt lat="48.86468" lon="2.3021">
        <ele>84.1</ele>
        <time>2015-06-29T18:36:54.791Z</time>
      </trkpt>
      <trkpt lat="48.86465" lon="2.30197">
        <ele>83.8</ele>
        <time>2015-06-29T18:36:57.811Z</time>
      </trkpt>
      <trkpt lat="48.86465" lon="2.30193">
        <ele>84</ele>
        <time>2015-06-29T18:36:58.867Z</time>
      </trkpt>
      <trkpt lat="48.86464" lon="2.30184">
        <ele>83.6</ele>
        <time>2015-06-29T18:37:02.824Z</time>
      </trkpt>
      <trkpt lat="48.86465" lon="2.30186">
        <ele>82</ele>
        <time>2015-06-29T18:37:03.760Z</time>
      </trkpt>
      <trkpt lat="48.86466" lon="2.30187">
        <ele>80.9</ele>
        <time>2015-06-29T18:37:12.016Z</time>
      </trkpt>
      <trkpt lat="48.86467" lon="2.30185">
        <ele>79.1</ele>
        <time>2015-06-29T18:37:12.761Z</time>
      </trkpt>
      <trkpt lat="48.86465" lon="2.30174">
        <ele>78.8</ele>
        <time>2015-06-29T18:37:17.819Z</time>
      </trkpt>
      <trkpt lat="48.86464" lon="2.30171">
        <ele>78.9</ele>
        <time>2015-06-29T18:37:18.831Z</time>
      </trkpt>
      <trkpt lat="48.86467" lon="2.30158">
        <ele>79.8</ele>
        <time>2015-06-29T18:37:23.758Z</time>
      </trkpt>
      <trkpt lat="48.86467" lon="2.30157">
        <ele>79.7</ele>
        <time>2015-06-29T18:37:24.823Z</time>
      </trkpt>
      <trkpt lat="48.8647" lon="2.30146">
        <ele>79.9</ele>
        <time>2015-06-29T18:37:31.797Z</time>
      </trkpt>
      <trkpt lat="48.8647" lon="2.30144">
        <ele>79.8</ele>
        <time>2015-06-29T18:37:32.801Z</time>
      </trkpt>
      <trkpt lat="48.86466" lon="2.30133">
        <ele>79.2</ele>
        <time>2015-06-29T18:37:35.740Z</time>
      </trkpt>
      <trkpt lat="48.86463" lon="2.3013">
        <ele>78.9</ele>
        <time>2015-06-29T18:37:36.734Z</time>
      </trkpt>
      <trkpt lat="48.86457" lon="2.30121">
        <ele>78.3</ele>
        <time>2015-06-29T18:37:39.736Z</time>
      </trkpt>
      <trkpt lat="48.86455" lon="2.30118">
        <ele>78.3</ele>
        <time>2015-06-29T18:37:40.738Z</time>
      </trkpt>
      <trkpt lat="48.86448" lon="2.30113">
        <ele>78.1</ele>
        <time>2015-06-29T18:37:43.776Z</time>
      </trkpt>
      <trkpt lat="48.86445" lon="2.30112">
        <ele>78.1</ele>
        <time>2015-06-29T18:37:44.791Z</time>
      </trkpt>
      <trkpt lat="48.86439" lon="2.3011">
        <ele>78.2</ele>
        <time>2015-06-29T18:37:46.817Z</time>
      </trkpt>
      <trkpt lat="48.86436" lon="2.30107">
        <ele>78.1</ele>
        <time>2015-06-29T18:37:47.759Z</time>
      </trkpt>
      <trkpt lat="48.86429" lon="2.30103">
        <ele>78.1</ele>
        <time>2015-06-29T18:37:49.742Z</time>
      </trkpt>
      <trkpt lat="48.86426" lon="2.30099">
        <ele>78.2</ele>
        <time>2015-06-29T18:37:50.769Z</time>
      </trkpt>
      <trkpt lat="48.86425" lon="2.30092">
        <ele>78.2</ele>
        <time>2015-06-29T18:37:51.784Z</time>
      </trkpt>
      <trkpt lat="48.86426" lon="2.30082">
        <ele>78.1</ele>
        <time>2015-06-29T18:37:52.795Z</time>
      </trkpt>
      <trkpt lat="48.86424" lon="2.30074">
        <ele>77.9</ele>
        <time>2015-06-29T18:37:53.725Z</time>
      </trkpt>
      <trkpt lat="48.86424" lon="2.30065">
        <ele>77.9</ele>
        <time>2015-06-29T18:37:54.722Z</time>
      </trkpt>
      <trkpt lat="48.86423" lon="2.30058">
        <ele>77.9</ele>
        <time>2015-06-29T18:37:55.727Z</time>
      </trkpt>
      <trkpt lat="48.86422" lon="2.30049">
        <ele>77.9</ele>
        <time>2015-06-29T18:37:56.771Z</time>
      </trkpt>
      <trkpt lat="48.86422" lon="2.30041">
        <ele>77.9</ele>
        <time>2015-06-29T18:37:57.764Z</time>
      </trkpt>
      <trkpt lat="48.86421" lon="2.30032">
        <ele>77.9</ele>
        <time>2015-06-29T18:37:58.779Z</time>
      </trkpt>
      <trkpt lat="48.8642" lon="2.30025">
        <ele>78</ele>
        <time>2015-06-29T18:37:59.773Z</time>
      </trkpt>
      <trkpt lat="48.86419" lon="2.30017">
        <ele>78.1</ele>
        <time>2015-06-29T18:38:00.796Z</time>
      </trkpt>
      <trkpt lat="48.86418" lon="2.30009">
        <ele>78.2</ele>
        <time>2015-06-29T18:38:01.719Z</time>
      </trkpt>
      <trkpt lat="48.86416" lon="2.3">
        <ele>78.1</ele>
        <time>2015-06-29T18:38:02.806Z</time>
      </trkpt>
      <trkpt lat="48.86415" lon="2.29992">
        <ele>78.2</ele>
        <time>2015-06-29T18:38:03.736Z</time>
      </trkpt>
      <trkpt lat="48.86413" lon="2.29984">
        <ele>78.3</ele>
        <time>2015-06-29T18:38:04.729Z</time>
      </trkpt>
      <trkpt lat="48.86412" lon="2.29976">
        <ele>78.3</ele>
        <time>2015-06-29T18:38:05.737Z</time>
      </trkpt>
      <trkpt lat="48.8641" lon="2.29968">
        <ele>78.4</ele>
        <time>2015-06-29T18:38:06.749Z</time>
      </trkpt>
      <trkpt lat="48.86409" lon="2.29959">
        <ele>78.6</ele>
        <time>2015-06-29T18:38:07.765Z</time>
      </trkpt>
      <trkpt lat="48.86407" lon="2.29951">
        <ele>78.6</ele>
        <time>2015-06-29T18:38:08.776Z</time>
      </trkpt>
      <trkpt lat="48.86406" lon="2.29944">
        <ele>78.8</ele>
        <time>2015-06-29T18:38:09.783Z</time>
      </trkpt>
      <trkpt lat="48.86404" lon="2.29936">
        <ele>78.9</ele>
        <time>2015-06-29T18:38:10.796Z</time>
      </trkpt>
      <trkpt lat="48.86402" lon="2.29929">
        <ele>78.9</ele>
        <time>2015-06-29T18:38:11.805Z</time>
      </trkpt>
      <trkpt lat="48.86401" lon="2.29921">
        <ele>79</ele>
        <time>2015-06-29T18:38:12.812Z</time>
      </trkpt>
      <trkpt lat="48.86399" lon="2.29913">
        <ele>79.1</ele>
        <time>2015-06-29T18:38:13.756Z</time>
      </trkpt>
      <trkpt lat="48.86396" lon="2.29905">
        <ele>79.5</ele>
        <time>2015-06-29T18:38:14.802Z</time>
      </trkpt>
      <trkpt lat="48.86395" lon="2.29897">
        <ele>79.7</ele>
        <time>2015-06-29T18:38:15.740Z</time>
      </trkpt>
      <trkpt lat="48.86393" lon="2.29889">
        <ele>79.8</ele>
        <time>2015-06-29T18:38:16.742Z</time>
      </trkpt>
      <trkpt lat="48.86391" lon="2.29881">
        <ele>79.8</ele>
        <time>2015-06-29T18:38:17.750Z</time>
      </trkpt>
      <trkpt lat="48.86389" lon="2.29874">
        <ele>79.6</ele>
        <time>2015-06-29T18:38:18.758Z</time>
      </trkpt>
      <trkpt lat="48.86387" lon="2.29868">
        <ele>79.7</ele>
        <time>2015-06-29T18:38:19.765Z</time>
      </trkpt>
      <trkpt lat="48.86385" lon="2.29861">
        <ele>79.8</ele>
        <time>2015-06-29T18:38:20.781Z</time>
      </trkpt>
      <trkpt lat="48.86382" lon="2.29854">
        <ele>79.8</ele>
        <time>2015-06-29T18:38:21.788Z</time>
      </trkpt>
      <trkpt lat="48.86381" lon="2.29847">
        <ele>79.5</ele>
        <time>2015-06-29T18:38:22.793Z</time>
      </trkpt>
      <trkpt lat="48.86379" lon="2.2984">
        <ele>79.4</ele>
        <time>2015-06-29T18:38:23.810Z</time>
      </trkpt>
      <trkpt lat="48.86378" lon="2.29834">
        <ele>79.4</ele>
        <time>2015-06-29T18:38:24.816Z</time>
      </trkpt>
      <trkpt lat="48.86376" lon="2.29827">
        <ele>79.3</ele>
        <time>2015-06-29T18:38:25.742Z</time>
      </trkpt>
      <trkpt lat="48.86374" lon="2.29819">
        <ele>79.3</ele>
        <time>2015-06-29T18:38:26.752Z</time>
      </trkpt>
      <trkpt lat="48.86372" lon="2.29811">
        <ele>79.2</ele>
        <time>2015-06-29T18:38:27.767Z</time>
      </trkpt>
      <trkpt lat="48.86371" lon="2.29803">
        <ele>79.2</ele>
        <time>2015-06-29T18:38:28.767Z</time>
      </trkpt>
      <trkpt lat="48.86369" lon="2.29797">
        <ele>79.2</ele>
        <time>2015-06-29T18:38:29.782Z</time>
      </trkpt>
      <trkpt lat="48.86367" lon="2.2979">
        <ele>79.3</ele>
        <time>2015-06-29T18:38:30.787Z</time>
      </trkpt>
      <trkpt lat="48.86365" lon="2.29784">
        <ele>79.2</ele>
        <time>2015-06-29T18:38:31.789Z</time>
      </trkpt>
      <trkpt lat="48.86363" lon="2.29777">
        <ele>79.3</ele>
        <time>2015-06-29T18:38:32.803Z</time>
      </trkpt>
      <trkpt lat="48.8636" lon="2.29765">
        <ele>79.3</ele>
        <time>2015-06-29T18:38:34.824Z</time>
      </trkpt>
      <trkpt lat="48.86358" lon="2.29759">
        <ele>79.3</ele>
        <time>2015-06-29T18:38:35.733Z</time>
      </trkpt>
      <trkpt lat="48.86357" lon="2.29752">
        <ele>79.2</ele>
        <time>2015-06-29T18:38:36.731Z</time>
      </trkpt>
      <trkpt lat="48.86355" lon="2.29745">
        <ele>79.2</ele>
        <time>2015-06-29T18:38:37.770Z</time>
      </trkpt>
      <trkpt lat="48.86353" lon="2.29737">
        <ele>79.1</ele>
        <time>2015-06-29T18:38:38.810Z</time>
      </trkpt>
      <trkpt lat="48.86351" lon="2.29729">
        <ele>79.1</ele>
        <time>2015-06-29T18:38:39.816Z</time>
      </trkpt>
      <trkpt lat="48.86349" lon="2.29722">
        <ele>79.1</ele>
        <time>2015-06-29T18:38:40.731Z</time>
      </trkpt>
      <trkpt lat="48.86347" lon="2.29714">
        <ele>79</ele>
        <time>2015-06-29T18:38:41.735Z</time>
      </trkpt>
      <trkpt lat="48.86345" lon="2.29707">
        <ele>79.1</ele>
        <time>2015-06-29T18:38:42.743Z</time>
      </trkpt>
      <trkpt lat="48.86343" lon="2.29699">
        <ele>79.1</ele>
        <time>2015-06-29T18:38:43.746Z</time>
      </trkpt>
      <trkpt lat="48.86341" lon="2.29691">
        <ele>79.3</ele>
        <time>2015-06-29T18:38:44.777Z</time>
      </trkpt>
      <trkpt lat="48.86338" lon="2.29683">
        <ele>79.4</ele>
        <time>2015-06-29T18:38:45.784Z</time>
      </trkpt>
      <trkpt lat="48.86336" lon="2.29675">
        <ele>79.4</ele>
        <time>2015-06-29T18:38:46.795Z</time>
      </trkpt>
      <trkpt lat="48.86334" lon="2.29669">
        <ele>79.4</ele>
        <time>2015-06-29T18:38:47.806Z</time>
      </trkpt>
      <trkpt lat="48.86332" lon="2.29662">
        <ele>79.5</ele>
        <time>2015-06-29T18:38:48.713Z</time>
      </trkpt>
      <trkpt lat="48.8633" lon="2.29656">
        <ele>79.5</ele>
        <time>2015-06-29T18:38:49.735Z</time>
      </trkpt>
      <trkpt lat="48.86327" lon="2.29649">
        <ele>79.3</ele>
        <time>2015-06-29T18:38:50.762Z</time>
      </trkpt>
      <trkpt lat="48.86323" lon="2.29642">
        <ele>79.4</ele>
        <time>2015-06-29T18:38:51.772Z</time>
      </trkpt>
      <trkpt lat="48.86321" lon="2.29635">
        <ele>79.5</ele>
        <time>2015-06-29T18:38:52.785Z</time>
      </trkpt>
      <trkpt lat="48.86319" lon="2.29627">
        <ele>79.5</ele>
        <time>2015-06-29T18:38:53.786Z</time>
      </trkpt>
      <trkpt lat="48.86316" lon="2.29619">
        <ele>79.5</ele>
        <time>2015-06-29T18:38:54.790Z</time>
      </trkpt>
      <trkpt lat="48.86314" lon="2.29611">
        <ele>79.7</ele>
        <time>2015-06-29T18:38:55.802Z</time>
      </trkpt>
      <trkpt lat="48.8631" lon="2.29604">
        <ele>79.7</ele>
        <time>2015-06-29T18:38:56.814Z</time>
      </trkpt>
      <trkpt lat="48.86308" lon="2.29597">
        <ele>79.8</ele>
        <time>2015-06-29T18:38:57.730Z</time>
      </trkpt>
      <trkpt lat="48.86305" lon="2.2959">
        <ele>79.8</ele>
        <time>2015-06-29T18:38:58.740Z</time>
      </trkpt>
      <trkpt lat="48.86302" lon="2.29583">
        <ele>79.7</ele>
        <time>2015-06-29T18:38:59.748Z</time>
      </trkpt>
      <trkpt lat="48.863" lon="2.29576">
        <ele>79.6</ele>
        <time>2015-06-29T18:39:00.768Z</time>
      </trkpt>
      <trkpt lat="48.86298" lon="2.29568">
        <ele>79.6</ele>
        <time>2015-06-29T18:39:01.781Z</time>
      </trkpt>
      <trkpt lat="48.86296" lon="2.29561">
        <ele>79.6</ele>
        <time>2015-06-29T18:39:02.816Z</time>
      </trkpt>
      <trkpt lat="48.86294" lon="2.29555">
        <ele>79.6</ele>
        <time>2015-06-29T18:39:03.733Z</time>
      </trkpt>
      <trkpt lat="48.86292" lon="2.29548">
        <ele>79.5</ele>
        <time>2015-06-29T18:39:04.748Z</time>
      </trkpt>
      <trkpt lat="48.8629" lon="2.29542">
        <ele>79.5</ele>
        <time>2015-06-29T18:39:05.751Z</time>
      </trkpt>
      <trkpt lat="48.86287" lon="2.29535">
        <ele>79.6</ele>
        <time>2015-06-29T18:39:06.760Z</time>
      </trkpt>
      <trkpt lat="48.86284" lon="2.29528">
        <ele>79.6</ele>
        <time>2015-06-29T18:39:07.776Z</time>
      </trkpt>
      <trkpt lat="48.86283" lon="2.29521">
        <ele>79.7</ele>
        <time>2015-06-29T18:39:08.796Z</time>
      </trkpt>
      <trkpt lat="48.86281" lon="2.29515">
        <ele>79.8</ele>
        <time>2015-06-29T18:39:09.809Z</time>
      </trkpt>
      <trkpt lat="48.86279" lon="2.29508">
        <ele>79.6</ele>
        <time>2015-06-29T18:39:10.711Z</time>
      </trkpt>
      <trkpt lat="48.86277" lon="2.29501">
        <ele>79.6</ele>
        <time>2015-06-29T18:39:11.727Z</time>
      </trkpt>
      <trkpt lat="48.86276" lon="2.29494">
        <ele>79.6</ele>
        <time>2015-06-29T18:39:12.724Z</time>
      </trkpt>
      <trkpt lat="48.86274" lon="2.29488">
        <ele>79.7</ele>
        <time>2015-06-29T18:39:13.740Z</time>
      </trkpt>
      <trkpt lat="48.86271" lon="2.29481">
        <ele>79.8</ele>
        <time>2015-06-29T18:39:14.784Z</time>
      </trkpt>
      <trkpt lat="48.86269" lon="2.29475">
        <ele>79.9</ele>
        <time>2015-06-29T18:39:15.777Z</time>
      </trkpt>
      <trkpt lat="48.86266" lon="2.29469">
        <ele>79.9</ele>
        <time>2015-06-29T18:39:16.787Z</time>
      </trkpt>
      <trkpt lat="48.86264" lon="2.29463">
        <ele>79.9</ele>
        <time>2015-06-29T18:39:17.800Z</time>
      </trkpt>
      <trkpt lat="48.86262" lon="2.29456">
        <ele>79.8</ele>
        <time>2015-06-29T18:39:18.825Z</time>
      </trkpt>
      <trkpt lat="48.86261" lon="2.29445">
        <ele>79.7</ele>
        <time>2015-06-29T18:39:19.698Z</time>
      </trkpt>
      <trkpt lat="48.86259" lon="2.29438">
        <ele>79.7</ele>
        <time>2015-06-29T18:39:20.738Z</time>
      </trkpt>
      <trkpt lat="48.86257" lon="2.29431">
        <ele>79.7</ele>
        <time>2015-06-29T18:39:21.750Z</time>
      </trkpt>
      <trkpt lat="48.86252" lon="2.2942">
        <ele>79.7</ele>
        <time>2015-06-29T18:39:24.651Z</time>
      </trkpt>
      <trkpt lat="48.8625" lon="2.29413">
        <ele>79.7</ele>
        <time>2015-06-29T18:39:24.807Z</time>
      </trkpt>
      <trkpt lat="48.86247" lon="2.29407">
        <ele>79.9</ele>
        <time>2015-06-29T18:39:25.792Z</time>
      </trkpt>
      <trkpt lat="48.86244" lon="2.29401">
        <ele>79.9</ele>
        <time>2015-06-29T18:39:26.824Z</time>
      </trkpt>
      <trkpt lat="48.86241" lon="2.29395">
        <ele>80</ele>
        <time>2015-06-29T18:39:27.713Z</time>
      </trkpt>
      <trkpt lat="48.86238" lon="2.29389">
        <ele>80.1</ele>
        <time>2015-06-29T18:39:28.732Z</time>
      </trkpt>
      <trkpt lat="48.86233" lon="2.29378">
        <ele>80.3</ele>
        <time>2015-06-29T18:39:30.756Z</time>
      </trkpt>
      <trkpt lat="48.8623" lon="2.29372">
        <ele>80.3</ele>
        <time>2015-06-29T18:39:31.772Z</time>
      </trkpt>
      <trkpt lat="48.86227" lon="2.29366">
        <ele>80.5</ele>
        <time>2015-06-29T18:39:32.819Z</time>
      </trkpt>
      <trkpt lat="48.86223" lon="2.29361">
        <ele>80.6</ele>
        <time>2015-06-29T18:39:33.733Z</time>
      </trkpt>
      <trkpt lat="48.8622" lon="2.29356">
        <ele>80.2</ele>
        <time>2015-06-29T18:39:34.775Z</time>
      </trkpt>
      <trkpt lat="48.86216" lon="2.29351">
        <ele>80.1</ele>
        <time>2015-06-29T18:39:35.787Z</time>
      </trkpt>
      <trkpt lat="48.86215" lon="2.29344">
        <ele>80.2</ele>
        <time>2015-06-29T18:39:36.806Z</time>
      </trkpt>
      <trkpt lat="48.86214" lon="2.29336">
        <ele>80.3</ele>
        <time>2015-06-29T18:39:37.815Z</time>
      </trkpt>
      <trkpt lat="48.86212" lon="2.29328">
        <ele>80.3</ele>
        <time>2015-06-29T18:39:38.812Z</time>
      </trkpt>
      <trkpt lat="48.86211" lon="2.29321">
        <ele>80.2</ele>
        <time>2015-06-29T18:39:39.808Z</time>
      </trkpt>
      <trkpt lat="48.86207" lon="2.29312">
        <ele>79.9</ele>
        <time>2015-06-29T18:39:41.834Z</time>
      </trkpt>
      <trkpt lat="48.86204" lon="2.29309">
        <ele>79.9</ele>
        <time>2015-06-29T18:39:42.768Z</time>
      </trkpt>
      <trkpt lat="48.86196" lon="2.29304">
        <ele>80.3</ele>
        <time>2015-06-29T18:39:44.810Z</time>
      </trkpt>
      <trkpt lat="48.86194" lon="2.29302">
        <ele>80.2</ele>
        <time>2015-06-29T18:39:45.837Z</time>
      </trkpt>
      <trkpt lat="48.86189" lon="2.29295">
        <ele>80.3</ele>
        <time>2015-06-29T18:39:47.760Z</time>
      </trkpt>
      <trkpt lat="48.86186" lon="2.29291">
        <ele>80.2</ele>
        <time>2015-06-29T18:39:48.771Z</time>
      </trkpt>
      <trkpt lat="48.8618" lon="2.29282">
        <ele>80.1</ele>
        <time>2015-06-29T18:39:50.815Z</time>
      </trkpt>
      <trkpt lat="48.86177" lon="2.29278">
        <ele>79.6</ele>
        <time>2015-06-29T18:39:51.832Z</time>
      </trkpt>
      <trkpt lat="48.86171" lon="2.2927">
        <ele>79.2</ele>
        <time>2015-06-29T18:39:53.769Z</time>
      </trkpt>
      <trkpt lat="48.86168" lon="2.29266">
        <ele>79</ele>
        <time>2015-06-29T18:39:54.790Z</time>
      </trkpt>
      <trkpt lat="48.86162" lon="2.29258">
        <ele>78.7</ele>
        <time>2015-06-29T18:39:56.837Z</time>
      </trkpt>
      <trkpt lat="48.86158" lon="2.29254">
        <ele>78.7</ele>
        <time>2015-06-29T18:39:57.772Z</time>
      </trkpt>
      <trkpt lat="48.86152" lon="2.29245">
        <ele>78.3</ele>
        <time>2015-06-29T18:39:59.822Z</time>
      </trkpt>
      <trkpt lat="48.86148" lon="2.29241">
        <ele>78.3</ele>
        <time>2015-06-29T18:40:00.752Z</time>
      </trkpt>
      <trkpt lat="48.86141" lon="2.29232">
        <ele>78.2</ele>
        <time>2015-06-29T18:40:02.857Z</time>
      </trkpt>
      <trkpt lat="48.86138" lon="2.29228">
        <ele>77.9</ele>
        <time>2015-06-29T18:40:03.738Z</time>
      </trkpt>
      <trkpt lat="48.86131" lon="2.29222">
        <ele>77.9</ele>
        <time>2015-06-29T18:40:05.776Z</time>
      </trkpt>
      <trkpt lat="48.86128" lon="2.2922">
        <ele>78</ele>
        <time>2015-06-29T18:40:06.827Z</time>
      </trkpt>
      <trkpt lat="48.86122" lon="2.29212">
        <ele>78.1</ele>
        <time>2015-06-29T18:40:08.864Z</time>
      </trkpt>
      <trkpt lat="48.86119" lon="2.29207">
        <ele>78.1</ele>
        <time>2015-06-29T18:40:09.766Z</time>
      </trkpt>
      <trkpt lat="48.86114" lon="2.292">
        <ele>78.2</ele>
        <time>2015-06-29T18:40:11.831Z</time>
      </trkpt>
      <trkpt lat="48.86112" lon="2.29196">
        <ele>78.1</ele>
        <time>2015-06-29T18:40:12.771Z</time>
      </trkpt>
      <trkpt lat="48.86107" lon="2.29189">
        <ele>78.2</ele>
        <time>2015-06-29T18:40:14.843Z</time>
      </trkpt>
      <trkpt lat="48.86105" lon="2.29186">
        <ele>78.4</ele>
        <time>2015-06-29T18:40:15.789Z</time>
      </trkpt>
      <trkpt lat="48.86103" lon="2.29173">
        <ele>78.1</ele>
        <time>2015-06-29T18:40:18.729Z</time>
      </trkpt>
      <trkpt lat="48.86102" lon="2.29169">
        <ele>78.6</ele>
        <time>2015-06-29T18:40:19.756Z</time>
      </trkpt>
      <trkpt lat="48.86095" lon="2.29167">
        <ele>81.5</ele>
        <time>2015-06-29T18:40:28.734Z</time>
      </trkpt>
      <trkpt lat="48.86093" lon="2.29167">
        <ele>82</ele>
        <time>2015-06-29T18:40:29.779Z</time>
      </trkpt>
      <trkpt lat="48.86086" lon="2.29168">
        <ele>83.3</ele>
        <time>2015-06-29T18:40:32.889Z</time>
      </trkpt>
      <trkpt lat="48.86083" lon="2.29169">
        <ele>83.4</ele>
        <time>2015-06-29T18:40:33.814Z</time>
      </trkpt>
      <trkpt lat="48.86077" lon="2.29174">
        <ele>83.4</ele>
        <time>2015-06-29T18:40:37.601Z</time>
      </trkpt>
      <trkpt lat="48.86074" lon="2.29175">
        <ele>83.4</ele>
        <time>2015-06-29T18:40:37.789Z</time>
      </trkpt>
      <trkpt lat="48.86066" lon="2.29173">
        <ele>83.4</ele>
        <time>2015-06-29T18:40:42.785Z</time>
      </trkpt>
      <trkpt lat="48.86064" lon="2.29172">
        <ele>83.5</ele>
        <time>2015-06-29T18:40:43.770Z</time>
      </trkpt>
      <trkpt lat="48.86058" lon="2.29164">
        <ele>83.2</ele>
        <time>2015-06-29T18:40:48.767Z</time>
      </trkpt>
      <trkpt lat="48.86056" lon="2.29162">
        <ele>83.2</ele>
        <time>2015-06-29T18:40:49.781Z</time>
      </trkpt>
      <trkpt lat="48.86052" lon="2.29154">
        <ele>83.6</ele>
        <time>2015-06-29T18:40:52.848Z</time>
      </trkpt>
      <trkpt lat="48.8605" lon="2.29152">
        <ele>83.7</ele>
        <time>2015-06-29T18:40:53.730Z</time>
      </trkpt>
      <trkpt lat="48.86043" lon="2.29147">
        <ele>84.7</ele>
        <time>2015-06-29T18:41:00.767Z</time>
      </trkpt>
      <trkpt lat="48.86042" lon="2.29146">
        <ele>84.6</ele>
        <time>2015-06-29T18:41:01.780Z</time>
      </trkpt>
      <trkpt lat="48.86036" lon="2.29139">
        <ele>84.3</ele>
        <time>2015-06-29T18:41:04.732Z</time>
      </trkpt>
      <trkpt lat="48.86034" lon="2.29137">
        <ele>84.3</ele>
        <time>2015-06-29T18:41:05.767Z</time>
      </trkpt>
      <trkpt lat="48.86029" lon="2.29131">
        <ele>85.2</ele>
        <time>2015-06-29T18:41:07.956Z</time>
      </trkpt>
      <trkpt lat="48.86027" lon="2.29128">
        <ele>85.1</ele>
        <time>2015-06-29T18:41:08.857Z</time>
      </trkpt>
      <trkpt lat="48.86024" lon="2.29118">
        <ele>85.1</ele>
        <time>2015-06-29T18:41:11.783Z</time>
      </trkpt>
      <trkpt lat="48.86022" lon="2.29114">
        <ele>85.2</ele>
        <time>2015-06-29T18:41:12.794Z</time>
      </trkpt>
      <trkpt lat="48.86017" lon="2.29105">
        <ele>84.8</ele>
        <time>2015-06-29T18:41:15.771Z</time>
      </trkpt>
      <trkpt lat="48.86014" lon="2.29102">
        <ele>84.9</ele>
        <time>2015-06-29T18:41:16.753Z</time>
      </trkpt>
      <trkpt lat="48.86007" lon="2.29094">
        <ele>84.8</ele>
        <time>2015-06-29T18:41:19.731Z</time>
      </trkpt>
      <trkpt lat="48.86005" lon="2.29091">
        <ele>84.8</ele>
        <time>2015-06-29T18:41:20.831Z</time>
      </trkpt>
      <trkpt lat="48.85999" lon="2.29085">
        <ele>84.4</ele>
        <time>2015-06-29T18:41:23.827Z</time>
      </trkpt>
      <trkpt lat="48.85997" lon="2.29083">
        <ele>84.4</ele>
        <time>2015-06-29T18:41:24.732Z</time>
      </trkpt>
      <trkpt lat="48.85997" lon="2.29083">
        <ele>84.4</ele>
        <time>2015-06-29T18:41:24.763Z</time>
      </trkpt>
      <trkpt lat="48.85997" lon="2.29082">
        <ele>84.2</ele>
        <time>2015-06-29T18:41:25.771Z</time>
      </trkpt>
      <trkpt lat="48.85998" lon="2.29081">
        <ele>84</ele>
        <time>2015-06-29T18:41:26.887Z</time>
      </trkpt>
      <trkpt lat="48.85998" lon="2.2908">
        <ele>84.1</ele>
        <time>2015-06-29T18:41:27.803Z</time>
      </trkpt>
      <trkpt lat="48.85999" lon="2.2908">
        <ele>84.4</ele>
        <time>2015-06-29T18:41:28.811Z</time>
      </trkpt>
      <trkpt lat="48.85998" lon="2.29079">
        <ele>84.6</ele>
        <time>2015-06-29T18:41:33.755Z</time>
      </trkpt>
      <trkpt lat="48.85997" lon="2.29075">
        <ele>85.3</ele>
        <time>2015-06-29T18:41:34.775Z</time>
      </trkpt>
      <trkpt lat="48.86001" lon="2.29064">
        <ele>85.5</ele>
        <time>2015-06-29T18:41:39.785Z</time>
      </trkpt>
      <trkpt lat="48.86002" lon="2.29061">
        <ele>85.5</ele>
        <time>2015-06-29T18:41:40.796Z</time>
      </trkpt>
      <trkpt lat="48.86003" lon="2.29048">
        <ele>85</ele>
        <time>2015-06-29T18:41:45.748Z</time>
      </trkpt>
      <trkpt lat="48.86002" lon="2.29045">
        <ele>84.8</ele>
        <time>2015-06-29T18:41:46.790Z</time>
      </trkpt>
      <trkpt lat="48.85997" lon="2.29038">
        <ele>85</ele>
        <time>2015-06-29T18:41:50.208Z</time>
      </trkpt>
      <trkpt lat="48.85994" lon="2.29035">
        <ele>84.9</ele>
        <time>2015-06-29T18:41:50.793Z</time>
      </trkpt>
      <trkpt lat="48.85988" lon="2.29029">
        <ele>84.9</ele>
        <time>2015-06-29T18:41:52.793Z</time>
      </trkpt>
      <trkpt lat="48.85985" lon="2.29026">
        <ele>84.9</ele>
        <time>2015-06-29T18:41:53.712Z</time>
      </trkpt>
      <trkpt lat="48.85979" lon="2.29018">
        <ele>84.8</ele>
        <time>2015-06-29T18:41:55.761Z</time>
      </trkpt>
      <trkpt lat="48.85976" lon="2.29015">
        <ele>84.5</ele>
        <time>2015-06-29T18:41:56.793Z</time>
      </trkpt>
      <trkpt lat="48.85969" lon="2.29007">
        <ele>84.5</ele>
        <time>2015-06-29T18:41:58.822Z</time>
      </trkpt>
      <trkpt lat="48.85965" lon="2.29003">
        <ele>84.3</ele>
        <time>2015-06-29T18:41:59.750Z</time>
      </trkpt>
      <trkpt lat="48.85958" lon="2.28996">
        <ele>84</ele>
        <time>2015-06-29T18:42:01.769Z</time>
      </trkpt>
      <trkpt lat="48.85954" lon="2.28992">
        <ele>83.9</ele>
        <time>2015-06-29T18:42:02.808Z</time>
      </trkpt>
      <trkpt lat="48.85948" lon="2.28984">
        <ele>83.6</ele>
        <time>2015-06-29T18:42:04.740Z</time>
      </trkpt>
      <trkpt lat="48.85944" lon="2.2898">
        <ele>83.3</ele>
        <time>2015-06-29T18:42:05.762Z</time>
      </trkpt>
      <trkpt lat="48.85937" lon="2.28973">
        <ele>83.2</ele>
        <time>2015-06-29T18:42:07.797Z</time>
      </trkpt>
      <trkpt lat="48.85933" lon="2.2897">
        <ele>83.1</ele>
        <time>2015-06-29T18:42:08.794Z</time>
      </trkpt>
      <trkpt lat="48.85926" lon="2.28963">
        <ele>83.2</ele>
        <time>2015-06-29T18:42:10.705Z</time>
      </trkpt>
      <trkpt lat="48.85923" lon="2.28958">
        <ele>83.4</ele>
        <time>2015-06-29T18:42:11.740Z</time>
      </trkpt>
      <trkpt lat="48.85916" lon="2.28951">
        <ele>83.3</ele>
        <time>2015-06-29T18:42:13.773Z</time>
      </trkpt>
      <trkpt lat="48.85911" lon="2.28948">
        <ele>83.1</ele>
        <time>2015-06-29T18:42:14.780Z</time>
      </trkpt>
      <trkpt lat="48.85907" lon="2.28945">
        <ele>83</ele>
        <time>2015-06-29T18:42:15.800Z</time>
      </trkpt>
      <trkpt lat="48.85904" lon="2.2894">
        <ele>83.4</ele>
        <time>2015-06-29T18:42:16.701Z</time>
      </trkpt>
      <trkpt lat="48.859" lon="2.28936">
        <ele>83.3</ele>
        <time>2015-06-29T18:42:17.713Z</time>
      </trkpt>
      <trkpt lat="48.85896" lon="2.28932">
        <ele>83.5</ele>
        <time>2015-06-29T18:42:18.759Z</time>
      </trkpt>
      <trkpt lat="48.85893" lon="2.28928">
        <ele>83.4</ele>
        <time>2015-06-29T18:42:19.759Z</time>
      </trkpt>
      <trkpt lat="48.8589" lon="2.28923">
        <ele>83.1</ele>
        <time>2015-06-29T18:42:20.764Z</time>
      </trkpt>
      <trkpt lat="48.85883" lon="2.28914">
        <ele>83.4</ele>
        <time>2015-06-29T18:42:22.704Z</time>
      </trkpt>
      <trkpt lat="48.8588" lon="2.28911">
        <ele>83.3</ele>
        <time>2015-06-29T18:42:23.724Z</time>
      </trkpt>
      <trkpt lat="48.85874" lon="2.28905">
        <ele>82.8</ele>
        <time>2015-06-29T18:42:25.795Z</time>
      </trkpt>
      <trkpt lat="48.85871" lon="2.28901">
        <ele>82.7</ele>
        <time>2015-06-29T18:42:26.816Z</time>
      </trkpt>
      <trkpt lat="48.85864" lon="2.28895">
        <ele>82.5</ele>
        <time>2015-06-29T18:42:28.830Z</time>
      </trkpt>
      <trkpt lat="48.8586" lon="2.28892">
        <ele>82.3</ele>
        <time>2015-06-29T18:42:29.795Z</time>
      </trkpt>
      <trkpt lat="48.85853" lon="2.28886">
        <ele>81.9</ele>
        <time>2015-06-29T18:42:31.830Z</time>
      </trkpt>
      <trkpt lat="48.8585" lon="2.28882">
        <ele>81.7</ele>
        <time>2015-06-29T18:42:32.836Z</time>
      </trkpt>
      <trkpt lat="48.85842" lon="2.28876">
        <ele>81.2</ele>
        <time>2015-06-29T18:42:34.831Z</time>
      </trkpt>
      <trkpt lat="48.85838" lon="2.28872">
        <ele>81.2</ele>
        <time>2015-06-29T18:42:35.816Z</time>
      </trkpt>
      <trkpt lat="48.85831" lon="2.28865">
        <ele>81</ele>
        <time>2015-06-29T18:42:37.742Z</time>
      </trkpt>
      <trkpt lat="48.85827" lon="2.28862">
        <ele>81.1</ele>
        <time>2015-06-29T18:42:38.748Z</time>
      </trkpt>
      <trkpt lat="48.8582" lon="2.28855">
        <ele>81.2</ele>
        <time>2015-06-29T18:42:40.790Z</time>
      </trkpt>
      <trkpt lat="48.85817" lon="2.28852">
        <ele>81.1</ele>
        <time>2015-06-29T18:42:41.795Z</time>
      </trkpt>
      <trkpt lat="48.85811" lon="2.28843">
        <ele>81.1</ele>
        <time>2015-06-29T18:42:43.745Z</time>
      </trkpt>
      <trkpt lat="48.85808" lon="2.28839">
        <ele>81</ele>
        <time>2015-06-29T18:42:44.788Z</time>
      </trkpt>
      <trkpt lat="48.858" lon="2.28833">
        <ele>81</ele>
        <time>2015-06-29T18:42:46.757Z</time>
      </trkpt>
      <trkpt lat="48.85797" lon="2.28828">
        <ele>80.9</ele>
        <time>2015-06-29T18:42:47.777Z</time>
      </trkpt>
      <trkpt lat="48.85791" lon="2.2882">
        <ele>80.4</ele>
        <time>2015-06-29T18:42:49.797Z</time>
      </trkpt>
      <trkpt lat="48.85788" lon="2.28815">
        <ele>80.4</ele>
        <time>2015-06-29T18:42:50.818Z</time>
      </trkpt>
      <trkpt lat="48.85781" lon="2.28806">
        <ele>80.1</ele>
        <time>2015-06-29T18:42:52.754Z</time>
      </trkpt>
      <trkpt lat="48.85778" lon="2.28801">
        <ele>80.1</ele>
        <time>2015-06-29T18:42:53.772Z</time>
      </trkpt>
      <trkpt lat="48.85774" lon="2.28796">
        <ele>80.1</ele>
        <time>2015-06-29T18:42:54.761Z</time>
      </trkpt>
      <trkpt lat="48.85771" lon="2.28791">
        <ele>80.2</ele>
        <time>2015-06-29T18:42:55.776Z</time>
      </trkpt>
      <trkpt lat="48.85768" lon="2.28784">
        <ele>80.6</ele>
        <time>2015-06-29T18:42:56.836Z</time>
      </trkpt>
      <trkpt lat="48.85765" lon="2.28779">
        <ele>80.6</ele>
        <time>2015-06-29T18:42:57.803Z</time>
      </trkpt>
      <trkpt lat="48.85758" lon="2.2877">
        <ele>81</ele>
        <time>2015-06-29T18:42:59.743Z</time>
      </trkpt>
      <trkpt lat="48.85755" lon="2.28766">
        <ele>81.1</ele>
        <time>2015-06-29T18:43:00.755Z</time>
      </trkpt>
      <trkpt lat="48.85748" lon="2.28756">
        <ele>81.1</ele>
        <time>2015-06-29T18:43:02.815Z</time>
      </trkpt>
      <trkpt lat="48.85745" lon="2.28752">
        <ele>81.2</ele>
        <time>2015-06-29T18:43:03.829Z</time>
      </trkpt>
      <trkpt lat="48.85739" lon="2.28745">
        <ele>81.1</ele>
        <time>2015-06-29T18:43:05.755Z</time>
      </trkpt>
      <trkpt lat="48.85736" lon="2.28742">
        <ele>81.1</ele>
        <time>2015-06-29T18:43:06.763Z</time>
      </trkpt>
      <trkpt lat="48.8573" lon="2.28735">
        <ele>81.3</ele>
        <time>2015-06-29T18:43:08.807Z</time>
      </trkpt>
      <trkpt lat="48.85727" lon="2.28731">
        <ele>81.4</ele>
        <time>2015-06-29T18:43:09.812Z</time>
      </trkpt>
      <trkpt lat="48.85722" lon="2.28723">
        <ele>81.4</ele>
        <time>2015-06-29T18:43:11.747Z</time>
      </trkpt>
      <trkpt lat="48.85719" lon="2.28719">
        <ele>80.9</ele>
        <time>2015-06-29T18:43:12.771Z</time>
      </trkpt>
      <trkpt lat="48.85712" lon="2.28712">
        <ele>80.4</ele>
        <time>2015-06-29T18:43:14.795Z</time>
      </trkpt>
      <trkpt lat="48.85709" lon="2.28708">
        <ele>80.3</ele>
        <time>2015-06-29T18:43:15.807Z</time>
      </trkpt>
      <trkpt lat="48.85704" lon="2.28701">
        <ele>80.1</ele>
        <time>2015-06-29T18:43:17.743Z</time>
      </trkpt>
      <trkpt lat="48.85702" lon="2.28698">
        <ele>80</ele>
        <time>2015-06-29T18:43:18.711Z</time>
      </trkpt>
      <trkpt lat="48.85697" lon="2.28688">
        <ele>80</ele>
        <time>2015-06-29T18:43:21.774Z</time>
      </trkpt>
      <trkpt lat="48.85697" lon="2.28683">
        <ele>80</ele>
        <time>2015-06-29T18:43:22.784Z</time>
      </trkpt>
      <trkpt lat="48.85692" lon="2.28672">
        <ele>80.8</ele>
        <time>2015-06-29T18:43:25.846Z</time>
      </trkpt>
      <trkpt lat="48.85689" lon="2.28669">
        <ele>80.9</ele>
        <time>2015-06-29T18:43:26.853Z</time>
      </trkpt>
      <trkpt lat="48.85683" lon="2.28663">
        <ele>81.1</ele>
        <time>2015-06-29T18:43:28.771Z</time>
      </trkpt>
      <trkpt lat="48.8568" lon="2.2866">
        <ele>81.2</ele>
        <time>2015-06-29T18:43:29.783Z</time>
      </trkpt>
      <trkpt lat="48.85674" lon="2.28653">
        <ele>81.5</ele>
        <time>2015-06-29T18:43:31.736Z</time>
      </trkpt>
      <trkpt lat="48.85671" lon="2.2865">
        <ele>81.6</ele>
        <time>2015-06-29T18:43:32.802Z</time>
      </trkpt>
      <trkpt lat="48.85665" lon="2.2864">
        <ele>82.2</ele>
        <time>2015-06-29T18:43:34.726Z</time>
      </trkpt>
      <trkpt lat="48.85662" lon="2.28635">
        <ele>82.4</ele>
        <time>2015-06-29T18:43:35.756Z</time>
      </trkpt>
      <trkpt lat="48.85658" lon="2.28629">
        <ele>82.4</ele>
        <time>2015-06-29T18:43:36.773Z</time>
      </trkpt>
      <trkpt lat="48.85654" lon="2.28624">
        <ele>82.5</ele>
        <time>2015-06-29T18:43:37.777Z</time>
      </trkpt>
      <trkpt lat="48.8565" lon="2.2862">
        <ele>82.5</ele>
        <time>2015-06-29T18:43:38.782Z</time>
      </trkpt>
      <trkpt lat="48.85646" lon="2.28615">
        <ele>82.7</ele>
        <time>2015-06-29T18:43:39.787Z</time>
      </trkpt>
      <trkpt lat="48.85642" lon="2.28611">
        <ele>82.8</ele>
        <time>2015-06-29T18:43:40.800Z</time>
      </trkpt>
      <trkpt lat="48.85638" lon="2.28606">
        <ele>82.8</ele>
        <time>2015-06-29T18:43:41.809Z</time>
      </trkpt>
      <trkpt lat="48.85635" lon="2.286">
        <ele>82.9</ele>
        <time>2015-06-29T18:43:42.705Z</time>
      </trkpt>
      <trkpt lat="48.85631" lon="2.28594">
        <ele>83.1</ele>
        <time>2015-06-29T18:43:43.724Z</time>
      </trkpt>
      <trkpt lat="48.85627" lon="2.28587">
        <ele>83.2</ele>
        <time>2015-06-29T18:43:44.766Z</time>
      </trkpt>
      <trkpt lat="48.85623" lon="2.28581">
        <ele>83.1</ele>
        <time>2015-06-29T18:43:45.771Z</time>
      </trkpt>
      <trkpt lat="48.85617" lon="2.28575">
        <ele>82.1</ele>
        <time>2015-06-29T18:43:46.783Z</time>
      </trkpt>
      <trkpt lat="48.85612" lon="2.28569">
        <ele>81.7</ele>
        <time>2015-06-29T18:43:47.810Z</time>
      </trkpt>
      <trkpt lat="48.85607" lon="2.28563">
        <ele>81.5</ele>
        <time>2015-06-29T18:43:48.796Z</time>
      </trkpt>
      <trkpt lat="48.85602" lon="2.28558">
        <ele>81.6</ele>
        <time>2015-06-29T18:43:49.799Z</time>
      </trkpt>
      <trkpt lat="48.85597" lon="2.28553">
        <ele>81.6</ele>
        <time>2015-06-29T18:43:50.814Z</time>
      </trkpt>
      <trkpt lat="48.85593" lon="2.28548">
        <ele>81.6</ele>
        <time>2015-06-29T18:43:51.824Z</time>
      </trkpt>
      <trkpt lat="48.8559" lon="2.2854">
        <ele>81.2</ele>
        <time>2015-06-29T18:43:52.742Z</time>
      </trkpt>
      <trkpt lat="48.85587" lon="2.28533">
        <ele>81.2</ele>
        <time>2015-06-29T18:43:53.725Z</time>
      </trkpt>
      <trkpt lat="48.85583" lon="2.28527">
        <ele>81</ele>
        <time>2015-06-29T18:43:54.727Z</time>
      </trkpt>
      <trkpt lat="48.85579" lon="2.28522">
        <ele>80.9</ele>
        <time>2015-06-29T18:43:55.735Z</time>
      </trkpt>
      <trkpt lat="48.85575" lon="2.28517">
        <ele>81</ele>
        <time>2015-06-29T18:43:56.789Z</time>
      </trkpt>
      <trkpt lat="48.8557" lon="2.28512">
        <ele>81.1</ele>
        <time>2015-06-29T18:43:57.922Z</time>
      </trkpt>
      <trkpt lat="48.85566" lon="2.28508">
        <ele>81.1</ele>
        <time>2015-06-29T18:43:58.798Z</time>
      </trkpt>
      <trkpt lat="48.85562" lon="2.28503">
        <ele>81.4</ele>
        <time>2015-06-29T18:43:59.807Z</time>
      </trkpt>
      <trkpt lat="48.85558" lon="2.28498">
        <ele>81.7</ele>
        <time>2015-06-29T18:44:00.807Z</time>
      </trkpt>
      <trkpt lat="48.85553" lon="2.28493">
        <ele>81.8</ele>
        <time>2015-06-29T18:44:01.809Z</time>
      </trkpt>
      <trkpt lat="48.85549" lon="2.28487">
        <ele>81.8</ele>
        <time>2015-06-29T18:44:02.823Z</time>
      </trkpt>
      <trkpt lat="48.85545" lon="2.28482">
        <ele>82.3</ele>
        <time>2015-06-29T18:44:03.736Z</time>
      </trkpt>
      <trkpt lat="48.85541" lon="2.28477">
        <ele>82.4</ele>
        <time>2015-06-29T18:44:04.739Z</time>
      </trkpt>
      <trkpt lat="48.85537" lon="2.28472">
        <ele>82.4</ele>
        <time>2015-06-29T18:44:05.745Z</time>
      </trkpt>
      <trkpt lat="48.85533" lon="2.28466">
        <ele>82.8</ele>
        <time>2015-06-29T18:44:06.753Z</time>
      </trkpt>
      <trkpt lat="48.85529" lon="2.2846">
        <ele>82.6</ele>
        <time>2015-06-29T18:44:07.762Z</time>
      </trkpt>
      <trkpt lat="48.85524" lon="2.28454">
        <ele>83</ele>
        <time>2015-06-29T18:44:08.777Z</time>
      </trkpt>
      <trkpt lat="48.8552" lon="2.28449">
        <ele>83.4</ele>
        <time>2015-06-29T18:44:09.800Z</time>
      </trkpt>
      <trkpt lat="48.85516" lon="2.28443">
        <ele>83.4</ele>
        <time>2015-06-29T18:44:10.816Z</time>
      </trkpt>
      <trkpt lat="48.85511" lon="2.28439">
        <ele>83.5</ele>
        <time>2015-06-29T18:44:11.825Z</time>
      </trkpt>
      <trkpt lat="48.85506" lon="2.28433">
        <ele>83.2</ele>
        <time>2015-06-29T18:44:12.837Z</time>
      </trkpt>
      <trkpt lat="48.85501" lon="2.28427">
        <ele>82.5</ele>
        <time>2015-06-29T18:44:13.742Z</time>
      </trkpt>
      <trkpt lat="48.85497" lon="2.28422">
        <ele>82.6</ele>
        <time>2015-06-29T18:44:14.775Z</time>
      </trkpt>
      <trkpt lat="48.85493" lon="2.28416">
        <ele>82.7</ele>
        <time>2015-06-29T18:44:15.773Z</time>
      </trkpt>
      <trkpt lat="48.85488" lon="2.28411">
        <ele>82.8</ele>
        <time>2015-06-29T18:44:16.759Z</time>
      </trkpt>
      <trkpt lat="48.85484" lon="2.28405">
        <ele>82.7</ele>
        <time>2015-06-29T18:44:17.773Z</time>
      </trkpt>
      <trkpt lat="48.8548" lon="2.284">
        <ele>82.8</ele>
        <time>2015-06-29T18:44:18.745Z</time>
      </trkpt>
      <trkpt lat="48.85475" lon="2.28395">
        <ele>82.5</ele>
        <time>2015-06-29T18:44:19.745Z</time>
      </trkpt>
      <trkpt lat="48.8547" lon="2.28389">
        <ele>81.9</ele>
        <time>2015-06-29T18:44:20.801Z</time>
      </trkpt>
      <trkpt lat="48.85466" lon="2.28383">
        <ele>81.6</ele>
        <time>2015-06-29T18:44:21.783Z</time>
      </trkpt>
      <trkpt lat="48.85462" lon="2.28377">
        <ele>81.4</ele>
        <time>2015-06-29T18:44:22.792Z</time>
      </trkpt>
      <trkpt lat="48.85458" lon="2.28372">
        <ele>81.3</ele>
        <time>2015-06-29T18:44:23.804Z</time>
      </trkpt>
      <trkpt lat="48.85454" lon="2.28366">
        <ele>81.4</ele>
        <time>2015-06-29T18:44:24.808Z</time>
      </trkpt>
      <trkpt lat="48.8545" lon="2.28361">
        <ele>81.4</ele>
        <time>2015-06-29T18:44:25.740Z</time>
      </trkpt>
      <trkpt lat="48.85447" lon="2.28356">
        <ele>81.2</ele>
        <time>2015-06-29T18:44:26.846Z</time>
      </trkpt>
      <trkpt lat="48.85443" lon="2.28348">
        <ele>80.9</ele>
        <time>2015-06-29T18:44:27.744Z</time>
      </trkpt>
      <trkpt lat="48.8544" lon="2.28342">
        <ele>80.7</ele>
        <time>2015-06-29T18:44:28.757Z</time>
      </trkpt>
      <trkpt lat="48.85435" lon="2.28336">
        <ele>80.9</ele>
        <time>2015-06-29T18:44:29.762Z</time>
      </trkpt>
      <trkpt lat="48.85431" lon="2.2833">
        <ele>81</ele>
        <time>2015-06-29T18:44:30.780Z</time>
      </trkpt>
      <trkpt lat="48.85426" lon="2.28325">
        <ele>80.8</ele>
        <time>2015-06-29T18:44:31.787Z</time>
      </trkpt>
      <trkpt lat="48.85422" lon="2.2832">
        <ele>80.7</ele>
        <time>2015-06-29T18:44:32.789Z</time>
      </trkpt>
      <trkpt lat="48.85417" lon="2.28314">
        <ele>80.6</ele>
        <time>2015-06-29T18:44:33.801Z</time>
      </trkpt>
      <trkpt lat="48.85413" lon="2.28307">
        <ele>80.8</ele>
        <time>2015-06-29T18:44:34.803Z</time>
      </trkpt>
      <trkpt lat="48.85409" lon="2.28301">
        <ele>80.7</ele>
        <time>2015-06-29T18:44:35.820Z</time>
      </trkpt>
      <trkpt lat="48.85405" lon="2.28295">
        <ele>80.7</ele>
        <time>2015-06-29T18:44:36.819Z</time>
      </trkpt>
      <trkpt lat="48.854" lon="2.28289">
        <ele>80.7</ele>
        <time>2015-06-29T18:44:37.838Z</time>
      </trkpt>
      <trkpt lat="48.85396" lon="2.28283">
        <ele>80.7</ele>
        <time>2015-06-29T18:44:38.854Z</time>
      </trkpt>
      <trkpt lat="48.85391" lon="2.28276">
        <ele>80.4</ele>
        <time>2015-06-29T18:44:39.742Z</time>
      </trkpt>
      <trkpt lat="48.85386" lon="2.28269">
        <ele>80.1</ele>
        <time>2015-06-29T18:44:40.825Z</time>
      </trkpt>
      <trkpt lat="48.85381" lon="2.28262">
        <ele>80</ele>
        <time>2015-06-29T18:44:41.800Z</time>
      </trkpt>
      <trkpt lat="48.85377" lon="2.28256">
        <ele>80.2</ele>
        <time>2015-06-29T18:44:42.901Z</time>
      </trkpt>
      <trkpt lat="48.85372" lon="2.28249">
        <ele>80.5</ele>
        <time>2015-06-29T18:44:43.780Z</time>
      </trkpt>
      <trkpt lat="48.85368" lon="2.28242">
        <ele>80.6</ele>
        <time>2015-06-29T18:44:44.834Z</time>
      </trkpt>
      <trkpt lat="48.85363" lon="2.28235">
        <ele>80.6</ele>
        <time>2015-06-29T18:44:45.898Z</time>
      </trkpt>
      <trkpt lat="48.85359" lon="2.28228">
        <ele>80.5</ele>
        <time>2015-06-29T18:44:46.765Z</time>
      </trkpt>
      <trkpt lat="48.85355" lon="2.2822">
        <ele>80.7</ele>
        <time>2015-06-29T18:44:47.773Z</time>
      </trkpt>
      <trkpt lat="48.85351" lon="2.28214">
        <ele>80.9</ele>
        <time>2015-06-29T18:44:48.783Z</time>
      </trkpt>
      <trkpt lat="48.85347" lon="2.28207">
        <ele>81</ele>
        <time>2015-06-29T18:44:49.793Z</time>
      </trkpt>
      <trkpt lat="48.85343" lon="2.282">
        <ele>80.8</ele>
        <time>2015-06-29T18:44:50.823Z</time>
      </trkpt>
      <trkpt lat="48.85339" lon="2.28194">
        <ele>80.8</ele>
        <time>2015-06-29T18:44:51.823Z</time>
      </trkpt>
      <trkpt lat="48.85336" lon="2.28188">
        <ele>80.8</ele>
        <time>2015-06-29T18:44:52.840Z</time>
      </trkpt>
      <trkpt lat="48.85332" lon="2.28183">
        <ele>80.7</ele>
        <time>2015-06-29T18:44:53.847Z</time>
      </trkpt>
      <trkpt lat="48.85328" lon="2.28177">
        <ele>80.9</ele>
        <time>2015-06-29T18:44:54.732Z</time>
      </trkpt>
      <trkpt lat="48.85324" lon="2.28171">
        <ele>81.1</ele>
        <time>2015-06-29T18:44:55.755Z</time>
      </trkpt>
      <trkpt lat="48.85321" lon="2.28164">
        <ele>81.2</ele>
        <time>2015-06-29T18:44:56.822Z</time>
      </trkpt>
      <trkpt lat="48.85317" lon="2.28157">
        <ele>81.3</ele>
        <time>2015-06-29T18:44:57.832Z</time>
      </trkpt>
      <trkpt lat="48.85314" lon="2.28149">
        <ele>81.6</ele>
        <time>2015-06-29T18:44:58.856Z</time>
      </trkpt>
      <trkpt lat="48.8531" lon="2.28141">
        <ele>81.3</ele>
        <time>2015-06-29T18:44:59.756Z</time>
      </trkpt>
      <trkpt lat="48.85305" lon="2.28133">
        <ele>80.9</ele>
        <time>2015-06-29T18:45:00.764Z</time>
      </trkpt>
      <trkpt lat="48.85301" lon="2.28125">
        <ele>80.6</ele>
        <time>2015-06-29T18:45:01.778Z</time>
      </trkpt>
      <trkpt lat="48.85297" lon="2.28116">
        <ele>80.5</ele>
        <time>2015-06-29T18:45:02.823Z</time>
      </trkpt>
      <trkpt lat="48.85293" lon="2.28109">
        <ele>80.6</ele>
        <time>2015-06-29T18:45:03.822Z</time>
      </trkpt>
      <trkpt lat="48.85289" lon="2.28101">
        <ele>80.6</ele>
        <time>2015-06-29T18:45:04.823Z</time>
      </trkpt>
      <trkpt lat="48.85285" lon="2.28093">
        <ele>80.7</ele>
        <time>2015-06-29T18:45:05.836Z</time>
      </trkpt>
      <trkpt lat="48.85281" lon="2.28086">
        <ele>80.7</ele>
        <time>2015-06-29T18:45:06.845Z</time>
      </trkpt>
      <trkpt lat="48.85277" lon="2.28078">
        <ele>80.7</ele>
        <time>2015-06-29T18:45:07.756Z</time>
      </trkpt>
      <trkpt lat="48.85272" lon="2.2807">
        <ele>80.8</ele>
        <time>2015-06-29T18:45:08.857Z</time>
      </trkpt>
      <trkpt lat="48.85267" lon="2.28065">
        <ele>80.5</ele>
        <time>2015-06-29T18:45:09.790Z</time>
      </trkpt>
      <trkpt lat="48.85263" lon="2.28058">
        <ele>80.2</ele>
        <time>2015-06-29T18:45:10.805Z</time>
      </trkpt>
      <trkpt lat="48.85258" lon="2.28051">
        <ele>80.1</ele>
        <time>2015-06-29T18:45:11.802Z</time>
      </trkpt>
      <trkpt lat="48.85254" lon="2.28045">
        <ele>80</ele>
        <time>2015-06-29T18:45:12.813Z</time>
      </trkpt>
      <trkpt lat="48.8525" lon="2.28038">
        <ele>80.2</ele>
        <time>2015-06-29T18:45:13.818Z</time>
      </trkpt>
      <trkpt lat="48.85246" lon="2.28031">
        <ele>80</ele>
        <time>2015-06-29T18:45:14.825Z</time>
      </trkpt>
      <trkpt lat="48.85242" lon="2.28024">
        <ele>79.8</ele>
        <time>2015-06-29T18:45:15.838Z</time>
      </trkpt>
      <trkpt lat="48.85238" lon="2.28018">
        <ele>79.7</ele>
        <time>2015-06-29T18:45:16.794Z</time>
      </trkpt>
      <trkpt lat="48.85233" lon="2.28012">
        <ele>79.6</ele>
        <time>2015-06-29T18:45:17.756Z</time>
      </trkpt>
      <trkpt lat="48.85229" lon="2.28006">
        <ele>79.6</ele>
        <time>2015-06-29T18:45:18.791Z</time>
      </trkpt>
      <trkpt lat="48.85225" lon="2.28001">
        <ele>79.8</ele>
        <time>2015-06-29T18:45:19.794Z</time>
      </trkpt>
      <trkpt lat="48.8522" lon="2.27997">
        <ele>79.8</ele>
        <time>2015-06-29T18:45:20.885Z</time>
      </trkpt>
      <trkpt lat="48.85216" lon="2.27992">
        <ele>79.8</ele>
        <time>2015-06-29T18:45:21.828Z</time>
      </trkpt>
      <trkpt lat="48.85211" lon="2.27988">
        <ele>80</ele>
        <time>2015-06-29T18:45:22.835Z</time>
      </trkpt>
      <trkpt lat="48.85206" lon="2.27985">
        <ele>80.1</ele>
        <time>2015-06-29T18:45:23.843Z</time>
      </trkpt>
      <trkpt lat="48.85202" lon="2.2798">
        <ele>80.1</ele>
        <time>2015-06-29T18:45:24.857Z</time>
      </trkpt>
      <trkpt lat="48.85197" lon="2.27975">
        <ele>80.3</ele>
        <time>2015-06-29T18:45:25.767Z</time>
      </trkpt>
      <trkpt lat="48.85193" lon="2.2797">
        <ele>80.4</ele>
        <time>2015-06-29T18:45:26.802Z</time>
      </trkpt>
      <trkpt lat="48.85189" lon="2.27964">
        <ele>80.8</ele>
        <time>2015-06-29T18:45:27.814Z</time>
      </trkpt>
      <trkpt lat="48.85185" lon="2.27957">
        <ele>81.1</ele>
        <time>2015-06-29T18:45:28.814Z</time>
      </trkpt>
      <trkpt lat="48.85183" lon="2.27949">
        <ele>81.2</ele>
        <time>2015-06-29T18:45:29.817Z</time>
      </trkpt>
      <trkpt lat="48.8518" lon="2.2794">
        <ele>81.2</ele>
        <time>2015-06-29T18:45:30.835Z</time>
      </trkpt>
      <trkpt lat="48.85177" lon="2.27932">
        <ele>81.2</ele>
        <time>2015-06-29T18:45:31.762Z</time>
      </trkpt>
      <trkpt lat="48.85174" lon="2.27924">
        <ele>81.3</ele>
        <time>2015-06-29T18:45:32.856Z</time>
      </trkpt>
      <trkpt lat="48.85171" lon="2.27919">
        <ele>81.5</ele>
        <time>2015-06-29T18:45:33.757Z</time>
      </trkpt>
      <trkpt lat="48.85167" lon="2.27913">
        <ele>81.8</ele>
        <time>2015-06-29T18:45:34.756Z</time>
      </trkpt>
      <trkpt lat="48.85164" lon="2.27907">
        <ele>81.7</ele>
        <time>2015-06-29T18:45:35.775Z</time>
      </trkpt>
      <trkpt lat="48.85161" lon="2.27901">
        <ele>81.4</ele>
        <time>2015-06-29T18:45:36.798Z</time>
      </trkpt>
      <trkpt lat="48.85158" lon="2.27895">
        <ele>81.4</ele>
        <time>2015-06-29T18:45:37.806Z</time>
      </trkpt>
      <trkpt lat="48.85155" lon="2.27884">
        <ele>81.8</ele>
        <time>2015-06-29T18:45:39.836Z</time>
      </trkpt>
      <trkpt lat="48.85154" lon="2.27878">
        <ele>81.9</ele>
        <time>2015-06-29T18:45:40.847Z</time>
      </trkpt>
      <trkpt lat="48.8515" lon="2.27867">
        <ele>83.1</ele>
        <time>2015-06-29T18:45:43.791Z</time>
      </trkpt>
      <trkpt lat="48.8515" lon="2.27864">
        <ele>83.5</ele>
        <time>2015-06-29T18:45:44.894Z</time>
      </trkpt>
      <trkpt lat="48.8515" lon="2.27862">
        <ele>83.8</ele>
        <time>2015-06-29T18:45:45.779Z</time>
      </trkpt>
      <trkpt lat="48.8515" lon="2.2786">
        <ele>84.3</ele>
        <time>2015-06-29T18:45:46.787Z</time>
      </trkpt>
      <trkpt lat="48.8515" lon="2.27859">
        <ele>84.9</ele>
        <time>2015-06-29T18:46:04.817Z</time>
      </trkpt>
      <trkpt lat="48.85154" lon="2.27848">
        <ele>87.8</ele>
        <time>2015-06-29T18:46:05.729Z</time>
      </trkpt>
      <trkpt lat="48.85147" lon="2.2784">
        <ele>87.5</ele>
        <time>2015-06-29T18:46:08.835Z</time>
      </trkpt>
      <trkpt lat="48.85144" lon="2.27837">
        <ele>86.9</ele>
        <time>2015-06-29T18:46:09.773Z</time>
      </trkpt>
      <trkpt lat="48.85137" lon="2.2783">
        <ele>86</ele>
        <time>2015-06-29T18:46:11.747Z</time>
      </trkpt>
      <trkpt lat="48.85134" lon="2.27827">
        <ele>86</ele>
        <time>2015-06-29T18:46:12.781Z</time>
      </trkpt>
      <trkpt lat="48.85128" lon="2.2782">
        <ele>85.8</ele>
        <time>2015-06-29T18:46:14.804Z</time>
      </trkpt>
      <trkpt lat="48.85126" lon="2.27816">
        <ele>85.7</ele>
        <time>2015-06-29T18:46:15.838Z</time>
      </trkpt>
      <trkpt lat="48.85122" lon="2.27811">
        <ele>85.4</ele>
        <time>2015-06-29T18:46:16.748Z</time>
      </trkpt>
      <trkpt lat="48.85119" lon="2.27806">
        <ele>85.4</ele>
        <time>2015-06-29T18:46:17.762Z</time>
      </trkpt>
      <trkpt lat="48.85115" lon="2.27801">
        <ele>85.4</ele>
        <time>2015-06-29T18:46:18.814Z</time>
      </trkpt>
      <trkpt lat="48.85111" lon="2.27796">
        <ele>85.2</ele>
        <time>2015-06-29T18:46:19.825Z</time>
      </trkpt>
      <trkpt lat="48.85107" lon="2.27793">
        <ele>85.2</ele>
        <time>2015-06-29T18:46:20.831Z</time>
      </trkpt>
      <trkpt lat="48.85103" lon="2.27789">
        <ele>85.2</ele>
        <time>2015-06-29T18:46:21.845Z</time>
      </trkpt>
      <trkpt lat="48.85099" lon="2.27784">
        <ele>85.3</ele>
        <time>2015-06-29T18:46:22.784Z</time>
      </trkpt>
      <trkpt lat="48.85095" lon="2.27778">
        <ele>85.4</ele>
        <time>2015-06-29T18:46:23.799Z</time>
      </trkpt>
      <trkpt lat="48.85092" lon="2.27773">
        <ele>85.5</ele>
        <time>2015-06-29T18:46:24.804Z</time>
      </trkpt>
      <trkpt lat="48.85088" lon="2.27769">
        <ele>85.6</ele>
        <time>2015-06-29T18:46:25.773Z</time>
      </trkpt>
      <trkpt lat="48.85082" lon="2.2776">
        <ele>85.9</ele>
        <time>2015-06-29T18:46:27.798Z</time>
      </trkpt>
      <trkpt lat="48.85079" lon="2.27756">
        <ele>86.1</ele>
        <time>2015-06-29T18:46:28.721Z</time>
      </trkpt>
      <trkpt lat="48.85075" lon="2.27751">
        <ele>86.3</ele>
        <time>2015-06-29T18:46:29.786Z</time>
      </trkpt>
      <trkpt lat="48.85072" lon="2.27746">
        <ele>86.4</ele>
        <time>2015-06-29T18:46:30.797Z</time>
      </trkpt>
      <trkpt lat="48.85069" lon="2.27742">
        <ele>86.7</ele>
        <time>2015-06-29T18:46:31.805Z</time>
      </trkpt>
      <trkpt lat="48.85065" lon="2.27737">
        <ele>86.9</ele>
        <time>2015-06-29T18:46:32.818Z</time>
      </trkpt>
      <trkpt lat="48.85062" lon="2.27732">
        <ele>86.9</ele>
        <time>2015-06-29T18:46:33.723Z</time>
      </trkpt>
      <trkpt lat="48.85058" lon="2.27727">
        <ele>86.9</ele>
        <time>2015-06-29T18:46:34.966Z</time>
      </trkpt>
      <trkpt lat="48.85054" lon="2.27722">
        <ele>87</ele>
        <time>2015-06-29T18:46:35.777Z</time>
      </trkpt>
      <trkpt lat="48.85051" lon="2.27716">
        <ele>87</ele>
        <time>2015-06-29T18:46:36.803Z</time>
      </trkpt>
      <trkpt lat="48.85048" lon="2.27711">
        <ele>87</ele>
        <time>2015-06-29T18:46:37.726Z</time>
      </trkpt>
      <trkpt lat="48.85044" lon="2.27706">
        <ele>87</ele>
        <time>2015-06-29T18:46:38.752Z</time>
      </trkpt>
      <trkpt lat="48.85041" lon="2.277">
        <ele>86.9</ele>
        <time>2015-06-29T18:46:39.765Z</time>
      </trkpt>
      <trkpt lat="48.85038" lon="2.27694">
        <ele>86.9</ele>
        <time>2015-06-29T18:46:40.814Z</time>
      </trkpt>
      <trkpt lat="48.85035" lon="2.2769">
        <ele>86.9</ele>
        <time>2015-06-29T18:46:41.796Z</time>
      </trkpt>
      <trkpt lat="48.85031" lon="2.27686">
        <ele>87</ele>
        <time>2015-06-29T18:46:42.726Z</time>
      </trkpt>
      <trkpt lat="48.85024" lon="2.2768">
        <ele>87.1</ele>
        <time>2015-06-29T18:46:45.509Z</time>
      </trkpt>
      <trkpt lat="48.85021" lon="2.27677">
        <ele>87.3</ele>
        <time>2015-06-29T18:46:45.778Z</time>
      </trkpt>
      <trkpt lat="48.85016" lon="2.27674">
        <ele>87.4</ele>
        <time>2015-06-29T18:46:46.694Z</time>
      </trkpt>
      <trkpt lat="48.85012" lon="2.2767">
        <ele>87.5</ele>
        <time>2015-06-29T18:46:47.764Z</time>
      </trkpt>
      <trkpt lat="48.85007" lon="2.27665">
        <ele>87.6</ele>
        <time>2015-06-29T18:46:48.770Z</time>
      </trkpt>
      <trkpt lat="48.85002" lon="2.2766">
        <ele>87.7</ele>
        <time>2015-06-29T18:46:49.703Z</time>
      </trkpt>
      <trkpt lat="48.84996" lon="2.27655">
        <ele>87.8</ele>
        <time>2015-06-29T18:46:50.743Z</time>
      </trkpt>
      <trkpt lat="48.84991" lon="2.2765">
        <ele>87.9</ele>
        <time>2015-06-29T18:46:51.745Z</time>
      </trkpt>
      <trkpt lat="48.84985" lon="2.27645">
        <ele>87.9</ele>
        <time>2015-06-29T18:46:52.751Z</time>
      </trkpt>
      <trkpt lat="48.8498" lon="2.2764">
        <ele>88</ele>
        <time>2015-06-29T18:46:53.763Z</time>
      </trkpt>
      <trkpt lat="48.84973" lon="2.27634">
        <ele>88.2</ele>
        <time>2015-06-29T18:46:54.790Z</time>
      </trkpt>
      <trkpt lat="48.84966" lon="2.27628">
        <ele>88.4</ele>
        <time>2015-06-29T18:46:55.681Z</time>
      </trkpt>
      <trkpt lat="48.8496" lon="2.27622">
        <ele>88.4</ele>
        <time>2015-06-29T18:46:56.772Z</time>
      </trkpt>
      <trkpt lat="48.84953" lon="2.27617">
        <ele>88.6</ele>
        <time>2015-06-29T18:46:57.803Z</time>
      </trkpt>
      <trkpt lat="48.84946" lon="2.27611">
        <ele>88.8</ele>
        <time>2015-06-29T18:46:58.789Z</time>
      </trkpt>
      <trkpt lat="48.84939" lon="2.27605">
        <ele>89.1</ele>
        <time>2015-06-29T18:46:59.710Z</time>
      </trkpt>
      <trkpt lat="48.84932" lon="2.27599">
        <ele>89.3</ele>
        <time>2015-06-29T18:47:00.709Z</time>
      </trkpt>
      <trkpt lat="48.84925" lon="2.27592">
        <ele>89.5</ele>
        <time>2015-06-29T18:47:01.714Z</time>
      </trkpt>
      <trkpt lat="48.8492" lon="2.27586">
        <ele>89.6</ele>
        <time>2015-06-29T18:47:02.763Z</time>
      </trkpt>
      <trkpt lat="48.84914" lon="2.27579">
        <ele>89.7</ele>
        <time>2015-06-29T18:47:03.776Z</time>
      </trkpt>
      <trkpt lat="48.84908" lon="2.27572">
        <ele>89.9</ele>
        <time>2015-06-29T18:47:04.879Z</time>
      </trkpt>
      <trkpt lat="48.84901" lon="2.27566">
        <ele>89.9</ele>
        <time>2015-06-29T18:47:05.721Z</time>
      </trkpt>
      <trkpt lat="48.84895" lon="2.2756">
        <ele>89.9</ele>
        <time>2015-06-29T18:47:06.747Z</time>
      </trkpt>
      <trkpt lat="48.84889" lon="2.27553">
        <ele>89.9</ele>
        <time>2015-06-29T18:47:07.751Z</time>
      </trkpt>
      <trkpt lat="48.84885" lon="2.27547">
        <ele>89.9</ele>
        <time>2015-06-29T18:47:08.760Z</time>
      </trkpt>
      <trkpt lat="48.8488" lon="2.2754">
        <ele>89.9</ele>
        <time>2015-06-29T18:47:09.789Z</time>
      </trkpt>
      <trkpt lat="48.84874" lon="2.27535">
        <ele>89.9</ele>
        <time>2015-06-29T18:47:10.782Z</time>
      </trkpt>
      <trkpt lat="48.8487" lon="2.27529">
        <ele>90.1</ele>
        <time>2015-06-29T18:47:11.791Z</time>
      </trkpt>
      <trkpt lat="48.84866" lon="2.27523">
        <ele>90.3</ele>
        <time>2015-06-29T18:47:12.802Z</time>
      </trkpt>
      <trkpt lat="48.84861" lon="2.27518">
        <ele>90.4</ele>
        <time>2015-06-29T18:47:13.699Z</time>
      </trkpt>
      <trkpt lat="48.84856" lon="2.27512">
        <ele>90.4</ele>
        <time>2015-06-29T18:47:15.230Z</time>
      </trkpt>
      <trkpt lat="48.84851" lon="2.27505">
        <ele>90.2</ele>
        <time>2015-06-29T18:47:15.775Z</time>
      </trkpt>
      <trkpt lat="48.84847" lon="2.27499">
        <ele>90.1</ele>
        <time>2015-06-29T18:47:16.780Z</time>
      </trkpt>
      <trkpt lat="48.84841" lon="2.27494">
        <ele>90</ele>
        <time>2015-06-29T18:47:17.791Z</time>
      </trkpt>
      <trkpt lat="48.84836" lon="2.27489">
        <ele>89.9</ele>
        <time>2015-06-29T18:47:18.700Z</time>
      </trkpt>
      <trkpt lat="48.84831" lon="2.27484">
        <ele>90</ele>
        <time>2015-06-29T18:47:19.718Z</time>
      </trkpt>
      <trkpt lat="48.84826" lon="2.2748">
        <ele>90</ele>
        <time>2015-06-29T18:47:20.819Z</time>
      </trkpt>
      <trkpt lat="48.84821" lon="2.27475">
        <ele>89.9</ele>
        <time>2015-06-29T18:47:21.715Z</time>
      </trkpt>
      <trkpt lat="48.84817" lon="2.2747">
        <ele>89.8</ele>
        <time>2015-06-29T18:47:22.718Z</time>
      </trkpt>
      <trkpt lat="48.84812" lon="2.27464">
        <ele>89.7</ele>
        <time>2015-06-29T18:47:23.732Z</time>
      </trkpt>
      <trkpt lat="48.84807" lon="2.27459">
        <ele>89.6</ele>
        <time>2015-06-29T18:47:24.736Z</time>
      </trkpt>
      <trkpt lat="48.84802" lon="2.27454">
        <ele>89.7</ele>
        <time>2015-06-29T18:47:25.744Z</time>
      </trkpt>
      <trkpt lat="48.84798" lon="2.27449">
        <ele>89.8</ele>
        <time>2015-06-29T18:47:26.773Z</time>
      </trkpt>
      <trkpt lat="48.84794" lon="2.27443">
        <ele>89.7</ele>
        <time>2015-06-29T18:47:27.787Z</time>
      </trkpt>
      <trkpt lat="48.84789" lon="2.27438">
        <ele>89.6</ele>
        <time>2015-06-29T18:47:28.798Z</time>
      </trkpt>
      <trkpt lat="48.84785" lon="2.27433">
        <ele>89.4</ele>
        <time>2015-06-29T18:47:29.739Z</time>
      </trkpt>
      <trkpt lat="48.8478" lon="2.2743">
        <ele>89.5</ele>
        <time>2015-06-29T18:47:30.730Z</time>
      </trkpt>
      <trkpt lat="48.84776" lon="2.27425">
        <ele>89.5</ele>
        <time>2015-06-29T18:47:31.735Z</time>
      </trkpt>
      <trkpt lat="48.84772" lon="2.27419">
        <ele>89.4</ele>
        <time>2015-06-29T18:47:32.778Z</time>
      </trkpt>
      <trkpt lat="48.84768" lon="2.27414">
        <ele>89.1</ele>
        <time>2015-06-29T18:47:33.785Z</time>
      </trkpt>
      <trkpt lat="48.84765" lon="2.27409">
        <ele>88.7</ele>
        <time>2015-06-29T18:47:34.792Z</time>
      </trkpt>
      <trkpt lat="48.84761" lon="2.27405">
        <ele>88.6</ele>
        <time>2015-06-29T18:47:35.802Z</time>
      </trkpt>
      <trkpt lat="48.84755" lon="2.274">
        <ele>88.1</ele>
        <time>2015-06-29T18:47:37.764Z</time>
      </trkpt>
      <trkpt lat="48.84753" lon="2.27397">
        <ele>88</ele>
        <time>2015-06-29T18:47:38.816Z</time>
      </trkpt>
      <trkpt lat="48.8475" lon="2.27385">
        <ele>87.7</ele>
        <time>2015-06-29T18:47:43.803Z</time>
      </trkpt>
      <trkpt lat="48.84751" lon="2.27378">
        <ele>87.8</ele>
        <time>2015-06-29T18:47:44.905Z</time>
      </trkpt>
      <trkpt lat="48.84749" lon="2.2737">
        <ele>87.3</ele>
        <time>2015-06-29T18:47:52.742Z</time>
      </trkpt>
      <trkpt lat="48.84749" lon="2.2737">
        <ele>87.2</ele>
        <time>2015-06-29T18:47:53.776Z</time>
      </trkpt>
      <trkpt lat="48.8475" lon="2.2737">
        <ele>87.3</ele>
        <time>2015-06-29T18:48:55.749Z</time>
      </trkpt>
      <trkpt lat="48.8475" lon="2.27358">
        <ele>87.5</ele>
        <time>2015-06-29T18:48:56.909Z</time>
      </trkpt>
      <trkpt lat="48.84742" lon="2.27354">
        <ele>87.4</ele>
        <time>2015-06-29T18:49:02.885Z</time>
      </trkpt>
      <trkpt lat="48.8474" lon="2.27354">
        <ele>87.9</ele>
        <time>2015-06-29T18:49:03.810Z</time>
      </trkpt>
      <trkpt lat="48.84739" lon="2.27352">
        <ele>88.7</ele>
        <time>2015-06-29T18:49:07.788Z</time>
      </trkpt>
      <trkpt lat="48.84739" lon="2.27351">
        <ele>88.3</ele>
        <time>2015-06-29T18:49:08.802Z</time>
      </trkpt>
      <trkpt lat="48.8474" lon="2.27351">
        <ele>87.8</ele>
        <time>2015-06-29T18:49:20.886Z</time>
      </trkpt>
      <trkpt lat="48.84737" lon="2.27362">
        <ele>90.7</ele>
        <time>2015-06-29T18:49:21.832Z</time>
      </trkpt>
      <trkpt lat="48.84729" lon="2.27366">
        <ele>93.1</ele>
        <time>2015-06-29T18:49:31.756Z</time>
      </trkpt>
      <trkpt lat="48.84728" lon="2.27364">
        <ele>93.4</ele>
        <time>2015-06-29T18:49:32.838Z</time>
      </trkpt>
      <trkpt lat="48.84726" lon="2.27363">
        <ele>94.1</ele>
        <time>2015-06-29T18:49:33.716Z</time>
      </trkpt>
      <trkpt lat="48.84726" lon="2.27362">
        <ele>94.4</ele>
        <time>2015-06-29T18:50:33.785Z</time>
      </trkpt>
      <trkpt lat="48.84723" lon="2.2736">
        <ele>97.3</ele>
        <time>2015-06-29T18:50:34.797Z</time>
      </trkpt>
      <trkpt lat="48.84716" lon="2.27353">
        <ele>97.6</ele>
        <time>2015-06-29T18:50:40.775Z</time>
      </trkpt>
      <trkpt lat="48.84714" lon="2.27352">
        <ele>97.6</ele>
        <time>2015-06-29T18:50:41.796Z</time>
      </trkpt>
      <trkpt lat="48.84707" lon="2.27348">
        <ele>97.5</ele>
        <time>2015-06-29T18:50:45.760Z</time>
      </trkpt>
      <trkpt lat="48.84704" lon="2.27347">
        <ele>97.5</ele>
        <time>2015-06-29T18:50:46.774Z</time>
      </trkpt>
      <trkpt lat="48.84697" lon="2.27343">
        <ele>96.6</ele>
        <time>2015-06-29T18:50:49.759Z</time>
      </trkpt>
      <trkpt lat="48.84693" lon="2.27341">
        <ele>95.5</ele>
        <time>2015-06-29T18:50:50.792Z</time>
      </trkpt>
      <trkpt lat="48.84687" lon="2.27338">
        <ele>94.1</ele>
        <time>2015-06-29T18:50:52.807Z</time>
      </trkpt>
      <trkpt lat="48.84683" lon="2.27337">
        <ele>93.2</ele>
        <time>2015-06-29T18:50:53.808Z</time>
      </trkpt>
      <trkpt lat="48.84675" lon="2.27333">
        <ele>92.2</ele>
        <time>2015-06-29T18:50:55.831Z</time>
      </trkpt>
      <trkpt lat="48.8467" lon="2.2733">
        <ele>91.9</ele>
        <time>2015-06-29T18:50:56.946Z</time>
      </trkpt>
      <trkpt lat="48.84666" lon="2.27327">
        <ele>91.7</ele>
        <time>2015-06-29T18:50:57.747Z</time>
      </trkpt>
      <trkpt lat="48.84661" lon="2.27324">
        <ele>91.1</ele>
        <time>2015-06-29T18:50:58.762Z</time>
      </trkpt>
      <trkpt lat="48.84657" lon="2.27321">
        <ele>90.6</ele>
        <time>2015-06-29T18:50:59.784Z</time>
      </trkpt>
      <trkpt lat="48.84652" lon="2.27319">
        <ele>90.1</ele>
        <time>2015-06-29T18:51:00.795Z</time>
      </trkpt>
      <trkpt lat="48.84647" lon="2.27315">
        <ele>89.8</ele>
        <time>2015-06-29T18:51:01.721Z</time>
      </trkpt>
      <trkpt lat="48.84642" lon="2.27311">
        <ele>89.7</ele>
        <time>2015-06-29T18:51:02.808Z</time>
      </trkpt>
      <trkpt lat="48.84638" lon="2.27306">
        <ele>89.4</ele>
        <time>2015-06-29T18:51:03.731Z</time>
      </trkpt>
      <trkpt lat="48.84633" lon="2.273">
        <ele>89.3</ele>
        <time>2015-06-29T18:51:04.733Z</time>
      </trkpt>
      <trkpt lat="48.84629" lon="2.27295">
        <ele>89.3</ele>
        <time>2015-06-29T18:51:05.753Z</time>
      </trkpt>
      <trkpt lat="48.84625" lon="2.27288">
        <ele>89.5</ele>
        <time>2015-06-29T18:51:06.770Z</time>
      </trkpt>
      <trkpt lat="48.84621" lon="2.27282">
        <ele>89.6</ele>
        <time>2015-06-29T18:51:07.785Z</time>
      </trkpt>
      <trkpt lat="48.84617" lon="2.27277">
        <ele>89.4</ele>
        <time>2015-06-29T18:51:08.791Z</time>
      </trkpt>
      <trkpt lat="48.84613" lon="2.27271">
        <ele>89.4</ele>
        <time>2015-06-29T18:51:09.801Z</time>
      </trkpt>
      <trkpt lat="48.84608" lon="2.27266">
        <ele>89.5</ele>
        <time>2015-06-29T18:51:10.753Z</time>
      </trkpt>
      <trkpt lat="48.84603" lon="2.27261">
        <ele>89.3</ele>
        <time>2015-06-29T18:51:11.770Z</time>
      </trkpt>
      <trkpt lat="48.84598" lon="2.27257">
        <ele>89.3</ele>
        <time>2015-06-29T18:51:12.774Z</time>
      </trkpt>
      <trkpt lat="48.84593" lon="2.27252">
        <ele>89.3</ele>
        <time>2015-06-29T18:51:13.791Z</time>
      </trkpt>
      <trkpt lat="48.84589" lon="2.27248">
        <ele>89.4</ele>
        <time>2015-06-29T18:51:14.802Z</time>
      </trkpt>
      <trkpt lat="48.84584" lon="2.27243">
        <ele>89.4</ele>
        <time>2015-06-29T18:51:15.723Z</time>
      </trkpt>
      <trkpt lat="48.84579" lon="2.27238">
        <ele>89.2</ele>
        <time>2015-06-29T18:51:16.752Z</time>
      </trkpt>
      <trkpt lat="48.84575" lon="2.27234">
        <ele>89</ele>
        <time>2015-06-29T18:51:17.730Z</time>
      </trkpt>
      <trkpt lat="48.8457" lon="2.27229">
        <ele>88.9</ele>
        <time>2015-06-29T18:51:18.752Z</time>
      </trkpt>
      <trkpt lat="48.84565" lon="2.27224">
        <ele>88.8</ele>
        <time>2015-06-29T18:51:19.758Z</time>
      </trkpt>
      <trkpt lat="48.84561" lon="2.27218">
        <ele>88.6</ele>
        <time>2015-06-29T18:51:20.777Z</time>
      </trkpt>
      <trkpt lat="48.84557" lon="2.27213">
        <ele>88.4</ele>
        <time>2015-06-29T18:51:21.787Z</time>
      </trkpt>
      <trkpt lat="48.84553" lon="2.27208">
        <ele>88.1</ele>
        <time>2015-06-29T18:51:22.792Z</time>
      </trkpt>
      <trkpt lat="48.84549" lon="2.27203">
        <ele>87.9</ele>
        <time>2015-06-29T18:51:23.734Z</time>
      </trkpt>
      <trkpt lat="48.84545" lon="2.27198">
        <ele>87.7</ele>
        <time>2015-06-29T18:51:24.729Z</time>
      </trkpt>
      <trkpt lat="48.84541" lon="2.27194">
        <ele>87.9</ele>
        <time>2015-06-29T18:51:25.729Z</time>
      </trkpt>
      <trkpt lat="48.84537" lon="2.2719">
        <ele>87.9</ele>
        <time>2015-06-29T18:51:26.774Z</time>
      </trkpt>
      <trkpt lat="48.84533" lon="2.27185">
        <ele>87.8</ele>
        <time>2015-06-29T18:51:27.760Z</time>
      </trkpt>
      <trkpt lat="48.84529" lon="2.27181">
        <ele>87.8</ele>
        <time>2015-06-29T18:51:28.765Z</time>
      </trkpt>
      <trkpt lat="48.84524" lon="2.27177">
        <ele>87.9</ele>
        <time>2015-06-29T18:51:29.785Z</time>
      </trkpt>
      <trkpt lat="48.8452" lon="2.27173">
        <ele>88</ele>
        <time>2015-06-29T18:51:30.795Z</time>
      </trkpt>
      <trkpt lat="48.84515" lon="2.27168">
        <ele>88</ele>
        <time>2015-06-29T18:51:31.806Z</time>
      </trkpt>
      <trkpt lat="48.8451" lon="2.27164">
        <ele>88</ele>
        <time>2015-06-29T18:51:32.831Z</time>
      </trkpt>
      <trkpt lat="48.84505" lon="2.2716">
        <ele>88.1</ele>
        <time>2015-06-29T18:51:33.719Z</time>
      </trkpt>
      <trkpt lat="48.84499" lon="2.27156">
        <ele>88</ele>
        <time>2015-06-29T18:51:34.730Z</time>
      </trkpt>
      <trkpt lat="48.84494" lon="2.27152">
        <ele>88</ele>
        <time>2015-06-29T18:51:35.725Z</time>
      </trkpt>
      <trkpt lat="48.8449" lon="2.27148">
        <ele>88</ele>
        <time>2015-06-29T18:51:36.738Z</time>
      </trkpt>
      <trkpt lat="48.84485" lon="2.27143">
        <ele>88</ele>
        <time>2015-06-29T18:51:37.752Z</time>
      </trkpt>
      <trkpt lat="48.8448" lon="2.2714">
        <ele>88</ele>
        <time>2015-06-29T18:51:38.787Z</time>
      </trkpt>
      <trkpt lat="48.84474" lon="2.27137">
        <ele>87.9</ele>
        <time>2015-06-29T18:51:39.784Z</time>
      </trkpt>
      <trkpt lat="48.84468" lon="2.27135">
        <ele>87.8</ele>
        <time>2015-06-29T18:51:40.796Z</time>
      </trkpt>
      <trkpt lat="48.84462" lon="2.27133">
        <ele>88</ele>
        <time>2015-06-29T18:51:41.711Z</time>
      </trkpt>
      <trkpt lat="48.84456" lon="2.27131">
        <ele>87.9</ele>
        <time>2015-06-29T18:51:42.730Z</time>
      </trkpt>
      <trkpt lat="48.84449" lon="2.27128">
        <ele>87.1</ele>
        <time>2015-06-29T18:51:43.716Z</time>
      </trkpt>
      <trkpt lat="48.84443" lon="2.27125">
        <ele>87</ele>
        <time>2015-06-29T18:51:44.751Z</time>
      </trkpt>
      <trkpt lat="48.84436" lon="2.27121">
        <ele>86.3</ele>
        <time>2015-06-29T18:51:45.762Z</time>
      </trkpt>
      <trkpt lat="48.8443" lon="2.27118">
        <ele>86.1</ele>
        <time>2015-06-29T18:51:46.768Z</time>
      </trkpt>
      <trkpt lat="48.84424" lon="2.27115">
        <ele>86</ele>
        <time>2015-06-29T18:51:47.778Z</time>
      </trkpt>
      <trkpt lat="48.84417" lon="2.27112">
        <ele>84.7</ele>
        <time>2015-06-29T18:51:48.799Z</time>
      </trkpt>
      <trkpt lat="48.84411" lon="2.27108">
        <ele>84.6</ele>
        <time>2015-06-29T18:51:49.805Z</time>
      </trkpt>
      <trkpt lat="48.84406" lon="2.27104">
        <ele>84.7</ele>
        <time>2015-06-29T18:51:50.830Z</time>
      </trkpt>
      <trkpt lat="48.844" lon="2.271">
        <ele>84.7</ele>
        <time>2015-06-29T18:51:51.724Z</time>
      </trkpt>
      <trkpt lat="48.84396" lon="2.27095">
        <ele>84.9</ele>
        <time>2015-06-29T18:51:52.724Z</time>
      </trkpt>
      <trkpt lat="48.84391" lon="2.27091">
        <ele>85.1</ele>
        <time>2015-06-29T18:51:53.731Z</time>
      </trkpt>
      <trkpt lat="48.84386" lon="2.27085">
        <ele>85.4</ele>
        <time>2015-06-29T18:51:54.736Z</time>
      </trkpt>
      <trkpt lat="48.84382" lon="2.27081">
        <ele>85.6</ele>
        <time>2015-06-29T18:51:55.751Z</time>
      </trkpt>
      <trkpt lat="48.84377" lon="2.27078">
        <ele>85.6</ele>
        <time>2015-06-29T18:51:56.776Z</time>
      </trkpt>
      <trkpt lat="48.84372" lon="2.27074">
        <ele>85.7</ele>
        <time>2015-06-29T18:51:57.780Z</time>
      </trkpt>
      <trkpt lat="48.84367" lon="2.2707">
        <ele>86</ele>
        <time>2015-06-29T18:51:58.840Z</time>
      </trkpt>
      <trkpt lat="48.84362" lon="2.27066">
        <ele>86.2</ele>
        <time>2015-06-29T18:51:59.788Z</time>
      </trkpt>
      <trkpt lat="48.84357" lon="2.27061">
        <ele>86.4</ele>
        <time>2015-06-29T18:52:00.709Z</time>
      </trkpt>
      <trkpt lat="48.84352" lon="2.27055">
        <ele>86.5</ele>
        <time>2015-06-29T18:52:01.721Z</time>
      </trkpt>
      <trkpt lat="48.84347" lon="2.2705">
        <ele>86.7</ele>
        <time>2015-06-29T18:52:02.808Z</time>
      </trkpt>
      <trkpt lat="48.84342" lon="2.27044">
        <ele>87.1</ele>
        <time>2015-06-29T18:52:03.733Z</time>
      </trkpt>
      <trkpt lat="48.84337" lon="2.27037">
        <ele>87.5</ele>
        <time>2015-06-29T18:52:04.727Z</time>
      </trkpt>
      <trkpt lat="48.84332" lon="2.27031">
        <ele>88.2</ele>
        <time>2015-06-29T18:52:05.730Z</time>
      </trkpt>
      <trkpt lat="48.84326" lon="2.27024">
        <ele>88.7</ele>
        <time>2015-06-29T18:52:06.751Z</time>
      </trkpt>
      <trkpt lat="48.84321" lon="2.27017">
        <ele>89</ele>
        <time>2015-06-29T18:52:07.767Z</time>
      </trkpt>
      <trkpt lat="48.84316" lon="2.2701">
        <ele>89.3</ele>
        <time>2015-06-29T18:52:08.774Z</time>
      </trkpt>
      <trkpt lat="48.84311" lon="2.27003">
        <ele>89.4</ele>
        <time>2015-06-29T18:52:09.697Z</time>
      </trkpt>
      <trkpt lat="48.84305" lon="2.26996">
        <ele>89.6</ele>
        <time>2015-06-29T18:52:10.706Z</time>
      </trkpt>
      <trkpt lat="48.84299" lon="2.26989">
        <ele>90</ele>
        <time>2015-06-29T18:52:11.721Z</time>
      </trkpt>
      <trkpt lat="48.84294" lon="2.26982">
        <ele>90.2</ele>
        <time>2015-06-29T18:52:12.726Z</time>
      </trkpt>
      <trkpt lat="48.84289" lon="2.26974">
        <ele>90.3</ele>
        <time>2015-06-29T18:52:13.736Z</time>
      </trkpt>
      <trkpt lat="48.84283" lon="2.26966">
        <ele>90.6</ele>
        <time>2015-06-29T18:52:14.745Z</time>
      </trkpt>
      <trkpt lat="48.84278" lon="2.26958">
        <ele>90.7</ele>
        <time>2015-06-29T18:52:15.756Z</time>
      </trkpt>
      <trkpt lat="48.84274" lon="2.26951">
        <ele>90.8</ele>
        <time>2015-06-29T18:52:16.767Z</time>
      </trkpt>
      <trkpt lat="48.84269" lon="2.26944">
        <ele>91</ele>
        <time>2015-06-29T18:52:17.790Z</time>
      </trkpt>
      <trkpt lat="48.84264" lon="2.26936">
        <ele>91.2</ele>
        <time>2015-06-29T18:52:18.791Z</time>
      </trkpt>
      <trkpt lat="48.8426" lon="2.26927">
        <ele>91.3</ele>
        <time>2015-06-29T18:52:19.713Z</time>
      </trkpt>
      <trkpt lat="48.84257" lon="2.26919">
        <ele>91.3</ele>
        <time>2015-06-29T18:52:20.754Z</time>
      </trkpt>
      <trkpt lat="48.84254" lon="2.26911">
        <ele>91.4</ele>
        <time>2015-06-29T18:52:21.748Z</time>
      </trkpt>
      <trkpt lat="48.84251" lon="2.26903">
        <ele>91.4</ele>
        <time>2015-06-29T18:52:22.757Z</time>
      </trkpt>
      <trkpt lat="48.84249" lon="2.26895">
        <ele>91.5</ele>
        <time>2015-06-29T18:52:23.715Z</time>
      </trkpt>
      <trkpt lat="48.84246" lon="2.26887">
        <ele>91.6</ele>
        <time>2015-06-29T18:52:24.716Z</time>
      </trkpt>
      <trkpt lat="48.84241" lon="2.26878">
        <ele>91.7</ele>
        <time>2015-06-29T18:52:25.716Z</time>
      </trkpt>
      <trkpt lat="48.84237" lon="2.26869">
        <ele>91.7</ele>
        <time>2015-06-29T18:52:26.753Z</time>
      </trkpt>
      <trkpt lat="48.84233" lon="2.2686">
        <ele>91.8</ele>
        <time>2015-06-29T18:52:27.749Z</time>
      </trkpt>
      <trkpt lat="48.84229" lon="2.2685">
        <ele>91.8</ele>
        <time>2015-06-29T18:52:28.759Z</time>
      </trkpt>
      <trkpt lat="48.84225" lon="2.2684">
        <ele>91.8</ele>
        <time>2015-06-29T18:52:29.769Z</time>
      </trkpt>
      <trkpt lat="48.8422" lon="2.2683">
        <ele>92</ele>
        <time>2015-06-29T18:52:30.781Z</time>
      </trkpt>
      <trkpt lat="48.84216" lon="2.26818">
        <ele>91.8</ele>
        <time>2015-06-29T18:52:31.790Z</time>
      </trkpt>
      <trkpt lat="48.84211" lon="2.26806">
        <ele>91.5</ele>
        <time>2015-06-29T18:52:32.791Z</time>
      </trkpt>
      <trkpt lat="48.84206" lon="2.26795">
        <ele>91.1</ele>
        <time>2015-06-29T18:52:33.684Z</time>
      </trkpt>
      <trkpt lat="48.84201" lon="2.26783">
        <ele>91.8</ele>
        <time>2015-06-29T18:52:34.746Z</time>
      </trkpt>
      <trkpt lat="48.84198" lon="2.26771">
        <ele>93</ele>
        <time>2015-06-29T18:52:35.659Z</time>
      </trkpt>
      <trkpt lat="48.84195" lon="2.26762">
        <ele>92.8</ele>
        <time>2015-06-29T18:52:36.692Z</time>
      </trkpt>
      <trkpt lat="48.84191" lon="2.26752">
        <ele>93.1</ele>
        <time>2015-06-29T18:52:37.704Z</time>
      </trkpt>
      <trkpt lat="48.84187" lon="2.26743">
        <ele>93.2</ele>
        <time>2015-06-29T18:52:38.729Z</time>
      </trkpt>
      <trkpt lat="48.84184" lon="2.26735">
        <ele>93.3</ele>
        <time>2015-06-29T18:52:39.727Z</time>
      </trkpt>
      <trkpt lat="48.8418" lon="2.26726">
        <ele>93.2</ele>
        <time>2015-06-29T18:52:40.742Z</time>
      </trkpt>
      <trkpt lat="48.84176" lon="2.26716">
        <ele>93.6</ele>
        <time>2015-06-29T18:52:41.758Z</time>
      </trkpt>
      <trkpt lat="48.84172" lon="2.26705">
        <ele>94.8</ele>
        <time>2015-06-29T18:52:42.671Z</time>
      </trkpt>
      <trkpt lat="48.84168" lon="2.26696">
        <ele>95.4</ele>
        <time>2015-06-29T18:52:43.706Z</time>
      </trkpt>
      <trkpt lat="48.84164" lon="2.26688">
        <ele>95.2</ele>
        <time>2015-06-29T18:52:44.731Z</time>
      </trkpt>
      <trkpt lat="48.8416" lon="2.2668">
        <ele>95.3</ele>
        <time>2015-06-29T18:52:45.744Z</time>
      </trkpt>
      <trkpt lat="48.84156" lon="2.26672">
        <ele>95.3</ele>
        <time>2015-06-29T18:52:46.750Z</time>
      </trkpt>
      <trkpt lat="48.84152" lon="2.26663">
        <ele>94.5</ele>
        <time>2015-06-29T18:52:47.747Z</time>
      </trkpt>
      <trkpt lat="48.84148" lon="2.26654">
        <ele>92.6</ele>
        <time>2015-06-29T18:52:48.757Z</time>
      </trkpt>
      <trkpt lat="48.84144" lon="2.26646">
        <ele>91.7</ele>
        <time>2015-06-29T18:52:49.773Z</time>
      </trkpt>
      <trkpt lat="48.8414" lon="2.2664">
        <ele>92.2</ele>
        <time>2015-06-29T18:52:50.787Z</time>
      </trkpt>
      <trkpt lat="48.84134" lon="2.26634">
        <ele>90.7</ele>
        <time>2015-06-29T18:52:51.790Z</time>
      </trkpt>
      <trkpt lat="48.84128" lon="2.26627">
        <ele>88.5</ele>
        <time>2015-06-29T18:52:52.842Z</time>
      </trkpt>
      <trkpt lat="48.84125" lon="2.26622">
        <ele>89</ele>
        <time>2015-06-29T18:52:53.760Z</time>
      </trkpt>
      <trkpt lat="48.84122" lon="2.26616">
        <ele>89.8</ele>
        <time>2015-06-29T18:52:54.741Z</time>
      </trkpt>
      <trkpt lat="48.84118" lon="2.26606">
        <ele>90.4</ele>
        <time>2015-06-29T18:52:56.747Z</time>
      </trkpt>
      <trkpt lat="48.84117" lon="2.26603">
        <ele>90.4</ele>
        <time>2015-06-29T18:52:57.756Z</time>
      </trkpt>
      <trkpt lat="48.84112" lon="2.26595">
        <ele>91.2</ele>
        <time>2015-06-29T18:53:00.734Z</time>
      </trkpt>
      <trkpt lat="48.84111" lon="2.2659">
        <ele>91.7</ele>
        <time>2015-06-29T18:53:01.744Z</time>
      </trkpt>
      <trkpt lat="48.84108" lon="2.26582">
        <ele>91.1</ele>
        <time>2015-06-29T18:53:03.717Z</time>
      </trkpt>
      <trkpt lat="48.84105" lon="2.26579">
        <ele>90.6</ele>
        <time>2015-06-29T18:53:04.736Z</time>
      </trkpt>
      <trkpt lat="48.841" lon="2.26571">
        <ele>90</ele>
        <time>2015-06-29T18:53:06.728Z</time>
      </trkpt>
      <trkpt lat="48.84098" lon="2.26567">
        <ele>90.3</ele>
        <time>2015-06-29T18:53:07.761Z</time>
      </trkpt>
      <trkpt lat="48.84094" lon="2.26559">
        <ele>89.6</ele>
        <time>2015-06-29T18:53:09.698Z</time>
      </trkpt>
      <trkpt lat="48.84092" lon="2.26555">
        <ele>89.5</ele>
        <time>2015-06-29T18:53:10.797Z</time>
      </trkpt>
      <trkpt lat="48.8409" lon="2.26544">
        <ele>88</ele>
        <time>2015-06-29T18:55:17.797Z</time>
      </trkpt>
      <trkpt lat="48.84093" lon="2.26534">
        <ele>92.2</ele>
        <time>2015-06-29T18:55:18.702Z</time>
      </trkpt>
      <trkpt lat="48.84088" lon="2.26525">
        <ele>92</ele>
        <time>2015-06-29T18:55:20.772Z</time>
      </trkpt>
      <trkpt lat="48.84086" lon="2.26518">
        <ele>92.1</ele>
        <time>2015-06-29T18:55:21.764Z</time>
      </trkpt>
      <trkpt lat="48.84083" lon="2.26509">
        <ele>92</ele>
        <time>2015-06-29T18:55:23.702Z</time>
      </trkpt>
      <trkpt lat="48.84082" lon="2.26504">
        <ele>92</ele>
        <time>2015-06-29T18:55:24.729Z</time>
      </trkpt>
      <trkpt lat="48.84078" lon="2.26495">
        <ele>91.9</ele>
        <time>2015-06-29T18:55:26.758Z</time>
      </trkpt>
      <trkpt lat="48.84076" lon="2.26491">
        <ele>92.1</ele>
        <time>2015-06-29T18:55:27.764Z</time>
      </trkpt>
      <trkpt lat="48.84073" lon="2.26482">
        <ele>92.5</ele>
        <time>2015-06-29T18:55:29.708Z</time>
      </trkpt>
      <trkpt lat="48.84069" lon="2.26476">
        <ele>92.7</ele>
        <time>2015-06-29T18:55:30.739Z</time>
      </trkpt>
      <trkpt lat="48.84066" lon="2.2647">
        <ele>92.9</ele>
        <time>2015-06-29T18:55:31.746Z</time>
      </trkpt>
      <trkpt lat="48.8406" lon="2.26464">
        <ele>92.9</ele>
        <time>2015-06-29T18:55:32.752Z</time>
      </trkpt>
      <trkpt lat="48.84055" lon="2.26459">
        <ele>92.9</ele>
        <time>2015-06-29T18:55:33.784Z</time>
      </trkpt>
      <trkpt lat="48.84049" lon="2.26453">
        <ele>92.8</ele>
        <time>2015-06-29T18:55:34.952Z</time>
      </trkpt>
      <trkpt lat="48.84043" lon="2.26445">
        <ele>92.8</ele>
        <time>2015-06-29T18:55:35.745Z</time>
      </trkpt>
      <trkpt lat="48.84037" lon="2.26436">
        <ele>92.8</ele>
        <time>2015-06-29T18:55:36.767Z</time>
      </trkpt>
      <trkpt lat="48.8403" lon="2.26427">
        <ele>92.9</ele>
        <time>2015-06-29T18:55:37.723Z</time>
      </trkpt>
      <trkpt lat="48.84026" lon="2.26419">
        <ele>93</ele>
        <time>2015-06-29T18:55:38.767Z</time>
      </trkpt>
      <trkpt lat="48.84021" lon="2.2641">
        <ele>93.4</ele>
        <time>2015-06-29T18:55:39.761Z</time>
      </trkpt>
      <trkpt lat="48.84014" lon="2.26403">
        <ele>93.8</ele>
        <time>2015-06-29T18:55:40.671Z</time>
      </trkpt>
      <trkpt lat="48.84003" lon="2.26395">
        <ele>93.9</ele>
        <time>2015-06-29T18:55:41.718Z</time>
      </trkpt>
      <trkpt lat="48.83996" lon="2.26388">
        <ele>93.8</ele>
        <time>2015-06-29T18:55:42.812Z</time>
      </trkpt>
      <trkpt lat="48.83992" lon="2.26382">
        <ele>93.6</ele>
        <time>2015-06-29T18:55:43.720Z</time>
      </trkpt>
      <trkpt lat="48.83988" lon="2.26375">
        <ele>93.5</ele>
        <time>2015-06-29T18:55:45.111Z</time>
      </trkpt>
      <trkpt lat="48.83984" lon="2.26367">
        <ele>93.7</ele>
        <time>2015-06-29T18:55:45.767Z</time>
      </trkpt>
      <trkpt lat="48.83981" lon="2.26359">
        <ele>93.5</ele>
        <time>2015-06-29T18:55:46.793Z</time>
      </trkpt>
      <trkpt lat="48.83977" lon="2.26355">
        <ele>92.8</ele>
        <time>2015-06-29T18:55:47.825Z</time>
      </trkpt>
      <trkpt lat="48.83971" lon="2.26352">
        <ele>92.6</ele>
        <time>2015-06-29T18:55:48.700Z</time>
      </trkpt>
      <trkpt lat="48.83967" lon="2.26347">
        <ele>92</ele>
        <time>2015-06-29T18:55:49.708Z</time>
      </trkpt>
      <trkpt lat="48.83963" lon="2.2634">
        <ele>92.1</ele>
        <time>2015-06-29T18:55:50.737Z</time>
      </trkpt>
      <trkpt lat="48.8396" lon="2.26333">
        <ele>92.3</ele>
        <time>2015-06-29T18:55:51.731Z</time>
      </trkpt>
      <trkpt lat="48.83957" lon="2.26324">
        <ele>92.5</ele>
        <time>2015-06-29T18:55:52.856Z</time>
      </trkpt>
      <trkpt lat="48.83956" lon="2.26314">
        <ele>92.5</ele>
        <time>2015-06-29T18:55:53.743Z</time>
      </trkpt>
      <trkpt lat="48.83954" lon="2.26305">
        <ele>92.7</ele>
        <time>2015-06-29T18:55:54.758Z</time>
      </trkpt>
      <trkpt lat="48.83952" lon="2.26296">
        <ele>92.8</ele>
        <time>2015-06-29T18:55:55.773Z</time>
      </trkpt>
      <trkpt lat="48.8395" lon="2.26287">
        <ele>92.5</ele>
        <time>2015-06-29T18:55:56.798Z</time>
      </trkpt>
      <trkpt lat="48.83948" lon="2.26277">
        <ele>92.5</ele>
        <time>2015-06-29T18:55:57.681Z</time>
      </trkpt>
      <trkpt lat="48.83946" lon="2.26269">
        <ele>92.5</ele>
        <time>2015-06-29T18:55:58.715Z</time>
      </trkpt>
      <trkpt lat="48.83944" lon="2.2626">
        <ele>92.5</ele>
        <time>2015-06-29T18:55:59.717Z</time>
      </trkpt>
      <trkpt lat="48.83941" lon="2.26251">
        <ele>92.4</ele>
        <time>2015-06-29T18:56:00.725Z</time>
      </trkpt>
      <trkpt lat="48.83939" lon="2.26242">
        <ele>92.6</ele>
        <time>2015-06-29T18:56:01.731Z</time>
      </trkpt>
      <trkpt lat="48.83936" lon="2.26233">
        <ele>92.6</ele>
        <time>2015-06-29T18:56:02.763Z</time>
      </trkpt>
      <trkpt lat="48.83933" lon="2.26224">
        <ele>92.7</ele>
        <time>2015-06-29T18:56:03.756Z</time>
      </trkpt>
      <trkpt lat="48.83931" lon="2.26214">
        <ele>92.9</ele>
        <time>2015-06-29T18:56:04.756Z</time>
      </trkpt>
      <trkpt lat="48.83929" lon="2.26203">
        <ele>92.7</ele>
        <time>2015-06-29T18:56:05.764Z</time>
      </trkpt>
      <trkpt lat="48.83926" lon="2.26193">
        <ele>92.8</ele>
        <time>2015-06-29T18:56:06.789Z</time>
      </trkpt>
      <trkpt lat="48.83924" lon="2.26185">
        <ele>92.6</ele>
        <time>2015-06-29T18:56:07.794Z</time>
      </trkpt>
      <trkpt lat="48.83921" lon="2.26175">
        <ele>92.3</ele>
        <time>2015-06-29T18:56:08.810Z</time>
      </trkpt>
      <trkpt lat="48.83918" lon="2.26166">
        <ele>92.3</ele>
        <time>2015-06-29T18:56:09.726Z</time>
      </trkpt>
      <trkpt lat="48.83915" lon="2.26156">
        <ele>92.3</ele>
        <time>2015-06-29T18:56:10.734Z</time>
      </trkpt>
      <trkpt lat="48.83913" lon="2.26146">
        <ele>92.3</ele>
        <time>2015-06-29T18:56:11.747Z</time>
      </trkpt>
      <trkpt lat="48.8391" lon="2.26137">
        <ele>92</ele>
        <time>2015-06-29T18:56:12.789Z</time>
      </trkpt>
      <trkpt lat="48.83907" lon="2.26129">
        <ele>92.1</ele>
        <time>2015-06-29T18:56:13.793Z</time>
      </trkpt>
      <trkpt lat="48.83904" lon="2.26121">
        <ele>92.1</ele>
        <time>2015-06-29T18:56:14.874Z</time>
      </trkpt>
      <trkpt lat="48.83902" lon="2.26111">
        <ele>92</ele>
        <time>2015-06-29T18:56:15.732Z</time>
      </trkpt>
      <trkpt lat="48.83901" lon="2.26102">
        <ele>92.1</ele>
        <time>2015-06-29T18:56:16.746Z</time>
      </trkpt>
      <trkpt lat="48.83899" lon="2.26092">
        <ele>92.1</ele>
        <time>2015-06-29T18:56:17.759Z</time>
      </trkpt>
      <trkpt lat="48.83897" lon="2.26082">
        <ele>92.6</ele>
        <time>2015-06-29T18:56:18.803Z</time>
      </trkpt>
      <trkpt lat="48.83895" lon="2.26074">
        <ele>92.6</ele>
        <time>2015-06-29T18:56:19.807Z</time>
      </trkpt>
      <trkpt lat="48.83893" lon="2.26064">
        <ele>92.9</ele>
        <time>2015-06-29T18:56:20.814Z</time>
      </trkpt>
      <trkpt lat="48.8389" lon="2.26055">
        <ele>93.3</ele>
        <time>2015-06-29T18:56:21.727Z</time>
      </trkpt>
      <trkpt lat="48.83889" lon="2.26045">
        <ele>93.8</ele>
        <time>2015-06-29T18:56:22.733Z</time>
      </trkpt>
      <trkpt lat="48.83882" lon="2.26035">
        <ele>93.7</ele>
        <time>2015-06-29T18:56:23.744Z</time>
      </trkpt>
      <trkpt lat="48.83879" lon="2.26025">
        <ele>93.6</ele>
        <time>2015-06-29T18:56:24.748Z</time>
      </trkpt>
      <trkpt lat="48.83874" lon="2.26014">
        <ele>94.1</ele>
        <time>2015-06-29T18:56:25.755Z</time>
      </trkpt>
      <trkpt lat="48.83871" lon="2.26003">
        <ele>93.9</ele>
        <time>2015-06-29T18:56:26.778Z</time>
      </trkpt>
      <trkpt lat="48.83866" lon="2.25992">
        <ele>94.4</ele>
        <time>2015-06-29T18:56:27.792Z</time>
      </trkpt>
      <trkpt lat="48.83863" lon="2.2598">
        <ele>94.8</ele>
        <time>2015-06-29T18:56:28.725Z</time>
      </trkpt>
      <trkpt lat="48.8386" lon="2.25969">
        <ele>94.9</ele>
        <time>2015-06-29T18:56:29.723Z</time>
      </trkpt>
      <trkpt lat="48.83857" lon="2.25958">
        <ele>95.4</ele>
        <time>2015-06-29T18:56:30.724Z</time>
      </trkpt>
      <trkpt lat="48.83855" lon="2.25946">
        <ele>95.4</ele>
        <time>2015-06-29T18:56:31.728Z</time>
      </trkpt>
      <trkpt lat="48.83852" lon="2.25934">
        <ele>96.3</ele>
        <time>2015-06-29T18:56:32.767Z</time>
      </trkpt>
      <trkpt lat="48.83849" lon="2.25922">
        <ele>96.3</ele>
        <time>2015-06-29T18:56:33.772Z</time>
      </trkpt>
      <trkpt lat="48.83846" lon="2.25912">
        <ele>96.7</ele>
        <time>2015-06-29T18:56:34.791Z</time>
      </trkpt>
      <trkpt lat="48.83844" lon="2.25902">
        <ele>97.2</ele>
        <time>2015-06-29T18:56:35.800Z</time>
      </trkpt>
      <trkpt lat="48.8384" lon="2.25892">
        <ele>97.3</ele>
        <time>2015-06-29T18:56:36.703Z</time>
      </trkpt>
      <trkpt lat="48.83837" lon="2.25879">
        <ele>97.2</ele>
        <time>2015-06-29T18:56:37.719Z</time>
      </trkpt>
      <trkpt lat="48.83834" lon="2.25867">
        <ele>97.4</ele>
        <time>2015-06-29T18:56:38.776Z</time>
      </trkpt>
      <trkpt lat="48.8383" lon="2.25855">
        <ele>96.5</ele>
        <time>2015-06-29T18:56:39.765Z</time>
      </trkpt>
      <trkpt lat="48.83824" lon="2.25842">
        <ele>94.3</ele>
        <time>2015-06-29T18:56:40.792Z</time>
      </trkpt>
      <trkpt lat="48.83821" lon="2.25831">
        <ele>93.9</ele>
        <time>2015-06-29T18:56:41.795Z</time>
      </trkpt>
      <trkpt lat="48.83817" lon="2.2582">
        <ele>93.3</ele>
        <time>2015-06-29T18:56:42.810Z</time>
      </trkpt>
      <trkpt lat="48.83815" lon="2.2581">
        <ele>93.1</ele>
        <time>2015-06-29T18:56:43.735Z</time>
      </trkpt>
      <trkpt lat="48.83812" lon="2.25801">
        <ele>92.8</ele>
        <time>2015-06-29T18:56:44.820Z</time>
      </trkpt>
      <trkpt lat="48.83809" lon="2.25793">
        <ele>91.7</ele>
        <time>2015-06-29T18:56:45.763Z</time>
      </trkpt>
      <trkpt lat="48.83807" lon="2.25784">
        <ele>91</ele>
        <time>2015-06-29T18:56:46.766Z</time>
      </trkpt>
      <trkpt lat="48.83806" lon="2.25775">
        <ele>90.8</ele>
        <time>2015-06-29T18:56:47.778Z</time>
      </trkpt>
      <trkpt lat="48.83808" lon="2.25767">
        <ele>90.7</ele>
        <time>2015-06-29T18:56:48.788Z</time>
      </trkpt>
      <trkpt lat="48.83811" lon="2.2576">
        <ele>91.1</ele>
        <time>2015-06-29T18:56:49.808Z</time>
      </trkpt>
      <trkpt lat="48.83815" lon="2.25755">
        <ele>91.3</ele>
        <time>2015-06-29T18:56:50.819Z</time>
      </trkpt>
      <trkpt lat="48.83819" lon="2.25752">
        <ele>91.6</ele>
        <time>2015-06-29T18:56:51.738Z</time>
      </trkpt>
      <trkpt lat="48.83823" lon="2.25748">
        <ele>91.7</ele>
        <time>2015-06-29T18:56:52.834Z</time>
      </trkpt>
      <trkpt lat="48.83827" lon="2.25738">
        <ele>92</ele>
        <time>2015-06-29T18:56:54.740Z</time>
      </trkpt>
      <trkpt lat="48.83829" lon="2.25734">
        <ele>91.9</ele>
        <time>2015-06-29T18:56:55.754Z</time>
      </trkpt>
      <trkpt lat="48.83833" lon="2.25726">
        <ele>92.3</ele>
        <time>2015-06-29T18:56:57.741Z</time>
      </trkpt>
      <trkpt lat="48.83835" lon="2.25723">
        <ele>92.3</ele>
        <time>2015-06-29T18:56:58.765Z</time>
      </trkpt>
      <trkpt lat="48.83839" lon="2.25713">
        <ele>92.4</ele>
        <time>2015-06-29T18:57:01.759Z</time>
      </trkpt>
      <trkpt lat="48.8384" lon="2.25711">
        <ele>92.8</ele>
        <time>2015-06-29T18:57:02.793Z</time>
      </trkpt>
      <trkpt lat="48.83844" lon="2.257">
        <ele>90.7</ele>
        <time>2015-06-29T18:57:50.817Z</time>
      </trkpt>
      <trkpt lat="48.83843" lon="2.25695">
        <ele>90.6</ele>
        <time>2015-06-29T18:57:51.714Z</time>
      </trkpt>
      <trkpt lat="48.83841" lon="2.25684">
        <ele>90.4</ele>
        <time>2015-06-29T18:57:53.739Z</time>
      </trkpt>
      <trkpt lat="48.83839" lon="2.25678">
        <ele>90.5</ele>
        <time>2015-06-29T18:57:54.719Z</time>
      </trkpt>
      <trkpt lat="48.83836" lon="2.25666">
        <ele>90.7</ele>
        <time>2015-06-29T18:57:56.796Z</time>
      </trkpt>
      <trkpt lat="48.83833" lon="2.2566">
        <ele>90.6</ele>
        <time>2015-06-29T18:57:57.804Z</time>
      </trkpt>
      <trkpt lat="48.83831" lon="2.25654">
        <ele>90.4</ele>
        <time>2015-06-29T18:57:58.747Z</time>
      </trkpt>
      <trkpt lat="48.83828" lon="2.25647">
        <ele>90.6</ele>
        <time>2015-06-29T18:57:59.740Z</time>
      </trkpt>
      <trkpt lat="48.83826" lon="2.2564">
        <ele>90.4</ele>
        <time>2015-06-29T18:58:00.752Z</time>
      </trkpt>
      <trkpt lat="48.83825" lon="2.25632">
        <ele>90.2</ele>
        <time>2015-06-29T18:58:01.761Z</time>
      </trkpt>
      <trkpt lat="48.83825" lon="2.25624">
        <ele>90.1</ele>
        <time>2015-06-29T18:58:02.827Z</time>
      </trkpt>
      <trkpt lat="48.83827" lon="2.25617">
        <ele>89.9</ele>
        <time>2015-06-29T18:58:03.808Z</time>
      </trkpt>
      <trkpt lat="48.83828" lon="2.2561">
        <ele>90.1</ele>
        <time>2015-06-29T18:58:04.750Z</time>
      </trkpt>
      <trkpt lat="48.8383" lon="2.25603">
        <ele>90.2</ele>
        <time>2015-06-29T18:58:05.757Z</time>
      </trkpt>
      <trkpt lat="48.83831" lon="2.25597">
        <ele>90.5</ele>
        <time>2015-06-29T18:58:06.766Z</time>
      </trkpt>
      <trkpt lat="48.83832" lon="2.2559">
        <ele>90.6</ele>
        <time>2015-06-29T18:58:07.782Z</time>
      </trkpt>
      <trkpt lat="48.83833" lon="2.25583">
        <ele>90.5</ele>
        <time>2015-06-29T18:58:08.801Z</time>
      </trkpt>
      <trkpt lat="48.83834" lon="2.25576">
        <ele>90.3</ele>
        <time>2015-06-29T18:58:09.804Z</time>
      </trkpt>
      <trkpt lat="48.83834" lon="2.25569">
        <ele>90.3</ele>
        <time>2015-06-29T18:58:10.728Z</time>
      </trkpt>
      <trkpt lat="48.83835" lon="2.25562">
        <ele>90.4</ele>
        <time>2015-06-29T18:58:11.750Z</time>
      </trkpt>
      <trkpt lat="48.83836" lon="2.25555">
        <ele>90.3</ele>
        <time>2015-06-29T18:58:12.754Z</time>
      </trkpt>
      <trkpt lat="48.83837" lon="2.25548">
        <ele>90.2</ele>
        <time>2015-06-29T18:58:13.793Z</time>
      </trkpt>
      <trkpt lat="48.8384" lon="2.25541">
        <ele>90.1</ele>
        <time>2015-06-29T18:58:14.805Z</time>
      </trkpt>
      <trkpt lat="48.83842" lon="2.25535">
        <ele>90</ele>
        <time>2015-06-29T18:58:15.820Z</time>
      </trkpt>
      <trkpt lat="48.83845" lon="2.2553">
        <ele>90.2</ele>
        <time>2015-06-29T18:58:17.095Z</time>
      </trkpt>
      <trkpt lat="48.83847" lon="2.25523">
        <ele>90.7</ele>
        <time>2015-06-29T18:58:17.739Z</time>
      </trkpt>
      <trkpt lat="48.83849" lon="2.25517">
        <ele>90.8</ele>
        <time>2015-06-29T18:58:18.732Z</time>
      </trkpt>
      <trkpt lat="48.83852" lon="2.2551">
        <ele>90.8</ele>
        <time>2015-06-29T18:58:19.746Z</time>
      </trkpt>
      <trkpt lat="48.83855" lon="2.25504">
        <ele>90.9</ele>
        <time>2015-06-29T18:58:20.795Z</time>
      </trkpt>
      <trkpt lat="48.83857" lon="2.25498">
        <ele>90.9</ele>
        <time>2015-06-29T18:58:21.787Z</time>
      </trkpt>
      <trkpt lat="48.8386" lon="2.25486">
        <ele>91</ele>
        <time>2015-06-29T18:58:23.818Z</time>
      </trkpt>
      <trkpt lat="48.83862" lon="2.2548">
        <ele>91</ele>
        <time>2015-06-29T18:58:24.830Z</time>
      </trkpt>
      <trkpt lat="48.83866" lon="2.2547">
        <ele>90.5</ele>
        <time>2015-06-29T18:58:26.851Z</time>
      </trkpt>
      <trkpt lat="48.83867" lon="2.25466">
        <ele>90.6</ele>
        <time>2015-06-29T18:58:27.730Z</time>
      </trkpt>
      <trkpt lat="48.83868" lon="2.25453">
        <ele>91.2</ele>
        <time>2015-06-29T18:58:30.814Z</time>
      </trkpt>
      <trkpt lat="48.83868" lon="2.25449">
        <ele>91</ele>
        <time>2015-06-29T18:58:31.765Z</time>
      </trkpt>
      <trkpt lat="48.83869" lon="2.25437">
        <ele>90</ele>
        <time>2015-06-29T18:58:34.760Z</time>
      </trkpt>
      <trkpt lat="48.8387" lon="2.25433">
        <ele>89.7</ele>
        <time>2015-06-29T18:58:35.785Z</time>
      </trkpt>
      <trkpt lat="48.83871" lon="2.25423">
        <ele>89.4</ele>
        <time>2015-06-29T18:58:37.717Z</time>
      </trkpt>
      <trkpt lat="48.83872" lon="2.25419">
        <ele>89.5</ele>
        <time>2015-06-29T18:58:38.822Z</time>
      </trkpt>
      <trkpt lat="48.83872" lon="2.25409">
        <ele>89.8</ele>
        <time>2015-06-29T18:58:40.742Z</time>
      </trkpt>
      <trkpt lat="48.83872" lon="2.25404">
        <ele>89.8</ele>
        <time>2015-06-29T18:58:41.761Z</time>
      </trkpt>
      <trkpt lat="48.83871" lon="2.25391">
        <ele>90.1</ele>
        <time>2015-06-29T18:58:44.815Z</time>
      </trkpt>
      <trkpt lat="48.8387" lon="2.25387">
        <ele>90.2</ele>
        <time>2015-06-29T18:58:45.763Z</time>
      </trkpt>
      <trkpt lat="48.83867" lon="2.25377">
        <ele>90.2</ele>
        <time>2015-06-29T18:58:47.752Z</time>
      </trkpt>
      <trkpt lat="48.83866" lon="2.25372">
        <ele>90.4</ele>
        <time>2015-06-29T18:58:48.765Z</time>
      </trkpt>
      <trkpt lat="48.83863" lon="2.2536">
        <ele>90.8</ele>
        <time>2015-06-29T18:58:50.818Z</time>
      </trkpt>
      <trkpt lat="48.83862" lon="2.25354">
        <ele>90.8</ele>
        <time>2015-06-29T18:58:51.833Z</time>
      </trkpt>
      <trkpt lat="48.83861" lon="2.25347">
        <ele>90.7</ele>
        <time>2015-06-29T18:58:52.736Z</time>
      </trkpt>
      <trkpt lat="48.8386" lon="2.25341">
        <ele>90.6</ele>
        <time>2015-06-29T18:58:53.753Z</time>
      </trkpt>
      <trkpt lat="48.83859" lon="2.25333">
        <ele>90.6</ele>
        <time>2015-06-29T18:58:54.760Z</time>
      </trkpt>
      <trkpt lat="48.83859" lon="2.25327">
        <ele>90.6</ele>
        <time>2015-06-29T18:58:55.772Z</time>
      </trkpt>
      <trkpt lat="48.83858" lon="2.2532">
        <ele>90.3</ele>
        <time>2015-06-29T18:58:56.792Z</time>
      </trkpt>
      <trkpt lat="48.83857" lon="2.25312">
        <ele>90.4</ele>
        <time>2015-06-29T18:58:57.808Z</time>
      </trkpt>
      <trkpt lat="48.83857" lon="2.25305">
        <ele>90.8</ele>
        <time>2015-06-29T18:58:58.737Z</time>
      </trkpt>
      <trkpt lat="48.83857" lon="2.25298">
        <ele>90.9</ele>
        <time>2015-06-29T18:58:59.739Z</time>
      </trkpt>
      <trkpt lat="48.83858" lon="2.25291">
        <ele>90.9</ele>
        <time>2015-06-29T18:59:00.750Z</time>
      </trkpt>
      <trkpt lat="48.83858" lon="2.25284">
        <ele>91.1</ele>
        <time>2015-06-29T18:59:01.762Z</time>
      </trkpt>
      <trkpt lat="48.83859" lon="2.25277">
        <ele>91.2</ele>
        <time>2015-06-29T18:59:02.798Z</time>
      </trkpt>
      <trkpt lat="48.8386" lon="2.2527">
        <ele>91.1</ele>
        <time>2015-06-29T18:59:03.801Z</time>
      </trkpt>
      <trkpt lat="48.83861" lon="2.25256">
        <ele>90.7</ele>
        <time>2015-06-29T18:59:05.739Z</time>
      </trkpt>
      <trkpt lat="48.83861" lon="2.2525">
        <ele>90.8</ele>
        <time>2015-06-29T18:59:06.762Z</time>
      </trkpt>
      <trkpt lat="48.83862" lon="2.25243">
        <ele>91.1</ele>
        <time>2015-06-29T18:59:07.763Z</time>
      </trkpt>
      <trkpt lat="48.83863" lon="2.25236">
        <ele>91</ele>
        <time>2015-06-29T18:59:08.797Z</time>
      </trkpt>
      <trkpt lat="48.83864" lon="2.25228">
        <ele>91.1</ele>
        <time>2015-06-29T18:59:09.939Z</time>
      </trkpt>
      <trkpt lat="48.83865" lon="2.25222">
        <ele>91.2</ele>
        <time>2015-06-29T18:59:10.764Z</time>
      </trkpt>
      <trkpt lat="48.83865" lon="2.25214">
        <ele>92</ele>
        <time>2015-06-29T18:59:11.772Z</time>
      </trkpt>
      <trkpt lat="48.83865" lon="2.25207">
        <ele>92.5</ele>
        <time>2015-06-29T18:59:12.738Z</time>
      </trkpt>
      <trkpt lat="48.83863" lon="2.25199">
        <ele>93.1</ele>
        <time>2015-06-29T18:59:13.744Z</time>
      </trkpt>
      <trkpt lat="48.83863" lon="2.25193">
        <ele>93</ele>
        <time>2015-06-29T18:59:14.833Z</time>
      </trkpt>
      <trkpt lat="48.83861" lon="2.25179">
        <ele>93.4</ele>
        <time>2015-06-29T18:59:16.835Z</time>
      </trkpt>
      <trkpt lat="48.83861" lon="2.25172">
        <ele>93.8</ele>
        <time>2015-06-29T18:59:17.760Z</time>
      </trkpt>
      <trkpt lat="48.83859" lon="2.25159">
        <ele>94.7</ele>
        <time>2015-06-29T18:59:19.751Z</time>
      </trkpt>
      <trkpt lat="48.8386" lon="2.25152">
        <ele>94.8</ele>
        <time>2015-06-29T18:59:20.870Z</time>
      </trkpt>
      <trkpt lat="48.83861" lon="2.25139">
        <ele>94.9</ele>
        <time>2015-06-29T18:59:22.732Z</time>
      </trkpt>
      <trkpt lat="48.83862" lon="2.25133">
        <ele>94.8</ele>
        <time>2015-06-29T18:59:23.820Z</time>
      </trkpt>
      <trkpt lat="48.83864" lon="2.25121">
        <ele>95.2</ele>
        <time>2015-06-29T18:59:25.739Z</time>
      </trkpt>
      <trkpt lat="48.83866" lon="2.25116">
        <ele>95.3</ele>
        <time>2015-06-29T18:59:26.775Z</time>
      </trkpt>
      <trkpt lat="48.83871" lon="2.25107">
        <ele>96.2</ele>
        <time>2015-06-29T18:59:29.729Z</time>
      </trkpt>
      <trkpt lat="48.83872" lon="2.25105">
        <ele>96.6</ele>
        <time>2015-06-29T18:59:30.728Z</time>
      </trkpt>
      <trkpt lat="48.8388" lon="2.25101">
        <ele>96.4</ele>
        <time>2015-06-29T18:59:32.797Z</time>
      </trkpt>
      <trkpt lat="48.83882" lon="2.25097">
        <ele>96.7</ele>
        <time>2015-06-29T18:59:33.805Z</time>
      </trkpt>
      <trkpt lat="48.83885" lon="2.25092">
        <ele>96.4</ele>
        <time>2015-06-29T18:59:34.820Z</time>
      </trkpt>
      <trkpt lat="48.83888" lon="2.25086">
        <ele>96.3</ele>
        <time>2015-06-29T18:59:35.725Z</time>
      </trkpt>
      <trkpt lat="48.8389" lon="2.25079">
        <ele>96.1</ele>
        <time>2015-06-29T18:59:36.752Z</time>
      </trkpt>
      <trkpt lat="48.83893" lon="2.25073">
        <ele>96.1</ele>
        <time>2015-06-29T18:59:37.758Z</time>
      </trkpt>
      <trkpt lat="48.83896" lon="2.25068">
        <ele>96.2</ele>
        <time>2015-06-29T18:59:38.781Z</time>
      </trkpt>
      <trkpt lat="48.83898" lon="2.25061">
        <ele>96.2</ele>
        <time>2015-06-29T18:59:39.796Z</time>
      </trkpt>
      <trkpt lat="48.839" lon="2.25055">
        <ele>96.3</ele>
        <time>2015-06-29T18:59:40.728Z</time>
      </trkpt>
      <trkpt lat="48.83902" lon="2.25048">
        <ele>96.5</ele>
        <time>2015-06-29T18:59:41.731Z</time>
      </trkpt>
      <trkpt lat="48.83905" lon="2.25041">
        <ele>96.4</ele>
        <time>2015-06-29T18:59:42.740Z</time>
      </trkpt>
      <trkpt lat="48.83909" lon="2.25035">
        <ele>96.7</ele>
        <time>2015-06-29T18:59:43.743Z</time>
      </trkpt>
      <trkpt lat="48.83914" lon="2.25029">
        <ele>96.6</ele>
        <time>2015-06-29T18:59:44.788Z</time>
      </trkpt>
      <trkpt lat="48.83916" lon="2.25022">
        <ele>96.4</ele>
        <time>2015-06-29T18:59:45.792Z</time>
      </trkpt>
      <trkpt lat="48.83917" lon="2.25014">
        <ele>95.8</ele>
        <time>2015-06-29T18:59:46.800Z</time>
      </trkpt>
      <trkpt lat="48.83919" lon="2.25006">
        <ele>95.7</ele>
        <time>2015-06-29T18:59:47.727Z</time>
      </trkpt>
      <trkpt lat="48.8392" lon="2.24998">
        <ele>95.3</ele>
        <time>2015-06-29T18:59:48.723Z</time>
      </trkpt>
      <trkpt lat="48.83921" lon="2.2499">
        <ele>94.9</ele>
        <time>2015-06-29T18:59:49.722Z</time>
      </trkpt>
      <trkpt lat="48.83922" lon="2.24983">
        <ele>95</ele>
        <time>2015-06-29T18:59:50.767Z</time>
      </trkpt>
      <trkpt lat="48.83924" lon="2.24975">
        <ele>95</ele>
        <time>2015-06-29T18:59:51.775Z</time>
      </trkpt>
      <trkpt lat="48.83926" lon="2.24968">
        <ele>95.3</ele>
        <time>2015-06-29T18:59:52.782Z</time>
      </trkpt>
      <trkpt lat="48.83928" lon="2.2496">
        <ele>95.6</ele>
        <time>2015-06-29T18:59:53.797Z</time>
      </trkpt>
      <trkpt lat="48.8393" lon="2.24953">
        <ele>95.6</ele>
        <time>2015-06-29T18:59:54.699Z</time>
      </trkpt>
      <trkpt lat="48.83932" lon="2.24945">
        <ele>95.6</ele>
        <time>2015-06-29T18:59:55.726Z</time>
      </trkpt>
      <trkpt lat="48.83932" lon="2.24937">
        <ele>95.7</ele>
        <time>2015-06-29T18:59:56.771Z</time>
      </trkpt>
      <trkpt lat="48.83932" lon="2.24929">
        <ele>95.9</ele>
        <time>2015-06-29T18:59:57.781Z</time>
      </trkpt>
      <trkpt lat="48.83933" lon="2.24921">
        <ele>95.9</ele>
        <time>2015-06-29T18:59:58.788Z</time>
      </trkpt>
      <trkpt lat="48.83934" lon="2.24914">
        <ele>96.1</ele>
        <time>2015-06-29T18:59:59.794Z</time>
      </trkpt>
      <trkpt lat="48.83935" lon="2.24908">
        <ele>96</ele>
        <time>2015-06-29T19:00:00.812Z</time>
      </trkpt>
      <trkpt lat="48.83937" lon="2.24901">
        <ele>96.1</ele>
        <time>2015-06-29T19:00:01.763Z</time>
      </trkpt>
      <trkpt lat="48.8394" lon="2.24894">
        <ele>96.1</ele>
        <time>2015-06-29T19:00:02.773Z</time>
      </trkpt>
      <trkpt lat="48.83938" lon="2.24885">
        <ele>97.1</ele>
        <time>2015-06-29T19:00:03.787Z</time>
      </trkpt>
      <trkpt lat="48.83939" lon="2.24878">
        <ele>96.7</ele>
        <time>2015-06-29T19:00:04.795Z</time>
      </trkpt>
      <trkpt lat="48.8394" lon="2.2487">
        <ele>96.5</ele>
        <time>2015-06-29T19:00:05.802Z</time>
      </trkpt>
      <trkpt lat="48.83943" lon="2.24863">
        <ele>95.7</ele>
        <time>2015-06-29T19:00:06.727Z</time>
      </trkpt>
      <trkpt lat="48.83946" lon="2.24856">
        <ele>95.4</ele>
        <time>2015-06-29T19:00:07.729Z</time>
      </trkpt>
      <trkpt lat="48.83949" lon="2.24848">
        <ele>95.3</ele>
        <time>2015-06-29T19:00:08.798Z</time>
      </trkpt>
      <trkpt lat="48.83952" lon="2.24842">
        <ele>95.2</ele>
        <time>2015-06-29T19:00:09.725Z</time>
      </trkpt>
      <trkpt lat="48.83953" lon="2.24835">
        <ele>95.4</ele>
        <time>2015-06-29T19:00:10.716Z</time>
      </trkpt>
      <trkpt lat="48.83953" lon="2.24827">
        <ele>95.5</ele>
        <time>2015-06-29T19:00:11.753Z</time>
      </trkpt>
      <trkpt lat="48.83957" lon="2.24821">
        <ele>96.3</ele>
        <time>2015-06-29T19:00:12.762Z</time>
      </trkpt>
      <trkpt lat="48.83959" lon="2.24814">
        <ele>96.7</ele>
        <time>2015-06-29T19:00:13.777Z</time>
      </trkpt>
      <trkpt lat="48.83962" lon="2.24808">
        <ele>97.4</ele>
        <time>2015-06-29T19:00:14.785Z</time>
      </trkpt>
      <trkpt lat="48.83964" lon="2.24801">
        <ele>97.7</ele>
        <time>2015-06-29T19:00:15.789Z</time>
      </trkpt>
      <trkpt lat="48.83966" lon="2.24793">
        <ele>97.4</ele>
        <time>2015-06-29T19:00:16.753Z</time>
      </trkpt>
      <trkpt lat="48.83967" lon="2.24786">
        <ele>97.3</ele>
        <time>2015-06-29T19:00:17.986Z</time>
      </trkpt>
      <trkpt lat="48.83968" lon="2.24779">
        <ele>97.2</ele>
        <time>2015-06-29T19:00:18.736Z</time>
      </trkpt>
      <trkpt lat="48.83969" lon="2.24772">
        <ele>97</ele>
        <time>2015-06-29T19:00:19.743Z</time>
      </trkpt>
      <trkpt lat="48.83971" lon="2.24765">
        <ele>96.8</ele>
        <time>2015-06-29T19:00:20.778Z</time>
      </trkpt>
      <trkpt lat="48.83972" lon="2.24757">
        <ele>96.1</ele>
        <time>2015-06-29T19:00:21.786Z</time>
      </trkpt>
      <trkpt lat="48.8397" lon="2.24749">
        <ele>96.5</ele>
        <time>2015-06-29T19:00:22.796Z</time>
      </trkpt>
      <trkpt lat="48.83971" lon="2.24742">
        <ele>96.4</ele>
        <time>2015-06-29T19:00:23.709Z</time>
      </trkpt>
      <trkpt lat="48.83973" lon="2.24731">
        <ele>96.5</ele>
        <time>2015-06-29T19:00:25.752Z</time>
      </trkpt>
      <trkpt lat="48.83975" lon="2.24726">
        <ele>96.6</ele>
        <time>2015-06-29T19:00:26.784Z</time>
      </trkpt>
      <trkpt lat="48.83971" lon="2.24719">
        <ele>97.6</ele>
        <time>2015-06-29T19:00:42.762Z</time>
      </trkpt>
      <trkpt lat="48.83971" lon="2.24713">
        <ele>97.4</ele>
        <time>2015-06-29T19:00:43.760Z</time>
      </trkpt>
      <trkpt lat="48.83974" lon="2.24701">
        <ele>97.2</ele>
        <time>2015-06-29T19:00:45.732Z</time>
      </trkpt>
      <trkpt lat="48.83976" lon="2.24695">
        <ele>96.6</ele>
        <time>2015-06-29T19:00:46.735Z</time>
      </trkpt>
      <trkpt lat="48.83978" lon="2.24687">
        <ele>96.1</ele>
        <time>2015-06-29T19:00:47.755Z</time>
      </trkpt>
      <trkpt lat="48.83979" lon="2.2468">
        <ele>95.9</ele>
        <time>2015-06-29T19:00:48.793Z</time>
      </trkpt>
      <trkpt lat="48.83982" lon="2.24672">
        <ele>95.7</ele>
        <time>2015-06-29T19:00:49.753Z</time>
      </trkpt>
      <trkpt lat="48.83981" lon="2.24664">
        <ele>96.4</ele>
        <time>2015-06-29T19:00:50.820Z</time>
      </trkpt>
      <trkpt lat="48.83983" lon="2.24657">
        <ele>96.4</ele>
        <time>2015-06-29T19:00:51.789Z</time>
      </trkpt>
      <trkpt lat="48.83985" lon="2.24649">
        <ele>96</ele>
        <time>2015-06-29T19:00:52.788Z</time>
      </trkpt>
      <trkpt lat="48.83987" lon="2.24641">
        <ele>95.9</ele>
        <time>2015-06-29T19:00:53.793Z</time>
      </trkpt>
      <trkpt lat="48.83989" lon="2.24633">
        <ele>95.6</ele>
        <time>2015-06-29T19:00:54.803Z</time>
      </trkpt>
      <trkpt lat="48.8399" lon="2.24626">
        <ele>95.5</ele>
        <time>2015-06-29T19:00:55.812Z</time>
      </trkpt>
      <trkpt lat="48.83992" lon="2.24619">
        <ele>95.5</ele>
        <time>2015-06-29T19:00:56.828Z</time>
      </trkpt>
      <trkpt lat="48.83993" lon="2.24612">
        <ele>95.7</ele>
        <time>2015-06-29T19:00:57.727Z</time>
      </trkpt>
      <trkpt lat="48.83995" lon="2.24605">
        <ele>95.6</ele>
        <time>2015-06-29T19:00:58.768Z</time>
      </trkpt>
      <trkpt lat="48.83996" lon="2.24598">
        <ele>95.4</ele>
        <time>2015-06-29T19:00:59.740Z</time>
      </trkpt>
      <trkpt lat="48.83997" lon="2.24591">
        <ele>95.2</ele>
        <time>2015-06-29T19:01:00.764Z</time>
      </trkpt>
      <trkpt lat="48.83999" lon="2.24583">
        <ele>95.2</ele>
        <time>2015-06-29T19:01:01.784Z</time>
      </trkpt>
      <trkpt lat="48.84001" lon="2.24576">
        <ele>95.2</ele>
        <time>2015-06-29T19:01:02.827Z</time>
      </trkpt>
      <trkpt lat="48.84" lon="2.24569">
        <ele>95.5</ele>
        <time>2015-06-29T19:01:03.707Z</time>
      </trkpt>
      <trkpt lat="48.84" lon="2.2456">
        <ele>96</ele>
        <time>2015-06-29T19:01:04.714Z</time>
      </trkpt>
      <trkpt lat="48.84002" lon="2.24552">
        <ele>96.1</ele>
        <time>2015-06-29T19:01:05.746Z</time>
      </trkpt>
      <trkpt lat="48.84003" lon="2.24544">
        <ele>96.2</ele>
        <time>2015-06-29T19:01:06.758Z</time>
      </trkpt>
      <trkpt lat="48.84005" lon="2.24537">
        <ele>96.3</ele>
        <time>2015-06-29T19:01:07.790Z</time>
      </trkpt>
      <trkpt lat="48.84005" lon="2.24529">
        <ele>96.2</ele>
        <time>2015-06-29T19:01:08.807Z</time>
      </trkpt>
      <trkpt lat="48.84005" lon="2.24522">
        <ele>96.4</ele>
        <time>2015-06-29T19:01:09.712Z</time>
      </trkpt>
      <trkpt lat="48.84004" lon="2.24515">
        <ele>96.8</ele>
        <time>2015-06-29T19:01:10.709Z</time>
      </trkpt>
      <trkpt lat="48.84008" lon="2.24505">
        <ele>97.4</ele>
        <time>2015-06-29T19:01:12.714Z</time>
      </trkpt>
      <trkpt lat="48.84009" lon="2.24501">
        <ele>97.6</ele>
        <time>2015-06-29T19:01:13.723Z</time>
      </trkpt>
      <trkpt lat="48.84014" lon="2.24493">
        <ele>97.8</ele>
        <time>2015-06-29T19:01:15.844Z</time>
      </trkpt>
      <trkpt lat="48.84015" lon="2.24489">
        <ele>97.8</ele>
        <time>2015-06-29T19:01:16.789Z</time>
      </trkpt>
      <trkpt lat="48.8402" lon="2.24479">
        <ele>98.4</ele>
        <time>2015-06-29T19:01:18.760Z</time>
      </trkpt>
      <trkpt lat="48.84021" lon="2.24473">
        <ele>98.7</ele>
        <time>2015-06-29T19:01:19.775Z</time>
      </trkpt>
      <trkpt lat="48.84023" lon="2.24466">
        <ele>98.8</ele>
        <time>2015-06-29T19:01:20.793Z</time>
      </trkpt>
      <trkpt lat="48.84025" lon="2.2446">
        <ele>99.1</ele>
        <time>2015-06-29T19:01:21.704Z</time>
      </trkpt>
      <trkpt lat="48.84028" lon="2.24454">
        <ele>99.3</ele>
        <time>2015-06-29T19:01:22.744Z</time>
      </trkpt>
      <trkpt lat="48.8403" lon="2.24448">
        <ele>99.9</ele>
        <time>2015-06-29T19:01:23.754Z</time>
      </trkpt>
      <trkpt lat="48.84031" lon="2.24439">
        <ele>100.2</ele>
        <time>2015-06-29T19:01:24.770Z</time>
      </trkpt>
      <trkpt lat="48.84034" lon="2.24432">
        <ele>100.2</ele>
        <time>2015-06-29T19:01:25.784Z</time>
      </trkpt>
      <trkpt lat="48.84038" lon="2.2442">
        <ele>100.9</ele>
        <time>2015-06-29T19:01:27.720Z</time>
      </trkpt>
      <trkpt lat="48.8404" lon="2.24414">
        <ele>100.9</ele>
        <time>2015-06-29T19:01:28.736Z</time>
      </trkpt>
      <trkpt lat="48.84041" lon="2.24402">
        <ele>101.3</ele>
        <time>2015-06-29T19:01:30.746Z</time>
      </trkpt>
      <trkpt lat="48.84041" lon="2.24396">
        <ele>101.6</ele>
        <time>2015-06-29T19:01:31.933Z</time>
      </trkpt>
      <trkpt lat="48.84041" lon="2.24384">
        <ele>100.5</ele>
        <time>2015-06-29T19:01:33.710Z</time>
      </trkpt>
      <trkpt lat="48.8404" lon="2.24378">
        <ele>99.5</ele>
        <time>2015-06-29T19:01:34.734Z</time>
      </trkpt>
      <trkpt lat="48.84043" lon="2.24367">
        <ele>98.9</ele>
        <time>2015-06-29T19:01:36.781Z</time>
      </trkpt>
      <trkpt lat="48.84044" lon="2.24361">
        <ele>98.2</ele>
        <time>2015-06-29T19:01:37.801Z</time>
      </trkpt>
      <trkpt lat="48.84044" lon="2.24348">
        <ele>96.8</ele>
        <time>2015-06-29T19:01:39.735Z</time>
      </trkpt>
      <trkpt lat="48.84042" lon="2.24341">
        <ele>95.7</ele>
        <time>2015-06-29T19:01:40.756Z</time>
      </trkpt>
      <trkpt lat="48.84043" lon="2.24332">
        <ele>95.3</ele>
        <time>2015-06-29T19:01:42.808Z</time>
      </trkpt>
      <trkpt lat="48.84043" lon="2.24326">
        <ele>95.1</ele>
        <time>2015-06-29T19:01:43.758Z</time>
      </trkpt>
      <trkpt lat="48.84044" lon="2.24315">
        <ele>96.1</ele>
        <time>2015-06-29T19:01:45.767Z</time>
      </trkpt>
      <trkpt lat="48.84045" lon="2.2431">
        <ele>95.6</ele>
        <time>2015-06-29T19:01:46.778Z</time>
      </trkpt>
      <trkpt lat="48.84048" lon="2.24298">
        <ele>96.2</ele>
        <time>2015-06-29T19:01:48.924Z</time>
      </trkpt>
      <trkpt lat="48.8405" lon="2.24292">
        <ele>96.2</ele>
        <time>2015-06-29T19:01:49.824Z</time>
      </trkpt>
      <trkpt lat="48.84053" lon="2.2428">
        <ele>95.9</ele>
        <time>2015-06-29T19:01:51.795Z</time>
      </trkpt>
      <trkpt lat="48.84055" lon="2.24275">
        <ele>95.8</ele>
        <time>2015-06-29T19:01:52.832Z</time>
      </trkpt>
      <trkpt lat="48.84056" lon="2.24268">
        <ele>95.9</ele>
        <time>2015-06-29T19:01:53.774Z</time>
      </trkpt>
      <trkpt lat="48.84057" lon="2.24262">
        <ele>95.6</ele>
        <time>2015-06-29T19:01:54.781Z</time>
      </trkpt>
      <trkpt lat="48.84058" lon="2.24254">
        <ele>95.5</ele>
        <time>2015-06-29T19:01:55.751Z</time>
      </trkpt>
      <trkpt lat="48.8406" lon="2.24248">
        <ele>95.5</ele>
        <time>2015-06-29T19:01:56.790Z</time>
      </trkpt>
      <trkpt lat="48.84063" lon="2.24237">
        <ele>95</ele>
        <time>2015-06-29T19:01:58.810Z</time>
      </trkpt>
      <trkpt lat="48.84065" lon="2.24231">
        <ele>94.7</ele>
        <time>2015-06-29T19:01:59.718Z</time>
      </trkpt>
      <trkpt lat="48.84067" lon="2.24226">
        <ele>94.5</ele>
        <time>2015-06-29T19:02:00.906Z</time>
      </trkpt>
      <trkpt lat="48.84071" lon="2.24221">
        <ele>94.7</ele>
        <time>2015-06-29T19:02:01.808Z</time>
      </trkpt>
      <trkpt lat="48.84072" lon="2.24214">
        <ele>94.5</ele>
        <time>2015-06-29T19:02:02.834Z</time>
      </trkpt>
      <trkpt lat="48.84074" lon="2.24208">
        <ele>94.7</ele>
        <time>2015-06-29T19:02:03.728Z</time>
      </trkpt>
      <trkpt lat="48.84078" lon="2.24196">
        <ele>94.5</ele>
        <time>2015-06-29T19:02:05.760Z</time>
      </trkpt>
      <trkpt lat="48.84081" lon="2.24191">
        <ele>94.4</ele>
        <time>2015-06-29T19:02:06.770Z</time>
      </trkpt>
      <trkpt lat="48.84084" lon="2.24179">
        <ele>94.2</ele>
        <time>2015-06-29T19:02:08.791Z</time>
      </trkpt>
      <trkpt lat="48.84086" lon="2.24173">
        <ele>94.1</ele>
        <time>2015-06-29T19:02:09.723Z</time>
      </trkpt>
      <trkpt lat="48.84088" lon="2.24166">
        <ele>94</ele>
        <time>2015-06-29T19:02:10.715Z</time>
      </trkpt>
      <trkpt lat="48.8409" lon="2.24159">
        <ele>94.2</ele>
        <time>2015-06-29T19:02:11.726Z</time>
      </trkpt>
      <trkpt lat="48.84091" lon="2.24152">
        <ele>94.2</ele>
        <time>2015-06-29T19:02:12.742Z</time>
      </trkpt>
      <trkpt lat="48.84093" lon="2.24145">
        <ele>94</ele>
        <time>2015-06-29T19:02:13.753Z</time>
      </trkpt>
      <trkpt lat="48.84095" lon="2.24138">
        <ele>93.8</ele>
        <time>2015-06-29T19:02:14.789Z</time>
      </trkpt>
      <trkpt lat="48.84098" lon="2.24132">
        <ele>93.7</ele>
        <time>2015-06-29T19:02:15.805Z</time>
      </trkpt>
      <trkpt lat="48.841" lon="2.24125">
        <ele>93.5</ele>
        <time>2015-06-29T19:02:16.711Z</time>
      </trkpt>
      <trkpt lat="48.84101" lon="2.24117">
        <ele>93.5</ele>
        <time>2015-06-29T19:02:17.722Z</time>
      </trkpt>
      <trkpt lat="48.84101" lon="2.24109">
        <ele>93.4</ele>
        <time>2015-06-29T19:02:18.730Z</time>
      </trkpt>
      <trkpt lat="48.84102" lon="2.24101">
        <ele>93.4</ele>
        <time>2015-06-29T19:02:19.736Z</time>
      </trkpt>
      <trkpt lat="48.84104" lon="2.24094">
        <ele>93.1</ele>
        <time>2015-06-29T19:02:20.776Z</time>
      </trkpt>
      <trkpt lat="48.84106" lon="2.24085">
        <ele>92.9</ele>
        <time>2015-06-29T19:02:21.767Z</time>
      </trkpt>
      <trkpt lat="48.84108" lon="2.24077">
        <ele>92.6</ele>
        <time>2015-06-29T19:02:22.701Z</time>
      </trkpt>
      <trkpt lat="48.8411" lon="2.24068">
        <ele>92.4</ele>
        <time>2015-06-29T19:02:23.763Z</time>
      </trkpt>
      <trkpt lat="48.84112" lon="2.24061">
        <ele>92.3</ele>
        <time>2015-06-29T19:02:24.776Z</time>
      </trkpt>
      <trkpt lat="48.84115" lon="2.24053">
        <ele>92.2</ele>
        <time>2015-06-29T19:02:25.781Z</time>
      </trkpt>
      <trkpt lat="48.84116" lon="2.24046">
        <ele>91.5</ele>
        <time>2015-06-29T19:02:26.799Z</time>
      </trkpt>
      <trkpt lat="48.84118" lon="2.24038">
        <ele>91.1</ele>
        <time>2015-06-29T19:02:27.921Z</time>
      </trkpt>
      <trkpt lat="48.84117" lon="2.2403">
        <ele>91.2</ele>
        <time>2015-06-29T19:02:28.765Z</time>
      </trkpt>
      <trkpt lat="48.84118" lon="2.24023">
        <ele>91.3</ele>
        <time>2015-06-29T19:02:29.780Z</time>
      </trkpt>
      <trkpt lat="48.84119" lon="2.24016">
        <ele>91.2</ele>
        <time>2015-06-29T19:02:30.794Z</time>
      </trkpt>
      <trkpt lat="48.8412" lon="2.24009">
        <ele>91.2</ele>
        <time>2015-06-29T19:02:31.805Z</time>
      </trkpt>
      <trkpt lat="48.84123" lon="2.23996">
        <ele>90.8</ele>
        <time>2015-06-29T19:02:33.730Z</time>
      </trkpt>
      <trkpt lat="48.84124" lon="2.2399">
        <ele>90.7</ele>
        <time>2015-06-29T19:02:34.750Z</time>
      </trkpt>
      <trkpt lat="48.84128" lon="2.2398">
        <ele>90.5</ele>
        <time>2015-06-29T19:02:36.797Z</time>
      </trkpt>
      <trkpt lat="48.84132" lon="2.23976">
        <ele>90.9</ele>
        <time>2015-06-29T19:02:37.909Z</time>
      </trkpt>
      <trkpt lat="48.84136" lon="2.23964">
        <ele>91</ele>
        <time>2015-06-29T19:02:39.771Z</time>
      </trkpt>
      <trkpt lat="48.84137" lon="2.23957">
        <ele>91</ele>
        <time>2015-06-29T19:02:40.787Z</time>
      </trkpt>
      <trkpt lat="48.84137" lon="2.23944">
        <ele>90.2</ele>
        <time>2015-06-29T19:02:42.730Z</time>
      </trkpt>
      <trkpt lat="48.84136" lon="2.23938">
        <ele>90.2</ele>
        <time>2015-06-29T19:02:43.748Z</time>
      </trkpt>
      <trkpt lat="48.84137" lon="2.23931">
        <ele>90</ele>
        <time>2015-06-29T19:02:44.776Z</time>
      </trkpt>
      <trkpt lat="48.84136" lon="2.23923">
        <ele>90.5</ele>
        <time>2015-06-29T19:02:45.788Z</time>
      </trkpt>
      <trkpt lat="48.84138" lon="2.23911">
        <ele>91.2</ele>
        <time>2015-06-29T19:02:47.734Z</time>
      </trkpt>
      <trkpt lat="48.8414" lon="2.23906">
        <ele>91.4</ele>
        <time>2015-06-29T19:02:48.730Z</time>
      </trkpt>
      <trkpt lat="48.84147" lon="2.23897">
        <ele>92.2</ele>
        <time>2015-06-29T19:02:51.795Z</time>
      </trkpt>
      <trkpt lat="48.84149" lon="2.23896">
        <ele>92.6</ele>
        <time>2015-06-29T19:02:52.800Z</time>
      </trkpt>
      <trkpt lat="48.84157" lon="2.23894">
        <ele>93.7</ele>
        <time>2015-06-29T19:02:55.752Z</time>
      </trkpt>
      <trkpt lat="48.84159" lon="2.23894">
        <ele>94</ele>
        <time>2015-06-29T19:02:56.775Z</time>
      </trkpt>
      <trkpt lat="48.84165" lon="2.23891">
        <ele>94.4</ele>
        <time>2015-06-29T19:02:58.795Z</time>
      </trkpt>
      <trkpt lat="48.84169" lon="2.23889">
        <ele>94.4</ele>
        <time>2015-06-29T19:02:59.812Z</time>
      </trkpt>
      <trkpt lat="48.84173" lon="2.23887">
        <ele>94.2</ele>
        <time>2015-06-29T19:03:00.703Z</time>
      </trkpt>
      <trkpt lat="48.84178" lon="2.23885">
        <ele>93.7</ele>
        <time>2015-06-29T19:03:01.735Z</time>
      </trkpt>
      <trkpt lat="48.84182" lon="2.23881">
        <ele>93.3</ele>
        <time>2015-06-29T19:03:02.786Z</time>
      </trkpt>
      <trkpt lat="48.84187" lon="2.23877">
        <ele>93.1</ele>
        <time>2015-06-29T19:03:03.799Z</time>
      </trkpt>
      <trkpt lat="48.84195" lon="2.23874">
        <ele>93.2</ele>
        <time>2015-06-29T19:03:05.806Z</time>
      </trkpt>
      <trkpt lat="48.842" lon="2.23873">
        <ele>93.2</ele>
        <time>2015-06-29T19:03:06.817Z</time>
      </trkpt>
      <trkpt lat="48.84204" lon="2.23871">
        <ele>93.5</ele>
        <time>2015-06-29T19:03:07.723Z</time>
      </trkpt>
      <trkpt lat="48.84209" lon="2.23868">
        <ele>93.8</ele>
        <time>2015-06-29T19:03:08.788Z</time>
      </trkpt>
      <trkpt lat="48.84213" lon="2.23865">
        <ele>94.1</ele>
        <time>2015-06-29T19:03:09.807Z</time>
      </trkpt>
      <trkpt lat="48.84218" lon="2.23864">
        <ele>94.3</ele>
        <time>2015-06-29T19:03:10.716Z</time>
      </trkpt>
      <trkpt lat="48.84223" lon="2.23862">
        <ele>94.4</ele>
        <time>2015-06-29T19:03:11.724Z</time>
      </trkpt>
      <trkpt lat="48.84228" lon="2.2386">
        <ele>94.5</ele>
        <time>2015-06-29T19:03:12.741Z</time>
      </trkpt>
      <trkpt lat="48.84234" lon="2.23858">
        <ele>94.7</ele>
        <time>2015-06-29T19:03:13.745Z</time>
      </trkpt>
      <trkpt lat="48.84239" lon="2.23856">
        <ele>94.8</ele>
        <time>2015-06-29T19:03:14.786Z</time>
      </trkpt>
      <trkpt lat="48.84244" lon="2.23853">
        <ele>94.8</ele>
        <time>2015-06-29T19:03:15.790Z</time>
      </trkpt>
      <trkpt lat="48.84249" lon="2.2385">
        <ele>94.9</ele>
        <time>2015-06-29T19:03:16.788Z</time>
      </trkpt>
      <trkpt lat="48.84253" lon="2.23846">
        <ele>94.9</ele>
        <time>2015-06-29T19:03:17.800Z</time>
      </trkpt>
      <trkpt lat="48.84257" lon="2.23842">
        <ele>95.1</ele>
        <time>2015-06-29T19:03:18.710Z</time>
      </trkpt>
      <trkpt lat="48.84264" lon="2.23836">
        <ele>95.4</ele>
        <time>2015-06-29T19:03:20.746Z</time>
      </trkpt>
      <trkpt lat="48.84267" lon="2.23833">
        <ele>95.7</ele>
        <time>2015-06-29T19:03:21.744Z</time>
      </trkpt>
      <trkpt lat="48.84275" lon="2.23829">
        <ele>96.1</ele>
        <time>2015-06-29T19:03:23.713Z</time>
      </trkpt>
      <trkpt lat="48.84278" lon="2.23826">
        <ele>96.2</ele>
        <time>2015-06-29T19:03:24.718Z</time>
      </trkpt>
      <trkpt lat="48.84285" lon="2.23821">
        <ele>96.4</ele>
        <time>2015-06-29T19:03:26.744Z</time>
      </trkpt>
      <trkpt lat="48.84291" lon="2.2382">
        <ele>96.6</ele>
        <time>2015-06-29T19:03:27.771Z</time>
      </trkpt>
      <trkpt lat="48.84298" lon="2.2382">
        <ele>96.7</ele>
        <time>2015-06-29T19:03:28.790Z</time>
      </trkpt>
      <trkpt lat="48.84303" lon="2.23819">
        <ele>96.8</ele>
        <time>2015-06-29T19:03:29.699Z</time>
      </trkpt>
      <trkpt lat="48.84309" lon="2.23818">
        <ele>96.9</ele>
        <time>2015-06-29T19:03:30.727Z</time>
      </trkpt>
      <trkpt lat="48.84316" lon="2.23815">
        <ele>97.3</ele>
        <time>2015-06-29T19:03:31.755Z</time>
      </trkpt>
      <trkpt lat="48.84323" lon="2.23811">
        <ele>97.5</ele>
        <time>2015-06-29T19:03:32.782Z</time>
      </trkpt>
      <trkpt lat="48.84331" lon="2.238">
        <ele>97.2</ele>
        <time>2015-06-29T19:03:33.783Z</time>
      </trkpt>
      <trkpt lat="48.84338" lon="2.23795">
        <ele>97</ele>
        <time>2015-06-29T19:03:35.711Z</time>
      </trkpt>
      <trkpt lat="48.84344" lon="2.23796">
        <ele>97.2</ele>
        <time>2015-06-29T19:03:36.752Z</time>
      </trkpt>
      <trkpt lat="48.8435" lon="2.23798">
        <ele>97.5</ele>
        <time>2015-06-29T19:03:37.717Z</time>
      </trkpt>
      <trkpt lat="48.84355" lon="2.23801">
        <ele>98</ele>
        <time>2015-06-29T19:03:38.760Z</time>
      </trkpt>
      <trkpt lat="48.84361" lon="2.23807">
        <ele>98</ele>
        <time>2015-06-29T19:03:40.781Z</time>
      </trkpt>
      <trkpt lat="48.84362" lon="2.23811">
        <ele>98.4</ele>
        <time>2015-06-29T19:03:41.788Z</time>
      </trkpt>
      <trkpt lat="48.84363" lon="2.23823">
        <ele>98.3</ele>
        <time>2015-06-29T19:03:43.730Z</time>
      </trkpt>
      <trkpt lat="48.84366" lon="2.23829">
        <ele>98.3</ele>
        <time>2015-06-29T19:03:44.787Z</time>
      </trkpt>
      <trkpt lat="48.84372" lon="2.23836">
        <ele>98.2</ele>
        <time>2015-06-29T19:03:45.697Z</time>
      </trkpt>
      <trkpt lat="48.84376" lon="2.23842">
        <ele>98</ele>
        <time>2015-06-29T19:03:46.711Z</time>
      </trkpt>
      <trkpt lat="48.84379" lon="2.23851">
        <ele>98</ele>
        <time>2015-06-29T19:03:48.742Z</time>
      </trkpt>
      <trkpt lat="48.8438" lon="2.23857">
        <ele>98.2</ele>
        <time>2015-06-29T19:03:49.744Z</time>
      </trkpt>
      <trkpt lat="48.84381" lon="2.23866">
        <ele>98.5</ele>
        <time>2015-06-29T19:03:51.993Z</time>
      </trkpt>
      <trkpt lat="48.84381" lon="2.23872">
        <ele>98.7</ele>
        <time>2015-06-29T19:03:52.685Z</time>
      </trkpt>
      <trkpt lat="48.8438" lon="2.23884">
        <ele>99.8</ele>
        <time>2015-06-29T19:03:54.722Z</time>
      </trkpt>
      <trkpt lat="48.84379" lon="2.2389">
        <ele>99.9</ele>
        <time>2015-06-29T19:03:55.744Z</time>
      </trkpt>
      <trkpt lat="48.84378" lon="2.23902">
        <ele>100</ele>
        <time>2015-06-29T19:03:57.747Z</time>
      </trkpt>
      <trkpt lat="48.84377" lon="2.23908">
        <ele>99.8</ele>
        <time>2015-06-29T19:03:58.812Z</time>
      </trkpt>
      <trkpt lat="48.84376" lon="2.23915">
        <ele>100</ele>
        <time>2015-06-29T19:03:59.696Z</time>
      </trkpt>
      <trkpt lat="48.84375" lon="2.23922">
        <ele>99.8</ele>
        <time>2015-06-29T19:04:00.794Z</time>
      </trkpt>
      <trkpt lat="48.84376" lon="2.23933">
        <ele>99.9</ele>
        <time>2015-06-29T19:04:02.818Z</time>
      </trkpt>
      <trkpt lat="48.84377" lon="2.23937">
        <ele>100.3</ele>
        <time>2015-06-29T19:04:03.818Z</time>
      </trkpt>
      <trkpt lat="48.84379" lon="2.23944">
        <ele>100.9</ele>
        <time>2015-06-29T19:04:06.772Z</time>
      </trkpt>
      <trkpt lat="48.84382" lon="2.2395">
        <ele>101</ele>
        <time>2015-06-29T19:04:07.725Z</time>
      </trkpt>
      <trkpt lat="48.84386" lon="2.23957">
        <ele>99.8</ele>
        <time>2015-06-29T19:04:08.782Z</time>
      </trkpt>
      <trkpt lat="48.8439" lon="2.23962">
        <ele>98.9</ele>
        <time>2015-06-29T19:04:09.785Z</time>
      </trkpt>
      <trkpt lat="48.84394" lon="2.23971">
        <ele>97.7</ele>
        <time>2015-06-29T19:04:11.807Z</time>
      </trkpt>
      <trkpt lat="48.84395" lon="2.23975">
        <ele>97.9</ele>
        <time>2015-06-29T19:04:12.800Z</time>
      </trkpt>
      <trkpt lat="48.84398" lon="2.23986">
        <ele>98.8</ele>
        <time>2015-06-29T19:04:16.728Z</time>
      </trkpt>
      <trkpt lat="48.84399" lon="2.2399">
        <ele>98.8</ele>
        <time>2015-06-29T19:04:17.726Z</time>
      </trkpt>
      <trkpt lat="48.84403" lon="2.24">
        <ele>98.4</ele>
        <time>2015-06-29T19:04:20.857Z</time>
      </trkpt>
      <trkpt lat="48.84406" lon="2.24004">
        <ele>98.1</ele>
        <time>2015-06-29T19:04:21.747Z</time>
      </trkpt>
      <trkpt lat="48.84414" lon="2.24011">
        <ele>97.6</ele>
        <time>2015-06-29T19:04:23.723Z</time>
      </trkpt>
      <trkpt lat="48.84419" lon="2.24016">
        <ele>96.9</ele>
        <time>2015-06-29T19:04:24.745Z</time>
      </trkpt>
      <trkpt lat="48.84423" lon="2.24021">
        <ele>96.8</ele>
        <time>2015-06-29T19:04:25.754Z</time>
      </trkpt>
      <trkpt lat="48.84426" lon="2.24024">
        <ele>96.8</ele>
        <time>2015-06-29T19:04:26.773Z</time>
      </trkpt>
      <trkpt lat="48.84434" lon="2.24031">
        <ele>97.1</ele>
        <time>2015-06-29T19:04:28.771Z</time>
      </trkpt>
      <trkpt lat="48.84438" lon="2.24035">
        <ele>97.3</ele>
        <time>2015-06-29T19:04:29.786Z</time>
      </trkpt>
      <trkpt lat="48.84444" lon="2.24044">
        <ele>97.4</ele>
        <time>2015-06-29T19:04:31.736Z</time>
      </trkpt>
      <trkpt lat="48.84447" lon="2.24047">
        <ele>97.2</ele>
        <time>2015-06-29T19:04:32.834Z</time>
      </trkpt>
      <trkpt lat="48.84454" lon="2.2405">
        <ele>97.9</ele>
        <time>2015-06-29T19:04:34.693Z</time>
      </trkpt>
      <trkpt lat="48.84458" lon="2.24049">
        <ele>98</ele>
        <time>2015-06-29T19:04:35.732Z</time>
      </trkpt>
      <trkpt lat="48.84462" lon="2.24051">
        <ele>98.2</ele>
        <time>2015-06-29T19:04:36.732Z</time>
      </trkpt>
      <trkpt lat="48.84468" lon="2.24052">
        <ele>98.6</ele>
        <time>2015-06-29T19:04:37.746Z</time>
      </trkpt>
      <trkpt lat="48.84473" lon="2.24053">
        <ele>99.3</ele>
        <time>2015-06-29T19:04:38.771Z</time>
      </trkpt>
      <trkpt lat="48.84478" lon="2.24053">
        <ele>100.1</ele>
        <time>2015-06-29T19:04:39.770Z</time>
      </trkpt>
      <trkpt lat="48.84484" lon="2.24054">
        <ele>100.9</ele>
        <time>2015-06-29T19:04:40.872Z</time>
      </trkpt>
      <trkpt lat="48.84489" lon="2.24056">
        <ele>101.6</ele>
        <time>2015-06-29T19:04:41.790Z</time>
      </trkpt>
      <trkpt lat="48.84493" lon="2.24056">
        <ele>102.1</ele>
        <time>2015-06-29T19:04:42.796Z</time>
      </trkpt>
      <trkpt lat="48.84498" lon="2.24056">
        <ele>102.7</ele>
        <time>2015-06-29T19:04:43.733Z</time>
      </trkpt>
      <trkpt lat="48.84503" lon="2.24056">
        <ele>103</ele>
        <time>2015-06-29T19:04:44.765Z</time>
      </trkpt>
      <trkpt lat="48.84508" lon="2.24057">
        <ele>103</ele>
        <time>2015-06-29T19:04:45.766Z</time>
      </trkpt>
      <trkpt lat="48.84514" lon="2.24059">
        <ele>103</ele>
        <time>2015-06-29T19:04:46.714Z</time>
      </trkpt>
      <trkpt lat="48.8452" lon="2.24061">
        <ele>103</ele>
        <time>2015-06-29T19:04:47.723Z</time>
      </trkpt>
      <trkpt lat="48.84525" lon="2.24063">
        <ele>103.2</ele>
        <time>2015-06-29T19:04:48.731Z</time>
      </trkpt>
      <trkpt lat="48.84529" lon="2.24063">
        <ele>103.4</ele>
        <time>2015-06-29T19:04:49.743Z</time>
      </trkpt>
      <trkpt lat="48.84534" lon="2.24064">
        <ele>103.2</ele>
        <time>2015-06-29T19:04:50.769Z</time>
      </trkpt>
      <trkpt lat="48.84539" lon="2.24066">
        <ele>102.9</ele>
        <time>2015-06-29T19:04:51.782Z</time>
      </trkpt>
      <trkpt lat="48.84544" lon="2.24067">
        <ele>102.6</ele>
        <time>2015-06-29T19:04:52.797Z</time>
      </trkpt>
      <trkpt lat="48.84549" lon="2.2407">
        <ele>102.3</ele>
        <time>2015-06-29T19:04:53.685Z</time>
      </trkpt>
      <trkpt lat="48.84554" lon="2.24071">
        <ele>102</ele>
        <time>2015-06-29T19:04:54.712Z</time>
      </trkpt>
      <trkpt lat="48.8456" lon="2.24074">
        <ele>101.7</ele>
        <time>2015-06-29T19:04:55.717Z</time>
      </trkpt>
      <trkpt lat="48.84567" lon="2.24076">
        <ele>100.7</ele>
        <time>2015-06-29T19:04:56.773Z</time>
      </trkpt>
      <trkpt lat="48.84573" lon="2.2408">
        <ele>99.2</ele>
        <time>2015-06-29T19:04:57.771Z</time>
      </trkpt>
      <trkpt lat="48.84578" lon="2.24081">
        <ele>98.6</ele>
        <time>2015-06-29T19:04:58.784Z</time>
      </trkpt>
      <trkpt lat="48.84583" lon="2.24082">
        <ele>98.1</ele>
        <time>2015-06-29T19:04:59.783Z</time>
      </trkpt>
      <trkpt lat="48.84588" lon="2.24083">
        <ele>98.2</ele>
        <time>2015-06-29T19:05:00.799Z</time>
      </trkpt>
      <trkpt lat="48.84592" lon="2.24084">
        <ele>98.3</ele>
        <time>2015-06-29T19:05:01.804Z</time>
      </trkpt>
      <trkpt lat="48.846" lon="2.24087">
        <ele>98.1</ele>
        <time>2015-06-29T19:05:03.710Z</time>
      </trkpt>
      <trkpt lat="48.84605" lon="2.24088">
        <ele>98</ele>
        <time>2015-06-29T19:05:04.860Z</time>
      </trkpt>
      <trkpt lat="48.84609" lon="2.2409">
        <ele>98</ele>
        <time>2015-06-29T19:05:05.742Z</time>
      </trkpt>
      <trkpt lat="48.84613" lon="2.24093">
        <ele>98.2</ele>
        <time>2015-06-29T19:05:06.745Z</time>
      </trkpt>
      <trkpt lat="48.84619" lon="2.24096">
        <ele>97.8</ele>
        <time>2015-06-29T19:05:07.773Z</time>
      </trkpt>
      <trkpt lat="48.84624" lon="2.24099">
        <ele>97.7</ele>
        <time>2015-06-29T19:05:08.797Z</time>
      </trkpt>
      <trkpt lat="48.84629" lon="2.24101">
        <ele>97.5</ele>
        <time>2015-06-29T19:05:09.723Z</time>
      </trkpt>
      <trkpt lat="48.84634" lon="2.24104">
        <ele>97.2</ele>
        <time>2015-06-29T19:05:10.741Z</time>
      </trkpt>
      <trkpt lat="48.8464" lon="2.24106">
        <ele>97.3</ele>
        <time>2015-06-29T19:05:11.753Z</time>
      </trkpt>
      <trkpt lat="48.84645" lon="2.24109">
        <ele>97.1</ele>
        <time>2015-06-29T19:05:12.765Z</time>
      </trkpt>
      <trkpt lat="48.84651" lon="2.24113">
        <ele>96.4</ele>
        <time>2015-06-29T19:05:13.775Z</time>
      </trkpt>
      <trkpt lat="48.84658" lon="2.24116">
        <ele>95</ele>
        <time>2015-06-29T19:05:14.783Z</time>
      </trkpt>
      <trkpt lat="48.84665" lon="2.2412">
        <ele>94.4</ele>
        <time>2015-06-29T19:05:15.784Z</time>
      </trkpt>
      <trkpt lat="48.84672" lon="2.24124">
        <ele>93.6</ele>
        <time>2015-06-29T19:05:16.806Z</time>
      </trkpt>
      <trkpt lat="48.84678" lon="2.24128">
        <ele>93.2</ele>
        <time>2015-06-29T19:05:17.724Z</time>
      </trkpt>
      <trkpt lat="48.84682" lon="2.24135">
        <ele>92.8</ele>
        <time>2015-06-29T19:05:18.694Z</time>
      </trkpt>
      <trkpt lat="48.84685" lon="2.24142">
        <ele>92.9</ele>
        <time>2015-06-29T19:05:19.715Z</time>
      </trkpt>
      <trkpt lat="48.84689" lon="2.24147">
        <ele>92.3</ele>
        <time>2015-06-29T19:05:20.728Z</time>
      </trkpt>
      <trkpt lat="48.84693" lon="2.24153">
        <ele>91.7</ele>
        <time>2015-06-29T19:05:21.738Z</time>
      </trkpt>
      <trkpt lat="48.84697" lon="2.24159">
        <ele>91.2</ele>
        <time>2015-06-29T19:05:22.746Z</time>
      </trkpt>
      <trkpt lat="48.84702" lon="2.24168">
        <ele>90.4</ele>
        <time>2015-06-29T19:05:24.780Z</time>
      </trkpt>
      <trkpt lat="48.84704" lon="2.24173">
        <ele>90.6</ele>
        <time>2015-06-29T19:05:25.691Z</time>
      </trkpt>
      <trkpt lat="48.8471" lon="2.24182">
        <ele>90.3</ele>
        <time>2015-06-29T19:05:29.791Z</time>
      </trkpt>
      <trkpt lat="48.84712" lon="2.24183">
        <ele>90.8</ele>
        <time>2015-06-29T19:05:30.799Z</time>
      </trkpt>
      <trkpt lat="48.84716" lon="2.24182">
        <ele>91.4</ele>
        <time>2015-06-29T19:05:31.728Z</time>
      </trkpt>
      <trkpt lat="48.84721" lon="2.24184">
        <ele>91.4</ele>
        <time>2015-06-29T19:05:32.796Z</time>
      </trkpt>
      <trkpt lat="48.84726" lon="2.24184">
        <ele>92.1</ele>
        <time>2015-06-29T19:05:33.699Z</time>
      </trkpt>
      <trkpt lat="48.84731" lon="2.24183">
        <ele>92.5</ele>
        <time>2015-06-29T19:05:34.695Z</time>
      </trkpt>
      <trkpt lat="48.8474" lon="2.24186">
        <ele>92.6</ele>
        <time>2015-06-29T19:05:36.717Z</time>
      </trkpt>
      <trkpt lat="48.84744" lon="2.24188">
        <ele>92.5</ele>
        <time>2015-06-29T19:05:37.884Z</time>
      </trkpt>
      <trkpt lat="48.84752" lon="2.24191">
        <ele>92.5</ele>
        <time>2015-06-29T19:05:39.782Z</time>
      </trkpt>
      <trkpt lat="48.84756" lon="2.24192">
        <ele>92</ele>
        <time>2015-06-29T19:05:40.763Z</time>
      </trkpt>
      <trkpt lat="48.84762" lon="2.24193">
        <ele>91.9</ele>
        <time>2015-06-29T19:05:42.711Z</time>
      </trkpt>
      <trkpt lat="48.84765" lon="2.24193">
        <ele>92.2</ele>
        <time>2015-06-29T19:05:43.788Z</time>
      </trkpt>
      <trkpt lat="48.84772" lon="2.24193">
        <ele>91.8</ele>
        <time>2015-06-29T19:06:14.809Z</time>
      </trkpt>
      <trkpt lat="48.84782" lon="2.24201">
        <ele>87.6</ele>
        <time>2015-06-29T19:06:15.761Z</time>
      </trkpt>
      <trkpt lat="48.84784" lon="2.24211">
        <ele>86.8</ele>
        <time>2015-06-29T19:06:17.746Z</time>
      </trkpt>
      <trkpt lat="48.84785" lon="2.24216">
        <ele>86.7</ele>
        <time>2015-06-29T19:06:18.820Z</time>
      </trkpt>
      <trkpt lat="48.84788" lon="2.24227">
        <ele>86</ele>
        <time>2015-06-29T19:06:20.810Z</time>
      </trkpt>
      <trkpt lat="48.84789" lon="2.24233">
        <ele>85.7</ele>
        <time>2015-06-29T19:06:21.764Z</time>
      </trkpt>
      <trkpt lat="48.84793" lon="2.24245">
        <ele>85.6</ele>
        <time>2015-06-29T19:06:23.723Z</time>
      </trkpt>
      <trkpt lat="48.84796" lon="2.24251">
        <ele>85.3</ele>
        <time>2015-06-29T19:06:24.846Z</time>
      </trkpt>
      <trkpt lat="48.84799" lon="2.24256">
        <ele>85.2</ele>
        <time>2015-06-29T19:06:25.759Z</time>
      </trkpt>
      <trkpt lat="48.84802" lon="2.24261">
        <ele>85.3</ele>
        <time>2015-06-29T19:06:26.809Z</time>
      </trkpt>
      <trkpt lat="48.84809" lon="2.2427">
        <ele>86</ele>
        <time>2015-06-29T19:06:28.738Z</time>
      </trkpt>
      <trkpt lat="48.84813" lon="2.24273">
        <ele>86.2</ele>
        <time>2015-06-29T19:06:29.767Z</time>
      </trkpt>
      <trkpt lat="48.84821" lon="2.24278">
        <ele>86.2</ele>
        <time>2015-06-29T19:06:31.734Z</time>
      </trkpt>
      <trkpt lat="48.84825" lon="2.24278">
        <ele>86.4</ele>
        <time>2015-06-29T19:06:32.797Z</time>
      </trkpt>
      <trkpt lat="48.8483" lon="2.24278">
        <ele>86.2</ele>
        <time>2015-06-29T19:06:33.795Z</time>
      </trkpt>
      <trkpt lat="48.84834" lon="2.24276">
        <ele>86.3</ele>
        <time>2015-06-29T19:06:34.714Z</time>
      </trkpt>
      <trkpt lat="48.84842" lon="2.24273">
        <ele>86.3</ele>
        <time>2015-06-29T19:06:36.739Z</time>
      </trkpt>
      <trkpt lat="48.84845" lon="2.24273">
        <ele>86.2</ele>
        <time>2015-06-29T19:06:37.753Z</time>
      </trkpt>
      <trkpt lat="48.84851" lon="2.24276">
        <ele>86.3</ele>
        <time>2015-06-29T19:06:39.789Z</time>
      </trkpt>
      <trkpt lat="48.84854" lon="2.24277">
        <ele>86.5</ele>
        <time>2015-06-29T19:06:40.807Z</time>
      </trkpt>
      <trkpt lat="48.8486" lon="2.24281">
        <ele>86.5</ele>
        <time>2015-06-29T19:06:43.797Z</time>
      </trkpt>
      <trkpt lat="48.84862" lon="2.24282">
        <ele>86.5</ele>
        <time>2015-06-29T19:06:44.814Z</time>
      </trkpt>
      <trkpt lat="48.84869" lon="2.24289">
        <ele>86.5</ele>
        <time>2015-06-29T19:06:47.747Z</time>
      </trkpt>
      <trkpt lat="48.84873" lon="2.24292">
        <ele>86.2</ele>
        <time>2015-06-29T19:06:48.701Z</time>
      </trkpt>
      <trkpt lat="48.84878" lon="2.24296">
        <ele>85.9</ele>
        <time>2015-06-29T19:06:50.786Z</time>
      </trkpt>
      <trkpt lat="48.84881" lon="2.24298">
        <ele>86</ele>
        <time>2015-06-29T19:06:51.788Z</time>
      </trkpt>
      <trkpt lat="48.84888" lon="2.24303">
        <ele>86.5</ele>
        <time>2015-06-29T19:06:53.736Z</time>
      </trkpt>
      <trkpt lat="48.84891" lon="2.24305">
        <ele>86.4</ele>
        <time>2015-06-29T19:06:54.752Z</time>
      </trkpt>
      <trkpt lat="48.84897" lon="2.24312">
        <ele>86.7</ele>
        <time>2015-06-29T19:06:56.789Z</time>
      </trkpt>
      <trkpt lat="48.849" lon="2.24316">
        <ele>87.1</ele>
        <time>2015-06-29T19:06:57.807Z</time>
      </trkpt>
      <trkpt lat="48.84904" lon="2.24322">
        <ele>87.5</ele>
        <time>2015-06-29T19:06:59.720Z</time>
      </trkpt>
      <trkpt lat="48.84908" lon="2.24325">
        <ele>87.7</ele>
        <time>2015-06-29T19:07:00.732Z</time>
      </trkpt>
      <trkpt lat="48.84914" lon="2.24331">
        <ele>88.1</ele>
        <time>2015-06-29T19:07:02.755Z</time>
      </trkpt>
      <trkpt lat="48.84918" lon="2.24333">
        <ele>88.5</ele>
        <time>2015-06-29T19:07:03.758Z</time>
      </trkpt>
      <trkpt lat="48.84924" lon="2.24339">
        <ele>89.1</ele>
        <time>2015-06-29T19:07:05.733Z</time>
      </trkpt>
      <trkpt lat="48.84927" lon="2.24341">
        <ele>89.2</ele>
        <time>2015-06-29T19:07:06.739Z</time>
      </trkpt>
      <trkpt lat="48.84933" lon="2.24347">
        <ele>89.8</ele>
        <time>2015-06-29T19:07:08.786Z</time>
      </trkpt>
      <trkpt lat="48.84935" lon="2.2435">
        <ele>89.8</ele>
        <time>2015-06-29T19:07:09.799Z</time>
      </trkpt>
      <trkpt lat="48.84942" lon="2.24356">
        <ele>89.9</ele>
        <time>2015-06-29T19:07:11.833Z</time>
      </trkpt>
      <trkpt lat="48.84945" lon="2.2436">
        <ele>90.2</ele>
        <time>2015-06-29T19:07:12.802Z</time>
      </trkpt>
      <trkpt lat="48.8495" lon="2.24366">
        <ele>90.4</ele>
        <time>2015-06-29T19:07:14.759Z</time>
      </trkpt>
      <trkpt lat="48.84953" lon="2.24369">
        <ele>90.5</ele>
        <time>2015-06-29T19:07:15.774Z</time>
      </trkpt>
      <trkpt lat="48.84957" lon="2.24373">
        <ele>90.9</ele>
        <time>2015-06-29T19:07:16.781Z</time>
      </trkpt>
      <trkpt lat="48.84961" lon="2.24378">
        <ele>91.4</ele>
        <time>2015-06-29T19:07:17.798Z</time>
      </trkpt>
      <trkpt lat="48.84965" lon="2.24384">
        <ele>91.5</ele>
        <time>2015-06-29T19:07:18.880Z</time>
      </trkpt>
      <trkpt lat="48.84968" lon="2.24388">
        <ele>91.4</ele>
        <time>2015-06-29T19:07:19.701Z</time>
      </trkpt>
      <trkpt lat="48.84974" lon="2.24397">
        <ele>91.3</ele>
        <time>2015-06-29T19:07:21.822Z</time>
      </trkpt>
      <trkpt lat="48.84978" lon="2.244">
        <ele>91.5</ele>
        <time>2015-06-29T19:07:22.723Z</time>
      </trkpt>
      <trkpt lat="48.84981" lon="2.24405">
        <ele>91.5</ele>
        <time>2015-06-29T19:07:23.747Z</time>
      </trkpt>
      <trkpt lat="48.84985" lon="2.24408">
        <ele>91.6</ele>
        <time>2015-06-29T19:07:24.740Z</time>
      </trkpt>
      <trkpt lat="48.84989" lon="2.24412">
        <ele>91.6</ele>
        <time>2015-06-29T19:07:25.761Z</time>
      </trkpt>
      <trkpt lat="48.84993" lon="2.24416">
        <ele>91.5</ele>
        <time>2015-06-29T19:07:26.791Z</time>
      </trkpt>
      <trkpt lat="48.84997" lon="2.2442">
        <ele>91.4</ele>
        <time>2015-06-29T19:07:27.816Z</time>
      </trkpt>
      <trkpt lat="48.85001" lon="2.24425">
        <ele>91.3</ele>
        <time>2015-06-29T19:07:28.743Z</time>
      </trkpt>
      <trkpt lat="48.85005" lon="2.24429">
        <ele>91.3</ele>
        <time>2015-06-29T19:07:29.963Z</time>
      </trkpt>
      <trkpt lat="48.85009" lon="2.24432">
        <ele>91.2</ele>
        <time>2015-06-29T19:07:30.742Z</time>
      </trkpt>
      <trkpt lat="48.85013" lon="2.24437">
        <ele>91.2</ele>
        <time>2015-06-29T19:07:31.746Z</time>
      </trkpt>
      <trkpt lat="48.85018" lon="2.2444">
        <ele>90.9</ele>
        <time>2015-06-29T19:07:32.794Z</time>
      </trkpt>
      <trkpt lat="48.85022" lon="2.24443">
        <ele>91</ele>
        <time>2015-06-29T19:07:33.787Z</time>
      </trkpt>
      <trkpt lat="48.85026" lon="2.24447">
        <ele>91.3</ele>
        <time>2015-06-29T19:07:34.746Z</time>
      </trkpt>
      <trkpt lat="48.85032" lon="2.24454">
        <ele>91.6</ele>
        <time>2015-06-29T19:07:36.735Z</time>
      </trkpt>
      <trkpt lat="48.85035" lon="2.24458">
        <ele>91.8</ele>
        <time>2015-06-29T19:07:38.050Z</time>
      </trkpt>
      <trkpt lat="48.85041" lon="2.24465">
        <ele>92</ele>
        <time>2015-06-29T19:07:40.117Z</time>
      </trkpt>
      <trkpt lat="48.85045" lon="2.24469">
        <ele>92.2</ele>
        <time>2015-06-29T19:07:40.712Z</time>
      </trkpt>
      <trkpt lat="48.8505" lon="2.24474">
        <ele>91.6</ele>
        <time>2015-06-29T19:07:41.728Z</time>
      </trkpt>
      <trkpt lat="48.85056" lon="2.2448">
        <ele>91.2</ele>
        <time>2015-06-29T19:07:42.745Z</time>
      </trkpt>
      <trkpt lat="48.85061" lon="2.24485">
        <ele>91.2</ele>
        <time>2015-06-29T19:07:43.753Z</time>
      </trkpt>
      <trkpt lat="48.85065" lon="2.2449">
        <ele>91.2</ele>
        <time>2015-06-29T19:07:44.750Z</time>
      </trkpt>
      <trkpt lat="48.85069" lon="2.24494">
        <ele>91.2</ele>
        <time>2015-06-29T19:07:45.772Z</time>
      </trkpt>
      <trkpt lat="48.85073" lon="2.24499">
        <ele>91.4</ele>
        <time>2015-06-29T19:07:46.788Z</time>
      </trkpt>
      <trkpt lat="48.85077" lon="2.24504">
        <ele>91.3</ele>
        <time>2015-06-29T19:07:47.724Z</time>
      </trkpt>
      <trkpt lat="48.85081" lon="2.24508">
        <ele>91.4</ele>
        <time>2015-06-29T19:07:48.727Z</time>
      </trkpt>
      <trkpt lat="48.85085" lon="2.24513">
        <ele>92</ele>
        <time>2015-06-29T19:07:50.320Z</time>
      </trkpt>
      <trkpt lat="48.85088" lon="2.24516">
        <ele>92</ele>
        <time>2015-06-29T19:07:50.776Z</time>
      </trkpt>
      <trkpt lat="48.85092" lon="2.2452">
        <ele>92.4</ele>
        <time>2015-06-29T19:07:51.777Z</time>
      </trkpt>
      <trkpt lat="48.85096" lon="2.24526">
        <ele>92.7</ele>
        <time>2015-06-29T19:07:52.782Z</time>
      </trkpt>
      <trkpt lat="48.85101" lon="2.24533">
        <ele>92.9</ele>
        <time>2015-06-29T19:07:53.797Z</time>
      </trkpt>
      <trkpt lat="48.85106" lon="2.2454">
        <ele>92.2</ele>
        <time>2015-06-29T19:07:54.807Z</time>
      </trkpt>
      <trkpt lat="48.8511" lon="2.24546">
        <ele>92</ele>
        <time>2015-06-29T19:07:55.687Z</time>
      </trkpt>
      <trkpt lat="48.85116" lon="2.24551">
        <ele>91.9</ele>
        <time>2015-06-29T19:07:56.763Z</time>
      </trkpt>
      <trkpt lat="48.8512" lon="2.24556">
        <ele>91.9</ele>
        <time>2015-06-29T19:07:57.771Z</time>
      </trkpt>
      <trkpt lat="48.85124" lon="2.24561">
        <ele>91.9</ele>
        <time>2015-06-29T19:07:58.719Z</time>
      </trkpt>
      <trkpt lat="48.85128" lon="2.24567">
        <ele>92</ele>
        <time>2015-06-29T19:08:00.463Z</time>
      </trkpt>
      <trkpt lat="48.85131" lon="2.24572">
        <ele>92</ele>
        <time>2015-06-29T19:08:00.750Z</time>
      </trkpt>
      <trkpt lat="48.85135" lon="2.24578">
        <ele>92</ele>
        <time>2015-06-29T19:08:01.761Z</time>
      </trkpt>
      <trkpt lat="48.85139" lon="2.24582">
        <ele>91.9</ele>
        <time>2015-06-29T19:08:02.800Z</time>
      </trkpt>
      <trkpt lat="48.85143" lon="2.24587">
        <ele>92</ele>
        <time>2015-06-29T19:08:03.726Z</time>
      </trkpt>
      <trkpt lat="48.85148" lon="2.24593">
        <ele>91.9</ele>
        <time>2015-06-29T19:08:04.728Z</time>
      </trkpt>
      <trkpt lat="48.85153" lon="2.24597">
        <ele>91.6</ele>
        <time>2015-06-29T19:08:05.730Z</time>
      </trkpt>
      <trkpt lat="48.85157" lon="2.24602">
        <ele>91.6</ele>
        <time>2015-06-29T19:08:06.742Z</time>
      </trkpt>
      <trkpt lat="48.85162" lon="2.24607">
        <ele>91.6</ele>
        <time>2015-06-29T19:08:07.760Z</time>
      </trkpt>
      <trkpt lat="48.85167" lon="2.24611">
        <ele>91.7</ele>
        <time>2015-06-29T19:08:08.785Z</time>
      </trkpt>
      <trkpt lat="48.85172" lon="2.24616">
        <ele>91.7</ele>
        <time>2015-06-29T19:08:09.791Z</time>
      </trkpt>
      <trkpt lat="48.85177" lon="2.24622">
        <ele>91.4</ele>
        <time>2015-06-29T19:08:10.794Z</time>
      </trkpt>
      <trkpt lat="48.85182" lon="2.2463">
        <ele>90.3</ele>
        <time>2015-06-29T19:08:11.801Z</time>
      </trkpt>
      <trkpt lat="48.85188" lon="2.24637">
        <ele>89.7</ele>
        <time>2015-06-29T19:08:12.695Z</time>
      </trkpt>
      <trkpt lat="48.85195" lon="2.24644">
        <ele>89.6</ele>
        <time>2015-06-29T19:08:14.190Z</time>
      </trkpt>
      <trkpt lat="48.852" lon="2.2465">
        <ele>89.6</ele>
        <time>2015-06-29T19:08:14.758Z</time>
      </trkpt>
      <trkpt lat="48.85205" lon="2.24655">
        <ele>89.3</ele>
        <time>2015-06-29T19:08:15.753Z</time>
      </trkpt>
      <trkpt lat="48.85209" lon="2.2466">
        <ele>89.5</ele>
        <time>2015-06-29T19:08:16.760Z</time>
      </trkpt>
      <trkpt lat="48.85212" lon="2.24665">
        <ele>89.7</ele>
        <time>2015-06-29T19:08:17.772Z</time>
      </trkpt>
      <trkpt lat="48.85216" lon="2.24671">
        <ele>89.9</ele>
        <time>2015-06-29T19:08:18.781Z</time>
      </trkpt>
      <trkpt lat="48.85219" lon="2.24676">
        <ele>90.1</ele>
        <time>2015-06-29T19:08:19.713Z</time>
      </trkpt>
      <trkpt lat="48.85223" lon="2.2468">
        <ele>90.3</ele>
        <time>2015-06-29T19:08:20.757Z</time>
      </trkpt>
      <trkpt lat="48.85229" lon="2.24687">
        <ele>90.2</ele>
        <time>2015-06-29T19:08:21.758Z</time>
      </trkpt>
      <trkpt lat="48.85233" lon="2.24692">
        <ele>90.3</ele>
        <time>2015-06-29T19:08:22.767Z</time>
      </trkpt>
      <trkpt lat="48.85238" lon="2.24697">
        <ele>90.4</ele>
        <time>2015-06-29T19:08:23.787Z</time>
      </trkpt>
      <trkpt lat="48.85242" lon="2.24703">
        <ele>90.7</ele>
        <time>2015-06-29T19:08:24.792Z</time>
      </trkpt>
      <trkpt lat="48.85247" lon="2.24708">
        <ele>90.6</ele>
        <time>2015-06-29T19:08:25.730Z</time>
      </trkpt>
      <trkpt lat="48.85251" lon="2.24714">
        <ele>90.7</ele>
        <time>2015-06-29T19:08:26.885Z</time>
      </trkpt>
      <trkpt lat="48.85256" lon="2.24719">
        <ele>90.7</ele>
        <time>2015-06-29T19:08:27.716Z</time>
      </trkpt>
      <trkpt lat="48.85261" lon="2.24724">
        <ele>90.9</ele>
        <time>2015-06-29T19:08:28.729Z</time>
      </trkpt>
      <trkpt lat="48.85265" lon="2.24728">
        <ele>91.2</ele>
        <time>2015-06-29T19:08:29.751Z</time>
      </trkpt>
      <trkpt lat="48.85269" lon="2.24732">
        <ele>91.5</ele>
        <time>2015-06-29T19:08:30.763Z</time>
      </trkpt>
      <trkpt lat="48.85273" lon="2.24735">
        <ele>92.1</ele>
        <time>2015-06-29T19:08:31.769Z</time>
      </trkpt>
      <trkpt lat="48.85277" lon="2.2474">
        <ele>92.6</ele>
        <time>2015-06-29T19:08:32.774Z</time>
      </trkpt>
      <trkpt lat="48.85281" lon="2.24748">
        <ele>93.8</ele>
        <time>2015-06-29T19:08:34.678Z</time>
      </trkpt>
      <trkpt lat="48.85283" lon="2.24752">
        <ele>93.9</ele>
        <time>2015-06-29T19:08:35.732Z</time>
      </trkpt>
      <trkpt lat="48.85287" lon="2.24759">
        <ele>94.5</ele>
        <time>2015-06-29T19:08:37.758Z</time>
      </trkpt>
      <trkpt lat="48.85289" lon="2.24762">
        <ele>94.8</ele>
        <time>2015-06-29T19:08:38.781Z</time>
      </trkpt>
      <trkpt lat="48.85295" lon="2.24769">
        <ele>96.1</ele>
        <time>2015-06-29T19:08:41.735Z</time>
      </trkpt>
      <trkpt lat="48.85297" lon="2.24771">
        <ele>96.2</ele>
        <time>2015-06-29T19:08:42.735Z</time>
      </trkpt>
      <trkpt lat="48.85299" lon="2.24773">
        <ele>96.4</ele>
        <time>2015-06-29T19:08:44.762Z</time>
      </trkpt>
      <trkpt lat="48.85299" lon="2.24774">
        <ele>95.9</ele>
        <time>2015-06-29T19:08:45.766Z</time>
      </trkpt>
      <trkpt lat="48.85297" lon="2.24777">
        <ele>94.5</ele>
        <time>2015-06-29T19:11:21.818Z</time>
      </trkpt>
      <trkpt lat="48.853" lon="2.24767">
        <ele>90.4</ele>
        <time>2015-06-29T19:11:22.822Z</time>
      </trkpt>
      <trkpt lat="48.85309" lon="2.24764">
        <ele>91.9</ele>
        <time>2015-06-29T19:11:26.882Z</time>
      </trkpt>
      <trkpt lat="48.85311" lon="2.24764">
        <ele>91.6</ele>
        <time>2015-06-29T19:11:27.792Z</time>
      </trkpt>
      <trkpt lat="48.85318" lon="2.24763">
        <ele>92.5</ele>
        <time>2015-06-29T19:11:30.747Z</time>
      </trkpt>
      <trkpt lat="48.85322" lon="2.24764">
        <ele>92.9</ele>
        <time>2015-06-29T19:11:31.823Z</time>
      </trkpt>
      <trkpt lat="48.85327" lon="2.24765">
        <ele>93.6</ele>
        <time>2015-06-29T19:11:33.791Z</time>
      </trkpt>
      <trkpt lat="48.85331" lon="2.24766">
        <ele>93.7</ele>
        <time>2015-06-29T19:11:34.805Z</time>
      </trkpt>
      <trkpt lat="48.85337" lon="2.24767">
        <ele>94.2</ele>
        <time>2015-06-29T19:11:35.730Z</time>
      </trkpt>
      <trkpt lat="48.85342" lon="2.24768">
        <ele>94.7</ele>
        <time>2015-06-29T19:11:36.728Z</time>
      </trkpt>
      <trkpt lat="48.85351" lon="2.24769">
        <ele>95.3</ele>
        <time>2015-06-29T19:11:38.781Z</time>
      </trkpt>
      <trkpt lat="48.85356" lon="2.2477">
        <ele>95.5</ele>
        <time>2015-06-29T19:11:39.792Z</time>
      </trkpt>
      <trkpt lat="48.8536" lon="2.2477">
        <ele>95.5</ele>
        <time>2015-06-29T19:11:40.724Z</time>
      </trkpt>
      <trkpt lat="48.85365" lon="2.24771">
        <ele>95.7</ele>
        <time>2015-06-29T19:11:41.730Z</time>
      </trkpt>
      <trkpt lat="48.85373" lon="2.24774">
        <ele>96.1</ele>
        <time>2015-06-29T19:11:43.733Z</time>
      </trkpt>
      <trkpt lat="48.85378" lon="2.24776">
        <ele>96.4</ele>
        <time>2015-06-29T19:11:44.784Z</time>
      </trkpt>
      <trkpt lat="48.85384" lon="2.24778">
        <ele>96.6</ele>
        <time>2015-06-29T19:11:45.788Z</time>
      </trkpt>
      <trkpt lat="48.85389" lon="2.24782">
        <ele>97.1</ele>
        <time>2015-06-29T19:11:46.802Z</time>
      </trkpt>
      <trkpt lat="48.85396" lon="2.24787">
        <ele>96.5</ele>
        <time>2015-06-29T19:11:48.761Z</time>
      </trkpt>
      <trkpt lat="48.854" lon="2.24791">
        <ele>96.7</ele>
        <time>2015-06-29T19:11:49.773Z</time>
      </trkpt>
      <trkpt lat="48.85403" lon="2.24796">
        <ele>96.7</ele>
        <time>2015-06-29T19:11:50.784Z</time>
      </trkpt>
      <trkpt lat="48.85405" lon="2.24802">
        <ele>96.6</ele>
        <time>2015-06-29T19:11:51.807Z</time>
      </trkpt>
      <trkpt lat="48.85408" lon="2.24807">
        <ele>96.2</ele>
        <time>2015-06-29T19:11:52.759Z</time>
      </trkpt>
      <trkpt lat="48.85412" lon="2.24812">
        <ele>96.1</ele>
        <time>2015-06-29T19:11:53.764Z</time>
      </trkpt>
      <trkpt lat="48.85416" lon="2.24818">
        <ele>95.8</ele>
        <time>2015-06-29T19:11:54.780Z</time>
      </trkpt>
      <trkpt lat="48.85421" lon="2.24824">
        <ele>95.8</ele>
        <time>2015-06-29T19:11:55.940Z</time>
      </trkpt>
      <trkpt lat="48.85426" lon="2.24829">
        <ele>95.6</ele>
        <time>2015-06-29T19:11:56.780Z</time>
      </trkpt>
      <trkpt lat="48.85431" lon="2.24835">
        <ele>95.3</ele>
        <time>2015-06-29T19:11:57.726Z</time>
      </trkpt>
      <trkpt lat="48.85437" lon="2.24841">
        <ele>95</ele>
        <time>2015-06-29T19:11:58.730Z</time>
      </trkpt>
      <trkpt lat="48.85442" lon="2.24848">
        <ele>94.9</ele>
        <time>2015-06-29T19:11:59.735Z</time>
      </trkpt>
      <trkpt lat="48.85447" lon="2.24853">
        <ele>94.9</ele>
        <time>2015-06-29T19:12:00.744Z</time>
      </trkpt>
      <trkpt lat="48.85452" lon="2.24859">
        <ele>95.2</ele>
        <time>2015-06-29T19:12:01.750Z</time>
      </trkpt>
      <trkpt lat="48.85457" lon="2.24864">
        <ele>95.4</ele>
        <time>2015-06-29T19:12:02.766Z</time>
      </trkpt>
      <trkpt lat="48.85462" lon="2.24869">
        <ele>95.5</ele>
        <time>2015-06-29T19:12:03.788Z</time>
      </trkpt>
      <trkpt lat="48.85467" lon="2.24873">
        <ele>95.8</ele>
        <time>2015-06-29T19:12:04.715Z</time>
      </trkpt>
      <trkpt lat="48.85471" lon="2.24875">
        <ele>95.6</ele>
        <time>2015-06-29T19:12:05.720Z</time>
      </trkpt>
      <trkpt lat="48.85479" lon="2.24878">
        <ele>95.7</ele>
        <time>2015-06-29T19:12:07.726Z</time>
      </trkpt>
      <trkpt lat="48.85485" lon="2.2488">
        <ele>96</ele>
        <time>2015-06-29T19:12:08.826Z</time>
      </trkpt>
      <trkpt lat="48.85491" lon="2.24881">
        <ele>96.1</ele>
        <time>2015-06-29T19:12:09.721Z</time>
      </trkpt>
      <trkpt lat="48.85496" lon="2.24882">
        <ele>96.2</ele>
        <time>2015-06-29T19:12:10.732Z</time>
      </trkpt>
      <trkpt lat="48.85501" lon="2.24882">
        <ele>96.9</ele>
        <time>2015-06-29T19:12:11.740Z</time>
      </trkpt>
      <trkpt lat="48.85505" lon="2.24883">
        <ele>97.2</ele>
        <time>2015-06-29T19:12:12.752Z</time>
      </trkpt>
      <trkpt lat="48.85513" lon="2.24885">
        <ele>97.6</ele>
        <time>2015-06-29T19:12:14.773Z</time>
      </trkpt>
      <trkpt lat="48.85517" lon="2.24888">
        <ele>97.9</ele>
        <time>2015-06-29T19:12:15.789Z</time>
      </trkpt>
      <trkpt lat="48.85521" lon="2.24891">
        <ele>97.9</ele>
        <time>2015-06-29T19:12:16.721Z</time>
      </trkpt>
      <trkpt lat="48.85529" lon="2.24894">
        <ele>98.5</ele>
        <time>2015-06-29T19:12:17.759Z</time>
      </trkpt>
      <trkpt lat="48.85536" lon="2.24898">
        <ele>98.9</ele>
        <time>2015-06-29T19:12:18.725Z</time>
      </trkpt>
      <trkpt lat="48.85542" lon="2.24902">
        <ele>98.9</ele>
        <time>2015-06-29T19:12:19.722Z</time>
      </trkpt>
      <trkpt lat="48.85546" lon="2.24905">
        <ele>98.8</ele>
        <time>2015-06-29T19:12:20.777Z</time>
      </trkpt>
      <trkpt lat="48.8555" lon="2.24908">
        <ele>98.7</ele>
        <time>2015-06-29T19:12:21.765Z</time>
      </trkpt>
      <trkpt lat="48.85556" lon="2.24917">
        <ele>99.1</ele>
        <time>2015-06-29T19:12:23.203Z</time>
      </trkpt>
      <trkpt lat="48.85559" lon="2.2492">
        <ele>99.1</ele>
        <time>2015-06-29T19:12:24.689Z</time>
      </trkpt>
      <trkpt lat="48.85562" lon="2.24926">
        <ele>99.1</ele>
        <time>2015-06-29T19:12:25.726Z</time>
      </trkpt>
      <trkpt lat="48.85566" lon="2.24932">
        <ele>98.9</ele>
        <time>2015-06-29T19:12:26.773Z</time>
      </trkpt>
      <trkpt lat="48.8557" lon="2.24938">
        <ele>98.7</ele>
        <time>2015-06-29T19:12:27.762Z</time>
      </trkpt>
      <trkpt lat="48.85575" lon="2.24944">
        <ele>98.7</ele>
        <time>2015-06-29T19:12:28.772Z</time>
      </trkpt>
      <trkpt lat="48.85579" lon="2.24949">
        <ele>98.8</ele>
        <time>2015-06-29T19:12:29.927Z</time>
      </trkpt>
      <trkpt lat="48.85584" lon="2.24955">
        <ele>98.6</ele>
        <time>2015-06-29T19:12:30.822Z</time>
      </trkpt>
      <trkpt lat="48.85588" lon="2.24962">
        <ele>98.4</ele>
        <time>2015-06-29T19:12:31.728Z</time>
      </trkpt>
      <trkpt lat="48.85592" lon="2.24968">
        <ele>98.7</ele>
        <time>2015-06-29T19:12:32.766Z</time>
      </trkpt>
      <trkpt lat="48.85596" lon="2.24974">
        <ele>98.9</ele>
        <time>2015-06-29T19:12:33.773Z</time>
      </trkpt>
      <trkpt lat="48.85601" lon="2.24979">
        <ele>99.1</ele>
        <time>2015-06-29T19:12:34.817Z</time>
      </trkpt>
      <trkpt lat="48.85606" lon="2.24983">
        <ele>99.1</ele>
        <time>2015-06-29T19:12:35.727Z</time>
      </trkpt>
      <trkpt lat="48.85612" lon="2.24987">
        <ele>99.5</ele>
        <time>2015-06-29T19:12:36.724Z</time>
      </trkpt>
      <trkpt lat="48.85617" lon="2.24989">
        <ele>99.6</ele>
        <time>2015-06-29T19:12:37.727Z</time>
      </trkpt>
      <trkpt lat="48.85622" lon="2.24991">
        <ele>99.7</ele>
        <time>2015-06-29T19:12:38.757Z</time>
      </trkpt>
      <trkpt lat="48.85629" lon="2.24992">
        <ele>99.6</ele>
        <time>2015-06-29T19:12:40.173Z</time>
      </trkpt>
      <trkpt lat="48.85636" lon="2.24992">
        <ele>99.6</ele>
        <time>2015-06-29T19:12:40.741Z</time>
      </trkpt>
      <trkpt lat="48.85643" lon="2.24991">
        <ele>99.1</ele>
        <time>2015-06-29T19:12:41.719Z</time>
      </trkpt>
      <trkpt lat="48.85651" lon="2.2499">
        <ele>99.3</ele>
        <time>2015-06-29T19:12:42.726Z</time>
      </trkpt>
      <trkpt lat="48.85662" lon="2.2499">
        <ele>100.2</ele>
        <time>2015-06-29T19:12:43.735Z</time>
      </trkpt>
      <trkpt lat="48.85669" lon="2.24988">
        <ele>100</ele>
        <time>2015-06-29T19:12:44.770Z</time>
      </trkpt>
      <trkpt lat="48.85676" lon="2.24986">
        <ele>99.8</ele>
        <time>2015-06-29T19:12:45.791Z</time>
      </trkpt>
      <trkpt lat="48.85685" lon="2.24985">
        <ele>99.6</ele>
        <time>2015-06-29T19:12:46.705Z</time>
      </trkpt>
      <trkpt lat="48.85693" lon="2.24983">
        <ele>99.6</ele>
        <time>2015-06-29T19:12:47.705Z</time>
      </trkpt>
      <trkpt lat="48.857" lon="2.24981">
        <ele>99.3</ele>
        <time>2015-06-29T19:12:48.740Z</time>
      </trkpt>
      <trkpt lat="48.85706" lon="2.24979">
        <ele>98.6</ele>
        <time>2015-06-29T19:12:49.733Z</time>
      </trkpt>
      <trkpt lat="48.85711" lon="2.24978">
        <ele>98.2</ele>
        <time>2015-06-29T19:12:50.777Z</time>
      </trkpt>
      <trkpt lat="48.85716" lon="2.24978">
        <ele>98.1</ele>
        <time>2015-06-29T19:12:51.788Z</time>
      </trkpt>
      <trkpt lat="48.85724" lon="2.2498">
        <ele>97.7</ele>
        <time>2015-06-29T19:12:53.709Z</time>
      </trkpt>
      <trkpt lat="48.85729" lon="2.24981">
        <ele>97.7</ele>
        <time>2015-06-29T19:12:54.746Z</time>
      </trkpt>
      <trkpt lat="48.85735" lon="2.24984">
        <ele>98</ele>
        <time>2015-06-29T19:12:55.782Z</time>
      </trkpt>
      <trkpt lat="48.85739" lon="2.24987">
        <ele>97.9</ele>
        <time>2015-06-29T19:12:56.787Z</time>
      </trkpt>
      <trkpt lat="48.85744" lon="2.24989">
        <ele>97.8</ele>
        <time>2015-06-29T19:12:57.705Z</time>
      </trkpt>
      <trkpt lat="48.85748" lon="2.24991">
        <ele>97.7</ele>
        <time>2015-06-29T19:12:58.701Z</time>
      </trkpt>
      <trkpt lat="48.85755" lon="2.24994">
        <ele>97.1</ele>
        <time>2015-06-29T19:12:59.705Z</time>
      </trkpt>
      <trkpt lat="48.8576" lon="2.24997">
        <ele>96.4</ele>
        <time>2015-06-29T19:13:00.720Z</time>
      </trkpt>
      <trkpt lat="48.85765" lon="2.25">
        <ele>96</ele>
        <time>2015-06-29T19:13:01.732Z</time>
      </trkpt>
      <trkpt lat="48.8577" lon="2.25002">
        <ele>95.8</ele>
        <time>2015-06-29T19:13:02.760Z</time>
      </trkpt>
      <trkpt lat="48.85778" lon="2.25005">
        <ele>95.5</ele>
        <time>2015-06-29T19:13:05.781Z</time>
      </trkpt>
      <trkpt lat="48.8578" lon="2.25006">
        <ele>96</ele>
        <time>2015-06-29T19:13:06.677Z</time>
      </trkpt>
      <trkpt lat="48.8578" lon="2.25006">
        <ele>96</ele>
        <time>2015-06-29T19:13:33.751Z</time>
      </trkpt>
      <trkpt lat="48.85788" lon="2.2503">
        <ele>95.6</ele>
        <time>2015-06-29T19:13:34.699Z</time>
      </trkpt>
      <trkpt lat="48.85792" lon="2.25034">
        <ele>96.7</ele>
        <time>2015-06-29T19:13:36.722Z</time>
      </trkpt>
      <trkpt lat="48.85796" lon="2.25037">
        <ele>97.3</ele>
        <time>2015-06-29T19:13:37.750Z</time>
      </trkpt>
      <trkpt lat="48.85801" lon="2.25045">
        <ele>97.4</ele>
        <time>2015-06-29T19:13:40.771Z</time>
      </trkpt>
      <trkpt lat="48.85803" lon="2.25048">
        <ele>97.5</ele>
        <time>2015-06-29T19:13:41.687Z</time>
      </trkpt>
      <trkpt lat="48.85808" lon="2.25059">
        <ele>97.8</ele>
        <time>2015-06-29T19:13:43.718Z</time>
      </trkpt>
      <trkpt lat="48.8581" lon="2.25064">
        <ele>97.8</ele>
        <time>2015-06-29T19:13:44.741Z</time>
      </trkpt>
      <trkpt lat="48.85815" lon="2.25074">
        <ele>97.8</ele>
        <time>2015-06-29T19:13:46.753Z</time>
      </trkpt>
      <trkpt lat="48.85817" lon="2.25079">
        <ele>98.3</ele>
        <time>2015-06-29T19:13:47.772Z</time>
      </trkpt>
      <trkpt lat="48.85819" lon="2.25085">
        <ele>98.7</ele>
        <time>2015-06-29T19:13:48.686Z</time>
      </trkpt>
      <trkpt lat="48.85822" lon="2.2509">
        <ele>99</ele>
        <time>2015-06-29T19:13:49.704Z</time>
      </trkpt>
      <trkpt lat="48.85828" lon="2.25101">
        <ele>99.4</ele>
        <time>2015-06-29T19:13:51.747Z</time>
      </trkpt>
      <trkpt lat="48.85831" lon="2.25107">
        <ele>99.6</ele>
        <time>2015-06-29T19:13:52.760Z</time>
      </trkpt>
      <trkpt lat="48.85836" lon="2.25117">
        <ele>99.8</ele>
        <time>2015-06-29T19:13:54.781Z</time>
      </trkpt>
      <trkpt lat="48.85838" lon="2.25121">
        <ele>99.8</ele>
        <time>2015-06-29T19:13:55.765Z</time>
      </trkpt>
      <trkpt lat="48.85841" lon="2.25126">
        <ele>99.9</ele>
        <time>2015-06-29T19:13:56.791Z</time>
      </trkpt>
      <trkpt lat="48.85844" lon="2.25131">
        <ele>99.8</ele>
        <time>2015-06-29T19:13:57.901Z</time>
      </trkpt>
      <trkpt lat="48.8585" lon="2.25139">
        <ele>99.9</ele>
        <time>2015-06-29T19:13:59.718Z</time>
      </trkpt>
      <trkpt lat="48.85854" lon="2.25144">
        <ele>100</ele>
        <time>2015-06-29T19:14:00.725Z</time>
      </trkpt>
      <trkpt lat="48.85858" lon="2.2515">
        <ele>100.3</ele>
        <time>2015-06-29T19:14:01.739Z</time>
      </trkpt>
      <trkpt lat="48.85862" lon="2.25156">
        <ele>100.3</ele>
        <time>2015-06-29T19:14:02.763Z</time>
      </trkpt>
      <trkpt lat="48.85865" lon="2.25161">
        <ele>100.3</ele>
        <time>2015-06-29T19:14:03.720Z</time>
      </trkpt>
      <trkpt lat="48.85869" lon="2.25168">
        <ele>100.4</ele>
        <time>2015-06-29T19:14:04.704Z</time>
      </trkpt>
      <trkpt lat="48.85872" lon="2.25173">
        <ele>100.3</ele>
        <time>2015-06-29T19:14:05.713Z</time>
      </trkpt>
      <trkpt lat="48.85875" lon="2.25179">
        <ele>100.1</ele>
        <time>2015-06-29T19:14:06.724Z</time>
      </trkpt>
      <trkpt lat="48.85881" lon="2.25187">
        <ele>99.1</ele>
        <time>2015-06-29T19:14:08.748Z</time>
      </trkpt>
      <trkpt lat="48.85885" lon="2.2519">
        <ele>99.3</ele>
        <time>2015-06-29T19:14:09.781Z</time>
      </trkpt>
      <trkpt lat="48.85894" lon="2.25191">
        <ele>99.8</ele>
        <time>2015-06-29T19:14:11.733Z</time>
      </trkpt>
      <trkpt lat="48.85898" lon="2.25191">
        <ele>100</ele>
        <time>2015-06-29T19:14:12.705Z</time>
      </trkpt>
      <trkpt lat="48.85902" lon="2.25192">
        <ele>100.6</ele>
        <time>2015-06-29T19:14:13.702Z</time>
      </trkpt>
      <trkpt lat="48.85907" lon="2.25194">
        <ele>101.3</ele>
        <time>2015-06-29T19:14:14.748Z</time>
      </trkpt>
      <trkpt lat="48.85911" lon="2.25196">
        <ele>101.8</ele>
        <time>2015-06-29T19:14:15.761Z</time>
      </trkpt>
      <trkpt lat="48.85916" lon="2.25199">
        <ele>101.7</ele>
        <time>2015-06-29T19:14:16.807Z</time>
      </trkpt>
      <trkpt lat="48.85923" lon="2.25206">
        <ele>101.7</ele>
        <time>2015-06-29T19:14:18.719Z</time>
      </trkpt>
      <trkpt lat="48.85927" lon="2.2521">
        <ele>101.6</ele>
        <time>2015-06-29T19:14:19.767Z</time>
      </trkpt>
      <trkpt lat="48.85931" lon="2.25213">
        <ele>101.4</ele>
        <time>2015-06-29T19:14:20.795Z</time>
      </trkpt>
      <trkpt lat="48.85935" lon="2.25215">
        <ele>101.2</ele>
        <time>2015-06-29T19:14:21.707Z</time>
      </trkpt>
      <trkpt lat="48.85939" lon="2.25217">
        <ele>100.7</ele>
        <time>2015-06-29T19:14:22.707Z</time>
      </trkpt>
      <trkpt lat="48.85944" lon="2.25218">
        <ele>100.6</ele>
        <time>2015-06-29T19:14:23.716Z</time>
      </trkpt>
      <trkpt lat="48.85949" lon="2.25217">
        <ele>100.8</ele>
        <time>2015-06-29T19:14:24.717Z</time>
      </trkpt>
      <trkpt lat="48.85955" lon="2.25216">
        <ele>100.8</ele>
        <time>2015-06-29T19:14:25.721Z</time>
      </trkpt>
      <trkpt lat="48.85961" lon="2.25215">
        <ele>101.1</ele>
        <time>2015-06-29T19:14:26.760Z</time>
      </trkpt>
      <trkpt lat="48.85967" lon="2.25214">
        <ele>101.3</ele>
        <time>2015-06-29T19:14:27.776Z</time>
      </trkpt>
      <trkpt lat="48.85973" lon="2.25213">
        <ele>101.6</ele>
        <time>2015-06-29T19:14:28.784Z</time>
      </trkpt>
      <trkpt lat="48.85981" lon="2.25212">
        <ele>102.1</ele>
        <time>2015-06-29T19:14:29.779Z</time>
      </trkpt>
      <trkpt lat="48.85987" lon="2.25211">
        <ele>102.3</ele>
        <time>2015-06-29T19:14:30.712Z</time>
      </trkpt>
      <trkpt lat="48.85993" lon="2.25209">
        <ele>102.6</ele>
        <time>2015-06-29T19:14:31.722Z</time>
      </trkpt>
      <trkpt lat="48.85997" lon="2.25208">
        <ele>102.9</ele>
        <time>2015-06-29T19:14:32.815Z</time>
      </trkpt>
      <trkpt lat="48.86002" lon="2.25208">
        <ele>102.8</ele>
        <time>2015-06-29T19:14:33.744Z</time>
      </trkpt>
      <trkpt lat="48.86007" lon="2.25207">
        <ele>102.6</ele>
        <time>2015-06-29T19:14:34.765Z</time>
      </trkpt>
      <trkpt lat="48.86014" lon="2.25205">
        <ele>102.4</ele>
        <time>2015-06-29T19:14:35.778Z</time>
      </trkpt>
      <trkpt lat="48.8602" lon="2.25204">
        <ele>102.1</ele>
        <time>2015-06-29T19:14:36.789Z</time>
      </trkpt>
      <trkpt lat="48.86026" lon="2.25202">
        <ele>102.2</ele>
        <time>2015-06-29T19:14:37.712Z</time>
      </trkpt>
      <trkpt lat="48.86032" lon="2.25201">
        <ele>102.1</ele>
        <time>2015-06-29T19:14:38.809Z</time>
      </trkpt>
      <trkpt lat="48.86038" lon="2.252">
        <ele>102.6</ele>
        <time>2015-06-29T19:14:39.704Z</time>
      </trkpt>
      <trkpt lat="48.86044" lon="2.25198">
        <ele>102.9</ele>
        <time>2015-06-29T19:14:40.718Z</time>
      </trkpt>
      <trkpt lat="48.86051" lon="2.25197">
        <ele>103.1</ele>
        <time>2015-06-29T19:14:41.722Z</time>
      </trkpt>
      <trkpt lat="48.86058" lon="2.25197">
        <ele>103.4</ele>
        <time>2015-06-29T19:14:42.736Z</time>
      </trkpt>
      <trkpt lat="48.86065" lon="2.25198">
        <ele>103.6</ele>
        <time>2015-06-29T19:14:43.744Z</time>
      </trkpt>
      <trkpt lat="48.86072" lon="2.25199">
        <ele>103.5</ele>
        <time>2015-06-29T19:14:44.763Z</time>
      </trkpt>
      <trkpt lat="48.86079" lon="2.252">
        <ele>103.4</ele>
        <time>2015-06-29T19:14:45.762Z</time>
      </trkpt>
      <trkpt lat="48.86086" lon="2.252">
        <ele>103</ele>
        <time>2015-06-29T19:14:46.763Z</time>
      </trkpt>
      <trkpt lat="48.86093" lon="2.25201">
        <ele>102.8</ele>
        <time>2015-06-29T19:14:47.777Z</time>
      </trkpt>
      <trkpt lat="48.861" lon="2.25202">
        <ele>102.5</ele>
        <time>2015-06-29T19:14:48.788Z</time>
      </trkpt>
      <trkpt lat="48.86107" lon="2.252">
        <ele>102.6</ele>
        <time>2015-06-29T19:14:49.831Z</time>
      </trkpt>
      <trkpt lat="48.86113" lon="2.25197">
        <ele>102.3</ele>
        <time>2015-06-29T19:14:50.775Z</time>
      </trkpt>
      <trkpt lat="48.86118" lon="2.25192">
        <ele>102.2</ele>
        <time>2015-06-29T19:14:51.703Z</time>
      </trkpt>
      <trkpt lat="48.86123" lon="2.25186">
        <ele>101.8</ele>
        <time>2015-06-29T19:14:52.708Z</time>
      </trkpt>
      <trkpt lat="48.86128" lon="2.25179">
        <ele>101.8</ele>
        <time>2015-06-29T19:14:53.723Z</time>
      </trkpt>
      <trkpt lat="48.86133" lon="2.25172">
        <ele>101.7</ele>
        <time>2015-06-29T19:14:54.733Z</time>
      </trkpt>
      <trkpt lat="48.86137" lon="2.25164">
        <ele>101.6</ele>
        <time>2015-06-29T19:14:55.744Z</time>
      </trkpt>
      <trkpt lat="48.86141" lon="2.25155">
        <ele>101.4</ele>
        <time>2015-06-29T19:14:56.772Z</time>
      </trkpt>
      <trkpt lat="48.86146" lon="2.25148">
        <ele>101.5</ele>
        <time>2015-06-29T19:14:57.779Z</time>
      </trkpt>
      <trkpt lat="48.8615" lon="2.25141">
        <ele>101.4</ele>
        <time>2015-06-29T19:14:58.720Z</time>
      </trkpt>
      <trkpt lat="48.86154" lon="2.25135">
        <ele>101.5</ele>
        <time>2015-06-29T19:14:59.687Z</time>
      </trkpt>
      <trkpt lat="48.86159" lon="2.25129">
        <ele>101.4</ele>
        <time>2015-06-29T19:15:00.746Z</time>
      </trkpt>
      <trkpt lat="48.86163" lon="2.25123">
        <ele>101</ele>
        <time>2015-06-29T19:15:01.717Z</time>
      </trkpt>
      <trkpt lat="48.86167" lon="2.25118">
        <ele>100.7</ele>
        <time>2015-06-29T19:15:02.764Z</time>
      </trkpt>
      <trkpt lat="48.86171" lon="2.25113">
        <ele>100.7</ele>
        <time>2015-06-29T19:15:03.757Z</time>
      </trkpt>
      <trkpt lat="48.86176" lon="2.25108">
        <ele>100.4</ele>
        <time>2015-06-29T19:15:04.777Z</time>
      </trkpt>
      <trkpt lat="48.86181" lon="2.25106">
        <ele>100</ele>
        <time>2015-06-29T19:15:05.779Z</time>
      </trkpt>
      <trkpt lat="48.86186" lon="2.25104">
        <ele>100.2</ele>
        <time>2015-06-29T19:15:06.777Z</time>
      </trkpt>
      <trkpt lat="48.86191" lon="2.25101">
        <ele>100.1</ele>
        <time>2015-06-29T19:15:07.797Z</time>
      </trkpt>
      <trkpt lat="48.86196" lon="2.25098">
        <ele>100</ele>
        <time>2015-06-29T19:15:08.801Z</time>
      </trkpt>
      <trkpt lat="48.86202" lon="2.25096">
        <ele>99.7</ele>
        <time>2015-06-29T19:15:09.726Z</time>
      </trkpt>
      <trkpt lat="48.86207" lon="2.25094">
        <ele>99.7</ele>
        <time>2015-06-29T19:15:10.727Z</time>
      </trkpt>
      <trkpt lat="48.86211" lon="2.2509">
        <ele>99.4</ele>
        <time>2015-06-29T19:15:11.731Z</time>
      </trkpt>
      <trkpt lat="48.86216" lon="2.25087">
        <ele>99.3</ele>
        <time>2015-06-29T19:15:12.741Z</time>
      </trkpt>
      <trkpt lat="48.86224" lon="2.25083">
        <ele>98.6</ele>
        <time>2015-06-29T19:15:13.747Z</time>
      </trkpt>
      <trkpt lat="48.8623" lon="2.25079">
        <ele>98.1</ele>
        <time>2015-06-29T19:15:14.780Z</time>
      </trkpt>
      <trkpt lat="48.86237" lon="2.25074">
        <ele>97.6</ele>
        <time>2015-06-29T19:15:15.781Z</time>
      </trkpt>
      <trkpt lat="48.86242" lon="2.25068">
        <ele>97.2</ele>
        <time>2015-06-29T19:15:16.797Z</time>
      </trkpt>
      <trkpt lat="48.86248" lon="2.25062">
        <ele>96.8</ele>
        <time>2015-06-29T19:15:17.797Z</time>
      </trkpt>
      <trkpt lat="48.86254" lon="2.25055">
        <ele>96.7</ele>
        <time>2015-06-29T19:15:18.719Z</time>
      </trkpt>
      <trkpt lat="48.8626" lon="2.25049">
        <ele>96.9</ele>
        <time>2015-06-29T19:15:19.721Z</time>
      </trkpt>
      <trkpt lat="48.86265" lon="2.25044">
        <ele>97.2</ele>
        <time>2015-06-29T19:15:20.787Z</time>
      </trkpt>
      <trkpt lat="48.8627" lon="2.25039">
        <ele>97.3</ele>
        <time>2015-06-29T19:15:21.770Z</time>
      </trkpt>
      <trkpt lat="48.86276" lon="2.25034">
        <ele>97.2</ele>
        <time>2015-06-29T19:15:22.786Z</time>
      </trkpt>
      <trkpt lat="48.86282" lon="2.2503">
        <ele>97.2</ele>
        <time>2015-06-29T19:15:23.790Z</time>
      </trkpt>
      <trkpt lat="48.86288" lon="2.25028">
        <ele>96.9</ele>
        <time>2015-06-29T19:15:24.814Z</time>
      </trkpt>
      <trkpt lat="48.86295" lon="2.25026">
        <ele>95.8</ele>
        <time>2015-06-29T19:15:25.747Z</time>
      </trkpt>
      <trkpt lat="48.86302" lon="2.25022">
        <ele>95.9</ele>
        <time>2015-06-29T19:15:26.779Z</time>
      </trkpt>
      <trkpt lat="48.86307" lon="2.25017">
        <ele>95.2</ele>
        <time>2015-06-29T19:15:27.792Z</time>
      </trkpt>
      <trkpt lat="48.86313" lon="2.25011">
        <ele>95</ele>
        <time>2015-06-29T19:15:28.694Z</time>
      </trkpt>
      <trkpt lat="48.86317" lon="2.25005">
        <ele>95.1</ele>
        <time>2015-06-29T19:15:29.720Z</time>
      </trkpt>
      <trkpt lat="48.86322" lon="2.25">
        <ele>95</ele>
        <time>2015-06-29T19:15:30.735Z</time>
      </trkpt>
      <trkpt lat="48.86326" lon="2.24995">
        <ele>95</ele>
        <time>2015-06-29T19:15:31.741Z</time>
      </trkpt>
      <trkpt lat="48.86331" lon="2.24987">
        <ele>95.1</ele>
        <time>2015-06-29T19:15:33.771Z</time>
      </trkpt>
      <trkpt lat="48.86334" lon="2.24985">
        <ele>95.4</ele>
        <time>2015-06-29T19:15:34.925Z</time>
      </trkpt>
      <trkpt lat="48.86341" lon="2.24978">
        <ele>95.5</ele>
        <time>2015-06-29T19:15:37.745Z</time>
      </trkpt>
      <trkpt lat="48.86344" lon="2.24977">
        <ele>95.4</ele>
        <time>2015-06-29T19:15:38.787Z</time>
      </trkpt>
      <trkpt lat="48.86347" lon="2.24975">
        <ele>93.4</ele>
        <time>2015-06-29T19:16:34.710Z</time>
      </trkpt>
      <trkpt lat="48.86364" lon="2.24984">
        <ele>98.9</ele>
        <time>2015-06-29T19:16:35.732Z</time>
      </trkpt>
      <trkpt lat="48.86371" lon="2.24986">
        <ele>98.6</ele>
        <time>2015-06-29T19:16:38.788Z</time>
      </trkpt>
      <trkpt lat="48.86374" lon="2.24985">
        <ele>98.3</ele>
        <time>2015-06-29T19:16:39.755Z</time>
      </trkpt>
      <trkpt lat="48.86381" lon="2.24984">
        <ele>97.9</ele>
        <time>2015-06-29T19:16:42.801Z</time>
      </trkpt>
      <trkpt lat="48.86384" lon="2.24984">
        <ele>97.7</ele>
        <time>2015-06-29T19:16:43.732Z</time>
      </trkpt>
      <trkpt lat="48.8639" lon="2.24985">
        <ele>98.3</ele>
        <time>2015-06-29T19:16:45.760Z</time>
      </trkpt>
      <trkpt lat="48.86393" lon="2.24986">
        <ele>98.8</ele>
        <time>2015-06-29T19:16:46.770Z</time>
      </trkpt>
      <trkpt lat="48.86402" lon="2.24986">
        <ele>98.7</ele>
        <time>2015-06-29T19:16:48.711Z</time>
      </trkpt>
      <trkpt lat="48.86406" lon="2.24986">
        <ele>98.3</ele>
        <time>2015-06-29T19:16:49.734Z</time>
      </trkpt>
      <trkpt lat="48.86414" lon="2.24989">
        <ele>98.1</ele>
        <time>2015-06-29T19:16:51.770Z</time>
      </trkpt>
      <trkpt lat="48.86418" lon="2.2499">
        <ele>98.2</ele>
        <time>2015-06-29T19:16:52.735Z</time>
      </trkpt>
      <trkpt lat="48.86425" lon="2.24992">
        <ele>98.1</ele>
        <time>2015-06-29T19:16:54.737Z</time>
      </trkpt>
      <trkpt lat="48.86428" lon="2.24993">
        <ele>97.8</ele>
        <time>2015-06-29T19:16:55.750Z</time>
      </trkpt>
      <trkpt lat="48.86434" lon="2.24995">
        <ele>97.9</ele>
        <time>2015-06-29T19:16:56.772Z</time>
      </trkpt>
      <trkpt lat="48.86439" lon="2.24999">
        <ele>97.9</ele>
        <time>2015-06-29T19:16:57.787Z</time>
      </trkpt>
      <trkpt lat="48.86444" lon="2.25001">
        <ele>97.9</ele>
        <time>2015-06-29T19:16:58.808Z</time>
      </trkpt>
      <trkpt lat="48.86448" lon="2.25003">
        <ele>97.8</ele>
        <time>2015-06-29T19:16:59.711Z</time>
      </trkpt>
      <trkpt lat="48.86453" lon="2.25006">
        <ele>97.9</ele>
        <time>2015-06-29T19:17:00.797Z</time>
      </trkpt>
      <trkpt lat="48.86457" lon="2.25009">
        <ele>97.9</ele>
        <time>2015-06-29T19:17:01.808Z</time>
      </trkpt>
      <trkpt lat="48.86461" lon="2.25011">
        <ele>97.8</ele>
        <time>2015-06-29T19:17:02.853Z</time>
      </trkpt>
      <trkpt lat="48.86465" lon="2.25014">
        <ele>97.7</ele>
        <time>2015-06-29T19:17:03.866Z</time>
      </trkpt>
      <trkpt lat="48.86469" lon="2.25017">
        <ele>97.7</ele>
        <time>2015-06-29T19:17:04.807Z</time>
      </trkpt>
      <trkpt lat="48.86473" lon="2.25019">
        <ele>97.6</ele>
        <time>2015-06-29T19:17:05.775Z</time>
      </trkpt>
      <trkpt lat="48.86481" lon="2.25024">
        <ele>97.3</ele>
        <time>2015-06-29T19:17:07.855Z</time>
      </trkpt>
      <trkpt lat="48.86484" lon="2.25027">
        <ele>97.1</ele>
        <time>2015-06-29T19:17:08.861Z</time>
      </trkpt>
      <trkpt lat="48.8649" lon="2.25032">
        <ele>96.6</ele>
        <time>2015-06-29T19:17:10.790Z</time>
      </trkpt>
      <trkpt lat="48.86493" lon="2.25034">
        <ele>96.7</ele>
        <time>2015-06-29T19:17:11.812Z</time>
      </trkpt>
      <trkpt lat="48.865" lon="2.25038">
        <ele>96.3</ele>
        <time>2015-06-29T19:17:14.871Z</time>
      </trkpt>
      <trkpt lat="48.86503" lon="2.25039">
        <ele>96.3</ele>
        <time>2015-06-29T19:17:15.771Z</time>
      </trkpt>
      <trkpt lat="48.86508" lon="2.25044">
        <ele>95.8</ele>
        <time>2015-06-29T19:17:18.821Z</time>
      </trkpt>
      <trkpt lat="48.86511" lon="2.25049">
        <ele>95.6</ele>
        <time>2015-06-29T19:17:19.832Z</time>
      </trkpt>
      <trkpt lat="48.86511" lon="2.25049">
        <ele>95.6</ele>
        <time>2015-06-29T19:19:43.297Z</time>
      </trkpt>
      <trkpt lat="48.86541" lon="2.25064">
        <ele>88.4</ele>
        <time>2015-06-29T19:19:44.336Z</time>
      </trkpt>
      <trkpt lat="48.86544" lon="2.25073">
        <ele>89.2</ele>
        <time>2015-06-29T19:19:47.352Z</time>
      </trkpt>
      <trkpt lat="48.86544" lon="2.25077">
        <ele>89.6</ele>
        <time>2015-06-29T19:19:48.293Z</time>
      </trkpt>
      <trkpt lat="48.86548" lon="2.25086">
        <ele>90.2</ele>
        <time>2015-06-29T19:19:50.388Z</time>
      </trkpt>
      <trkpt lat="48.8655" lon="2.2509">
        <ele>90.1</ele>
        <time>2015-06-29T19:19:51.264Z</time>
      </trkpt>
      <trkpt lat="48.86555" lon="2.25099">
        <ele>90.3</ele>
        <time>2015-06-29T19:19:53.258Z</time>
      </trkpt>
      <trkpt lat="48.86558" lon="2.25106">
        <ele>90.2</ele>
        <time>2015-06-29T19:19:54.270Z</time>
      </trkpt>
      <trkpt lat="48.86559" lon="2.25118">
        <ele>90.1</ele>
        <time>2015-06-29T19:19:56.308Z</time>
      </trkpt>
      <trkpt lat="48.8656" lon="2.25123">
        <ele>90.2</ele>
        <time>2015-06-29T19:19:57.343Z</time>
      </trkpt>
      <trkpt lat="48.86562" lon="2.25133">
        <ele>90.4</ele>
        <time>2015-06-29T19:19:59.280Z</time>
      </trkpt>
      <trkpt lat="48.86563" lon="2.25138">
        <ele>90.3</ele>
        <time>2015-06-29T19:20:00.234Z</time>
      </trkpt>
      <trkpt lat="48.86567" lon="2.25148">
        <ele>89.9</ele>
        <time>2015-06-29T19:20:02.350Z</time>
      </trkpt>
      <trkpt lat="48.86569" lon="2.25153">
        <ele>89.7</ele>
        <time>2015-06-29T19:20:03.268Z</time>
      </trkpt>
      <trkpt lat="48.86571" lon="2.25163">
        <ele>89.8</ele>
        <time>2015-06-29T19:20:05.248Z</time>
      </trkpt>
      <trkpt lat="48.86572" lon="2.25167">
        <ele>90</ele>
        <time>2015-06-29T19:20:06.253Z</time>
      </trkpt>
      <trkpt lat="48.86574" lon="2.25178">
        <ele>90.3</ele>
        <time>2015-06-29T19:20:08.275Z</time>
      </trkpt>
      <trkpt lat="48.86577" lon="2.25184">
        <ele>90.6</ele>
        <time>2015-06-29T19:20:09.284Z</time>
      </trkpt>
      <trkpt lat="48.86581" lon="2.25195">
        <ele>90.7</ele>
        <time>2015-06-29T19:20:11.298Z</time>
      </trkpt>
      <trkpt lat="48.86583" lon="2.25201">
        <ele>91</ele>
        <time>2015-06-29T19:20:12.327Z</time>
      </trkpt>
      <trkpt lat="48.86587" lon="2.25212">
        <ele>91.4</ele>
        <time>2015-06-29T19:20:14.294Z</time>
      </trkpt>
      <trkpt lat="48.86589" lon="2.25218">
        <ele>91.5</ele>
        <time>2015-06-29T19:20:15.296Z</time>
      </trkpt>
      <trkpt lat="48.86591" lon="2.25225">
        <ele>92.2</ele>
        <time>2015-06-29T19:20:16.254Z</time>
      </trkpt>
      <trkpt lat="48.86593" lon="2.2523">
        <ele>92.3</ele>
        <time>2015-06-29T19:20:17.264Z</time>
      </trkpt>
      <trkpt lat="48.86597" lon="2.25241">
        <ele>93.2</ele>
        <time>2015-06-29T19:20:19.277Z</time>
      </trkpt>
      <trkpt lat="48.86599" lon="2.25246">
        <ele>93.2</ele>
        <time>2015-06-29T19:20:20.323Z</time>
      </trkpt>
      <trkpt lat="48.86603" lon="2.25258">
        <ele>93.3</ele>
        <time>2015-06-29T19:20:22.258Z</time>
      </trkpt>
      <trkpt lat="48.86604" lon="2.25264">
        <ele>92.7</ele>
        <time>2015-06-29T19:20:23.280Z</time>
      </trkpt>
      <trkpt lat="48.86607" lon="2.25271">
        <ele>92.2</ele>
        <time>2015-06-29T19:20:24.297Z</time>
      </trkpt>
      <trkpt lat="48.8661" lon="2.25277">
        <ele>92.5</ele>
        <time>2015-06-29T19:20:25.314Z</time>
      </trkpt>
      <trkpt lat="48.86613" lon="2.25284">
        <ele>92.3</ele>
        <time>2015-06-29T19:20:26.309Z</time>
      </trkpt>
      <trkpt lat="48.86617" lon="2.2529">
        <ele>92.2</ele>
        <time>2015-06-29T19:20:27.326Z</time>
      </trkpt>
      <trkpt lat="48.86621" lon="2.25301">
        <ele>92.1</ele>
        <time>2015-06-29T19:20:29.351Z</time>
      </trkpt>
      <trkpt lat="48.86623" lon="2.25306">
        <ele>92</ele>
        <time>2015-06-29T19:20:30.272Z</time>
      </trkpt>
      <trkpt lat="48.86627" lon="2.25317">
        <ele>92</ele>
        <time>2015-06-29T19:20:32.306Z</time>
      </trkpt>
      <trkpt lat="48.8663" lon="2.25322">
        <ele>92.3</ele>
        <time>2015-06-29T19:20:33.317Z</time>
      </trkpt>
      <trkpt lat="48.86633" lon="2.25328">
        <ele>92.6</ele>
        <time>2015-06-29T19:20:34.245Z</time>
      </trkpt>
      <trkpt lat="48.86635" lon="2.25334">
        <ele>92.7</ele>
        <time>2015-06-29T19:20:35.248Z</time>
      </trkpt>
      <trkpt lat="48.86637" lon="2.25341">
        <ele>92.7</ele>
        <time>2015-06-29T19:20:36.279Z</time>
      </trkpt>
      <trkpt lat="48.86638" lon="2.25347">
        <ele>92.8</ele>
        <time>2015-06-29T19:20:37.327Z</time>
      </trkpt>
      <trkpt lat="48.8664" lon="2.25354">
        <ele>92.7</ele>
        <time>2015-06-29T19:20:38.316Z</time>
      </trkpt>
      <trkpt lat="48.86642" lon="2.2536">
        <ele>92.4</ele>
        <time>2015-06-29T19:20:39.542Z</time>
      </trkpt>
      <trkpt lat="48.86643" lon="2.25367">
        <ele>92.4</ele>
        <time>2015-06-29T19:20:40.332Z</time>
      </trkpt>
      <trkpt lat="48.86645" lon="2.25373">
        <ele>92.5</ele>
        <time>2015-06-29T19:20:41.246Z</time>
      </trkpt>
      <trkpt lat="48.86647" lon="2.2538">
        <ele>92.8</ele>
        <time>2015-06-29T19:20:42.214Z</time>
      </trkpt>
      <trkpt lat="48.86649" lon="2.25386">
        <ele>92.9</ele>
        <time>2015-06-29T19:20:43.252Z</time>
      </trkpt>
      <trkpt lat="48.86651" lon="2.25392">
        <ele>93.1</ele>
        <time>2015-06-29T19:20:44.319Z</time>
      </trkpt>
      <trkpt lat="48.86654" lon="2.25398">
        <ele>93.7</ele>
        <time>2015-06-29T19:20:45.332Z</time>
      </trkpt>
      <trkpt lat="48.86656" lon="2.25403">
        <ele>94.2</ele>
        <time>2015-06-29T19:20:46.281Z</time>
      </trkpt>
      <trkpt lat="48.86659" lon="2.25409">
        <ele>94.1</ele>
        <time>2015-06-29T19:20:47.289Z</time>
      </trkpt>
      <trkpt lat="48.86664" lon="2.2542">
        <ele>94.5</ele>
        <time>2015-06-29T19:20:49.318Z</time>
      </trkpt>
      <trkpt lat="48.86667" lon="2.25425">
        <ele>95.1</ele>
        <time>2015-06-29T19:20:50.364Z</time>
      </trkpt>
      <trkpt lat="48.8667" lon="2.25433">
        <ele>95.4</ele>
        <time>2015-06-29T19:20:52.261Z</time>
      </trkpt>
      <trkpt lat="48.86672" lon="2.25436">
        <ele>95</ele>
        <time>2015-06-29T19:20:53.284Z</time>
      </trkpt>
      <trkpt lat="48.86675" lon="2.25446">
        <ele>95.2</ele>
        <time>2015-06-29T19:20:56.353Z</time>
      </trkpt>
      <trkpt lat="48.86675" lon="2.25449">
        <ele>94.8</ele>
        <time>2015-06-29T19:20:57.278Z</time>
      </trkpt>
      <trkpt lat="48.86674" lon="2.2546">
        <ele>94.4</ele>
        <time>2015-06-29T19:21:00.250Z</time>
      </trkpt>
      <trkpt lat="48.86673" lon="2.25463">
        <ele>94</ele>
        <time>2015-06-29T19:21:01.280Z</time>
      </trkpt>
      <trkpt lat="48.86674" lon="2.25472">
        <ele>93.7</ele>
        <time>2015-06-29T19:21:05.316Z</time>
      </trkpt>
      <trkpt lat="48.86675" lon="2.25477">
        <ele>93.5</ele>
        <time>2015-06-29T19:21:06.340Z</time>
      </trkpt>
      <trkpt lat="48.86677" lon="2.25485">
        <ele>92.8</ele>
        <time>2015-06-29T19:21:08.368Z</time>
      </trkpt>
      <trkpt lat="48.86678" lon="2.2549">
        <ele>92.5</ele>
        <time>2015-06-29T19:21:09.349Z</time>
      </trkpt>
      <trkpt lat="48.8668" lon="2.255">
        <ele>92.5</ele>
        <time>2015-06-29T19:21:11.366Z</time>
      </trkpt>
      <trkpt lat="48.86681" lon="2.25506">
        <ele>92.7</ele>
        <time>2015-06-29T19:21:12.377Z</time>
      </trkpt>
      <trkpt lat="48.86684" lon="2.25516">
        <ele>93.1</ele>
        <time>2015-06-29T19:21:14.323Z</time>
      </trkpt>
      <trkpt lat="48.86685" lon="2.25522">
        <ele>93.2</ele>
        <time>2015-06-29T19:21:15.336Z</time>
      </trkpt>
      <trkpt lat="48.86688" lon="2.25532">
        <ele>93</ele>
        <time>2015-06-29T19:21:17.293Z</time>
      </trkpt>
      <trkpt lat="48.86689" lon="2.25537">
        <ele>93.2</ele>
        <time>2015-06-29T19:21:18.304Z</time>
      </trkpt>
      <trkpt lat="48.86692" lon="2.25548">
        <ele>93.6</ele>
        <time>2015-06-29T19:21:20.306Z</time>
      </trkpt>
      <trkpt lat="48.86693" lon="2.25553">
        <ele>94</ele>
        <time>2015-06-29T19:21:21.340Z</time>
      </trkpt>
      <trkpt lat="48.86695" lon="2.25564">
        <ele>94.2</ele>
        <time>2015-06-29T19:21:23.267Z</time>
      </trkpt>
      <trkpt lat="48.86696" lon="2.25569">
        <ele>94.1</ele>
        <time>2015-06-29T19:21:24.287Z</time>
      </trkpt>
      <trkpt lat="48.86699" lon="2.25579">
        <ele>94.4</ele>
        <time>2015-06-29T19:21:26.379Z</time>
      </trkpt>
      <trkpt lat="48.86701" lon="2.25585">
        <ele>94.1</ele>
        <time>2015-06-29T19:21:27.272Z</time>
      </trkpt>
      <trkpt lat="48.86703" lon="2.25597">
        <ele>94.7</ele>
        <time>2015-06-29T19:21:29.295Z</time>
      </trkpt>
      <trkpt lat="48.86704" lon="2.25603">
        <ele>94.7</ele>
        <time>2015-06-29T19:21:30.331Z</time>
      </trkpt>
      <trkpt lat="48.86706" lon="2.25615">
        <ele>94.8</ele>
        <time>2015-06-29T19:21:32.299Z</time>
      </trkpt>
      <trkpt lat="48.86707" lon="2.25621">
        <ele>95.1</ele>
        <time>2015-06-29T19:21:33.308Z</time>
      </trkpt>
      <trkpt lat="48.86708" lon="2.25633">
        <ele>94.8</ele>
        <time>2015-06-29T19:21:35.283Z</time>
      </trkpt>
      <trkpt lat="48.86709" lon="2.25639">
        <ele>94.7</ele>
        <time>2015-06-29T19:21:36.291Z</time>
      </trkpt>
      <trkpt lat="48.86711" lon="2.25652">
        <ele>95</ele>
        <time>2015-06-29T19:21:38.341Z</time>
      </trkpt>
      <trkpt lat="48.86713" lon="2.25658">
        <ele>95.1</ele>
        <time>2015-06-29T19:21:39.268Z</time>
      </trkpt>
      <trkpt lat="48.86715" lon="2.25671">
        <ele>94.8</ele>
        <time>2015-06-29T19:21:41.294Z</time>
      </trkpt>
      <trkpt lat="48.86715" lon="2.25678">
        <ele>94.4</ele>
        <time>2015-06-29T19:21:42.385Z</time>
      </trkpt>
      <trkpt lat="48.86716" lon="2.25685">
        <ele>94.5</ele>
        <time>2015-06-29T19:21:43.251Z</time>
      </trkpt>
      <trkpt lat="48.86717" lon="2.25691">
        <ele>94.6</ele>
        <time>2015-06-29T19:21:44.264Z</time>
      </trkpt>
      <trkpt lat="48.8672" lon="2.25703">
        <ele>94.3</ele>
        <time>2015-06-29T19:21:46.289Z</time>
      </trkpt>
      <trkpt lat="48.86723" lon="2.25709">
        <ele>94.9</ele>
        <time>2015-06-29T19:21:47.310Z</time>
      </trkpt>
      <trkpt lat="48.86726" lon="2.2572">
        <ele>94.9</ele>
        <time>2015-06-29T19:21:49.265Z</time>
      </trkpt>
      <trkpt lat="48.86728" lon="2.25726">
        <ele>94.7</ele>
        <time>2015-06-29T19:21:50.288Z</time>
      </trkpt>
      <trkpt lat="48.8673" lon="2.25739">
        <ele>94.5</ele>
        <time>2015-06-29T19:21:52.324Z</time>
      </trkpt>
      <trkpt lat="48.86731" lon="2.25746">
        <ele>94.2</ele>
        <time>2015-06-29T19:21:53.277Z</time>
      </trkpt>
      <trkpt lat="48.86734" lon="2.25758">
        <ele>93.7</ele>
        <time>2015-06-29T19:21:55.267Z</time>
      </trkpt>
      <trkpt lat="48.86735" lon="2.25765">
        <ele>93.8</ele>
        <time>2015-06-29T19:21:56.325Z</time>
      </trkpt>
      <trkpt lat="48.86737" lon="2.25777">
        <ele>94.3</ele>
        <time>2015-06-29T19:21:58.255Z</time>
      </trkpt>
      <trkpt lat="48.86738" lon="2.25784">
        <ele>94.4</ele>
        <time>2015-06-29T19:21:59.270Z</time>
      </trkpt>
      <trkpt lat="48.86739" lon="2.25791">
        <ele>94.4</ele>
        <time>2015-06-29T19:22:00.291Z</time>
      </trkpt>
      <trkpt lat="48.86741" lon="2.25797">
        <ele>94.6</ele>
        <time>2015-06-29T19:22:01.320Z</time>
      </trkpt>
      <trkpt lat="48.86743" lon="2.2581">
        <ele>94.9</ele>
        <time>2015-06-29T19:22:02.785Z</time>
      </trkpt>
      <trkpt lat="48.86745" lon="2.25817">
        <ele>95</ele>
        <time>2015-06-29T19:22:04.254Z</time>
      </trkpt>
      <trkpt lat="48.86747" lon="2.25823">
        <ele>95</ele>
        <time>2015-06-29T19:22:05.302Z</time>
      </trkpt>
      <trkpt lat="48.86749" lon="2.2583">
        <ele>95</ele>
        <time>2015-06-29T19:22:06.310Z</time>
      </trkpt>
      <trkpt lat="48.86751" lon="2.25842">
        <ele>95</ele>
        <time>2015-06-29T19:22:08.330Z</time>
      </trkpt>
      <trkpt lat="48.86752" lon="2.25847">
        <ele>94.9</ele>
        <time>2015-06-29T19:22:09.311Z</time>
      </trkpt>
      <trkpt lat="48.86753" lon="2.2586">
        <ele>94.4</ele>
        <time>2015-06-29T19:22:11.485Z</time>
      </trkpt>
      <trkpt lat="48.86754" lon="2.25867">
        <ele>94.3</ele>
        <time>2015-06-29T19:22:12.232Z</time>
      </trkpt>
      <trkpt lat="48.86755" lon="2.2588">
        <ele>94.1</ele>
        <time>2015-06-29T19:22:14.319Z</time>
      </trkpt>
      <trkpt lat="48.86756" lon="2.25886">
        <ele>93.8</ele>
        <time>2015-06-29T19:22:15.329Z</time>
      </trkpt>
      <trkpt lat="48.86757" lon="2.25893">
        <ele>93.3</ele>
        <time>2015-06-29T19:22:16.243Z</time>
      </trkpt>
      <trkpt lat="48.86759" lon="2.25899">
        <ele>93.1</ele>
        <time>2015-06-29T19:22:17.253Z</time>
      </trkpt>
      <trkpt lat="48.86761" lon="2.25906">
        <ele>93.3</ele>
        <time>2015-06-29T19:22:18.277Z</time>
      </trkpt>
      <trkpt lat="48.86763" lon="2.25912">
        <ele>93.2</ele>
        <time>2015-06-29T19:22:19.258Z</time>
      </trkpt>
      <trkpt lat="48.86765" lon="2.25919">
        <ele>93.5</ele>
        <time>2015-06-29T19:22:20.296Z</time>
      </trkpt>
      <trkpt lat="48.86768" lon="2.25924">
        <ele>93.6</ele>
        <time>2015-06-29T19:22:21.300Z</time>
      </trkpt>
      <trkpt lat="48.86773" lon="2.25935">
        <ele>93.8</ele>
        <time>2015-06-29T19:22:23.239Z</time>
      </trkpt>
      <trkpt lat="48.86775" lon="2.25941">
        <ele>93.4</ele>
        <time>2015-06-29T19:22:24.352Z</time>
      </trkpt>
      <trkpt lat="48.86779" lon="2.25953">
        <ele>93.4</ele>
        <time>2015-06-29T19:22:26.298Z</time>
      </trkpt>
      <trkpt lat="48.86782" lon="2.25959">
        <ele>93.4</ele>
        <time>2015-06-29T19:22:27.310Z</time>
      </trkpt>
      <trkpt lat="48.86784" lon="2.25966">
        <ele>93.4</ele>
        <time>2015-06-29T19:22:28.251Z</time>
      </trkpt>
      <trkpt lat="48.86787" lon="2.25972">
        <ele>93.6</ele>
        <time>2015-06-29T19:22:29.265Z</time>
      </trkpt>
      <trkpt lat="48.86791" lon="2.25979">
        <ele>94.1</ele>
        <time>2015-06-29T19:22:30.281Z</time>
      </trkpt>
      <trkpt lat="48.86794" lon="2.25986">
        <ele>94.4</ele>
        <time>2015-06-29T19:22:31.285Z</time>
      </trkpt>
      <trkpt lat="48.86797" lon="2.25992">
        <ele>94.3</ele>
        <time>2015-06-29T19:22:32.301Z</time>
      </trkpt>
      <trkpt lat="48.868" lon="2.25999">
        <ele>93.5</ele>
        <time>2015-06-29T19:22:33.312Z</time>
      </trkpt>
      <trkpt lat="48.86803" lon="2.26005">
        <ele>93.3</ele>
        <time>2015-06-29T19:22:34.490Z</time>
      </trkpt>
      <trkpt lat="48.86806" lon="2.26011">
        <ele>93.5</ele>
        <time>2015-06-29T19:22:35.243Z</time>
      </trkpt>
      <trkpt lat="48.86811" lon="2.26021">
        <ele>93.2</ele>
        <time>2015-06-29T19:22:37.263Z</time>
      </trkpt>
      <trkpt lat="48.86813" lon="2.26027">
        <ele>93.2</ele>
        <time>2015-06-29T19:22:38.343Z</time>
      </trkpt>
      <trkpt lat="48.86816" lon="2.26039">
        <ele>93.3</ele>
        <time>2015-06-29T19:22:40.251Z</time>
      </trkpt>
      <trkpt lat="48.86818" lon="2.26046">
        <ele>93.5</ele>
        <time>2015-06-29T19:22:41.289Z</time>
      </trkpt>
      <trkpt lat="48.86822" lon="2.26052">
        <ele>93.9</ele>
        <time>2015-06-29T19:22:42.254Z</time>
      </trkpt>
      <trkpt lat="48.86825" lon="2.26059">
        <ele>93.9</ele>
        <time>2015-06-29T19:22:43.242Z</time>
      </trkpt>
      <trkpt lat="48.86827" lon="2.26067">
        <ele>94.3</ele>
        <time>2015-06-29T19:22:44.301Z</time>
      </trkpt>
      <trkpt lat="48.86829" lon="2.26076">
        <ele>94.7</ele>
        <time>2015-06-29T19:22:45.311Z</time>
      </trkpt>
      <trkpt lat="48.86832" lon="2.26083">
        <ele>94.9</ele>
        <time>2015-06-29T19:22:46.322Z</time>
      </trkpt>
      <trkpt lat="48.86835" lon="2.26091">
        <ele>94.9</ele>
        <time>2015-06-29T19:22:47.242Z</time>
      </trkpt>
      <trkpt lat="48.86837" lon="2.26098">
        <ele>94.8</ele>
        <time>2015-06-29T19:22:48.246Z</time>
      </trkpt>
      <trkpt lat="48.86839" lon="2.26105">
        <ele>94.6</ele>
        <time>2015-06-29T19:22:49.251Z</time>
      </trkpt>
      <trkpt lat="48.8684" lon="2.26114">
        <ele>94.5</ele>
        <time>2015-06-29T19:22:50.288Z</time>
      </trkpt>
      <trkpt lat="48.86842" lon="2.26122">
        <ele>94.7</ele>
        <time>2015-06-29T19:22:51.294Z</time>
      </trkpt>
      <trkpt lat="48.86845" lon="2.26129">
        <ele>95.2</ele>
        <time>2015-06-29T19:22:52.299Z</time>
      </trkpt>
      <trkpt lat="48.86849" lon="2.26137">
        <ele>95.1</ele>
        <time>2015-06-29T19:22:53.305Z</time>
      </trkpt>
      <trkpt lat="48.8685" lon="2.26144">
        <ele>95.5</ele>
        <time>2015-06-29T19:22:54.306Z</time>
      </trkpt>
      <trkpt lat="48.86852" lon="2.2615">
        <ele>95.6</ele>
        <time>2015-06-29T19:22:55.321Z</time>
      </trkpt>
      <trkpt lat="48.86855" lon="2.26163">
        <ele>96.2</ele>
        <time>2015-06-29T19:22:57.365Z</time>
      </trkpt>
      <trkpt lat="48.86855" lon="2.2617">
        <ele>96</ele>
        <time>2015-06-29T19:22:58.241Z</time>
      </trkpt>
      <trkpt lat="48.86857" lon="2.26181">
        <ele>95.4</ele>
        <time>2015-06-29T19:23:00.287Z</time>
      </trkpt>
      <trkpt lat="48.86858" lon="2.26185">
        <ele>95.5</ele>
        <time>2015-06-29T19:23:01.291Z</time>
      </trkpt>
      <trkpt lat="48.86858" lon="2.26196">
        <ele>96.3</ele>
        <time>2015-06-29T19:23:03.319Z</time>
      </trkpt>
      <trkpt lat="48.86858" lon="2.26202">
        <ele>96.6</ele>
        <time>2015-06-29T19:23:04.355Z</time>
      </trkpt>
      <trkpt lat="48.86859" lon="2.26212">
        <ele>96.7</ele>
        <time>2015-06-29T19:23:06.241Z</time>
      </trkpt>
      <trkpt lat="48.86859" lon="2.26216">
        <ele>96.8</ele>
        <time>2015-06-29T19:23:07.282Z</time>
      </trkpt>
      <trkpt lat="48.8686" lon="2.26225">
        <ele>96.7</ele>
        <time>2015-06-29T19:23:09.294Z</time>
      </trkpt>
      <trkpt lat="48.86858" lon="2.2623">
        <ele>95.3</ele>
        <time>2015-06-29T19:23:10.315Z</time>
      </trkpt>
      <trkpt lat="48.86856" lon="2.26241">
        <ele>93.2</ele>
        <time>2015-06-29T19:23:12.323Z</time>
      </trkpt>
      <trkpt lat="48.86855" lon="2.26246">
        <ele>92.9</ele>
        <time>2015-06-29T19:23:13.281Z</time>
      </trkpt>
      <trkpt lat="48.86855" lon="2.26258">
        <ele>93.1</ele>
        <time>2015-06-29T19:23:16.336Z</time>
      </trkpt>
      <trkpt lat="48.86855" lon="2.26262">
        <ele>93.3</ele>
        <time>2015-06-29T19:23:17.334Z</time>
      </trkpt>
      <trkpt lat="48.86855" lon="2.26275">
        <ele>92.9</ele>
        <time>2015-06-29T19:23:21.368Z</time>
      </trkpt>
      <trkpt lat="48.86854" lon="2.26279">
        <ele>92.1</ele>
        <time>2015-06-29T19:23:22.304Z</time>
      </trkpt>
      <trkpt lat="48.86849" lon="2.2629">
        <ele>91.7</ele>
        <time>2015-06-29T19:23:27.374Z</time>
      </trkpt>
      <trkpt lat="48.86849" lon="2.26293">
        <ele>91.5</ele>
        <time>2015-06-29T19:23:28.293Z</time>
      </trkpt>
      <trkpt lat="48.86849" lon="2.26305">
        <ele>90.5</ele>
        <time>2015-06-29T19:23:31.328Z</time>
      </trkpt>
      <trkpt lat="48.86849" lon="2.26309">
        <ele>90.5</ele>
        <time>2015-06-29T19:23:32.346Z</time>
      </trkpt>
      <trkpt lat="48.86848" lon="2.26319">
        <ele>90.6</ele>
        <time>2015-06-29T19:23:34.295Z</time>
      </trkpt>
      <trkpt lat="48.86848" lon="2.26323">
        <ele>90.5</ele>
        <time>2015-06-29T19:23:35.377Z</time>
      </trkpt>
      <trkpt lat="48.86847" lon="2.26332">
        <ele>89.3</ele>
        <time>2015-06-29T19:23:37.305Z</time>
      </trkpt>
      <trkpt lat="48.86847" lon="2.26337">
        <ele>89.1</ele>
        <time>2015-06-29T19:23:38.353Z</time>
      </trkpt>
      <trkpt lat="48.86847" lon="2.26346">
        <ele>88.4</ele>
        <time>2015-06-29T19:23:40.258Z</time>
      </trkpt>
      <trkpt lat="48.86848" lon="2.26351">
        <ele>88.3</ele>
        <time>2015-06-29T19:23:41.299Z</time>
      </trkpt>
      <trkpt lat="48.86849" lon="2.26361">
        <ele>88.6</ele>
        <time>2015-06-29T19:23:43.963Z</time>
      </trkpt>
      <trkpt lat="48.86849" lon="2.26366">
        <ele>88.5</ele>
        <time>2015-06-29T19:23:44.339Z</time>
      </trkpt>
      <trkpt lat="48.86849" lon="2.26377">
        <ele>88.3</ele>
        <time>2015-06-29T19:23:46.309Z</time>
      </trkpt>
      <trkpt lat="48.86848" lon="2.26382">
        <ele>88.3</ele>
        <time>2015-06-29T19:23:47.327Z</time>
      </trkpt>
      <trkpt lat="48.86849" lon="2.26392">
        <ele>88.1</ele>
        <time>2015-06-29T19:23:49.312Z</time>
      </trkpt>
      <trkpt lat="48.86851" lon="2.26397">
        <ele>87.9</ele>
        <time>2015-06-29T19:23:50.355Z</time>
      </trkpt>
      <trkpt lat="48.86853" lon="2.26406">
        <ele>88</ele>
        <time>2015-06-29T19:23:52.402Z</time>
      </trkpt>
      <trkpt lat="48.86853" lon="2.26412">
        <ele>87.9</ele>
        <time>2015-06-29T19:23:53.421Z</time>
      </trkpt>
      <trkpt lat="48.86855" lon="2.26425">
        <ele>88</ele>
        <time>2015-06-29T19:23:55.447Z</time>
      </trkpt>
      <trkpt lat="48.86855" lon="2.26431">
        <ele>88.2</ele>
        <time>2015-06-29T19:23:56.543Z</time>
      </trkpt>
      <trkpt lat="48.86857" lon="2.26441">
        <ele>88.6</ele>
        <time>2015-06-29T19:23:59.296Z</time>
      </trkpt>
      <trkpt lat="48.86858" lon="2.26446">
        <ele>88.8</ele>
        <time>2015-06-29T19:23:59.397Z</time>
      </trkpt>
      <trkpt lat="48.86858" lon="2.26455">
        <ele>89</ele>
        <time>2015-06-29T19:24:01.428Z</time>
      </trkpt>
      <trkpt lat="48.86857" lon="2.2646">
        <ele>89.2</ele>
        <time>2015-06-29T19:24:02.505Z</time>
      </trkpt>
      <trkpt lat="48.86855" lon="2.2647">
        <ele>89.7</ele>
        <time>2015-06-29T19:24:04.329Z</time>
      </trkpt>
      <trkpt lat="48.86855" lon="2.26474">
        <ele>89.5</ele>
        <time>2015-06-29T19:24:05.455Z</time>
      </trkpt>
      <trkpt lat="48.86853" lon="2.26486">
        <ele>89.5</ele>
        <time>2015-06-29T19:24:08.589Z</time>
      </trkpt>
      <trkpt lat="48.86853" lon="2.26489">
        <ele>89.1</ele>
        <time>2015-06-29T19:24:09.485Z</time>
      </trkpt>
      <trkpt lat="48.8685" lon="2.265">
        <ele>88.9</ele>
        <time>2015-06-29T19:24:12.466Z</time>
      </trkpt>
      <trkpt lat="48.86849" lon="2.26503">
        <ele>88.7</ele>
        <time>2015-06-29T19:24:13.387Z</time>
      </trkpt>
      <trkpt lat="48.86846" lon="2.26512">
        <ele>89.4</ele>
        <time>2015-06-29T19:24:16.548Z</time>
      </trkpt>
      <trkpt lat="48.86845" lon="2.26515">
        <ele>89.4</ele>
        <time>2015-06-29T19:24:17.475Z</time>
      </trkpt>
      <trkpt lat="48.86844" lon="2.26527">
        <ele>89.6</ele>
        <time>2015-06-29T19:24:22.486Z</time>
      </trkpt>
      <trkpt lat="48.86844" lon="2.26529">
        <ele>89.6</ele>
        <time>2015-06-29T19:24:23.437Z</time>
      </trkpt>
      <trkpt lat="48.86838" lon="2.26539">
        <ele>90.1</ele>
        <time>2015-06-29T19:24:28.438Z</time>
      </trkpt>
      <trkpt lat="48.86837" lon="2.2654">
        <ele>90.3</ele>
        <time>2015-06-29T19:24:29.497Z</time>
      </trkpt>
      <trkpt lat="48.86831" lon="2.26547">
        <ele>90.8</ele>
        <time>2015-06-29T19:24:34.765Z</time>
      </trkpt>
      <trkpt lat="48.86829" lon="2.26549">
        <ele>90.8</ele>
        <time>2015-06-29T19:24:35.444Z</time>
      </trkpt>
      <trkpt lat="48.86822" lon="2.26556">
        <ele>90.5</ele>
        <time>2015-06-29T19:24:39.820Z</time>
      </trkpt>
      <trkpt lat="48.86819" lon="2.26557">
        <ele>90.5</ele>
        <time>2015-06-29T19:24:40.455Z</time>
      </trkpt>
      <trkpt lat="48.86818" lon="2.26558">
        <ele>90.4</ele>
        <time>2015-06-29T19:24:41.481Z</time>
      </trkpt>
      <trkpt lat="48.86817" lon="2.26558">
        <ele>89.6</ele>
        <time>2015-06-29T19:24:42.486Z</time>
      </trkpt>
      <trkpt lat="48.86818" lon="2.26557">
        <ele>89.4</ele>
        <time>2015-06-29T19:24:54.989Z</time>
      </trkpt>
      <trkpt lat="48.86811" lon="2.26567">
        <ele>89.9</ele>
        <time>2015-06-29T19:24:55.408Z</time>
      </trkpt>
      <trkpt lat="48.86805" lon="2.26569">
        <ele>90.2</ele>
        <time>2015-06-29T19:24:58.462Z</time>
      </trkpt>
      <trkpt lat="48.86802" lon="2.26571">
        <ele>90.3</ele>
        <time>2015-06-29T19:24:59.471Z</time>
      </trkpt>
      <trkpt lat="48.86794" lon="2.26573">
        <ele>90.8</ele>
        <time>2015-06-29T19:25:02.453Z</time>
      </trkpt>
      <trkpt lat="48.86792" lon="2.26574">
        <ele>91</ele>
        <time>2015-06-29T19:25:03.448Z</time>
      </trkpt>
      <trkpt lat="48.86785" lon="2.26572">
        <ele>91</ele>
        <time>2015-06-29T19:25:34.699Z</time>
      </trkpt>
      <trkpt lat="48.86783" lon="2.26572">
        <ele>91</ele>
        <time>2015-06-29T19:25:35.419Z</time>
      </trkpt>
      <trkpt lat="48.86775" lon="2.26571">
        <ele>91.3</ele>
        <time>2015-06-29T19:25:38.512Z</time>
      </trkpt>
      <trkpt lat="48.86772" lon="2.2657">
        <ele>91.2</ele>
        <time>2015-06-29T19:25:39.430Z</time>
      </trkpt>
      <trkpt lat="48.86767" lon="2.26567">
        <ele>91.3</ele>
        <time>2015-06-29T19:25:41.471Z</time>
      </trkpt>
      <trkpt lat="48.86764" lon="2.26565">
        <ele>91.3</ele>
        <time>2015-06-29T19:25:42.493Z</time>
      </trkpt>
      <trkpt lat="48.86758" lon="2.2656">
        <ele>91.4</ele>
        <time>2015-06-29T19:25:44.846Z</time>
      </trkpt>
      <trkpt lat="48.86755" lon="2.26557">
        <ele>91.3</ele>
        <time>2015-06-29T19:25:45.538Z</time>
      </trkpt>
      <trkpt lat="48.86748" lon="2.26551">
        <ele>91.5</ele>
        <time>2015-06-29T19:25:47.450Z</time>
      </trkpt>
      <trkpt lat="48.86745" lon="2.26549">
        <ele>91.8</ele>
        <time>2015-06-29T19:25:48.458Z</time>
      </trkpt>
      <trkpt lat="48.86739" lon="2.26542">
        <ele>91.9</ele>
        <time>2015-06-29T19:25:50.501Z</time>
      </trkpt>
      <trkpt lat="48.86735" lon="2.26539">
        <ele>92</ele>
        <time>2015-06-29T19:25:51.438Z</time>
      </trkpt>
      <trkpt lat="48.86728" lon="2.26533">
        <ele>92.2</ele>
        <time>2015-06-29T19:25:53.463Z</time>
      </trkpt>
      <trkpt lat="48.86724" lon="2.2653">
        <ele>92.3</ele>
        <time>2015-06-29T19:25:54.470Z</time>
      </trkpt>
      <trkpt lat="48.8672" lon="2.26526">
        <ele>92.3</ele>
        <time>2015-06-29T19:25:55.557Z</time>
      </trkpt>
      <trkpt lat="48.86716" lon="2.26523">
        <ele>92.4</ele>
        <time>2015-06-29T19:25:56.468Z</time>
      </trkpt>
      <trkpt lat="48.86708" lon="2.26515">
        <ele>92.3</ele>
        <time>2015-06-29T19:25:58.489Z</time>
      </trkpt>
      <trkpt lat="48.86705" lon="2.26512">
        <ele>92.5</ele>
        <time>2015-06-29T19:25:59.378Z</time>
      </trkpt>
      <trkpt lat="48.86697" lon="2.26504">
        <ele>92.4</ele>
        <time>2015-06-29T19:26:01.503Z</time>
      </trkpt>
      <trkpt lat="48.86693" lon="2.265">
        <ele>92.6</ele>
        <time>2015-06-29T19:26:02.543Z</time>
      </trkpt>
      <trkpt lat="48.86689" lon="2.26495">
        <ele>92.6</ele>
        <time>2015-06-29T19:26:03.412Z</time>
      </trkpt>
      <trkpt lat="48.86685" lon="2.26491">
        <ele>92.8</ele>
        <time>2015-06-29T19:26:04.449Z</time>
      </trkpt>
      <trkpt lat="48.86682" lon="2.26487">
        <ele>93.1</ele>
        <time>2015-06-29T19:26:05.402Z</time>
      </trkpt>
      <trkpt lat="48.86678" lon="2.26484">
        <ele>93.3</ele>
        <time>2015-06-29T19:26:06.416Z</time>
      </trkpt>
      <trkpt lat="48.86671" lon="2.26476">
        <ele>94.2</ele>
        <time>2015-06-29T19:26:08.442Z</time>
      </trkpt>
      <trkpt lat="48.86667" lon="2.26473">
        <ele>94.2</ele>
        <time>2015-06-29T19:26:09.455Z</time>
      </trkpt>
      <trkpt lat="48.86662" lon="2.26466">
        <ele>94.4</ele>
        <time>2015-06-29T19:26:11.412Z</time>
      </trkpt>
      <trkpt lat="48.8666" lon="2.26463">
        <ele>94.8</ele>
        <time>2015-06-29T19:26:12.435Z</time>
      </trkpt>
      <trkpt lat="48.86655" lon="2.26456">
        <ele>94.3</ele>
        <time>2015-06-29T19:26:14.445Z</time>
      </trkpt>
      <trkpt lat="48.86652" lon="2.26452">
        <ele>94.5</ele>
        <time>2015-06-29T19:26:15.481Z</time>
      </trkpt>
      <trkpt lat="48.86646" lon="2.26445">
        <ele>94.5</ele>
        <time>2015-06-29T19:26:17.407Z</time>
      </trkpt>
      <trkpt lat="48.86643" lon="2.26441">
        <ele>94.4</ele>
        <time>2015-06-29T19:26:18.429Z</time>
      </trkpt>
      <trkpt lat="48.86637" lon="2.26431">
        <ele>93.9</ele>
        <time>2015-06-29T19:26:20.464Z</time>
      </trkpt>
      <trkpt lat="48.86634" lon="2.26425">
        <ele>93.7</ele>
        <time>2015-06-29T19:26:21.494Z</time>
      </trkpt>
      <trkpt lat="48.86628" lon="2.26416">
        <ele>93.8</ele>
        <time>2015-06-29T19:26:23.433Z</time>
      </trkpt>
      <trkpt lat="48.86625" lon="2.26412">
        <ele>93.7</ele>
        <time>2015-06-29T19:26:24.607Z</time>
      </trkpt>
      <trkpt lat="48.8662" lon="2.26403">
        <ele>94.2</ele>
        <time>2015-06-29T19:26:26.477Z</time>
      </trkpt>
      <trkpt lat="48.86617" lon="2.26399">
        <ele>94.4</ele>
        <time>2015-06-29T19:26:27.487Z</time>
      </trkpt>
      <trkpt lat="48.86611" lon="2.26388">
        <ele>94.3</ele>
        <time>2015-06-29T19:26:29.410Z</time>
      </trkpt>
      <trkpt lat="48.86609" lon="2.26382">
        <ele>94</ele>
        <time>2015-06-29T19:26:30.454Z</time>
      </trkpt>
      <trkpt lat="48.86604" lon="2.26372">
        <ele>93.8</ele>
        <time>2015-06-29T19:26:32.517Z</time>
      </trkpt>
      <trkpt lat="48.866" lon="2.26367">
        <ele>93.6</ele>
        <time>2015-06-29T19:26:33.403Z</time>
      </trkpt>
      <trkpt lat="48.86597" lon="2.26363">
        <ele>93.4</ele>
        <time>2015-06-29T19:26:34.418Z</time>
      </trkpt>
      <trkpt lat="48.86593" lon="2.26359">
        <ele>93.5</ele>
        <time>2015-06-29T19:26:35.447Z</time>
      </trkpt>
      <trkpt lat="48.86588" lon="2.26355">
        <ele>93.4</ele>
        <time>2015-06-29T19:26:36.461Z</time>
      </trkpt>
      <trkpt lat="48.86584" lon="2.2635">
        <ele>93.4</ele>
        <time>2015-06-29T19:26:37.467Z</time>
      </trkpt>
      <trkpt lat="48.86578" lon="2.26346">
        <ele>93.4</ele>
        <time>2015-06-29T19:26:38.488Z</time>
      </trkpt>
      <trkpt lat="48.86574" lon="2.26342">
        <ele>93.5</ele>
        <time>2015-06-29T19:26:39.505Z</time>
      </trkpt>
      <trkpt lat="48.8657" lon="2.26339">
        <ele>93.4</ele>
        <time>2015-06-29T19:26:40.412Z</time>
      </trkpt>
      <trkpt lat="48.86565" lon="2.26337">
        <ele>93.4</ele>
        <time>2015-06-29T19:26:41.422Z</time>
      </trkpt>
      <trkpt lat="48.8656" lon="2.26335">
        <ele>93.4</ele>
        <time>2015-06-29T19:26:42.435Z</time>
      </trkpt>
      <trkpt lat="48.86556" lon="2.26333">
        <ele>93.3</ele>
        <time>2015-06-29T19:26:43.439Z</time>
      </trkpt>
      <trkpt lat="48.8655" lon="2.26332">
        <ele>93.8</ele>
        <time>2015-06-29T19:26:44.494Z</time>
      </trkpt>
      <trkpt lat="48.86545" lon="2.2633">
        <ele>93.9</ele>
        <time>2015-06-29T19:26:45.414Z</time>
      </trkpt>
      <trkpt lat="48.8654" lon="2.2633">
        <ele>94</ele>
        <time>2015-06-29T19:26:46.415Z</time>
      </trkpt>
      <trkpt lat="48.86535" lon="2.26329">
        <ele>94.4</ele>
        <time>2015-06-29T19:26:47.430Z</time>
      </trkpt>
      <trkpt lat="48.86531" lon="2.26328">
        <ele>94.7</ele>
        <time>2015-06-29T19:26:48.473Z</time>
      </trkpt>
      <trkpt lat="48.86526" lon="2.26327">
        <ele>94.7</ele>
        <time>2015-06-29T19:26:49.390Z</time>
      </trkpt>
      <trkpt lat="48.86521" lon="2.26326">
        <ele>94.8</ele>
        <time>2015-06-29T19:26:50.497Z</time>
      </trkpt>
      <trkpt lat="48.86516" lon="2.26325">
        <ele>94.8</ele>
        <time>2015-06-29T19:26:51.390Z</time>
      </trkpt>
      <trkpt lat="48.86511" lon="2.26324">
        <ele>95.3</ele>
        <time>2015-06-29T19:26:52.398Z</time>
      </trkpt>
      <trkpt lat="48.86506" lon="2.26322">
        <ele>95.4</ele>
        <time>2015-06-29T19:26:53.404Z</time>
      </trkpt>
      <trkpt lat="48.86501" lon="2.2632">
        <ele>95.2</ele>
        <time>2015-06-29T19:26:54.412Z</time>
      </trkpt>
      <trkpt lat="48.86496" lon="2.26318">
        <ele>95.2</ele>
        <time>2015-06-29T19:26:55.426Z</time>
      </trkpt>
      <trkpt lat="48.86492" lon="2.26317">
        <ele>95.3</ele>
        <time>2015-06-29T19:26:56.450Z</time>
      </trkpt>
      <trkpt lat="48.86486" lon="2.26315">
        <ele>95.5</ele>
        <time>2015-06-29T19:26:57.457Z</time>
      </trkpt>
      <trkpt lat="48.86481" lon="2.26312">
        <ele>96</ele>
        <time>2015-06-29T19:26:58.467Z</time>
      </trkpt>
      <trkpt lat="48.86475" lon="2.26308">
        <ele>96.3</ele>
        <time>2015-06-29T19:26:59.473Z</time>
      </trkpt>
      <trkpt lat="48.8647" lon="2.26305">
        <ele>96.4</ele>
        <time>2015-06-29T19:27:00.367Z</time>
      </trkpt>
      <trkpt lat="48.86465" lon="2.26301">
        <ele>96.6</ele>
        <time>2015-06-29T19:27:01.391Z</time>
      </trkpt>
      <trkpt lat="48.8646" lon="2.26297">
        <ele>96.8</ele>
        <time>2015-06-29T19:27:02.447Z</time>
      </trkpt>
      <trkpt lat="48.86455" lon="2.26291">
        <ele>96.8</ele>
        <time>2015-06-29T19:27:03.452Z</time>
      </trkpt>
      <trkpt lat="48.86451" lon="2.26286">
        <ele>97.2</ele>
        <time>2015-06-29T19:27:04.403Z</time>
      </trkpt>
      <trkpt lat="48.86446" lon="2.26279">
        <ele>96.9</ele>
        <time>2015-06-29T19:27:05.407Z</time>
      </trkpt>
      <trkpt lat="48.86442" lon="2.26273">
        <ele>96.9</ele>
        <time>2015-06-29T19:27:06.413Z</time>
      </trkpt>
      <trkpt lat="48.86438" lon="2.26267">
        <ele>96.9</ele>
        <time>2015-06-29T19:27:07.422Z</time>
      </trkpt>
      <trkpt lat="48.86433" lon="2.26261">
        <ele>96.6</ele>
        <time>2015-06-29T19:27:08.455Z</time>
      </trkpt>
      <trkpt lat="48.86428" lon="2.26256">
        <ele>96.6</ele>
        <time>2015-06-29T19:27:09.459Z</time>
      </trkpt>
      <trkpt lat="48.86424" lon="2.26251">
        <ele>96.8</ele>
        <time>2015-06-29T19:27:10.473Z</time>
      </trkpt>
      <trkpt lat="48.86419" lon="2.26246">
        <ele>96.8</ele>
        <time>2015-06-29T19:27:11.485Z</time>
      </trkpt>
      <trkpt lat="48.86415" lon="2.26241">
        <ele>96.7</ele>
        <time>2015-06-29T19:27:12.402Z</time>
      </trkpt>
      <trkpt lat="48.8641" lon="2.26236">
        <ele>96.7</ele>
        <time>2015-06-29T19:27:13.404Z</time>
      </trkpt>
      <trkpt lat="48.86405" lon="2.26232">
        <ele>96.7</ele>
        <time>2015-06-29T19:27:14.455Z</time>
      </trkpt>
      <trkpt lat="48.864" lon="2.26229">
        <ele>96.6</ele>
        <time>2015-06-29T19:27:15.452Z</time>
      </trkpt>
      <trkpt lat="48.86395" lon="2.26226">
        <ele>96.9</ele>
        <time>2015-06-29T19:27:16.472Z</time>
      </trkpt>
      <trkpt lat="48.8639" lon="2.26224">
        <ele>96.7</ele>
        <time>2015-06-29T19:27:17.480Z</time>
      </trkpt>
      <trkpt lat="48.86385" lon="2.26221">
        <ele>96.6</ele>
        <time>2015-06-29T19:27:18.411Z</time>
      </trkpt>
      <trkpt lat="48.8638" lon="2.26219">
        <ele>96.4</ele>
        <time>2015-06-29T19:27:19.412Z</time>
      </trkpt>
      <trkpt lat="48.86372" lon="2.26214">
        <ele>96.1</ele>
        <time>2015-06-29T19:27:21.454Z</time>
      </trkpt>
      <trkpt lat="48.86368" lon="2.26211">
        <ele>96</ele>
        <time>2015-06-29T19:27:22.508Z</time>
      </trkpt>
      <trkpt lat="48.86361" lon="2.26204">
        <ele>95.2</ele>
        <time>2015-06-29T19:27:24.425Z</time>
      </trkpt>
      <trkpt lat="48.86357" lon="2.26202">
        <ele>95.1</ele>
        <time>2015-06-29T19:27:25.441Z</time>
      </trkpt>
      <trkpt lat="48.86353" lon="2.262">
        <ele>94.8</ele>
        <time>2015-06-29T19:27:26.476Z</time>
      </trkpt>
      <trkpt lat="48.86348" lon="2.26199">
        <ele>94.6</ele>
        <time>2015-06-29T19:27:27.486Z</time>
      </trkpt>
      <trkpt lat="48.8634" lon="2.26196">
        <ele>94.8</ele>
        <time>2015-06-29T19:27:29.416Z</time>
      </trkpt>
      <trkpt lat="48.86335" lon="2.26196">
        <ele>94.9</ele>
        <time>2015-06-29T19:27:30.443Z</time>
      </trkpt>
      <trkpt lat="48.8633" lon="2.26196">
        <ele>94.8</ele>
        <time>2015-06-29T19:27:31.462Z</time>
      </trkpt>
      <trkpt lat="48.86326" lon="2.26196">
        <ele>94.5</ele>
        <time>2015-06-29T19:27:32.470Z</time>
      </trkpt>
      <trkpt lat="48.86321" lon="2.26196">
        <ele>94.1</ele>
        <time>2015-06-29T19:27:33.485Z</time>
      </trkpt>
      <trkpt lat="48.86316" lon="2.26197">
        <ele>94.1</ele>
        <time>2015-06-29T19:27:34.408Z</time>
      </trkpt>
      <trkpt lat="48.86307" lon="2.26199">
        <ele>94</ele>
        <time>2015-06-29T19:27:36.418Z</time>
      </trkpt>
      <trkpt lat="48.86303" lon="2.262">
        <ele>94.3</ele>
        <time>2015-06-29T19:27:37.407Z</time>
      </trkpt>
      <trkpt lat="48.86294" lon="2.26202">
        <ele>94.4</ele>
        <time>2015-06-29T19:27:39.388Z</time>
      </trkpt>
      <trkpt lat="48.8629" lon="2.26203">
        <ele>94.4</ele>
        <time>2015-06-29T19:27:40.373Z</time>
      </trkpt>
      <trkpt lat="48.86285" lon="2.26203">
        <ele>94.3</ele>
        <time>2015-06-29T19:27:41.418Z</time>
      </trkpt>
      <trkpt lat="48.8628" lon="2.26203">
        <ele>94.5</ele>
        <time>2015-06-29T19:27:42.412Z</time>
      </trkpt>
      <trkpt lat="48.86272" lon="2.26204">
        <ele>94.6</ele>
        <time>2015-06-29T19:27:44.492Z</time>
      </trkpt>
      <trkpt lat="48.86267" lon="2.26204">
        <ele>94.5</ele>
        <time>2015-06-29T19:27:45.467Z</time>
      </trkpt>
      <trkpt lat="48.86262" lon="2.26204">
        <ele>94.3</ele>
        <time>2015-06-29T19:27:46.369Z</time>
      </trkpt>
      <trkpt lat="48.86257" lon="2.26204">
        <ele>94.3</ele>
        <time>2015-06-29T19:27:47.407Z</time>
      </trkpt>
      <trkpt lat="48.86252" lon="2.26204">
        <ele>94.1</ele>
        <time>2015-06-29T19:27:48.434Z</time>
      </trkpt>
      <trkpt lat="48.86247" lon="2.26203">
        <ele>93.9</ele>
        <time>2015-06-29T19:27:49.480Z</time>
      </trkpt>
      <trkpt lat="48.86242" lon="2.26203">
        <ele>93.8</ele>
        <time>2015-06-29T19:27:50.965Z</time>
      </trkpt>
      <trkpt lat="48.86237" lon="2.26202">
        <ele>94.1</ele>
        <time>2015-06-29T19:27:51.408Z</time>
      </trkpt>
      <trkpt lat="48.86232" lon="2.26202">
        <ele>94</ele>
        <time>2015-06-29T19:27:52.408Z</time>
      </trkpt>
      <trkpt lat="48.86227" lon="2.262">
        <ele>94.2</ele>
        <time>2015-06-29T19:27:53.404Z</time>
      </trkpt>
      <trkpt lat="48.86218" lon="2.26197">
        <ele>95.2</ele>
        <time>2015-06-29T19:27:56.002Z</time>
      </trkpt>
      <trkpt lat="48.86214" lon="2.26195">
        <ele>95.7</ele>
        <time>2015-06-29T19:27:56.471Z</time>
      </trkpt>
      <trkpt lat="48.86206" lon="2.2619">
        <ele>96.5</ele>
        <time>2015-06-29T19:27:58.414Z</time>
      </trkpt>
      <trkpt lat="48.86202" lon="2.26187">
        <ele>96.9</ele>
        <time>2015-06-29T19:27:59.453Z</time>
      </trkpt>
      <trkpt lat="48.86197" lon="2.26179">
        <ele>96.5</ele>
        <time>2015-06-29T19:28:01.364Z</time>
      </trkpt>
      <trkpt lat="48.86195" lon="2.26175">
        <ele>96.5</ele>
        <time>2015-06-29T19:28:02.594Z</time>
      </trkpt>
      <trkpt lat="48.86189" lon="2.26168">
        <ele>96.6</ele>
        <time>2015-06-29T19:28:04.409Z</time>
      </trkpt>
      <trkpt lat="48.86186" lon="2.26165">
        <ele>96.7</ele>
        <time>2015-06-29T19:28:05.415Z</time>
      </trkpt>
      <trkpt lat="48.8618" lon="2.2616">
        <ele>96.8</ele>
        <time>2015-06-29T19:28:07.407Z</time>
      </trkpt>
      <trkpt lat="48.86177" lon="2.26157">
        <ele>96.7</ele>
        <time>2015-06-29T19:28:08.442Z</time>
      </trkpt>
      <trkpt lat="48.86172" lon="2.26151">
        <ele>96.5</ele>
        <time>2015-06-29T19:28:10.472Z</time>
      </trkpt>
      <trkpt lat="48.8617" lon="2.26148">
        <ele>96.4</ele>
        <time>2015-06-29T19:28:11.526Z</time>
      </trkpt>
      <trkpt lat="48.86165" lon="2.26143">
        <ele>96.8</ele>
        <time>2015-06-29T19:28:13.471Z</time>
      </trkpt>
      <trkpt lat="48.86162" lon="2.2614">
        <ele>97.2</ele>
        <time>2015-06-29T19:28:14.669Z</time>
      </trkpt>
      <trkpt lat="48.86157" lon="2.26134">
        <ele>97</ele>
        <time>2015-06-29T19:28:16.434Z</time>
      </trkpt>
      <trkpt lat="48.86154" lon="2.26132">
        <ele>97.1</ele>
        <time>2015-06-29T19:28:17.425Z</time>
      </trkpt>
      <trkpt lat="48.8615" lon="2.26125">
        <ele>97.3</ele>
        <time>2015-06-29T19:28:19.440Z</time>
      </trkpt>
      <trkpt lat="48.86147" lon="2.26121">
        <ele>97.1</ele>
        <time>2015-06-29T19:28:20.520Z</time>
      </trkpt>
      <trkpt lat="48.86142" lon="2.26114">
        <ele>97</ele>
        <time>2015-06-29T19:28:22.490Z</time>
      </trkpt>
      <trkpt lat="48.8614" lon="2.2611">
        <ele>97</ele>
        <time>2015-06-29T19:28:23.430Z</time>
      </trkpt>
      <trkpt lat="48.86135" lon="2.26104">
        <ele>97</ele>
        <time>2015-06-29T19:28:25.423Z</time>
      </trkpt>
      <trkpt lat="48.86132" lon="2.26101">
        <ele>97.1</ele>
        <time>2015-06-29T19:28:26.486Z</time>
      </trkpt>
      <trkpt lat="48.86128" lon="2.26095">
        <ele>97.4</ele>
        <time>2015-06-29T19:28:28.406Z</time>
      </trkpt>
      <trkpt lat="48.86125" lon="2.26092">
        <ele>97.5</ele>
        <time>2015-06-29T19:28:29.438Z</time>
      </trkpt>
      <trkpt lat="48.86121" lon="2.26084">
        <ele>97.8</ele>
        <time>2015-06-29T19:28:31.458Z</time>
      </trkpt>
      <trkpt lat="48.86119" lon="2.26081">
        <ele>97.6</ele>
        <time>2015-06-29T19:28:32.545Z</time>
      </trkpt>
      <trkpt lat="48.86113" lon="2.26074">
        <ele>97.1</ele>
        <time>2015-06-29T19:28:34.455Z</time>
      </trkpt>
      <trkpt lat="48.86111" lon="2.2607">
        <ele>97.1</ele>
        <time>2015-06-29T19:28:35.482Z</time>
      </trkpt>
      <trkpt lat="48.86105" lon="2.26063">
        <ele>97.4</ele>
        <time>2015-06-29T19:28:37.408Z</time>
      </trkpt>
      <trkpt lat="48.86103" lon="2.2606">
        <ele>97.6</ele>
        <time>2015-06-29T19:28:38.479Z</time>
      </trkpt>
      <trkpt lat="48.86097" lon="2.26053">
        <ele>97.4</ele>
        <time>2015-06-29T19:28:40.409Z</time>
      </trkpt>
      <trkpt lat="48.86094" lon="2.2605">
        <ele>97.1</ele>
        <time>2015-06-29T19:28:41.437Z</time>
      </trkpt>
      <trkpt lat="48.86088" lon="2.26044">
        <ele>96.8</ele>
        <time>2015-06-29T19:28:43.440Z</time>
      </trkpt>
      <trkpt lat="48.86085" lon="2.26041">
        <ele>96.8</ele>
        <time>2015-06-29T19:28:44.502Z</time>
      </trkpt>
      <trkpt lat="48.86079" lon="2.26036">
        <ele>96.9</ele>
        <time>2015-06-29T19:28:46.412Z</time>
      </trkpt>
      <trkpt lat="48.86075" lon="2.26034">
        <ele>97</ele>
        <time>2015-06-29T19:28:47.437Z</time>
      </trkpt>
      <trkpt lat="48.86069" lon="2.26028">
        <ele>97.3</ele>
        <time>2015-06-29T19:28:49.388Z</time>
      </trkpt>
      <trkpt lat="48.86065" lon="2.26025">
        <ele>97.4</ele>
        <time>2015-06-29T19:28:50.509Z</time>
      </trkpt>
      <trkpt lat="48.86059" lon="2.2602">
        <ele>97.9</ele>
        <time>2015-06-29T19:28:52.423Z</time>
      </trkpt>
      <trkpt lat="48.86055" lon="2.26018">
        <ele>98.1</ele>
        <time>2015-06-29T19:28:53.425Z</time>
      </trkpt>
      <trkpt lat="48.86047" lon="2.26014">
        <ele>98.3</ele>
        <time>2015-06-29T19:28:55.448Z</time>
      </trkpt>
      <trkpt lat="48.86043" lon="2.26012">
        <ele>98.4</ele>
        <time>2015-06-29T19:28:56.485Z</time>
      </trkpt>
      <trkpt lat="48.86035" lon="2.26008">
        <ele>99.3</ele>
        <time>2015-06-29T19:28:58.412Z</time>
      </trkpt>
      <trkpt lat="48.86032" lon="2.26005">
        <ele>99.2</ele>
        <time>2015-06-29T19:28:59.448Z</time>
      </trkpt>
      <trkpt lat="48.86024" lon="2.26002">
        <ele>99</ele>
        <time>2015-06-29T19:29:01.466Z</time>
      </trkpt>
      <trkpt lat="48.8602" lon="2.26">
        <ele>98.9</ele>
        <time>2015-06-29T19:29:02.490Z</time>
      </trkpt>
      <trkpt lat="48.86011" lon="2.25997">
        <ele>99.1</ele>
        <time>2015-06-29T19:29:04.420Z</time>
      </trkpt>
      <trkpt lat="48.86007" lon="2.25995">
        <ele>99.4</ele>
        <time>2015-06-29T19:29:05.406Z</time>
      </trkpt>
      <trkpt lat="48.85999" lon="2.25991">
        <ele>99.7</ele>
        <time>2015-06-29T19:29:07.433Z</time>
      </trkpt>
      <trkpt lat="48.85995" lon="2.25989">
        <ele>99.9</ele>
        <time>2015-06-29T19:29:08.468Z</time>
      </trkpt>
      <trkpt lat="48.85987" lon="2.25986">
        <ele>100.5</ele>
        <time>2015-06-29T19:29:10.850Z</time>
      </trkpt>
      <trkpt lat="48.85983" lon="2.25984">
        <ele>100.2</ele>
        <time>2015-06-29T19:29:11.482Z</time>
      </trkpt>
      <trkpt lat="48.85976" lon="2.25979">
        <ele>100.1</ele>
        <time>2015-06-29T19:29:13.422Z</time>
      </trkpt>
      <trkpt lat="48.85972" lon="2.25976">
        <ele>100.2</ele>
        <time>2015-06-29T19:29:14.426Z</time>
      </trkpt>
      <trkpt lat="48.85965" lon="2.25972">
        <ele>100.2</ele>
        <time>2015-06-29T19:29:16.495Z</time>
      </trkpt>
      <trkpt lat="48.85961" lon="2.2597">
        <ele>100.2</ele>
        <time>2015-06-29T19:29:17.414Z</time>
      </trkpt>
      <trkpt lat="48.85953" lon="2.25967">
        <ele>100.4</ele>
        <time>2015-06-29T19:29:19.398Z</time>
      </trkpt>
      <trkpt lat="48.85949" lon="2.25965">
        <ele>100.5</ele>
        <time>2015-06-29T19:29:20.470Z</time>
      </trkpt>
      <trkpt lat="48.85944" lon="2.25963">
        <ele>100.5</ele>
        <time>2015-06-29T19:29:21.481Z</time>
      </trkpt>
      <trkpt lat="48.8594" lon="2.25961">
        <ele>100.5</ele>
        <time>2015-06-29T19:29:22.508Z</time>
      </trkpt>
      <trkpt lat="48.85931" lon="2.25957">
        <ele>100.4</ele>
        <time>2015-06-29T19:29:24.513Z</time>
      </trkpt>
      <trkpt lat="48.85927" lon="2.25955">
        <ele>100.3</ele>
        <time>2015-06-29T19:29:25.442Z</time>
      </trkpt>
      <trkpt lat="48.85919" lon="2.2595">
        <ele>100.4</ele>
        <time>2015-06-29T19:29:27.418Z</time>
      </trkpt>
      <trkpt lat="48.85916" lon="2.25948">
        <ele>100.5</ele>
        <time>2015-06-29T19:29:28.405Z</time>
      </trkpt>
      <trkpt lat="48.85908" lon="2.25943">
        <ele>100.3</ele>
        <time>2015-06-29T19:29:30.405Z</time>
      </trkpt>
      <trkpt lat="48.85904" lon="2.25941">
        <ele>100.6</ele>
        <time>2015-06-29T19:29:31.413Z</time>
      </trkpt>
      <trkpt lat="48.85899" lon="2.25939">
        <ele>100.4</ele>
        <time>2015-06-29T19:29:32.491Z</time>
      </trkpt>
      <trkpt lat="48.85895" lon="2.25936">
        <ele>100.3</ele>
        <time>2015-06-29T19:29:33.400Z</time>
      </trkpt>
      <trkpt lat="48.8589" lon="2.25933">
        <ele>100.2</ele>
        <time>2015-06-29T19:29:34.405Z</time>
      </trkpt>
      <trkpt lat="48.85886" lon="2.2593">
        <ele>100.1</ele>
        <time>2015-06-29T19:29:35.408Z</time>
      </trkpt>
      <trkpt lat="48.85878" lon="2.25924">
        <ele>100</ele>
        <time>2015-06-29T19:29:37.424Z</time>
      </trkpt>
      <trkpt lat="48.85875" lon="2.25921">
        <ele>99.6</ele>
        <time>2015-06-29T19:29:38.485Z</time>
      </trkpt>
      <trkpt lat="48.85868" lon="2.25916">
        <ele>99.1</ele>
        <time>2015-06-29T19:29:40.404Z</time>
      </trkpt>
      <trkpt lat="48.85865" lon="2.25914">
        <ele>99.2</ele>
        <time>2015-06-29T19:29:41.421Z</time>
      </trkpt>
      <trkpt lat="48.85858" lon="2.2591">
        <ele>98.6</ele>
        <time>2015-06-29T19:29:43.447Z</time>
      </trkpt>
      <trkpt lat="48.85855" lon="2.25909">
        <ele>98.1</ele>
        <time>2015-06-29T19:29:44.474Z</time>
      </trkpt>
      <trkpt lat="48.85847" lon="2.25904">
        <ele>97.9</ele>
        <time>2015-06-29T19:29:47.423Z</time>
      </trkpt>
      <trkpt lat="48.85846" lon="2.259">
        <ele>97.5</ele>
        <time>2015-06-29T19:29:48.430Z</time>
      </trkpt>
      <trkpt lat="48.85845" lon="2.25888">
        <ele>97.5</ele>
        <time>2015-06-29T19:29:51.472Z</time>
      </trkpt>
      <trkpt lat="48.85844" lon="2.25886">
        <ele>97.8</ele>
        <time>2015-06-29T19:29:52.421Z</time>
      </trkpt>
      <trkpt lat="48.85836" lon="2.25884">
        <ele>96</ele>
        <time>2015-06-29T19:30:37.490Z</time>
      </trkpt>
      <trkpt lat="48.85834" lon="2.25886">
        <ele>96</ele>
        <time>2015-06-29T19:30:38.485Z</time>
      </trkpt>
      <trkpt lat="48.85829" lon="2.25894">
        <ele>96.2</ele>
        <time>2015-06-29T19:30:42.514Z</time>
      </trkpt>
      <trkpt lat="48.85827" lon="2.25895">
        <ele>96.1</ele>
        <time>2015-06-29T19:30:43.417Z</time>
      </trkpt>
      <trkpt lat="48.85821" lon="2.25893">
        <ele>95.8</ele>
        <time>2015-06-29T19:30:45.465Z</time>
      </trkpt>
      <trkpt lat="48.85818" lon="2.25892">
        <ele>96</ele>
        <time>2015-06-29T19:30:46.481Z</time>
      </trkpt>
      <trkpt lat="48.85811" lon="2.25887">
        <ele>96.4</ele>
        <time>2015-06-29T19:30:48.395Z</time>
      </trkpt>
      <trkpt lat="48.85808" lon="2.25885">
        <ele>96.6</ele>
        <time>2015-06-29T19:30:49.420Z</time>
      </trkpt>
      <trkpt lat="48.85801" lon="2.25879">
        <ele>96.6</ele>
        <time>2015-06-29T19:30:51.423Z</time>
      </trkpt>
      <trkpt lat="48.85797" lon="2.25876">
        <ele>96.5</ele>
        <time>2015-06-29T19:30:52.450Z</time>
      </trkpt>
      <trkpt lat="48.85793" lon="2.25873">
        <ele>96.7</ele>
        <time>2015-06-29T19:30:53.499Z</time>
      </trkpt>
      <trkpt lat="48.85788" lon="2.2587">
        <ele>96.7</ele>
        <time>2015-06-29T19:30:54.480Z</time>
      </trkpt>
      <trkpt lat="48.85783" lon="2.25866">
        <ele>96.7</ele>
        <time>2015-06-29T19:30:55.402Z</time>
      </trkpt>
      <trkpt lat="48.85778" lon="2.25861">
        <ele>96.7</ele>
        <time>2015-06-29T19:30:56.442Z</time>
      </trkpt>
      <trkpt lat="48.85773" lon="2.25857">
        <ele>96.5</ele>
        <time>2015-06-29T19:30:57.448Z</time>
      </trkpt>
      <trkpt lat="48.85769" lon="2.25852">
        <ele>96.4</ele>
        <time>2015-06-29T19:30:58.458Z</time>
      </trkpt>
      <trkpt lat="48.85765" lon="2.25848">
        <ele>96.5</ele>
        <time>2015-06-29T19:30:59.468Z</time>
      </trkpt>
      <trkpt lat="48.85761" lon="2.25844">
        <ele>96.3</ele>
        <time>2015-06-29T19:31:00.472Z</time>
      </trkpt>
      <trkpt lat="48.85757" lon="2.2584">
        <ele>96.5</ele>
        <time>2015-06-29T19:31:01.495Z</time>
      </trkpt>
      <trkpt lat="48.85752" lon="2.25835">
        <ele>96.7</ele>
        <time>2015-06-29T19:31:02.522Z</time>
      </trkpt>
      <trkpt lat="48.85748" lon="2.2583">
        <ele>97</ele>
        <time>2015-06-29T19:31:03.404Z</time>
      </trkpt>
      <trkpt lat="48.85744" lon="2.25825">
        <ele>97.3</ele>
        <time>2015-06-29T19:31:04.398Z</time>
      </trkpt>
      <trkpt lat="48.85739" lon="2.2582">
        <ele>97.5</ele>
        <time>2015-06-29T19:31:05.404Z</time>
      </trkpt>
      <trkpt lat="48.85735" lon="2.25815">
        <ele>97.8</ele>
        <time>2015-06-29T19:31:06.447Z</time>
      </trkpt>
      <trkpt lat="48.8573" lon="2.25811">
        <ele>97.7</ele>
        <time>2015-06-29T19:31:07.454Z</time>
      </trkpt>
      <trkpt lat="48.85726" lon="2.25808">
        <ele>98</ele>
        <time>2015-06-29T19:31:08.475Z</time>
      </trkpt>
      <trkpt lat="48.85722" lon="2.25803">
        <ele>98.2</ele>
        <time>2015-06-29T19:31:09.461Z</time>
      </trkpt>
      <trkpt lat="48.85717" lon="2.25799">
        <ele>98.2</ele>
        <time>2015-06-29T19:31:10.404Z</time>
      </trkpt>
      <trkpt lat="48.85713" lon="2.25795">
        <ele>98.3</ele>
        <time>2015-06-29T19:31:11.430Z</time>
      </trkpt>
      <trkpt lat="48.85709" lon="2.25791">
        <ele>98.4</ele>
        <time>2015-06-29T19:31:12.465Z</time>
      </trkpt>
      <trkpt lat="48.85704" lon="2.25789">
        <ele>98.1</ele>
        <time>2015-06-29T19:31:13.407Z</time>
      </trkpt>
      <trkpt lat="48.857" lon="2.25787">
        <ele>97.8</ele>
        <time>2015-06-29T19:31:14.514Z</time>
      </trkpt>
      <trkpt lat="48.85695" lon="2.25784">
        <ele>98.1</ele>
        <time>2015-06-29T19:31:15.404Z</time>
      </trkpt>
      <trkpt lat="48.85691" lon="2.25782">
        <ele>98</ele>
        <time>2015-06-29T19:31:16.418Z</time>
      </trkpt>
      <trkpt lat="48.85683" lon="2.25777">
        <ele>98.6</ele>
        <time>2015-06-29T19:31:18.408Z</time>
      </trkpt>
      <trkpt lat="48.85678" lon="2.25775">
        <ele>98.6</ele>
        <time>2015-06-29T19:31:19.398Z</time>
      </trkpt>
      <trkpt lat="48.85669" lon="2.25774">
        <ele>98.8</ele>
        <time>2015-06-29T19:31:21.469Z</time>
      </trkpt>
      <trkpt lat="48.85665" lon="2.25772">
        <ele>99.2</ele>
        <time>2015-06-29T19:31:22.474Z</time>
      </trkpt>
      <trkpt lat="48.85656" lon="2.25772">
        <ele>99.6</ele>
        <time>2015-06-29T19:31:24.498Z</time>
      </trkpt>
      <trkpt lat="48.85652" lon="2.25771">
        <ele>99.7</ele>
        <time>2015-06-29T19:31:25.423Z</time>
      </trkpt>
      <trkpt lat="48.85648" lon="2.25771">
        <ele>99.7</ele>
        <time>2015-06-29T19:31:26.483Z</time>
      </trkpt>
      <trkpt lat="48.85643" lon="2.2577">
        <ele>99.7</ele>
        <time>2015-06-29T19:31:27.372Z</time>
      </trkpt>
      <trkpt lat="48.85638" lon="2.25769">
        <ele>99.7</ele>
        <time>2015-06-29T19:31:28.406Z</time>
      </trkpt>
      <trkpt lat="48.85634" lon="2.25769">
        <ele>99.6</ele>
        <time>2015-06-29T19:31:29.424Z</time>
      </trkpt>
      <trkpt lat="48.85629" lon="2.25768">
        <ele>99.6</ele>
        <time>2015-06-29T19:31:30.440Z</time>
      </trkpt>
      <trkpt lat="48.85624" lon="2.25767">
        <ele>99.5</ele>
        <time>2015-06-29T19:31:31.423Z</time>
      </trkpt>
      <trkpt lat="48.85619" lon="2.25767">
        <ele>99.3</ele>
        <time>2015-06-29T19:31:32.387Z</time>
      </trkpt>
      <trkpt lat="48.85613" lon="2.25766">
        <ele>99.1</ele>
        <time>2015-06-29T19:31:33.405Z</time>
      </trkpt>
      <trkpt lat="48.85608" lon="2.25765">
        <ele>99.1</ele>
        <time>2015-06-29T19:31:34.587Z</time>
      </trkpt>
      <trkpt lat="48.85603" lon="2.25764">
        <ele>99.1</ele>
        <time>2015-06-29T19:31:35.331Z</time>
      </trkpt>
      <trkpt lat="48.85598" lon="2.25761">
        <ele>99.2</ele>
        <time>2015-06-29T19:31:36.326Z</time>
      </trkpt>
      <trkpt lat="48.85592" lon="2.25759">
        <ele>99.2</ele>
        <time>2015-06-29T19:31:37.399Z</time>
      </trkpt>
      <trkpt lat="48.85587" lon="2.25756">
        <ele>99.2</ele>
        <time>2015-06-29T19:31:38.416Z</time>
      </trkpt>
      <trkpt lat="48.85582" lon="2.25753">
        <ele>99.2</ele>
        <time>2015-06-29T19:31:39.322Z</time>
      </trkpt>
      <trkpt lat="48.85577" lon="2.2575">
        <ele>99.4</ele>
        <time>2015-06-29T19:31:40.323Z</time>
      </trkpt>
      <trkpt lat="48.85571" lon="2.25746">
        <ele>99.4</ele>
        <time>2015-06-29T19:31:41.336Z</time>
      </trkpt>
      <trkpt lat="48.85567" lon="2.25742">
        <ele>99.5</ele>
        <time>2015-06-29T19:31:42.347Z</time>
      </trkpt>
      <trkpt lat="48.85562" lon="2.25738">
        <ele>99.9</ele>
        <time>2015-06-29T19:31:43.354Z</time>
      </trkpt>
      <trkpt lat="48.85557" lon="2.25735">
        <ele>100</ele>
        <time>2015-06-29T19:31:44.369Z</time>
      </trkpt>
      <trkpt lat="48.85553" lon="2.25732">
        <ele>100</ele>
        <time>2015-06-29T19:31:45.380Z</time>
      </trkpt>
      <trkpt lat="48.85548" lon="2.25729">
        <ele>100</ele>
        <time>2015-06-29T19:31:46.390Z</time>
      </trkpt>
      <trkpt lat="48.85544" lon="2.25726">
        <ele>99.9</ele>
        <time>2015-06-29T19:31:47.396Z</time>
      </trkpt>
      <trkpt lat="48.85539" lon="2.25722">
        <ele>99.7</ele>
        <time>2015-06-29T19:31:48.320Z</time>
      </trkpt>
      <trkpt lat="48.85534" lon="2.25719">
        <ele>99.9</ele>
        <time>2015-06-29T19:31:49.318Z</time>
      </trkpt>
      <trkpt lat="48.85529" lon="2.25715">
        <ele>99.8</ele>
        <time>2015-06-29T19:31:50.363Z</time>
      </trkpt>
      <trkpt lat="48.85524" lon="2.25712">
        <ele>99.7</ele>
        <time>2015-06-29T19:31:51.362Z</time>
      </trkpt>
      <trkpt lat="48.8552" lon="2.25709">
        <ele>99.8</ele>
        <time>2015-06-29T19:31:52.396Z</time>
      </trkpt>
      <trkpt lat="48.85515" lon="2.25706">
        <ele>100</ele>
        <time>2015-06-29T19:31:53.398Z</time>
      </trkpt>
      <trkpt lat="48.8551" lon="2.25703">
        <ele>100.2</ele>
        <time>2015-06-29T19:31:54.340Z</time>
      </trkpt>
      <trkpt lat="48.85503" lon="2.25703">
        <ele>100.3</ele>
        <time>2015-06-29T19:31:55.341Z</time>
      </trkpt>
      <trkpt lat="48.85498" lon="2.25702">
        <ele>100.2</ele>
        <time>2015-06-29T19:31:56.385Z</time>
      </trkpt>
      <trkpt lat="48.85493" lon="2.25701">
        <ele>100.3</ele>
        <time>2015-06-29T19:31:57.320Z</time>
      </trkpt>
      <trkpt lat="48.85488" lon="2.25701">
        <ele>100</ele>
        <time>2015-06-29T19:31:58.317Z</time>
      </trkpt>
      <trkpt lat="48.85482" lon="2.25699">
        <ele>100.3</ele>
        <time>2015-06-29T19:31:59.561Z</time>
      </trkpt>
      <trkpt lat="48.85475" lon="2.25698">
        <ele>100.7</ele>
        <time>2015-06-29T19:32:00.585Z</time>
      </trkpt>
      <trkpt lat="48.85469" lon="2.25697">
        <ele>100.9</ele>
        <time>2015-06-29T19:32:01.598Z</time>
      </trkpt>
      <trkpt lat="48.85463" lon="2.25695">
        <ele>101.1</ele>
        <time>2015-06-29T19:32:02.616Z</time>
      </trkpt>
      <trkpt lat="48.85456" lon="2.25693">
        <ele>100.9</ele>
        <time>2015-06-29T19:32:03.614Z</time>
      </trkpt>
      <trkpt lat="48.85449" lon="2.25691">
        <ele>101.1</ele>
        <time>2015-06-29T19:32:04.621Z</time>
      </trkpt>
      <trkpt lat="48.85443" lon="2.25687">
        <ele>101.1</ele>
        <time>2015-06-29T19:32:05.526Z</time>
      </trkpt>
      <trkpt lat="48.85437" lon="2.25682">
        <ele>101.5</ele>
        <time>2015-06-29T19:32:06.558Z</time>
      </trkpt>
      <trkpt lat="48.85433" lon="2.25674">
        <ele>101.4</ele>
        <time>2015-06-29T19:32:07.557Z</time>
      </trkpt>
      <trkpt lat="48.8543" lon="2.25663">
        <ele>101.3</ele>
        <time>2015-06-29T19:32:08.604Z</time>
      </trkpt>
      <trkpt lat="48.85429" lon="2.2565">
        <ele>100.4</ele>
        <time>2015-06-29T19:32:09.606Z</time>
      </trkpt>
      <trkpt lat="48.85429" lon="2.25638">
        <ele>100.5</ele>
        <time>2015-06-29T19:32:10.616Z</time>
      </trkpt>
      <trkpt lat="48.85429" lon="2.25627">
        <ele>100.6</ele>
        <time>2015-06-29T19:32:11.623Z</time>
      </trkpt>
      <trkpt lat="48.85431" lon="2.25616">
        <ele>100.2</ele>
        <time>2015-06-29T19:32:12.649Z</time>
      </trkpt>
      <trkpt lat="48.85434" lon="2.25606">
        <ele>100.4</ele>
        <time>2015-06-29T19:32:13.582Z</time>
      </trkpt>
      <trkpt lat="48.85437" lon="2.25597">
        <ele>100.5</ele>
        <time>2015-06-29T19:32:14.626Z</time>
      </trkpt>
      <trkpt lat="48.85441" lon="2.25589">
        <ele>100.5</ele>
        <time>2015-06-29T19:32:15.557Z</time>
      </trkpt>
      <trkpt lat="48.85445" lon="2.25582">
        <ele>101.3</ele>
        <time>2015-06-29T19:32:16.561Z</time>
      </trkpt>
      <trkpt lat="48.8545" lon="2.25576">
        <ele>101.9</ele>
        <time>2015-06-29T19:32:17.571Z</time>
      </trkpt>
      <trkpt lat="48.85455" lon="2.25571">
        <ele>102.1</ele>
        <time>2015-06-29T19:32:18.577Z</time>
      </trkpt>
      <trkpt lat="48.8546" lon="2.25567">
        <ele>102.3</ele>
        <time>2015-06-29T19:32:19.586Z</time>
      </trkpt>
      <trkpt lat="48.85465" lon="2.25564">
        <ele>101.8</ele>
        <time>2015-06-29T19:32:20.639Z</time>
      </trkpt>
      <trkpt lat="48.85471" lon="2.25563">
        <ele>101.5</ele>
        <time>2015-06-29T19:32:21.618Z</time>
      </trkpt>
      <trkpt lat="48.85477" lon="2.25564">
        <ele>101.4</ele>
        <time>2015-06-29T19:32:22.623Z</time>
      </trkpt>
      <trkpt lat="48.85482" lon="2.25565">
        <ele>101.1</ele>
        <time>2015-06-29T19:32:23.634Z</time>
      </trkpt>
      <trkpt lat="48.85488" lon="2.25567">
        <ele>100.7</ele>
        <time>2015-06-29T19:32:24.645Z</time>
      </trkpt>
      <trkpt lat="48.85493" lon="2.25568">
        <ele>100.5</ele>
        <time>2015-06-29T19:32:25.557Z</time>
      </trkpt>
      <trkpt lat="48.85498" lon="2.25568">
        <ele>100.6</ele>
        <time>2015-06-29T19:32:26.639Z</time>
      </trkpt>
      <trkpt lat="48.85502" lon="2.25568">
        <ele>100.7</ele>
        <time>2015-06-29T19:32:27.640Z</time>
      </trkpt>
      <trkpt lat="48.8551" lon="2.25565">
        <ele>100.7</ele>
        <time>2015-06-29T19:32:29.635Z</time>
      </trkpt>
      <trkpt lat="48.85514" lon="2.25562">
        <ele>100.4</ele>
        <time>2015-06-29T19:32:30.649Z</time>
      </trkpt>
      <trkpt lat="48.85521" lon="2.25557">
        <ele>100</ele>
        <time>2015-06-29T19:32:32.708Z</time>
      </trkpt>
      <trkpt lat="48.85524" lon="2.25554">
        <ele>100.2</ele>
        <time>2015-06-29T19:32:33.585Z</time>
      </trkpt>
      <trkpt lat="48.8553" lon="2.25549">
        <ele>100.3</ele>
        <time>2015-06-29T19:32:35.609Z</time>
      </trkpt>
      <trkpt lat="48.85533" lon="2.25549">
        <ele>100.3</ele>
        <time>2015-06-29T19:32:36.619Z</time>
      </trkpt>
      <trkpt lat="48.85539" lon="2.25553">
        <ele>100.4</ele>
        <time>2015-06-29T19:32:39.630Z</time>
      </trkpt>
      <trkpt lat="48.85541" lon="2.25553">
        <ele>100.5</ele>
        <time>2015-06-29T19:32:40.590Z</time>
      </trkpt>
      <trkpt lat="48.85546" lon="2.25559">
        <ele>100</ele>
        <time>2015-06-29T19:32:46.591Z</time>
      </trkpt>
      <trkpt lat="48.85545" lon="2.2556">
        <ele>100</ele>
        <time>2015-06-29T19:32:47.667Z</time>
      </trkpt>
      <trkpt lat="48.85544" lon="2.25561">
        <ele>99.9</ele>
        <time>2015-06-29T19:34:23.536Z</time>
      </trkpt>
      <trkpt lat="48.8555" lon="2.2556">
        <ele>99.4</ele>
        <time>2015-06-29T19:34:24.570Z</time>
      </trkpt>
      <trkpt lat="48.85557" lon="2.25561">
        <ele>99.8</ele>
        <time>2015-06-29T19:34:27.628Z</time>
      </trkpt>
      <trkpt lat="48.8556" lon="2.25562">
        <ele>99.9</ele>
        <time>2015-06-29T19:34:28.647Z</time>
      </trkpt>
      <trkpt lat="48.85567" lon="2.25563">
        <ele>100.1</ele>
        <time>2015-06-29T19:34:30.600Z</time>
      </trkpt>
      <trkpt lat="48.85572" lon="2.25565">
        <ele>99.6</ele>
        <time>2015-06-29T19:34:31.617Z</time>
      </trkpt>
      <trkpt lat="48.85576" lon="2.25567">
        <ele>99.4</ele>
        <time>2015-06-29T19:34:32.623Z</time>
      </trkpt>
      <trkpt lat="48.85581" lon="2.25568">
        <ele>99.2</ele>
        <time>2015-06-29T19:34:33.632Z</time>
      </trkpt>
      <trkpt lat="48.85585" lon="2.25569">
        <ele>99.3</ele>
        <time>2015-06-29T19:34:34.656Z</time>
      </trkpt>
      <trkpt lat="48.8559" lon="2.25571">
        <ele>99.6</ele>
        <time>2015-06-29T19:34:35.576Z</time>
      </trkpt>
      <trkpt lat="48.85594" lon="2.25573">
        <ele>99.5</ele>
        <time>2015-06-29T19:34:36.572Z</time>
      </trkpt>
      <trkpt lat="48.85599" lon="2.25575">
        <ele>99.7</ele>
        <time>2015-06-29T19:34:37.572Z</time>
      </trkpt>
      <trkpt lat="48.85603" lon="2.25578">
        <ele>99.5</ele>
        <time>2015-06-29T19:34:38.612Z</time>
      </trkpt>
      <trkpt lat="48.85608" lon="2.25581">
        <ele>99.6</ele>
        <time>2015-06-29T19:34:39.618Z</time>
      </trkpt>
      <trkpt lat="48.85613" lon="2.25585">
        <ele>99.4</ele>
        <time>2015-06-29T19:34:40.647Z</time>
      </trkpt>
      <trkpt lat="48.85618" lon="2.25588">
        <ele>99.4</ele>
        <time>2015-06-29T19:34:41.641Z</time>
      </trkpt>
      <trkpt lat="48.85623" lon="2.25591">
        <ele>99.7</ele>
        <time>2015-06-29T19:34:42.575Z</time>
      </trkpt>
      <trkpt lat="48.85628" lon="2.25594">
        <ele>99.6</ele>
        <time>2015-06-29T19:34:43.572Z</time>
      </trkpt>
      <trkpt lat="48.85633" lon="2.25597">
        <ele>99.5</ele>
        <time>2015-06-29T19:34:44.620Z</time>
      </trkpt>
      <trkpt lat="48.85637" lon="2.25601">
        <ele>99.6</ele>
        <time>2015-06-29T19:34:45.612Z</time>
      </trkpt>
      <trkpt lat="48.85642" lon="2.25603">
        <ele>99.5</ele>
        <time>2015-06-29T19:34:46.639Z</time>
      </trkpt>
      <trkpt lat="48.85647" lon="2.25606">
        <ele>100</ele>
        <time>2015-06-29T19:34:47.647Z</time>
      </trkpt>
      <trkpt lat="48.85653" lon="2.25608">
        <ele>100</ele>
        <time>2015-06-29T19:34:48.654Z</time>
      </trkpt>
      <trkpt lat="48.85658" lon="2.2561">
        <ele>100.1</ele>
        <time>2015-06-29T19:34:49.571Z</time>
      </trkpt>
      <trkpt lat="48.85663" lon="2.25612">
        <ele>100.2</ele>
        <time>2015-06-29T19:34:50.617Z</time>
      </trkpt>
      <trkpt lat="48.85668" lon="2.25614">
        <ele>100.5</ele>
        <time>2015-06-29T19:34:51.617Z</time>
      </trkpt>
      <trkpt lat="48.85673" lon="2.25615">
        <ele>100.8</ele>
        <time>2015-06-29T19:34:52.645Z</time>
      </trkpt>
      <trkpt lat="48.85678" lon="2.25616">
        <ele>100.7</ele>
        <time>2015-06-29T19:34:53.679Z</time>
      </trkpt>
      <trkpt lat="48.85683" lon="2.25617">
        <ele>100.5</ele>
        <time>2015-06-29T19:34:54.568Z</time>
      </trkpt>
      <trkpt lat="48.85688" lon="2.25618">
        <ele>100.2</ele>
        <time>2015-06-29T19:34:55.573Z</time>
      </trkpt>
      <trkpt lat="48.85693" lon="2.25619">
        <ele>100.2</ele>
        <time>2015-06-29T19:34:56.616Z</time>
      </trkpt>
      <trkpt lat="48.85699" lon="2.2562">
        <ele>99.9</ele>
        <time>2015-06-29T19:34:57.608Z</time>
      </trkpt>
      <trkpt lat="48.85704" lon="2.2562">
        <ele>99.5</ele>
        <time>2015-06-29T19:34:58.617Z</time>
      </trkpt>
      <trkpt lat="48.8571" lon="2.25619">
        <ele>99.9</ele>
        <time>2015-06-29T19:34:59.625Z</time>
      </trkpt>
      <trkpt lat="48.85716" lon="2.2562">
        <ele>99.8</ele>
        <time>2015-06-29T19:35:00.660Z</time>
      </trkpt>
      <trkpt lat="48.85721" lon="2.25619">
        <ele>99.7</ele>
        <time>2015-06-29T19:35:01.561Z</time>
      </trkpt>
      <trkpt lat="48.85727" lon="2.2562">
        <ele>99.5</ele>
        <time>2015-06-29T19:35:02.631Z</time>
      </trkpt>
      <trkpt lat="48.85733" lon="2.2562">
        <ele>99.5</ele>
        <time>2015-06-29T19:35:03.640Z</time>
      </trkpt>
      <trkpt lat="48.85739" lon="2.2562">
        <ele>99.3</ele>
        <time>2015-06-29T19:35:04.647Z</time>
      </trkpt>
      <trkpt lat="48.85745" lon="2.25621">
        <ele>99.4</ele>
        <time>2015-06-29T19:35:05.543Z</time>
      </trkpt>
      <trkpt lat="48.85751" lon="2.25622">
        <ele>99.4</ele>
        <time>2015-06-29T19:35:06.559Z</time>
      </trkpt>
      <trkpt lat="48.85757" lon="2.25623">
        <ele>99.2</ele>
        <time>2015-06-29T19:35:07.560Z</time>
      </trkpt>
      <trkpt lat="48.85763" lon="2.25624">
        <ele>99.2</ele>
        <time>2015-06-29T19:35:08.623Z</time>
      </trkpt>
      <trkpt lat="48.85768" lon="2.25626">
        <ele>99.2</ele>
        <time>2015-06-29T19:35:09.607Z</time>
      </trkpt>
      <trkpt lat="48.85774" lon="2.25627">
        <ele>99</ele>
        <time>2015-06-29T19:35:10.610Z</time>
      </trkpt>
      <trkpt lat="48.85779" lon="2.2563">
        <ele>98.6</ele>
        <time>2015-06-29T19:35:11.625Z</time>
      </trkpt>
      <trkpt lat="48.85785" lon="2.25633">
        <ele>98.9</ele>
        <time>2015-06-29T19:35:12.647Z</time>
      </trkpt>
      <trkpt lat="48.85791" lon="2.25638">
        <ele>98.4</ele>
        <time>2015-06-29T19:35:13.565Z</time>
      </trkpt>
      <trkpt lat="48.85796" lon="2.25644">
        <ele>97.8</ele>
        <time>2015-06-29T19:35:14.667Z</time>
      </trkpt>
      <trkpt lat="48.858" lon="2.25649">
        <ele>97.8</ele>
        <time>2015-06-29T19:35:15.565Z</time>
      </trkpt>
      <trkpt lat="48.85805" lon="2.25653">
        <ele>97.4</ele>
        <time>2015-06-29T19:35:16.574Z</time>
      </trkpt>
      <trkpt lat="48.85809" lon="2.25658">
        <ele>97.2</ele>
        <time>2015-06-29T19:35:17.578Z</time>
      </trkpt>
      <trkpt lat="48.85813" lon="2.25663">
        <ele>97.2</ele>
        <time>2015-06-29T19:35:18.595Z</time>
      </trkpt>
      <trkpt lat="48.85817" lon="2.25668">
        <ele>97.6</ele>
        <time>2015-06-29T19:35:19.600Z</time>
      </trkpt>
      <trkpt lat="48.8582" lon="2.25673">
        <ele>97.8</ele>
        <time>2015-06-29T19:35:20.618Z</time>
      </trkpt>
      <trkpt lat="48.85824" lon="2.25678">
        <ele>98.1</ele>
        <time>2015-06-29T19:35:21.785Z</time>
      </trkpt>
      <trkpt lat="48.8583" lon="2.25686">
        <ele>98.1</ele>
        <time>2015-06-29T19:35:23.565Z</time>
      </trkpt>
      <trkpt lat="48.85832" lon="2.25689">
        <ele>97.9</ele>
        <time>2015-06-29T19:35:24.595Z</time>
      </trkpt>
      <trkpt lat="48.85836" lon="2.25696">
        <ele>98.4</ele>
        <time>2015-06-29T19:35:26.631Z</time>
      </trkpt>
      <trkpt lat="48.85838" lon="2.257">
        <ele>98.4</ele>
        <time>2015-06-29T19:35:27.645Z</time>
      </trkpt>
      <trkpt lat="48.85843" lon="2.25708">
        <ele>99.1</ele>
        <time>2015-06-29T19:35:41.604Z</time>
      </trkpt>
      <trkpt lat="48.85849" lon="2.25715">
        <ele>99.1</ele>
        <time>2015-06-29T19:35:42.631Z</time>
      </trkpt>
      <trkpt lat="48.85856" lon="2.25721">
        <ele>98.8</ele>
        <time>2015-06-29T19:35:49.601Z</time>
      </trkpt>
      <trkpt lat="48.85857" lon="2.25723">
        <ele>98.8</ele>
        <time>2015-06-29T19:35:50.652Z</time>
      </trkpt>
      <trkpt lat="48.85863" lon="2.2573">
        <ele>98.2</ele>
        <time>2015-06-29T19:35:54.610Z</time>
      </trkpt>
      <trkpt lat="48.85866" lon="2.25733">
        <ele>98.5</ele>
        <time>2015-06-29T19:35:55.624Z</time>
      </trkpt>
      <trkpt lat="48.85871" lon="2.25739">
        <ele>98.4</ele>
        <time>2015-06-29T19:35:57.658Z</time>
      </trkpt>
      <trkpt lat="48.85874" lon="2.25743">
        <ele>98.2</ele>
        <time>2015-06-29T19:35:58.668Z</time>
      </trkpt>
      <trkpt lat="48.85878" lon="2.25749">
        <ele>98.5</ele>
        <time>2015-06-29T19:36:00.645Z</time>
      </trkpt>
      <trkpt lat="48.85882" lon="2.25752">
        <ele>98.7</ele>
        <time>2015-06-29T19:36:01.608Z</time>
      </trkpt>
      <trkpt lat="48.85889" lon="2.25755">
        <ele>98.8</ele>
        <time>2015-06-29T19:36:03.539Z</time>
      </trkpt>
      <trkpt lat="48.85892" lon="2.25756">
        <ele>98.9</ele>
        <time>2015-06-29T19:36:04.546Z</time>
      </trkpt>
      <trkpt lat="48.85899" lon="2.25758">
        <ele>99.2</ele>
        <time>2015-06-29T19:36:06.575Z</time>
      </trkpt>
      <trkpt lat="48.85903" lon="2.25759">
        <ele>99.5</ele>
        <time>2015-06-29T19:36:07.602Z</time>
      </trkpt>
      <trkpt lat="48.85911" lon="2.25759">
        <ele>99.4</ele>
        <time>2015-06-29T19:36:09.560Z</time>
      </trkpt>
      <trkpt lat="48.85915" lon="2.2576">
        <ele>99.4</ele>
        <time>2015-06-29T19:36:10.648Z</time>
      </trkpt>
      <trkpt lat="48.85919" lon="2.25761">
        <ele>99.6</ele>
        <time>2015-06-29T19:36:11.567Z</time>
      </trkpt>
      <trkpt lat="48.85924" lon="2.25762">
        <ele>100.1</ele>
        <time>2015-06-29T19:36:12.572Z</time>
      </trkpt>
      <trkpt lat="48.85933" lon="2.25762">
        <ele>100.4</ele>
        <time>2015-06-29T19:36:14.992Z</time>
      </trkpt>
      <trkpt lat="48.85937" lon="2.25763">
        <ele>100.4</ele>
        <time>2015-06-29T19:36:15.634Z</time>
      </trkpt>
      <trkpt lat="48.85942" lon="2.25762">
        <ele>100.2</ele>
        <time>2015-06-29T19:36:16.569Z</time>
      </trkpt>
      <trkpt lat="48.85947" lon="2.25762">
        <ele>100.1</ele>
        <time>2015-06-29T19:36:17.571Z</time>
      </trkpt>
      <trkpt lat="48.85954" lon="2.25766">
        <ele>99.1</ele>
        <time>2015-06-29T19:36:18.587Z</time>
      </trkpt>
      <trkpt lat="48.85961" lon="2.25767">
        <ele>98.7</ele>
        <time>2015-06-29T19:36:19.759Z</time>
      </trkpt>
      <trkpt lat="48.85966" lon="2.25769">
        <ele>98.5</ele>
        <time>2015-06-29T19:36:20.596Z</time>
      </trkpt>
      <trkpt lat="48.85971" lon="2.2577">
        <ele>98.6</ele>
        <time>2015-06-29T19:36:21.603Z</time>
      </trkpt>
      <trkpt lat="48.85976" lon="2.2577">
        <ele>98.7</ele>
        <time>2015-06-29T19:36:22.608Z</time>
      </trkpt>
      <trkpt lat="48.8598" lon="2.25771">
        <ele>98.8</ele>
        <time>2015-06-29T19:36:23.530Z</time>
      </trkpt>
      <trkpt lat="48.85985" lon="2.25772">
        <ele>98.9</ele>
        <time>2015-06-29T19:36:24.560Z</time>
      </trkpt>
      <trkpt lat="48.8599" lon="2.25773">
        <ele>98.8</ele>
        <time>2015-06-29T19:36:25.584Z</time>
      </trkpt>
      <trkpt lat="48.85995" lon="2.25774">
        <ele>98.6</ele>
        <time>2015-06-29T19:36:26.614Z</time>
      </trkpt>
      <trkpt lat="48.86" lon="2.25775">
        <ele>98.7</ele>
        <time>2015-06-29T19:36:27.616Z</time>
      </trkpt>
      <trkpt lat="48.86006" lon="2.25777">
        <ele>98.6</ele>
        <time>2015-06-29T19:36:28.529Z</time>
      </trkpt>
      <trkpt lat="48.86012" lon="2.25779">
        <ele>98.5</ele>
        <time>2015-06-29T19:36:29.556Z</time>
      </trkpt>
      <trkpt lat="48.86017" lon="2.2578">
        <ele>98.2</ele>
        <time>2015-06-29T19:36:30.596Z</time>
      </trkpt>
      <trkpt lat="48.86022" lon="2.25781">
        <ele>97.9</ele>
        <time>2015-06-29T19:36:31.603Z</time>
      </trkpt>
      <trkpt lat="48.86027" lon="2.25781">
        <ele>98</ele>
        <time>2015-06-29T19:36:32.607Z</time>
      </trkpt>
      <trkpt lat="48.86032" lon="2.25782">
        <ele>97.6</ele>
        <time>2015-06-29T19:36:33.617Z</time>
      </trkpt>
      <trkpt lat="48.86037" lon="2.25783">
        <ele>97.6</ele>
        <time>2015-06-29T19:36:34.694Z</time>
      </trkpt>
      <trkpt lat="48.86042" lon="2.25785">
        <ele>97.5</ele>
        <time>2015-06-29T19:36:35.594Z</time>
      </trkpt>
      <trkpt lat="48.86047" lon="2.25787">
        <ele>97.4</ele>
        <time>2015-06-29T19:36:36.577Z</time>
      </trkpt>
      <trkpt lat="48.86051" lon="2.25788">
        <ele>97</ele>
        <time>2015-06-29T19:36:37.585Z</time>
      </trkpt>
      <trkpt lat="48.86056" lon="2.25788">
        <ele>97.2</ele>
        <time>2015-06-29T19:36:38.596Z</time>
      </trkpt>
      <trkpt lat="48.86062" lon="2.25789">
        <ele>97.5</ele>
        <time>2015-06-29T19:36:39.621Z</time>
      </trkpt>
      <trkpt lat="48.86067" lon="2.2579">
        <ele>98</ele>
        <time>2015-06-29T19:36:40.538Z</time>
      </trkpt>
      <trkpt lat="48.86072" lon="2.25791">
        <ele>98</ele>
        <time>2015-06-29T19:36:41.568Z</time>
      </trkpt>
      <trkpt lat="48.86078" lon="2.25792">
        <ele>97.4</ele>
        <time>2015-06-29T19:36:42.585Z</time>
      </trkpt>
      <trkpt lat="48.86083" lon="2.25793">
        <ele>97.4</ele>
        <time>2015-06-29T19:36:43.583Z</time>
      </trkpt>
      <trkpt lat="48.86088" lon="2.25794">
        <ele>97.7</ele>
        <time>2015-06-29T19:36:44.620Z</time>
      </trkpt>
      <trkpt lat="48.86093" lon="2.25795">
        <ele>97.8</ele>
        <time>2015-06-29T19:36:45.539Z</time>
      </trkpt>
      <trkpt lat="48.86098" lon="2.25796">
        <ele>97.9</ele>
        <time>2015-06-29T19:36:46.583Z</time>
      </trkpt>
      <trkpt lat="48.86104" lon="2.25797">
        <ele>97.8</ele>
        <time>2015-06-29T19:36:47.599Z</time>
      </trkpt>
      <trkpt lat="48.86109" lon="2.25797">
        <ele>97.6</ele>
        <time>2015-06-29T19:36:48.611Z</time>
      </trkpt>
      <trkpt lat="48.86114" lon="2.25798">
        <ele>97.4</ele>
        <time>2015-06-29T19:36:49.618Z</time>
      </trkpt>
      <trkpt lat="48.86119" lon="2.25798">
        <ele>97</ele>
        <time>2015-06-29T19:36:50.670Z</time>
      </trkpt>
      <trkpt lat="48.86124" lon="2.25799">
        <ele>97</ele>
        <time>2015-06-29T19:36:51.578Z</time>
      </trkpt>
      <trkpt lat="48.86129" lon="2.25799">
        <ele>97.2</ele>
        <time>2015-06-29T19:36:52.588Z</time>
      </trkpt>
      <trkpt lat="48.86134" lon="2.258">
        <ele>96.9</ele>
        <time>2015-06-29T19:36:53.636Z</time>
      </trkpt>
      <trkpt lat="48.86139" lon="2.258">
        <ele>96.7</ele>
        <time>2015-06-29T19:36:54.616Z</time>
      </trkpt>
      <trkpt lat="48.86144" lon="2.258">
        <ele>96.5</ele>
        <time>2015-06-29T19:36:55.570Z</time>
      </trkpt>
      <trkpt lat="48.86149" lon="2.258">
        <ele>96.4</ele>
        <time>2015-06-29T19:36:56.719Z</time>
      </trkpt>
      <trkpt lat="48.86154" lon="2.25801">
        <ele>96.3</ele>
        <time>2015-06-29T19:36:57.555Z</time>
      </trkpt>
      <trkpt lat="48.8616" lon="2.25801">
        <ele>96.1</ele>
        <time>2015-06-29T19:36:58.709Z</time>
      </trkpt>
      <trkpt lat="48.86165" lon="2.25802">
        <ele>95.8</ele>
        <time>2015-06-29T19:36:59.532Z</time>
      </trkpt>
      <trkpt lat="48.8617" lon="2.25803">
        <ele>95.5</ele>
        <time>2015-06-29T19:37:00.578Z</time>
      </trkpt>
      <trkpt lat="48.86175" lon="2.25803">
        <ele>95.5</ele>
        <time>2015-06-29T19:37:01.598Z</time>
      </trkpt>
      <trkpt lat="48.86181" lon="2.25803">
        <ele>95.1</ele>
        <time>2015-06-29T19:37:02.688Z</time>
      </trkpt>
      <trkpt lat="48.86186" lon="2.25804">
        <ele>94.6</ele>
        <time>2015-06-29T19:37:03.530Z</time>
      </trkpt>
      <trkpt lat="48.86191" lon="2.25804">
        <ele>94.7</ele>
        <time>2015-06-29T19:37:04.539Z</time>
      </trkpt>
      <trkpt lat="48.86196" lon="2.25804">
        <ele>94.9</ele>
        <time>2015-06-29T19:37:05.546Z</time>
      </trkpt>
      <trkpt lat="48.86201" lon="2.25804">
        <ele>95.2</ele>
        <time>2015-06-29T19:37:06.620Z</time>
      </trkpt>
      <trkpt lat="48.86206" lon="2.25803">
        <ele>95.7</ele>
        <time>2015-06-29T19:37:07.536Z</time>
      </trkpt>
      <trkpt lat="48.86211" lon="2.25803">
        <ele>95.8</ele>
        <time>2015-06-29T19:37:08.628Z</time>
      </trkpt>
      <trkpt lat="48.86216" lon="2.25804">
        <ele>95.8</ele>
        <time>2015-06-29T19:37:09.650Z</time>
      </trkpt>
      <trkpt lat="48.86225" lon="2.25804">
        <ele>95.8</ele>
        <time>2015-06-29T19:37:11.584Z</time>
      </trkpt>
      <trkpt lat="48.86229" lon="2.25804">
        <ele>95.7</ele>
        <time>2015-06-29T19:37:12.591Z</time>
      </trkpt>
      <trkpt lat="48.86236" lon="2.25805">
        <ele>95.8</ele>
        <time>2015-06-29T19:37:14.634Z</time>
      </trkpt>
      <trkpt lat="48.86239" lon="2.25805">
        <ele>95.8</ele>
        <time>2015-06-29T19:37:15.580Z</time>
      </trkpt>
      <trkpt lat="48.86247" lon="2.25805">
        <ele>95.2</ele>
        <time>2015-06-29T19:37:20.615Z</time>
      </trkpt>
      <trkpt lat="48.86249" lon="2.25805">
        <ele>95.9</ele>
        <time>2015-06-29T19:37:21.619Z</time>
      </trkpt>
      <trkpt lat="48.86254" lon="2.25799">
        <ele>96.4</ele>
        <time>2015-06-29T19:37:24.554Z</time>
      </trkpt>
      <trkpt lat="48.86257" lon="2.25797">
        <ele>96.4</ele>
        <time>2015-06-29T19:37:25.581Z</time>
      </trkpt>
      <trkpt lat="48.86262" lon="2.25797">
        <ele>96.9</ele>
        <time>2015-06-29T19:37:27.647Z</time>
      </trkpt>
      <trkpt lat="48.86266" lon="2.25797">
        <ele>97</ele>
        <time>2015-06-29T19:37:28.558Z</time>
      </trkpt>
      <trkpt lat="48.86273" lon="2.25798">
        <ele>97.5</ele>
        <time>2015-06-29T19:37:30.584Z</time>
      </trkpt>
      <trkpt lat="48.86276" lon="2.25798">
        <ele>97.2</ele>
        <time>2015-06-29T19:37:31.615Z</time>
      </trkpt>
      <trkpt lat="48.86283" lon="2.25798">
        <ele>96.7</ele>
        <time>2015-06-29T19:37:33.554Z</time>
      </trkpt>
      <trkpt lat="48.86286" lon="2.25798">
        <ele>96.6</ele>
        <time>2015-06-29T19:37:34.809Z</time>
      </trkpt>
      <trkpt lat="48.86295" lon="2.258">
        <ele>96.7</ele>
        <time>2015-06-29T19:37:36.634Z</time>
      </trkpt>
      <trkpt lat="48.863" lon="2.25801">
        <ele>96.9</ele>
        <time>2015-06-29T19:37:37.634Z</time>
      </trkpt>
      <trkpt lat="48.86305" lon="2.25802">
        <ele>97.6</ele>
        <time>2015-06-29T19:37:38.615Z</time>
      </trkpt>
      <trkpt lat="48.8631" lon="2.25803">
        <ele>97.8</ele>
        <time>2015-06-29T19:37:39.610Z</time>
      </trkpt>
      <trkpt lat="48.86315" lon="2.25803">
        <ele>97.9</ele>
        <time>2015-06-29T19:37:40.522Z</time>
      </trkpt>
      <trkpt lat="48.86321" lon="2.25806">
        <ele>98</ele>
        <time>2015-06-29T19:37:41.565Z</time>
      </trkpt>
      <trkpt lat="48.86326" lon="2.25807">
        <ele>97.7</ele>
        <time>2015-06-29T19:37:42.581Z</time>
      </trkpt>
      <trkpt lat="48.86331" lon="2.25808">
        <ele>97.6</ele>
        <time>2015-06-29T19:37:43.602Z</time>
      </trkpt>
      <trkpt lat="48.86339" lon="2.25811">
        <ele>96.9</ele>
        <time>2015-06-29T19:37:45.525Z</time>
      </trkpt>
      <trkpt lat="48.86344" lon="2.25813">
        <ele>96.9</ele>
        <time>2015-06-29T19:37:46.564Z</time>
      </trkpt>
      <trkpt lat="48.86349" lon="2.25814">
        <ele>96.5</ele>
        <time>2015-06-29T19:37:47.571Z</time>
      </trkpt>
      <trkpt lat="48.86354" lon="2.25816">
        <ele>96.5</ele>
        <time>2015-06-29T19:37:48.720Z</time>
      </trkpt>
      <trkpt lat="48.86359" lon="2.25817">
        <ele>96.1</ele>
        <time>2015-06-29T19:37:50.364Z</time>
      </trkpt>
      <trkpt lat="48.86364" lon="2.25819">
        <ele>95.7</ele>
        <time>2015-06-29T19:37:50.662Z</time>
      </trkpt>
      <trkpt lat="48.86369" lon="2.25821">
        <ele>95.5</ele>
        <time>2015-06-29T19:37:51.602Z</time>
      </trkpt>
      <trkpt lat="48.86374" lon="2.25822">
        <ele>95.2</ele>
        <time>2015-06-29T19:37:52.610Z</time>
      </trkpt>
      <trkpt lat="48.86379" lon="2.25825">
        <ele>95.2</ele>
        <time>2015-06-29T19:37:53.641Z</time>
      </trkpt>
      <trkpt lat="48.86384" lon="2.25827">
        <ele>95</ele>
        <time>2015-06-29T19:37:54.566Z</time>
      </trkpt>
      <trkpt lat="48.8639" lon="2.2583">
        <ele>95.1</ele>
        <time>2015-06-29T19:37:55.561Z</time>
      </trkpt>
      <trkpt lat="48.86395" lon="2.25833">
        <ele>95.3</ele>
        <time>2015-06-29T19:37:56.637Z</time>
      </trkpt>
      <trkpt lat="48.864" lon="2.25836">
        <ele>95</ele>
        <time>2015-06-29T19:37:57.559Z</time>
      </trkpt>
      <trkpt lat="48.86406" lon="2.25839">
        <ele>94.8</ele>
        <time>2015-06-29T19:37:58.560Z</time>
      </trkpt>
      <trkpt lat="48.86411" lon="2.25841">
        <ele>94.5</ele>
        <time>2015-06-29T19:37:59.571Z</time>
      </trkpt>
      <trkpt lat="48.86417" lon="2.25844">
        <ele>94.5</ele>
        <time>2015-06-29T19:38:00.586Z</time>
      </trkpt>
      <trkpt lat="48.86423" lon="2.25848">
        <ele>94.6</ele>
        <time>2015-06-29T19:38:01.674Z</time>
      </trkpt>
      <trkpt lat="48.86428" lon="2.25851">
        <ele>95</ele>
        <time>2015-06-29T19:38:02.659Z</time>
      </trkpt>
      <trkpt lat="48.86434" lon="2.25856">
        <ele>95.4</ele>
        <time>2015-06-29T19:38:03.557Z</time>
      </trkpt>
      <trkpt lat="48.86439" lon="2.25861">
        <ele>95.4</ele>
        <time>2015-06-29T19:38:04.731Z</time>
      </trkpt>
      <trkpt lat="48.86445" lon="2.25866">
        <ele>95.6</ele>
        <time>2015-06-29T19:38:05.657Z</time>
      </trkpt>
      <trkpt lat="48.86451" lon="2.2587">
        <ele>95.6</ele>
        <time>2015-06-29T19:38:06.696Z</time>
      </trkpt>
      <trkpt lat="48.86458" lon="2.25873">
        <ele>95.8</ele>
        <time>2015-06-29T19:38:07.579Z</time>
      </trkpt>
      <trkpt lat="48.86464" lon="2.25878">
        <ele>96</ele>
        <time>2015-06-29T19:38:08.674Z</time>
      </trkpt>
      <trkpt lat="48.86469" lon="2.25886">
        <ele>96.4</ele>
        <time>2015-06-29T19:38:09.574Z</time>
      </trkpt>
      <trkpt lat="48.86476" lon="2.25893">
        <ele>96.8</ele>
        <time>2015-06-29T19:38:10.579Z</time>
      </trkpt>
      <trkpt lat="48.86482" lon="2.25899">
        <ele>96.9</ele>
        <time>2015-06-29T19:38:11.646Z</time>
      </trkpt>
      <trkpt lat="48.86488" lon="2.25905">
        <ele>96.5</ele>
        <time>2015-06-29T19:38:12.653Z</time>
      </trkpt>
      <trkpt lat="48.86494" lon="2.25912">
        <ele>96.3</ele>
        <time>2015-06-29T19:38:13.568Z</time>
      </trkpt>
      <trkpt lat="48.86501" lon="2.25919">
        <ele>96.5</ele>
        <time>2015-06-29T19:38:14.633Z</time>
      </trkpt>
      <trkpt lat="48.86507" lon="2.25927">
        <ele>95.8</ele>
        <time>2015-06-29T19:38:15.638Z</time>
      </trkpt>
      <trkpt lat="48.86512" lon="2.25935">
        <ele>95.6</ele>
        <time>2015-06-29T19:38:16.654Z</time>
      </trkpt>
      <trkpt lat="48.86517" lon="2.25943">
        <ele>95.1</ele>
        <time>2015-06-29T19:38:17.575Z</time>
      </trkpt>
      <trkpt lat="48.86523" lon="2.2595">
        <ele>95</ele>
        <time>2015-06-29T19:38:18.564Z</time>
      </trkpt>
      <trkpt lat="48.86529" lon="2.25957">
        <ele>95.1</ele>
        <time>2015-06-29T19:38:19.757Z</time>
      </trkpt>
      <trkpt lat="48.86534" lon="2.25965">
        <ele>95.1</ele>
        <time>2015-06-29T19:38:20.584Z</time>
      </trkpt>
      <trkpt lat="48.86538" lon="2.25972">
        <ele>94.9</ele>
        <time>2015-06-29T19:38:21.598Z</time>
      </trkpt>
      <trkpt lat="48.86543" lon="2.2598">
        <ele>95</ele>
        <time>2015-06-29T19:38:22.604Z</time>
      </trkpt>
      <trkpt lat="48.86548" lon="2.25987">
        <ele>94.9</ele>
        <time>2015-06-29T19:38:23.615Z</time>
      </trkpt>
      <trkpt lat="48.86552" lon="2.25994">
        <ele>94.8</ele>
        <time>2015-06-29T19:38:24.654Z</time>
      </trkpt>
      <trkpt lat="48.86557" lon="2.26">
        <ele>94.8</ele>
        <time>2015-06-29T19:38:25.655Z</time>
      </trkpt>
      <trkpt lat="48.86561" lon="2.26007">
        <ele>94.6</ele>
        <time>2015-06-29T19:38:26.665Z</time>
      </trkpt>
      <trkpt lat="48.86566" lon="2.26013">
        <ele>94.5</ele>
        <time>2015-06-29T19:38:27.561Z</time>
      </trkpt>
      <trkpt lat="48.8657" lon="2.26019">
        <ele>94.4</ele>
        <time>2015-06-29T19:38:28.574Z</time>
      </trkpt>
      <trkpt lat="48.86574" lon="2.26025">
        <ele>94</ele>
        <time>2015-06-29T19:38:29.581Z</time>
      </trkpt>
      <trkpt lat="48.86579" lon="2.26029">
        <ele>93.4</ele>
        <time>2015-06-29T19:38:30.586Z</time>
      </trkpt>
      <trkpt lat="48.86583" lon="2.26034">
        <ele>93.2</ele>
        <time>2015-06-29T19:38:31.598Z</time>
      </trkpt>
      <trkpt lat="48.86587" lon="2.2604">
        <ele>93.2</ele>
        <time>2015-06-29T19:38:32.651Z</time>
      </trkpt>
      <trkpt lat="48.86592" lon="2.26045">
        <ele>92.9</ele>
        <time>2015-06-29T19:38:33.558Z</time>
      </trkpt>
      <trkpt lat="48.86596" lon="2.26051">
        <ele>92.8</ele>
        <time>2015-06-29T19:38:34.564Z</time>
      </trkpt>
      <trkpt lat="48.86602" lon="2.26057">
        <ele>93.1</ele>
        <time>2015-06-29T19:38:35.572Z</time>
      </trkpt>
      <trkpt lat="48.86606" lon="2.26063">
        <ele>93.5</ele>
        <time>2015-06-29T19:38:36.592Z</time>
      </trkpt>
      <trkpt lat="48.86611" lon="2.26069">
        <ele>93.8</ele>
        <time>2015-06-29T19:38:37.601Z</time>
      </trkpt>
      <trkpt lat="48.86616" lon="2.26076">
        <ele>93.9</ele>
        <time>2015-06-29T19:38:38.616Z</time>
      </trkpt>
      <trkpt lat="48.8662" lon="2.26083">
        <ele>93.8</ele>
        <time>2015-06-29T19:38:39.620Z</time>
      </trkpt>
      <trkpt lat="48.86624" lon="2.26091">
        <ele>93.9</ele>
        <time>2015-06-29T19:38:40.622Z</time>
      </trkpt>
      <trkpt lat="48.86629" lon="2.26097">
        <ele>93.5</ele>
        <time>2015-06-29T19:38:41.561Z</time>
      </trkpt>
      <trkpt lat="48.86633" lon="2.26103">
        <ele>93.9</ele>
        <time>2015-06-29T19:38:42.559Z</time>
      </trkpt>
      <trkpt lat="48.86638" lon="2.26109">
        <ele>94</ele>
        <time>2015-06-29T19:38:43.591Z</time>
      </trkpt>
      <trkpt lat="48.86643" lon="2.26117">
        <ele>94.1</ele>
        <time>2015-06-29T19:38:44.644Z</time>
      </trkpt>
      <trkpt lat="48.86648" lon="2.26123">
        <ele>94.1</ele>
        <time>2015-06-29T19:38:45.573Z</time>
      </trkpt>
      <trkpt lat="48.86654" lon="2.26129">
        <ele>93.7</ele>
        <time>2015-06-29T19:38:46.561Z</time>
      </trkpt>
      <trkpt lat="48.8666" lon="2.26136">
        <ele>93</ele>
        <time>2015-06-29T19:38:47.583Z</time>
      </trkpt>
      <trkpt lat="48.86666" lon="2.26143">
        <ele>93</ele>
        <time>2015-06-29T19:38:48.589Z</time>
      </trkpt>
      <trkpt lat="48.86671" lon="2.26148">
        <ele>93.2</ele>
        <time>2015-06-29T19:38:49.636Z</time>
      </trkpt>
      <trkpt lat="48.86677" lon="2.26154">
        <ele>93.4</ele>
        <time>2015-06-29T19:38:50.664Z</time>
      </trkpt>
      <trkpt lat="48.86683" lon="2.2616">
        <ele>93.3</ele>
        <time>2015-06-29T19:38:51.562Z</time>
      </trkpt>
      <trkpt lat="48.86689" lon="2.26166">
        <ele>93.5</ele>
        <time>2015-06-29T19:38:52.562Z</time>
      </trkpt>
      <trkpt lat="48.86696" lon="2.26171">
        <ele>93.3</ele>
        <time>2015-06-29T19:38:53.569Z</time>
      </trkpt>
      <trkpt lat="48.86701" lon="2.26176">
        <ele>92.8</ele>
        <time>2015-06-29T19:38:54.576Z</time>
      </trkpt>
      <trkpt lat="48.86707" lon="2.26181">
        <ele>93.2</ele>
        <time>2015-06-29T19:38:55.588Z</time>
      </trkpt>
      <trkpt lat="48.86713" lon="2.26186">
        <ele>93.2</ele>
        <time>2015-06-29T19:38:56.621Z</time>
      </trkpt>
      <trkpt lat="48.86719" lon="2.2619">
        <ele>93.1</ele>
        <time>2015-06-29T19:38:57.619Z</time>
      </trkpt>
      <trkpt lat="48.86726" lon="2.26194">
        <ele>93.2</ele>
        <time>2015-06-29T19:38:58.625Z</time>
      </trkpt>
      <trkpt lat="48.86734" lon="2.26198">
        <ele>93</ele>
        <time>2015-06-29T19:38:59.639Z</time>
      </trkpt>
      <trkpt lat="48.86741" lon="2.26202">
        <ele>93.1</ele>
        <time>2015-06-29T19:39:00.538Z</time>
      </trkpt>
      <trkpt lat="48.86747" lon="2.26206">
        <ele>93.1</ele>
        <time>2015-06-29T19:39:01.560Z</time>
      </trkpt>
      <trkpt lat="48.86754" lon="2.2621">
        <ele>93.3</ele>
        <time>2015-06-29T19:39:02.647Z</time>
      </trkpt>
      <trkpt lat="48.86761" lon="2.26214">
        <ele>93.2</ele>
        <time>2015-06-29T19:39:03.554Z</time>
      </trkpt>
      <trkpt lat="48.86767" lon="2.26218">
        <ele>93.7</ele>
        <time>2015-06-29T19:39:04.563Z</time>
      </trkpt>
      <trkpt lat="48.86774" lon="2.26223">
        <ele>93.5</ele>
        <time>2015-06-29T19:39:05.591Z</time>
      </trkpt>
      <trkpt lat="48.8678" lon="2.26229">
        <ele>93.2</ele>
        <time>2015-06-29T19:39:06.608Z</time>
      </trkpt>
      <trkpt lat="48.86786" lon="2.26236">
        <ele>93</ele>
        <time>2015-06-29T19:39:07.650Z</time>
      </trkpt>
      <trkpt lat="48.86792" lon="2.26243">
        <ele>92.2</ele>
        <time>2015-06-29T19:39:08.628Z</time>
      </trkpt>
      <trkpt lat="48.86798" lon="2.26249">
        <ele>92</ele>
        <time>2015-06-29T19:39:09.565Z</time>
      </trkpt>
      <trkpt lat="48.86803" lon="2.26255">
        <ele>91.8</ele>
        <time>2015-06-29T19:39:10.563Z</time>
      </trkpt>
      <trkpt lat="48.86808" lon="2.26263">
        <ele>91.6</ele>
        <time>2015-06-29T19:39:11.586Z</time>
      </trkpt>
      <trkpt lat="48.86813" lon="2.26271">
        <ele>91.8</ele>
        <time>2015-06-29T19:39:12.591Z</time>
      </trkpt>
      <trkpt lat="48.86817" lon="2.26279">
        <ele>92.2</ele>
        <time>2015-06-29T19:39:13.595Z</time>
      </trkpt>
      <trkpt lat="48.86821" lon="2.26287">
        <ele>92.2</ele>
        <time>2015-06-29T19:39:14.616Z</time>
      </trkpt>
      <trkpt lat="48.86825" lon="2.26295">
        <ele>92.7</ele>
        <time>2015-06-29T19:39:15.564Z</time>
      </trkpt>
      <trkpt lat="48.86828" lon="2.26302">
        <ele>93.1</ele>
        <time>2015-06-29T19:39:16.566Z</time>
      </trkpt>
      <trkpt lat="48.86832" lon="2.2631">
        <ele>93.3</ele>
        <time>2015-06-29T19:39:17.846Z</time>
      </trkpt>
      <trkpt lat="48.86835" lon="2.26317">
        <ele>93.7</ele>
        <time>2015-06-29T19:39:18.573Z</time>
      </trkpt>
      <trkpt lat="48.86839" lon="2.26324">
        <ele>94</ele>
        <time>2015-06-29T19:39:19.599Z</time>
      </trkpt>
      <trkpt lat="48.86843" lon="2.26331">
        <ele>94.1</ele>
        <time>2015-06-29T19:39:20.641Z</time>
      </trkpt>
      <trkpt lat="48.86845" lon="2.26338">
        <ele>94.4</ele>
        <time>2015-06-29T19:39:21.623Z</time>
      </trkpt>
      <trkpt lat="48.86846" lon="2.26345">
        <ele>94.6</ele>
        <time>2015-06-29T19:39:22.622Z</time>
      </trkpt>
      <trkpt lat="48.86847" lon="2.26352">
        <ele>94.7</ele>
        <time>2015-06-29T19:39:23.626Z</time>
      </trkpt>
      <trkpt lat="48.86848" lon="2.26359">
        <ele>94.2</ele>
        <time>2015-06-29T19:39:24.635Z</time>
      </trkpt>
      <trkpt lat="48.86849" lon="2.26372">
        <ele>93.9</ele>
        <time>2015-06-29T19:39:26.658Z</time>
      </trkpt>
      <trkpt lat="48.8685" lon="2.26378">
        <ele>93.8</ele>
        <time>2015-06-29T19:39:27.581Z</time>
      </trkpt>
      <trkpt lat="48.86851" lon="2.26384">
        <ele>93.5</ele>
        <time>2015-06-29T19:39:28.566Z</time>
      </trkpt>
      <trkpt lat="48.86853" lon="2.26391">
        <ele>93.2</ele>
        <time>2015-06-29T19:39:29.588Z</time>
      </trkpt>
      <trkpt lat="48.86854" lon="2.26403">
        <ele>93.1</ele>
        <time>2015-06-29T19:39:31.557Z</time>
      </trkpt>
      <trkpt lat="48.86855" lon="2.26409">
        <ele>93</ele>
        <time>2015-06-29T19:39:32.673Z</time>
      </trkpt>
      <trkpt lat="48.86856" lon="2.2642">
        <ele>93.2</ele>
        <time>2015-06-29T19:39:34.576Z</time>
      </trkpt>
      <trkpt lat="48.86856" lon="2.26426">
        <ele>92.9</ele>
        <time>2015-06-29T19:39:35.654Z</time>
      </trkpt>
      <trkpt lat="48.86856" lon="2.26438">
        <ele>93.7</ele>
        <time>2015-06-29T19:39:37.549Z</time>
      </trkpt>
      <trkpt lat="48.86856" lon="2.26444">
        <ele>93.9</ele>
        <time>2015-06-29T19:39:38.694Z</time>
      </trkpt>
      <trkpt lat="48.86855" lon="2.26456">
        <ele>93.8</ele>
        <time>2015-06-29T19:39:40.591Z</time>
      </trkpt>
      <trkpt lat="48.86855" lon="2.26461">
        <ele>93.7</ele>
        <time>2015-06-29T19:39:41.675Z</time>
      </trkpt>
      <trkpt lat="48.86854" lon="2.26472">
        <ele>93.2</ele>
        <time>2015-06-29T19:39:43.573Z</time>
      </trkpt>
      <trkpt lat="48.86854" lon="2.26477">
        <ele>93.4</ele>
        <time>2015-06-29T19:39:44.679Z</time>
      </trkpt>
      <trkpt lat="48.86853" lon="2.26487">
        <ele>93.3</ele>
        <time>2015-06-29T19:39:46.578Z</time>
      </trkpt>
      <trkpt lat="48.86852" lon="2.26492">
        <ele>93.1</ele>
        <time>2015-06-29T19:39:47.589Z</time>
      </trkpt>
      <trkpt lat="48.8685" lon="2.26501">
        <ele>92.7</ele>
        <time>2015-06-29T19:39:49.558Z</time>
      </trkpt>
      <trkpt lat="48.86849" lon="2.26505">
        <ele>92.5</ele>
        <time>2015-06-29T19:39:50.661Z</time>
      </trkpt>
      <trkpt lat="48.86844" lon="2.26516">
        <ele>92.1</ele>
        <time>2015-06-29T19:39:53.618Z</time>
      </trkpt>
      <trkpt lat="48.86843" lon="2.26519">
        <ele>92.1</ele>
        <time>2015-06-29T19:39:54.655Z</time>
      </trkpt>
      <trkpt lat="48.86842" lon="2.26507">
        <ele>87.8</ele>
        <time>2015-06-29T19:40:59.663Z</time>
      </trkpt>
      <trkpt lat="48.86843" lon="2.26504">
        <ele>87.9</ele>
        <time>2015-06-29T19:41:00.541Z</time>
      </trkpt>
      <trkpt lat="48.86844" lon="2.26494">
        <ele>87.9</ele>
        <time>2015-06-29T19:41:03.692Z</time>
      </trkpt>
      <trkpt lat="48.86845" lon="2.26489">
        <ele>87.7</ele>
        <time>2015-06-29T19:41:04.579Z</time>
      </trkpt>
      <trkpt lat="48.86846" lon="2.26481">
        <ele>87.8</ele>
        <time>2015-06-29T19:41:06.604Z</time>
      </trkpt>
      <trkpt lat="48.86846" lon="2.26476">
        <ele>88</ele>
        <time>2015-06-29T19:41:07.633Z</time>
      </trkpt>
      <trkpt lat="48.86846" lon="2.26466">
        <ele>87.9</ele>
        <time>2015-06-29T19:41:09.604Z</time>
      </trkpt>
      <trkpt lat="48.86846" lon="2.2646">
        <ele>87.9</ele>
        <time>2015-06-29T19:41:10.593Z</time>
      </trkpt>
      <trkpt lat="48.86847" lon="2.26449">
        <ele>88</ele>
        <time>2015-06-29T19:41:12.555Z</time>
      </trkpt>
      <trkpt lat="48.86848" lon="2.26443">
        <ele>87.8</ele>
        <time>2015-06-29T19:41:13.588Z</time>
      </trkpt>
      <trkpt lat="48.86847" lon="2.26432">
        <ele>87.8</ele>
        <time>2015-06-29T19:41:15.559Z</time>
      </trkpt>
      <trkpt lat="48.86846" lon="2.26426">
        <ele>87.6</ele>
        <time>2015-06-29T19:41:16.595Z</time>
      </trkpt>
      <trkpt lat="48.86845" lon="2.26414">
        <ele>87.3</ele>
        <time>2015-06-29T19:41:18.559Z</time>
      </trkpt>
      <trkpt lat="48.86845" lon="2.26408">
        <ele>87.3</ele>
        <time>2015-06-29T19:41:19.574Z</time>
      </trkpt>
      <trkpt lat="48.86844" lon="2.26395">
        <ele>87.5</ele>
        <time>2015-06-29T19:41:21.561Z</time>
      </trkpt>
      <trkpt lat="48.86843" lon="2.26388">
        <ele>87.3</ele>
        <time>2015-06-29T19:41:22.591Z</time>
      </trkpt>
      <trkpt lat="48.86842" lon="2.26381">
        <ele>87</ele>
        <time>2015-06-29T19:41:23.631Z</time>
      </trkpt>
      <trkpt lat="48.86841" lon="2.26375">
        <ele>86.9</ele>
        <time>2015-06-29T19:41:24.615Z</time>
      </trkpt>
      <trkpt lat="48.86839" lon="2.26368">
        <ele>87.2</ele>
        <time>2015-06-29T19:41:25.627Z</time>
      </trkpt>
      <trkpt lat="48.86838" lon="2.26361">
        <ele>87.2</ele>
        <time>2015-06-29T19:41:26.633Z</time>
      </trkpt>
      <trkpt lat="48.86835" lon="2.26349">
        <ele>87.5</ele>
        <time>2015-06-29T19:41:28.556Z</time>
      </trkpt>
      <trkpt lat="48.86834" lon="2.26343">
        <ele>87.9</ele>
        <time>2015-06-29T19:41:29.582Z</time>
      </trkpt>
      <trkpt lat="48.8683" lon="2.26331">
        <ele>88.3</ele>
        <time>2015-06-29T19:41:31.644Z</time>
      </trkpt>
      <trkpt lat="48.86829" lon="2.26326">
        <ele>88.5</ele>
        <time>2015-06-29T19:41:32.661Z</time>
      </trkpt>
      <trkpt lat="48.86825" lon="2.26316">
        <ele>89.3</ele>
        <time>2015-06-29T19:41:34.550Z</time>
      </trkpt>
      <trkpt lat="48.86823" lon="2.26312">
        <ele>89.6</ele>
        <time>2015-06-29T19:41:35.556Z</time>
      </trkpt>
      <trkpt lat="48.86819" lon="2.26303">
        <ele>90.1</ele>
        <time>2015-06-29T19:41:37.592Z</time>
      </trkpt>
      <trkpt lat="48.86816" lon="2.26298">
        <ele>90.3</ele>
        <time>2015-06-29T19:41:38.654Z</time>
      </trkpt>
      <trkpt lat="48.86812" lon="2.2629">
        <ele>91.3</ele>
        <time>2015-06-29T19:41:40.572Z</time>
      </trkpt>
      <trkpt lat="48.86809" lon="2.26286">
        <ele>91.7</ele>
        <time>2015-06-29T19:41:41.579Z</time>
      </trkpt>
      <trkpt lat="48.86803" lon="2.26279">
        <ele>92</ele>
        <time>2015-06-29T19:41:44.638Z</time>
      </trkpt>
      <trkpt lat="48.868" lon="2.26276">
        <ele>91.8</ele>
        <time>2015-06-29T19:41:45.606Z</time>
      </trkpt>
      <trkpt lat="48.86795" lon="2.26271">
        <ele>91.7</ele>
        <time>2015-06-29T19:41:47.620Z</time>
      </trkpt>
      <trkpt lat="48.86792" lon="2.26269">
        <ele>91.9</ele>
        <time>2015-06-29T19:41:48.627Z</time>
      </trkpt>
      <trkpt lat="48.86786" lon="2.2626">
        <ele>92.1</ele>
        <time>2015-06-29T19:41:51.556Z</time>
      </trkpt>
      <trkpt lat="48.86784" lon="2.26257">
        <ele>92</ele>
        <time>2015-06-29T19:41:52.551Z</time>
      </trkpt>
      <trkpt lat="48.86777" lon="2.2625">
        <ele>93.2</ele>
        <time>2015-06-29T19:41:56.642Z</time>
      </trkpt>
      <trkpt lat="48.86774" lon="2.2625">
        <ele>93.1</ele>
        <time>2015-06-29T19:41:57.593Z</time>
      </trkpt>
      <trkpt lat="48.86767" lon="2.26247">
        <ele>93.9</ele>
        <time>2015-06-29T19:44:42.702Z</time>
      </trkpt>
      <trkpt lat="48.86783" lon="2.26238">
        <ele>94</ele>
        <time>2015-06-29T19:44:43.593Z</time>
      </trkpt>
      <trkpt lat="48.86787" lon="2.2624">
        <ele>93.6</ele>
        <time>2015-06-29T19:45:01.559Z</time>
      </trkpt>
      <trkpt lat="48.868" lon="2.26252">
        <ele>93.5</ele>
        <time>2015-06-29T19:45:02.653Z</time>
      </trkpt>
      <trkpt lat="48.86806" lon="2.2626">
        <ele>93.5</ele>
        <time>2015-06-29T19:45:06.659Z</time>
      </trkpt>
      <trkpt lat="48.86808" lon="2.26262">
        <ele>93.5</ele>
        <time>2015-06-29T19:45:07.605Z</time>
      </trkpt>
      <trkpt lat="48.86814" lon="2.26268">
        <ele>93.5</ele>
        <time>2015-06-29T19:45:10.632Z</time>
      </trkpt>
      <trkpt lat="48.86815" lon="2.2627">
        <ele>93.1</ele>
        <time>2015-06-29T19:45:11.582Z</time>
      </trkpt>
      <trkpt lat="48.86821" lon="2.26277">
        <ele>93.9</ele>
        <time>2015-06-29T19:45:14.640Z</time>
      </trkpt>
      <trkpt lat="48.86823" lon="2.2628">
        <ele>94.2</ele>
        <time>2015-06-29T19:45:15.565Z</time>
      </trkpt>
      <trkpt lat="48.86827" lon="2.26287">
        <ele>95.7</ele>
        <time>2015-06-29T19:45:18.592Z</time>
      </trkpt>
      <trkpt lat="48.86829" lon="2.2629">
        <ele>95.7</ele>
        <time>2015-06-29T19:45:19.598Z</time>
      </trkpt>
      <trkpt lat="48.86834" lon="2.263">
        <ele>97.3</ele>
        <time>2015-06-29T19:45:23.586Z</time>
      </trkpt>
      <trkpt lat="48.86836" lon="2.26302">
        <ele>97.6</ele>
        <time>2015-06-29T19:45:24.587Z</time>
      </trkpt>
      <trkpt lat="48.86842" lon="2.2631">
        <ele>98.8</ele>
        <time>2015-06-29T19:45:29.565Z</time>
      </trkpt>
      <trkpt lat="48.86844" lon="2.26311">
        <ele>99</ele>
        <time>2015-06-29T19:45:30.578Z</time>
      </trkpt>
      <trkpt lat="48.86842" lon="2.263">
        <ele>94.7</ele>
        <time>2015-06-29T19:45:46.630Z</time>
      </trkpt>
      <trkpt lat="48.86843" lon="2.26296">
        <ele>94.2</ele>
        <time>2015-06-29T19:45:47.589Z</time>
      </trkpt>
      <trkpt lat="48.86843" lon="2.26284">
        <ele>94.4</ele>
        <time>2015-06-29T19:45:50.582Z</time>
      </trkpt>
      <trkpt lat="48.86843" lon="2.26279">
        <ele>94.6</ele>
        <time>2015-06-29T19:45:51.593Z</time>
      </trkpt>
      <trkpt lat="48.86843" lon="2.2627">
        <ele>94.8</ele>
        <time>2015-06-29T19:45:53.670Z</time>
      </trkpt>
      <trkpt lat="48.86843" lon="2.26265">
        <ele>94.9</ele>
        <time>2015-06-29T19:45:54.586Z</time>
      </trkpt>
      <trkpt lat="48.86843" lon="2.26253">
        <ele>95.5</ele>
        <time>2015-06-29T19:45:57.645Z</time>
      </trkpt>
      <trkpt lat="48.86842" lon="2.2625">
        <ele>95.5</ele>
        <time>2015-06-29T19:45:58.577Z</time>
      </trkpt>
      <trkpt lat="48.86842" lon="2.26239">
        <ele>95.8</ele>
        <time>2015-06-29T19:46:01.615Z</time>
      </trkpt>
      <trkpt lat="48.86842" lon="2.26235">
        <ele>95.8</ele>
        <time>2015-06-29T19:46:02.652Z</time>
      </trkpt>
      <trkpt lat="48.86843" lon="2.26223">
        <ele>95.6</ele>
        <time>2015-06-29T19:46:05.583Z</time>
      </trkpt>
      <trkpt lat="48.86843" lon="2.26219">
        <ele>95.4</ele>
        <time>2015-06-29T19:46:06.599Z</time>
      </trkpt>
      <trkpt lat="48.86843" lon="2.26206">
        <ele>95.2</ele>
        <time>2015-06-29T19:46:09.647Z</time>
      </trkpt>
      <trkpt lat="48.86843" lon="2.26202">
        <ele>95.4</ele>
        <time>2015-06-29T19:46:10.560Z</time>
      </trkpt>
      <trkpt lat="48.86841" lon="2.26191">
        <ele>95.8</ele>
        <time>2015-06-29T19:46:13.607Z</time>
      </trkpt>
      <trkpt lat="48.8684" lon="2.26188">
        <ele>95.9</ele>
        <time>2015-06-29T19:46:14.633Z</time>
      </trkpt>
      <trkpt lat="48.86839" lon="2.26176">
        <ele>95.9</ele>
        <time>2015-06-29T19:46:17.595Z</time>
      </trkpt>
      <trkpt lat="48.86838" lon="2.26171">
        <ele>96</ele>
        <time>2015-06-29T19:46:18.610Z</time>
      </trkpt>
      <trkpt lat="48.86836" lon="2.26158">
        <ele>95.6</ele>
        <time>2015-06-29T19:46:21.579Z</time>
      </trkpt>
      <trkpt lat="48.86835" lon="2.26155">
        <ele>95.4</ele>
        <time>2015-06-29T19:46:22.628Z</time>
      </trkpt>
      <trkpt lat="48.86834" lon="2.26146">
        <ele>95.5</ele>
        <time>2015-06-29T19:46:24.639Z</time>
      </trkpt>
      <trkpt lat="48.86833" lon="2.26141">
        <ele>95.2</ele>
        <time>2015-06-29T19:46:25.652Z</time>
      </trkpt>
      <trkpt lat="48.8683" lon="2.26131">
        <ele>94.6</ele>
        <time>2015-06-29T19:46:27.598Z</time>
      </trkpt>
      <trkpt lat="48.86829" lon="2.26127">
        <ele>94.4</ele>
        <time>2015-06-29T19:46:28.622Z</time>
      </trkpt>
      <trkpt lat="48.86827" lon="2.26114">
        <ele>95.1</ele>
        <time>2015-06-29T19:46:31.578Z</time>
      </trkpt>
      <trkpt lat="48.86826" lon="2.2611">
        <ele>95.2</ele>
        <time>2015-06-29T19:46:32.622Z</time>
      </trkpt>
      <trkpt lat="48.86824" lon="2.26099">
        <ele>95.6</ele>
        <time>2015-06-29T19:46:35.576Z</time>
      </trkpt>
      <trkpt lat="48.86824" lon="2.26095">
        <ele>95.8</ele>
        <time>2015-06-29T19:46:36.592Z</time>
      </trkpt>
      <trkpt lat="48.86821" lon="2.26085">
        <ele>95.5</ele>
        <time>2015-06-29T19:46:38.631Z</time>
      </trkpt>
      <trkpt lat="48.86819" lon="2.2608">
        <ele>95.3</ele>
        <time>2015-06-29T19:46:39.629Z</time>
      </trkpt>
      <trkpt lat="48.86816" lon="2.26072">
        <ele>95.1</ele>
        <time>2015-06-29T19:46:41.556Z</time>
      </trkpt>
      <trkpt lat="48.86815" lon="2.26067">
        <ele>95.1</ele>
        <time>2015-06-29T19:46:42.633Z</time>
      </trkpt>
      <trkpt lat="48.86812" lon="2.26055">
        <ele>95.2</ele>
        <time>2015-06-29T19:46:45.613Z</time>
      </trkpt>
      <trkpt lat="48.86811" lon="2.2605">
        <ele>95.2</ele>
        <time>2015-06-29T19:46:46.529Z</time>
      </trkpt>
      <trkpt lat="48.86808" lon="2.2604">
        <ele>95.4</ele>
        <time>2015-06-29T19:46:48.582Z</time>
      </trkpt>
      <trkpt lat="48.86806" lon="2.26036">
        <ele>95.4</ele>
        <time>2015-06-29T19:46:49.601Z</time>
      </trkpt>
      <trkpt lat="48.86803" lon="2.26029">
        <ele>95.3</ele>
        <time>2015-06-29T19:46:51.575Z</time>
      </trkpt>
      <trkpt lat="48.86801" lon="2.26025">
        <ele>95</ele>
        <time>2015-06-29T19:46:52.563Z</time>
      </trkpt>
      <trkpt lat="48.86797" lon="2.26015">
        <ele>94.2</ele>
        <time>2015-06-29T19:46:54.584Z</time>
      </trkpt>
      <trkpt lat="48.86795" lon="2.26013">
        <ele>94</ele>
        <time>2015-06-29T19:46:55.638Z</time>
      </trkpt>
      <trkpt lat="48.86789" lon="2.26004">
        <ele>93.7</ele>
        <time>2015-06-29T19:46:58.583Z</time>
      </trkpt>
      <trkpt lat="48.86787" lon="2.26001">
        <ele>93.7</ele>
        <time>2015-06-29T19:46:59.598Z</time>
      </trkpt>
      <trkpt lat="48.86781" lon="2.2599">
        <ele>92.5</ele>
        <time>2015-06-29T19:47:02.640Z</time>
      </trkpt>
      <trkpt lat="48.8678" lon="2.25986">
        <ele>92.2</ele>
        <time>2015-06-29T19:47:03.615Z</time>
      </trkpt>
      <trkpt lat="48.86777" lon="2.25978">
        <ele>92.3</ele>
        <time>2015-06-29T19:47:05.560Z</time>
      </trkpt>
      <trkpt lat="48.86776" lon="2.25973">
        <ele>92.7</ele>
        <time>2015-06-29T19:47:06.590Z</time>
      </trkpt>
      <trkpt lat="48.86772" lon="2.25965">
        <ele>92.6</ele>
        <time>2015-06-29T19:47:08.632Z</time>
      </trkpt>
      <trkpt lat="48.8677" lon="2.25961">
        <ele>92.1</ele>
        <time>2015-06-29T19:47:09.587Z</time>
      </trkpt>
      <trkpt lat="48.86766" lon="2.25953">
        <ele>92.3</ele>
        <time>2015-06-29T19:47:11.555Z</time>
      </trkpt>
      <trkpt lat="48.86765" lon="2.25948">
        <ele>92</ele>
        <time>2015-06-29T19:47:12.599Z</time>
      </trkpt>
      <trkpt lat="48.86762" lon="2.25938">
        <ele>91.6</ele>
        <time>2015-06-29T19:47:14.634Z</time>
      </trkpt>
      <trkpt lat="48.86761" lon="2.25933">
        <ele>91.6</ele>
        <time>2015-06-29T19:47:15.642Z</time>
      </trkpt>
      <trkpt lat="48.86757" lon="2.25925">
        <ele>91.7</ele>
        <time>2015-06-29T19:47:17.568Z</time>
      </trkpt>
      <trkpt lat="48.86756" lon="2.2592">
        <ele>91.7</ele>
        <time>2015-06-29T19:47:18.582Z</time>
      </trkpt>
      <trkpt lat="48.86753" lon="2.25911">
        <ele>91.5</ele>
        <time>2015-06-29T19:47:20.614Z</time>
      </trkpt>
      <trkpt lat="48.86752" lon="2.25904">
        <ele>91.8</ele>
        <time>2015-06-29T19:47:21.625Z</time>
      </trkpt>
      <trkpt lat="48.86749" lon="2.25895">
        <ele>92</ele>
        <time>2015-06-29T19:47:23.543Z</time>
      </trkpt>
      <trkpt lat="48.86746" lon="2.25892">
        <ele>91.5</ele>
        <time>2015-06-29T19:47:24.578Z</time>
      </trkpt>
      <trkpt lat="48.86743" lon="2.25882">
        <ele>91.5</ele>
        <time>2015-06-29T19:47:26.605Z</time>
      </trkpt>
      <trkpt lat="48.86741" lon="2.25878">
        <ele>91.4</ele>
        <time>2015-06-29T19:47:27.623Z</time>
      </trkpt>
      <trkpt lat="48.86739" lon="2.25867">
        <ele>90.7</ele>
        <time>2015-06-29T19:47:29.554Z</time>
      </trkpt>
      <trkpt lat="48.86738" lon="2.25861">
        <ele>90.1</ele>
        <time>2015-06-29T19:47:30.655Z</time>
      </trkpt>
      <trkpt lat="48.86735" lon="2.25851">
        <ele>89.8</ele>
        <time>2015-06-29T19:47:32.609Z</time>
      </trkpt>
      <trkpt lat="48.86734" lon="2.25845">
        <ele>89.8</ele>
        <time>2015-06-29T19:47:33.630Z</time>
      </trkpt>
      <trkpt lat="48.86733" lon="2.25834">
        <ele>89.9</ele>
        <time>2015-06-29T19:47:35.553Z</time>
      </trkpt>
      <trkpt lat="48.86732" lon="2.25829">
        <ele>89.9</ele>
        <time>2015-06-29T19:47:36.576Z</time>
      </trkpt>
      <trkpt lat="48.8673" lon="2.25817">
        <ele>90.2</ele>
        <time>2015-06-29T19:47:38.645Z</time>
      </trkpt>
      <trkpt lat="48.86728" lon="2.25812">
        <ele>90.4</ele>
        <time>2015-06-29T19:47:39.665Z</time>
      </trkpt>
      <trkpt lat="48.86727" lon="2.258">
        <ele>90.1</ele>
        <time>2015-06-29T19:47:41.571Z</time>
      </trkpt>
      <trkpt lat="48.86725" lon="2.25795">
        <ele>89.8</ele>
        <time>2015-06-29T19:47:42.664Z</time>
      </trkpt>
      <trkpt lat="48.86723" lon="2.25785">
        <ele>89.6</ele>
        <time>2015-06-29T19:47:44.652Z</time>
      </trkpt>
      <trkpt lat="48.86721" lon="2.25779">
        <ele>89.2</ele>
        <time>2015-06-29T19:47:45.662Z</time>
      </trkpt>
      <trkpt lat="48.86719" lon="2.25767">
        <ele>89.3</ele>
        <time>2015-06-29T19:47:47.595Z</time>
      </trkpt>
      <trkpt lat="48.86718" lon="2.25762">
        <ele>89.6</ele>
        <time>2015-06-29T19:47:48.612Z</time>
      </trkpt>
      <trkpt lat="48.86716" lon="2.25752">
        <ele>89.4</ele>
        <time>2015-06-29T19:47:50.643Z</time>
      </trkpt>
      <trkpt lat="48.86715" lon="2.25746">
        <ele>89.4</ele>
        <time>2015-06-29T19:47:51.581Z</time>
      </trkpt>
      <trkpt lat="48.86714" lon="2.25733">
        <ele>89.1</ele>
        <time>2015-06-29T19:47:53.611Z</time>
      </trkpt>
      <trkpt lat="48.86712" lon="2.25727">
        <ele>89.2</ele>
        <time>2015-06-29T19:47:54.616Z</time>
      </trkpt>
      <trkpt lat="48.86711" lon="2.2572">
        <ele>89.2</ele>
        <time>2015-06-29T19:47:55.622Z</time>
      </trkpt>
      <trkpt lat="48.86709" lon="2.25713">
        <ele>89.3</ele>
        <time>2015-06-29T19:47:56.637Z</time>
      </trkpt>
      <trkpt lat="48.86707" lon="2.25706">
        <ele>89.3</ele>
        <time>2015-06-29T19:47:57.550Z</time>
      </trkpt>
      <trkpt lat="48.86706" lon="2.25699">
        <ele>89.6</ele>
        <time>2015-06-29T19:47:58.559Z</time>
      </trkpt>
      <trkpt lat="48.86705" lon="2.25687">
        <ele>89.9</ele>
        <time>2015-06-29T19:48:00.578Z</time>
      </trkpt>
      <trkpt lat="48.86704" lon="2.25681">
        <ele>90</ele>
        <time>2015-06-29T19:48:01.587Z</time>
      </trkpt>
      <trkpt lat="48.86702" lon="2.25669">
        <ele>90.1</ele>
        <time>2015-06-29T19:48:03.620Z</time>
      </trkpt>
      <trkpt lat="48.86701" lon="2.25664">
        <ele>90.4</ele>
        <time>2015-06-29T19:48:04.595Z</time>
      </trkpt>
      <trkpt lat="48.86698" lon="2.25653">
        <ele>90.8</ele>
        <time>2015-06-29T19:48:06.577Z</time>
      </trkpt>
      <trkpt lat="48.86696" lon="2.25647">
        <ele>90.9</ele>
        <time>2015-06-29T19:48:07.580Z</time>
      </trkpt>
      <trkpt lat="48.86694" lon="2.25634">
        <ele>90.9</ele>
        <time>2015-06-29T19:48:09.807Z</time>
      </trkpt>
      <trkpt lat="48.86693" lon="2.25629">
        <ele>91.2</ele>
        <time>2015-06-29T19:48:10.625Z</time>
      </trkpt>
      <trkpt lat="48.86692" lon="2.25619">
        <ele>91.4</ele>
        <time>2015-06-29T19:48:12.571Z</time>
      </trkpt>
      <trkpt lat="48.86691" lon="2.25614">
        <ele>91.3</ele>
        <time>2015-06-29T19:48:13.577Z</time>
      </trkpt>
      <trkpt lat="48.86689" lon="2.25603">
        <ele>91.3</ele>
        <time>2015-06-29T19:48:15.515Z</time>
      </trkpt>
      <trkpt lat="48.86687" lon="2.25596">
        <ele>91.2</ele>
        <time>2015-06-29T19:48:16.578Z</time>
      </trkpt>
      <trkpt lat="48.86685" lon="2.25584">
        <ele>91</ele>
        <time>2015-06-29T19:48:18.611Z</time>
      </trkpt>
      <trkpt lat="48.86685" lon="2.25579">
        <ele>90.9</ele>
        <time>2015-06-29T19:48:19.631Z</time>
      </trkpt>
      <trkpt lat="48.86685" lon="2.25571">
        <ele>89.9</ele>
        <time>2015-06-29T19:48:20.665Z</time>
      </trkpt>
      <trkpt lat="48.86684" lon="2.25564">
        <ele>89.6</ele>
        <time>2015-06-29T19:48:21.537Z</time>
      </trkpt>
      <trkpt lat="48.86682" lon="2.25551">
        <ele>89.2</ele>
        <time>2015-06-29T19:48:23.566Z</time>
      </trkpt>
      <trkpt lat="48.8668" lon="2.25544">
        <ele>89.3</ele>
        <time>2015-06-29T19:48:24.579Z</time>
      </trkpt>
      <trkpt lat="48.86679" lon="2.25533">
        <ele>89.5</ele>
        <time>2015-06-29T19:48:26.583Z</time>
      </trkpt>
      <trkpt lat="48.86678" lon="2.25527">
        <ele>89.4</ele>
        <time>2015-06-29T19:48:27.609Z</time>
      </trkpt>
      <trkpt lat="48.86676" lon="2.25517">
        <ele>89.2</ele>
        <time>2015-06-29T19:48:30.012Z</time>
      </trkpt>
      <trkpt lat="48.86676" lon="2.25511">
        <ele>89.2</ele>
        <time>2015-06-29T19:48:30.601Z</time>
      </trkpt>
      <trkpt lat="48.86673" lon="2.25499">
        <ele>89.1</ele>
        <time>2015-06-29T19:48:32.995Z</time>
      </trkpt>
      <trkpt lat="48.86672" lon="2.25493">
        <ele>89</ele>
        <time>2015-06-29T19:48:33.514Z</time>
      </trkpt>
      <trkpt lat="48.8667" lon="2.25482">
        <ele>89.4</ele>
        <time>2015-06-29T19:48:35.519Z</time>
      </trkpt>
      <trkpt lat="48.8667" lon="2.25477">
        <ele>89.6</ele>
        <time>2015-06-29T19:48:36.545Z</time>
      </trkpt>
      <trkpt lat="48.86668" lon="2.25466">
        <ele>89.6</ele>
        <time>2015-06-29T19:48:39.565Z</time>
      </trkpt>
      <trkpt lat="48.86666" lon="2.25462">
        <ele>89.6</ele>
        <time>2015-06-29T19:48:40.779Z</time>
      </trkpt>
      <trkpt lat="48.86664" lon="2.25453">
        <ele>89.7</ele>
        <time>2015-06-29T19:48:43.577Z</time>
      </trkpt>
      <trkpt lat="48.86663" lon="2.2545">
        <ele>90</ele>
        <time>2015-06-29T19:48:44.572Z</time>
      </trkpt>
      <trkpt lat="48.8666" lon="2.25438">
        <ele>91.1</ele>
        <time>2015-06-29T19:48:53.294Z</time>
      </trkpt>
      <trkpt lat="48.86658" lon="2.25435">
        <ele>91.6</ele>
        <time>2015-06-29T19:48:54.727Z</time>
      </trkpt>
      <trkpt lat="48.86655" lon="2.25424">
        <ele>92.2</ele>
        <time>2015-06-29T19:48:59.572Z</time>
      </trkpt>
      <trkpt lat="48.86654" lon="2.25421">
        <ele>92.3</ele>
        <time>2015-06-29T19:49:00.546Z</time>
      </trkpt>
      <trkpt lat="48.86651" lon="2.25409">
        <ele>91.7</ele>
        <time>2015-06-29T19:49:04.528Z</time>
      </trkpt>
      <trkpt lat="48.86651" lon="2.25406">
        <ele>91.5</ele>
        <time>2015-06-29T19:49:05.611Z</time>
      </trkpt>
      <trkpt lat="48.86648" lon="2.25397">
        <ele>91.6</ele>
        <time>2015-06-29T19:49:08.870Z</time>
      </trkpt>
      <trkpt lat="48.86647" lon="2.25393">
        <ele>91.6</ele>
        <time>2015-06-29T19:49:09.528Z</time>
      </trkpt>
      <trkpt lat="48.86644" lon="2.25385">
        <ele>92.1</ele>
        <time>2015-06-29T19:49:11.611Z</time>
      </trkpt>
      <trkpt lat="48.86643" lon="2.2538">
        <ele>92.1</ele>
        <time>2015-06-29T19:49:12.610Z</time>
      </trkpt>
      <trkpt lat="48.8664" lon="2.25372">
        <ele>91.7</ele>
        <time>2015-06-29T19:49:14.597Z</time>
      </trkpt>
      <trkpt lat="48.86639" lon="2.25368">
        <ele>91.3</ele>
        <time>2015-06-29T19:49:15.531Z</time>
      </trkpt>
      <trkpt lat="48.86636" lon="2.25359">
        <ele>90.6</ele>
        <time>2015-06-29T19:49:17.558Z</time>
      </trkpt>
      <trkpt lat="48.86634" lon="2.25355">
        <ele>90.6</ele>
        <time>2015-06-29T19:49:18.594Z</time>
      </trkpt>
      <trkpt lat="48.86631" lon="2.25345">
        <ele>90.8</ele>
        <time>2015-06-29T19:49:20.720Z</time>
      </trkpt>
      <trkpt lat="48.86629" lon="2.2534">
        <ele>91.2</ele>
        <time>2015-06-29T19:49:21.561Z</time>
      </trkpt>
      <trkpt lat="48.86625" lon="2.2533">
        <ele>91.3</ele>
        <time>2015-06-29T19:49:23.524Z</time>
      </trkpt>
      <trkpt lat="48.86623" lon="2.25325">
        <ele>91.5</ele>
        <time>2015-06-29T19:49:24.568Z</time>
      </trkpt>
      <trkpt lat="48.8662" lon="2.25316">
        <ele>91.8</ele>
        <time>2015-06-29T19:49:26.673Z</time>
      </trkpt>
      <trkpt lat="48.86617" lon="2.25312">
        <ele>92</ele>
        <time>2015-06-29T19:49:27.519Z</time>
      </trkpt>
      <trkpt lat="48.86614" lon="2.25302">
        <ele>91.9</ele>
        <time>2015-06-29T19:49:29.541Z</time>
      </trkpt>
      <trkpt lat="48.86612" lon="2.25296">
        <ele>91.7</ele>
        <time>2015-06-29T19:49:30.552Z</time>
      </trkpt>
      <trkpt lat="48.86609" lon="2.25287">
        <ele>91.7</ele>
        <time>2015-06-29T19:49:32.625Z</time>
      </trkpt>
      <trkpt lat="48.86606" lon="2.25281">
        <ele>91.3</ele>
        <time>2015-06-29T19:49:33.639Z</time>
      </trkpt>
      <trkpt lat="48.86602" lon="2.25272">
        <ele>90.8</ele>
        <time>2015-06-29T19:49:35.615Z</time>
      </trkpt>
      <trkpt lat="48.86601" lon="2.25268">
        <ele>91</ele>
        <time>2015-06-29T19:49:36.710Z</time>
      </trkpt>
      <trkpt lat="48.86597" lon="2.25258">
        <ele>91</ele>
        <time>2015-06-29T19:49:38.633Z</time>
      </trkpt>
      <trkpt lat="48.86595" lon="2.25253">
        <ele>91.2</ele>
        <time>2015-06-29T19:49:39.528Z</time>
      </trkpt>
      <trkpt lat="48.86591" lon="2.25242">
        <ele>91.5</ele>
        <time>2015-06-29T19:49:41.558Z</time>
      </trkpt>
      <trkpt lat="48.86589" lon="2.25237">
        <ele>91.6</ele>
        <time>2015-06-29T19:49:42.562Z</time>
      </trkpt>
      <trkpt lat="48.86586" lon="2.25231">
        <ele>91.3</ele>
        <time>2015-06-29T19:49:43.577Z</time>
      </trkpt>
      <trkpt lat="48.86583" lon="2.25225">
        <ele>91.2</ele>
        <time>2015-06-29T19:49:44.632Z</time>
      </trkpt>
      <trkpt lat="48.86579" lon="2.25214">
        <ele>91</ele>
        <time>2015-06-29T19:49:46.602Z</time>
      </trkpt>
      <trkpt lat="48.86577" lon="2.25209">
        <ele>90.8</ele>
        <time>2015-06-29T19:49:47.520Z</time>
      </trkpt>
      <trkpt lat="48.86573" lon="2.25197">
        <ele>91.3</ele>
        <time>2015-06-29T19:49:50.490Z</time>
      </trkpt>
      <trkpt lat="48.8657" lon="2.25191">
        <ele>91.3</ele>
        <time>2015-06-29T19:49:50.738Z</time>
      </trkpt>
      <trkpt lat="48.86567" lon="2.25184">
        <ele>91.5</ele>
        <time>2015-06-29T19:49:51.639Z</time>
      </trkpt>
      <trkpt lat="48.86564" lon="2.25177">
        <ele>91.5</ele>
        <time>2015-06-29T19:49:52.555Z</time>
      </trkpt>
      <trkpt lat="48.86562" lon="2.2517">
        <ele>91.6</ele>
        <time>2015-06-29T19:49:53.556Z</time>
      </trkpt>
      <trkpt lat="48.86559" lon="2.25164">
        <ele>91.7</ele>
        <time>2015-06-29T19:49:54.567Z</time>
      </trkpt>
      <trkpt lat="48.86556" lon="2.25157">
        <ele>91.4</ele>
        <time>2015-06-29T19:49:55.557Z</time>
      </trkpt>
      <trkpt lat="48.86554" lon="2.25151">
        <ele>91.5</ele>
        <time>2015-06-29T19:49:56.666Z</time>
      </trkpt>
      <trkpt lat="48.86552" lon="2.25144">
        <ele>91.5</ele>
        <time>2015-06-29T19:49:57.527Z</time>
      </trkpt>
      <trkpt lat="48.8655" lon="2.25138">
        <ele>91.4</ele>
        <time>2015-06-29T19:49:58.544Z</time>
      </trkpt>
      <trkpt lat="48.86548" lon="2.25131">
        <ele>91.2</ele>
        <time>2015-06-29T19:49:59.547Z</time>
      </trkpt>
      <trkpt lat="48.86546" lon="2.25124">
        <ele>91.1</ele>
        <time>2015-06-29T19:50:00.635Z</time>
      </trkpt>
      <trkpt lat="48.86544" lon="2.25117">
        <ele>91</ele>
        <time>2015-06-29T19:50:01.710Z</time>
      </trkpt>
      <trkpt lat="48.86542" lon="2.2511">
        <ele>90.9</ele>
        <time>2015-06-29T19:50:02.613Z</time>
      </trkpt>
      <trkpt lat="48.86539" lon="2.25098">
        <ele>90.7</ele>
        <time>2015-06-29T19:50:04.551Z</time>
      </trkpt>
      <trkpt lat="48.86537" lon="2.25093">
        <ele>90.7</ele>
        <time>2015-06-29T19:50:05.555Z</time>
      </trkpt>
      <trkpt lat="48.86533" lon="2.25083">
        <ele>91.1</ele>
        <time>2015-06-29T19:50:07.569Z</time>
      </trkpt>
      <trkpt lat="48.86531" lon="2.25077">
        <ele>91.4</ele>
        <time>2015-06-29T19:50:08.806Z</time>
      </trkpt>
      <trkpt lat="48.86529" lon="2.25066">
        <ele>91.3</ele>
        <time>2015-06-29T19:50:10.524Z</time>
      </trkpt>
      <trkpt lat="48.86526" lon="2.25059">
        <ele>91.4</ele>
        <time>2015-06-29T19:50:11.542Z</time>
      </trkpt>
      <trkpt lat="48.86524" lon="2.25053">
        <ele>91</ele>
        <time>2015-06-29T19:50:12.581Z</time>
      </trkpt>
      <trkpt lat="48.86523" lon="2.25045">
        <ele>91</ele>
        <time>2015-06-29T19:50:13.684Z</time>
      </trkpt>
      <trkpt lat="48.86521" lon="2.25038">
        <ele>90.9</ele>
        <time>2015-06-29T19:50:14.569Z</time>
      </trkpt>
      <trkpt lat="48.86519" lon="2.25031">
        <ele>90.9</ele>
        <time>2015-06-29T19:50:15.588Z</time>
      </trkpt>
      <trkpt lat="48.86518" lon="2.25024">
        <ele>90.8</ele>
        <time>2015-06-29T19:50:16.526Z</time>
      </trkpt>
      <trkpt lat="48.86516" lon="2.25017">
        <ele>90.5</ele>
        <time>2015-06-29T19:50:17.612Z</time>
      </trkpt>
      <trkpt lat="48.86514" lon="2.25004">
        <ele>90.2</ele>
        <time>2015-06-29T19:50:19.606Z</time>
      </trkpt>
      <trkpt lat="48.86513" lon="2.24998">
        <ele>89.9</ele>
        <time>2015-06-29T19:50:20.696Z</time>
      </trkpt>
      <trkpt lat="48.86511" lon="2.24986">
        <ele>89.3</ele>
        <time>2015-06-29T19:50:22.540Z</time>
      </trkpt>
      <trkpt lat="48.8651" lon="2.2498">
        <ele>88.6</ele>
        <time>2015-06-29T19:50:23.658Z</time>
      </trkpt>
      <trkpt lat="48.86509" lon="2.24968">
        <ele>88.1</ele>
        <time>2015-06-29T19:50:26.623Z</time>
      </trkpt>
      <trkpt lat="48.86509" lon="2.24964">
        <ele>87.7</ele>
        <time>2015-06-29T19:50:27.518Z</time>
      </trkpt>
      <trkpt lat="48.86506" lon="2.24953">
        <ele>87.2</ele>
        <time>2015-06-29T19:50:30.540Z</time>
      </trkpt>
      <trkpt lat="48.86505" lon="2.24949">
        <ele>87.3</ele>
        <time>2015-06-29T19:50:31.577Z</time>
      </trkpt>
      <trkpt lat="48.86503" lon="2.24937">
        <ele>87.5</ele>
        <time>2015-06-29T19:50:34.566Z</time>
      </trkpt>
      <trkpt lat="48.86502" lon="2.24933">
        <ele>87.3</ele>
        <time>2015-06-29T19:50:35.621Z</time>
      </trkpt>
      <trkpt lat="48.86499" lon="2.24924">
        <ele>87.5</ele>
        <time>2015-06-29T19:50:37.548Z</time>
      </trkpt>
      <trkpt lat="48.86498" lon="2.2492">
        <ele>87.6</ele>
        <time>2015-06-29T19:50:38.579Z</time>
      </trkpt>
      <trkpt lat="48.86493" lon="2.2491">
        <ele>88.5</ele>
        <time>2015-06-29T19:50:41.710Z</time>
      </trkpt>
      <trkpt lat="48.86491" lon="2.24906">
        <ele>88.9</ele>
        <time>2015-06-29T19:50:42.580Z</time>
      </trkpt>
      <trkpt lat="48.86484" lon="2.24899">
        <ele>89</ele>
        <time>2015-06-29T19:50:46.520Z</time>
      </trkpt>
      <trkpt lat="48.86482" lon="2.24898">
        <ele>89.1</ele>
        <time>2015-06-29T19:50:47.526Z</time>
      </trkpt>
      <trkpt lat="48.86479" lon="2.24896">
        <ele>89.8</ele>
        <time>2015-06-29T19:51:00.537Z</time>
      </trkpt>
      <trkpt lat="48.86472" lon="2.24892">
        <ele>90</ele>
        <time>2015-06-29T19:51:01.761Z</time>
      </trkpt>
      <trkpt lat="48.86465" lon="2.24889">
        <ele>90.6</ele>
        <time>2015-06-29T19:51:04.691Z</time>
      </trkpt>
      <trkpt lat="48.86462" lon="2.24887">
        <ele>90.6</ele>
        <time>2015-06-29T19:51:05.557Z</time>
      </trkpt>
      <trkpt lat="48.86456" lon="2.24884">
        <ele>90.4</ele>
        <time>2015-06-29T19:51:07.592Z</time>
      </trkpt>
      <trkpt lat="48.86452" lon="2.24882">
        <ele>90.2</ele>
        <time>2015-06-29T19:51:08.615Z</time>
      </trkpt>
      <trkpt lat="48.86444" lon="2.24879">
        <ele>90.1</ele>
        <time>2015-06-29T19:51:09.866Z</time>
      </trkpt>
      <trkpt lat="48.8644" lon="2.24877">
        <ele>90.2</ele>
        <time>2015-06-29T19:51:11.564Z</time>
      </trkpt>
      <trkpt lat="48.86432" lon="2.24874">
        <ele>90</ele>
        <time>2015-06-29T19:51:13.694Z</time>
      </trkpt>
      <trkpt lat="48.86428" lon="2.24872">
        <ele>90.2</ele>
        <time>2015-06-29T19:51:14.566Z</time>
      </trkpt>
      <trkpt lat="48.86421" lon="2.24867">
        <ele>90.4</ele>
        <time>2015-06-29T19:51:16.603Z</time>
      </trkpt>
      <trkpt lat="48.86418" lon="2.24865">
        <ele>90.4</ele>
        <time>2015-06-29T19:51:17.554Z</time>
      </trkpt>
      <trkpt lat="48.86412" lon="2.24861">
        <ele>91</ele>
        <time>2015-06-29T19:51:19.580Z</time>
      </trkpt>
      <trkpt lat="48.86408" lon="2.24859">
        <ele>91.3</ele>
        <time>2015-06-29T19:51:20.611Z</time>
      </trkpt>
      <trkpt lat="48.864" lon="2.24856">
        <ele>91.1</ele>
        <time>2015-06-29T19:51:22.561Z</time>
      </trkpt>
      <trkpt lat="48.86396" lon="2.24853">
        <ele>91.1</ele>
        <time>2015-06-29T19:51:23.563Z</time>
      </trkpt>
      <trkpt lat="48.86389" lon="2.24851">
        <ele>91.3</ele>
        <time>2015-06-29T19:51:25.587Z</time>
      </trkpt>
      <trkpt lat="48.86385" lon="2.24849">
        <ele>91.5</ele>
        <time>2015-06-29T19:51:26.590Z</time>
      </trkpt>
      <trkpt lat="48.86379" lon="2.24844">
        <ele>91.9</ele>
        <time>2015-06-29T19:51:28.785Z</time>
      </trkpt>
      <trkpt lat="48.86376" lon="2.24842">
        <ele>92</ele>
        <time>2015-06-29T19:51:29.641Z</time>
      </trkpt>
      <trkpt lat="48.8637" lon="2.24837">
        <ele>92.2</ele>
        <time>2015-06-29T19:51:31.562Z</time>
      </trkpt>
      <trkpt lat="48.86366" lon="2.24835">
        <ele>92.2</ele>
        <time>2015-06-29T19:51:32.685Z</time>
      </trkpt>
      <trkpt lat="48.86358" lon="2.24831">
        <ele>92.5</ele>
        <time>2015-06-29T19:51:35.009Z</time>
      </trkpt>
      <trkpt lat="48.86354" lon="2.24828">
        <ele>92.8</ele>
        <time>2015-06-29T19:51:35.550Z</time>
      </trkpt>
      <trkpt lat="48.8635" lon="2.24825">
        <ele>93.1</ele>
        <time>2015-06-29T19:51:36.588Z</time>
      </trkpt>
      <trkpt lat="48.86345" lon="2.24823">
        <ele>93.4</ele>
        <time>2015-06-29T19:51:37.681Z</time>
      </trkpt>
      <trkpt lat="48.8634" lon="2.2482">
        <ele>93.9</ele>
        <time>2015-06-29T19:51:38.601Z</time>
      </trkpt>
      <trkpt lat="48.86335" lon="2.24818">
        <ele>94.2</ele>
        <time>2015-06-29T19:51:39.608Z</time>
      </trkpt>
      <trkpt lat="48.86328" lon="2.24812">
        <ele>95</ele>
        <time>2015-06-29T19:51:41.573Z</time>
      </trkpt>
      <trkpt lat="48.86324" lon="2.24809">
        <ele>94.8</ele>
        <time>2015-06-29T19:51:42.585Z</time>
      </trkpt>
      <trkpt lat="48.86316" lon="2.24802">
        <ele>94.9</ele>
        <time>2015-06-29T19:51:45.232Z</time>
      </trkpt>
      <trkpt lat="48.86311" lon="2.24799">
        <ele>95</ele>
        <time>2015-06-29T19:51:45.546Z</time>
      </trkpt>
      <trkpt lat="48.86303" lon="2.24794">
        <ele>95.2</ele>
        <time>2015-06-29T19:51:47.581Z</time>
      </trkpt>
      <trkpt lat="48.863" lon="2.24791">
        <ele>94.8</ele>
        <time>2015-06-29T19:51:48.588Z</time>
      </trkpt>
      <trkpt lat="48.86292" lon="2.24786">
        <ele>94.9</ele>
        <time>2015-06-29T19:51:50.583Z</time>
      </trkpt>
      <trkpt lat="48.86288" lon="2.24783">
        <ele>95</ele>
        <time>2015-06-29T19:51:51.613Z</time>
      </trkpt>
      <trkpt lat="48.86284" lon="2.2478">
        <ele>94.9</ele>
        <time>2015-06-29T19:51:52.630Z</time>
      </trkpt>
      <trkpt lat="48.8628" lon="2.24778">
        <ele>94.7</ele>
        <time>2015-06-29T19:51:53.510Z</time>
      </trkpt>
      <trkpt lat="48.86275" lon="2.24774">
        <ele>94.8</ele>
        <time>2015-06-29T19:51:54.558Z</time>
      </trkpt>
      <trkpt lat="48.86271" lon="2.24771">
        <ele>94.9</ele>
        <time>2015-06-29T19:51:55.660Z</time>
      </trkpt>
      <trkpt lat="48.86263" lon="2.24765">
        <ele>94.8</ele>
        <time>2015-06-29T19:51:57.587Z</time>
      </trkpt>
      <trkpt lat="48.86259" lon="2.24762">
        <ele>94.6</ele>
        <time>2015-06-29T19:51:58.597Z</time>
      </trkpt>
      <trkpt lat="48.86255" lon="2.2476">
        <ele>94.4</ele>
        <time>2015-06-29T19:51:59.609Z</time>
      </trkpt>
      <trkpt lat="48.8625" lon="2.24758">
        <ele>94.6</ele>
        <time>2015-06-29T19:52:00.510Z</time>
      </trkpt>
      <trkpt lat="48.86246" lon="2.24755">
        <ele>94.5</ele>
        <time>2015-06-29T19:52:01.553Z</time>
      </trkpt>
      <trkpt lat="48.86241" lon="2.24753">
        <ele>94.6</ele>
        <time>2015-06-29T19:52:02.607Z</time>
      </trkpt>
      <trkpt lat="48.86237" lon="2.2475">
        <ele>94.8</ele>
        <time>2015-06-29T19:52:03.586Z</time>
      </trkpt>
      <trkpt lat="48.86232" lon="2.24747">
        <ele>95.4</ele>
        <time>2015-06-29T19:52:04.596Z</time>
      </trkpt>
      <trkpt lat="48.86227" lon="2.24744">
        <ele>95.6</ele>
        <time>2015-06-29T19:52:05.390Z</time>
      </trkpt>
      <trkpt lat="48.86222" lon="2.24741">
        <ele>95.8</ele>
        <time>2015-06-29T19:52:06.624Z</time>
      </trkpt>
      <trkpt lat="48.86217" lon="2.24738">
        <ele>96.1</ele>
        <time>2015-06-29T19:52:07.538Z</time>
      </trkpt>
      <trkpt lat="48.86212" lon="2.24735">
        <ele>96.2</ele>
        <time>2015-06-29T19:52:08.668Z</time>
      </trkpt>
      <trkpt lat="48.86208" lon="2.24733">
        <ele>96.5</ele>
        <time>2015-06-29T19:52:09.634Z</time>
      </trkpt>
      <trkpt lat="48.86203" lon="2.2473">
        <ele>96.6</ele>
        <time>2015-06-29T19:52:10.515Z</time>
      </trkpt>
      <trkpt lat="48.86199" lon="2.24726">
        <ele>96.7</ele>
        <time>2015-06-29T19:52:11.558Z</time>
      </trkpt>
      <trkpt lat="48.86194" lon="2.24722">
        <ele>96.7</ele>
        <time>2015-06-29T19:52:12.542Z</time>
      </trkpt>
      <trkpt lat="48.8619" lon="2.24719">
        <ele>96.5</ele>
        <time>2015-06-29T19:52:13.553Z</time>
      </trkpt>
      <trkpt lat="48.86185" lon="2.24715">
        <ele>96.6</ele>
        <time>2015-06-29T19:52:14.586Z</time>
      </trkpt>
      <trkpt lat="48.86181" lon="2.24712">
        <ele>96.3</ele>
        <time>2015-06-29T19:52:15.591Z</time>
      </trkpt>
      <trkpt lat="48.86177" lon="2.24708">
        <ele>96.2</ele>
        <time>2015-06-29T19:52:16.596Z</time>
      </trkpt>
      <trkpt lat="48.86173" lon="2.24705">
        <ele>96.2</ele>
        <time>2015-06-29T19:52:17.610Z</time>
      </trkpt>
      <trkpt lat="48.86168" lon="2.24702">
        <ele>96.2</ele>
        <time>2015-06-29T19:52:18.542Z</time>
      </trkpt>
      <trkpt lat="48.86163" lon="2.24699">
        <ele>96</ele>
        <time>2015-06-29T19:52:19.559Z</time>
      </trkpt>
      <trkpt lat="48.86158" lon="2.24695">
        <ele>96.1</ele>
        <time>2015-06-29T19:52:20.587Z</time>
      </trkpt>
      <trkpt lat="48.86154" lon="2.24692">
        <ele>96</ele>
        <time>2015-06-29T19:52:21.608Z</time>
      </trkpt>
      <trkpt lat="48.86149" lon="2.2469">
        <ele>96</ele>
        <time>2015-06-29T19:52:22.611Z</time>
      </trkpt>
      <trkpt lat="48.86141" lon="2.24684">
        <ele>96.1</ele>
        <time>2015-06-29T19:52:24.542Z</time>
      </trkpt>
      <trkpt lat="48.86137" lon="2.2468">
        <ele>96.5</ele>
        <time>2015-06-29T19:52:25.562Z</time>
      </trkpt>
      <trkpt lat="48.86133" lon="2.24677">
        <ele>96.8</ele>
        <time>2015-06-29T19:52:26.591Z</time>
      </trkpt>
      <trkpt lat="48.86128" lon="2.24675">
        <ele>96.7</ele>
        <time>2015-06-29T19:52:27.591Z</time>
      </trkpt>
      <trkpt lat="48.86124" lon="2.24672">
        <ele>96.8</ele>
        <time>2015-06-29T19:52:28.537Z</time>
      </trkpt>
      <trkpt lat="48.8612" lon="2.2467">
        <ele>97</ele>
        <time>2015-06-29T19:52:29.515Z</time>
      </trkpt>
      <trkpt lat="48.86115" lon="2.24667">
        <ele>97.1</ele>
        <time>2015-06-29T19:52:30.540Z</time>
      </trkpt>
      <trkpt lat="48.86111" lon="2.24665">
        <ele>97.5</ele>
        <time>2015-06-29T19:52:31.552Z</time>
      </trkpt>
      <trkpt lat="48.86106" lon="2.24663">
        <ele>97.9</ele>
        <time>2015-06-29T19:52:32.600Z</time>
      </trkpt>
      <trkpt lat="48.86101" lon="2.24661">
        <ele>97.9</ele>
        <time>2015-06-29T19:52:33.596Z</time>
      </trkpt>
      <trkpt lat="48.86097" lon="2.24659">
        <ele>97.8</ele>
        <time>2015-06-29T19:52:34.615Z</time>
      </trkpt>
      <trkpt lat="48.86092" lon="2.24655">
        <ele>97.9</ele>
        <time>2015-06-29T19:52:35.538Z</time>
      </trkpt>
      <trkpt lat="48.86084" lon="2.24649">
        <ele>97.5</ele>
        <time>2015-06-29T19:52:37.561Z</time>
      </trkpt>
      <trkpt lat="48.8608" lon="2.24646">
        <ele>97.4</ele>
        <time>2015-06-29T19:52:38.579Z</time>
      </trkpt>
      <trkpt lat="48.86077" lon="2.24643">
        <ele>97.8</ele>
        <time>2015-06-29T19:52:39.599Z</time>
      </trkpt>
      <trkpt lat="48.86072" lon="2.2464">
        <ele>97.8</ele>
        <time>2015-06-29T19:52:40.606Z</time>
      </trkpt>
      <trkpt lat="48.86068" lon="2.24636">
        <ele>97.9</ele>
        <time>2015-06-29T19:52:41.546Z</time>
      </trkpt>
      <trkpt lat="48.86064" lon="2.24633">
        <ele>98.1</ele>
        <time>2015-06-29T19:52:42.507Z</time>
      </trkpt>
      <trkpt lat="48.8606" lon="2.2463">
        <ele>98.2</ele>
        <time>2015-06-29T19:52:43.539Z</time>
      </trkpt>
      <trkpt lat="48.86055" lon="2.24627">
        <ele>98.1</ele>
        <time>2015-06-29T19:52:44.584Z</time>
      </trkpt>
      <trkpt lat="48.86051" lon="2.24624">
        <ele>97.9</ele>
        <time>2015-06-29T19:52:45.591Z</time>
      </trkpt>
      <trkpt lat="48.86046" lon="2.24622">
        <ele>98</ele>
        <time>2015-06-29T19:52:46.600Z</time>
      </trkpt>
      <trkpt lat="48.86042" lon="2.24619">
        <ele>98.1</ele>
        <time>2015-06-29T19:52:47.606Z</time>
      </trkpt>
      <trkpt lat="48.86037" lon="2.24616">
        <ele>98.1</ele>
        <time>2015-06-29T19:52:48.508Z</time>
      </trkpt>
      <trkpt lat="48.86032" lon="2.24613">
        <ele>97.9</ele>
        <time>2015-06-29T19:52:49.516Z</time>
      </trkpt>
      <trkpt lat="48.86027" lon="2.2461">
        <ele>97.6</ele>
        <time>2015-06-29T19:52:50.596Z</time>
      </trkpt>
      <trkpt lat="48.86021" lon="2.24606">
        <ele>97.4</ele>
        <time>2015-06-29T19:52:51.589Z</time>
      </trkpt>
      <trkpt lat="48.86016" lon="2.24603">
        <ele>97.6</ele>
        <time>2015-06-29T19:52:52.605Z</time>
      </trkpt>
      <trkpt lat="48.8601" lon="2.24599">
        <ele>97.4</ele>
        <time>2015-06-29T19:52:53.612Z</time>
      </trkpt>
      <trkpt lat="48.86004" lon="2.24595">
        <ele>97.2</ele>
        <time>2015-06-29T19:52:54.528Z</time>
      </trkpt>
      <trkpt lat="48.85997" lon="2.24592">
        <ele>97.3</ele>
        <time>2015-06-29T19:52:55.541Z</time>
      </trkpt>
      <trkpt lat="48.85991" lon="2.24588">
        <ele>97.1</ele>
        <time>2015-06-29T19:52:56.605Z</time>
      </trkpt>
      <trkpt lat="48.85985" lon="2.24585">
        <ele>96.9</ele>
        <time>2015-06-29T19:52:57.576Z</time>
      </trkpt>
      <trkpt lat="48.8598" lon="2.24581">
        <ele>97.5</ele>
        <time>2015-06-29T19:52:58.578Z</time>
      </trkpt>
      <trkpt lat="48.85974" lon="2.24576">
        <ele>97.6</ele>
        <time>2015-06-29T19:52:59.572Z</time>
      </trkpt>
      <trkpt lat="48.85969" lon="2.24571">
        <ele>97.9</ele>
        <time>2015-06-29T19:53:00.620Z</time>
      </trkpt>
      <trkpt lat="48.85963" lon="2.24567">
        <ele>97.4</ele>
        <time>2015-06-29T19:53:01.632Z</time>
      </trkpt>
      <trkpt lat="48.85958" lon="2.24563">
        <ele>97</ele>
        <time>2015-06-29T19:53:02.643Z</time>
      </trkpt>
      <trkpt lat="48.85953" lon="2.24561">
        <ele>97.3</ele>
        <time>2015-06-29T19:53:03.543Z</time>
      </trkpt>
      <trkpt lat="48.85949" lon="2.24558">
        <ele>97.2</ele>
        <time>2015-06-29T19:53:04.539Z</time>
      </trkpt>
      <trkpt lat="48.85944" lon="2.24555">
        <ele>96.5</ele>
        <time>2015-06-29T19:53:05.549Z</time>
      </trkpt>
      <trkpt lat="48.8594" lon="2.24552">
        <ele>97</ele>
        <time>2015-06-29T19:53:06.561Z</time>
      </trkpt>
      <trkpt lat="48.85935" lon="2.24549">
        <ele>97.3</ele>
        <time>2015-06-29T19:53:07.585Z</time>
      </trkpt>
      <trkpt lat="48.85931" lon="2.24546">
        <ele>97.3</ele>
        <time>2015-06-29T19:53:08.614Z</time>
      </trkpt>
      <trkpt lat="48.85924" lon="2.24542">
        <ele>97.2</ele>
        <time>2015-06-29T19:53:10.537Z</time>
      </trkpt>
      <trkpt lat="48.8592" lon="2.24539">
        <ele>97.2</ele>
        <time>2015-06-29T19:53:11.544Z</time>
      </trkpt>
      <trkpt lat="48.85912" lon="2.24534">
        <ele>97.4</ele>
        <time>2015-06-29T19:53:13.569Z</time>
      </trkpt>
      <trkpt lat="48.85909" lon="2.2453">
        <ele>97.4</ele>
        <time>2015-06-29T19:53:14.714Z</time>
      </trkpt>
      <trkpt lat="48.85903" lon="2.24525">
        <ele>97.4</ele>
        <time>2015-06-29T19:53:16.573Z</time>
      </trkpt>
      <trkpt lat="48.85899" lon="2.24522">
        <ele>97.1</ele>
        <time>2015-06-29T19:53:17.709Z</time>
      </trkpt>
      <trkpt lat="48.85893" lon="2.24518">
        <ele>97.6</ele>
        <time>2015-06-29T19:53:19.642Z</time>
      </trkpt>
      <trkpt lat="48.8589" lon="2.24517">
        <ele>97.8</ele>
        <time>2015-06-29T19:53:20.671Z</time>
      </trkpt>
      <trkpt lat="48.85885" lon="2.24513">
        <ele>97.8</ele>
        <time>2015-06-29T19:53:22.611Z</time>
      </trkpt>
      <trkpt lat="48.85882" lon="2.2451">
        <ele>97.4</ele>
        <time>2015-06-29T19:53:23.636Z</time>
      </trkpt>
      <trkpt lat="48.85875" lon="2.24505">
        <ele>96.7</ele>
        <time>2015-06-29T19:53:26.625Z</time>
      </trkpt>
      <trkpt lat="48.85873" lon="2.24504">
        <ele>96.9</ele>
        <time>2015-06-29T19:53:27.714Z</time>
      </trkpt>
      <trkpt lat="48.85865" lon="2.245">
        <ele>97.2</ele>
        <time>2015-06-29T19:53:32.638Z</time>
      </trkpt>
      <trkpt lat="48.85864" lon="2.24499">
        <ele>97.2</ele>
        <time>2015-06-29T19:53:33.579Z</time>
      </trkpt>
      <trkpt lat="48.85856" lon="2.24493">
        <ele>97</ele>
        <time>2015-06-29T19:53:41.555Z</time>
      </trkpt>
      <trkpt lat="48.85854" lon="2.24492">
        <ele>97</ele>
        <time>2015-06-29T19:53:42.533Z</time>
      </trkpt>
      <trkpt lat="48.85846" lon="2.24489">
        <ele>97.1</ele>
        <time>2015-06-29T19:53:45.691Z</time>
      </trkpt>
      <trkpt lat="48.85844" lon="2.24488">
        <ele>97.6</ele>
        <time>2015-06-29T19:53:46.618Z</time>
      </trkpt>
      <trkpt lat="48.85837" lon="2.24482">
        <ele>98</ele>
        <time>2015-06-29T19:53:49.621Z</time>
      </trkpt>
      <trkpt lat="48.85834" lon="2.24479">
        <ele>98.2</ele>
        <time>2015-06-29T19:53:50.626Z</time>
      </trkpt>
      <trkpt lat="48.85827" lon="2.24475">
        <ele>98.4</ele>
        <time>2015-06-29T19:53:52.573Z</time>
      </trkpt>
      <trkpt lat="48.85823" lon="2.24474">
        <ele>98.7</ele>
        <time>2015-06-29T19:53:53.589Z</time>
      </trkpt>
      <trkpt lat="48.85815" lon="2.24471">
        <ele>99.2</ele>
        <time>2015-06-29T19:53:55.643Z</time>
      </trkpt>
      <trkpt lat="48.85811" lon="2.24468">
        <ele>99.5</ele>
        <time>2015-06-29T19:53:56.655Z</time>
      </trkpt>
      <trkpt lat="48.85804" lon="2.24465">
        <ele>100</ele>
        <time>2015-06-29T19:53:58.559Z</time>
      </trkpt>
      <trkpt lat="48.85801" lon="2.24463">
        <ele>100</ele>
        <time>2015-06-29T19:53:59.571Z</time>
      </trkpt>
      <trkpt lat="48.85793" lon="2.24458">
        <ele>100.2</ele>
        <time>2015-06-29T19:54:01.592Z</time>
      </trkpt>
      <trkpt lat="48.8579" lon="2.24456">
        <ele>100.1</ele>
        <time>2015-06-29T19:54:02.659Z</time>
      </trkpt>
      <trkpt lat="48.85782" lon="2.24451">
        <ele>100.3</ele>
        <time>2015-06-29T19:54:04.547Z</time>
      </trkpt>
      <trkpt lat="48.85778" lon="2.24448">
        <ele>100.2</ele>
        <time>2015-06-29T19:54:05.560Z</time>
      </trkpt>
      <trkpt lat="48.8577" lon="2.24442">
        <ele>100.4</ele>
        <time>2015-06-29T19:54:07.595Z</time>
      </trkpt>
      <trkpt lat="48.85766" lon="2.24439">
        <ele>100.1</ele>
        <time>2015-06-29T19:54:08.608Z</time>
      </trkpt>
      <trkpt lat="48.85762" lon="2.24436">
        <ele>100.2</ele>
        <time>2015-06-29T19:54:09.545Z</time>
      </trkpt>
      <trkpt lat="48.85757" lon="2.24433">
        <ele>100.3</ele>
        <time>2015-06-29T19:54:10.539Z</time>
      </trkpt>
      <trkpt lat="48.85752" lon="2.2443">
        <ele>100.5</ele>
        <time>2015-06-29T19:54:11.548Z</time>
      </trkpt>
      <trkpt lat="48.85748" lon="2.24427">
        <ele>100.4</ele>
        <time>2015-06-29T19:54:12.552Z</time>
      </trkpt>
      <trkpt lat="48.85744" lon="2.24424">
        <ele>100.4</ele>
        <time>2015-06-29T19:54:13.569Z</time>
      </trkpt>
      <trkpt lat="48.8574" lon="2.24421">
        <ele>100.1</ele>
        <time>2015-06-29T19:54:14.586Z</time>
      </trkpt>
      <trkpt lat="48.85735" lon="2.24419">
        <ele>99.9</ele>
        <time>2015-06-29T19:54:15.598Z</time>
      </trkpt>
      <trkpt lat="48.8573" lon="2.24416">
        <ele>100.3</ele>
        <time>2015-06-29T19:54:16.604Z</time>
      </trkpt>
      <trkpt lat="48.85725" lon="2.24413">
        <ele>100.4</ele>
        <time>2015-06-29T19:54:17.618Z</time>
      </trkpt>
      <trkpt lat="48.85721" lon="2.2441">
        <ele>100.6</ele>
        <time>2015-06-29T19:54:18.534Z</time>
      </trkpt>
      <trkpt lat="48.85716" lon="2.24406">
        <ele>100.8</ele>
        <time>2015-06-29T19:54:19.514Z</time>
      </trkpt>
      <trkpt lat="48.85711" lon="2.24403">
        <ele>101.2</ele>
        <time>2015-06-29T19:54:20.586Z</time>
      </trkpt>
      <trkpt lat="48.85706" lon="2.244">
        <ele>101.2</ele>
        <time>2015-06-29T19:54:21.696Z</time>
      </trkpt>
      <trkpt lat="48.85701" lon="2.24397">
        <ele>101.4</ele>
        <time>2015-06-29T19:54:22.537Z</time>
      </trkpt>
      <trkpt lat="48.85696" lon="2.24393">
        <ele>101.4</ele>
        <time>2015-06-29T19:54:23.540Z</time>
      </trkpt>
      <trkpt lat="48.85692" lon="2.24389">
        <ele>101.2</ele>
        <time>2015-06-29T19:54:24.556Z</time>
      </trkpt>
      <trkpt lat="48.85685" lon="2.24382">
        <ele>100.9</ele>
        <time>2015-06-29T19:54:26.678Z</time>
      </trkpt>
      <trkpt lat="48.8568" lon="2.24378">
        <ele>100.8</ele>
        <time>2015-06-29T19:54:27.569Z</time>
      </trkpt>
      <trkpt lat="48.85675" lon="2.24374">
        <ele>100.6</ele>
        <time>2015-06-29T19:54:28.596Z</time>
      </trkpt>
      <trkpt lat="48.8567" lon="2.24371">
        <ele>100.6</ele>
        <time>2015-06-29T19:54:29.603Z</time>
      </trkpt>
      <trkpt lat="48.85665" lon="2.24367">
        <ele>100.4</ele>
        <time>2015-06-29T19:54:30.618Z</time>
      </trkpt>
      <trkpt lat="48.8566" lon="2.24363">
        <ele>100.7</ele>
        <time>2015-06-29T19:54:31.537Z</time>
      </trkpt>
      <trkpt lat="48.85655" lon="2.24359">
        <ele>100.7</ele>
        <time>2015-06-29T19:54:32.621Z</time>
      </trkpt>
      <trkpt lat="48.85651" lon="2.24356">
        <ele>100.4</ele>
        <time>2015-06-29T19:54:33.530Z</time>
      </trkpt>
      <trkpt lat="48.85646" lon="2.24354">
        <ele>100.3</ele>
        <time>2015-06-29T19:54:34.544Z</time>
      </trkpt>
      <trkpt lat="48.85641" lon="2.24352">
        <ele>100.4</ele>
        <time>2015-06-29T19:54:35.554Z</time>
      </trkpt>
      <trkpt lat="48.85636" lon="2.24349">
        <ele>100.5</ele>
        <time>2015-06-29T19:54:36.564Z</time>
      </trkpt>
      <trkpt lat="48.85632" lon="2.24345">
        <ele>100.3</ele>
        <time>2015-06-29T19:54:37.574Z</time>
      </trkpt>
      <trkpt lat="48.85627" lon="2.24342">
        <ele>100.4</ele>
        <time>2015-06-29T19:54:38.589Z</time>
      </trkpt>
      <trkpt lat="48.85622" lon="2.24338">
        <ele>100.1</ele>
        <time>2015-06-29T19:54:39.597Z</time>
      </trkpt>
      <trkpt lat="48.85617" lon="2.24334">
        <ele>100.2</ele>
        <time>2015-06-29T19:54:40.602Z</time>
      </trkpt>
      <trkpt lat="48.85611" lon="2.24331">
        <ele>100.1</ele>
        <time>2015-06-29T19:54:41.607Z</time>
      </trkpt>
      <trkpt lat="48.85607" lon="2.24327">
        <ele>100</ele>
        <time>2015-06-29T19:54:42.541Z</time>
      </trkpt>
      <trkpt lat="48.85602" lon="2.24324">
        <ele>99.9</ele>
        <time>2015-06-29T19:54:43.554Z</time>
      </trkpt>
      <trkpt lat="48.85596" lon="2.2432">
        <ele>100</ele>
        <time>2015-06-29T19:54:44.582Z</time>
      </trkpt>
      <trkpt lat="48.85592" lon="2.24317">
        <ele>99.7</ele>
        <time>2015-06-29T19:54:45.913Z</time>
      </trkpt>
      <trkpt lat="48.85587" lon="2.24313">
        <ele>99.8</ele>
        <time>2015-06-29T19:54:46.607Z</time>
      </trkpt>
      <trkpt lat="48.85582" lon="2.24309">
        <ele>99.7</ele>
        <time>2015-06-29T19:54:47.613Z</time>
      </trkpt>
      <trkpt lat="48.85577" lon="2.24306">
        <ele>99.5</ele>
        <time>2015-06-29T19:54:48.538Z</time>
      </trkpt>
      <trkpt lat="48.85572" lon="2.24303">
        <ele>99.5</ele>
        <time>2015-06-29T19:54:49.533Z</time>
      </trkpt>
      <trkpt lat="48.85568" lon="2.24299">
        <ele>99.4</ele>
        <time>2015-06-29T19:54:50.557Z</time>
      </trkpt>
      <trkpt lat="48.85563" lon="2.24296">
        <ele>99.5</ele>
        <time>2015-06-29T19:54:51.595Z</time>
      </trkpt>
      <trkpt lat="48.85558" lon="2.24293">
        <ele>99.6</ele>
        <time>2015-06-29T19:54:52.644Z</time>
      </trkpt>
      <trkpt lat="48.85553" lon="2.2429">
        <ele>99.6</ele>
        <time>2015-06-29T19:54:53.566Z</time>
      </trkpt>
      <trkpt lat="48.85548" lon="2.24288">
        <ele>99.5</ele>
        <time>2015-06-29T19:54:54.576Z</time>
      </trkpt>
      <trkpt lat="48.85542" lon="2.24286">
        <ele>99.2</ele>
        <time>2015-06-29T19:54:55.580Z</time>
      </trkpt>
      <trkpt lat="48.85537" lon="2.24284">
        <ele>98.9</ele>
        <time>2015-06-29T19:54:56.591Z</time>
      </trkpt>
      <trkpt lat="48.85533" lon="2.2428">
        <ele>98.8</ele>
        <time>2015-06-29T19:54:57.618Z</time>
      </trkpt>
      <trkpt lat="48.85528" lon="2.24276">
        <ele>98.7</ele>
        <time>2015-06-29T19:54:58.542Z</time>
      </trkpt>
      <trkpt lat="48.85523" lon="2.24272">
        <ele>98.6</ele>
        <time>2015-06-29T19:54:59.570Z</time>
      </trkpt>
      <trkpt lat="48.85519" lon="2.24269">
        <ele>98.5</ele>
        <time>2015-06-29T19:55:00.546Z</time>
      </trkpt>
      <trkpt lat="48.85514" lon="2.24267">
        <ele>98.4</ele>
        <time>2015-06-29T19:55:01.559Z</time>
      </trkpt>
      <trkpt lat="48.85509" lon="2.24263">
        <ele>98.5</ele>
        <time>2015-06-29T19:55:02.615Z</time>
      </trkpt>
      <trkpt lat="48.85504" lon="2.2426">
        <ele>98.6</ele>
        <time>2015-06-29T19:55:03.560Z</time>
      </trkpt>
      <trkpt lat="48.85499" lon="2.24257">
        <ele>98.8</ele>
        <time>2015-06-29T19:55:04.557Z</time>
      </trkpt>
      <trkpt lat="48.85494" lon="2.24253">
        <ele>99.1</ele>
        <time>2015-06-29T19:55:05.567Z</time>
      </trkpt>
      <trkpt lat="48.8549" lon="2.24251">
        <ele>99.4</ele>
        <time>2015-06-29T19:55:06.580Z</time>
      </trkpt>
      <trkpt lat="48.85485" lon="2.24247">
        <ele>99.5</ele>
        <time>2015-06-29T19:55:07.591Z</time>
      </trkpt>
      <trkpt lat="48.8548" lon="2.24244">
        <ele>99.4</ele>
        <time>2015-06-29T19:55:08.598Z</time>
      </trkpt>
      <trkpt lat="48.85476" lon="2.2424">
        <ele>99.2</ele>
        <time>2015-06-29T19:55:09.606Z</time>
      </trkpt>
      <trkpt lat="48.85472" lon="2.24237">
        <ele>99</ele>
        <time>2015-06-29T19:55:10.622Z</time>
      </trkpt>
      <trkpt lat="48.85468" lon="2.24234">
        <ele>99.1</ele>
        <time>2015-06-29T19:55:11.541Z</time>
      </trkpt>
      <trkpt lat="48.85464" lon="2.2423">
        <ele>99</ele>
        <time>2015-06-29T19:55:12.538Z</time>
      </trkpt>
      <trkpt lat="48.85459" lon="2.24227">
        <ele>99.3</ele>
        <time>2015-06-29T19:55:13.576Z</time>
      </trkpt>
      <trkpt lat="48.85454" lon="2.24224">
        <ele>99.3</ele>
        <time>2015-06-29T19:55:14.626Z</time>
      </trkpt>
      <trkpt lat="48.8545" lon="2.2422">
        <ele>99.2</ele>
        <time>2015-06-29T19:55:15.639Z</time>
      </trkpt>
      <trkpt lat="48.85444" lon="2.24218">
        <ele>99.2</ele>
        <time>2015-06-29T19:55:16.636Z</time>
      </trkpt>
      <trkpt lat="48.85439" lon="2.24216">
        <ele>99.2</ele>
        <time>2015-06-29T19:55:17.542Z</time>
      </trkpt>
      <trkpt lat="48.85434" lon="2.24213">
        <ele>99.3</ele>
        <time>2015-06-29T19:55:18.570Z</time>
      </trkpt>
      <trkpt lat="48.85429" lon="2.2421">
        <ele>99.4</ele>
        <time>2015-06-29T19:55:19.518Z</time>
      </trkpt>
      <trkpt lat="48.85425" lon="2.24207">
        <ele>99.4</ele>
        <time>2015-06-29T19:55:20.604Z</time>
      </trkpt>
      <trkpt lat="48.85421" lon="2.24204">
        <ele>99.6</ele>
        <time>2015-06-29T19:55:21.611Z</time>
      </trkpt>
      <trkpt lat="48.85416" lon="2.24201">
        <ele>99.9</ele>
        <time>2015-06-29T19:55:22.626Z</time>
      </trkpt>
      <trkpt lat="48.85412" lon="2.24199">
        <ele>100.2</ele>
        <time>2015-06-29T19:55:23.547Z</time>
      </trkpt>
      <trkpt lat="48.85407" lon="2.24196">
        <ele>100.7</ele>
        <time>2015-06-29T19:55:24.574Z</time>
      </trkpt>
      <trkpt lat="48.85402" lon="2.24193">
        <ele>100.9</ele>
        <time>2015-06-29T19:55:25.593Z</time>
      </trkpt>
      <trkpt lat="48.85398" lon="2.2419">
        <ele>100.9</ele>
        <time>2015-06-29T19:55:26.622Z</time>
      </trkpt>
      <trkpt lat="48.85393" lon="2.24187">
        <ele>101</ele>
        <time>2015-06-29T19:55:27.630Z</time>
      </trkpt>
      <trkpt lat="48.85389" lon="2.24183">
        <ele>100.9</ele>
        <time>2015-06-29T19:55:28.593Z</time>
      </trkpt>
      <trkpt lat="48.85383" lon="2.24179">
        <ele>101</ele>
        <time>2015-06-29T19:55:29.567Z</time>
      </trkpt>
      <trkpt lat="48.85378" lon="2.24176">
        <ele>101.1</ele>
        <time>2015-06-29T19:55:30.601Z</time>
      </trkpt>
      <trkpt lat="48.85373" lon="2.24173">
        <ele>101.2</ele>
        <time>2015-06-29T19:55:31.611Z</time>
      </trkpt>
      <trkpt lat="48.85367" lon="2.2417">
        <ele>101.2</ele>
        <time>2015-06-29T19:55:32.729Z</time>
      </trkpt>
      <trkpt lat="48.85363" lon="2.24166">
        <ele>101.3</ele>
        <time>2015-06-29T19:55:33.548Z</time>
      </trkpt>
      <trkpt lat="48.85358" lon="2.24163">
        <ele>101.2</ele>
        <time>2015-06-29T19:55:34.578Z</time>
      </trkpt>
      <trkpt lat="48.85354" lon="2.24161">
        <ele>101.2</ele>
        <time>2015-06-29T19:55:35.594Z</time>
      </trkpt>
      <trkpt lat="48.85349" lon="2.24159">
        <ele>101.2</ele>
        <time>2015-06-29T19:55:36.608Z</time>
      </trkpt>
      <trkpt lat="48.85345" lon="2.24157">
        <ele>101.2</ele>
        <time>2015-06-29T19:55:37.635Z</time>
      </trkpt>
      <trkpt lat="48.85338" lon="2.24158">
        <ele>100.7</ele>
        <time>2015-06-29T19:55:39.536Z</time>
      </trkpt>
      <trkpt lat="48.85332" lon="2.24158">
        <ele>100.2</ele>
        <time>2015-06-29T19:55:40.670Z</time>
      </trkpt>
      <trkpt lat="48.85327" lon="2.24158">
        <ele>99.8</ele>
        <time>2015-06-29T19:55:41.537Z</time>
      </trkpt>
      <trkpt lat="48.85321" lon="2.24159">
        <ele>99.6</ele>
        <time>2015-06-29T19:55:42.540Z</time>
      </trkpt>
      <trkpt lat="48.85316" lon="2.24159">
        <ele>99.1</ele>
        <time>2015-06-29T19:55:43.544Z</time>
      </trkpt>
      <trkpt lat="48.85311" lon="2.2416">
        <ele>98.9</ele>
        <time>2015-06-29T19:55:44.579Z</time>
      </trkpt>
      <trkpt lat="48.85306" lon="2.2416">
        <ele>98.8</ele>
        <time>2015-06-29T19:55:45.586Z</time>
      </trkpt>
      <trkpt lat="48.85301" lon="2.2416">
        <ele>98.7</ele>
        <time>2015-06-29T19:55:46.597Z</time>
      </trkpt>
      <trkpt lat="48.85295" lon="2.24161">
        <ele>98.3</ele>
        <time>2015-06-29T19:55:47.610Z</time>
      </trkpt>
      <trkpt lat="48.8529" lon="2.24162">
        <ele>98.4</ele>
        <time>2015-06-29T19:55:48.526Z</time>
      </trkpt>
      <trkpt lat="48.85286" lon="2.24162">
        <ele>98.2</ele>
        <time>2015-06-29T19:55:49.564Z</time>
      </trkpt>
      <trkpt lat="48.85281" lon="2.24163">
        <ele>98.4</ele>
        <time>2015-06-29T19:55:50.585Z</time>
      </trkpt>
      <trkpt lat="48.85276" lon="2.24163">
        <ele>98.5</ele>
        <time>2015-06-29T19:55:51.581Z</time>
      </trkpt>
      <trkpt lat="48.8527" lon="2.24164">
        <ele>98.5</ele>
        <time>2015-06-29T19:55:52.592Z</time>
      </trkpt>
      <trkpt lat="48.85265" lon="2.24165">
        <ele>98.6</ele>
        <time>2015-06-29T19:55:53.606Z</time>
      </trkpt>
      <trkpt lat="48.8526" lon="2.24166">
        <ele>99.1</ele>
        <time>2015-06-29T19:55:54.618Z</time>
      </trkpt>
      <trkpt lat="48.85255" lon="2.24166">
        <ele>98.7</ele>
        <time>2015-06-29T19:55:55.536Z</time>
      </trkpt>
      <trkpt lat="48.85251" lon="2.24167">
        <ele>98.5</ele>
        <time>2015-06-29T19:55:56.555Z</time>
      </trkpt>
      <trkpt lat="48.85246" lon="2.24168">
        <ele>98.2</ele>
        <time>2015-06-29T19:55:57.565Z</time>
      </trkpt>
      <trkpt lat="48.85241" lon="2.24169">
        <ele>98.1</ele>
        <time>2015-06-29T19:55:58.590Z</time>
      </trkpt>
      <trkpt lat="48.85236" lon="2.24169">
        <ele>98.2</ele>
        <time>2015-06-29T19:55:59.543Z</time>
      </trkpt>
      <trkpt lat="48.85231" lon="2.2417">
        <ele>98.4</ele>
        <time>2015-06-29T19:56:00.551Z</time>
      </trkpt>
      <trkpt lat="48.85226" lon="2.2417">
        <ele>98.2</ele>
        <time>2015-06-29T19:56:01.564Z</time>
      </trkpt>
      <trkpt lat="48.85221" lon="2.24171">
        <ele>98</ele>
        <time>2015-06-29T19:56:02.578Z</time>
      </trkpt>
      <trkpt lat="48.85216" lon="2.24172">
        <ele>98.1</ele>
        <time>2015-06-29T19:56:03.590Z</time>
      </trkpt>
      <trkpt lat="48.85211" lon="2.24173">
        <ele>98.2</ele>
        <time>2015-06-29T19:56:04.600Z</time>
      </trkpt>
      <trkpt lat="48.85206" lon="2.24174">
        <ele>98</ele>
        <time>2015-06-29T19:56:05.538Z</time>
      </trkpt>
      <trkpt lat="48.85201" lon="2.24175">
        <ele>98</ele>
        <time>2015-06-29T19:56:06.532Z</time>
      </trkpt>
      <trkpt lat="48.85195" lon="2.24176">
        <ele>98.2</ele>
        <time>2015-06-29T19:56:07.543Z</time>
      </trkpt>
      <trkpt lat="48.8519" lon="2.24177">
        <ele>98.2</ele>
        <time>2015-06-29T19:56:08.578Z</time>
      </trkpt>
      <trkpt lat="48.85185" lon="2.24178">
        <ele>98.1</ele>
        <time>2015-06-29T19:56:09.575Z</time>
      </trkpt>
      <trkpt lat="48.8518" lon="2.24179">
        <ele>98.1</ele>
        <time>2015-06-29T19:56:10.579Z</time>
      </trkpt>
      <trkpt lat="48.85174" lon="2.24179">
        <ele>98.3</ele>
        <time>2015-06-29T19:56:11.597Z</time>
      </trkpt>
      <trkpt lat="48.85169" lon="2.2418">
        <ele>98.1</ele>
        <time>2015-06-29T19:56:12.612Z</time>
      </trkpt>
      <trkpt lat="48.85164" lon="2.24182">
        <ele>98.1</ele>
        <time>2015-06-29T19:56:13.532Z</time>
      </trkpt>
      <trkpt lat="48.85158" lon="2.24183">
        <ele>97.9</ele>
        <time>2015-06-29T19:56:14.629Z</time>
      </trkpt>
      <trkpt lat="48.85153" lon="2.24184">
        <ele>97.7</ele>
        <time>2015-06-29T19:56:15.533Z</time>
      </trkpt>
      <trkpt lat="48.85147" lon="2.24184">
        <ele>97.1</ele>
        <time>2015-06-29T19:56:16.535Z</time>
      </trkpt>
      <trkpt lat="48.85141" lon="2.24184">
        <ele>96.8</ele>
        <time>2015-06-29T19:56:17.544Z</time>
      </trkpt>
      <trkpt lat="48.85135" lon="2.24184">
        <ele>96.6</ele>
        <time>2015-06-29T19:56:18.556Z</time>
      </trkpt>
      <trkpt lat="48.85129" lon="2.24185">
        <ele>96.6</ele>
        <time>2015-06-29T19:56:19.565Z</time>
      </trkpt>
      <trkpt lat="48.85123" lon="2.24186">
        <ele>96.7</ele>
        <time>2015-06-29T19:56:20.572Z</time>
      </trkpt>
      <trkpt lat="48.85117" lon="2.24187">
        <ele>96.6</ele>
        <time>2015-06-29T19:56:21.585Z</time>
      </trkpt>
      <trkpt lat="48.85111" lon="2.24189">
        <ele>96.2</ele>
        <time>2015-06-29T19:56:22.584Z</time>
      </trkpt>
      <trkpt lat="48.85106" lon="2.24188">
        <ele>95.1</ele>
        <time>2015-06-29T19:56:23.595Z</time>
      </trkpt>
      <trkpt lat="48.85099" lon="2.24189">
        <ele>94.6</ele>
        <time>2015-06-29T19:56:24.601Z</time>
      </trkpt>
      <trkpt lat="48.85093" lon="2.24189">
        <ele>94.3</ele>
        <time>2015-06-29T19:56:25.606Z</time>
      </trkpt>
      <trkpt lat="48.85086" lon="2.24189">
        <ele>93.4</ele>
        <time>2015-06-29T19:56:26.620Z</time>
      </trkpt>
      <trkpt lat="48.8508" lon="2.24191">
        <ele>93.1</ele>
        <time>2015-06-29T19:56:27.516Z</time>
      </trkpt>
      <trkpt lat="48.85073" lon="2.24192">
        <ele>92.6</ele>
        <time>2015-06-29T19:56:28.519Z</time>
      </trkpt>
      <trkpt lat="48.85067" lon="2.24192">
        <ele>90.9</ele>
        <time>2015-06-29T19:56:29.558Z</time>
      </trkpt>
      <trkpt lat="48.8506" lon="2.24192">
        <ele>90.3</ele>
        <time>2015-06-29T19:56:30.590Z</time>
      </trkpt>
      <trkpt lat="48.85053" lon="2.24193">
        <ele>89.6</ele>
        <time>2015-06-29T19:56:31.501Z</time>
      </trkpt>
      <trkpt lat="48.85046" lon="2.24193">
        <ele>88.7</ele>
        <time>2015-06-29T19:56:32.586Z</time>
      </trkpt>
      <trkpt lat="48.8504" lon="2.24194">
        <ele>88.3</ele>
        <time>2015-06-29T19:56:33.580Z</time>
      </trkpt>
      <trkpt lat="48.85032" lon="2.24196">
        <ele>88.1</ele>
        <time>2015-06-29T19:56:34.591Z</time>
      </trkpt>
      <trkpt lat="48.85025" lon="2.24197">
        <ele>88.2</ele>
        <time>2015-06-29T19:56:35.682Z</time>
      </trkpt>
      <trkpt lat="48.85018" lon="2.24198">
        <ele>88.2</ele>
        <time>2015-06-29T19:56:36.529Z</time>
      </trkpt>
      <trkpt lat="48.85011" lon="2.24201">
        <ele>88.2</ele>
        <time>2015-06-29T19:56:37.534Z</time>
      </trkpt>
      <trkpt lat="48.85004" lon="2.24203">
        <ele>88.4</ele>
        <time>2015-06-29T19:56:38.624Z</time>
      </trkpt>
      <trkpt lat="48.84997" lon="2.24205">
        <ele>88.9</ele>
        <time>2015-06-29T19:56:39.587Z</time>
      </trkpt>
      <trkpt lat="48.8499" lon="2.24206">
        <ele>89.3</ele>
        <time>2015-06-29T19:56:40.610Z</time>
      </trkpt>
      <trkpt lat="48.84983" lon="2.24207">
        <ele>89.3</ele>
        <time>2015-06-29T19:56:41.552Z</time>
      </trkpt>
      <trkpt lat="48.84976" lon="2.24208">
        <ele>89.3</ele>
        <time>2015-06-29T19:56:42.536Z</time>
      </trkpt>
      <trkpt lat="48.84969" lon="2.24209">
        <ele>89.3</ele>
        <time>2015-06-29T19:56:43.538Z</time>
      </trkpt>
      <trkpt lat="48.84963" lon="2.2421">
        <ele>89.1</ele>
        <time>2015-06-29T19:56:44.581Z</time>
      </trkpt>
      <trkpt lat="48.84956" lon="2.2421">
        <ele>88.9</ele>
        <time>2015-06-29T19:56:45.591Z</time>
      </trkpt>
      <trkpt lat="48.8495" lon="2.24211">
        <ele>88.9</ele>
        <time>2015-06-29T19:56:46.599Z</time>
      </trkpt>
      <trkpt lat="48.84943" lon="2.24211">
        <ele>88.6</ele>
        <time>2015-06-29T19:56:47.611Z</time>
      </trkpt>
      <trkpt lat="48.84936" lon="2.24212">
        <ele>88.4</ele>
        <time>2015-06-29T19:56:48.547Z</time>
      </trkpt>
      <trkpt lat="48.84929" lon="2.24212">
        <ele>88.5</ele>
        <time>2015-06-29T19:56:49.539Z</time>
      </trkpt>
      <trkpt lat="48.84923" lon="2.24213">
        <ele>88.4</ele>
        <time>2015-06-29T19:56:50.586Z</time>
      </trkpt>
      <trkpt lat="48.84916" lon="2.24215">
        <ele>88.1</ele>
        <time>2015-06-29T19:56:51.588Z</time>
      </trkpt>
      <trkpt lat="48.84909" lon="2.24216">
        <ele>88.1</ele>
        <time>2015-06-29T19:56:52.601Z</time>
      </trkpt>
      <trkpt lat="48.84902" lon="2.24217">
        <ele>88.4</ele>
        <time>2015-06-29T19:56:53.604Z</time>
      </trkpt>
      <trkpt lat="48.84896" lon="2.24218">
        <ele>88.4</ele>
        <time>2015-06-29T19:56:54.626Z</time>
      </trkpt>
      <trkpt lat="48.8489" lon="2.24218">
        <ele>88.1</ele>
        <time>2015-06-29T19:56:55.534Z</time>
      </trkpt>
      <trkpt lat="48.84883" lon="2.24218">
        <ele>88</ele>
        <time>2015-06-29T19:56:56.600Z</time>
      </trkpt>
      <trkpt lat="48.84876" lon="2.2422">
        <ele>87.7</ele>
        <time>2015-06-29T19:56:57.616Z</time>
      </trkpt>
      <trkpt lat="48.8487" lon="2.24221">
        <ele>88</ele>
        <time>2015-06-29T19:56:58.536Z</time>
      </trkpt>
      <trkpt lat="48.84863" lon="2.24221">
        <ele>87.8</ele>
        <time>2015-06-29T19:56:59.534Z</time>
      </trkpt>
      <trkpt lat="48.84857" lon="2.24222">
        <ele>87.4</ele>
        <time>2015-06-29T19:57:00.552Z</time>
      </trkpt>
      <trkpt lat="48.84851" lon="2.24221">
        <ele>87.1</ele>
        <time>2015-06-29T19:57:01.597Z</time>
      </trkpt>
      <trkpt lat="48.84845" lon="2.2422">
        <ele>86.5</ele>
        <time>2015-06-29T19:57:02.579Z</time>
      </trkpt>
      <trkpt lat="48.84839" lon="2.24216">
        <ele>86.2</ele>
        <time>2015-06-29T19:57:03.585Z</time>
      </trkpt>
      <trkpt lat="48.84833" lon="2.2421">
        <ele>85.8</ele>
        <time>2015-06-29T19:57:04.589Z</time>
      </trkpt>
      <trkpt lat="48.84828" lon="2.24204">
        <ele>85.4</ele>
        <time>2015-06-29T19:57:05.608Z</time>
      </trkpt>
      <trkpt lat="48.84824" lon="2.24198">
        <ele>84.9</ele>
        <time>2015-06-29T19:57:06.612Z</time>
      </trkpt>
      <trkpt lat="48.84819" lon="2.24191">
        <ele>84.7</ele>
        <time>2015-06-29T19:57:08.625Z</time>
      </trkpt>
      <trkpt lat="48.84817" lon="2.24188">
        <ele>84.7</ele>
        <time>2015-06-29T19:57:09.660Z</time>
      </trkpt>
      <trkpt lat="48.84814" lon="2.24177">
        <ele>82.5</ele>
        <time>2015-06-29T19:57:13.568Z</time>
      </trkpt>
      <trkpt lat="48.84815" lon="2.24174">
        <ele>82</ele>
        <time>2015-06-29T19:57:14.617Z</time>
      </trkpt>
      <trkpt lat="48.84821" lon="2.24169">
        <ele>81.8</ele>
        <time>2015-06-29T19:57:35.579Z</time>
      </trkpt>
      <trkpt lat="48.84823" lon="2.24167">
        <ele>82</ele>
        <time>2015-06-29T19:57:36.597Z</time>
      </trkpt>
      <trkpt lat="48.84829" lon="2.24158">
        <ele>82.2</ele>
        <time>2015-06-29T19:57:41.583Z</time>
      </trkpt>
      <trkpt lat="48.8483" lon="2.24156">
        <ele>82.2</ele>
        <time>2015-06-29T19:57:42.506Z</time>
      </trkpt>
      <trkpt lat="48.84835" lon="2.24146">
        <ele>82.4</ele>
        <time>2015-06-29T19:57:46.524Z</time>
      </trkpt>
      <trkpt lat="48.84836" lon="2.24144">
        <ele>82.3</ele>
        <time>2015-06-29T19:57:47.546Z</time>
      </trkpt>
      <trkpt lat="48.84844" lon="2.24137">
        <ele>82.7</ele>
        <time>2015-06-29T19:57:51.568Z</time>
      </trkpt>
      <trkpt lat="48.84846" lon="2.24134">
        <ele>82.9</ele>
        <time>2015-06-29T19:57:52.554Z</time>
      </trkpt>
      <trkpt lat="48.84851" lon="2.24129">
        <ele>83.5</ele>
        <time>2015-06-29T19:57:54.590Z</time>
      </trkpt>
      <trkpt lat="48.84854" lon="2.24125">
        <ele>83.8</ele>
        <time>2015-06-29T19:57:55.560Z</time>
      </trkpt>
      <trkpt lat="48.84859" lon="2.2412">
        <ele>83.8</ele>
        <time>2015-06-29T19:57:57.652Z</time>
      </trkpt>
      <trkpt lat="48.84862" lon="2.24118">
        <ele>83.9</ele>
        <time>2015-06-29T19:57:58.577Z</time>
      </trkpt>
      <trkpt lat="48.84868" lon="2.24114">
        <ele>83.9</ele>
        <time>2015-06-29T19:58:00.531Z</time>
      </trkpt>
      <trkpt lat="48.84871" lon="2.24111">
        <ele>84.1</ele>
        <time>2015-06-29T19:58:01.552Z</time>
      </trkpt>
      <trkpt lat="48.84876" lon="2.24104">
        <ele>83.9</ele>
        <time>2015-06-29T19:58:03.573Z</time>
      </trkpt>
      <trkpt lat="48.84878" lon="2.24102">
        <ele>84</ele>
        <time>2015-06-29T19:58:04.676Z</time>
      </trkpt>
      <trkpt lat="48.84885" lon="2.24095">
        <ele>84</ele>
        <time>2015-06-29T19:58:06.599Z</time>
      </trkpt>
      <trkpt lat="48.84887" lon="2.24089">
        <ele>83.8</ele>
        <time>2015-06-29T19:58:07.854Z</time>
      </trkpt>
      <trkpt lat="48.84893" lon="2.24082">
        <ele>83.1</ele>
        <time>2015-06-29T19:58:09.688Z</time>
      </trkpt>
      <trkpt lat="48.84895" lon="2.24078">
        <ele>82.8</ele>
        <time>2015-06-29T19:58:10.526Z</time>
      </trkpt>
      <trkpt lat="48.849" lon="2.24072">
        <ele>82.1</ele>
        <time>2015-06-29T19:58:12.546Z</time>
      </trkpt>
      <trkpt lat="48.84903" lon="2.24068">
        <ele>81.7</ele>
        <time>2015-06-29T19:58:13.557Z</time>
      </trkpt>
      <trkpt lat="48.84908" lon="2.24059">
        <ele>80.7</ele>
        <time>2015-06-29T19:58:15.588Z</time>
      </trkpt>
      <trkpt lat="48.8491" lon="2.24054">
        <ele>80.2</ele>
        <time>2015-06-29T19:58:16.494Z</time>
      </trkpt>
      <trkpt lat="48.84916" lon="2.24046">
        <ele>80.1</ele>
        <time>2015-06-29T19:58:18.547Z</time>
      </trkpt>
      <trkpt lat="48.84918" lon="2.24045">
        <ele>80.2</ele>
        <time>2015-06-29T19:58:19.564Z</time>
      </trkpt>
      <trkpt lat="48.84925" lon="2.24041">
        <ele>80.7</ele>
        <time>2015-06-29T19:58:22.584Z</time>
      </trkpt>
      <trkpt lat="48.84927" lon="2.24037">
        <ele>81.1</ele>
        <time>2015-06-29T19:58:23.588Z</time>
      </trkpt>
      <trkpt lat="48.84933" lon="2.24031">
        <ele>81.6</ele>
        <time>2015-06-29T19:58:25.667Z</time>
      </trkpt>
      <trkpt lat="48.84936" lon="2.24027">
        <ele>81.5</ele>
        <time>2015-06-29T19:58:26.566Z</time>
      </trkpt>
      <trkpt lat="48.84941" lon="2.24019">
        <ele>81.6</ele>
        <time>2015-06-29T19:58:28.646Z</time>
      </trkpt>
      <trkpt lat="48.84944" lon="2.24015">
        <ele>81.4</ele>
        <time>2015-06-29T19:58:29.603Z</time>
      </trkpt>
      <trkpt lat="48.8495" lon="2.24006">
        <ele>81.3</ele>
        <time>2015-06-29T19:58:31.573Z</time>
      </trkpt>
      <trkpt lat="48.84953" lon="2.24">
        <ele>81.3</ele>
        <time>2015-06-29T19:58:32.579Z</time>
      </trkpt>
      <trkpt lat="48.84959" lon="2.23993">
        <ele>81.5</ele>
        <time>2015-06-29T19:58:34.774Z</time>
      </trkpt>
      <trkpt lat="48.84962" lon="2.2399">
        <ele>81.5</ele>
        <time>2015-06-29T19:58:35.574Z</time>
      </trkpt>
      <trkpt lat="48.84969" lon="2.23982">
        <ele>82</ele>
        <time>2015-06-29T19:58:37.535Z</time>
      </trkpt>
      <trkpt lat="48.84971" lon="2.23976">
        <ele>81.9</ele>
        <time>2015-06-29T19:58:38.664Z</time>
      </trkpt>
      <trkpt lat="48.84975" lon="2.2397">
        <ele>81.5</ele>
        <time>2015-06-29T19:58:39.545Z</time>
      </trkpt>
      <trkpt lat="48.84979" lon="2.23965">
        <ele>81</ele>
        <time>2015-06-29T19:58:40.546Z</time>
      </trkpt>
      <trkpt lat="48.84981" lon="2.23958">
        <ele>81.2</ele>
        <time>2015-06-29T19:58:41.554Z</time>
      </trkpt>
      <trkpt lat="48.84985" lon="2.23952">
        <ele>81.2</ele>
        <time>2015-06-29T19:58:42.556Z</time>
      </trkpt>
      <trkpt lat="48.84988" lon="2.23946">
        <ele>81.5</ele>
        <time>2015-06-29T19:58:44.008Z</time>
      </trkpt>
      <trkpt lat="48.8499" lon="2.2394">
        <ele>81.6</ele>
        <time>2015-06-29T19:58:44.614Z</time>
      </trkpt>
      <trkpt lat="48.84991" lon="2.23933">
        <ele>81.4</ele>
        <time>2015-06-29T19:58:45.603Z</time>
      </trkpt>
      <trkpt lat="48.84995" lon="2.23927">
        <ele>80.5</ele>
        <time>2015-06-29T19:58:46.535Z</time>
      </trkpt>
      <trkpt lat="48.84999" lon="2.23916">
        <ele>80.3</ele>
        <time>2015-06-29T19:58:49.118Z</time>
      </trkpt>
      <trkpt lat="48.85001" lon="2.23908">
        <ele>80.3</ele>
        <time>2015-06-29T19:58:49.549Z</time>
      </trkpt>
      <trkpt lat="48.85002" lon="2.23901">
        <ele>80.2</ele>
        <time>2015-06-29T19:58:50.586Z</time>
      </trkpt>
      <trkpt lat="48.85004" lon="2.23894">
        <ele>80.3</ele>
        <time>2015-06-29T19:58:51.578Z</time>
      </trkpt>
      <trkpt lat="48.85006" lon="2.23888">
        <ele>80.3</ele>
        <time>2015-06-29T19:58:52.537Z</time>
      </trkpt>
      <trkpt lat="48.85008" lon="2.23881">
        <ele>79.7</ele>
        <time>2015-06-29T19:58:53.534Z</time>
      </trkpt>
      <trkpt lat="48.85011" lon="2.2387">
        <ele>80.5</ele>
        <time>2015-06-29T19:58:55.555Z</time>
      </trkpt>
      <trkpt lat="48.85013" lon="2.23864">
        <ele>80.4</ele>
        <time>2015-06-29T19:58:56.639Z</time>
      </trkpt>
      <trkpt lat="48.85015" lon="2.23855">
        <ele>79.6</ele>
        <time>2015-06-29T19:58:58.536Z</time>
      </trkpt>
      <trkpt lat="48.85016" lon="2.23849">
        <ele>79.4</ele>
        <time>2015-06-29T19:58:59.585Z</time>
      </trkpt>
      <trkpt lat="48.85017" lon="2.23839">
        <ele>79.4</ele>
        <time>2015-06-29T19:59:01.532Z</time>
      </trkpt>
      <trkpt lat="48.85018" lon="2.23832">
        <ele>79.2</ele>
        <time>2015-06-29T19:59:02.689Z</time>
      </trkpt>
      <trkpt lat="48.85021" lon="2.2382">
        <ele>79</ele>
        <time>2015-06-29T19:59:04.551Z</time>
      </trkpt>
      <trkpt lat="48.85023" lon="2.23814">
        <ele>78.9</ele>
        <time>2015-06-29T19:59:05.506Z</time>
      </trkpt>
      <trkpt lat="48.85024" lon="2.23803">
        <ele>79.2</ele>
        <time>2015-06-29T19:59:07.565Z</time>
      </trkpt>
      <trkpt lat="48.85024" lon="2.238">
        <ele>79.5</ele>
        <time>2015-06-29T19:59:08.598Z</time>
      </trkpt>
      <trkpt lat="48.85021" lon="2.2379">
        <ele>80</ele>
        <time>2015-06-29T19:59:14.641Z</time>
      </trkpt>
      <trkpt lat="48.85019" lon="2.23789">
        <ele>80.1</ele>
        <time>2015-06-29T19:59:15.662Z</time>
      </trkpt>
      <trkpt lat="48.85012" lon="2.23786">
        <ele>81.2</ele>
        <time>2015-06-29T19:59:18.563Z</time>
      </trkpt>
      <trkpt lat="48.85009" lon="2.23786">
        <ele>81.6</ele>
        <time>2015-06-29T19:59:19.669Z</time>
      </trkpt>
      <trkpt lat="48.85003" lon="2.23783">
        <ele>82.6</ele>
        <time>2015-06-29T19:59:21.609Z</time>
      </trkpt>
      <trkpt lat="48.85" lon="2.23781">
        <ele>82.8</ele>
        <time>2015-06-29T19:59:22.621Z</time>
      </trkpt>
      <trkpt lat="48.84994" lon="2.23779">
        <ele>83.3</ele>
        <time>2015-06-29T19:59:24.536Z</time>
      </trkpt>
      <trkpt lat="48.84991" lon="2.23777">
        <ele>83.4</ele>
        <time>2015-06-29T19:59:25.587Z</time>
      </trkpt>
      <trkpt lat="48.84986" lon="2.23773">
        <ele>84.1</ele>
        <time>2015-06-29T19:59:27.611Z</time>
      </trkpt>
      <trkpt lat="48.84983" lon="2.23772">
        <ele>84.1</ele>
        <time>2015-06-29T19:59:28.567Z</time>
      </trkpt>
      <trkpt lat="48.84974" lon="2.2377">
        <ele>84.2</ele>
        <time>2015-06-29T19:59:30.585Z</time>
      </trkpt>
      <trkpt lat="48.8497" lon="2.23769">
        <ele>83.7</ele>
        <time>2015-06-29T19:59:31.602Z</time>
      </trkpt>
      <trkpt lat="48.84964" lon="2.23769">
        <ele>82.9</ele>
        <time>2015-06-29T19:59:33.532Z</time>
      </trkpt>
      <trkpt lat="48.84961" lon="2.23767">
        <ele>82.8</ele>
        <time>2015-06-29T19:59:34.700Z</time>
      </trkpt>
      <trkpt lat="48.84954" lon="2.23761">
        <ele>82.5</ele>
        <time>2015-06-29T19:59:37.559Z</time>
      </trkpt>
      <trkpt lat="48.84951" lon="2.2376">
        <ele>82.5</ele>
        <time>2015-06-29T19:59:38.582Z</time>
      </trkpt>
      <trkpt lat="48.84945" lon="2.23758">
        <ele>82.3</ele>
        <time>2015-06-29T19:59:40.521Z</time>
      </trkpt>
      <trkpt lat="48.84941" lon="2.23757">
        <ele>82.3</ele>
        <time>2015-06-29T19:59:41.519Z</time>
      </trkpt>
      <trkpt lat="48.84935" lon="2.23756">
        <ele>82.8</ele>
        <time>2015-06-29T19:59:43.547Z</time>
      </trkpt>
      <trkpt lat="48.84932" lon="2.23756">
        <ele>83.6</ele>
        <time>2015-06-29T19:59:44.635Z</time>
      </trkpt>
      <trkpt lat="48.84923" lon="2.23755">
        <ele>84.4</ele>
        <time>2015-06-29T19:59:47.560Z</time>
      </trkpt>
      <trkpt lat="48.84921" lon="2.23755">
        <ele>84.4</ele>
        <time>2015-06-29T19:59:48.591Z</time>
      </trkpt>
      <trkpt lat="48.84914" lon="2.23753">
        <ele>84</ele>
        <time>2015-06-29T19:59:51.563Z</time>
      </trkpt>
      <trkpt lat="48.84911" lon="2.23752">
        <ele>83.8</ele>
        <time>2015-06-29T19:59:52.570Z</time>
      </trkpt>
      <trkpt lat="48.84903" lon="2.23752">
        <ele>84.2</ele>
        <time>2015-06-29T19:59:56.763Z</time>
      </trkpt>
      <trkpt lat="48.84901" lon="2.23752">
        <ele>84.5</ele>
        <time>2015-06-29T19:59:57.575Z</time>
      </trkpt>
      <trkpt lat="48.84898" lon="2.23746">
        <ele>83.6</ele>
        <time>2015-06-29T20:01:09.588Z</time>
      </trkpt>
      <trkpt lat="48.84902" lon="2.2372">
        <ele>78.7</ele>
        <time>2015-06-29T20:01:10.603Z</time>
      </trkpt>
      <trkpt lat="48.84902" lon="2.23727">
        <ele>79.3</ele>
        <time>2015-06-29T20:02:35.529Z</time>
      </trkpt>
      <trkpt lat="48.84902" lon="2.23737">
        <ele>78.5</ele>
        <time>2015-06-29T20:02:36.532Z</time>
      </trkpt>
      <trkpt lat="48.84893" lon="2.23739">
        <ele>78.8</ele>
        <time>2015-06-29T20:02:42.525Z</time>
      </trkpt>
      <trkpt lat="48.84891" lon="2.23738">
        <ele>78.7</ele>
        <time>2015-06-29T20:02:43.534Z</time>
      </trkpt>
      <trkpt lat="48.84882" lon="2.23737">
        <ele>78.9</ele>
        <time>2015-06-29T20:02:47.588Z</time>
      </trkpt>
      <trkpt lat="48.8488" lon="2.23737">
        <ele>78.8</ele>
        <time>2015-06-29T20:02:48.595Z</time>
      </trkpt>
      <trkpt lat="48.84871" lon="2.23737">
        <ele>78.9</ele>
        <time>2015-06-29T20:02:51.533Z</time>
      </trkpt>
      <trkpt lat="48.84868" lon="2.23736">
        <ele>79.1</ele>
        <time>2015-06-29T20:02:52.564Z</time>
      </trkpt>
      <trkpt lat="48.84861" lon="2.23735">
        <ele>79.2</ele>
        <time>2015-06-29T20:02:54.588Z</time>
      </trkpt>
      <trkpt lat="48.84858" lon="2.23734">
        <ele>79.1</ele>
        <time>2015-06-29T20:02:55.600Z</time>
      </trkpt>
      <trkpt lat="48.84852" lon="2.23733">
        <ele>79.5</ele>
        <time>2015-06-29T20:02:57.531Z</time>
      </trkpt>
      <trkpt lat="48.84849" lon="2.23732">
        <ele>79.8</ele>
        <time>2015-06-29T20:02:58.551Z</time>
      </trkpt>
      <trkpt lat="48.84842" lon="2.23729">
        <ele>79.5</ele>
        <time>2015-06-29T20:03:00.707Z</time>
      </trkpt>
      <trkpt lat="48.84839" lon="2.23726">
        <ele>79.7</ele>
        <time>2015-06-29T20:03:01.508Z</time>
      </trkpt>
      <trkpt lat="48.84831" lon="2.23721">
        <ele>80.1</ele>
        <time>2015-06-29T20:03:03.651Z</time>
      </trkpt>
      <trkpt lat="48.84828" lon="2.23718">
        <ele>80.1</ele>
        <time>2015-06-29T20:03:04.683Z</time>
      </trkpt>
      <trkpt lat="48.84821" lon="2.23717">
        <ele>80.4</ele>
        <time>2015-06-29T20:03:06.558Z</time>
      </trkpt>
      <trkpt lat="48.84818" lon="2.23716">
        <ele>80.5</ele>
        <time>2015-06-29T20:03:07.595Z</time>
      </trkpt>
      <trkpt lat="48.84811" lon="2.23715">
        <ele>80.8</ele>
        <time>2015-06-29T20:03:09.512Z</time>
      </trkpt>
      <trkpt lat="48.84808" lon="2.23715">
        <ele>80.9</ele>
        <time>2015-06-29T20:03:10.528Z</time>
      </trkpt>
      <trkpt lat="48.848" lon="2.23714">
        <ele>80.9</ele>
        <time>2015-06-29T20:03:12.542Z</time>
      </trkpt>
      <trkpt lat="48.84796" lon="2.23714">
        <ele>80.7</ele>
        <time>2015-06-29T20:03:13.589Z</time>
      </trkpt>
      <trkpt lat="48.84789" lon="2.23712">
        <ele>81.1</ele>
        <time>2015-06-29T20:03:15.514Z</time>
      </trkpt>
      <trkpt lat="48.84785" lon="2.23711">
        <ele>81</ele>
        <time>2015-06-29T20:03:16.681Z</time>
      </trkpt>
      <trkpt lat="48.84778" lon="2.23709">
        <ele>81.1</ele>
        <time>2015-06-29T20:03:18.554Z</time>
      </trkpt>
      <trkpt lat="48.84774" lon="2.23708">
        <ele>81.1</ele>
        <time>2015-06-29T20:03:19.662Z</time>
      </trkpt>
      <trkpt lat="48.84768" lon="2.23707">
        <ele>81.4</ele>
        <time>2015-06-29T20:03:21.616Z</time>
      </trkpt>
      <trkpt lat="48.84764" lon="2.23706">
        <ele>81.6</ele>
        <time>2015-06-29T20:03:22.500Z</time>
      </trkpt>
      <trkpt lat="48.84758" lon="2.23703">
        <ele>81.7</ele>
        <time>2015-06-29T20:03:24.673Z</time>
      </trkpt>
      <trkpt lat="48.84754" lon="2.23702">
        <ele>81.7</ele>
        <time>2015-06-29T20:03:25.546Z</time>
      </trkpt>
      <trkpt lat="48.84747" lon="2.23701">
        <ele>82</ele>
        <time>2015-06-29T20:03:27.521Z</time>
      </trkpt>
      <trkpt lat="48.84743" lon="2.23699">
        <ele>82.2</ele>
        <time>2015-06-29T20:03:28.550Z</time>
      </trkpt>
      <trkpt lat="48.84735" lon="2.23698">
        <ele>82.6</ele>
        <time>2015-06-29T20:03:30.564Z</time>
      </trkpt>
      <trkpt lat="48.84731" lon="2.23696">
        <ele>82.8</ele>
        <time>2015-06-29T20:03:31.549Z</time>
      </trkpt>
      <trkpt lat="48.84723" lon="2.23694">
        <ele>82.6</ele>
        <time>2015-06-29T20:03:33.528Z</time>
      </trkpt>
      <trkpt lat="48.84719" lon="2.23693">
        <ele>82.6</ele>
        <time>2015-06-29T20:03:34.604Z</time>
      </trkpt>
      <trkpt lat="48.8471" lon="2.23691">
        <ele>82.2</ele>
        <time>2015-06-29T20:03:36.569Z</time>
      </trkpt>
      <trkpt lat="48.84706" lon="2.2369">
        <ele>81.7</ele>
        <time>2015-06-29T20:03:37.580Z</time>
      </trkpt>
      <trkpt lat="48.84698" lon="2.23688">
        <ele>80.9</ele>
        <time>2015-06-29T20:03:39.774Z</time>
      </trkpt>
      <trkpt lat="48.84695" lon="2.23687">
        <ele>80.4</ele>
        <time>2015-06-29T20:03:40.573Z</time>
      </trkpt>
      <trkpt lat="48.84687" lon="2.23685">
        <ele>80.4</ele>
        <time>2015-06-29T20:03:42.619Z</time>
      </trkpt>
      <trkpt lat="48.84684" lon="2.23684">
        <ele>80.3</ele>
        <time>2015-06-29T20:03:43.508Z</time>
      </trkpt>
      <trkpt lat="48.84675" lon="2.23683">
        <ele>80.5</ele>
        <time>2015-06-29T20:03:45.640Z</time>
      </trkpt>
      <trkpt lat="48.84671" lon="2.23684">
        <ele>80.5</ele>
        <time>2015-06-29T20:03:46.542Z</time>
      </trkpt>
      <trkpt lat="48.84664" lon="2.23685">
        <ele>81</ele>
        <time>2015-06-29T20:03:48.580Z</time>
      </trkpt>
      <trkpt lat="48.8466" lon="2.23686">
        <ele>81.2</ele>
        <time>2015-06-29T20:03:49.578Z</time>
      </trkpt>
      <trkpt lat="48.84652" lon="2.23687">
        <ele>80.8</ele>
        <time>2015-06-29T20:03:51.503Z</time>
      </trkpt>
      <trkpt lat="48.84648" lon="2.23687">
        <ele>80.7</ele>
        <time>2015-06-29T20:03:52.564Z</time>
      </trkpt>
      <trkpt lat="48.8464" lon="2.23689">
        <ele>80.9</ele>
        <time>2015-06-29T20:03:54.500Z</time>
      </trkpt>
      <trkpt lat="48.84636" lon="2.23689">
        <ele>81</ele>
        <time>2015-06-29T20:03:55.557Z</time>
      </trkpt>
      <trkpt lat="48.84627" lon="2.23691">
        <ele>81.1</ele>
        <time>2015-06-29T20:03:57.523Z</time>
      </trkpt>
      <trkpt lat="48.84623" lon="2.2369">
        <ele>81.1</ele>
        <time>2015-06-29T20:03:58.585Z</time>
      </trkpt>
      <trkpt lat="48.84616" lon="2.23691">
        <ele>81</ele>
        <time>2015-06-29T20:04:00.496Z</time>
      </trkpt>
      <trkpt lat="48.84612" lon="2.23692">
        <ele>81</ele>
        <time>2015-06-29T20:04:01.546Z</time>
      </trkpt>
      <trkpt lat="48.84603" lon="2.23695">
        <ele>81.7</ele>
        <time>2015-06-29T20:04:04.774Z</time>
      </trkpt>
      <trkpt lat="48.84601" lon="2.23697">
        <ele>82.1</ele>
        <time>2015-06-29T20:04:05.553Z</time>
      </trkpt>
      <trkpt lat="48.84595" lon="2.23705">
        <ele>82.4</ele>
        <time>2015-06-29T20:04:08.667Z</time>
      </trkpt>
      <trkpt lat="48.84594" lon="2.23709">
        <ele>82.4</ele>
        <time>2015-06-29T20:04:09.528Z</time>
      </trkpt>
      <trkpt lat="48.84594" lon="2.23718">
        <ele>82.3</ele>
        <time>2015-06-29T20:04:11.592Z</time>
      </trkpt>
      <trkpt lat="48.84595" lon="2.23722">
        <ele>82.5</ele>
        <time>2015-06-29T20:04:12.598Z</time>
      </trkpt>
      <trkpt lat="48.84597" lon="2.23728">
        <ele>82.6</ele>
        <time>2015-06-29T20:04:13.515Z</time>
      </trkpt>
      <trkpt lat="48.84601" lon="2.23734">
        <ele>83</ele>
        <time>2015-06-29T20:04:14.594Z</time>
      </trkpt>
      <trkpt lat="48.84604" lon="2.23739">
        <ele>83.1</ele>
        <time>2015-06-29T20:04:15.581Z</time>
      </trkpt>
      <trkpt lat="48.84607" lon="2.23744">
        <ele>83.8</ele>
        <time>2015-06-29T20:04:16.591Z</time>
      </trkpt>
      <trkpt lat="48.8461" lon="2.2375">
        <ele>84.1</ele>
        <time>2015-06-29T20:04:17.499Z</time>
      </trkpt>
      <trkpt lat="48.84613" lon="2.23755">
        <ele>84.5</ele>
        <time>2015-06-29T20:04:18.535Z</time>
      </trkpt>
      <trkpt lat="48.84618" lon="2.23764">
        <ele>84.8</ele>
        <time>2015-06-29T20:04:20.595Z</time>
      </trkpt>
      <trkpt lat="48.8462" lon="2.2377">
        <ele>84.9</ele>
        <time>2015-06-29T20:04:21.605Z</time>
      </trkpt>
      <trkpt lat="48.84623" lon="2.23781">
        <ele>85</ele>
        <time>2015-06-29T20:04:23.535Z</time>
      </trkpt>
      <trkpt lat="48.84625" lon="2.23787">
        <ele>85.2</ele>
        <time>2015-06-29T20:04:24.541Z</time>
      </trkpt>
      <trkpt lat="48.84629" lon="2.23793">
        <ele>85.7</ele>
        <time>2015-06-29T20:04:25.554Z</time>
      </trkpt>
      <trkpt lat="48.84632" lon="2.23799">
        <ele>85.8</ele>
        <time>2015-06-29T20:04:26.562Z</time>
      </trkpt>
      <trkpt lat="48.84635" lon="2.23804">
        <ele>86</ele>
        <time>2015-06-29T20:04:27.584Z</time>
      </trkpt>
      <trkpt lat="48.84638" lon="2.2381">
        <ele>85.8</ele>
        <time>2015-06-29T20:04:28.592Z</time>
      </trkpt>
      <trkpt lat="48.84641" lon="2.23816">
        <ele>86.1</ele>
        <time>2015-06-29T20:04:29.821Z</time>
      </trkpt>
      <trkpt lat="48.84644" lon="2.23822">
        <ele>86.3</ele>
        <time>2015-06-29T20:04:30.552Z</time>
      </trkpt>
      <trkpt lat="48.84647" lon="2.23828">
        <ele>86.6</ele>
        <time>2015-06-29T20:04:31.559Z</time>
      </trkpt>
      <trkpt lat="48.84651" lon="2.23834">
        <ele>86.8</ele>
        <time>2015-06-29T20:04:32.606Z</time>
      </trkpt>
      <trkpt lat="48.84654" lon="2.2384">
        <ele>86.7</ele>
        <time>2015-06-29T20:04:33.523Z</time>
      </trkpt>
      <trkpt lat="48.84658" lon="2.23846">
        <ele>87</ele>
        <time>2015-06-29T20:04:34.549Z</time>
      </trkpt>
      <trkpt lat="48.8466" lon="2.23852">
        <ele>87.5</ele>
        <time>2015-06-29T20:04:35.574Z</time>
      </trkpt>
      <trkpt lat="48.84663" lon="2.23859">
        <ele>87.4</ele>
        <time>2015-06-29T20:04:36.582Z</time>
      </trkpt>
      <trkpt lat="48.84665" lon="2.23865">
        <ele>87.4</ele>
        <time>2015-06-29T20:04:37.767Z</time>
      </trkpt>
      <trkpt lat="48.84668" lon="2.23871">
        <ele>87.7</ele>
        <time>2015-06-29T20:04:38.618Z</time>
      </trkpt>
      <trkpt lat="48.84672" lon="2.23878">
        <ele>88</ele>
        <time>2015-06-29T20:04:39.521Z</time>
      </trkpt>
      <trkpt lat="48.84674" lon="2.23884">
        <ele>88.1</ele>
        <time>2015-06-29T20:04:40.554Z</time>
      </trkpt>
      <trkpt lat="48.84677" lon="2.2389">
        <ele>88.2</ele>
        <time>2015-06-29T20:04:41.574Z</time>
      </trkpt>
      <trkpt lat="48.84678" lon="2.23897">
        <ele>87.7</ele>
        <time>2015-06-29T20:04:42.577Z</time>
      </trkpt>
      <trkpt lat="48.84681" lon="2.23903">
        <ele>88</ele>
        <time>2015-06-29T20:04:43.585Z</time>
      </trkpt>
      <trkpt lat="48.84685" lon="2.2391">
        <ele>88.4</ele>
        <time>2015-06-29T20:04:44.613Z</time>
      </trkpt>
      <trkpt lat="48.84687" lon="2.23916">
        <ele>88.5</ele>
        <time>2015-06-29T20:04:45.529Z</time>
      </trkpt>
      <trkpt lat="48.84688" lon="2.23924">
        <ele>88.4</ele>
        <time>2015-06-29T20:04:46.546Z</time>
      </trkpt>
      <trkpt lat="48.84691" lon="2.23932">
        <ele>88.3</ele>
        <time>2015-06-29T20:04:47.550Z</time>
      </trkpt>
      <trkpt lat="48.84693" lon="2.23939">
        <ele>88.6</ele>
        <time>2015-06-29T20:04:48.565Z</time>
      </trkpt>
      <trkpt lat="48.84695" lon="2.23947">
        <ele>88.9</ele>
        <time>2015-06-29T20:04:49.573Z</time>
      </trkpt>
      <trkpt lat="48.84698" lon="2.23954">
        <ele>88.7</ele>
        <time>2015-06-29T20:04:50.588Z</time>
      </trkpt>
      <trkpt lat="48.84701" lon="2.23961">
        <ele>88.7</ele>
        <time>2015-06-29T20:04:51.613Z</time>
      </trkpt>
      <trkpt lat="48.84703" lon="2.23968">
        <ele>89</ele>
        <time>2015-06-29T20:04:52.527Z</time>
      </trkpt>
      <trkpt lat="48.84706" lon="2.23974">
        <ele>89</ele>
        <time>2015-06-29T20:04:53.538Z</time>
      </trkpt>
      <trkpt lat="48.84708" lon="2.23981">
        <ele>89.1</ele>
        <time>2015-06-29T20:04:54.547Z</time>
      </trkpt>
      <trkpt lat="48.84712" lon="2.23987">
        <ele>89.1</ele>
        <time>2015-06-29T20:04:55.554Z</time>
      </trkpt>
      <trkpt lat="48.84715" lon="2.23992">
        <ele>89</ele>
        <time>2015-06-29T20:04:56.575Z</time>
      </trkpt>
      <trkpt lat="48.84718" lon="2.23999">
        <ele>89</ele>
        <time>2015-06-29T20:04:57.581Z</time>
      </trkpt>
      <trkpt lat="48.84721" lon="2.24005">
        <ele>89</ele>
        <time>2015-06-29T20:04:58.584Z</time>
      </trkpt>
      <trkpt lat="48.84724" lon="2.24011">
        <ele>89.3</ele>
        <time>2015-06-29T20:04:59.596Z</time>
      </trkpt>
      <trkpt lat="48.84727" lon="2.24018">
        <ele>89.5</ele>
        <time>2015-06-29T20:05:00.610Z</time>
      </trkpt>
      <trkpt lat="48.8473" lon="2.24024">
        <ele>89.8</ele>
        <time>2015-06-29T20:05:01.528Z</time>
      </trkpt>
      <trkpt lat="48.84733" lon="2.2403">
        <ele>90.1</ele>
        <time>2015-06-29T20:05:02.577Z</time>
      </trkpt>
      <trkpt lat="48.84735" lon="2.24038">
        <ele>90.2</ele>
        <time>2015-06-29T20:05:03.574Z</time>
      </trkpt>
      <trkpt lat="48.84738" lon="2.24043">
        <ele>91</ele>
        <time>2015-06-29T20:05:04.580Z</time>
      </trkpt>
      <trkpt lat="48.84741" lon="2.2405">
        <ele>92.1</ele>
        <time>2015-06-29T20:05:05.587Z</time>
      </trkpt>
      <trkpt lat="48.84745" lon="2.24058">
        <ele>92.2</ele>
        <time>2015-06-29T20:05:06.599Z</time>
      </trkpt>
      <trkpt lat="48.84747" lon="2.24064">
        <ele>92.4</ele>
        <time>2015-06-29T20:05:07.604Z</time>
      </trkpt>
      <trkpt lat="48.84749" lon="2.24072">
        <ele>92.5</ele>
        <time>2015-06-29T20:05:08.614Z</time>
      </trkpt>
      <trkpt lat="48.84752" lon="2.24079">
        <ele>92.7</ele>
        <time>2015-06-29T20:05:09.536Z</time>
      </trkpt>
      <trkpt lat="48.84754" lon="2.24085">
        <ele>93.2</ele>
        <time>2015-06-29T20:05:10.527Z</time>
      </trkpt>
      <trkpt lat="48.84757" lon="2.24091">
        <ele>92.8</ele>
        <time>2015-06-29T20:05:11.547Z</time>
      </trkpt>
      <trkpt lat="48.8476" lon="2.24097">
        <ele>92.9</ele>
        <time>2015-06-29T20:05:12.566Z</time>
      </trkpt>
      <trkpt lat="48.84763" lon="2.24104">
        <ele>92.9</ele>
        <time>2015-06-29T20:05:13.619Z</time>
      </trkpt>
      <trkpt lat="48.84767" lon="2.2411">
        <ele>93.1</ele>
        <time>2015-06-29T20:05:14.626Z</time>
      </trkpt>
      <trkpt lat="48.8477" lon="2.24116">
        <ele>92.9</ele>
        <time>2015-06-29T20:05:15.532Z</time>
      </trkpt>
      <trkpt lat="48.84773" lon="2.24122">
        <ele>92.7</ele>
        <time>2015-06-29T20:05:16.543Z</time>
      </trkpt>
      <trkpt lat="48.84777" lon="2.24133">
        <ele>92</ele>
        <time>2015-06-29T20:05:18.564Z</time>
      </trkpt>
      <trkpt lat="48.8478" lon="2.24139">
        <ele>92</ele>
        <time>2015-06-29T20:05:19.609Z</time>
      </trkpt>
      <trkpt lat="48.84783" lon="2.24145">
        <ele>92</ele>
        <time>2015-06-29T20:05:20.562Z</time>
      </trkpt>
      <trkpt lat="48.84786" lon="2.2415">
        <ele>92</ele>
        <time>2015-06-29T20:05:21.518Z</time>
      </trkpt>
      <trkpt lat="48.84791" lon="2.24161">
        <ele>92.7</ele>
        <time>2015-06-29T20:05:23.561Z</time>
      </trkpt>
      <trkpt lat="48.84793" lon="2.24167">
        <ele>92.4</ele>
        <time>2015-06-29T20:05:24.562Z</time>
      </trkpt>
      <trkpt lat="48.84795" lon="2.24179">
        <ele>92.1</ele>
        <time>2015-06-29T20:05:26.640Z</time>
      </trkpt>
      <trkpt lat="48.84794" lon="2.24185">
        <ele>91.2</ele>
        <time>2015-06-29T20:05:27.549Z</time>
      </trkpt>
      <trkpt lat="48.84791" lon="2.24195">
        <ele>89.8</ele>
        <time>2015-06-29T20:05:29.500Z</time>
      </trkpt>
      <trkpt lat="48.8479" lon="2.242">
        <ele>89.9</ele>
        <time>2015-06-29T20:05:30.545Z</time>
      </trkpt>
      <trkpt lat="48.84789" lon="2.2421">
        <ele>89.9</ele>
        <time>2015-06-29T20:05:32.576Z</time>
      </trkpt>
      <trkpt lat="48.84788" lon="2.24215">
        <ele>89.9</ele>
        <time>2015-06-29T20:05:33.596Z</time>
      </trkpt>
      <trkpt lat="48.84783" lon="2.24224">
        <ele>89.7</ele>
        <time>2015-06-29T20:05:35.524Z</time>
      </trkpt>
      <trkpt lat="48.8478" lon="2.24229">
        <ele>89.3</ele>
        <time>2015-06-29T20:05:36.547Z</time>
      </trkpt>
      <trkpt lat="48.84774" lon="2.24238">
        <ele>88.6</ele>
        <time>2015-06-29T20:05:38.591Z</time>
      </trkpt>
      <trkpt lat="48.84771" lon="2.24243">
        <ele>88.4</ele>
        <time>2015-06-29T20:05:39.597Z</time>
      </trkpt>
      <trkpt lat="48.84768" lon="2.24249">
        <ele>88.1</ele>
        <time>2015-06-29T20:05:40.614Z</time>
      </trkpt>
      <trkpt lat="48.84767" lon="2.24255">
        <ele>87.8</ele>
        <time>2015-06-29T20:05:41.548Z</time>
      </trkpt>
      <trkpt lat="48.84765" lon="2.24262">
        <ele>87.8</ele>
        <time>2015-06-29T20:05:42.687Z</time>
      </trkpt>
      <trkpt lat="48.84764" lon="2.24269">
        <ele>87.7</ele>
        <time>2015-06-29T20:05:43.597Z</time>
      </trkpt>
      <trkpt lat="48.84762" lon="2.24275">
        <ele>87.5</ele>
        <time>2015-06-29T20:05:44.626Z</time>
      </trkpt>
      <trkpt lat="48.84761" lon="2.24282">
        <ele>87.3</ele>
        <time>2015-06-29T20:05:45.523Z</time>
      </trkpt>
      <trkpt lat="48.8476" lon="2.24289">
        <ele>87.3</ele>
        <time>2015-06-29T20:05:46.547Z</time>
      </trkpt>
      <trkpt lat="48.84758" lon="2.24295">
        <ele>87.4</ele>
        <time>2015-06-29T20:05:47.559Z</time>
      </trkpt>
      <trkpt lat="48.84756" lon="2.24303">
        <ele>87.5</ele>
        <time>2015-06-29T20:05:48.608Z</time>
      </trkpt>
      <trkpt lat="48.84754" lon="2.2431">
        <ele>87.4</ele>
        <time>2015-06-29T20:05:49.526Z</time>
      </trkpt>
      <trkpt lat="48.84753" lon="2.24317">
        <ele>87.3</ele>
        <time>2015-06-29T20:05:50.602Z</time>
      </trkpt>
      <trkpt lat="48.84751" lon="2.24323">
        <ele>87.3</ele>
        <time>2015-06-29T20:05:51.612Z</time>
      </trkpt>
      <trkpt lat="48.84748" lon="2.24335">
        <ele>87.2</ele>
        <time>2015-06-29T20:05:53.658Z</time>
      </trkpt>
      <trkpt lat="48.84747" lon="2.24341">
        <ele>87.1</ele>
        <time>2015-06-29T20:05:54.531Z</time>
      </trkpt>
      <trkpt lat="48.84745" lon="2.24347">
        <ele>87.3</ele>
        <time>2015-06-29T20:05:55.541Z</time>
      </trkpt>
      <trkpt lat="48.84743" lon="2.24354">
        <ele>87.3</ele>
        <time>2015-06-29T20:05:56.603Z</time>
      </trkpt>
      <trkpt lat="48.84742" lon="2.24362">
        <ele>87.5</ele>
        <time>2015-06-29T20:05:57.561Z</time>
      </trkpt>
      <trkpt lat="48.84739" lon="2.24369">
        <ele>87.6</ele>
        <time>2015-06-29T20:05:58.803Z</time>
      </trkpt>
      <trkpt lat="48.84737" lon="2.24376">
        <ele>87.7</ele>
        <time>2015-06-29T20:05:59.539Z</time>
      </trkpt>
      <trkpt lat="48.84735" lon="2.24383">
        <ele>87.8</ele>
        <time>2015-06-29T20:06:00.528Z</time>
      </trkpt>
      <trkpt lat="48.84734" lon="2.2439">
        <ele>87.7</ele>
        <time>2015-06-29T20:06:01.555Z</time>
      </trkpt>
      <trkpt lat="48.84733" lon="2.24398">
        <ele>87.7</ele>
        <time>2015-06-29T20:06:02.556Z</time>
      </trkpt>
      <trkpt lat="48.84731" lon="2.24405">
        <ele>87.7</ele>
        <time>2015-06-29T20:06:03.564Z</time>
      </trkpt>
      <trkpt lat="48.84728" lon="2.24413">
        <ele>87.7</ele>
        <time>2015-06-29T20:06:04.635Z</time>
      </trkpt>
      <trkpt lat="48.84727" lon="2.24421">
        <ele>87.7</ele>
        <time>2015-06-29T20:06:05.552Z</time>
      </trkpt>
      <trkpt lat="48.84725" lon="2.24429">
        <ele>87.7</ele>
        <time>2015-06-29T20:06:06.568Z</time>
      </trkpt>
      <trkpt lat="48.84724" lon="2.24436">
        <ele>87.3</ele>
        <time>2015-06-29T20:06:07.580Z</time>
      </trkpt>
      <trkpt lat="48.84721" lon="2.24444">
        <ele>87.2</ele>
        <time>2015-06-29T20:06:08.589Z</time>
      </trkpt>
      <trkpt lat="48.84719" lon="2.24452">
        <ele>86.9</ele>
        <time>2015-06-29T20:06:09.594Z</time>
      </trkpt>
      <trkpt lat="48.84716" lon="2.2446">
        <ele>87</ele>
        <time>2015-06-29T20:06:10.609Z</time>
      </trkpt>
      <trkpt lat="48.84713" lon="2.24469">
        <ele>86.8</ele>
        <time>2015-06-29T20:06:11.614Z</time>
      </trkpt>
      <trkpt lat="48.8471" lon="2.24476">
        <ele>86.5</ele>
        <time>2015-06-29T20:06:12.561Z</time>
      </trkpt>
      <trkpt lat="48.84709" lon="2.24484">
        <ele>86.5</ele>
        <time>2015-06-29T20:06:13.591Z</time>
      </trkpt>
      <trkpt lat="48.84707" lon="2.24493">
        <ele>86.6</ele>
        <time>2015-06-29T20:06:14.551Z</time>
      </trkpt>
      <trkpt lat="48.84705" lon="2.24502">
        <ele>86.9</ele>
        <time>2015-06-29T20:06:15.563Z</time>
      </trkpt>
      <trkpt lat="48.84704" lon="2.24511">
        <ele>87.3</ele>
        <time>2015-06-29T20:06:16.585Z</time>
      </trkpt>
      <trkpt lat="48.84702" lon="2.24521">
        <ele>87.3</ele>
        <time>2015-06-29T20:06:17.598Z</time>
      </trkpt>
      <trkpt lat="48.84699" lon="2.2453">
        <ele>86.9</ele>
        <time>2015-06-29T20:06:18.595Z</time>
      </trkpt>
      <trkpt lat="48.84696" lon="2.2454">
        <ele>86.9</ele>
        <time>2015-06-29T20:06:19.521Z</time>
      </trkpt>
      <trkpt lat="48.84693" lon="2.2455">
        <ele>86.6</ele>
        <time>2015-06-29T20:06:20.567Z</time>
      </trkpt>
      <trkpt lat="48.84691" lon="2.24559">
        <ele>86.2</ele>
        <time>2015-06-29T20:06:21.573Z</time>
      </trkpt>
      <trkpt lat="48.84688" lon="2.24569">
        <ele>86.3</ele>
        <time>2015-06-29T20:06:22.582Z</time>
      </trkpt>
      <trkpt lat="48.84686" lon="2.24578">
        <ele>86.4</ele>
        <time>2015-06-29T20:06:23.599Z</time>
      </trkpt>
      <trkpt lat="48.84685" lon="2.24588">
        <ele>86.5</ele>
        <time>2015-06-29T20:06:24.522Z</time>
      </trkpt>
      <trkpt lat="48.84683" lon="2.24597">
        <ele>86.6</ele>
        <time>2015-06-29T20:06:25.522Z</time>
      </trkpt>
      <trkpt lat="48.84681" lon="2.24606">
        <ele>86.4</ele>
        <time>2015-06-29T20:06:26.580Z</time>
      </trkpt>
      <trkpt lat="48.84678" lon="2.24615">
        <ele>85.8</ele>
        <time>2015-06-29T20:06:27.566Z</time>
      </trkpt>
      <trkpt lat="48.84675" lon="2.24624">
        <ele>85.3</ele>
        <time>2015-06-29T20:06:28.575Z</time>
      </trkpt>
      <trkpt lat="48.84672" lon="2.24632">
        <ele>85.1</ele>
        <time>2015-06-29T20:06:29.584Z</time>
      </trkpt>
      <trkpt lat="48.8467" lon="2.24642">
        <ele>84.9</ele>
        <time>2015-06-29T20:06:30.595Z</time>
      </trkpt>
      <trkpt lat="48.84668" lon="2.24651">
        <ele>84.3</ele>
        <time>2015-06-29T20:06:31.607Z</time>
      </trkpt>
      <trkpt lat="48.84666" lon="2.2466">
        <ele>84</ele>
        <time>2015-06-29T20:06:32.618Z</time>
      </trkpt>
      <trkpt lat="48.84663" lon="2.24669">
        <ele>83.6</ele>
        <time>2015-06-29T20:06:33.543Z</time>
      </trkpt>
      <trkpt lat="48.84661" lon="2.24678">
        <ele>83.9</ele>
        <time>2015-06-29T20:06:34.544Z</time>
      </trkpt>
      <trkpt lat="48.84659" lon="2.24686">
        <ele>84.4</ele>
        <time>2015-06-29T20:06:35.573Z</time>
      </trkpt>
      <trkpt lat="48.84657" lon="2.24695">
        <ele>84.4</ele>
        <time>2015-06-29T20:06:36.582Z</time>
      </trkpt>
      <trkpt lat="48.84654" lon="2.24703">
        <ele>84.5</ele>
        <time>2015-06-29T20:06:37.593Z</time>
      </trkpt>
      <trkpt lat="48.84652" lon="2.24712">
        <ele>84.4</ele>
        <time>2015-06-29T20:06:38.604Z</time>
      </trkpt>
      <trkpt lat="48.8465" lon="2.2472">
        <ele>84.7</ele>
        <time>2015-06-29T20:06:39.524Z</time>
      </trkpt>
      <trkpt lat="48.84648" lon="2.24729">
        <ele>84.7</ele>
        <time>2015-06-29T20:06:40.519Z</time>
      </trkpt>
      <trkpt lat="48.84645" lon="2.24738">
        <ele>84.7</ele>
        <time>2015-06-29T20:06:41.531Z</time>
      </trkpt>
      <trkpt lat="48.84642" lon="2.24747">
        <ele>84.8</ele>
        <time>2015-06-29T20:06:42.544Z</time>
      </trkpt>
      <trkpt lat="48.84639" lon="2.24756">
        <ele>84.7</ele>
        <time>2015-06-29T20:06:43.553Z</time>
      </trkpt>
      <trkpt lat="48.84637" lon="2.24765">
        <ele>84.6</ele>
        <time>2015-06-29T20:06:44.562Z</time>
      </trkpt>
      <trkpt lat="48.84635" lon="2.24774">
        <ele>84.9</ele>
        <time>2015-06-29T20:06:45.569Z</time>
      </trkpt>
      <trkpt lat="48.84632" lon="2.24784">
        <ele>85</ele>
        <time>2015-06-29T20:06:46.568Z</time>
      </trkpt>
      <trkpt lat="48.84629" lon="2.24794">
        <ele>85.2</ele>
        <time>2015-06-29T20:06:47.611Z</time>
      </trkpt>
      <trkpt lat="48.84627" lon="2.24804">
        <ele>85.5</ele>
        <time>2015-06-29T20:06:48.515Z</time>
      </trkpt>
      <trkpt lat="48.84624" lon="2.24815">
        <ele>85.7</ele>
        <time>2015-06-29T20:06:49.523Z</time>
      </trkpt>
      <trkpt lat="48.8462" lon="2.24825">
        <ele>85.9</ele>
        <time>2015-06-29T20:06:50.555Z</time>
      </trkpt>
      <trkpt lat="48.84618" lon="2.24836">
        <ele>86.2</ele>
        <time>2015-06-29T20:06:51.558Z</time>
      </trkpt>
      <trkpt lat="48.84616" lon="2.24847">
        <ele>86.6</ele>
        <time>2015-06-29T20:06:52.571Z</time>
      </trkpt>
      <trkpt lat="48.84613" lon="2.24859">
        <ele>86.9</ele>
        <time>2015-06-29T20:06:53.575Z</time>
      </trkpt>
      <trkpt lat="48.84609" lon="2.2487">
        <ele>86.9</ele>
        <time>2015-06-29T20:06:54.583Z</time>
      </trkpt>
      <trkpt lat="48.84606" lon="2.2488">
        <ele>87</ele>
        <time>2015-06-29T20:06:55.597Z</time>
      </trkpt>
      <trkpt lat="48.84603" lon="2.24892">
        <ele>86.9</ele>
        <time>2015-06-29T20:06:56.579Z</time>
      </trkpt>
      <trkpt lat="48.84601" lon="2.24904">
        <ele>87.3</ele>
        <time>2015-06-29T20:06:57.523Z</time>
      </trkpt>
      <trkpt lat="48.84598" lon="2.24915">
        <ele>87.4</ele>
        <time>2015-06-29T20:06:58.540Z</time>
      </trkpt>
      <trkpt lat="48.84595" lon="2.24927">
        <ele>88.2</ele>
        <time>2015-06-29T20:06:59.608Z</time>
      </trkpt>
      <trkpt lat="48.84592" lon="2.24938">
        <ele>87.7</ele>
        <time>2015-06-29T20:07:00.588Z</time>
      </trkpt>
      <trkpt lat="48.84589" lon="2.24949">
        <ele>87.4</ele>
        <time>2015-06-29T20:07:01.522Z</time>
      </trkpt>
      <trkpt lat="48.84586" lon="2.24961">
        <ele>87.1</ele>
        <time>2015-06-29T20:07:02.611Z</time>
      </trkpt>
      <trkpt lat="48.84583" lon="2.24973">
        <ele>87.2</ele>
        <time>2015-06-29T20:07:03.610Z</time>
      </trkpt>
      <trkpt lat="48.84581" lon="2.24983">
        <ele>87.6</ele>
        <time>2015-06-29T20:07:04.520Z</time>
      </trkpt>
      <trkpt lat="48.84579" lon="2.24993">
        <ele>87.7</ele>
        <time>2015-06-29T20:07:05.523Z</time>
      </trkpt>
      <trkpt lat="48.84577" lon="2.25003">
        <ele>87.3</ele>
        <time>2015-06-29T20:07:06.526Z</time>
      </trkpt>
      <trkpt lat="48.84574" lon="2.25013">
        <ele>87.1</ele>
        <time>2015-06-29T20:07:07.546Z</time>
      </trkpt>
      <trkpt lat="48.84571" lon="2.25022">
        <ele>87.1</ele>
        <time>2015-06-29T20:07:08.565Z</time>
      </trkpt>
      <trkpt lat="48.84568" lon="2.2503">
        <ele>87.1</ele>
        <time>2015-06-29T20:07:09.569Z</time>
      </trkpt>
      <trkpt lat="48.84565" lon="2.25038">
        <ele>87.1</ele>
        <time>2015-06-29T20:07:10.621Z</time>
      </trkpt>
      <trkpt lat="48.84562" lon="2.25046">
        <ele>86.9</ele>
        <time>2015-06-29T20:07:11.599Z</time>
      </trkpt>
      <trkpt lat="48.84561" lon="2.25052">
        <ele>87.3</ele>
        <time>2015-06-29T20:07:12.491Z</time>
      </trkpt>
      <trkpt lat="48.8456" lon="2.25065">
        <ele>88.1</ele>
        <time>2015-06-29T20:07:15.587Z</time>
      </trkpt>
      <trkpt lat="48.84559" lon="2.25068">
        <ele>88.4</ele>
        <time>2015-06-29T20:07:16.497Z</time>
      </trkpt>
      <trkpt lat="48.84563" lon="2.25079">
        <ele>88.6</ele>
        <time>2015-06-29T20:07:33.549Z</time>
      </trkpt>
      <trkpt lat="48.84563" lon="2.25086">
        <ele>88.2</ele>
        <time>2015-06-29T20:07:34.502Z</time>
      </trkpt>
      <trkpt lat="48.84564" lon="2.25099">
        <ele>88.6</ele>
        <time>2015-06-29T20:07:36.554Z</time>
      </trkpt>
      <trkpt lat="48.84564" lon="2.25106">
        <ele>88.8</ele>
        <time>2015-06-29T20:07:37.570Z</time>
      </trkpt>
      <trkpt lat="48.84563" lon="2.25114">
        <ele>89.1</ele>
        <time>2015-06-29T20:07:38.591Z</time>
      </trkpt>
      <trkpt lat="48.84563" lon="2.25122">
        <ele>89.4</ele>
        <time>2015-06-29T20:07:39.593Z</time>
      </trkpt>
      <trkpt lat="48.84562" lon="2.25131">
        <ele>89.6</ele>
        <time>2015-06-29T20:07:40.545Z</time>
      </trkpt>
      <trkpt lat="48.84563" lon="2.2514">
        <ele>89.7</ele>
        <time>2015-06-29T20:07:41.545Z</time>
      </trkpt>
      <trkpt lat="48.84562" lon="2.25149">
        <ele>90</ele>
        <time>2015-06-29T20:07:42.573Z</time>
      </trkpt>
      <trkpt lat="48.84561" lon="2.25157">
        <ele>90.1</ele>
        <time>2015-06-29T20:07:43.592Z</time>
      </trkpt>
      <trkpt lat="48.8456" lon="2.25165">
        <ele>89.9</ele>
        <time>2015-06-29T20:07:44.671Z</time>
      </trkpt>
      <trkpt lat="48.8456" lon="2.25173">
        <ele>89.9</ele>
        <time>2015-06-29T20:07:45.522Z</time>
      </trkpt>
      <trkpt lat="48.8456" lon="2.25181">
        <ele>90.3</ele>
        <time>2015-06-29T20:07:46.509Z</time>
      </trkpt>
      <trkpt lat="48.8456" lon="2.25189">
        <ele>90.1</ele>
        <time>2015-06-29T20:07:47.522Z</time>
      </trkpt>
      <trkpt lat="48.84559" lon="2.25196">
        <ele>89.5</ele>
        <time>2015-06-29T20:07:48.532Z</time>
      </trkpt>
      <trkpt lat="48.84559" lon="2.25204">
        <ele>89.3</ele>
        <time>2015-06-29T20:07:49.703Z</time>
      </trkpt>
      <trkpt lat="48.84559" lon="2.25211">
        <ele>89.3</ele>
        <time>2015-06-29T20:07:50.566Z</time>
      </trkpt>
      <trkpt lat="48.84559" lon="2.25218">
        <ele>89.3</ele>
        <time>2015-06-29T20:07:51.566Z</time>
      </trkpt>
      <trkpt lat="48.84558" lon="2.25225">
        <ele>89.4</ele>
        <time>2015-06-29T20:07:52.657Z</time>
      </trkpt>
      <trkpt lat="48.84557" lon="2.25232">
        <ele>89.5</ele>
        <time>2015-06-29T20:07:53.491Z</time>
      </trkpt>
      <trkpt lat="48.84558" lon="2.2524">
        <ele>89.5</ele>
        <time>2015-06-29T20:07:54.519Z</time>
      </trkpt>
      <trkpt lat="48.84559" lon="2.25246">
        <ele>89.2</ele>
        <time>2015-06-29T20:07:55.532Z</time>
      </trkpt>
      <trkpt lat="48.84558" lon="2.25259">
        <ele>89.3</ele>
        <time>2015-06-29T20:07:57.519Z</time>
      </trkpt>
      <trkpt lat="48.84558" lon="2.25266">
        <ele>89.2</ele>
        <time>2015-06-29T20:07:58.739Z</time>
      </trkpt>
      <trkpt lat="48.84559" lon="2.25273">
        <ele>89.5</ele>
        <time>2015-06-29T20:07:59.594Z</time>
      </trkpt>
      <trkpt lat="48.84559" lon="2.2528">
        <ele>89.2</ele>
        <time>2015-06-29T20:08:00.495Z</time>
      </trkpt>
      <trkpt lat="48.84559" lon="2.25287">
        <ele>88.7</ele>
        <time>2015-06-29T20:08:01.604Z</time>
      </trkpt>
      <trkpt lat="48.84558" lon="2.25294">
        <ele>88.6</ele>
        <time>2015-06-29T20:08:02.666Z</time>
      </trkpt>
      <trkpt lat="48.84557" lon="2.25301">
        <ele>88.6</ele>
        <time>2015-06-29T20:08:03.559Z</time>
      </trkpt>
      <trkpt lat="48.84556" lon="2.25309">
        <ele>88.5</ele>
        <time>2015-06-29T20:08:04.555Z</time>
      </trkpt>
      <trkpt lat="48.84556" lon="2.25317">
        <ele>88.4</ele>
        <time>2015-06-29T20:08:05.588Z</time>
      </trkpt>
      <trkpt lat="48.84554" lon="2.25324">
        <ele>88.5</ele>
        <time>2015-06-29T20:08:06.593Z</time>
      </trkpt>
      <trkpt lat="48.84554" lon="2.25333">
        <ele>88.8</ele>
        <time>2015-06-29T20:08:07.606Z</time>
      </trkpt>
      <trkpt lat="48.84553" lon="2.25342">
        <ele>88.8</ele>
        <time>2015-06-29T20:08:08.620Z</time>
      </trkpt>
      <trkpt lat="48.84554" lon="2.25351">
        <ele>89</ele>
        <time>2015-06-29T20:08:09.769Z</time>
      </trkpt>
      <trkpt lat="48.84554" lon="2.2536">
        <ele>88.9</ele>
        <time>2015-06-29T20:08:10.528Z</time>
      </trkpt>
      <trkpt lat="48.84554" lon="2.25369">
        <ele>88.8</ele>
        <time>2015-06-29T20:08:11.549Z</time>
      </trkpt>
      <trkpt lat="48.84554" lon="2.25378">
        <ele>88.8</ele>
        <time>2015-06-29T20:08:12.589Z</time>
      </trkpt>
      <trkpt lat="48.84553" lon="2.25388">
        <ele>89.1</ele>
        <time>2015-06-29T20:08:13.532Z</time>
      </trkpt>
      <trkpt lat="48.84553" lon="2.25397">
        <ele>88.8</ele>
        <time>2015-06-29T20:08:14.640Z</time>
      </trkpt>
      <trkpt lat="48.84554" lon="2.25406">
        <ele>88.8</ele>
        <time>2015-06-29T20:08:15.544Z</time>
      </trkpt>
      <trkpt lat="48.84554" lon="2.25415">
        <ele>88.8</ele>
        <time>2015-06-29T20:08:16.580Z</time>
      </trkpt>
      <trkpt lat="48.84553" lon="2.25423">
        <ele>88.9</ele>
        <time>2015-06-29T20:08:17.516Z</time>
      </trkpt>
      <trkpt lat="48.84553" lon="2.25431">
        <ele>89.1</ele>
        <time>2015-06-29T20:08:18.519Z</time>
      </trkpt>
      <trkpt lat="48.84554" lon="2.25439">
        <ele>89.6</ele>
        <time>2015-06-29T20:08:19.600Z</time>
      </trkpt>
      <trkpt lat="48.84554" lon="2.25445">
        <ele>89.3</ele>
        <time>2015-06-29T20:08:20.659Z</time>
      </trkpt>
      <trkpt lat="48.84554" lon="2.25458">
        <ele>89</ele>
        <time>2015-06-29T20:08:22.526Z</time>
      </trkpt>
      <trkpt lat="48.84553" lon="2.25463">
        <ele>89.4</ele>
        <time>2015-06-29T20:08:23.687Z</time>
      </trkpt>
      <trkpt lat="48.84548" lon="2.25471">
        <ele>88.6</ele>
        <time>2015-06-29T20:08:26.593Z</time>
      </trkpt>
      <trkpt lat="48.84546" lon="2.25474">
        <ele>88.5</ele>
        <time>2015-06-29T20:08:27.596Z</time>
      </trkpt>
      <trkpt lat="48.84543" lon="2.25485">
        <ele>88.7</ele>
        <time>2015-06-29T20:08:31.617Z</time>
      </trkpt>
      <trkpt lat="48.84544" lon="2.25489">
        <ele>89.2</ele>
        <time>2015-06-29T20:08:32.599Z</time>
      </trkpt>
      <trkpt lat="48.84546" lon="2.25497">
        <ele>89.7</ele>
        <time>2015-06-29T20:08:34.566Z</time>
      </trkpt>
      <trkpt lat="48.84547" lon="2.25502">
        <ele>90</ele>
        <time>2015-06-29T20:08:35.588Z</time>
      </trkpt>
      <trkpt lat="48.84548" lon="2.25512">
        <ele>90.6</ele>
        <time>2015-06-29T20:08:37.529Z</time>
      </trkpt>
      <trkpt lat="48.84548" lon="2.25518">
        <ele>90.5</ele>
        <time>2015-06-29T20:08:38.619Z</time>
      </trkpt>
      <trkpt lat="48.84547" lon="2.25528">
        <ele>90.4</ele>
        <time>2015-06-29T20:08:40.519Z</time>
      </trkpt>
      <trkpt lat="48.84546" lon="2.25533">
        <ele>90.4</ele>
        <time>2015-06-29T20:08:41.543Z</time>
      </trkpt>
      <trkpt lat="48.84547" lon="2.25544">
        <ele>90.7</ele>
        <time>2015-06-29T20:08:43.599Z</time>
      </trkpt>
      <trkpt lat="48.84547" lon="2.25548">
        <ele>90.9</ele>
        <time>2015-06-29T20:08:44.685Z</time>
      </trkpt>
      <trkpt lat="48.84547" lon="2.25558">
        <ele>91.3</ele>
        <time>2015-06-29T20:08:46.550Z</time>
      </trkpt>
      <trkpt lat="48.84548" lon="2.25563">
        <ele>91.4</ele>
        <time>2015-06-29T20:08:47.619Z</time>
      </trkpt>
      <trkpt lat="48.84549" lon="2.25573">
        <ele>91.7</ele>
        <time>2015-06-29T20:08:49.531Z</time>
      </trkpt>
      <trkpt lat="48.84549" lon="2.25578">
        <ele>92</ele>
        <time>2015-06-29T20:08:50.540Z</time>
      </trkpt>
      <trkpt lat="48.84551" lon="2.25588">
        <ele>92.1</ele>
        <time>2015-06-29T20:08:52.556Z</time>
      </trkpt>
      <trkpt lat="48.84551" lon="2.25592">
        <ele>92</ele>
        <time>2015-06-29T20:08:53.492Z</time>
      </trkpt>
      <trkpt lat="48.84551" lon="2.25606">
        <ele>92.2</ele>
        <time>2015-06-29T20:08:56.581Z</time>
      </trkpt>
      <trkpt lat="48.84551" lon="2.25609">
        <ele>92.2</ele>
        <time>2015-06-29T20:08:57.607Z</time>
      </trkpt>
      <trkpt lat="48.84549" lon="2.25618">
        <ele>92.9</ele>
        <time>2015-06-29T20:08:59.536Z</time>
      </trkpt>
      <trkpt lat="48.84548" lon="2.25623">
        <ele>93.1</ele>
        <time>2015-06-29T20:09:00.558Z</time>
      </trkpt>
      <trkpt lat="48.84546" lon="2.25635">
        <ele>93</ele>
        <time>2015-06-29T20:09:02.585Z</time>
      </trkpt>
      <trkpt lat="48.84546" lon="2.25641">
        <ele>93</ele>
        <time>2015-06-29T20:09:03.579Z</time>
      </trkpt>
      <trkpt lat="48.84545" lon="2.25654">
        <ele>92.6</ele>
        <time>2015-06-29T20:09:05.490Z</time>
      </trkpt>
      <trkpt lat="48.84545" lon="2.25661">
        <ele>93.1</ele>
        <time>2015-06-29T20:09:06.527Z</time>
      </trkpt>
      <trkpt lat="48.84545" lon="2.25674">
        <ele>93.9</ele>
        <time>2015-06-29T20:09:08.595Z</time>
      </trkpt>
      <trkpt lat="48.84545" lon="2.25681">
        <ele>93.7</ele>
        <time>2015-06-29T20:09:09.530Z</time>
      </trkpt>
      <trkpt lat="48.84546" lon="2.25694">
        <ele>93.7</ele>
        <time>2015-06-29T20:09:11.560Z</time>
      </trkpt>
      <trkpt lat="48.84547" lon="2.257">
        <ele>94.7</ele>
        <time>2015-06-29T20:09:12.569Z</time>
      </trkpt>
      <trkpt lat="48.84548" lon="2.25712">
        <ele>95.8</ele>
        <time>2015-06-29T20:09:14.607Z</time>
      </trkpt>
      <trkpt lat="48.84549" lon="2.25718">
        <ele>96.1</ele>
        <time>2015-06-29T20:09:15.546Z</time>
      </trkpt>
      <trkpt lat="48.84549" lon="2.2573">
        <ele>96.5</ele>
        <time>2015-06-29T20:09:17.509Z</time>
      </trkpt>
      <trkpt lat="48.84549" lon="2.25735">
        <ele>96.8</ele>
        <time>2015-06-29T20:09:18.527Z</time>
      </trkpt>
      <trkpt lat="48.8455" lon="2.25745">
        <ele>97.5</ele>
        <time>2015-06-29T20:09:20.607Z</time>
      </trkpt>
      <trkpt lat="48.84549" lon="2.2575">
        <ele>97.6</ele>
        <time>2015-06-29T20:09:21.524Z</time>
      </trkpt>
      <trkpt lat="48.84544" lon="2.25758">
        <ele>98.4</ele>
        <time>2015-06-29T20:09:25.560Z</time>
      </trkpt>
      <trkpt lat="48.84542" lon="2.25759">
        <ele>98.6</ele>
        <time>2015-06-29T20:09:26.617Z</time>
      </trkpt>
      <trkpt lat="48.84538" lon="2.2577">
        <ele>96.4</ele>
        <time>2015-06-29T20:10:03.514Z</time>
      </trkpt>
      <trkpt lat="48.84539" lon="2.25776">
        <ele>96.5</ele>
        <time>2015-06-29T20:10:04.530Z</time>
      </trkpt>
      <trkpt lat="48.8454" lon="2.2579">
        <ele>96.7</ele>
        <time>2015-06-29T20:10:06.548Z</time>
      </trkpt>
      <trkpt lat="48.8454" lon="2.25796">
        <ele>96.6</ele>
        <time>2015-06-29T20:10:07.567Z</time>
      </trkpt>
      <trkpt lat="48.84541" lon="2.25805">
        <ele>96.7</ele>
        <time>2015-06-29T20:10:08.582Z</time>
      </trkpt>
      <trkpt lat="48.84541" lon="2.25812">
        <ele>96.5</ele>
        <time>2015-06-29T20:10:09.592Z</time>
      </trkpt>
      <trkpt lat="48.84541" lon="2.25824">
        <ele>96.8</ele>
        <time>2015-06-29T20:10:11.537Z</time>
      </trkpt>
      <trkpt lat="48.84541" lon="2.2583">
        <ele>96.3</ele>
        <time>2015-06-29T20:10:12.564Z</time>
      </trkpt>
      <trkpt lat="48.84541" lon="2.25841">
        <ele>95.7</ele>
        <time>2015-06-29T20:10:14.627Z</time>
      </trkpt>
      <trkpt lat="48.84541" lon="2.25846">
        <ele>95.8</ele>
        <time>2015-06-29T20:10:15.558Z</time>
      </trkpt>
      <trkpt lat="48.84542" lon="2.25856">
        <ele>96.6</ele>
        <time>2015-06-29T20:10:17.539Z</time>
      </trkpt>
      <trkpt lat="48.84542" lon="2.2586">
        <ele>96.9</ele>
        <time>2015-06-29T20:10:18.541Z</time>
      </trkpt>
      <trkpt lat="48.84542" lon="2.25865">
        <ele>98.2</ele>
        <time>2015-06-29T20:10:37.581Z</time>
      </trkpt>
      <trkpt lat="48.84547" lon="2.25871">
        <ele>104</ele>
        <time>2015-06-29T20:10:38.651Z</time>
      </trkpt>
      <trkpt lat="48.84547" lon="2.25882">
        <ele>104.4</ele>
        <time>2015-06-29T20:10:41.543Z</time>
      </trkpt>
      <trkpt lat="48.84548" lon="2.25888">
        <ele>104.3</ele>
        <time>2015-06-29T20:10:42.563Z</time>
      </trkpt>
      <trkpt lat="48.84548" lon="2.259">
        <ele>104.6</ele>
        <time>2015-06-29T20:10:44.591Z</time>
      </trkpt>
      <trkpt lat="48.84548" lon="2.25906">
        <ele>104.7</ele>
        <time>2015-06-29T20:10:45.605Z</time>
      </trkpt>
      <trkpt lat="48.84549" lon="2.25918">
        <ele>105.8</ele>
        <time>2015-06-29T20:10:47.519Z</time>
      </trkpt>
      <trkpt lat="48.8455" lon="2.25924">
        <ele>106.2</ele>
        <time>2015-06-29T20:10:48.549Z</time>
      </trkpt>
      <trkpt lat="48.84549" lon="2.25934">
        <ele>106.6</ele>
        <time>2015-06-29T20:10:50.598Z</time>
      </trkpt>
      <trkpt lat="48.84548" lon="2.25939">
        <ele>106.7</ele>
        <time>2015-06-29T20:10:51.553Z</time>
      </trkpt>
      <trkpt lat="48.84546" lon="2.2595">
        <ele>106.8</ele>
        <time>2015-06-29T20:10:53.532Z</time>
      </trkpt>
      <trkpt lat="48.84545" lon="2.25955">
        <ele>106.9</ele>
        <time>2015-06-29T20:10:54.572Z</time>
      </trkpt>
      <trkpt lat="48.84547" lon="2.25962">
        <ele>106.7</ele>
        <time>2015-06-29T20:10:55.592Z</time>
      </trkpt>
      <trkpt lat="48.84548" lon="2.25969">
        <ele>106.9</ele>
        <time>2015-06-29T20:10:56.616Z</time>
      </trkpt>
      <trkpt lat="48.84549" lon="2.25981">
        <ele>106.9</ele>
        <time>2015-06-29T20:10:58.528Z</time>
      </trkpt>
      <trkpt lat="48.84547" lon="2.25987">
        <ele>106.7</ele>
        <time>2015-06-29T20:10:59.568Z</time>
      </trkpt>
      <trkpt lat="48.84545" lon="2.25997">
        <ele>106.6</ele>
        <time>2015-06-29T20:11:01.558Z</time>
      </trkpt>
      <trkpt lat="48.84545" lon="2.26005">
        <ele>106.2</ele>
        <time>2015-06-29T20:11:02.600Z</time>
      </trkpt>
      <trkpt lat="48.84546" lon="2.26014">
        <ele>106.1</ele>
        <time>2015-06-29T20:11:03.625Z</time>
      </trkpt>
      <trkpt lat="48.84546" lon="2.26022">
        <ele>105.7</ele>
        <time>2015-06-29T20:11:04.627Z</time>
      </trkpt>
      <trkpt lat="48.84545" lon="2.26031">
        <ele>105.3</ele>
        <time>2015-06-29T20:11:05.543Z</time>
      </trkpt>
      <trkpt lat="48.84545" lon="2.26039">
        <ele>104.9</ele>
        <time>2015-06-29T20:11:06.547Z</time>
      </trkpt>
      <trkpt lat="48.84545" lon="2.26046">
        <ele>104.5</ele>
        <time>2015-06-29T20:11:07.550Z</time>
      </trkpt>
      <trkpt lat="48.84545" lon="2.26053">
        <ele>104.2</ele>
        <time>2015-06-29T20:11:08.652Z</time>
      </trkpt>
      <trkpt lat="48.84543" lon="2.26066">
        <ele>104.4</ele>
        <time>2015-06-29T20:11:10.531Z</time>
      </trkpt>
      <trkpt lat="48.8454" lon="2.26074">
        <ele>104.6</ele>
        <time>2015-06-29T20:11:11.601Z</time>
      </trkpt>
      <trkpt lat="48.84538" lon="2.2608">
        <ele>104.2</ele>
        <time>2015-06-29T20:11:12.526Z</time>
      </trkpt>
      <trkpt lat="48.84537" lon="2.26087">
        <ele>103.8</ele>
        <time>2015-06-29T20:11:13.544Z</time>
      </trkpt>
      <trkpt lat="48.84534" lon="2.26099">
        <ele>103.7</ele>
        <time>2015-06-29T20:11:15.569Z</time>
      </trkpt>
      <trkpt lat="48.84538" lon="2.26107">
        <ele>103.9</ele>
        <time>2015-06-29T20:11:16.583Z</time>
      </trkpt>
      <trkpt lat="48.84539" lon="2.26116">
        <ele>103.2</ele>
        <time>2015-06-29T20:11:17.516Z</time>
      </trkpt>
      <trkpt lat="48.84539" lon="2.26124">
        <ele>103</ele>
        <time>2015-06-29T20:11:18.579Z</time>
      </trkpt>
      <trkpt lat="48.84539" lon="2.26132">
        <ele>103.3</ele>
        <time>2015-06-29T20:11:19.519Z</time>
      </trkpt>
      <trkpt lat="48.84539" lon="2.2614">
        <ele>103.2</ele>
        <time>2015-06-29T20:11:20.547Z</time>
      </trkpt>
      <trkpt lat="48.84539" lon="2.26148">
        <ele>103</ele>
        <time>2015-06-29T20:11:21.548Z</time>
      </trkpt>
      <trkpt lat="48.84538" lon="2.26156">
        <ele>102.5</ele>
        <time>2015-06-29T20:11:22.551Z</time>
      </trkpt>
      <trkpt lat="48.84539" lon="2.26164">
        <ele>102.3</ele>
        <time>2015-06-29T20:11:23.565Z</time>
      </trkpt>
      <trkpt lat="48.84538" lon="2.26172">
        <ele>102.6</ele>
        <time>2015-06-29T20:11:24.583Z</time>
      </trkpt>
      <trkpt lat="48.84537" lon="2.26183">
        <ele>102.9</ele>
        <time>2015-06-29T20:11:26.575Z</time>
      </trkpt>
      <trkpt lat="48.84537" lon="2.26188">
        <ele>103</ele>
        <time>2015-06-29T20:11:27.583Z</time>
      </trkpt>
      <trkpt lat="48.84535" lon="2.26201">
        <ele>103.4</ele>
        <time>2015-06-29T20:11:30.553Z</time>
      </trkpt>
      <trkpt lat="48.84536" lon="2.26204">
        <ele>103.4</ele>
        <time>2015-06-29T20:11:31.562Z</time>
      </trkpt>
      <trkpt lat="48.84534" lon="2.26216">
        <ele>102.4</ele>
        <time>2015-06-29T20:11:33.605Z</time>
      </trkpt>
      <trkpt lat="48.84534" lon="2.26223">
        <ele>102.3</ele>
        <time>2015-06-29T20:11:34.560Z</time>
      </trkpt>
      <trkpt lat="48.84534" lon="2.26236">
        <ele>102.1</ele>
        <time>2015-06-29T20:11:36.541Z</time>
      </trkpt>
      <trkpt lat="48.84535" lon="2.26243">
        <ele>101.8</ele>
        <time>2015-06-29T20:11:37.579Z</time>
      </trkpt>
      <trkpt lat="48.84536" lon="2.26251">
        <ele>101.5</ele>
        <time>2015-06-29T20:11:38.625Z</time>
      </trkpt>
      <trkpt lat="48.84536" lon="2.26258">
        <ele>101.2</ele>
        <time>2015-06-29T20:11:39.558Z</time>
      </trkpt>
      <trkpt lat="48.84536" lon="2.26267">
        <ele>101</ele>
        <time>2015-06-29T20:11:40.583Z</time>
      </trkpt>
      <trkpt lat="48.84535" lon="2.26275">
        <ele>100.9</ele>
        <time>2015-06-29T20:11:41.588Z</time>
      </trkpt>
      <trkpt lat="48.84534" lon="2.26284">
        <ele>100.9</ele>
        <time>2015-06-29T20:11:42.511Z</time>
      </trkpt>
      <trkpt lat="48.84533" lon="2.26294">
        <ele>100.7</ele>
        <time>2015-06-29T20:11:43.510Z</time>
      </trkpt>
      <trkpt lat="48.84531" lon="2.26302">
        <ele>100.6</ele>
        <time>2015-06-29T20:11:44.599Z</time>
      </trkpt>
      <trkpt lat="48.8453" lon="2.26312">
        <ele>100</ele>
        <time>2015-06-29T20:11:45.565Z</time>
      </trkpt>
      <trkpt lat="48.8453" lon="2.26322">
        <ele>99.5</ele>
        <time>2015-06-29T20:11:46.587Z</time>
      </trkpt>
      <trkpt lat="48.8453" lon="2.2633">
        <ele>99.3</ele>
        <time>2015-06-29T20:11:47.597Z</time>
      </trkpt>
      <trkpt lat="48.8453" lon="2.26338">
        <ele>98.7</ele>
        <time>2015-06-29T20:11:48.518Z</time>
      </trkpt>
      <trkpt lat="48.8453" lon="2.26346">
        <ele>98.7</ele>
        <time>2015-06-29T20:11:49.516Z</time>
      </trkpt>
      <trkpt lat="48.84529" lon="2.26353">
        <ele>98.6</ele>
        <time>2015-06-29T20:11:50.568Z</time>
      </trkpt>
      <trkpt lat="48.84529" lon="2.2636">
        <ele>98.5</ele>
        <time>2015-06-29T20:11:51.555Z</time>
      </trkpt>
      <trkpt lat="48.84529" lon="2.26368">
        <ele>98.2</ele>
        <time>2015-06-29T20:11:52.563Z</time>
      </trkpt>
      <trkpt lat="48.84528" lon="2.26377">
        <ele>97.7</ele>
        <time>2015-06-29T20:11:53.565Z</time>
      </trkpt>
      <trkpt lat="48.84528" lon="2.26384">
        <ele>97.4</ele>
        <time>2015-06-29T20:11:54.579Z</time>
      </trkpt>
      <trkpt lat="48.84528" lon="2.26393">
        <ele>97.3</ele>
        <time>2015-06-29T20:11:55.605Z</time>
      </trkpt>
      <trkpt lat="48.84529" lon="2.26401">
        <ele>97.3</ele>
        <time>2015-06-29T20:11:56.615Z</time>
      </trkpt>
      <trkpt lat="48.8453" lon="2.2641">
        <ele>97.4</ele>
        <time>2015-06-29T20:11:57.515Z</time>
      </trkpt>
      <trkpt lat="48.8453" lon="2.26419">
        <ele>97.4</ele>
        <time>2015-06-29T20:11:58.533Z</time>
      </trkpt>
      <trkpt lat="48.84529" lon="2.26427">
        <ele>97.4</ele>
        <time>2015-06-29T20:11:59.540Z</time>
      </trkpt>
      <trkpt lat="48.84529" lon="2.26438">
        <ele>98.4</ele>
        <time>2015-06-29T20:12:01.552Z</time>
      </trkpt>
      <trkpt lat="48.84534" lon="2.26443">
        <ele>98.6</ele>
        <time>2015-06-29T20:12:02.568Z</time>
      </trkpt>
      <trkpt lat="48.84536" lon="2.2645">
        <ele>98.4</ele>
        <time>2015-06-29T20:12:03.581Z</time>
      </trkpt>
      <trkpt lat="48.84535" lon="2.26458">
        <ele>98.4</ele>
        <time>2015-06-29T20:12:04.586Z</time>
      </trkpt>
      <trkpt lat="48.84532" lon="2.26468">
        <ele>98.3</ele>
        <time>2015-06-29T20:12:05.516Z</time>
      </trkpt>
      <trkpt lat="48.8453" lon="2.26478">
        <ele>98.2</ele>
        <time>2015-06-29T20:12:06.522Z</time>
      </trkpt>
      <trkpt lat="48.8453" lon="2.26486">
        <ele>98.1</ele>
        <time>2015-06-29T20:12:07.524Z</time>
      </trkpt>
      <trkpt lat="48.84529" lon="2.26495">
        <ele>97.9</ele>
        <time>2015-06-29T20:12:08.570Z</time>
      </trkpt>
      <trkpt lat="48.84529" lon="2.26504">
        <ele>97.9</ele>
        <time>2015-06-29T20:12:09.568Z</time>
      </trkpt>
      <trkpt lat="48.84531" lon="2.26512">
        <ele>98.3</ele>
        <time>2015-06-29T20:12:10.574Z</time>
      </trkpt>
      <trkpt lat="48.84532" lon="2.2652">
        <ele>97.7</ele>
        <time>2015-06-29T20:12:11.579Z</time>
      </trkpt>
      <trkpt lat="48.8453" lon="2.26528">
        <ele>98.3</ele>
        <time>2015-06-29T20:12:12.593Z</time>
      </trkpt>
      <trkpt lat="48.84529" lon="2.26536">
        <ele>98.9</ele>
        <time>2015-06-29T20:12:13.593Z</time>
      </trkpt>
      <trkpt lat="48.84529" lon="2.26544">
        <ele>99</ele>
        <time>2015-06-29T20:12:14.609Z</time>
      </trkpt>
      <trkpt lat="48.8453" lon="2.26552">
        <ele>99</ele>
        <time>2015-06-29T20:12:15.529Z</time>
      </trkpt>
      <trkpt lat="48.84531" lon="2.26561">
        <ele>99.2</ele>
        <time>2015-06-29T20:12:16.516Z</time>
      </trkpt>
      <trkpt lat="48.84532" lon="2.2657">
        <ele>99.5</ele>
        <time>2015-06-29T20:12:17.527Z</time>
      </trkpt>
      <trkpt lat="48.84532" lon="2.26577">
        <ele>99.9</ele>
        <time>2015-06-29T20:12:18.544Z</time>
      </trkpt>
      <trkpt lat="48.84531" lon="2.26584">
        <ele>99.6</ele>
        <time>2015-06-29T20:12:19.584Z</time>
      </trkpt>
      <trkpt lat="48.84529" lon="2.26591">
        <ele>99.3</ele>
        <time>2015-06-29T20:12:20.578Z</time>
      </trkpt>
      <trkpt lat="48.84529" lon="2.266">
        <ele>99.2</ele>
        <time>2015-06-29T20:12:21.592Z</time>
      </trkpt>
      <trkpt lat="48.84528" lon="2.26609">
        <ele>99.3</ele>
        <time>2015-06-29T20:12:22.627Z</time>
      </trkpt>
      <trkpt lat="48.84527" lon="2.26618">
        <ele>99.2</ele>
        <time>2015-06-29T20:12:23.531Z</time>
      </trkpt>
      <trkpt lat="48.84527" lon="2.26626">
        <ele>99.2</ele>
        <time>2015-06-29T20:12:24.516Z</time>
      </trkpt>
      <trkpt lat="48.84527" lon="2.26635">
        <ele>99.1</ele>
        <time>2015-06-29T20:12:25.541Z</time>
      </trkpt>
      <trkpt lat="48.84526" lon="2.26644">
        <ele>98.7</ele>
        <time>2015-06-29T20:12:26.563Z</time>
      </trkpt>
      <trkpt lat="48.84524" lon="2.26652">
        <ele>98.5</ele>
        <time>2015-06-29T20:12:27.567Z</time>
      </trkpt>
      <trkpt lat="48.84523" lon="2.26659">
        <ele>98</ele>
        <time>2015-06-29T20:12:28.569Z</time>
      </trkpt>
      <trkpt lat="48.84522" lon="2.2667">
        <ele>98.1</ele>
        <time>2015-06-29T20:12:30.518Z</time>
      </trkpt>
      <trkpt lat="48.84524" lon="2.26675">
        <ele>98</ele>
        <time>2015-06-29T20:12:31.542Z</time>
      </trkpt>
      <trkpt lat="48.84528" lon="2.26682">
        <ele>97.9</ele>
        <time>2015-06-29T20:12:33.582Z</time>
      </trkpt>
      <trkpt lat="48.84531" lon="2.26684">
        <ele>97.7</ele>
        <time>2015-06-29T20:12:34.652Z</time>
      </trkpt>
      <trkpt lat="48.84534" lon="2.26693">
        <ele>97.3</ele>
        <time>2015-06-29T20:12:37.557Z</time>
      </trkpt>
      <trkpt lat="48.84538" lon="2.267">
        <ele>97.1</ele>
        <time>2015-06-29T20:12:38.587Z</time>
      </trkpt>
      <trkpt lat="48.84541" lon="2.26706">
        <ele>96.8</ele>
        <time>2015-06-29T20:12:39.520Z</time>
      </trkpt>
      <trkpt lat="48.84544" lon="2.26713">
        <ele>96.5</ele>
        <time>2015-06-29T20:12:40.510Z</time>
      </trkpt>
      <trkpt lat="48.84547" lon="2.2672">
        <ele>96.2</ele>
        <time>2015-06-29T20:12:41.524Z</time>
      </trkpt>
      <trkpt lat="48.84549" lon="2.26727">
        <ele>96</ele>
        <time>2015-06-29T20:12:42.533Z</time>
      </trkpt>
      <trkpt lat="48.84551" lon="2.26733">
        <ele>95.5</ele>
        <time>2015-06-29T20:12:43.548Z</time>
      </trkpt>
      <trkpt lat="48.84554" lon="2.26739">
        <ele>95.4</ele>
        <time>2015-06-29T20:12:44.562Z</time>
      </trkpt>
      <trkpt lat="48.84556" lon="2.26751">
        <ele>94.3</ele>
        <time>2015-06-29T20:12:46.564Z</time>
      </trkpt>
      <trkpt lat="48.84559" lon="2.26756">
        <ele>94.2</ele>
        <time>2015-06-29T20:12:47.574Z</time>
      </trkpt>
      <trkpt lat="48.84562" lon="2.26768">
        <ele>94.9</ele>
        <time>2015-06-29T20:12:49.558Z</time>
      </trkpt>
      <trkpt lat="48.84564" lon="2.26773">
        <ele>94.8</ele>
        <time>2015-06-29T20:12:50.654Z</time>
      </trkpt>
      <trkpt lat="48.84566" lon="2.26779">
        <ele>94.9</ele>
        <time>2015-06-29T20:12:51.520Z</time>
      </trkpt>
      <trkpt lat="48.84569" lon="2.26786">
        <ele>94.7</ele>
        <time>2015-06-29T20:12:52.527Z</time>
      </trkpt>
      <trkpt lat="48.84572" lon="2.26798">
        <ele>94.7</ele>
        <time>2015-06-29T20:12:54.540Z</time>
      </trkpt>
      <trkpt lat="48.84574" lon="2.26802">
        <ele>94.9</ele>
        <time>2015-06-29T20:12:55.550Z</time>
      </trkpt>
      <trkpt lat="48.84576" lon="2.26814">
        <ele>94.5</ele>
        <time>2015-06-29T20:12:57.592Z</time>
      </trkpt>
      <trkpt lat="48.84578" lon="2.26821">
        <ele>94.4</ele>
        <time>2015-06-29T20:12:58.602Z</time>
      </trkpt>
      <trkpt lat="48.84581" lon="2.26829">
        <ele>94.4</ele>
        <time>2015-06-29T20:12:59.529Z</time>
      </trkpt>
      <trkpt lat="48.84584" lon="2.26836">
        <ele>94.4</ele>
        <time>2015-06-29T20:13:00.527Z</time>
      </trkpt>
      <trkpt lat="48.84585" lon="2.26843">
        <ele>94.3</ele>
        <time>2015-06-29T20:13:01.641Z</time>
      </trkpt>
      <trkpt lat="48.84587" lon="2.2685">
        <ele>94.2</ele>
        <time>2015-06-29T20:13:02.604Z</time>
      </trkpt>
      <trkpt lat="48.84589" lon="2.26857">
        <ele>94</ele>
        <time>2015-06-29T20:13:03.551Z</time>
      </trkpt>
      <trkpt lat="48.84592" lon="2.26864">
        <ele>93.7</ele>
        <time>2015-06-29T20:13:04.567Z</time>
      </trkpt>
      <trkpt lat="48.84594" lon="2.26876">
        <ele>93.7</ele>
        <time>2015-06-29T20:13:06.590Z</time>
      </trkpt>
      <trkpt lat="48.84596" lon="2.26883">
        <ele>93.6</ele>
        <time>2015-06-29T20:13:07.778Z</time>
      </trkpt>
      <trkpt lat="48.84598" lon="2.2689">
        <ele>93.6</ele>
        <time>2015-06-29T20:13:08.617Z</time>
      </trkpt>
      <trkpt lat="48.84601" lon="2.26898">
        <ele>93.1</ele>
        <time>2015-06-29T20:13:09.514Z</time>
      </trkpt>
      <trkpt lat="48.84603" lon="2.26905">
        <ele>92.4</ele>
        <time>2015-06-29T20:13:10.527Z</time>
      </trkpt>
      <trkpt lat="48.84605" lon="2.26912">
        <ele>92.4</ele>
        <time>2015-06-29T20:13:11.539Z</time>
      </trkpt>
      <trkpt lat="48.84608" lon="2.2692">
        <ele>92.4</ele>
        <time>2015-06-29T20:13:12.629Z</time>
      </trkpt>
      <trkpt lat="48.84612" lon="2.26929">
        <ele>92.4</ele>
        <time>2015-06-29T20:13:13.559Z</time>
      </trkpt>
      <trkpt lat="48.84615" lon="2.26937">
        <ele>92.4</ele>
        <time>2015-06-29T20:13:14.572Z</time>
      </trkpt>
      <trkpt lat="48.84618" lon="2.26945">
        <ele>92.5</ele>
        <time>2015-06-29T20:13:15.577Z</time>
      </trkpt>
      <trkpt lat="48.84619" lon="2.26957">
        <ele>92.3</ele>
        <time>2015-06-29T20:13:17.517Z</time>
      </trkpt>
      <trkpt lat="48.8462" lon="2.26966">
        <ele>92.1</ele>
        <time>2015-06-29T20:13:18.519Z</time>
      </trkpt>
      <trkpt lat="48.84621" lon="2.26975">
        <ele>91.7</ele>
        <time>2015-06-29T20:13:19.548Z</time>
      </trkpt>
      <trkpt lat="48.84623" lon="2.26984">
        <ele>91.2</ele>
        <time>2015-06-29T20:13:20.540Z</time>
      </trkpt>
      <trkpt lat="48.84625" lon="2.26993">
        <ele>90.9</ele>
        <time>2015-06-29T20:13:21.559Z</time>
      </trkpt>
      <trkpt lat="48.84628" lon="2.27001">
        <ele>90.8</ele>
        <time>2015-06-29T20:13:22.567Z</time>
      </trkpt>
      <trkpt lat="48.8463" lon="2.27007">
        <ele>90.6</ele>
        <time>2015-06-29T20:13:23.576Z</time>
      </trkpt>
      <trkpt lat="48.84633" lon="2.27013">
        <ele>90.7</ele>
        <time>2015-06-29T20:13:24.596Z</time>
      </trkpt>
      <trkpt lat="48.84635" lon="2.2702">
        <ele>90.8</ele>
        <time>2015-06-29T20:13:25.514Z</time>
      </trkpt>
      <trkpt lat="48.84638" lon="2.27027">
        <ele>90.8</ele>
        <time>2015-06-29T20:13:26.567Z</time>
      </trkpt>
      <trkpt lat="48.84641" lon="2.27033">
        <ele>90.5</ele>
        <time>2015-06-29T20:13:27.560Z</time>
      </trkpt>
      <trkpt lat="48.84644" lon="2.2704">
        <ele>90.2</ele>
        <time>2015-06-29T20:13:28.657Z</time>
      </trkpt>
      <trkpt lat="48.84647" lon="2.27046">
        <ele>89.6</ele>
        <time>2015-06-29T20:13:29.550Z</time>
      </trkpt>
      <trkpt lat="48.84649" lon="2.27053">
        <ele>89.7</ele>
        <time>2015-06-29T20:13:30.566Z</time>
      </trkpt>
      <trkpt lat="48.84652" lon="2.2706">
        <ele>89.8</ele>
        <time>2015-06-29T20:13:31.569Z</time>
      </trkpt>
      <trkpt lat="48.84654" lon="2.27067">
        <ele>90.1</ele>
        <time>2015-06-29T20:13:32.621Z</time>
      </trkpt>
      <trkpt lat="48.84657" lon="2.27073">
        <ele>90.3</ele>
        <time>2015-06-29T20:13:33.518Z</time>
      </trkpt>
      <trkpt lat="48.8466" lon="2.2708">
        <ele>90.3</ele>
        <time>2015-06-29T20:13:34.522Z</time>
      </trkpt>
      <trkpt lat="48.84661" lon="2.27088">
        <ele>90.5</ele>
        <time>2015-06-29T20:13:35.537Z</time>
      </trkpt>
      <trkpt lat="48.84662" lon="2.27095">
        <ele>90.7</ele>
        <time>2015-06-29T20:13:36.548Z</time>
      </trkpt>
      <trkpt lat="48.84664" lon="2.27102">
        <ele>90.8</ele>
        <time>2015-06-29T20:13:37.561Z</time>
      </trkpt>
      <trkpt lat="48.84666" lon="2.27109">
        <ele>90.8</ele>
        <time>2015-06-29T20:13:38.573Z</time>
      </trkpt>
      <trkpt lat="48.84669" lon="2.27116">
        <ele>91.1</ele>
        <time>2015-06-29T20:13:39.539Z</time>
      </trkpt>
      <trkpt lat="48.84671" lon="2.27121">
        <ele>91.2</ele>
        <time>2015-06-29T20:13:40.519Z</time>
      </trkpt>
      <trkpt lat="48.84675" lon="2.27126">
        <ele>91.4</ele>
        <time>2015-06-29T20:13:41.542Z</time>
      </trkpt>
      <trkpt lat="48.84677" lon="2.27133">
        <ele>91.5</ele>
        <time>2015-06-29T20:13:42.559Z</time>
      </trkpt>
      <trkpt lat="48.84681" lon="2.2714">
        <ele>91.6</ele>
        <time>2015-06-29T20:13:43.577Z</time>
      </trkpt>
      <trkpt lat="48.84684" lon="2.27148">
        <ele>91.7</ele>
        <time>2015-06-29T20:13:44.592Z</time>
      </trkpt>
      <trkpt lat="48.84687" lon="2.27154">
        <ele>91.9</ele>
        <time>2015-06-29T20:13:45.508Z</time>
      </trkpt>
      <trkpt lat="48.8469" lon="2.27161">
        <ele>91.9</ele>
        <time>2015-06-29T20:13:46.514Z</time>
      </trkpt>
      <trkpt lat="48.84692" lon="2.27169">
        <ele>92</ele>
        <time>2015-06-29T20:13:47.515Z</time>
      </trkpt>
      <trkpt lat="48.84693" lon="2.27177">
        <ele>92.1</ele>
        <time>2015-06-29T20:13:48.518Z</time>
      </trkpt>
      <trkpt lat="48.84694" lon="2.27185">
        <ele>92.3</ele>
        <time>2015-06-29T20:13:49.528Z</time>
      </trkpt>
      <trkpt lat="48.84696" lon="2.27191">
        <ele>92.4</ele>
        <time>2015-06-29T20:13:50.565Z</time>
      </trkpt>
      <trkpt lat="48.84697" lon="2.27198">
        <ele>92.4</ele>
        <time>2015-06-29T20:13:51.563Z</time>
      </trkpt>
      <trkpt lat="48.84699" lon="2.27204">
        <ele>92.6</ele>
        <time>2015-06-29T20:13:52.576Z</time>
      </trkpt>
      <trkpt lat="48.84701" lon="2.27211">
        <ele>92.9</ele>
        <time>2015-06-29T20:13:53.623Z</time>
      </trkpt>
      <trkpt lat="48.84705" lon="2.27217">
        <ele>93.3</ele>
        <time>2015-06-29T20:13:54.520Z</time>
      </trkpt>
      <trkpt lat="48.84707" lon="2.27224">
        <ele>93.4</ele>
        <time>2015-06-29T20:13:55.534Z</time>
      </trkpt>
      <trkpt lat="48.84709" lon="2.2723">
        <ele>93.7</ele>
        <time>2015-06-29T20:13:56.586Z</time>
      </trkpt>
      <trkpt lat="48.84713" lon="2.27241">
        <ele>94.1</ele>
        <time>2015-06-29T20:13:58.513Z</time>
      </trkpt>
      <trkpt lat="48.84714" lon="2.27247">
        <ele>94.4</ele>
        <time>2015-06-29T20:13:59.529Z</time>
      </trkpt>
      <trkpt lat="48.84717" lon="2.2726">
        <ele>94.7</ele>
        <time>2015-06-29T20:14:01.558Z</time>
      </trkpt>
      <trkpt lat="48.84719" lon="2.27266">
        <ele>94.4</ele>
        <time>2015-06-29T20:14:02.577Z</time>
      </trkpt>
      <trkpt lat="48.84723" lon="2.27278">
        <ele>94.3</ele>
        <time>2015-06-29T20:14:04.504Z</time>
      </trkpt>
      <trkpt lat="48.84724" lon="2.27283">
        <ele>94.2</ele>
        <time>2015-06-29T20:14:05.508Z</time>
      </trkpt>
      <trkpt lat="48.84726" lon="2.27289">
        <ele>94.1</ele>
        <time>2015-06-29T20:14:06.509Z</time>
      </trkpt>
      <trkpt lat="48.84728" lon="2.27296">
        <ele>94.1</ele>
        <time>2015-06-29T20:14:07.597Z</time>
      </trkpt>
      <trkpt lat="48.84731" lon="2.27304">
        <ele>94.3</ele>
        <time>2015-06-29T20:14:08.613Z</time>
      </trkpt>
      <trkpt lat="48.84733" lon="2.27311">
        <ele>94</ele>
        <time>2015-06-29T20:14:09.516Z</time>
      </trkpt>
      <trkpt lat="48.84736" lon="2.27323">
        <ele>94.5</ele>
        <time>2015-06-29T20:14:11.599Z</time>
      </trkpt>
      <trkpt lat="48.84737" lon="2.27329">
        <ele>94.5</ele>
        <time>2015-06-29T20:14:12.739Z</time>
      </trkpt>
      <trkpt lat="48.84739" lon="2.27339">
        <ele>95.6</ele>
        <time>2015-06-29T20:14:14.563Z</time>
      </trkpt>
      <trkpt lat="48.8474" lon="2.27345">
        <ele>96.4</ele>
        <time>2015-06-29T20:14:15.554Z</time>
      </trkpt>
      <trkpt lat="48.84746" lon="2.2735">
        <ele>96.3</ele>
        <time>2015-06-29T20:14:19.599Z</time>
      </trkpt>
      <trkpt lat="48.84748" lon="2.27352">
        <ele>95.9</ele>
        <time>2015-06-29T20:14:20.600Z</time>
      </trkpt>
      <trkpt lat="48.84755" lon="2.27359">
        <ele>94.8</ele>
        <time>2015-06-29T20:14:24.595Z</time>
      </trkpt>
      <trkpt lat="48.84757" lon="2.27362">
        <ele>94.9</ele>
        <time>2015-06-29T20:14:25.606Z</time>
      </trkpt>
      <trkpt lat="48.8476" lon="2.2737">
        <ele>94.5</ele>
        <time>2015-06-29T20:14:27.513Z</time>
      </trkpt>
      <trkpt lat="48.84761" lon="2.27374">
        <ele>94.8</ele>
        <time>2015-06-29T20:14:28.542Z</time>
      </trkpt>
      <trkpt lat="48.84764" lon="2.27384">
        <ele>95.3</ele>
        <time>2015-06-29T20:14:31.542Z</time>
      </trkpt>
      <trkpt lat="48.84766" lon="2.27388">
        <ele>95.5</ele>
        <time>2015-06-29T20:14:32.570Z</time>
      </trkpt>
      <trkpt lat="48.8477" lon="2.27396">
        <ele>96</ele>
        <time>2015-06-29T20:14:34.570Z</time>
      </trkpt>
      <trkpt lat="48.84773" lon="2.274">
        <ele>96.1</ele>
        <time>2015-06-29T20:14:35.581Z</time>
      </trkpt>
      <trkpt lat="48.84777" lon="2.27403">
        <ele>96.3</ele>
        <time>2015-06-29T20:14:36.596Z</time>
      </trkpt>
      <trkpt lat="48.84781" lon="2.27407">
        <ele>96.4</ele>
        <time>2015-06-29T20:14:37.607Z</time>
      </trkpt>
      <trkpt lat="48.84785" lon="2.2741">
        <ele>96.9</ele>
        <time>2015-06-29T20:14:38.619Z</time>
      </trkpt>
      <trkpt lat="48.84789" lon="2.27414">
        <ele>97.2</ele>
        <time>2015-06-29T20:14:39.508Z</time>
      </trkpt>
      <trkpt lat="48.84795" lon="2.27421">
        <ele>98</ele>
        <time>2015-06-29T20:14:41.521Z</time>
      </trkpt>
      <trkpt lat="48.84799" lon="2.27424">
        <ele>98.4</ele>
        <time>2015-06-29T20:14:42.540Z</time>
      </trkpt>
      <trkpt lat="48.84804" lon="2.27429">
        <ele>99.3</ele>
        <time>2015-06-29T20:14:44.642Z</time>
      </trkpt>
      <trkpt lat="48.84808" lon="2.27432">
        <ele>100</ele>
        <time>2015-06-29T20:14:45.525Z</time>
      </trkpt>
      <trkpt lat="48.84812" lon="2.27437">
        <ele>100.8</ele>
        <time>2015-06-29T20:14:47.551Z</time>
      </trkpt>
      <trkpt lat="48.84815" lon="2.2744">
        <ele>101.5</ele>
        <time>2015-06-29T20:14:48.652Z</time>
      </trkpt>
      <trkpt lat="48.8482" lon="2.27443">
        <ele>101.4</ele>
        <time>2015-06-29T20:14:49.523Z</time>
      </trkpt>
      <trkpt lat="48.84825" lon="2.27444">
        <ele>100.8</ele>
        <time>2015-06-29T20:14:50.530Z</time>
      </trkpt>
      <trkpt lat="48.84829" lon="2.27448">
        <ele>101</ele>
        <time>2015-06-29T20:14:51.550Z</time>
      </trkpt>
      <trkpt lat="48.84834" lon="2.27452">
        <ele>101</ele>
        <time>2015-06-29T20:14:52.559Z</time>
      </trkpt>
      <trkpt lat="48.8484" lon="2.27457">
        <ele>101</ele>
        <time>2015-06-29T20:14:53.565Z</time>
      </trkpt>
      <trkpt lat="48.84845" lon="2.27462">
        <ele>100.7</ele>
        <time>2015-06-29T20:14:54.574Z</time>
      </trkpt>
      <trkpt lat="48.84851" lon="2.27467">
        <ele>100.3</ele>
        <time>2015-06-29T20:14:55.587Z</time>
      </trkpt>
      <trkpt lat="48.84856" lon="2.27472">
        <ele>100.2</ele>
        <time>2015-06-29T20:14:56.597Z</time>
      </trkpt>
      <trkpt lat="48.8486" lon="2.27477">
        <ele>100.5</ele>
        <time>2015-06-29T20:14:57.538Z</time>
      </trkpt>
      <trkpt lat="48.84865" lon="2.27483">
        <ele>100.9</ele>
        <time>2015-06-29T20:14:58.542Z</time>
      </trkpt>
      <trkpt lat="48.84869" lon="2.27487">
        <ele>101.3</ele>
        <time>2015-06-29T20:14:59.552Z</time>
      </trkpt>
      <trkpt lat="48.84874" lon="2.27491">
        <ele>101.3</ele>
        <time>2015-06-29T20:15:00.575Z</time>
      </trkpt>
      <trkpt lat="48.84878" lon="2.27495">
        <ele>101.7</ele>
        <time>2015-06-29T20:15:01.592Z</time>
      </trkpt>
      <trkpt lat="48.84882" lon="2.275">
        <ele>102.1</ele>
        <time>2015-06-29T20:15:02.598Z</time>
      </trkpt>
      <trkpt lat="48.84889" lon="2.27508">
        <ele>102.8</ele>
        <time>2015-06-29T20:15:04.555Z</time>
      </trkpt>
      <trkpt lat="48.84893" lon="2.27511">
        <ele>103.3</ele>
        <time>2015-06-29T20:15:05.574Z</time>
      </trkpt>
      <trkpt lat="48.84897" lon="2.27516">
        <ele>103.7</ele>
        <time>2015-06-29T20:15:06.516Z</time>
      </trkpt>
      <trkpt lat="48.849" lon="2.27521">
        <ele>103.9</ele>
        <time>2015-06-29T20:15:07.503Z</time>
      </trkpt>
      <trkpt lat="48.84906" lon="2.27527">
        <ele>104.2</ele>
        <time>2015-06-29T20:15:08.553Z</time>
      </trkpt>
      <trkpt lat="48.84911" lon="2.27531">
        <ele>104</ele>
        <time>2015-06-29T20:15:09.562Z</time>
      </trkpt>
      <trkpt lat="48.84917" lon="2.27538">
        <ele>104.2</ele>
        <time>2015-06-29T20:15:10.573Z</time>
      </trkpt>
      <trkpt lat="48.84922" lon="2.27545">
        <ele>104.6</ele>
        <time>2015-06-29T20:15:11.585Z</time>
      </trkpt>
      <trkpt lat="48.84927" lon="2.27552">
        <ele>104.9</ele>
        <time>2015-06-29T20:15:12.518Z</time>
      </trkpt>
      <trkpt lat="48.84933" lon="2.27559">
        <ele>105</ele>
        <time>2015-06-29T20:15:13.546Z</time>
      </trkpt>
      <trkpt lat="48.84938" lon="2.27565">
        <ele>105.2</ele>
        <time>2015-06-29T20:15:14.562Z</time>
      </trkpt>
      <trkpt lat="48.84942" lon="2.2757">
        <ele>105.5</ele>
        <time>2015-06-29T20:15:15.563Z</time>
      </trkpt>
      <trkpt lat="48.84947" lon="2.27575">
        <ele>105.9</ele>
        <time>2015-06-29T20:15:16.572Z</time>
      </trkpt>
      <trkpt lat="48.84952" lon="2.2758">
        <ele>106.5</ele>
        <time>2015-06-29T20:15:17.583Z</time>
      </trkpt>
      <trkpt lat="48.84957" lon="2.27586">
        <ele>106.7</ele>
        <time>2015-06-29T20:15:18.604Z</time>
      </trkpt>
      <trkpt lat="48.84961" lon="2.27591">
        <ele>107</ele>
        <time>2015-06-29T20:15:19.516Z</time>
      </trkpt>
      <trkpt lat="48.84965" lon="2.27594">
        <ele>107.3</ele>
        <time>2015-06-29T20:15:20.622Z</time>
      </trkpt>
      <trkpt lat="48.84971" lon="2.27596">
        <ele>106.9</ele>
        <time>2015-06-29T20:15:21.489Z</time>
      </trkpt>
      <trkpt lat="48.84978" lon="2.27598">
        <ele>107.1</ele>
        <time>2015-06-29T20:15:23.546Z</time>
      </trkpt>
      <trkpt lat="48.84982" lon="2.27601">
        <ele>107.5</ele>
        <time>2015-06-29T20:15:24.556Z</time>
      </trkpt>
      <trkpt lat="48.84986" lon="2.27605">
        <ele>107.6</ele>
        <time>2015-06-29T20:15:25.562Z</time>
      </trkpt>
      <trkpt lat="48.84991" lon="2.27609">
        <ele>107.8</ele>
        <time>2015-06-29T20:15:26.568Z</time>
      </trkpt>
      <trkpt lat="48.84995" lon="2.27614">
        <ele>107.9</ele>
        <time>2015-06-29T20:15:27.581Z</time>
      </trkpt>
      <trkpt lat="48.84999" lon="2.27618">
        <ele>107.6</ele>
        <time>2015-06-29T20:15:28.585Z</time>
      </trkpt>
      <trkpt lat="48.85002" lon="2.27624">
        <ele>107.5</ele>
        <time>2015-06-29T20:15:29.573Z</time>
      </trkpt>
      <trkpt lat="48.85007" lon="2.27627">
        <ele>106.5</ele>
        <time>2015-06-29T20:15:30.541Z</time>
      </trkpt>
      <trkpt lat="48.85013" lon="2.27634">
        <ele>106.4</ele>
        <time>2015-06-29T20:15:32.565Z</time>
      </trkpt>
      <trkpt lat="48.85016" lon="2.27642">
        <ele>106.8</ele>
        <time>2015-06-29T20:15:33.564Z</time>
      </trkpt>
      <trkpt lat="48.85019" lon="2.2765">
        <ele>107.1</ele>
        <time>2015-06-29T20:15:34.520Z</time>
      </trkpt>
      <trkpt lat="48.85023" lon="2.27656">
        <ele>107.4</ele>
        <time>2015-06-29T20:15:35.516Z</time>
      </trkpt>
      <trkpt lat="48.85027" lon="2.27663">
        <ele>107.9</ele>
        <time>2015-06-29T20:15:36.522Z</time>
      </trkpt>
      <trkpt lat="48.85031" lon="2.2767">
        <ele>108.1</ele>
        <time>2015-06-29T20:15:37.527Z</time>
      </trkpt>
      <trkpt lat="48.85037" lon="2.27678">
        <ele>108.3</ele>
        <time>2015-06-29T20:15:38.559Z</time>
      </trkpt>
      <trkpt lat="48.85042" lon="2.27686">
        <ele>108.2</ele>
        <time>2015-06-29T20:15:39.556Z</time>
      </trkpt>
      <trkpt lat="48.85046" lon="2.27694">
        <ele>108.4</ele>
        <time>2015-06-29T20:15:40.567Z</time>
      </trkpt>
      <trkpt lat="48.85053" lon="2.27704">
        <ele>108.2</ele>
        <time>2015-06-29T20:15:41.578Z</time>
      </trkpt>
      <trkpt lat="48.85058" lon="2.27712">
        <ele>108.4</ele>
        <time>2015-06-29T20:15:42.595Z</time>
      </trkpt>
      <trkpt lat="48.85063" lon="2.27721">
        <ele>108.1</ele>
        <time>2015-06-29T20:15:43.599Z</time>
      </trkpt>
      <trkpt lat="48.85066" lon="2.27728">
        <ele>108.7</ele>
        <time>2015-06-29T20:15:44.605Z</time>
      </trkpt>
      <trkpt lat="48.85069" lon="2.27736">
        <ele>108.9</ele>
        <time>2015-06-29T20:15:45.518Z</time>
      </trkpt>
      <trkpt lat="48.85073" lon="2.27742">
        <ele>109.3</ele>
        <time>2015-06-29T20:15:46.512Z</time>
      </trkpt>
      <trkpt lat="48.85077" lon="2.27749">
        <ele>109.2</ele>
        <time>2015-06-29T20:15:47.518Z</time>
      </trkpt>
      <trkpt lat="48.85083" lon="2.27757">
        <ele>108.8</ele>
        <time>2015-06-29T20:15:48.530Z</time>
      </trkpt>
      <trkpt lat="48.85088" lon="2.27765">
        <ele>108.4</ele>
        <time>2015-06-29T20:15:49.534Z</time>
      </trkpt>
      <trkpt lat="48.85092" lon="2.27772">
        <ele>108.1</ele>
        <time>2015-06-29T20:15:50.565Z</time>
      </trkpt>
      <trkpt lat="48.85096" lon="2.27778">
        <ele>108.3</ele>
        <time>2015-06-29T20:15:51.571Z</time>
      </trkpt>
      <trkpt lat="48.851" lon="2.27784">
        <ele>108.4</ele>
        <time>2015-06-29T20:15:52.585Z</time>
      </trkpt>
      <trkpt lat="48.85103" lon="2.2779">
        <ele>108.4</ele>
        <time>2015-06-29T20:15:53.598Z</time>
      </trkpt>
      <trkpt lat="48.85107" lon="2.27796">
        <ele>109</ele>
        <time>2015-06-29T20:15:54.515Z</time>
      </trkpt>
      <trkpt lat="48.8511" lon="2.27802">
        <ele>109.1</ele>
        <time>2015-06-29T20:15:55.512Z</time>
      </trkpt>
      <trkpt lat="48.85113" lon="2.27808">
        <ele>108.6</ele>
        <time>2015-06-29T20:15:56.561Z</time>
      </trkpt>
      <trkpt lat="48.85118" lon="2.27813">
        <ele>108</ele>
        <time>2015-06-29T20:15:57.571Z</time>
      </trkpt>
      <trkpt lat="48.85124" lon="2.27823">
        <ele>108.8</ele>
        <time>2015-06-29T20:15:59.582Z</time>
      </trkpt>
      <trkpt lat="48.85125" lon="2.27826">
        <ele>108.9</ele>
        <time>2015-06-29T20:16:00.602Z</time>
      </trkpt>
      <trkpt lat="48.8513" lon="2.27838">
        <ele>109.1</ele>
        <time>2015-06-29T20:16:03.531Z</time>
      </trkpt>
      <trkpt lat="48.85132" lon="2.27839">
        <ele>108.3</ele>
        <time>2015-06-29T20:16:04.543Z</time>
      </trkpt>
      <trkpt lat="48.85135" lon="2.27851">
        <ele>101.1</ele>
        <time>2015-06-29T20:16:17.589Z</time>
      </trkpt>
      <trkpt lat="48.85137" lon="2.27853">
        <ele>100.5</ele>
        <time>2015-06-29T20:16:18.498Z</time>
      </trkpt>
      <trkpt lat="48.85143" lon="2.2786">
        <ele>100.2</ele>
        <time>2015-06-29T20:16:21.539Z</time>
      </trkpt>
      <trkpt lat="48.85144" lon="2.27861">
        <ele>100</ele>
        <time>2015-06-29T20:16:22.587Z</time>
      </trkpt>
      <trkpt lat="48.85151" lon="2.27868">
        <ele>100.5</ele>
        <time>2015-06-29T20:16:27.560Z</time>
      </trkpt>
      <trkpt lat="48.85154" lon="2.27871">
        <ele>101.4</ele>
        <time>2015-06-29T20:16:28.564Z</time>
      </trkpt>
      <trkpt lat="48.85157" lon="2.27879">
        <ele>102</ele>
        <time>2015-06-29T20:16:30.577Z</time>
      </trkpt>
      <trkpt lat="48.85159" lon="2.27883">
        <ele>102.2</ele>
        <time>2015-06-29T20:16:31.585Z</time>
      </trkpt>
      <trkpt lat="48.85165" lon="2.27892">
        <ele>103</ele>
        <time>2015-06-29T20:16:33.509Z</time>
      </trkpt>
      <trkpt lat="48.85169" lon="2.27897">
        <ele>103.9</ele>
        <time>2015-06-29T20:16:34.529Z</time>
      </trkpt>
      <trkpt lat="48.85172" lon="2.27902">
        <ele>104.8</ele>
        <time>2015-06-29T20:16:35.574Z</time>
      </trkpt>
      <trkpt lat="48.85175" lon="2.27906">
        <ele>105.3</ele>
        <time>2015-06-29T20:16:36.583Z</time>
      </trkpt>
      <trkpt lat="48.85178" lon="2.27911">
        <ele>106.1</ele>
        <time>2015-06-29T20:16:37.586Z</time>
      </trkpt>
      <trkpt lat="48.85182" lon="2.27916">
        <ele>106.2</ele>
        <time>2015-06-29T20:16:38.595Z</time>
      </trkpt>
      <trkpt lat="48.85187" lon="2.27921">
        <ele>107.2</ele>
        <time>2015-06-29T20:16:39.513Z</time>
      </trkpt>
      <trkpt lat="48.85191" lon="2.27924">
        <ele>108.2</ele>
        <time>2015-06-29T20:16:40.519Z</time>
      </trkpt>
      <trkpt lat="48.85196" lon="2.27932">
        <ele>109.1</ele>
        <time>2015-06-29T20:16:42.534Z</time>
      </trkpt>
      <trkpt lat="48.85199" lon="2.27936">
        <ele>109.6</ele>
        <time>2015-06-29T20:16:43.553Z</time>
      </trkpt>
      <trkpt lat="48.85205" lon="2.27944">
        <ele>110.5</ele>
        <time>2015-06-29T20:16:46.598Z</time>
      </trkpt>
      <trkpt lat="48.85207" lon="2.27946">
        <ele>110.9</ele>
        <time>2015-06-29T20:16:47.610Z</time>
      </trkpt>
      <trkpt lat="48.85208" lon="2.27954">
        <ele>111.7</ele>
        <time>2015-06-29T20:16:49.548Z</time>
      </trkpt>
      <trkpt lat="48.8521" lon="2.27959">
        <ele>112</ele>
        <time>2015-06-29T20:16:50.688Z</time>
      </trkpt>
      <trkpt lat="48.85214" lon="2.27969">
        <ele>112.4</ele>
        <time>2015-06-29T20:16:52.563Z</time>
      </trkpt>
      <trkpt lat="48.85218" lon="2.27976">
        <ele>112.2</ele>
        <time>2015-06-29T20:16:53.706Z</time>
      </trkpt>
      <trkpt lat="48.85223" lon="2.27986">
        <ele>111.5</ele>
        <time>2015-06-29T20:16:55.577Z</time>
      </trkpt>
      <trkpt lat="48.85226" lon="2.27993">
        <ele>111.5</ele>
        <time>2015-06-29T20:16:56.667Z</time>
      </trkpt>
      <trkpt lat="48.85229" lon="2.28">
        <ele>111.8</ele>
        <time>2015-06-29T20:16:57.518Z</time>
      </trkpt>
      <trkpt lat="48.85233" lon="2.28007">
        <ele>111.8</ele>
        <time>2015-06-29T20:16:58.515Z</time>
      </trkpt>
      <trkpt lat="48.85238" lon="2.28013">
        <ele>111</ele>
        <time>2015-06-29T20:16:59.545Z</time>
      </trkpt>
      <trkpt lat="48.85242" lon="2.28019">
        <ele>110.2</ele>
        <time>2015-06-29T20:17:00.561Z</time>
      </trkpt>
      <trkpt lat="48.85247" lon="2.28026">
        <ele>109.4</ele>
        <time>2015-06-29T20:17:01.584Z</time>
      </trkpt>
      <trkpt lat="48.85252" lon="2.28033">
        <ele>108.4</ele>
        <time>2015-06-29T20:17:02.614Z</time>
      </trkpt>
      <trkpt lat="48.85256" lon="2.28039">
        <ele>107.5</ele>
        <time>2015-06-29T20:17:03.534Z</time>
      </trkpt>
      <trkpt lat="48.8526" lon="2.28047">
        <ele>106.8</ele>
        <time>2015-06-29T20:17:04.533Z</time>
      </trkpt>
      <trkpt lat="48.85265" lon="2.28055">
        <ele>106.1</ele>
        <time>2015-06-29T20:17:05.521Z</time>
      </trkpt>
      <trkpt lat="48.85269" lon="2.28062">
        <ele>105.4</ele>
        <time>2015-06-29T20:17:06.524Z</time>
      </trkpt>
      <trkpt lat="48.85274" lon="2.2807">
        <ele>105.3</ele>
        <time>2015-06-29T20:17:07.533Z</time>
      </trkpt>
      <trkpt lat="48.85279" lon="2.28078">
        <ele>105.1</ele>
        <time>2015-06-29T20:17:08.559Z</time>
      </trkpt>
      <trkpt lat="48.85285" lon="2.28084">
        <ele>105.5</ele>
        <time>2015-06-29T20:17:09.590Z</time>
      </trkpt>
      <trkpt lat="48.8529" lon="2.28091">
        <ele>105.3</ele>
        <time>2015-06-29T20:17:10.510Z</time>
      </trkpt>
      <trkpt lat="48.85293" lon="2.28098">
        <ele>104.7</ele>
        <time>2015-06-29T20:17:11.513Z</time>
      </trkpt>
      <trkpt lat="48.85298" lon="2.28105">
        <ele>104.8</ele>
        <time>2015-06-29T20:17:12.537Z</time>
      </trkpt>
      <trkpt lat="48.85301" lon="2.28112">
        <ele>104.8</ele>
        <time>2015-06-29T20:17:13.554Z</time>
      </trkpt>
      <trkpt lat="48.85303" lon="2.28118">
        <ele>104.7</ele>
        <time>2015-06-29T20:17:14.570Z</time>
      </trkpt>
      <trkpt lat="48.85306" lon="2.28124">
        <ele>105.3</ele>
        <time>2015-06-29T20:17:15.587Z</time>
      </trkpt>
      <trkpt lat="48.85312" lon="2.28133">
        <ele>105.2</ele>
        <time>2015-06-29T20:17:16.599Z</time>
      </trkpt>
      <trkpt lat="48.85317" lon="2.28141">
        <ele>105.1</ele>
        <time>2015-06-29T20:17:17.549Z</time>
      </trkpt>
      <trkpt lat="48.85323" lon="2.28149">
        <ele>105.4</ele>
        <time>2015-06-29T20:17:18.539Z</time>
      </trkpt>
      <trkpt lat="48.85327" lon="2.28157">
        <ele>105.7</ele>
        <time>2015-06-29T20:17:19.545Z</time>
      </trkpt>
      <trkpt lat="48.85332" lon="2.28164">
        <ele>106.4</ele>
        <time>2015-06-29T20:17:20.562Z</time>
      </trkpt>
      <trkpt lat="48.85337" lon="2.28173">
        <ele>106.9</ele>
        <time>2015-06-29T20:17:21.557Z</time>
      </trkpt>
      <trkpt lat="48.85341" lon="2.28179">
        <ele>107.2</ele>
        <time>2015-06-29T20:17:22.560Z</time>
      </trkpt>
      <trkpt lat="48.85345" lon="2.28185">
        <ele>107.1</ele>
        <time>2015-06-29T20:17:23.571Z</time>
      </trkpt>
      <trkpt lat="48.85348" lon="2.28192">
        <ele>107.2</ele>
        <time>2015-06-29T20:17:24.575Z</time>
      </trkpt>
      <trkpt lat="48.85352" lon="2.28198">
        <ele>106.7</ele>
        <time>2015-06-29T20:17:25.510Z</time>
      </trkpt>
      <trkpt lat="48.85357" lon="2.28206">
        <ele>106.3</ele>
        <time>2015-06-29T20:17:26.560Z</time>
      </trkpt>
      <trkpt lat="48.85362" lon="2.28214">
        <ele>106.3</ele>
        <time>2015-06-29T20:17:27.571Z</time>
      </trkpt>
      <trkpt lat="48.85367" lon="2.2822">
        <ele>106.7</ele>
        <time>2015-06-29T20:17:28.585Z</time>
      </trkpt>
      <trkpt lat="48.8537" lon="2.28225">
        <ele>106.8</ele>
        <time>2015-06-29T20:17:29.602Z</time>
      </trkpt>
      <trkpt lat="48.85374" lon="2.2823">
        <ele>106.7</ele>
        <time>2015-06-29T20:17:30.512Z</time>
      </trkpt>
      <trkpt lat="48.85378" lon="2.28236">
        <ele>106.6</ele>
        <time>2015-06-29T20:17:31.535Z</time>
      </trkpt>
      <trkpt lat="48.85382" lon="2.28242">
        <ele>106.4</ele>
        <time>2015-06-29T20:17:32.561Z</time>
      </trkpt>
      <trkpt lat="48.85385" lon="2.28248">
        <ele>106</ele>
        <time>2015-06-29T20:17:33.567Z</time>
      </trkpt>
      <trkpt lat="48.85388" lon="2.28254">
        <ele>105.8</ele>
        <time>2015-06-29T20:17:34.569Z</time>
      </trkpt>
      <trkpt lat="48.85391" lon="2.2826">
        <ele>105.5</ele>
        <time>2015-06-29T20:17:35.576Z</time>
      </trkpt>
      <trkpt lat="48.85394" lon="2.28266">
        <ele>105.5</ele>
        <time>2015-06-29T20:17:36.585Z</time>
      </trkpt>
      <trkpt lat="48.85397" lon="2.28271">
        <ele>104.7</ele>
        <time>2015-06-29T20:17:37.506Z</time>
      </trkpt>
      <trkpt lat="48.854" lon="2.28276">
        <ele>103.9</ele>
        <time>2015-06-29T20:17:38.604Z</time>
      </trkpt>
      <trkpt lat="48.85403" lon="2.28282">
        <ele>103.7</ele>
        <time>2015-06-29T20:17:39.485Z</time>
      </trkpt>
      <trkpt lat="48.85406" lon="2.28288">
        <ele>103.8</ele>
        <time>2015-06-29T20:17:40.490Z</time>
      </trkpt>
      <trkpt lat="48.85409" lon="2.28298">
        <ele>103.3</ele>
        <time>2015-06-29T20:17:42.540Z</time>
      </trkpt>
      <trkpt lat="48.85411" lon="2.28302">
        <ele>103.5</ele>
        <time>2015-06-29T20:17:43.543Z</time>
      </trkpt>
      <trkpt lat="48.85416" lon="2.28308">
        <ele>103.6</ele>
        <time>2015-06-29T20:17:45.545Z</time>
      </trkpt>
      <trkpt lat="48.85418" lon="2.28311">
        <ele>103.4</ele>
        <time>2015-06-29T20:17:46.555Z</time>
      </trkpt>
      <trkpt lat="48.85425" lon="2.28317">
        <ele>103</ele>
        <time>2015-06-29T20:17:48.514Z</time>
      </trkpt>
      <trkpt lat="48.8543" lon="2.28322">
        <ele>102.4</ele>
        <time>2015-06-29T20:17:49.516Z</time>
      </trkpt>
      <trkpt lat="48.85435" lon="2.28328">
        <ele>102.3</ele>
        <time>2015-06-29T20:17:50.573Z</time>
      </trkpt>
      <trkpt lat="48.85441" lon="2.28336">
        <ele>101.8</ele>
        <time>2015-06-29T20:17:51.522Z</time>
      </trkpt>
      <trkpt lat="48.85445" lon="2.28342">
        <ele>101.6</ele>
        <time>2015-06-29T20:17:52.532Z</time>
      </trkpt>
      <trkpt lat="48.8545" lon="2.2835">
        <ele>101.1</ele>
        <time>2015-06-29T20:17:53.542Z</time>
      </trkpt>
      <trkpt lat="48.85456" lon="2.28358">
        <ele>100.3</ele>
        <time>2015-06-29T20:17:54.558Z</time>
      </trkpt>
      <trkpt lat="48.85461" lon="2.28365">
        <ele>100</ele>
        <time>2015-06-29T20:17:55.573Z</time>
      </trkpt>
      <trkpt lat="48.85465" lon="2.28371">
        <ele>100.2</ele>
        <time>2015-06-29T20:17:56.578Z</time>
      </trkpt>
      <trkpt lat="48.8547" lon="2.28376">
        <ele>100.4</ele>
        <time>2015-06-29T20:17:57.579Z</time>
      </trkpt>
      <trkpt lat="48.85474" lon="2.28382">
        <ele>100.3</ele>
        <time>2015-06-29T20:17:58.591Z</time>
      </trkpt>
      <trkpt lat="48.85478" lon="2.28388">
        <ele>100.5</ele>
        <time>2015-06-29T20:17:59.537Z</time>
      </trkpt>
      <trkpt lat="48.85483" lon="2.28393">
        <ele>100.5</ele>
        <time>2015-06-29T20:18:00.538Z</time>
      </trkpt>
      <trkpt lat="48.85488" lon="2.28398">
        <ele>100.4</ele>
        <time>2015-06-29T20:18:01.539Z</time>
      </trkpt>
      <trkpt lat="48.85492" lon="2.28403">
        <ele>100.4</ele>
        <time>2015-06-29T20:18:02.554Z</time>
      </trkpt>
      <trkpt lat="48.85496" lon="2.28409">
        <ele>100.4</ele>
        <time>2015-06-29T20:18:03.556Z</time>
      </trkpt>
      <trkpt lat="48.855" lon="2.28414">
        <ele>100.5</ele>
        <time>2015-06-29T20:18:04.577Z</time>
      </trkpt>
      <trkpt lat="48.85504" lon="2.28419">
        <ele>100.9</ele>
        <time>2015-06-29T20:18:05.587Z</time>
      </trkpt>
      <trkpt lat="48.85509" lon="2.28425">
        <ele>100.9</ele>
        <time>2015-06-29T20:18:06.787Z</time>
      </trkpt>
      <trkpt lat="48.85513" lon="2.2843">
        <ele>100.9</ele>
        <time>2015-06-29T20:18:07.514Z</time>
      </trkpt>
      <trkpt lat="48.85517" lon="2.28434">
        <ele>100</ele>
        <time>2015-06-29T20:18:08.556Z</time>
      </trkpt>
      <trkpt lat="48.85521" lon="2.28438">
        <ele>99.2</ele>
        <time>2015-06-29T20:18:09.549Z</time>
      </trkpt>
      <trkpt lat="48.85524" lon="2.28443">
        <ele>99.4</ele>
        <time>2015-06-29T20:18:10.567Z</time>
      </trkpt>
      <trkpt lat="48.85528" lon="2.28448">
        <ele>99.5</ele>
        <time>2015-06-29T20:18:11.574Z</time>
      </trkpt>
      <trkpt lat="48.85533" lon="2.28454">
        <ele>99.8</ele>
        <time>2015-06-29T20:18:12.479Z</time>
      </trkpt>
      <trkpt lat="48.85539" lon="2.28462">
        <ele>100.1</ele>
        <time>2015-06-29T20:18:13.593Z</time>
      </trkpt>
      <trkpt lat="48.85544" lon="2.28469">
        <ele>100.3</ele>
        <time>2015-06-29T20:18:14.602Z</time>
      </trkpt>
      <trkpt lat="48.85549" lon="2.28475">
        <ele>100.4</ele>
        <time>2015-06-29T20:18:15.503Z</time>
      </trkpt>
      <trkpt lat="48.85553" lon="2.2848">
        <ele>99.6</ele>
        <time>2015-06-29T20:18:16.512Z</time>
      </trkpt>
      <trkpt lat="48.85557" lon="2.28485">
        <ele>99.5</ele>
        <time>2015-06-29T20:18:17.524Z</time>
      </trkpt>
      <trkpt lat="48.85563" lon="2.28493">
        <ele>99.8</ele>
        <time>2015-06-29T20:18:19.543Z</time>
      </trkpt>
      <trkpt lat="48.85566" lon="2.28497">
        <ele>99.7</ele>
        <time>2015-06-29T20:18:20.557Z</time>
      </trkpt>
      <trkpt lat="48.85571" lon="2.28503">
        <ele>99.4</ele>
        <time>2015-06-29T20:18:21.573Z</time>
      </trkpt>
      <trkpt lat="48.85576" lon="2.2851">
        <ele>99.1</ele>
        <time>2015-06-29T20:18:22.576Z</time>
      </trkpt>
      <trkpt lat="48.85581" lon="2.28516">
        <ele>98.7</ele>
        <time>2015-06-29T20:18:23.517Z</time>
      </trkpt>
      <trkpt lat="48.85586" lon="2.28521">
        <ele>98.3</ele>
        <time>2015-06-29T20:18:24.535Z</time>
      </trkpt>
      <trkpt lat="48.85591" lon="2.28527">
        <ele>97.9</ele>
        <time>2015-06-29T20:18:25.533Z</time>
      </trkpt>
      <trkpt lat="48.85596" lon="2.28532">
        <ele>97.9</ele>
        <time>2015-06-29T20:18:26.556Z</time>
      </trkpt>
      <trkpt lat="48.856" lon="2.28537">
        <ele>98</ele>
        <time>2015-06-29T20:18:27.550Z</time>
      </trkpt>
      <trkpt lat="48.85604" lon="2.28543">
        <ele>97.9</ele>
        <time>2015-06-29T20:18:28.562Z</time>
      </trkpt>
      <trkpt lat="48.85609" lon="2.28548">
        <ele>98.3</ele>
        <time>2015-06-29T20:18:29.592Z</time>
      </trkpt>
      <trkpt lat="48.85613" lon="2.28553">
        <ele>98.4</ele>
        <time>2015-06-29T20:18:30.509Z</time>
      </trkpt>
      <trkpt lat="48.85617" lon="2.2856">
        <ele>98.4</ele>
        <time>2015-06-29T20:18:31.507Z</time>
      </trkpt>
      <trkpt lat="48.85621" lon="2.28566">
        <ele>98.6</ele>
        <time>2015-06-29T20:18:32.541Z</time>
      </trkpt>
      <trkpt lat="48.85626" lon="2.2857">
        <ele>98</ele>
        <time>2015-06-29T20:18:33.559Z</time>
      </trkpt>
      <trkpt lat="48.85631" lon="2.28575">
        <ele>97.7</ele>
        <time>2015-06-29T20:18:34.572Z</time>
      </trkpt>
      <trkpt lat="48.85635" lon="2.2858">
        <ele>97.7</ele>
        <time>2015-06-29T20:18:35.587Z</time>
      </trkpt>
      <trkpt lat="48.85638" lon="2.28584">
        <ele>97.7</ele>
        <time>2015-06-29T20:18:36.595Z</time>
      </trkpt>
      <trkpt lat="48.85642" lon="2.28589">
        <ele>97.7</ele>
        <time>2015-06-29T20:18:37.517Z</time>
      </trkpt>
      <trkpt lat="48.85646" lon="2.28595">
        <ele>97.6</ele>
        <time>2015-06-29T20:18:38.552Z</time>
      </trkpt>
      <trkpt lat="48.85651" lon="2.286">
        <ele>97.7</ele>
        <time>2015-06-29T20:18:39.547Z</time>
      </trkpt>
      <trkpt lat="48.85655" lon="2.28605">
        <ele>97.7</ele>
        <time>2015-06-29T20:18:40.561Z</time>
      </trkpt>
      <trkpt lat="48.85658" lon="2.2861">
        <ele>97.7</ele>
        <time>2015-06-29T20:18:41.582Z</time>
      </trkpt>
      <trkpt lat="48.85663" lon="2.28613">
        <ele>97.1</ele>
        <time>2015-06-29T20:18:42.510Z</time>
      </trkpt>
      <trkpt lat="48.85667" lon="2.28623">
        <ele>96.8</ele>
        <time>2015-06-29T20:18:44.579Z</time>
      </trkpt>
      <trkpt lat="48.8567" lon="2.28628">
        <ele>96.9</ele>
        <time>2015-06-29T20:18:45.533Z</time>
      </trkpt>
      <trkpt lat="48.85674" lon="2.28636">
        <ele>96.9</ele>
        <time>2015-06-29T20:18:47.509Z</time>
      </trkpt>
      <trkpt lat="48.85677" lon="2.2864">
        <ele>96.7</ele>
        <time>2015-06-29T20:18:48.538Z</time>
      </trkpt>
      <trkpt lat="48.85682" lon="2.28644">
        <ele>96.7</ele>
        <time>2015-06-29T20:18:49.540Z</time>
      </trkpt>
      <trkpt lat="48.85687" lon="2.2865">
        <ele>96.3</ele>
        <time>2015-06-29T20:18:50.585Z</time>
      </trkpt>
      <trkpt lat="48.85691" lon="2.28655">
        <ele>96.6</ele>
        <time>2015-06-29T20:18:51.509Z</time>
      </trkpt>
      <trkpt lat="48.85696" lon="2.28663">
        <ele>96.8</ele>
        <time>2015-06-29T20:18:52.520Z</time>
      </trkpt>
      <trkpt lat="48.857" lon="2.2867">
        <ele>96.9</ele>
        <time>2015-06-29T20:18:53.533Z</time>
      </trkpt>
      <trkpt lat="48.85705" lon="2.28676">
        <ele>97</ele>
        <time>2015-06-29T20:18:54.549Z</time>
      </trkpt>
      <trkpt lat="48.85711" lon="2.28682">
        <ele>97</ele>
        <time>2015-06-29T20:18:55.553Z</time>
      </trkpt>
      <trkpt lat="48.85715" lon="2.28687">
        <ele>97</ele>
        <time>2015-06-29T20:18:56.563Z</time>
      </trkpt>
      <trkpt lat="48.8572" lon="2.28693">
        <ele>97</ele>
        <time>2015-06-29T20:18:57.576Z</time>
      </trkpt>
      <trkpt lat="48.85724" lon="2.28697">
        <ele>97.2</ele>
        <time>2015-06-29T20:18:58.587Z</time>
      </trkpt>
      <trkpt lat="48.85729" lon="2.28703">
        <ele>97.4</ele>
        <time>2015-06-29T20:18:59.509Z</time>
      </trkpt>
      <trkpt lat="48.85733" lon="2.28709">
        <ele>97.5</ele>
        <time>2015-06-29T20:19:00.518Z</time>
      </trkpt>
      <trkpt lat="48.85738" lon="2.28714">
        <ele>97.5</ele>
        <time>2015-06-29T20:19:01.534Z</time>
      </trkpt>
      <trkpt lat="48.85742" lon="2.2872">
        <ele>97.6</ele>
        <time>2015-06-29T20:19:02.637Z</time>
      </trkpt>
      <trkpt lat="48.85746" lon="2.28726">
        <ele>97.8</ele>
        <time>2015-06-29T20:19:03.503Z</time>
      </trkpt>
      <trkpt lat="48.85751" lon="2.28732">
        <ele>97.7</ele>
        <time>2015-06-29T20:19:04.499Z</time>
      </trkpt>
      <trkpt lat="48.85755" lon="2.28738">
        <ele>97.6</ele>
        <time>2015-06-29T20:19:05.519Z</time>
      </trkpt>
      <trkpt lat="48.8576" lon="2.28745">
        <ele>97.9</ele>
        <time>2015-06-29T20:19:06.570Z</time>
      </trkpt>
      <trkpt lat="48.85764" lon="2.28751">
        <ele>97.8</ele>
        <time>2015-06-29T20:19:07.618Z</time>
      </trkpt>
      <trkpt lat="48.85769" lon="2.28757">
        <ele>97.7</ele>
        <time>2015-06-29T20:19:08.600Z</time>
      </trkpt>
      <trkpt lat="48.85773" lon="2.28764">
        <ele>98</ele>
        <time>2015-06-29T20:19:09.499Z</time>
      </trkpt>
      <trkpt lat="48.85778" lon="2.2877">
        <ele>98.2</ele>
        <time>2015-06-29T20:19:10.504Z</time>
      </trkpt>
      <trkpt lat="48.85782" lon="2.28777">
        <ele>98.5</ele>
        <time>2015-06-29T20:19:11.537Z</time>
      </trkpt>
      <trkpt lat="48.85788" lon="2.28783">
        <ele>98.9</ele>
        <time>2015-06-29T20:19:12.570Z</time>
      </trkpt>
      <trkpt lat="48.85791" lon="2.28789">
        <ele>98.4</ele>
        <time>2015-06-29T20:19:13.581Z</time>
      </trkpt>
      <trkpt lat="48.85794" lon="2.28795">
        <ele>98</ele>
        <time>2015-06-29T20:19:14.586Z</time>
      </trkpt>
      <trkpt lat="48.85798" lon="2.288">
        <ele>97.4</ele>
        <time>2015-06-29T20:19:15.533Z</time>
      </trkpt>
      <trkpt lat="48.85802" lon="2.28806">
        <ele>96.9</ele>
        <time>2015-06-29T20:19:16.554Z</time>
      </trkpt>
      <trkpt lat="48.85805" lon="2.28812">
        <ele>96.3</ele>
        <time>2015-06-29T20:19:17.587Z</time>
      </trkpt>
      <trkpt lat="48.85809" lon="2.28818">
        <ele>96.4</ele>
        <time>2015-06-29T20:19:18.514Z</time>
      </trkpt>
      <trkpt lat="48.85815" lon="2.28827">
        <ele>96.8</ele>
        <time>2015-06-29T20:19:20.652Z</time>
      </trkpt>
      <trkpt lat="48.85817" lon="2.28832">
        <ele>97.1</ele>
        <time>2015-06-29T20:19:21.508Z</time>
      </trkpt>
      <trkpt lat="48.85821" lon="2.28841">
        <ele>97</ele>
        <time>2015-06-29T20:19:23.554Z</time>
      </trkpt>
      <trkpt lat="48.85823" lon="2.28846">
        <ele>97.1</ele>
        <time>2015-06-29T20:19:24.562Z</time>
      </trkpt>
      <trkpt lat="48.85828" lon="2.28855">
        <ele>97.5</ele>
        <time>2015-06-29T20:19:26.577Z</time>
      </trkpt>
      <trkpt lat="48.85831" lon="2.28859">
        <ele>97.6</ele>
        <time>2015-06-29T20:19:27.537Z</time>
      </trkpt>
      <trkpt lat="48.85835" lon="2.28864">
        <ele>98.3</ele>
        <time>2015-06-29T20:19:28.513Z</time>
      </trkpt>
      <trkpt lat="48.8584" lon="2.28868">
        <ele>99.4</ele>
        <time>2015-06-29T20:19:29.525Z</time>
      </trkpt>
      <trkpt lat="48.85845" lon="2.28872">
        <ele>100.2</ele>
        <time>2015-06-29T20:19:30.533Z</time>
      </trkpt>
      <trkpt lat="48.85851" lon="2.28878">
        <ele>100.9</ele>
        <time>2015-06-29T20:19:31.539Z</time>
      </trkpt>
      <trkpt lat="48.85854" lon="2.28881">
        <ele>101.3</ele>
        <time>2015-06-29T20:19:32.588Z</time>
      </trkpt>
      <trkpt lat="48.85858" lon="2.28885">
        <ele>101.9</ele>
        <time>2015-06-29T20:19:33.586Z</time>
      </trkpt>
      <trkpt lat="48.85862" lon="2.2889">
        <ele>101.9</ele>
        <time>2015-06-29T20:19:34.508Z</time>
      </trkpt>
      <trkpt lat="48.85866" lon="2.28895">
        <ele>102</ele>
        <time>2015-06-29T20:19:35.503Z</time>
      </trkpt>
      <trkpt lat="48.8587" lon="2.28899">
        <ele>102.2</ele>
        <time>2015-06-29T20:19:36.531Z</time>
      </trkpt>
      <trkpt lat="48.85874" lon="2.28902">
        <ele>101.1</ele>
        <time>2015-06-29T20:19:37.537Z</time>
      </trkpt>
      <trkpt lat="48.85879" lon="2.28906">
        <ele>100.7</ele>
        <time>2015-06-29T20:19:38.556Z</time>
      </trkpt>
      <trkpt lat="48.85883" lon="2.28912">
        <ele>100.6</ele>
        <time>2015-06-29T20:19:39.556Z</time>
      </trkpt>
      <trkpt lat="48.85887" lon="2.28918">
        <ele>100.4</ele>
        <time>2015-06-29T20:19:40.565Z</time>
      </trkpt>
      <trkpt lat="48.85892" lon="2.28924">
        <ele>100</ele>
        <time>2015-06-29T20:19:41.568Z</time>
      </trkpt>
      <trkpt lat="48.85898" lon="2.28932">
        <ele>99.5</ele>
        <time>2015-06-29T20:19:42.584Z</time>
      </trkpt>
      <trkpt lat="48.85904" lon="2.28939">
        <ele>99.3</ele>
        <time>2015-06-29T20:19:43.513Z</time>
      </trkpt>
      <trkpt lat="48.85909" lon="2.28946">
        <ele>99.3</ele>
        <time>2015-06-29T20:19:44.554Z</time>
      </trkpt>
      <trkpt lat="48.85912" lon="2.28951">
        <ele>99.4</ele>
        <time>2015-06-29T20:19:45.565Z</time>
      </trkpt>
      <trkpt lat="48.85915" lon="2.28956">
        <ele>99.3</ele>
        <time>2015-06-29T20:19:46.571Z</time>
      </trkpt>
      <trkpt lat="48.8592" lon="2.28961">
        <ele>99.5</ele>
        <time>2015-06-29T20:19:47.579Z</time>
      </trkpt>
      <trkpt lat="48.85924" lon="2.28965">
        <ele>99.4</ele>
        <time>2015-06-29T20:19:48.509Z</time>
      </trkpt>
      <trkpt lat="48.85928" lon="2.2897">
        <ele>99.4</ele>
        <time>2015-06-29T20:19:49.508Z</time>
      </trkpt>
      <trkpt lat="48.85931" lon="2.28975">
        <ele>99.2</ele>
        <time>2015-06-29T20:19:50.554Z</time>
      </trkpt>
      <trkpt lat="48.85934" lon="2.28981">
        <ele>98.9</ele>
        <time>2015-06-29T20:19:51.546Z</time>
      </trkpt>
      <trkpt lat="48.8594" lon="2.28989">
        <ele>98.2</ele>
        <time>2015-06-29T20:19:53.578Z</time>
      </trkpt>
      <trkpt lat="48.85941" lon="2.28992">
        <ele>97.9</ele>
        <time>2015-06-29T20:19:54.633Z</time>
      </trkpt>
      <trkpt lat="48.85947" lon="2.29001">
        <ele>97.4</ele>
        <time>2015-06-29T20:19:57.535Z</time>
      </trkpt>
      <trkpt lat="48.85949" lon="2.29006">
        <ele>97.1</ele>
        <time>2015-06-29T20:19:58.532Z</time>
      </trkpt>
      <trkpt lat="48.85953" lon="2.29014">
        <ele>96.2</ele>
        <time>2015-06-29T20:20:01.630Z</time>
      </trkpt>
      <trkpt lat="48.85954" lon="2.29018">
        <ele>95.9</ele>
        <time>2015-06-29T20:20:02.586Z</time>
      </trkpt>
      <trkpt lat="48.85958" lon="2.29025">
        <ele>95.7</ele>
        <time>2015-06-29T20:20:04.522Z</time>
      </trkpt>
      <trkpt lat="48.8596" lon="2.29029">
        <ele>95.6</ele>
        <time>2015-06-29T20:20:05.532Z</time>
      </trkpt>
      <trkpt lat="48.85963" lon="2.29036">
        <ele>95.3</ele>
        <time>2015-06-29T20:20:07.563Z</time>
      </trkpt>
      <trkpt lat="48.85966" lon="2.2904">
        <ele>95</ele>
        <time>2015-06-29T20:20:08.579Z</time>
      </trkpt>
      <trkpt lat="48.8597" lon="2.29047">
        <ele>94.1</ele>
        <time>2015-06-29T20:20:10.522Z</time>
      </trkpt>
      <trkpt lat="48.85972" lon="2.29049">
        <ele>93.6</ele>
        <time>2015-06-29T20:20:11.534Z</time>
      </trkpt>
      <trkpt lat="48.8598" lon="2.29057">
        <ele>93.5</ele>
        <time>2015-06-29T20:20:14.616Z</time>
      </trkpt>
      <trkpt lat="48.85982" lon="2.2906">
        <ele>93.9</ele>
        <time>2015-06-29T20:20:15.531Z</time>
      </trkpt>
      <trkpt lat="48.85988" lon="2.29069">
        <ele>94.1</ele>
        <time>2015-06-29T20:20:18.565Z</time>
      </trkpt>
      <trkpt lat="48.85989" lon="2.2907">
        <ele>94.4</ele>
        <time>2015-06-29T20:20:19.538Z</time>
      </trkpt>
      <trkpt lat="48.85995" lon="2.29074">
        <ele>94.4</ele>
        <time>2015-06-29T20:20:22.491Z</time>
      </trkpt>
      <trkpt lat="48.85998" lon="2.29076">
        <ele>94</ele>
        <time>2015-06-29T20:20:23.519Z</time>
      </trkpt>
      <trkpt lat="48.86004" lon="2.29084">
        <ele>92.9</ele>
        <time>2015-06-29T20:20:26.578Z</time>
      </trkpt>
      <trkpt lat="48.86006" lon="2.29088">
        <ele>92.1</ele>
        <time>2015-06-29T20:20:27.601Z</time>
      </trkpt>
      <trkpt lat="48.86012" lon="2.29096">
        <ele>90.7</ele>
        <time>2015-06-29T20:20:31.561Z</time>
      </trkpt>
      <trkpt lat="48.86014" lon="2.29097">
        <ele>90.2</ele>
        <time>2015-06-29T20:20:32.602Z</time>
      </trkpt>
      <trkpt lat="48.86019" lon="2.29103">
        <ele>89.6</ele>
        <time>2015-06-29T20:20:37.599Z</time>
      </trkpt>
      <trkpt lat="48.86021" lon="2.29106">
        <ele>89.1</ele>
        <time>2015-06-29T20:20:38.642Z</time>
      </trkpt>
      <trkpt lat="48.86023" lon="2.29118">
        <ele>87.5</ele>
        <time>2015-06-29T20:20:43.507Z</time>
      </trkpt>
      <trkpt lat="48.86024" lon="2.2912">
        <ele>87.4</ele>
        <time>2015-06-29T20:20:44.606Z</time>
      </trkpt>
      <trkpt lat="48.86031" lon="2.29128">
        <ele>82.6</ele>
        <time>2015-06-29T20:21:20.593Z</time>
      </trkpt>
      <trkpt lat="48.86033" lon="2.2913">
        <ele>82.8</ele>
        <time>2015-06-29T20:21:21.517Z</time>
      </trkpt>
      <trkpt lat="48.86041" lon="2.29135">
        <ele>84</ele>
        <time>2015-06-29T20:21:25.576Z</time>
      </trkpt>
      <trkpt lat="48.86042" lon="2.29136">
        <ele>83.8</ele>
        <time>2015-06-29T20:21:26.683Z</time>
      </trkpt>
      <trkpt lat="48.86048" lon="2.29144">
        <ele>83.3</ele>
        <time>2015-06-29T20:21:30.550Z</time>
      </trkpt>
      <trkpt lat="48.8605" lon="2.29148">
        <ele>83.3</ele>
        <time>2015-06-29T20:21:31.567Z</time>
      </trkpt>
      <trkpt lat="48.86055" lon="2.29154">
        <ele>82.5</ele>
        <time>2015-06-29T20:21:34.568Z</time>
      </trkpt>
      <trkpt lat="48.86058" lon="2.29156">
        <ele>82.9</ele>
        <time>2015-06-29T20:21:35.582Z</time>
      </trkpt>
      <trkpt lat="48.86061" lon="2.29161">
        <ele>82.7</ele>
        <time>2015-06-29T20:21:44.593Z</time>
      </trkpt>
      <trkpt lat="48.86068" lon="2.2917">
        <ele>83.8</ele>
        <time>2015-06-29T20:21:45.573Z</time>
      </trkpt>
      <trkpt lat="48.86073" lon="2.29176">
        <ele>84.2</ele>
        <time>2015-06-29T20:21:47.518Z</time>
      </trkpt>
      <trkpt lat="48.86076" lon="2.29179">
        <ele>84.5</ele>
        <time>2015-06-29T20:21:48.530Z</time>
      </trkpt>
      <trkpt lat="48.86081" lon="2.29186">
        <ele>84.6</ele>
        <time>2015-06-29T20:21:50.574Z</time>
      </trkpt>
      <trkpt lat="48.86085" lon="2.2919">
        <ele>84.5</ele>
        <time>2015-06-29T20:21:51.485Z</time>
      </trkpt>
      <trkpt lat="48.86091" lon="2.29198">
        <ele>84.8</ele>
        <time>2015-06-29T20:21:53.513Z</time>
      </trkpt>
      <trkpt lat="48.86093" lon="2.29201">
        <ele>84.8</ele>
        <time>2015-06-29T20:21:54.542Z</time>
      </trkpt>
      <trkpt lat="48.86098" lon="2.29207">
        <ele>84.7</ele>
        <time>2015-06-29T20:21:56.598Z</time>
      </trkpt>
      <trkpt lat="48.861" lon="2.2921">
        <ele>84.7</ele>
        <time>2015-06-29T20:21:57.532Z</time>
      </trkpt>
      <trkpt lat="48.86107" lon="2.29218">
        <ele>84.4</ele>
        <time>2015-06-29T20:22:00.545Z</time>
      </trkpt>
      <trkpt lat="48.8611" lon="2.29222">
        <ele>84.6</ele>
        <time>2015-06-29T20:22:01.562Z</time>
      </trkpt>
      <trkpt lat="48.86116" lon="2.29231">
        <ele>84.5</ele>
        <time>2015-06-29T20:22:03.535Z</time>
      </trkpt>
      <trkpt lat="48.8612" lon="2.29236">
        <ele>84.4</ele>
        <time>2015-06-29T20:22:04.522Z</time>
      </trkpt>
      <trkpt lat="48.86126" lon="2.29244">
        <ele>84.2</ele>
        <time>2015-06-29T20:22:06.551Z</time>
      </trkpt>
      <trkpt lat="48.86129" lon="2.29247">
        <ele>84.1</ele>
        <time>2015-06-29T20:22:07.563Z</time>
      </trkpt>
      <trkpt lat="48.86135" lon="2.29256">
        <ele>84.3</ele>
        <time>2015-06-29T20:22:09.576Z</time>
      </trkpt>
      <trkpt lat="48.86139" lon="2.29261">
        <ele>84.4</ele>
        <time>2015-06-29T20:22:10.587Z</time>
      </trkpt>
      <trkpt lat="48.86146" lon="2.29269">
        <ele>84.7</ele>
        <time>2015-06-29T20:22:12.479Z</time>
      </trkpt>
      <trkpt lat="48.86149" lon="2.29272">
        <ele>85</ele>
        <time>2015-06-29T20:22:13.513Z</time>
      </trkpt>
      <trkpt lat="48.86155" lon="2.2928">
        <ele>85.3</ele>
        <time>2015-06-29T20:22:15.507Z</time>
      </trkpt>
      <trkpt lat="48.8616" lon="2.29284">
        <ele>85.2</ele>
        <time>2015-06-29T20:22:16.512Z</time>
      </trkpt>
      <trkpt lat="48.86166" lon="2.29292">
        <ele>85.1</ele>
        <time>2015-06-29T20:22:18.573Z</time>
      </trkpt>
      <trkpt lat="48.86171" lon="2.29297">
        <ele>85.3</ele>
        <time>2015-06-29T20:22:19.607Z</time>
      </trkpt>
      <trkpt lat="48.86176" lon="2.29303">
        <ele>85.2</ele>
        <time>2015-06-29T20:22:20.593Z</time>
      </trkpt>
      <trkpt lat="48.86181" lon="2.29309">
        <ele>84.9</ele>
        <time>2015-06-29T20:22:21.504Z</time>
      </trkpt>
      <trkpt lat="48.86184" lon="2.29313">
        <ele>84.2</ele>
        <time>2015-06-29T20:22:22.510Z</time>
      </trkpt>
      <trkpt lat="48.86188" lon="2.29317">
        <ele>83.9</ele>
        <time>2015-06-29T20:22:23.512Z</time>
      </trkpt>
      <trkpt lat="48.8619" lon="2.29322">
        <ele>84.6</ele>
        <time>2015-06-29T20:22:24.531Z</time>
      </trkpt>
      <trkpt lat="48.86194" lon="2.29327">
        <ele>84.5</ele>
        <time>2015-06-29T20:22:25.535Z</time>
      </trkpt>
      <trkpt lat="48.862" lon="2.29332">
        <ele>84.2</ele>
        <time>2015-06-29T20:22:26.575Z</time>
      </trkpt>
      <trkpt lat="48.86204" lon="2.29337">
        <ele>84.3</ele>
        <time>2015-06-29T20:22:27.575Z</time>
      </trkpt>
      <trkpt lat="48.86208" lon="2.29343">
        <ele>84.2</ele>
        <time>2015-06-29T20:22:28.581Z</time>
      </trkpt>
      <trkpt lat="48.86212" lon="2.29347">
        <ele>84.1</ele>
        <time>2015-06-29T20:22:29.504Z</time>
      </trkpt>
      <trkpt lat="48.86215" lon="2.29352">
        <ele>84.3</ele>
        <time>2015-06-29T20:22:30.508Z</time>
      </trkpt>
      <trkpt lat="48.8622" lon="2.29356">
        <ele>84.5</ele>
        <time>2015-06-29T20:22:31.514Z</time>
      </trkpt>
      <trkpt lat="48.86224" lon="2.29359">
        <ele>84.7</ele>
        <time>2015-06-29T20:22:32.596Z</time>
      </trkpt>
      <trkpt lat="48.8623" lon="2.29364">
        <ele>85.3</ele>
        <time>2015-06-29T20:22:33.512Z</time>
      </trkpt>
      <trkpt lat="48.86234" lon="2.29369">
        <ele>85.7</ele>
        <time>2015-06-29T20:22:34.543Z</time>
      </trkpt>
      <trkpt lat="48.86239" lon="2.29373">
        <ele>86.1</ele>
        <time>2015-06-29T20:22:35.555Z</time>
      </trkpt>
      <trkpt lat="48.86242" lon="2.29378">
        <ele>86.4</ele>
        <time>2015-06-29T20:22:36.564Z</time>
      </trkpt>
      <trkpt lat="48.86245" lon="2.29384">
        <ele>86.4</ele>
        <time>2015-06-29T20:22:37.568Z</time>
      </trkpt>
      <trkpt lat="48.86248" lon="2.29389">
        <ele>86.6</ele>
        <time>2015-06-29T20:22:38.586Z</time>
      </trkpt>
      <trkpt lat="48.86251" lon="2.29394">
        <ele>86.6</ele>
        <time>2015-06-29T20:22:39.505Z</time>
      </trkpt>
      <trkpt lat="48.86258" lon="2.29403">
        <ele>86.9</ele>
        <time>2015-06-29T20:22:41.509Z</time>
      </trkpt>
      <trkpt lat="48.8626" lon="2.29408">
        <ele>87.5</ele>
        <time>2015-06-29T20:22:42.532Z</time>
      </trkpt>
      <trkpt lat="48.86263" lon="2.29414">
        <ele>88.1</ele>
        <time>2015-06-29T20:22:43.550Z</time>
      </trkpt>
      <trkpt lat="48.86267" lon="2.29418">
        <ele>88.3</ele>
        <time>2015-06-29T20:22:44.564Z</time>
      </trkpt>
      <trkpt lat="48.86271" lon="2.29429">
        <ele>88.4</ele>
        <time>2015-06-29T20:22:46.582Z</time>
      </trkpt>
      <trkpt lat="48.86274" lon="2.29438">
        <ele>88.2</ele>
        <time>2015-06-29T20:22:47.611Z</time>
      </trkpt>
      <trkpt lat="48.86276" lon="2.29445">
        <ele>88.2</ele>
        <time>2015-06-29T20:22:48.510Z</time>
      </trkpt>
      <trkpt lat="48.86279" lon="2.29452">
        <ele>87.7</ele>
        <time>2015-06-29T20:22:49.518Z</time>
      </trkpt>
      <trkpt lat="48.86283" lon="2.29464">
        <ele>88.2</ele>
        <time>2015-06-29T20:22:51.561Z</time>
      </trkpt>
      <trkpt lat="48.86285" lon="2.29471">
        <ele>88.2</ele>
        <time>2015-06-29T20:22:52.575Z</time>
      </trkpt>
      <trkpt lat="48.86287" lon="2.29478">
        <ele>88.2</ele>
        <time>2015-06-29T20:22:53.519Z</time>
      </trkpt>
      <trkpt lat="48.86288" lon="2.29485">
        <ele>88.5</ele>
        <time>2015-06-29T20:22:54.518Z</time>
      </trkpt>
      <trkpt lat="48.8629" lon="2.29493">
        <ele>88.7</ele>
        <time>2015-06-29T20:22:55.515Z</time>
      </trkpt>
      <trkpt lat="48.86292" lon="2.29499">
        <ele>89.1</ele>
        <time>2015-06-29T20:22:56.558Z</time>
      </trkpt>
      <trkpt lat="48.86297" lon="2.29505">
        <ele>90.1</ele>
        <time>2015-06-29T20:22:57.570Z</time>
      </trkpt>
      <trkpt lat="48.86299" lon="2.29511">
        <ele>90.6</ele>
        <time>2015-06-29T20:22:58.571Z</time>
      </trkpt>
      <trkpt lat="48.86301" lon="2.29523">
        <ele>90.7</ele>
        <time>2015-06-29T20:23:00.483Z</time>
      </trkpt>
      <trkpt lat="48.86303" lon="2.29529">
        <ele>90.7</ele>
        <time>2015-06-29T20:23:01.588Z</time>
      </trkpt>
      <trkpt lat="48.86306" lon="2.2954">
        <ele>89.9</ele>
        <time>2015-06-29T20:23:03.564Z</time>
      </trkpt>
      <trkpt lat="48.86307" lon="2.29545">
        <ele>89.7</ele>
        <time>2015-06-29T20:23:04.588Z</time>
      </trkpt>
      <trkpt lat="48.86307" lon="2.29556">
        <ele>88.7</ele>
        <time>2015-06-29T20:23:06.530Z</time>
      </trkpt>
      <trkpt lat="48.86309" lon="2.29561">
        <ele>88.7</ele>
        <time>2015-06-29T20:23:07.571Z</time>
      </trkpt>
      <trkpt lat="48.86311" lon="2.29567">
        <ele>88.9</ele>
        <time>2015-06-29T20:23:08.609Z</time>
      </trkpt>
      <trkpt lat="48.86314" lon="2.29573">
        <ele>88.8</ele>
        <time>2015-06-29T20:23:09.511Z</time>
      </trkpt>
      <trkpt lat="48.86317" lon="2.29578">
        <ele>89.3</ele>
        <time>2015-06-29T20:23:10.711Z</time>
      </trkpt>
      <trkpt lat="48.86319" lon="2.29585">
        <ele>88.9</ele>
        <time>2015-06-29T20:23:11.565Z</time>
      </trkpt>
      <trkpt lat="48.86323" lon="2.29596">
        <ele>89.1</ele>
        <time>2015-06-29T20:23:13.485Z</time>
      </trkpt>
      <trkpt lat="48.86325" lon="2.29602">
        <ele>89.3</ele>
        <time>2015-06-29T20:23:14.529Z</time>
      </trkpt>
      <trkpt lat="48.86328" lon="2.29614">
        <ele>89.9</ele>
        <time>2015-06-29T20:23:16.520Z</time>
      </trkpt>
      <trkpt lat="48.8633" lon="2.29619">
        <ele>90.4</ele>
        <time>2015-06-29T20:23:17.516Z</time>
      </trkpt>
      <trkpt lat="48.86334" lon="2.2963">
        <ele>89.8</ele>
        <time>2015-06-29T20:23:19.654Z</time>
      </trkpt>
      <trkpt lat="48.86337" lon="2.29636">
        <ele>89.3</ele>
        <time>2015-06-29T20:23:20.578Z</time>
      </trkpt>
      <trkpt lat="48.86339" lon="2.29646">
        <ele>89</ele>
        <time>2015-06-29T20:23:22.554Z</time>
      </trkpt>
      <trkpt lat="48.8634" lon="2.29652">
        <ele>88.9</ele>
        <time>2015-06-29T20:23:23.563Z</time>
      </trkpt>
      <trkpt lat="48.86344" lon="2.29663">
        <ele>89.4</ele>
        <time>2015-06-29T20:23:25.579Z</time>
      </trkpt>
      <trkpt lat="48.86346" lon="2.29667">
        <ele>90</ele>
        <time>2015-06-29T20:23:26.562Z</time>
      </trkpt>
      <trkpt lat="48.86351" lon="2.29677">
        <ele>89.9</ele>
        <time>2015-06-29T20:23:28.575Z</time>
      </trkpt>
      <trkpt lat="48.86353" lon="2.29683">
        <ele>89.5</ele>
        <time>2015-06-29T20:23:29.532Z</time>
      </trkpt>
      <trkpt lat="48.86355" lon="2.2969">
        <ele>89.2</ele>
        <time>2015-06-29T20:23:30.531Z</time>
      </trkpt>
      <trkpt lat="48.86357" lon="2.29697">
        <ele>89.6</ele>
        <time>2015-06-29T20:23:31.607Z</time>
      </trkpt>
      <trkpt lat="48.86359" lon="2.2971">
        <ele>89.6</ele>
        <time>2015-06-29T20:23:34.555Z</time>
      </trkpt>
      <trkpt lat="48.8636" lon="2.29713">
        <ele>89.6</ele>
        <time>2015-06-29T20:23:35.567Z</time>
      </trkpt>
      <trkpt lat="48.86361" lon="2.29722">
        <ele>90</ele>
        <time>2015-06-29T20:23:37.526Z</time>
      </trkpt>
      <trkpt lat="48.86362" lon="2.2973">
        <ele>90.1</ele>
        <time>2015-06-29T20:23:38.575Z</time>
      </trkpt>
      <trkpt lat="48.86364" lon="2.29737">
        <ele>89.9</ele>
        <time>2015-06-29T20:23:39.524Z</time>
      </trkpt>
      <trkpt lat="48.86365" lon="2.29743">
        <ele>89.8</ele>
        <time>2015-06-29T20:23:40.535Z</time>
      </trkpt>
      <trkpt lat="48.86366" lon="2.2975">
        <ele>89.9</ele>
        <time>2015-06-29T20:23:41.545Z</time>
      </trkpt>
      <trkpt lat="48.86369" lon="2.29757">
        <ele>90</ele>
        <time>2015-06-29T20:23:42.549Z</time>
      </trkpt>
      <trkpt lat="48.86371" lon="2.29769">
        <ele>89.8</ele>
        <time>2015-06-29T20:23:44.610Z</time>
      </trkpt>
      <trkpt lat="48.86373" lon="2.29776">
        <ele>89.8</ele>
        <time>2015-06-29T20:23:45.537Z</time>
      </trkpt>
      <trkpt lat="48.86375" lon="2.29783">
        <ele>89.8</ele>
        <time>2015-06-29T20:23:46.542Z</time>
      </trkpt>
      <trkpt lat="48.86376" lon="2.29789">
        <ele>89.7</ele>
        <time>2015-06-29T20:23:47.550Z</time>
      </trkpt>
      <trkpt lat="48.86379" lon="2.29801">
        <ele>89.5</ele>
        <time>2015-06-29T20:23:49.560Z</time>
      </trkpt>
      <trkpt lat="48.86379" lon="2.29806">
        <ele>89.5</ele>
        <time>2015-06-29T20:23:50.563Z</time>
      </trkpt>
      <trkpt lat="48.86381" lon="2.29818">
        <ele>89.2</ele>
        <time>2015-06-29T20:23:52.539Z</time>
      </trkpt>
      <trkpt lat="48.86381" lon="2.29825">
        <ele>88.9</ele>
        <time>2015-06-29T20:23:53.546Z</time>
      </trkpt>
      <trkpt lat="48.86381" lon="2.29832">
        <ele>88.5</ele>
        <time>2015-06-29T20:23:54.603Z</time>
      </trkpt>
      <trkpt lat="48.86383" lon="2.2984">
        <ele>88.4</ele>
        <time>2015-06-29T20:23:55.512Z</time>
      </trkpt>
      <trkpt lat="48.86385" lon="2.29847">
        <ele>88.5</ele>
        <time>2015-06-29T20:23:56.587Z</time>
      </trkpt>
      <trkpt lat="48.86387" lon="2.29853">
        <ele>88.8</ele>
        <time>2015-06-29T20:23:57.590Z</time>
      </trkpt>
      <trkpt lat="48.8639" lon="2.29859">
        <ele>89.2</ele>
        <time>2015-06-29T20:23:58.508Z</time>
      </trkpt>
      <trkpt lat="48.86392" lon="2.29864">
        <ele>89.2</ele>
        <time>2015-06-29T20:23:59.528Z</time>
      </trkpt>
      <trkpt lat="48.86395" lon="2.29871">
        <ele>89.7</ele>
        <time>2015-06-29T20:24:00.507Z</time>
      </trkpt>
      <trkpt lat="48.86397" lon="2.29878">
        <ele>89.7</ele>
        <time>2015-06-29T20:24:01.522Z</time>
      </trkpt>
      <trkpt lat="48.86398" lon="2.29885">
        <ele>89.6</ele>
        <time>2015-06-29T20:24:02.556Z</time>
      </trkpt>
      <trkpt lat="48.864" lon="2.29892">
        <ele>89.9</ele>
        <time>2015-06-29T20:24:03.551Z</time>
      </trkpt>
      <trkpt lat="48.86403" lon="2.29899">
        <ele>89.9</ele>
        <time>2015-06-29T20:24:04.556Z</time>
      </trkpt>
      <trkpt lat="48.86405" lon="2.29906">
        <ele>90.4</ele>
        <time>2015-06-29T20:24:05.564Z</time>
      </trkpt>
      <trkpt lat="48.86406" lon="2.29913">
        <ele>90.6</ele>
        <time>2015-06-29T20:24:06.574Z</time>
      </trkpt>
      <trkpt lat="48.86407" lon="2.2992">
        <ele>90.9</ele>
        <time>2015-06-29T20:24:07.480Z</time>
      </trkpt>
      <trkpt lat="48.86409" lon="2.29928">
        <ele>91.3</ele>
        <time>2015-06-29T20:24:08.552Z</time>
      </trkpt>
      <trkpt lat="48.8641" lon="2.29935">
        <ele>91.6</ele>
        <time>2015-06-29T20:24:09.542Z</time>
      </trkpt>
      <trkpt lat="48.86412" lon="2.29942">
        <ele>92</ele>
        <time>2015-06-29T20:24:10.549Z</time>
      </trkpt>
      <trkpt lat="48.86412" lon="2.29949">
        <ele>92.4</ele>
        <time>2015-06-29T20:24:11.563Z</time>
      </trkpt>
      <trkpt lat="48.86413" lon="2.29957">
        <ele>93</ele>
        <time>2015-06-29T20:24:12.581Z</time>
      </trkpt>
      <trkpt lat="48.86414" lon="2.29965">
        <ele>93.3</ele>
        <time>2015-06-29T20:24:13.603Z</time>
      </trkpt>
      <trkpt lat="48.86416" lon="2.29972">
        <ele>93.6</ele>
        <time>2015-06-29T20:24:14.603Z</time>
      </trkpt>
      <trkpt lat="48.86417" lon="2.2998">
        <ele>93.6</ele>
        <time>2015-06-29T20:24:15.530Z</time>
      </trkpt>
      <trkpt lat="48.8642" lon="2.29986">
        <ele>94.2</ele>
        <time>2015-06-29T20:24:16.504Z</time>
      </trkpt>
      <trkpt lat="48.86422" lon="2.29992">
        <ele>94.4</ele>
        <time>2015-06-29T20:24:17.505Z</time>
      </trkpt>
      <trkpt lat="48.86424" lon="2.29999">
        <ele>94.6</ele>
        <time>2015-06-29T20:24:18.516Z</time>
      </trkpt>
      <trkpt lat="48.86425" lon="2.30007">
        <ele>95</ele>
        <time>2015-06-29T20:24:19.539Z</time>
      </trkpt>
      <trkpt lat="48.86425" lon="2.30014">
        <ele>95.6</ele>
        <time>2015-06-29T20:24:20.565Z</time>
      </trkpt>
      <trkpt lat="48.86427" lon="2.30021">
        <ele>96</ele>
        <time>2015-06-29T20:24:21.577Z</time>
      </trkpt>
      <trkpt lat="48.86428" lon="2.30028">
        <ele>96.2</ele>
        <time>2015-06-29T20:24:22.589Z</time>
      </trkpt>
      <trkpt lat="48.86428" lon="2.30035">
        <ele>96.1</ele>
        <time>2015-06-29T20:24:23.508Z</time>
      </trkpt>
      <trkpt lat="48.8643" lon="2.30046">
        <ele>97</ele>
        <time>2015-06-29T20:24:25.518Z</time>
      </trkpt>
      <trkpt lat="48.86431" lon="2.30053">
        <ele>97.9</ele>
        <time>2015-06-29T20:24:26.589Z</time>
      </trkpt>
      <trkpt lat="48.86434" lon="2.30064">
        <ele>99.6</ele>
        <time>2015-06-29T20:24:28.515Z</time>
      </trkpt>
      <trkpt lat="48.86435" lon="2.30069">
        <ele>99.8</ele>
        <time>2015-06-29T20:24:29.527Z</time>
      </trkpt>
      <trkpt lat="48.86435" lon="2.30079">
        <ele>100.2</ele>
        <time>2015-06-29T20:24:31.544Z</time>
      </trkpt>
      <trkpt lat="48.86436" lon="2.30083">
        <ele>100.5</ele>
        <time>2015-06-29T20:24:32.581Z</time>
      </trkpt>
      <trkpt lat="48.86436" lon="2.30095">
        <ele>100.2</ele>
        <time>2015-06-29T20:24:35.580Z</time>
      </trkpt>
      <trkpt lat="48.86436" lon="2.30099">
        <ele>99.8</ele>
        <time>2015-06-29T20:24:36.509Z</time>
      </trkpt>
      <trkpt lat="48.86437" lon="2.30111">
        <ele>98.7</ele>
        <time>2015-06-29T20:24:39.587Z</time>
      </trkpt>
      <trkpt lat="48.86436" lon="2.30115">
        <ele>97.6</ele>
        <time>2015-06-29T20:24:40.526Z</time>
      </trkpt>
      <trkpt lat="48.86437" lon="2.30126">
        <ele>97</ele>
        <time>2015-06-29T20:24:43.638Z</time>
      </trkpt>
      <trkpt lat="48.86436" lon="2.3013">
        <ele>96.6</ele>
        <time>2015-06-29T20:24:44.575Z</time>
      </trkpt>
      <trkpt lat="48.86433" lon="2.3014">
        <ele>95.7</ele>
        <time>2015-06-29T20:24:47.530Z</time>
      </trkpt>
      <trkpt lat="48.86432" lon="2.30141">
        <ele>95.1</ele>
        <time>2015-06-29T20:24:48.565Z</time>
      </trkpt>
      <trkpt lat="48.86431" lon="2.30141">
        <ele>94.9</ele>
        <time>2015-06-29T20:25:15.535Z</time>
      </trkpt>
      <trkpt lat="48.86418" lon="2.30144">
        <ele>86.7</ele>
        <time>2015-06-29T20:25:16.538Z</time>
      </trkpt>
      <trkpt lat="48.86418" lon="2.30155">
        <ele>86.7</ele>
        <time>2015-06-29T20:25:19.612Z</time>
      </trkpt>
      <trkpt lat="48.86418" lon="2.3016">
        <ele>86.6</ele>
        <time>2015-06-29T20:25:20.619Z</time>
      </trkpt>
      <trkpt lat="48.86422" lon="2.30171">
        <ele>83.8</ele>
        <time>2015-06-29T20:25:42.589Z</time>
      </trkpt>
      <trkpt lat="48.86422" lon="2.30175">
        <ele>83.9</ele>
        <time>2015-06-29T20:25:43.527Z</time>
      </trkpt>
      <trkpt lat="48.86424" lon="2.30187">
        <ele>83.7</ele>
        <time>2015-06-29T20:25:46.496Z</time>
      </trkpt>
      <trkpt lat="48.86424" lon="2.30191">
        <ele>83.5</ele>
        <time>2015-06-29T20:25:47.537Z</time>
      </trkpt>
      <trkpt lat="48.86424" lon="2.30202">
        <ele>83</ele>
        <time>2015-06-29T20:25:50.573Z</time>
      </trkpt>
      <trkpt lat="48.86423" lon="2.30205">
        <ele>82.6</ele>
        <time>2015-06-29T20:25:51.586Z</time>
      </trkpt>
      <trkpt lat="48.86427" lon="2.30216">
        <ele>82.4</ele>
        <time>2015-06-29T20:25:54.495Z</time>
      </trkpt>
      <trkpt lat="48.86429" lon="2.30223">
        <ele>82.3</ele>
        <time>2015-06-29T20:25:55.532Z</time>
      </trkpt>
      <trkpt lat="48.8643" lon="2.30235">
        <ele>82</ele>
        <time>2015-06-29T20:25:57.564Z</time>
      </trkpt>
      <trkpt lat="48.86431" lon="2.30241">
        <ele>81.8</ele>
        <time>2015-06-29T20:25:58.488Z</time>
      </trkpt>
      <trkpt lat="48.86432" lon="2.30253">
        <ele>81.9</ele>
        <time>2015-06-29T20:26:00.512Z</time>
      </trkpt>
      <trkpt lat="48.86432" lon="2.30259">
        <ele>82</ele>
        <time>2015-06-29T20:26:01.526Z</time>
      </trkpt>
      <trkpt lat="48.86432" lon="2.30271">
        <ele>81.7</ele>
        <time>2015-06-29T20:26:03.517Z</time>
      </trkpt>
      <trkpt lat="48.86432" lon="2.30277">
        <ele>81.7</ele>
        <time>2015-06-29T20:26:04.529Z</time>
      </trkpt>
      <trkpt lat="48.86432" lon="2.30289">
        <ele>81.5</ele>
        <time>2015-06-29T20:26:06.570Z</time>
      </trkpt>
      <trkpt lat="48.86433" lon="2.30296">
        <ele>81.6</ele>
        <time>2015-06-29T20:26:07.580Z</time>
      </trkpt>
      <trkpt lat="48.86434" lon="2.30303">
        <ele>81.8</ele>
        <time>2015-06-29T20:26:08.618Z</time>
      </trkpt>
      <trkpt lat="48.86436" lon="2.3031">
        <ele>82.4</ele>
        <time>2015-06-29T20:26:09.505Z</time>
      </trkpt>
      <trkpt lat="48.86437" lon="2.30317">
        <ele>82.8</ele>
        <time>2015-06-29T20:26:10.513Z</time>
      </trkpt>
      <trkpt lat="48.86438" lon="2.30324">
        <ele>83.4</ele>
        <time>2015-06-29T20:26:11.521Z</time>
      </trkpt>
      <trkpt lat="48.8644" lon="2.30331">
        <ele>83.8</ele>
        <time>2015-06-29T20:26:12.540Z</time>
      </trkpt>
      <trkpt lat="48.8644" lon="2.30338">
        <ele>83.9</ele>
        <time>2015-06-29T20:26:13.545Z</time>
      </trkpt>
      <trkpt lat="48.86441" lon="2.30346">
        <ele>84.1</ele>
        <time>2015-06-29T20:26:14.610Z</time>
      </trkpt>
      <trkpt lat="48.86441" lon="2.30353">
        <ele>84.3</ele>
        <time>2015-06-29T20:26:15.479Z</time>
      </trkpt>
      <trkpt lat="48.86442" lon="2.30361">
        <ele>84.4</ele>
        <time>2015-06-29T20:26:16.499Z</time>
      </trkpt>
      <trkpt lat="48.86443" lon="2.30368">
        <ele>84.3</ele>
        <time>2015-06-29T20:26:17.504Z</time>
      </trkpt>
      <trkpt lat="48.86444" lon="2.30375">
        <ele>84.1</ele>
        <time>2015-06-29T20:26:18.542Z</time>
      </trkpt>
      <trkpt lat="48.86445" lon="2.30383">
        <ele>84.2</ele>
        <time>2015-06-29T20:26:19.547Z</time>
      </trkpt>
      <trkpt lat="48.86446" lon="2.3039">
        <ele>84.5</ele>
        <time>2015-06-29T20:26:20.569Z</time>
      </trkpt>
      <trkpt lat="48.86448" lon="2.30398">
        <ele>84.5</ele>
        <time>2015-06-29T20:26:21.578Z</time>
      </trkpt>
      <trkpt lat="48.8645" lon="2.30405">
        <ele>84.3</ele>
        <time>2015-06-29T20:26:22.582Z</time>
      </trkpt>
      <trkpt lat="48.86452" lon="2.30412">
        <ele>84.1</ele>
        <time>2015-06-29T20:26:23.528Z</time>
      </trkpt>
      <trkpt lat="48.86455" lon="2.30419">
        <ele>83.9</ele>
        <time>2015-06-29T20:26:24.530Z</time>
      </trkpt>
      <trkpt lat="48.86456" lon="2.30426">
        <ele>84.1</ele>
        <time>2015-06-29T20:26:25.534Z</time>
      </trkpt>
      <trkpt lat="48.86457" lon="2.30434">
        <ele>84</ele>
        <time>2015-06-29T20:26:26.553Z</time>
      </trkpt>
      <trkpt lat="48.86459" lon="2.30441">
        <ele>84.6</ele>
        <time>2015-06-29T20:26:27.554Z</time>
      </trkpt>
      <trkpt lat="48.8646" lon="2.30449">
        <ele>84.9</ele>
        <time>2015-06-29T20:26:28.572Z</time>
      </trkpt>
      <trkpt lat="48.86462" lon="2.30456">
        <ele>85.2</ele>
        <time>2015-06-29T20:26:29.588Z</time>
      </trkpt>
      <trkpt lat="48.86464" lon="2.30463">
        <ele>85.3</ele>
        <time>2015-06-29T20:26:30.506Z</time>
      </trkpt>
      <trkpt lat="48.86465" lon="2.30471">
        <ele>85.6</ele>
        <time>2015-06-29T20:26:31.519Z</time>
      </trkpt>
      <trkpt lat="48.86466" lon="2.30478">
        <ele>85.7</ele>
        <time>2015-06-29T20:26:32.578Z</time>
      </trkpt>
      <trkpt lat="48.86466" lon="2.30485">
        <ele>85.4</ele>
        <time>2015-06-29T20:26:33.595Z</time>
      </trkpt>
      <trkpt lat="48.86465" lon="2.30492">
        <ele>85.3</ele>
        <time>2015-06-29T20:26:34.548Z</time>
      </trkpt>
      <trkpt lat="48.86465" lon="2.30499">
        <ele>85.4</ele>
        <time>2015-06-29T20:26:35.556Z</time>
      </trkpt>
      <trkpt lat="48.86466" lon="2.30511">
        <ele>85.8</ele>
        <time>2015-06-29T20:26:37.490Z</time>
      </trkpt>
      <trkpt lat="48.86468" lon="2.30518">
        <ele>86.4</ele>
        <time>2015-06-29T20:26:38.573Z</time>
      </trkpt>
      <trkpt lat="48.86471" lon="2.30531">
        <ele>87.3</ele>
        <time>2015-06-29T20:26:40.502Z</time>
      </trkpt>
      <trkpt lat="48.86473" lon="2.30538">
        <ele>87.5</ele>
        <time>2015-06-29T20:26:41.524Z</time>
      </trkpt>
      <trkpt lat="48.86476" lon="2.30544">
        <ele>88.6</ele>
        <time>2015-06-29T20:26:42.597Z</time>
      </trkpt>
      <trkpt lat="48.86478" lon="2.30551">
        <ele>89.5</ele>
        <time>2015-06-29T20:26:43.552Z</time>
      </trkpt>
      <trkpt lat="48.8648" lon="2.30559">
        <ele>90.5</ele>
        <time>2015-06-29T20:26:44.558Z</time>
      </trkpt>
      <trkpt lat="48.86483" lon="2.30566">
        <ele>91.3</ele>
        <time>2015-06-29T20:26:45.569Z</time>
      </trkpt>
      <trkpt lat="48.86484" lon="2.30574">
        <ele>91.9</ele>
        <time>2015-06-29T20:26:46.573Z</time>
      </trkpt>
      <trkpt lat="48.86486" lon="2.3058">
        <ele>92.6</ele>
        <time>2015-06-29T20:26:47.587Z</time>
      </trkpt>
      <trkpt lat="48.86487" lon="2.30587">
        <ele>92.8</ele>
        <time>2015-06-29T20:26:48.526Z</time>
      </trkpt>
      <trkpt lat="48.86486" lon="2.30594">
        <ele>93</ele>
        <time>2015-06-29T20:26:49.532Z</time>
      </trkpt>
      <trkpt lat="48.86486" lon="2.30603">
        <ele>93.1</ele>
        <time>2015-06-29T20:26:50.564Z</time>
      </trkpt>
      <trkpt lat="48.86486" lon="2.30612">
        <ele>93.2</ele>
        <time>2015-06-29T20:26:51.616Z</time>
      </trkpt>
      <trkpt lat="48.86485" lon="2.3062">
        <ele>93.1</ele>
        <time>2015-06-29T20:26:52.516Z</time>
      </trkpt>
      <trkpt lat="48.86485" lon="2.30628">
        <ele>93</ele>
        <time>2015-06-29T20:26:53.512Z</time>
      </trkpt>
      <trkpt lat="48.86486" lon="2.30634">
        <ele>93</ele>
        <time>2015-06-29T20:26:54.516Z</time>
      </trkpt>
      <trkpt lat="48.86487" lon="2.30641">
        <ele>93.5</ele>
        <time>2015-06-29T20:26:55.524Z</time>
      </trkpt>
      <trkpt lat="48.86488" lon="2.30648">
        <ele>93.6</ele>
        <time>2015-06-29T20:26:56.548Z</time>
      </trkpt>
      <trkpt lat="48.8649" lon="2.30655">
        <ele>93.4</ele>
        <time>2015-06-29T20:26:57.542Z</time>
      </trkpt>
      <trkpt lat="48.86493" lon="2.30662">
        <ele>94.4</ele>
        <time>2015-06-29T20:26:58.559Z</time>
      </trkpt>
      <trkpt lat="48.86495" lon="2.30669">
        <ele>95.2</ele>
        <time>2015-06-29T20:26:59.570Z</time>
      </trkpt>
      <trkpt lat="48.86496" lon="2.30678">
        <ele>95.7</ele>
        <time>2015-06-29T20:27:00.478Z</time>
      </trkpt>
      <trkpt lat="48.86496" lon="2.30686">
        <ele>96.2</ele>
        <time>2015-06-29T20:27:01.505Z</time>
      </trkpt>
      <trkpt lat="48.86496" lon="2.30694">
        <ele>96.9</ele>
        <time>2015-06-29T20:27:02.555Z</time>
      </trkpt>
      <trkpt lat="48.86496" lon="2.30702">
        <ele>97.5</ele>
        <time>2015-06-29T20:27:03.551Z</time>
      </trkpt>
      <trkpt lat="48.86496" lon="2.30711">
        <ele>98.4</ele>
        <time>2015-06-29T20:27:04.558Z</time>
      </trkpt>
      <trkpt lat="48.86496" lon="2.30719">
        <ele>98.9</ele>
        <time>2015-06-29T20:27:05.555Z</time>
      </trkpt>
      <trkpt lat="48.86496" lon="2.30728">
        <ele>99.6</ele>
        <time>2015-06-29T20:27:06.575Z</time>
      </trkpt>
      <trkpt lat="48.86496" lon="2.30736">
        <ele>100.2</ele>
        <time>2015-06-29T20:27:07.581Z</time>
      </trkpt>
      <trkpt lat="48.86496" lon="2.30743">
        <ele>100.3</ele>
        <time>2015-06-29T20:27:08.593Z</time>
      </trkpt>
      <trkpt lat="48.86497" lon="2.30751">
        <ele>100.8</ele>
        <time>2015-06-29T20:27:09.499Z</time>
      </trkpt>
      <trkpt lat="48.86497" lon="2.30759">
        <ele>100.7</ele>
        <time>2015-06-29T20:27:10.503Z</time>
      </trkpt>
      <trkpt lat="48.86497" lon="2.30766">
        <ele>100.9</ele>
        <time>2015-06-29T20:27:11.509Z</time>
      </trkpt>
      <trkpt lat="48.86497" lon="2.30774">
        <ele>101.2</ele>
        <time>2015-06-29T20:27:12.521Z</time>
      </trkpt>
      <trkpt lat="48.86496" lon="2.30782">
        <ele>101.6</ele>
        <time>2015-06-29T20:27:13.528Z</time>
      </trkpt>
      <trkpt lat="48.86496" lon="2.3079">
        <ele>102.1</ele>
        <time>2015-06-29T20:27:14.555Z</time>
      </trkpt>
      <trkpt lat="48.86497" lon="2.30798">
        <ele>102</ele>
        <time>2015-06-29T20:27:15.563Z</time>
      </trkpt>
      <trkpt lat="48.86496" lon="2.30807">
        <ele>102.1</ele>
        <time>2015-06-29T20:27:16.578Z</time>
      </trkpt>
      <trkpt lat="48.86495" lon="2.30816">
        <ele>101.7</ele>
        <time>2015-06-29T20:27:17.583Z</time>
      </trkpt>
      <trkpt lat="48.86495" lon="2.30825">
        <ele>101.8</ele>
        <time>2015-06-29T20:27:18.502Z</time>
      </trkpt>
      <trkpt lat="48.86496" lon="2.30833">
        <ele>101.7</ele>
        <time>2015-06-29T20:27:19.501Z</time>
      </trkpt>
      <trkpt lat="48.86496" lon="2.30842">
        <ele>102.3</ele>
        <time>2015-06-29T20:27:20.555Z</time>
      </trkpt>
      <trkpt lat="48.86497" lon="2.30851">
        <ele>102.8</ele>
        <time>2015-06-29T20:27:21.551Z</time>
      </trkpt>
      <trkpt lat="48.86497" lon="2.30859">
        <ele>103.5</ele>
        <time>2015-06-29T20:27:22.591Z</time>
      </trkpt>
      <trkpt lat="48.86498" lon="2.30868">
        <ele>103.8</ele>
        <time>2015-06-29T20:27:23.505Z</time>
      </trkpt>
      <trkpt lat="48.86498" lon="2.30876">
        <ele>104.1</ele>
        <time>2015-06-29T20:27:24.536Z</time>
      </trkpt>
      <trkpt lat="48.86498" lon="2.30884">
        <ele>104.3</ele>
        <time>2015-06-29T20:27:25.574Z</time>
      </trkpt>
      <trkpt lat="48.86497" lon="2.30892">
        <ele>104.6</ele>
        <time>2015-06-29T20:27:26.686Z</time>
      </trkpt>
      <trkpt lat="48.86496" lon="2.30901">
        <ele>104.8</ele>
        <time>2015-06-29T20:27:27.510Z</time>
      </trkpt>
      <trkpt lat="48.86496" lon="2.30909">
        <ele>104.8</ele>
        <time>2015-06-29T20:27:28.505Z</time>
      </trkpt>
      <trkpt lat="48.86496" lon="2.30916">
        <ele>104.6</ele>
        <time>2015-06-29T20:27:29.511Z</time>
      </trkpt>
      <trkpt lat="48.86496" lon="2.30922">
        <ele>104.6</ele>
        <time>2015-06-29T20:27:30.516Z</time>
      </trkpt>
      <trkpt lat="48.86495" lon="2.3093">
        <ele>104.8</ele>
        <time>2015-06-29T20:27:31.526Z</time>
      </trkpt>
      <trkpt lat="48.86494" lon="2.30937">
        <ele>104.5</ele>
        <time>2015-06-29T20:27:32.627Z</time>
      </trkpt>
      <trkpt lat="48.86494" lon="2.30945">
        <ele>104.6</ele>
        <time>2015-06-29T20:27:33.533Z</time>
      </trkpt>
      <trkpt lat="48.86493" lon="2.30953">
        <ele>104.5</ele>
        <time>2015-06-29T20:27:34.520Z</time>
      </trkpt>
      <trkpt lat="48.86492" lon="2.3096">
        <ele>104.7</ele>
        <time>2015-06-29T20:27:35.530Z</time>
      </trkpt>
      <trkpt lat="48.86491" lon="2.30972">
        <ele>104.3</ele>
        <time>2015-06-29T20:27:37.547Z</time>
      </trkpt>
      <trkpt lat="48.86491" lon="2.30978">
        <ele>104.1</ele>
        <time>2015-06-29T20:27:38.553Z</time>
      </trkpt>
      <trkpt lat="48.8649" lon="2.30991">
        <ele>104.3</ele>
        <time>2015-06-29T20:27:40.587Z</time>
      </trkpt>
      <trkpt lat="48.86489" lon="2.30998">
        <ele>104.2</ele>
        <time>2015-06-29T20:27:41.524Z</time>
      </trkpt>
      <trkpt lat="48.86488" lon="2.31007">
        <ele>103.3</ele>
        <time>2015-06-29T20:27:43.543Z</time>
      </trkpt>
      <trkpt lat="48.86488" lon="2.31011">
        <ele>103.3</ele>
        <time>2015-06-29T20:27:44.595Z</time>
      </trkpt>
      <trkpt lat="48.86485" lon="2.31022">
        <ele>102.8</ele>
        <time>2015-06-29T20:27:47.551Z</time>
      </trkpt>
      <trkpt lat="48.86484" lon="2.31024">
        <ele>102.2</ele>
        <time>2015-06-29T20:27:48.566Z</time>
      </trkpt>
      <trkpt lat="48.86481" lon="2.31025">
        <ele>101.3</ele>
        <time>2015-06-29T20:27:49.501Z</time>
      </trkpt>
      <trkpt lat="48.86476" lon="2.31026">
        <ele>99</ele>
        <time>2015-06-29T20:27:50.613Z</time>
      </trkpt>
      <trkpt lat="48.86478" lon="2.31038">
        <ele>96.9</ele>
        <time>2015-06-29T20:27:57.594Z</time>
      </trkpt>
      <trkpt lat="48.86479" lon="2.31041">
        <ele>96.9</ele>
        <time>2015-06-29T20:27:58.485Z</time>
      </trkpt>
      <trkpt lat="48.86479" lon="2.31054">
        <ele>96.7</ele>
        <time>2015-06-29T20:28:01.486Z</time>
      </trkpt>
      <trkpt lat="48.86479" lon="2.3106">
        <ele>96.9</ele>
        <time>2015-06-29T20:28:02.635Z</time>
      </trkpt>
      <trkpt lat="48.86479" lon="2.31069">
        <ele>96.5</ele>
        <time>2015-06-29T20:28:04.576Z</time>
      </trkpt>
      <trkpt lat="48.86479" lon="2.31075">
        <ele>96.1</ele>
        <time>2015-06-29T20:28:05.482Z</time>
      </trkpt>
      <trkpt lat="48.86479" lon="2.31087">
        <ele>95.1</ele>
        <time>2015-06-29T20:28:07.489Z</time>
      </trkpt>
      <trkpt lat="48.8648" lon="2.31093">
        <ele>94.6</ele>
        <time>2015-06-29T20:28:08.517Z</time>
      </trkpt>
      <trkpt lat="48.86479" lon="2.31106">
        <ele>94.3</ele>
        <time>2015-06-29T20:28:10.529Z</time>
      </trkpt>
      <trkpt lat="48.86479" lon="2.31113">
        <ele>94.1</ele>
        <time>2015-06-29T20:28:11.535Z</time>
      </trkpt>
      <trkpt lat="48.8648" lon="2.31125">
        <ele>94.3</ele>
        <time>2015-06-29T20:28:13.570Z</time>
      </trkpt>
      <trkpt lat="48.8648" lon="2.31132">
        <ele>93.9</ele>
        <time>2015-06-29T20:28:14.582Z</time>
      </trkpt>
      <trkpt lat="48.8648" lon="2.31139">
        <ele>93.9</ele>
        <time>2015-06-29T20:28:15.498Z</time>
      </trkpt>
      <trkpt lat="48.8648" lon="2.31146">
        <ele>93.9</ele>
        <time>2015-06-29T20:28:16.569Z</time>
      </trkpt>
      <trkpt lat="48.8648" lon="2.31154">
        <ele>93.9</ele>
        <time>2015-06-29T20:28:17.513Z</time>
      </trkpt>
      <trkpt lat="48.8648" lon="2.31161">
        <ele>93.9</ele>
        <time>2015-06-29T20:28:18.519Z</time>
      </trkpt>
      <trkpt lat="48.8648" lon="2.31169">
        <ele>94</ele>
        <time>2015-06-29T20:28:19.536Z</time>
      </trkpt>
      <trkpt lat="48.8648" lon="2.31176">
        <ele>93.9</ele>
        <time>2015-06-29T20:28:20.674Z</time>
      </trkpt>
      <trkpt lat="48.8648" lon="2.3119">
        <ele>93.4</ele>
        <time>2015-06-29T20:28:22.538Z</time>
      </trkpt>
      <trkpt lat="48.8648" lon="2.31197">
        <ele>92.8</ele>
        <time>2015-06-29T20:28:23.603Z</time>
      </trkpt>
      <trkpt lat="48.8648" lon="2.31204">
        <ele>92.3</ele>
        <time>2015-06-29T20:28:24.504Z</time>
      </trkpt>
      <trkpt lat="48.86479" lon="2.31212">
        <ele>92.1</ele>
        <time>2015-06-29T20:28:25.501Z</time>
      </trkpt>
      <trkpt lat="48.86479" lon="2.31219">
        <ele>91.9</ele>
        <time>2015-06-29T20:28:26.581Z</time>
      </trkpt>
      <trkpt lat="48.86479" lon="2.31226">
        <ele>91.6</ele>
        <time>2015-06-29T20:28:27.535Z</time>
      </trkpt>
      <trkpt lat="48.86479" lon="2.31233">
        <ele>91.3</ele>
        <time>2015-06-29T20:28:28.507Z</time>
      </trkpt>
      <trkpt lat="48.86479" lon="2.3124">
        <ele>91.1</ele>
        <time>2015-06-29T20:28:29.513Z</time>
      </trkpt>
      <trkpt lat="48.86478" lon="2.31248">
        <ele>91</ele>
        <time>2015-06-29T20:28:30.536Z</time>
      </trkpt>
      <trkpt lat="48.86479" lon="2.31255">
        <ele>91</ele>
        <time>2015-06-29T20:28:31.584Z</time>
      </trkpt>
      <trkpt lat="48.8648" lon="2.31262">
        <ele>90.7</ele>
        <time>2015-06-29T20:28:32.660Z</time>
      </trkpt>
      <trkpt lat="48.8648" lon="2.31269">
        <ele>90.4</ele>
        <time>2015-06-29T20:28:33.497Z</time>
      </trkpt>
      <trkpt lat="48.86481" lon="2.31282">
        <ele>90.2</ele>
        <time>2015-06-29T20:28:35.578Z</time>
      </trkpt>
      <trkpt lat="48.86481" lon="2.31289">
        <ele>90</ele>
        <time>2015-06-29T20:28:36.497Z</time>
      </trkpt>
      <trkpt lat="48.86481" lon="2.31302">
        <ele>90.5</ele>
        <time>2015-06-29T20:28:38.579Z</time>
      </trkpt>
      <trkpt lat="48.86482" lon="2.31307">
        <ele>90.7</ele>
        <time>2015-06-29T20:28:39.604Z</time>
      </trkpt>
      <trkpt lat="48.86477" lon="2.31318">
        <ele>89</ele>
        <time>2015-06-29T20:28:41.500Z</time>
      </trkpt>
      <trkpt lat="48.86477" lon="2.31322">
        <ele>88.5</ele>
        <time>2015-06-29T20:28:42.500Z</time>
      </trkpt>
      <trkpt lat="48.86475" lon="2.31335">
        <ele>88.8</ele>
        <time>2015-06-29T20:28:45.552Z</time>
      </trkpt>
      <trkpt lat="48.86472" lon="2.31338">
        <ele>88.7</ele>
        <time>2015-06-29T20:28:46.565Z</time>
      </trkpt>
      <trkpt lat="48.86466" lon="2.31347">
        <ele>86.2</ele>
        <time>2015-06-29T20:28:50.518Z</time>
      </trkpt>
      <trkpt lat="48.86466" lon="2.31349">
        <ele>86.2</ele>
        <time>2015-06-29T20:28:51.534Z</time>
      </trkpt>
      <trkpt lat="48.86467" lon="2.31361">
        <ele>85.8</ele>
        <time>2015-06-29T20:28:55.589Z</time>
      </trkpt>
      <trkpt lat="48.86467" lon="2.31365">
        <ele>86</ele>
        <time>2015-06-29T20:28:56.625Z</time>
      </trkpt>
      <trkpt lat="48.86468" lon="2.31375">
        <ele>86.2</ele>
        <time>2015-06-29T20:28:59.530Z</time>
      </trkpt>
      <trkpt lat="48.86468" lon="2.31378">
        <ele>86.3</ele>
        <time>2015-06-29T20:29:00.549Z</time>
      </trkpt>
      <trkpt lat="48.86469" lon="2.31388">
        <ele>86.9</ele>
        <time>2015-06-29T20:29:02.616Z</time>
      </trkpt>
      <trkpt lat="48.8647" lon="2.31392">
        <ele>86.8</ele>
        <time>2015-06-29T20:29:03.525Z</time>
      </trkpt>
      <trkpt lat="48.86472" lon="2.31402">
        <ele>87.2</ele>
        <time>2015-06-29T20:29:05.518Z</time>
      </trkpt>
      <trkpt lat="48.86473" lon="2.31407">
        <ele>87.1</ele>
        <time>2015-06-29T20:29:06.531Z</time>
      </trkpt>
      <trkpt lat="48.86474" lon="2.31418">
        <ele>87.1</ele>
        <time>2015-06-29T20:29:08.555Z</time>
      </trkpt>
      <trkpt lat="48.86475" lon="2.31424">
        <ele>86.9</ele>
        <time>2015-06-29T20:29:09.568Z</time>
      </trkpt>
      <trkpt lat="48.86475" lon="2.31436">
        <ele>86.7</ele>
        <time>2015-06-29T20:29:11.589Z</time>
      </trkpt>
      <trkpt lat="48.86475" lon="2.31443">
        <ele>86.7</ele>
        <time>2015-06-29T20:29:12.602Z</time>
      </trkpt>
      <trkpt lat="48.86474" lon="2.3145">
        <ele>86.7</ele>
        <time>2015-06-29T20:29:13.515Z</time>
      </trkpt>
      <trkpt lat="48.86474" lon="2.31457">
        <ele>86.8</ele>
        <time>2015-06-29T20:29:14.550Z</time>
      </trkpt>
      <trkpt lat="48.86475" lon="2.31465">
        <ele>86.8</ele>
        <time>2015-06-29T20:29:15.567Z</time>
      </trkpt>
      <trkpt lat="48.86475" lon="2.31473">
        <ele>86.7</ele>
        <time>2015-06-29T20:29:16.576Z</time>
      </trkpt>
      <trkpt lat="48.86475" lon="2.31481">
        <ele>86.6</ele>
        <time>2015-06-29T20:29:17.491Z</time>
      </trkpt>
      <trkpt lat="48.86475" lon="2.31489">
        <ele>87.1</ele>
        <time>2015-06-29T20:29:18.497Z</time>
      </trkpt>
      <trkpt lat="48.86476" lon="2.31497">
        <ele>87.6</ele>
        <time>2015-06-29T20:29:19.500Z</time>
      </trkpt>
      <trkpt lat="48.86476" lon="2.31505">
        <ele>87.7</ele>
        <time>2015-06-29T20:29:20.544Z</time>
      </trkpt>
      <trkpt lat="48.86476" lon="2.31513">
        <ele>87.9</ele>
        <time>2015-06-29T20:29:21.546Z</time>
      </trkpt>
      <trkpt lat="48.86477" lon="2.31522">
        <ele>87.9</ele>
        <time>2015-06-29T20:29:22.595Z</time>
      </trkpt>
      <trkpt lat="48.86478" lon="2.3153">
        <ele>87.9</ele>
        <time>2015-06-29T20:29:23.510Z</time>
      </trkpt>
      <trkpt lat="48.8648" lon="2.31539">
        <ele>88</ele>
        <time>2015-06-29T20:29:24.515Z</time>
      </trkpt>
      <trkpt lat="48.86481" lon="2.31546">
        <ele>87.7</ele>
        <time>2015-06-29T20:29:25.532Z</time>
      </trkpt>
      <trkpt lat="48.86482" lon="2.31554">
        <ele>87.3</ele>
        <time>2015-06-29T20:29:26.545Z</time>
      </trkpt>
      <trkpt lat="48.86483" lon="2.31562">
        <ele>87.4</ele>
        <time>2015-06-29T20:29:27.560Z</time>
      </trkpt>
      <trkpt lat="48.86483" lon="2.31571">
        <ele>87.8</ele>
        <time>2015-06-29T20:29:28.568Z</time>
      </trkpt>
      <trkpt lat="48.86482" lon="2.3158">
        <ele>87.7</ele>
        <time>2015-06-29T20:29:29.494Z</time>
      </trkpt>
      <trkpt lat="48.86482" lon="2.31589">
        <ele>87.6</ele>
        <time>2015-06-29T20:29:30.505Z</time>
      </trkpt>
      <trkpt lat="48.86481" lon="2.31598">
        <ele>87.3</ele>
        <time>2015-06-29T20:29:31.515Z</time>
      </trkpt>
      <trkpt lat="48.86482" lon="2.31607">
        <ele>87.3</ele>
        <time>2015-06-29T20:29:32.549Z</time>
      </trkpt>
      <trkpt lat="48.86482" lon="2.31616">
        <ele>87.3</ele>
        <time>2015-06-29T20:29:33.558Z</time>
      </trkpt>
      <trkpt lat="48.86482" lon="2.31624">
        <ele>87.1</ele>
        <time>2015-06-29T20:29:34.578Z</time>
      </trkpt>
      <trkpt lat="48.86483" lon="2.31633">
        <ele>86.9</ele>
        <time>2015-06-29T20:29:35.596Z</time>
      </trkpt>
      <trkpt lat="48.86484" lon="2.31642">
        <ele>86.7</ele>
        <time>2015-06-29T20:29:36.505Z</time>
      </trkpt>
      <trkpt lat="48.86484" lon="2.31651">
        <ele>86.7</ele>
        <time>2015-06-29T20:29:37.516Z</time>
      </trkpt>
      <trkpt lat="48.86486" lon="2.31659">
        <ele>86.8</ele>
        <time>2015-06-29T20:29:38.547Z</time>
      </trkpt>
      <trkpt lat="48.86487" lon="2.31667">
        <ele>86.6</ele>
        <time>2015-06-29T20:29:39.547Z</time>
      </trkpt>
      <trkpt lat="48.86487" lon="2.31677">
        <ele>86.5</ele>
        <time>2015-06-29T20:29:40.558Z</time>
      </trkpt>
      <trkpt lat="48.86488" lon="2.31686">
        <ele>86.6</ele>
        <time>2015-06-29T20:29:41.569Z</time>
      </trkpt>
      <trkpt lat="48.86489" lon="2.31695">
        <ele>86.8</ele>
        <time>2015-06-29T20:29:42.584Z</time>
      </trkpt>
      <trkpt lat="48.8649" lon="2.31704">
        <ele>87</ele>
        <time>2015-06-29T20:29:43.677Z</time>
      </trkpt>
      <trkpt lat="48.8649" lon="2.31713">
        <ele>87.2</ele>
        <time>2015-06-29T20:29:44.555Z</time>
      </trkpt>
      <trkpt lat="48.86491" lon="2.31722">
        <ele>87.1</ele>
        <time>2015-06-29T20:29:45.560Z</time>
      </trkpt>
      <trkpt lat="48.8649" lon="2.31731">
        <ele>87.3</ele>
        <time>2015-06-29T20:29:46.573Z</time>
      </trkpt>
      <trkpt lat="48.8649" lon="2.3174">
        <ele>87.5</ele>
        <time>2015-06-29T20:29:47.509Z</time>
      </trkpt>
      <trkpt lat="48.86489" lon="2.31749">
        <ele>87.7</ele>
        <time>2015-06-29T20:29:48.499Z</time>
      </trkpt>
      <trkpt lat="48.86489" lon="2.31758">
        <ele>88.1</ele>
        <time>2015-06-29T20:29:49.521Z</time>
      </trkpt>
      <trkpt lat="48.8649" lon="2.31767">
        <ele>88.5</ele>
        <time>2015-06-29T20:29:50.567Z</time>
      </trkpt>
      <trkpt lat="48.8649" lon="2.31776">
        <ele>88.7</ele>
        <time>2015-06-29T20:29:51.592Z</time>
      </trkpt>
      <trkpt lat="48.8649" lon="2.31784">
        <ele>89</ele>
        <time>2015-06-29T20:29:52.524Z</time>
      </trkpt>
      <trkpt lat="48.86491" lon="2.31793">
        <ele>89.5</ele>
        <time>2015-06-29T20:29:53.503Z</time>
      </trkpt>
      <trkpt lat="48.86492" lon="2.31801">
        <ele>89.5</ele>
        <time>2015-06-29T20:29:54.503Z</time>
      </trkpt>
      <trkpt lat="48.86493" lon="2.31808">
        <ele>89.3</ele>
        <time>2015-06-29T20:29:55.521Z</time>
      </trkpt>
      <trkpt lat="48.86494" lon="2.31817">
        <ele>89.6</ele>
        <time>2015-06-29T20:29:56.548Z</time>
      </trkpt>
      <trkpt lat="48.86494" lon="2.31824">
        <ele>89.8</ele>
        <time>2015-06-29T20:29:57.560Z</time>
      </trkpt>
      <trkpt lat="48.8649" lon="2.31834">
        <ele>89.1</ele>
        <time>2015-06-29T20:29:58.507Z</time>
      </trkpt>
      <trkpt lat="48.86485" lon="2.31841">
        <ele>88.4</ele>
        <time>2015-06-29T20:29:59.507Z</time>
      </trkpt>
      <trkpt lat="48.8648" lon="2.31847">
        <ele>87.8</ele>
        <time>2015-06-29T20:30:00.528Z</time>
      </trkpt>
      <trkpt lat="48.86474" lon="2.31853">
        <ele>87</ele>
        <time>2015-06-29T20:30:01.557Z</time>
      </trkpt>
      <trkpt lat="48.86469" lon="2.31858">
        <ele>86.6</ele>
        <time>2015-06-29T20:30:02.560Z</time>
      </trkpt>
      <trkpt lat="48.86463" lon="2.31863">
        <ele>85.8</ele>
        <time>2015-06-29T20:30:03.570Z</time>
      </trkpt>
      <trkpt lat="48.86458" lon="2.31868">
        <ele>85.2</ele>
        <time>2015-06-29T20:30:04.576Z</time>
      </trkpt>
      <trkpt lat="48.86453" lon="2.31878">
        <ele>84.7</ele>
        <time>2015-06-29T20:30:06.497Z</time>
      </trkpt>
      <trkpt lat="48.86451" lon="2.31883">
        <ele>84.4</ele>
        <time>2015-06-29T20:30:07.524Z</time>
      </trkpt>
      <trkpt lat="48.86448" lon="2.31893">
        <ele>84</ele>
        <time>2015-06-29T20:30:09.555Z</time>
      </trkpt>
      <trkpt lat="48.86446" lon="2.31898">
        <ele>83.8</ele>
        <time>2015-06-29T20:30:10.568Z</time>
      </trkpt>
      <trkpt lat="48.86443" lon="2.31908">
        <ele>83.7</ele>
        <time>2015-06-29T20:30:12.498Z</time>
      </trkpt>
      <trkpt lat="48.86441" lon="2.31912">
        <ele>83.5</ele>
        <time>2015-06-29T20:30:13.566Z</time>
      </trkpt>
      <trkpt lat="48.86438" lon="2.31921">
        <ele>82.9</ele>
        <time>2015-06-29T20:30:15.499Z</time>
      </trkpt>
      <trkpt lat="48.86436" lon="2.31925">
        <ele>82.6</ele>
        <time>2015-06-29T20:30:16.529Z</time>
      </trkpt>
      <trkpt lat="48.86432" lon="2.31935">
        <ele>82.6</ele>
        <time>2015-06-29T20:30:18.555Z</time>
      </trkpt>
      <trkpt lat="48.8643" lon="2.3194">
        <ele>82.4</ele>
        <time>2015-06-29T20:30:19.631Z</time>
      </trkpt>
      <trkpt lat="48.86426" lon="2.3195">
        <ele>82.3</ele>
        <time>2015-06-29T20:30:21.722Z</time>
      </trkpt>
      <trkpt lat="48.86424" lon="2.31956">
        <ele>82.2</ele>
        <time>2015-06-29T20:30:22.478Z</time>
      </trkpt>
      <trkpt lat="48.86422" lon="2.31966">
        <ele>82.4</ele>
        <time>2015-06-29T20:30:25.025Z</time>
      </trkpt>
      <trkpt lat="48.86421" lon="2.3197">
        <ele>82.4</ele>
        <time>2015-06-29T20:30:25.713Z</time>
      </trkpt>
      <trkpt lat="48.86415" lon="2.31979">
        <ele>80.6</ele>
        <time>2015-06-29T20:30:30.114Z</time>
      </trkpt>
      <trkpt lat="48.86414" lon="2.3198">
        <ele>80.8</ele>
        <time>2015-06-29T20:30:30.584Z</time>
      </trkpt>
      <trkpt lat="48.86413" lon="2.31981">
        <ele>81</ele>
        <time>2015-06-29T20:31:24.822Z</time>
      </trkpt>
      <trkpt lat="48.86406" lon="2.31994">
        <ele>82.2</ele>
        <time>2015-06-29T20:31:25.527Z</time>
      </trkpt>
      <trkpt lat="48.86403" lon="2.32006">
        <ele>82.5</ele>
        <time>2015-06-29T20:31:31.518Z</time>
      </trkpt>
      <trkpt lat="48.86403" lon="2.32009">
        <ele>82.5</ele>
        <time>2015-06-29T20:31:32.647Z</time>
      </trkpt>
      <trkpt lat="48.86402" lon="2.32021">
        <ele>82.5</ele>
        <time>2015-06-29T20:31:36.521Z</time>
      </trkpt>
      <trkpt lat="48.86402" lon="2.32024">
        <ele>82.4</ele>
        <time>2015-06-29T20:31:37.558Z</time>
      </trkpt>
      <trkpt lat="48.864" lon="2.32035">
        <ele>82.4</ele>
        <time>2015-06-29T20:31:40.512Z</time>
      </trkpt>
      <trkpt lat="48.86399" lon="2.3204">
        <ele>82.1</ele>
        <time>2015-06-29T20:31:41.526Z</time>
      </trkpt>
      <trkpt lat="48.86396" lon="2.32049">
        <ele>81.8</ele>
        <time>2015-06-29T20:31:43.596Z</time>
      </trkpt>
      <trkpt lat="48.86395" lon="2.32055">
        <ele>81.8</ele>
        <time>2015-06-29T20:31:44.616Z</time>
      </trkpt>
      <trkpt lat="48.86391" lon="2.32065">
        <ele>81.7</ele>
        <time>2015-06-29T20:31:46.591Z</time>
      </trkpt>
      <trkpt lat="48.86389" lon="2.32069">
        <ele>81.5</ele>
        <time>2015-06-29T20:31:47.562Z</time>
      </trkpt>
      <trkpt lat="48.86386" lon="2.3208">
        <ele>81.6</ele>
        <time>2015-06-29T20:31:50.183Z</time>
      </trkpt>
      <trkpt lat="48.86384" lon="2.32086">
        <ele>81.7</ele>
        <time>2015-06-29T20:31:50.586Z</time>
      </trkpt>
      <trkpt lat="48.86382" lon="2.32097">
        <ele>81.6</ele>
        <time>2015-06-29T20:31:52.603Z</time>
      </trkpt>
      <trkpt lat="48.8638" lon="2.32103">
        <ele>81.5</ele>
        <time>2015-06-29T20:31:53.519Z</time>
      </trkpt>
      <trkpt lat="48.86377" lon="2.32115">
        <ele>81.6</ele>
        <time>2015-06-29T20:31:55.522Z</time>
      </trkpt>
      <trkpt lat="48.86375" lon="2.32121">
        <ele>81.6</ele>
        <time>2015-06-29T20:31:56.641Z</time>
      </trkpt>
      <trkpt lat="48.86374" lon="2.32127">
        <ele>81.7</ele>
        <time>2015-06-29T20:31:57.558Z</time>
      </trkpt>
      <trkpt lat="48.86373" lon="2.32134">
        <ele>81.7</ele>
        <time>2015-06-29T20:31:58.554Z</time>
      </trkpt>
      <trkpt lat="48.86371" lon="2.32147">
        <ele>81.8</ele>
        <time>2015-06-29T20:32:00.503Z</time>
      </trkpt>
      <trkpt lat="48.86369" lon="2.32155">
        <ele>81.7</ele>
        <time>2015-06-29T20:32:01.509Z</time>
      </trkpt>
      <trkpt lat="48.86368" lon="2.32163">
        <ele>81.7</ele>
        <time>2015-06-29T20:32:02.561Z</time>
      </trkpt>
      <trkpt lat="48.86366" lon="2.32172">
        <ele>81.9</ele>
        <time>2015-06-29T20:32:03.652Z</time>
      </trkpt>
      <trkpt lat="48.86364" lon="2.32182">
        <ele>81.8</ele>
        <time>2015-06-29T20:32:05.292Z</time>
      </trkpt>
      <trkpt lat="48.8636" lon="2.32193">
        <ele>82.1</ele>
        <time>2015-06-29T20:32:05.510Z</time>
      </trkpt>
      <trkpt lat="48.86355" lon="2.32205">
        <ele>82.7</ele>
        <time>2015-06-29T20:32:06.519Z</time>
      </trkpt>
      <trkpt lat="48.86351" lon="2.32217">
        <ele>82.7</ele>
        <time>2015-06-29T20:32:07.583Z</time>
      </trkpt>
      <trkpt lat="48.86348" lon="2.32229">
        <ele>82.6</ele>
        <time>2015-06-29T20:32:08.580Z</time>
      </trkpt>
      <trkpt lat="48.86345" lon="2.3224">
        <ele>82.3</ele>
        <time>2015-06-29T20:32:09.508Z</time>
      </trkpt>
      <trkpt lat="48.86341" lon="2.32252">
        <ele>82.2</ele>
        <time>2015-06-29T20:32:10.515Z</time>
      </trkpt>
      <trkpt lat="48.86337" lon="2.32263">
        <ele>82.1</ele>
        <time>2015-06-29T20:32:11.522Z</time>
      </trkpt>
      <trkpt lat="48.86332" lon="2.32275">
        <ele>82.4</ele>
        <time>2015-06-29T20:32:12.552Z</time>
      </trkpt>
      <trkpt lat="48.86328" lon="2.32287">
        <ele>82.8</ele>
        <time>2015-06-29T20:32:13.562Z</time>
      </trkpt>
      <trkpt lat="48.86323" lon="2.32299">
        <ele>83.2</ele>
        <time>2015-06-29T20:32:14.577Z</time>
      </trkpt>
      <trkpt lat="48.86319" lon="2.32312">
        <ele>83.1</ele>
        <time>2015-06-29T20:32:15.486Z</time>
      </trkpt>
      <trkpt lat="48.86314" lon="2.32324">
        <ele>83.1</ele>
        <time>2015-06-29T20:32:16.504Z</time>
      </trkpt>
      <trkpt lat="48.86311" lon="2.32335">
        <ele>82.9</ele>
        <time>2015-06-29T20:32:17.531Z</time>
      </trkpt>
      <trkpt lat="48.86307" lon="2.32347">
        <ele>82.7</ele>
        <time>2015-06-29T20:32:18.551Z</time>
      </trkpt>
      <trkpt lat="48.86304" lon="2.32359">
        <ele>82.7</ele>
        <time>2015-06-29T20:32:19.607Z</time>
      </trkpt>
      <trkpt lat="48.86301" lon="2.32371">
        <ele>83.4</ele>
        <time>2015-06-29T20:32:20.598Z</time>
      </trkpt>
      <trkpt lat="48.86298" lon="2.32383">
        <ele>83.2</ele>
        <time>2015-06-29T20:32:21.503Z</time>
      </trkpt>
      <trkpt lat="48.86294" lon="2.32395">
        <ele>83.1</ele>
        <time>2015-06-29T20:32:22.511Z</time>
      </trkpt>
      <trkpt lat="48.8629" lon="2.32406">
        <ele>83.5</ele>
        <time>2015-06-29T20:32:23.528Z</time>
      </trkpt>
      <trkpt lat="48.86286" lon="2.32418">
        <ele>82.9</ele>
        <time>2015-06-29T20:32:24.537Z</time>
      </trkpt>
      <trkpt lat="48.86282" lon="2.32431">
        <ele>83.3</ele>
        <time>2015-06-29T20:32:25.552Z</time>
      </trkpt>
      <trkpt lat="48.86277" lon="2.32443">
        <ele>83.2</ele>
        <time>2015-06-29T20:32:26.568Z</time>
      </trkpt>
      <trkpt lat="48.86272" lon="2.32455">
        <ele>83.1</ele>
        <time>2015-06-29T20:32:27.572Z</time>
      </trkpt>
      <trkpt lat="48.86268" lon="2.32467">
        <ele>82.5</ele>
        <time>2015-06-29T20:32:28.499Z</time>
      </trkpt>
      <trkpt lat="48.86264" lon="2.32479">
        <ele>82.8</ele>
        <time>2015-06-29T20:32:29.519Z</time>
      </trkpt>
      <trkpt lat="48.8626" lon="2.3249">
        <ele>83.1</ele>
        <time>2015-06-29T20:32:30.499Z</time>
      </trkpt>
      <trkpt lat="48.86257" lon="2.32501">
        <ele>82.7</ele>
        <time>2015-06-29T20:32:31.496Z</time>
      </trkpt>
      <trkpt lat="48.86254" lon="2.32512">
        <ele>82.7</ele>
        <time>2015-06-29T20:32:32.571Z</time>
      </trkpt>
      <trkpt lat="48.86251" lon="2.32523">
        <ele>81.9</ele>
        <time>2015-06-29T20:32:33.583Z</time>
      </trkpt>
      <trkpt lat="48.86248" lon="2.32533">
        <ele>81.4</ele>
        <time>2015-06-29T20:32:34.501Z</time>
      </trkpt>
      <trkpt lat="48.86244" lon="2.32544">
        <ele>81.5</ele>
        <time>2015-06-29T20:32:35.511Z</time>
      </trkpt>
      <trkpt lat="48.86241" lon="2.32554">
        <ele>81.7</ele>
        <time>2015-06-29T20:32:36.523Z</time>
      </trkpt>
      <trkpt lat="48.86237" lon="2.32565">
        <ele>81.5</ele>
        <time>2015-06-29T20:32:37.527Z</time>
      </trkpt>
      <trkpt lat="48.86233" lon="2.32576">
        <ele>81.4</ele>
        <time>2015-06-29T20:32:38.546Z</time>
      </trkpt>
      <trkpt lat="48.86228" lon="2.32587">
        <ele>81.5</ele>
        <time>2015-06-29T20:32:39.549Z</time>
      </trkpt>
      <trkpt lat="48.86223" lon="2.32599">
        <ele>81.3</ele>
        <time>2015-06-29T20:32:40.563Z</time>
      </trkpt>
      <trkpt lat="48.86219" lon="2.3261">
        <ele>81.1</ele>
        <time>2015-06-29T20:32:41.582Z</time>
      </trkpt>
      <trkpt lat="48.86214" lon="2.32621">
        <ele>81.1</ele>
        <time>2015-06-29T20:32:42.512Z</time>
      </trkpt>
      <trkpt lat="48.86211" lon="2.32632">
        <ele>81.2</ele>
        <time>2015-06-29T20:32:43.499Z</time>
      </trkpt>
      <trkpt lat="48.86208" lon="2.32643">
        <ele>81.4</ele>
        <time>2015-06-29T20:32:44.556Z</time>
      </trkpt>
      <trkpt lat="48.86204" lon="2.32654">
        <ele>81.5</ele>
        <time>2015-06-29T20:32:45.563Z</time>
      </trkpt>
      <trkpt lat="48.862" lon="2.32665">
        <ele>81.1</ele>
        <time>2015-06-29T20:32:46.573Z</time>
      </trkpt>
      <trkpt lat="48.86197" lon="2.32676">
        <ele>81.1</ele>
        <time>2015-06-29T20:32:47.493Z</time>
      </trkpt>
      <trkpt lat="48.86193" lon="2.32687">
        <ele>81.5</ele>
        <time>2015-06-29T20:32:48.494Z</time>
      </trkpt>
      <trkpt lat="48.86191" lon="2.32698">
        <ele>81.4</ele>
        <time>2015-06-29T20:32:49.502Z</time>
      </trkpt>
      <trkpt lat="48.86188" lon="2.32709">
        <ele>81.5</ele>
        <time>2015-06-29T20:32:50.546Z</time>
      </trkpt>
      <trkpt lat="48.86184" lon="2.3272">
        <ele>81.3</ele>
        <time>2015-06-29T20:32:51.540Z</time>
      </trkpt>
      <trkpt lat="48.8618" lon="2.32731">
        <ele>81.4</ele>
        <time>2015-06-29T20:32:52.552Z</time>
      </trkpt>
      <trkpt lat="48.86177" lon="2.32741">
        <ele>81.5</ele>
        <time>2015-06-29T20:32:53.557Z</time>
      </trkpt>
      <trkpt lat="48.86173" lon="2.32751">
        <ele>81.8</ele>
        <time>2015-06-29T20:32:54.571Z</time>
      </trkpt>
      <trkpt lat="48.8617" lon="2.32762">
        <ele>81.6</ele>
        <time>2015-06-29T20:32:55.574Z</time>
      </trkpt>
      <trkpt lat="48.86166" lon="2.32773">
        <ele>81.6</ele>
        <time>2015-06-29T20:32:56.593Z</time>
      </trkpt>
      <trkpt lat="48.86163" lon="2.32783">
        <ele>82</ele>
        <time>2015-06-29T20:32:57.498Z</time>
      </trkpt>
      <trkpt lat="48.8616" lon="2.32793">
        <ele>82.5</ele>
        <time>2015-06-29T20:32:58.520Z</time>
      </trkpt>
      <trkpt lat="48.86157" lon="2.32804">
        <ele>82.7</ele>
        <time>2015-06-29T20:32:59.529Z</time>
      </trkpt>
      <trkpt lat="48.86153" lon="2.32815">
        <ele>83.4</ele>
        <time>2015-06-29T20:33:00.554Z</time>
      </trkpt>
      <trkpt lat="48.86148" lon="2.32826">
        <ele>83.8</ele>
        <time>2015-06-29T20:33:01.585Z</time>
      </trkpt>
      <trkpt lat="48.86145" lon="2.32837">
        <ele>83.4</ele>
        <time>2015-06-29T20:33:02.623Z</time>
      </trkpt>
      <trkpt lat="48.86142" lon="2.32846">
        <ele>83.3</ele>
        <time>2015-06-29T20:33:03.498Z</time>
      </trkpt>
      <trkpt lat="48.86138" lon="2.32855">
        <ele>83.1</ele>
        <time>2015-06-29T20:33:04.538Z</time>
      </trkpt>
      <trkpt lat="48.86135" lon="2.32865">
        <ele>83</ele>
        <time>2015-06-29T20:33:05.533Z</time>
      </trkpt>
      <trkpt lat="48.86132" lon="2.32875">
        <ele>82.9</ele>
        <time>2015-06-29T20:33:06.543Z</time>
      </trkpt>
      <trkpt lat="48.86128" lon="2.32885">
        <ele>82.8</ele>
        <time>2015-06-29T20:33:07.547Z</time>
      </trkpt>
      <trkpt lat="48.86125" lon="2.32895">
        <ele>82.9</ele>
        <time>2015-06-29T20:33:08.578Z</time>
      </trkpt>
      <trkpt lat="48.86122" lon="2.32904">
        <ele>82.7</ele>
        <time>2015-06-29T20:33:09.470Z</time>
      </trkpt>
      <trkpt lat="48.8612" lon="2.32913">
        <ele>82.8</ele>
        <time>2015-06-29T20:33:10.499Z</time>
      </trkpt>
      <trkpt lat="48.86117" lon="2.32921">
        <ele>82.6</ele>
        <time>2015-06-29T20:33:11.518Z</time>
      </trkpt>
      <trkpt lat="48.86115" lon="2.32929">
        <ele>82.4</ele>
        <time>2015-06-29T20:33:12.541Z</time>
      </trkpt>
      <trkpt lat="48.86113" lon="2.32937">
        <ele>82.2</ele>
        <time>2015-06-29T20:33:13.567Z</time>
      </trkpt>
      <trkpt lat="48.8611" lon="2.32945">
        <ele>82.1</ele>
        <time>2015-06-29T20:33:14.588Z</time>
      </trkpt>
      <trkpt lat="48.86107" lon="2.32952">
        <ele>82.2</ele>
        <time>2015-06-29T20:33:15.518Z</time>
      </trkpt>
      <trkpt lat="48.86105" lon="2.3296">
        <ele>82.3</ele>
        <time>2015-06-29T20:33:16.485Z</time>
      </trkpt>
      <trkpt lat="48.86103" lon="2.32966">
        <ele>82.4</ele>
        <time>2015-06-29T20:33:17.482Z</time>
      </trkpt>
      <trkpt lat="48.861" lon="2.32978">
        <ele>81.7</ele>
        <time>2015-06-29T20:33:19.539Z</time>
      </trkpt>
      <trkpt lat="48.86098" lon="2.32984">
        <ele>81.6</ele>
        <time>2015-06-29T20:33:20.577Z</time>
      </trkpt>
      <trkpt lat="48.86093" lon="2.32995">
        <ele>81.7</ele>
        <time>2015-06-29T20:33:22.491Z</time>
      </trkpt>
      <trkpt lat="48.86092" lon="2.33001">
        <ele>81.7</ele>
        <time>2015-06-29T20:33:23.522Z</time>
      </trkpt>
      <trkpt lat="48.8609" lon="2.33011">
        <ele>81.9</ele>
        <time>2015-06-29T20:33:25.543Z</time>
      </trkpt>
      <trkpt lat="48.86089" lon="2.33015">
        <ele>82</ele>
        <time>2015-06-29T20:33:26.565Z</time>
      </trkpt>
      <trkpt lat="48.86081" lon="2.33019">
        <ele>80.6</ele>
        <time>2015-06-29T20:33:30.525Z</time>
      </trkpt>
      <trkpt lat="48.86079" lon="2.33018">
        <ele>80.4</ele>
        <time>2015-06-29T20:33:31.538Z</time>
      </trkpt>
      <trkpt lat="48.86079" lon="2.33018">
        <ele>80.4</ele>
        <time>2015-06-29T20:34:32.577Z</time>
      </trkpt>
      <trkpt lat="48.86079" lon="2.33004">
        <ele>83</ele>
        <time>2015-06-29T20:34:33.574Z</time>
      </trkpt>
      <trkpt lat="48.86086" lon="2.32998">
        <ele>82.3</ele>
        <time>2015-06-29T20:34:37.564Z</time>
      </trkpt>
      <trkpt lat="48.86088" lon="2.32996">
        <ele>82.4</ele>
        <time>2015-06-29T20:34:38.574Z</time>
      </trkpt>
      <trkpt lat="48.86096" lon="2.32993">
        <ele>81.9</ele>
        <time>2015-06-29T20:34:43.596Z</time>
      </trkpt>
      <trkpt lat="48.86099" lon="2.32996">
        <ele>81</ele>
        <time>2015-06-29T20:34:44.682Z</time>
      </trkpt>
      <trkpt lat="48.86105" lon="2.33004">
        <ele>80.7</ele>
        <time>2015-06-29T20:35:00.585Z</time>
      </trkpt>
      <trkpt lat="48.86107" lon="2.33007">
        <ele>80.9</ele>
        <time>2015-06-29T20:35:01.556Z</time>
      </trkpt>
      <trkpt lat="48.86114" lon="2.33014">
        <ele>81.1</ele>
        <time>2015-06-29T20:35:04.543Z</time>
      </trkpt>
      <trkpt lat="48.86117" lon="2.33016">
        <ele>81.1</ele>
        <time>2015-06-29T20:35:05.507Z</time>
      </trkpt>
      <trkpt lat="48.86125" lon="2.33021">
        <ele>81.3</ele>
        <time>2015-06-29T20:35:07.559Z</time>
      </trkpt>
      <trkpt lat="48.86128" lon="2.33024">
        <ele>81.4</ele>
        <time>2015-06-29T20:35:08.647Z</time>
      </trkpt>
      <trkpt lat="48.86132" lon="2.33027">
        <ele>81.5</ele>
        <time>2015-06-29T20:35:09.511Z</time>
      </trkpt>
      <trkpt lat="48.86137" lon="2.33032">
        <ele>81.6</ele>
        <time>2015-06-29T20:35:10.513Z</time>
      </trkpt>
      <trkpt lat="48.86142" lon="2.33036">
        <ele>81.4</ele>
        <time>2015-06-29T20:35:11.702Z</time>
      </trkpt>
      <trkpt lat="48.86148" lon="2.33042">
        <ele>80.7</ele>
        <time>2015-06-29T20:35:12.532Z</time>
      </trkpt>
      <trkpt lat="48.86154" lon="2.33047">
        <ele>80.1</ele>
        <time>2015-06-29T20:35:13.541Z</time>
      </trkpt>
      <trkpt lat="48.8616" lon="2.33051">
        <ele>79.9</ele>
        <time>2015-06-29T20:35:14.568Z</time>
      </trkpt>
      <trkpt lat="48.86167" lon="2.33056">
        <ele>79.8</ele>
        <time>2015-06-29T20:35:15.570Z</time>
      </trkpt>
      <trkpt lat="48.86315" lon="2.3318">
        <ele>75.7</ele>
        <time>2015-06-29T20:35:35.588Z</time>
      </trkpt>
      <trkpt lat="48.86319" lon="2.33172">
        <ele>72.1</ele>
        <time>2015-06-29T20:35:36.566Z</time>
      </trkpt>
      <trkpt lat="48.86323" lon="2.33172">
        <ele>74.8</ele>
        <time>2015-06-29T20:35:37.589Z</time>
      </trkpt>
      <trkpt lat="48.86331" lon="2.33178">
        <ele>77.2</ele>
        <time>2015-06-29T20:35:39.513Z</time>
      </trkpt>
      <trkpt lat="48.86335" lon="2.33179">
        <ele>78</ele>
        <time>2015-06-29T20:35:40.572Z</time>
      </trkpt>
      <trkpt lat="48.86343" lon="2.33185">
        <ele>78.3</ele>
        <time>2015-06-29T20:35:42.519Z</time>
      </trkpt>
      <trkpt lat="48.86345" lon="2.33186">
        <ele>80.3</ele>
        <time>2015-06-29T20:35:43.534Z</time>
      </trkpt>
      <trkpt lat="48.86352" lon="2.33186">
        <ele>88.7</ele>
        <time>2015-06-29T20:35:47.525Z</time>
      </trkpt>
      <trkpt lat="48.86355" lon="2.33187">
        <ele>89.5</ele>
        <time>2015-06-29T20:35:48.564Z</time>
      </trkpt>
      <trkpt lat="48.86362" lon="2.3319">
        <ele>92.2</ele>
        <time>2015-06-29T20:35:51.520Z</time>
      </trkpt>
      <trkpt lat="48.86364" lon="2.33191">
        <ele>92.6</ele>
        <time>2015-06-29T20:35:52.526Z</time>
      </trkpt>
      <trkpt lat="48.86372" lon="2.33189">
        <ele>100.8</ele>
        <time>2015-06-29T20:36:43.542Z</time>
      </trkpt>
      <trkpt lat="48.86374" lon="2.3319">
        <ele>100.7</ele>
        <time>2015-06-29T20:36:44.593Z</time>
      </trkpt>
      <trkpt lat="48.86381" lon="2.33193">
        <ele>101.7</ele>
        <time>2015-06-29T20:36:47.530Z</time>
      </trkpt>
      <trkpt lat="48.86384" lon="2.33194">
        <ele>102.5</ele>
        <time>2015-06-29T20:36:48.542Z</time>
      </trkpt>
      <trkpt lat="48.8639" lon="2.33198">
        <ele>103.1</ele>
        <time>2015-06-29T20:36:50.560Z</time>
      </trkpt>
      <trkpt lat="48.86394" lon="2.332">
        <ele>103.3</ele>
        <time>2015-06-29T20:36:51.477Z</time>
      </trkpt>
      <trkpt lat="48.86397" lon="2.33203">
        <ele>103.3</ele>
        <time>2015-06-29T20:36:52.536Z</time>
      </trkpt>
      <trkpt lat="48.86401" lon="2.33207">
        <ele>103.5</ele>
        <time>2015-06-29T20:36:53.541Z</time>
      </trkpt>
      <trkpt lat="48.86405" lon="2.33211">
        <ele>103.7</ele>
        <time>2015-06-29T20:36:54.493Z</time>
      </trkpt>
      <trkpt lat="48.86409" lon="2.33216">
        <ele>103.8</ele>
        <time>2015-06-29T20:36:55.498Z</time>
      </trkpt>
      <trkpt lat="48.86414" lon="2.3322">
        <ele>103.8</ele>
        <time>2015-06-29T20:36:56.597Z</time>
      </trkpt>
      <trkpt lat="48.86419" lon="2.33224">
        <ele>103.9</ele>
        <time>2015-06-29T20:36:57.494Z</time>
      </trkpt>
      <trkpt lat="48.86423" lon="2.33228">
        <ele>103.8</ele>
        <time>2015-06-29T20:36:58.533Z</time>
      </trkpt>
      <trkpt lat="48.86426" lon="2.33233">
        <ele>103.7</ele>
        <time>2015-06-29T20:36:59.540Z</time>
      </trkpt>
      <trkpt lat="48.86432" lon="2.3324">
        <ele>103.3</ele>
        <time>2015-06-29T20:37:01.565Z</time>
      </trkpt>
      <trkpt lat="48.86436" lon="2.33243">
        <ele>102.7</ele>
        <time>2015-06-29T20:37:02.563Z</time>
      </trkpt>
      <trkpt lat="48.86443" lon="2.33246">
        <ele>102.5</ele>
        <time>2015-06-29T20:37:04.491Z</time>
      </trkpt>
      <trkpt lat="48.86446" lon="2.3325">
        <ele>102.6</ele>
        <time>2015-06-29T20:37:05.527Z</time>
      </trkpt>
      <trkpt lat="48.86452" lon="2.33257">
        <ele>102.4</ele>
        <time>2015-06-29T20:37:07.561Z</time>
      </trkpt>
      <trkpt lat="48.86455" lon="2.33261">
        <ele>102.4</ele>
        <time>2015-06-29T20:37:08.564Z</time>
      </trkpt>
      <trkpt lat="48.8645" lon="2.33272">
        <ele>102.7</ele>
        <time>2015-06-29T20:37:12.497Z</time>
      </trkpt>
      <trkpt lat="48.86447" lon="2.33275">
        <ele>102.7</ele>
        <time>2015-06-29T20:37:13.524Z</time>
      </trkpt>
      <trkpt lat="48.86441" lon="2.33283">
        <ele>103.5</ele>
        <time>2015-06-29T20:37:15.544Z</time>
      </trkpt>
      <trkpt lat="48.86439" lon="2.33286">
        <ele>103.8</ele>
        <time>2015-06-29T20:37:16.547Z</time>
      </trkpt>
      <trkpt lat="48.86434" lon="2.33296">
        <ele>104.6</ele>
        <time>2015-06-29T20:37:18.590Z</time>
      </trkpt>
      <trkpt lat="48.86431" lon="2.33301">
        <ele>105</ele>
        <time>2015-06-29T20:37:19.490Z</time>
      </trkpt>
      <trkpt lat="48.86426" lon="2.33311">
        <ele>105.2</ele>
        <time>2015-06-29T20:37:21.541Z</time>
      </trkpt>
      <trkpt lat="48.86423" lon="2.33318">
        <ele>105.4</ele>
        <time>2015-06-29T20:37:22.554Z</time>
      </trkpt>
      <trkpt lat="48.8642" lon="2.33326">
        <ele>105.5</ele>
        <time>2015-06-29T20:37:23.497Z</time>
      </trkpt>
      <trkpt lat="48.86417" lon="2.33333">
        <ele>105.4</ele>
        <time>2015-06-29T20:37:24.506Z</time>
      </trkpt>
      <trkpt lat="48.86414" lon="2.3334">
        <ele>105.5</ele>
        <time>2015-06-29T20:37:25.507Z</time>
      </trkpt>
      <trkpt lat="48.86413" lon="2.33347">
        <ele>105.3</ele>
        <time>2015-06-29T20:37:26.567Z</time>
      </trkpt>
      <trkpt lat="48.86412" lon="2.33355">
        <ele>104.9</ele>
        <time>2015-06-29T20:37:27.541Z</time>
      </trkpt>
      <trkpt lat="48.8641" lon="2.33362">
        <ele>104.9</ele>
        <time>2015-06-29T20:37:28.555Z</time>
      </trkpt>
      <trkpt lat="48.86406" lon="2.33374">
        <ele>105</ele>
        <time>2015-06-29T20:37:30.489Z</time>
      </trkpt>
      <trkpt lat="48.86404" lon="2.33381">
        <ele>104.8</ele>
        <time>2015-06-29T20:37:31.492Z</time>
      </trkpt>
      <trkpt lat="48.86402" lon="2.33389">
        <ele>104.6</ele>
        <time>2015-06-29T20:37:32.614Z</time>
      </trkpt>
      <trkpt lat="48.864" lon="2.33395">
        <ele>104.4</ele>
        <time>2015-06-29T20:37:33.478Z</time>
      </trkpt>
      <trkpt lat="48.86399" lon="2.33407">
        <ele>103</ele>
        <time>2015-06-29T20:37:34.490Z</time>
      </trkpt>
      <trkpt lat="48.86397" lon="2.33414">
        <ele>102.9</ele>
        <time>2015-06-29T20:37:35.498Z</time>
      </trkpt>
      <trkpt lat="48.86397" lon="2.33422">
        <ele>103.1</ele>
        <time>2015-06-29T20:37:36.507Z</time>
      </trkpt>
      <trkpt lat="48.86394" lon="2.33426">
        <ele>103.1</ele>
        <time>2015-06-29T20:37:37.546Z</time>
      </trkpt>
      <trkpt lat="48.86386" lon="2.33432">
        <ele>103.6</ele>
        <time>2015-06-29T20:37:39.569Z</time>
      </trkpt>
      <trkpt lat="48.86382" lon="2.33438">
        <ele>103.6</ele>
        <time>2015-06-29T20:37:40.574Z</time>
      </trkpt>
      <trkpt lat="48.86377" lon="2.33448">
        <ele>103.4</ele>
        <time>2015-06-29T20:37:42.499Z</time>
      </trkpt>
      <trkpt lat="48.86377" lon="2.33457">
        <ele>101.7</ele>
        <time>2015-06-29T20:37:43.553Z</time>
      </trkpt>
      <trkpt lat="48.8638" lon="2.33465">
        <ele>99.6</ele>
        <time>2015-06-29T20:37:44.442Z</time>
      </trkpt>
      <trkpt lat="48.8638" lon="2.33471">
        <ele>99.8</ele>
        <time>2015-06-29T20:37:45.496Z</time>
      </trkpt>
      <trkpt lat="48.86379" lon="2.33477">
        <ele>99.5</ele>
        <time>2015-06-29T20:37:46.505Z</time>
      </trkpt>
      <trkpt lat="48.86376" lon="2.33484">
        <ele>98.8</ele>
        <time>2015-06-29T20:37:47.553Z</time>
      </trkpt>
      <trkpt lat="48.86373" lon="2.33491">
        <ele>98.3</ele>
        <time>2015-06-29T20:37:48.568Z</time>
      </trkpt>
      <trkpt lat="48.86371" lon="2.33497">
        <ele>98.3</ele>
        <time>2015-06-29T20:37:49.535Z</time>
      </trkpt>
      <trkpt lat="48.86368" lon="2.33504">
        <ele>97.7</ele>
        <time>2015-06-29T20:37:50.541Z</time>
      </trkpt>
      <trkpt lat="48.86366" lon="2.3351">
        <ele>97</ele>
        <time>2015-06-29T20:37:51.549Z</time>
      </trkpt>
      <trkpt lat="48.86363" lon="2.33515">
        <ele>96.4</ele>
        <time>2015-06-29T20:37:52.549Z</time>
      </trkpt>
      <trkpt lat="48.86361" lon="2.33521">
        <ele>96.2</ele>
        <time>2015-06-29T20:37:53.568Z</time>
      </trkpt>
      <trkpt lat="48.86358" lon="2.33526">
        <ele>96.1</ele>
        <time>2015-06-29T20:37:54.582Z</time>
      </trkpt>
      <trkpt lat="48.86354" lon="2.33533">
        <ele>96.2</ele>
        <time>2015-06-29T20:37:55.581Z</time>
      </trkpt>
      <trkpt lat="48.86349" lon="2.33539">
        <ele>96.3</ele>
        <time>2015-06-29T20:37:56.585Z</time>
      </trkpt>
      <trkpt lat="48.86346" lon="2.33544">
        <ele>96.2</ele>
        <time>2015-06-29T20:37:57.597Z</time>
      </trkpt>
      <trkpt lat="48.8634" lon="2.33554">
        <ele>96</ele>
        <time>2015-06-29T20:37:59.539Z</time>
      </trkpt>
      <trkpt lat="48.86338" lon="2.33559">
        <ele>95.7</ele>
        <time>2015-06-29T20:38:00.579Z</time>
      </trkpt>
      <trkpt lat="48.86334" lon="2.33568">
        <ele>95.8</ele>
        <time>2015-06-29T20:38:02.539Z</time>
      </trkpt>
      <trkpt lat="48.86333" lon="2.33572">
        <ele>96.3</ele>
        <time>2015-06-29T20:38:03.542Z</time>
      </trkpt>
      <trkpt lat="48.8633" lon="2.33581">
        <ele>96</ele>
        <time>2015-06-29T20:38:05.525Z</time>
      </trkpt>
      <trkpt lat="48.86329" lon="2.33585">
        <ele>95.6</ele>
        <time>2015-06-29T20:38:06.546Z</time>
      </trkpt>
      <trkpt lat="48.86329" lon="2.33595">
        <ele>96.1</ele>
        <time>2015-06-29T20:38:08.572Z</time>
      </trkpt>
      <trkpt lat="48.86328" lon="2.33601">
        <ele>97</ele>
        <time>2015-06-29T20:38:09.533Z</time>
      </trkpt>
      <trkpt lat="48.86324" lon="2.33611">
        <ele>97.5</ele>
        <time>2015-06-29T20:38:11.551Z</time>
      </trkpt>
      <trkpt lat="48.86322" lon="2.33616">
        <ele>97.8</ele>
        <time>2015-06-29T20:38:12.586Z</time>
      </trkpt>
      <trkpt lat="48.86317" lon="2.33626">
        <ele>97.9</ele>
        <time>2015-06-29T20:38:14.543Z</time>
      </trkpt>
      <trkpt lat="48.86314" lon="2.33631">
        <ele>97.7</ele>
        <time>2015-06-29T20:38:15.548Z</time>
      </trkpt>
      <trkpt lat="48.86309" lon="2.3364">
        <ele>97</ele>
        <time>2015-06-29T20:38:17.546Z</time>
      </trkpt>
      <trkpt lat="48.86307" lon="2.33644">
        <ele>97</ele>
        <time>2015-06-29T20:38:18.551Z</time>
      </trkpt>
      <trkpt lat="48.86304" lon="2.33653">
        <ele>95</ele>
        <time>2015-06-29T20:38:20.566Z</time>
      </trkpt>
      <trkpt lat="48.86303" lon="2.33657">
        <ele>94.4</ele>
        <time>2015-06-29T20:38:21.568Z</time>
      </trkpt>
      <trkpt lat="48.86301" lon="2.33667">
        <ele>92.8</ele>
        <time>2015-06-29T20:38:23.575Z</time>
      </trkpt>
      <trkpt lat="48.86299" lon="2.33673">
        <ele>92.7</ele>
        <time>2015-06-29T20:38:24.584Z</time>
      </trkpt>
      <trkpt lat="48.86296" lon="2.33682">
        <ele>92</ele>
        <time>2015-06-29T20:38:26.550Z</time>
      </trkpt>
      <trkpt lat="48.86294" lon="2.33688">
        <ele>91.5</ele>
        <time>2015-06-29T20:38:27.555Z</time>
      </trkpt>
      <trkpt lat="48.86291" lon="2.33699">
        <ele>91</ele>
        <time>2015-06-29T20:38:29.681Z</time>
      </trkpt>
      <trkpt lat="48.86289" lon="2.33704">
        <ele>90.6</ele>
        <time>2015-06-29T20:38:30.572Z</time>
      </trkpt>
      <trkpt lat="48.86286" lon="2.3371">
        <ele>90.7</ele>
        <time>2015-06-29T20:38:31.544Z</time>
      </trkpt>
      <trkpt lat="48.86283" lon="2.33716">
        <ele>90.6</ele>
        <time>2015-06-29T20:38:32.629Z</time>
      </trkpt>
      <trkpt lat="48.86281" lon="2.33722">
        <ele>90.8</ele>
        <time>2015-06-29T20:38:33.525Z</time>
      </trkpt>
      <trkpt lat="48.86279" lon="2.33729">
        <ele>90.8</ele>
        <time>2015-06-29T20:38:34.541Z</time>
      </trkpt>
      <trkpt lat="48.86278" lon="2.33736">
        <ele>90.9</ele>
        <time>2015-06-29T20:38:35.602Z</time>
      </trkpt>
      <trkpt lat="48.86276" lon="2.33742">
        <ele>91.2</ele>
        <time>2015-06-29T20:38:36.521Z</time>
      </trkpt>
      <trkpt lat="48.86272" lon="2.33754">
        <ele>91.9</ele>
        <time>2015-06-29T20:38:38.535Z</time>
      </trkpt>
      <trkpt lat="48.86271" lon="2.33761">
        <ele>92.3</ele>
        <time>2015-06-29T20:38:39.556Z</time>
      </trkpt>
      <trkpt lat="48.86266" lon="2.33773">
        <ele>93.2</ele>
        <time>2015-06-29T20:38:41.582Z</time>
      </trkpt>
      <trkpt lat="48.86264" lon="2.33779">
        <ele>93.5</ele>
        <time>2015-06-29T20:38:42.601Z</time>
      </trkpt>
      <trkpt lat="48.86263" lon="2.33786">
        <ele>94.2</ele>
        <time>2015-06-29T20:38:43.581Z</time>
      </trkpt>
      <trkpt lat="48.8626" lon="2.33792">
        <ele>95</ele>
        <time>2015-06-29T20:38:44.626Z</time>
      </trkpt>
      <trkpt lat="48.8626" lon="2.33801">
        <ele>95.7</ele>
        <time>2015-06-29T20:38:45.538Z</time>
      </trkpt>
      <trkpt lat="48.86259" lon="2.33807">
        <ele>96.1</ele>
        <time>2015-06-29T20:38:46.492Z</time>
      </trkpt>
      <trkpt lat="48.86256" lon="2.33812">
        <ele>96.8</ele>
        <time>2015-06-29T20:38:47.574Z</time>
      </trkpt>
      <trkpt lat="48.86253" lon="2.33818">
        <ele>97.7</ele>
        <time>2015-06-29T20:38:48.466Z</time>
      </trkpt>
      <trkpt lat="48.8625" lon="2.33824">
        <ele>97.8</ele>
        <time>2015-06-29T20:38:49.555Z</time>
      </trkpt>
      <trkpt lat="48.86248" lon="2.33831">
        <ele>98.2</ele>
        <time>2015-06-29T20:38:50.580Z</time>
      </trkpt>
      <trkpt lat="48.86244" lon="2.33838">
        <ele>98.5</ele>
        <time>2015-06-29T20:38:51.492Z</time>
      </trkpt>
      <trkpt lat="48.86242" lon="2.33845">
        <ele>98.9</ele>
        <time>2015-06-29T20:38:52.495Z</time>
      </trkpt>
      <trkpt lat="48.86239" lon="2.33853">
        <ele>99.3</ele>
        <time>2015-06-29T20:38:53.500Z</time>
      </trkpt>
      <trkpt lat="48.86237" lon="2.3386">
        <ele>99.9</ele>
        <time>2015-06-29T20:38:54.503Z</time>
      </trkpt>
      <trkpt lat="48.86236" lon="2.33869">
        <ele>100</ele>
        <time>2015-06-29T20:38:55.508Z</time>
      </trkpt>
      <trkpt lat="48.86236" lon="2.3388">
        <ele>99.1</ele>
        <time>2015-06-29T20:38:56.580Z</time>
      </trkpt>
      <trkpt lat="48.86237" lon="2.33891">
        <ele>98.3</ele>
        <time>2015-06-29T20:38:57.558Z</time>
      </trkpt>
      <trkpt lat="48.86236" lon="2.33898">
        <ele>98.7</ele>
        <time>2015-06-29T20:38:58.559Z</time>
      </trkpt>
      <trkpt lat="48.86235" lon="2.33904">
        <ele>100.1</ele>
        <time>2015-06-29T20:38:59.496Z</time>
      </trkpt>
      <trkpt lat="48.86233" lon="2.33911">
        <ele>100.7</ele>
        <time>2015-06-29T20:39:00.499Z</time>
      </trkpt>
      <trkpt lat="48.86231" lon="2.33919">
        <ele>101</ele>
        <time>2015-06-29T20:39:01.509Z</time>
      </trkpt>
      <trkpt lat="48.86228" lon="2.33925">
        <ele>101.3</ele>
        <time>2015-06-29T20:39:02.579Z</time>
      </trkpt>
      <trkpt lat="48.86223" lon="2.3393">
        <ele>102.1</ele>
        <time>2015-06-29T20:39:03.496Z</time>
      </trkpt>
      <trkpt lat="48.86221" lon="2.33936">
        <ele>102.7</ele>
        <time>2015-06-29T20:39:04.509Z</time>
      </trkpt>
      <trkpt lat="48.86219" lon="2.33943">
        <ele>103.2</ele>
        <time>2015-06-29T20:39:05.521Z</time>
      </trkpt>
      <trkpt lat="48.86219" lon="2.33953">
        <ele>103</ele>
        <time>2015-06-29T20:39:06.537Z</time>
      </trkpt>
      <trkpt lat="48.86216" lon="2.33962">
        <ele>102.8</ele>
        <time>2015-06-29T20:39:07.546Z</time>
      </trkpt>
      <trkpt lat="48.86213" lon="2.33971">
        <ele>102.9</ele>
        <time>2015-06-29T20:39:08.557Z</time>
      </trkpt>
      <trkpt lat="48.86209" lon="2.33978">
        <ele>102.7</ele>
        <time>2015-06-29T20:39:09.575Z</time>
      </trkpt>
      <trkpt lat="48.86206" lon="2.33986">
        <ele>102.4</ele>
        <time>2015-06-29T20:39:10.589Z</time>
      </trkpt>
      <trkpt lat="48.86204" lon="2.33993">
        <ele>102.1</ele>
        <time>2015-06-29T20:39:11.489Z</time>
      </trkpt>
      <trkpt lat="48.86203" lon="2.34002">
        <ele>102</ele>
        <time>2015-06-29T20:39:12.493Z</time>
      </trkpt>
      <trkpt lat="48.862" lon="2.3401">
        <ele>101.5</ele>
        <time>2015-06-29T20:39:13.511Z</time>
      </trkpt>
      <trkpt lat="48.86197" lon="2.34018">
        <ele>101.2</ele>
        <time>2015-06-29T20:39:14.564Z</time>
      </trkpt>
      <trkpt lat="48.86194" lon="2.34024">
        <ele>100.9</ele>
        <time>2015-06-29T20:39:15.602Z</time>
      </trkpt>
      <trkpt lat="48.86194" lon="2.34031">
        <ele>100.9</ele>
        <time>2015-06-29T20:39:16.503Z</time>
      </trkpt>
      <trkpt lat="48.8619" lon="2.34044">
        <ele>100.3</ele>
        <time>2015-06-29T20:39:18.493Z</time>
      </trkpt>
      <trkpt lat="48.86189" lon="2.34049">
        <ele>100.4</ele>
        <time>2015-06-29T20:39:19.498Z</time>
      </trkpt>
      <trkpt lat="48.86188" lon="2.34055">
        <ele>100.3</ele>
        <time>2015-06-29T20:39:20.598Z</time>
      </trkpt>
      <trkpt lat="48.86187" lon="2.34063">
        <ele>100</ele>
        <time>2015-06-29T20:39:21.560Z</time>
      </trkpt>
      <trkpt lat="48.86185" lon="2.34071">
        <ele>99.9</ele>
        <time>2015-06-29T20:39:22.579Z</time>
      </trkpt>
      <trkpt lat="48.86183" lon="2.34079">
        <ele>99.8</ele>
        <time>2015-06-29T20:39:23.486Z</time>
      </trkpt>
      <trkpt lat="48.86181" lon="2.34086">
        <ele>99.3</ele>
        <time>2015-06-29T20:39:24.495Z</time>
      </trkpt>
      <trkpt lat="48.8618" lon="2.34095">
        <ele>97.8</ele>
        <time>2015-06-29T20:39:25.522Z</time>
      </trkpt>
      <trkpt lat="48.86178" lon="2.34103">
        <ele>97.2</ele>
        <time>2015-06-29T20:39:26.579Z</time>
      </trkpt>
      <trkpt lat="48.86179" lon="2.34111">
        <ele>97.2</ele>
        <time>2015-06-29T20:39:27.499Z</time>
      </trkpt>
      <trkpt lat="48.86183" lon="2.34118">
        <ele>97.9</ele>
        <time>2015-06-29T20:39:28.492Z</time>
      </trkpt>
      <trkpt lat="48.86185" lon="2.34124">
        <ele>98.3</ele>
        <time>2015-06-29T20:39:29.507Z</time>
      </trkpt>
      <trkpt lat="48.86179" lon="2.34127">
        <ele>99.5</ele>
        <time>2015-06-29T20:39:30.528Z</time>
      </trkpt>
      <trkpt lat="48.86177" lon="2.34132">
        <ele>100</ele>
        <time>2015-06-29T20:39:31.538Z</time>
      </trkpt>
      <trkpt lat="48.86173" lon="2.34138">
        <ele>100.5</ele>
        <time>2015-06-29T20:39:32.543Z</time>
      </trkpt>
      <trkpt lat="48.86171" lon="2.34144">
        <ele>100.4</ele>
        <time>2015-06-29T20:39:33.554Z</time>
      </trkpt>
      <trkpt lat="48.86168" lon="2.34151">
        <ele>100.2</ele>
        <time>2015-06-29T20:39:34.484Z</time>
      </trkpt>
      <trkpt lat="48.86165" lon="2.34156">
        <ele>100.2</ele>
        <time>2015-06-29T20:39:35.482Z</time>
      </trkpt>
      <trkpt lat="48.86163" lon="2.34162">
        <ele>100.3</ele>
        <time>2015-06-29T20:39:36.512Z</time>
      </trkpt>
      <trkpt lat="48.86162" lon="2.3417">
        <ele>100.3</ele>
        <time>2015-06-29T20:39:37.516Z</time>
      </trkpt>
      <trkpt lat="48.8616" lon="2.34177">
        <ele>100.4</ele>
        <time>2015-06-29T20:39:38.555Z</time>
      </trkpt>
      <trkpt lat="48.86159" lon="2.34185">
        <ele>100.2</ele>
        <time>2015-06-29T20:39:39.558Z</time>
      </trkpt>
      <trkpt lat="48.86159" lon="2.34192">
        <ele>100</ele>
        <time>2015-06-29T20:39:40.487Z</time>
      </trkpt>
      <trkpt lat="48.86158" lon="2.34199">
        <ele>99.6</ele>
        <time>2015-06-29T20:39:41.480Z</time>
      </trkpt>
      <trkpt lat="48.86157" lon="2.34206">
        <ele>99.5</ele>
        <time>2015-06-29T20:39:42.483Z</time>
      </trkpt>
      <trkpt lat="48.86157" lon="2.34214">
        <ele>99.5</ele>
        <time>2015-06-29T20:39:43.488Z</time>
      </trkpt>
      <trkpt lat="48.86159" lon="2.34222">
        <ele>99.6</ele>
        <time>2015-06-29T20:39:44.536Z</time>
      </trkpt>
      <trkpt lat="48.86158" lon="2.3423">
        <ele>99.5</ele>
        <time>2015-06-29T20:39:45.520Z</time>
      </trkpt>
      <trkpt lat="48.86156" lon="2.34237">
        <ele>99.3</ele>
        <time>2015-06-29T20:39:46.531Z</time>
      </trkpt>
      <trkpt lat="48.86154" lon="2.34243">
        <ele>99.1</ele>
        <time>2015-06-29T20:39:47.539Z</time>
      </trkpt>
      <trkpt lat="48.86153" lon="2.34249">
        <ele>99.3</ele>
        <time>2015-06-29T20:39:48.553Z</time>
      </trkpt>
      <trkpt lat="48.86151" lon="2.34257">
        <ele>99.3</ele>
        <time>2015-06-29T20:39:49.577Z</time>
      </trkpt>
      <trkpt lat="48.8615" lon="2.34263">
        <ele>99.3</ele>
        <time>2015-06-29T20:39:50.576Z</time>
      </trkpt>
      <trkpt lat="48.86147" lon="2.3427">
        <ele>99.6</ele>
        <time>2015-06-29T20:39:51.499Z</time>
      </trkpt>
      <trkpt lat="48.86147" lon="2.34278">
        <ele>100</ele>
        <time>2015-06-29T20:39:52.493Z</time>
      </trkpt>
      <trkpt lat="48.86145" lon="2.34284">
        <ele>99.9</ele>
        <time>2015-06-29T20:39:53.502Z</time>
      </trkpt>
      <trkpt lat="48.86145" lon="2.34292">
        <ele>99.7</ele>
        <time>2015-06-29T20:39:54.508Z</time>
      </trkpt>
      <trkpt lat="48.86146" lon="2.343">
        <ele>99.6</ele>
        <time>2015-06-29T20:39:55.516Z</time>
      </trkpt>
      <trkpt lat="48.86148" lon="2.34309">
        <ele>99.2</ele>
        <time>2015-06-29T20:39:56.528Z</time>
      </trkpt>
      <trkpt lat="48.86149" lon="2.34316">
        <ele>99.1</ele>
        <time>2015-06-29T20:39:57.538Z</time>
      </trkpt>
      <trkpt lat="48.86149" lon="2.34324">
        <ele>99.2</ele>
        <time>2015-06-29T20:39:58.550Z</time>
      </trkpt>
      <trkpt lat="48.8615" lon="2.34332">
        <ele>99.2</ele>
        <time>2015-06-29T20:39:59.577Z</time>
      </trkpt>
      <trkpt lat="48.86149" lon="2.34339">
        <ele>99.5</ele>
        <time>2015-06-29T20:40:00.488Z</time>
      </trkpt>
      <trkpt lat="48.86147" lon="2.34346">
        <ele>99.3</ele>
        <time>2015-06-29T20:40:01.485Z</time>
      </trkpt>
      <trkpt lat="48.86145" lon="2.34354">
        <ele>99.2</ele>
        <time>2015-06-29T20:40:02.526Z</time>
      </trkpt>
      <trkpt lat="48.86143" lon="2.34361">
        <ele>98.9</ele>
        <time>2015-06-29T20:40:03.526Z</time>
      </trkpt>
      <trkpt lat="48.86141" lon="2.34368">
        <ele>98.7</ele>
        <time>2015-06-29T20:40:04.537Z</time>
      </trkpt>
      <trkpt lat="48.86139" lon="2.34376">
        <ele>98.7</ele>
        <time>2015-06-29T20:40:05.549Z</time>
      </trkpt>
      <trkpt lat="48.86136" lon="2.34383">
        <ele>98.3</ele>
        <time>2015-06-29T20:40:06.470Z</time>
      </trkpt>
      <trkpt lat="48.86131" lon="2.3439">
        <ele>97.9</ele>
        <time>2015-06-29T20:40:07.478Z</time>
      </trkpt>
      <trkpt lat="48.86132" lon="2.34398">
        <ele>98.3</ele>
        <time>2015-06-29T20:40:08.514Z</time>
      </trkpt>
      <trkpt lat="48.86131" lon="2.34404">
        <ele>98.3</ele>
        <time>2015-06-29T20:40:09.537Z</time>
      </trkpt>
      <trkpt lat="48.86132" lon="2.34412">
        <ele>98.6</ele>
        <time>2015-06-29T20:40:10.540Z</time>
      </trkpt>
      <trkpt lat="48.86133" lon="2.3442">
        <ele>99.1</ele>
        <time>2015-06-29T20:40:11.551Z</time>
      </trkpt>
      <trkpt lat="48.86132" lon="2.34427">
        <ele>99.8</ele>
        <time>2015-06-29T20:40:12.559Z</time>
      </trkpt>
      <trkpt lat="48.86129" lon="2.34434">
        <ele>100.3</ele>
        <time>2015-06-29T20:40:13.565Z</time>
      </trkpt>
      <trkpt lat="48.86124" lon="2.34442">
        <ele>100.2</ele>
        <time>2015-06-29T20:40:14.592Z</time>
      </trkpt>
      <trkpt lat="48.86121" lon="2.3445">
        <ele>100</ele>
        <time>2015-06-29T20:40:15.485Z</time>
      </trkpt>
      <trkpt lat="48.86119" lon="2.3446">
        <ele>99.3</ele>
        <time>2015-06-29T20:40:16.487Z</time>
      </trkpt>
      <trkpt lat="48.86117" lon="2.34469">
        <ele>99</ele>
        <time>2015-06-29T20:40:17.495Z</time>
      </trkpt>
      <trkpt lat="48.86114" lon="2.34478">
        <ele>99</ele>
        <time>2015-06-29T20:40:18.503Z</time>
      </trkpt>
      <trkpt lat="48.86113" lon="2.34486">
        <ele>99.5</ele>
        <time>2015-06-29T20:40:19.512Z</time>
      </trkpt>
      <trkpt lat="48.86109" lon="2.34498">
        <ele>100.6</ele>
        <time>2015-06-29T20:40:21.544Z</time>
      </trkpt>
      <trkpt lat="48.86107" lon="2.34505">
        <ele>100.5</ele>
        <time>2015-06-29T20:40:22.551Z</time>
      </trkpt>
      <trkpt lat="48.86105" lon="2.34511">
        <ele>100.1</ele>
        <time>2015-06-29T20:40:23.491Z</time>
      </trkpt>
      <trkpt lat="48.86103" lon="2.34518">
        <ele>100.2</ele>
        <time>2015-06-29T20:40:24.490Z</time>
      </trkpt>
      <trkpt lat="48.86102" lon="2.34526">
        <ele>100.5</ele>
        <time>2015-06-29T20:40:25.498Z</time>
      </trkpt>
      <trkpt lat="48.86101" lon="2.34533">
        <ele>100.7</ele>
        <time>2015-06-29T20:40:26.537Z</time>
      </trkpt>
      <trkpt lat="48.861" lon="2.34541">
        <ele>101</ele>
        <time>2015-06-29T20:40:27.547Z</time>
      </trkpt>
      <trkpt lat="48.86099" lon="2.34548">
        <ele>101.2</ele>
        <time>2015-06-29T20:40:28.555Z</time>
      </trkpt>
      <trkpt lat="48.86096" lon="2.34553">
        <ele>102.1</ele>
        <time>2015-06-29T20:40:29.567Z</time>
      </trkpt>
      <trkpt lat="48.86093" lon="2.3456">
        <ele>102.4</ele>
        <time>2015-06-29T20:40:30.575Z</time>
      </trkpt>
      <trkpt lat="48.8609" lon="2.34571">
        <ele>102.2</ele>
        <time>2015-06-29T20:40:31.501Z</time>
      </trkpt>
      <trkpt lat="48.86087" lon="2.34581">
        <ele>101.6</ele>
        <time>2015-06-29T20:40:32.610Z</time>
      </trkpt>
      <trkpt lat="48.86083" lon="2.34588">
        <ele>101.5</ele>
        <time>2015-06-29T20:40:33.491Z</time>
      </trkpt>
      <trkpt lat="48.86077" lon="2.34595">
        <ele>102.1</ele>
        <time>2015-06-29T20:40:34.680Z</time>
      </trkpt>
      <trkpt lat="48.8607" lon="2.346">
        <ele>102.2</ele>
        <time>2015-06-29T20:40:35.514Z</time>
      </trkpt>
      <trkpt lat="48.86064" lon="2.34605">
        <ele>102.1</ele>
        <time>2015-06-29T20:40:36.528Z</time>
      </trkpt>
      <trkpt lat="48.86058" lon="2.3461">
        <ele>102.2</ele>
        <time>2015-06-29T20:40:37.529Z</time>
      </trkpt>
      <trkpt lat="48.86051" lon="2.34614">
        <ele>101.8</ele>
        <time>2015-06-29T20:40:38.525Z</time>
      </trkpt>
      <trkpt lat="48.86044" lon="2.34618">
        <ele>101.4</ele>
        <time>2015-06-29T20:40:39.537Z</time>
      </trkpt>
      <trkpt lat="48.86037" lon="2.34622">
        <ele>101</ele>
        <time>2015-06-29T20:40:40.557Z</time>
      </trkpt>
      <trkpt lat="48.86031" lon="2.34626">
        <ele>100.7</ele>
        <time>2015-06-29T20:40:41.560Z</time>
      </trkpt>
      <trkpt lat="48.86025" lon="2.3463">
        <ele>100.5</ele>
        <time>2015-06-29T20:40:42.570Z</time>
      </trkpt>
      <trkpt lat="48.8602" lon="2.34634">
        <ele>100.6</ele>
        <time>2015-06-29T20:40:43.494Z</time>
      </trkpt>
      <trkpt lat="48.86016" lon="2.34638">
        <ele>100.9</ele>
        <time>2015-06-29T20:40:44.580Z</time>
      </trkpt>
      <trkpt lat="48.86011" lon="2.34641">
        <ele>101.1</ele>
        <time>2015-06-29T20:40:45.490Z</time>
      </trkpt>
      <trkpt lat="48.86006" lon="2.34645">
        <ele>101.5</ele>
        <time>2015-06-29T20:40:46.488Z</time>
      </trkpt>
      <trkpt lat="48.86002" lon="2.34651">
        <ele>102.6</ele>
        <time>2015-06-29T20:40:47.681Z</time>
      </trkpt>
      <trkpt lat="48.85998" lon="2.34654">
        <ele>103</ele>
        <time>2015-06-29T20:40:48.541Z</time>
      </trkpt>
      <trkpt lat="48.85991" lon="2.34663">
        <ele>104</ele>
        <time>2015-06-29T20:40:50.577Z</time>
      </trkpt>
      <trkpt lat="48.85988" lon="2.34665">
        <ele>103.8</ele>
        <time>2015-06-29T20:40:51.521Z</time>
      </trkpt>
      <trkpt lat="48.85981" lon="2.34672">
        <ele>104.6</ele>
        <time>2015-06-29T20:40:53.491Z</time>
      </trkpt>
      <trkpt lat="48.85977" lon="2.34676">
        <ele>104.6</ele>
        <time>2015-06-29T20:40:54.513Z</time>
      </trkpt>
      <trkpt lat="48.8597" lon="2.34683">
        <ele>104.3</ele>
        <time>2015-06-29T20:40:56.538Z</time>
      </trkpt>
      <trkpt lat="48.85967" lon="2.34688">
        <ele>103.9</ele>
        <time>2015-06-29T20:40:57.553Z</time>
      </trkpt>
      <trkpt lat="48.85961" lon="2.34693">
        <ele>103.5</ele>
        <time>2015-06-29T20:40:59.491Z</time>
      </trkpt>
      <trkpt lat="48.85959" lon="2.34696">
        <ele>103.1</ele>
        <time>2015-06-29T20:41:00.500Z</time>
      </trkpt>
      <trkpt lat="48.85956" lon="2.34708">
        <ele>102</ele>
        <time>2015-06-29T20:41:04.551Z</time>
      </trkpt>
      <trkpt lat="48.85954" lon="2.3471">
        <ele>102.4</ele>
        <time>2015-06-29T20:41:05.510Z</time>
      </trkpt>
      <trkpt lat="48.85948" lon="2.34717">
        <ele>102.6</ele>
        <time>2015-06-29T20:41:08.601Z</time>
      </trkpt>
      <trkpt lat="48.85947" lon="2.34718">
        <ele>102</ele>
        <time>2015-06-29T20:41:09.523Z</time>
      </trkpt>
      <trkpt lat="48.85955" lon="2.34718">
        <ele>106.3</ele>
        <time>2015-06-29T20:41:34.489Z</time>
      </trkpt>
      <trkpt lat="48.85956" lon="2.3472">
        <ele>106.5</ele>
        <time>2015-06-29T20:41:35.513Z</time>
      </trkpt>
      <trkpt lat="48.85959" lon="2.34724">
        <ele>106.6</ele>
        <time>2015-06-29T20:41:36.535Z</time>
      </trkpt>
      <trkpt lat="48.8596" lon="2.34725">
        <ele>106.6</ele>
        <time>2015-06-29T20:41:37.576Z</time>
      </trkpt>
      <trkpt lat="48.85961" lon="2.34727">
        <ele>106.7</ele>
        <time>2015-06-29T20:42:35.014Z</time>
      </trkpt>
    </trkseg>
  </trk>
  <trk>
    <name><![CDATA[2 Rue Saint-Denis]]></name>
    <extensions>
      <line xmlns="http://www.topografix.com/GPX/gpx_style/0/2">
        <color>000000</color>
      </line>
    </extensions>
    <trkseg>
      <trkpt lat="48.85796" lon="2.3473">
        <ele>96.7</ele>
        <time>2015-06-15T18:20:57.207Z</time>
      </trkpt>
      <trkpt lat="48.85803" lon="2.34731">
        <ele>97.1</ele>
        <time>2015-06-15T18:21:00.293Z</time>
      </trkpt>
      <trkpt lat="48.85806" lon="2.34732">
        <ele>97.4</ele>
        <time>2015-06-15T18:21:01.278Z</time>
      </trkpt>
      <trkpt lat="48.85813" lon="2.34734">
        <ele>98.2</ele>
        <time>2015-06-15T18:21:03.372Z</time>
      </trkpt>
      <trkpt lat="48.85817" lon="2.34735">
        <ele>98.4</ele>
        <time>2015-06-15T18:21:04.269Z</time>
      </trkpt>
      <trkpt lat="48.85826" lon="2.34735">
        <ele>98.7</ele>
        <time>2015-06-15T18:21:06.295Z</time>
      </trkpt>
      <trkpt lat="48.8583" lon="2.34735">
        <ele>98.9</ele>
        <time>2015-06-15T18:21:07.304Z</time>
      </trkpt>
      <trkpt lat="48.85838" lon="2.34736">
        <ele>99.4</ele>
        <time>2015-06-15T18:21:09.454Z</time>
      </trkpt>
      <trkpt lat="48.85842" lon="2.34737">
        <ele>99.6</ele>
        <time>2015-06-15T18:21:10.278Z</time>
      </trkpt>
      <trkpt lat="48.85851" lon="2.3474">
        <ele>99.8</ele>
        <time>2015-06-15T18:21:12.334Z</time>
      </trkpt>
      <trkpt lat="48.85854" lon="2.34741">
        <ele>100</ele>
        <time>2015-06-15T18:21:13.450Z</time>
      </trkpt>
      <trkpt lat="48.85862" lon="2.3474">
        <ele>100.2</ele>
        <time>2015-06-15T18:21:15.279Z</time>
      </trkpt>
      <trkpt lat="48.85866" lon="2.34739">
        <ele>100.4</ele>
        <time>2015-06-15T18:21:16.282Z</time>
      </trkpt>
      <trkpt lat="48.85874" lon="2.34735">
        <ele>100.5</ele>
        <time>2015-06-15T18:21:18.508Z</time>
      </trkpt>
      <trkpt lat="48.85877" lon="2.34731">
        <ele>100.6</ele>
        <time>2015-06-15T18:21:19.292Z</time>
      </trkpt>
      <trkpt lat="48.85881" lon="2.34727">
        <ele>100</ele>
        <time>2015-06-15T18:21:20.326Z</time>
      </trkpt>
      <trkpt lat="48.85885" lon="2.34722">
        <ele>99.4</ele>
        <time>2015-06-15T18:21:21.343Z</time>
      </trkpt>
      <trkpt lat="48.8589" lon="2.34711">
        <ele>99</ele>
        <time>2015-06-15T18:21:23.435Z</time>
      </trkpt>
      <trkpt lat="48.85892" lon="2.34706">
        <ele>99.2</ele>
        <time>2015-06-15T18:21:24.303Z</time>
      </trkpt>
      <trkpt lat="48.85895" lon="2.34695">
        <ele>99.7</ele>
        <time>2015-06-15T18:21:26.383Z</time>
      </trkpt>
      <trkpt lat="48.85896" lon="2.34691">
        <ele>100</ele>
        <time>2015-06-15T18:21:27.412Z</time>
      </trkpt>
      <trkpt lat="48.85899" lon="2.34682">
        <ele>100.1</ele>
        <time>2015-06-15T18:21:29.956Z</time>
      </trkpt>
      <trkpt lat="48.85901" lon="2.34677">
        <ele>100.2</ele>
        <time>2015-06-15T18:21:30.318Z</time>
      </trkpt>
      <trkpt lat="48.85904" lon="2.34668">
        <ele>100.2</ele>
        <time>2015-06-15T18:21:32.478Z</time>
      </trkpt>
      <trkpt lat="48.85905" lon="2.34663">
        <ele>100.3</ele>
        <time>2015-06-15T18:21:33.305Z</time>
      </trkpt>
      <trkpt lat="48.85908" lon="2.34653">
        <ele>100.4</ele>
        <time>2015-06-15T18:21:35.331Z</time>
      </trkpt>
      <trkpt lat="48.8591" lon="2.34648">
        <ele>100.3</ele>
        <time>2015-06-15T18:21:36.347Z</time>
      </trkpt>
      <trkpt lat="48.85914" lon="2.34639">
        <ele>100.3</ele>
        <time>2015-06-15T18:21:38.376Z</time>
      </trkpt>
      <trkpt lat="48.85915" lon="2.34634">
        <ele>100.3</ele>
        <time>2015-06-15T18:21:39.312Z</time>
      </trkpt>
      <trkpt lat="48.85919" lon="2.34627">
        <ele>100.5</ele>
        <time>2015-06-15T18:21:41.305Z</time>
      </trkpt>
      <trkpt lat="48.85921" lon="2.34623">
        <ele>100.6</ele>
        <time>2015-06-15T18:21:42.321Z</time>
      </trkpt>
      <trkpt lat="48.85923" lon="2.34612">
        <ele>100.3</ele>
        <time>2015-06-15T18:21:45.099Z</time>
      </trkpt>
      <trkpt lat="48.85924" lon="2.34606">
        <ele>100</ele>
        <time>2015-06-15T18:21:45.280Z</time>
      </trkpt>
      <trkpt lat="48.85928" lon="2.34595">
        <ele>99.7</ele>
        <time>2015-06-15T18:21:47.326Z</time>
      </trkpt>
      <trkpt lat="48.8593" lon="2.3459">
        <ele>99.7</ele>
        <time>2015-06-15T18:21:48.358Z</time>
      </trkpt>
      <trkpt lat="48.85934" lon="2.34578">
        <ele>99.6</ele>
        <time>2015-06-15T18:21:50.320Z</time>
      </trkpt>
      <trkpt lat="48.85936" lon="2.34573">
        <ele>99.4</ele>
        <time>2015-06-15T18:21:51.365Z</time>
      </trkpt>
      <trkpt lat="48.85939" lon="2.3456">
        <ele>98.9</ele>
        <time>2015-06-15T18:21:53.286Z</time>
      </trkpt>
      <trkpt lat="48.8594" lon="2.34554">
        <ele>98.6</ele>
        <time>2015-06-15T18:21:54.321Z</time>
      </trkpt>
      <trkpt lat="48.85941" lon="2.34547">
        <ele>98.2</ele>
        <time>2015-06-15T18:21:55.238Z</time>
      </trkpt>
      <trkpt lat="48.85943" lon="2.3454">
        <ele>98</ele>
        <time>2015-06-15T18:21:56.328Z</time>
      </trkpt>
      <trkpt lat="48.85946" lon="2.34528">
        <ele>97.9</ele>
        <time>2015-06-15T18:21:58.347Z</time>
      </trkpt>
      <trkpt lat="48.85948" lon="2.34521">
        <ele>98</ele>
        <time>2015-06-15T18:21:59.370Z</time>
      </trkpt>
      <trkpt lat="48.85953" lon="2.3451">
        <ele>98</ele>
        <time>2015-06-15T18:22:01.326Z</time>
      </trkpt>
      <trkpt lat="48.85955" lon="2.34504">
        <ele>98.1</ele>
        <time>2015-06-15T18:22:02.378Z</time>
      </trkpt>
      <trkpt lat="48.8596" lon="2.34493">
        <ele>98</ele>
        <time>2015-06-15T18:22:04.319Z</time>
      </trkpt>
      <trkpt lat="48.85963" lon="2.34488">
        <ele>97.9</ele>
        <time>2015-06-15T18:22:05.370Z</time>
      </trkpt>
      <trkpt lat="48.85966" lon="2.34479">
        <ele>97.8</ele>
        <time>2015-06-15T18:22:07.389Z</time>
      </trkpt>
      <trkpt lat="48.85968" lon="2.34475">
        <ele>97.9</ele>
        <time>2015-06-15T18:22:08.395Z</time>
      </trkpt>
      <trkpt lat="48.85971" lon="2.34466">
        <ele>97.8</ele>
        <time>2015-06-15T18:22:10.351Z</time>
      </trkpt>
      <trkpt lat="48.85972" lon="2.34461">
        <ele>97.8</ele>
        <time>2015-06-15T18:22:11.358Z</time>
      </trkpt>
      <trkpt lat="48.85976" lon="2.3445">
        <ele>97.9</ele>
        <time>2015-06-15T18:22:13.336Z</time>
      </trkpt>
      <trkpt lat="48.85978" lon="2.34444">
        <ele>97.8</ele>
        <time>2015-06-15T18:22:14.356Z</time>
      </trkpt>
      <trkpt lat="48.85981" lon="2.34433">
        <ele>98</ele>
        <time>2015-06-15T18:22:16.270Z</time>
      </trkpt>
      <trkpt lat="48.85983" lon="2.34427">
        <ele>98.1</ele>
        <time>2015-06-15T18:22:17.314Z</time>
      </trkpt>
      <trkpt lat="48.85986" lon="2.34417">
        <ele>98.4</ele>
        <time>2015-06-15T18:22:19.324Z</time>
      </trkpt>
      <trkpt lat="48.85987" lon="2.34412">
        <ele>98.5</ele>
        <time>2015-06-15T18:22:20.356Z</time>
      </trkpt>
      <trkpt lat="48.8599" lon="2.344">
        <ele>98.7</ele>
        <time>2015-06-15T18:22:22.932Z</time>
      </trkpt>
      <trkpt lat="48.85992" lon="2.34393">
        <ele>98.9</ele>
        <time>2015-06-15T18:22:23.318Z</time>
      </trkpt>
      <trkpt lat="48.85996" lon="2.34381">
        <ele>99.2</ele>
        <time>2015-06-15T18:22:25.329Z</time>
      </trkpt>
      <trkpt lat="48.85997" lon="2.34375">
        <ele>99.2</ele>
        <time>2015-06-15T18:22:26.404Z</time>
      </trkpt>
      <trkpt lat="48.86001" lon="2.34363">
        <ele>98.9</ele>
        <time>2015-06-15T18:22:28.357Z</time>
      </trkpt>
      <trkpt lat="48.86003" lon="2.34357">
        <ele>98.8</ele>
        <time>2015-06-15T18:22:29.379Z</time>
      </trkpt>
      <trkpt lat="48.86005" lon="2.34351">
        <ele>98.8</ele>
        <time>2015-06-15T18:22:30.392Z</time>
      </trkpt>
      <trkpt lat="48.86008" lon="2.34344">
        <ele>98.8</ele>
        <time>2015-06-15T18:22:31.316Z</time>
      </trkpt>
      <trkpt lat="48.86011" lon="2.34338">
        <ele>98.8</ele>
        <time>2015-06-15T18:22:32.395Z</time>
      </trkpt>
      <trkpt lat="48.86013" lon="2.34332">
        <ele>98.3</ele>
        <time>2015-06-15T18:22:33.330Z</time>
      </trkpt>
      <trkpt lat="48.86017" lon="2.34319">
        <ele>98.2</ele>
        <time>2015-06-15T18:22:35.320Z</time>
      </trkpt>
      <trkpt lat="48.86019" lon="2.34313">
        <ele>98.2</ele>
        <time>2015-06-15T18:22:36.368Z</time>
      </trkpt>
      <trkpt lat="48.86021" lon="2.34307">
        <ele>97.9</ele>
        <time>2015-06-15T18:22:37.267Z</time>
      </trkpt>
      <trkpt lat="48.86023" lon="2.343">
        <ele>98.1</ele>
        <time>2015-06-15T18:22:38.416Z</time>
      </trkpt>
      <trkpt lat="48.86025" lon="2.34293">
        <ele>98.1</ele>
        <time>2015-06-15T18:22:39.325Z</time>
      </trkpt>
      <trkpt lat="48.86028" lon="2.34287">
        <ele>98</ele>
        <time>2015-06-15T18:22:40.337Z</time>
      </trkpt>
      <trkpt lat="48.86031" lon="2.34281">
        <ele>98.2</ele>
        <time>2015-06-15T18:22:41.307Z</time>
      </trkpt>
      <trkpt lat="48.86034" lon="2.34275">
        <ele>98.1</ele>
        <time>2015-06-15T18:22:42.287Z</time>
      </trkpt>
      <trkpt lat="48.86036" lon="2.34267">
        <ele>98.2</ele>
        <time>2015-06-15T18:22:43.319Z</time>
      </trkpt>
      <trkpt lat="48.86037" lon="2.34261">
        <ele>98.3</ele>
        <time>2015-06-15T18:22:44.330Z</time>
      </trkpt>
      <trkpt lat="48.8604" lon="2.34254">
        <ele>98.4</ele>
        <time>2015-06-15T18:22:45.334Z</time>
      </trkpt>
      <trkpt lat="48.86042" lon="2.34248">
        <ele>98.4</ele>
        <time>2015-06-15T18:22:46.332Z</time>
      </trkpt>
      <trkpt lat="48.86044" lon="2.34241">
        <ele>98.3</ele>
        <time>2015-06-15T18:22:47.370Z</time>
      </trkpt>
      <trkpt lat="48.86046" lon="2.34235">
        <ele>98.3</ele>
        <time>2015-06-15T18:22:48.384Z</time>
      </trkpt>
      <trkpt lat="48.86047" lon="2.34227">
        <ele>98.2</ele>
        <time>2015-06-15T18:22:49.273Z</time>
      </trkpt>
      <trkpt lat="48.8605" lon="2.34221">
        <ele>98.2</ele>
        <time>2015-06-15T18:22:50.352Z</time>
      </trkpt>
      <trkpt lat="48.86052" lon="2.34215">
        <ele>98</ele>
        <time>2015-06-15T18:22:51.363Z</time>
      </trkpt>
      <trkpt lat="48.86055" lon="2.34209">
        <ele>96.9</ele>
        <time>2015-06-15T18:22:52.296Z</time>
      </trkpt>
      <trkpt lat="48.86058" lon="2.34202">
        <ele>96.3</ele>
        <time>2015-06-15T18:22:53.295Z</time>
      </trkpt>
      <trkpt lat="48.8606" lon="2.34195">
        <ele>96.2</ele>
        <time>2015-06-15T18:22:54.299Z</time>
      </trkpt>
      <trkpt lat="48.86062" lon="2.34188">
        <ele>96.2</ele>
        <time>2015-06-15T18:22:55.321Z</time>
      </trkpt>
      <trkpt lat="48.86064" lon="2.34181">
        <ele>96.2</ele>
        <time>2015-06-15T18:22:56.338Z</time>
      </trkpt>
      <trkpt lat="48.86066" lon="2.34174">
        <ele>96.2</ele>
        <time>2015-06-15T18:22:57.359Z</time>
      </trkpt>
      <trkpt lat="48.86068" lon="2.34166">
        <ele>96.1</ele>
        <time>2015-06-15T18:22:58.362Z</time>
      </trkpt>
      <trkpt lat="48.86069" lon="2.34159">
        <ele>96</ele>
        <time>2015-06-15T18:22:59.380Z</time>
      </trkpt>
      <trkpt lat="48.86071" lon="2.34151">
        <ele>96</ele>
        <time>2015-06-15T18:23:00.279Z</time>
      </trkpt>
      <trkpt lat="48.86073" lon="2.34144">
        <ele>96.1</ele>
        <time>2015-06-15T18:23:01.390Z</time>
      </trkpt>
      <trkpt lat="48.86074" lon="2.34138">
        <ele>96.2</ele>
        <time>2015-06-15T18:23:02.402Z</time>
      </trkpt>
      <trkpt lat="48.86076" lon="2.34127">
        <ele>96.2</ele>
        <time>2015-06-15T18:23:04.297Z</time>
      </trkpt>
      <trkpt lat="48.86078" lon="2.34122">
        <ele>96.2</ele>
        <time>2015-06-15T18:23:05.351Z</time>
      </trkpt>
      <trkpt lat="48.86081" lon="2.34112">
        <ele>96.5</ele>
        <time>2015-06-15T18:23:07.296Z</time>
      </trkpt>
      <trkpt lat="48.86083" lon="2.34108">
        <ele>96.5</ele>
        <time>2015-06-15T18:23:08.412Z</time>
      </trkpt>
      <trkpt lat="48.86086" lon="2.34096">
        <ele>96</ele>
        <time>2015-06-15T18:23:11.316Z</time>
      </trkpt>
      <trkpt lat="48.86086" lon="2.34094">
        <ele>96</ele>
        <time>2015-06-15T18:23:12.343Z</time>
      </trkpt>
      <trkpt lat="48.86087" lon="2.34091">
        <ele>95.9</ele>
        <time>2015-06-15T18:23:14.386Z</time>
      </trkpt>
      <trkpt lat="48.86088" lon="2.34091">
        <ele>96.1</ele>
        <time>2015-06-15T18:23:15.278Z</time>
      </trkpt>
      <trkpt lat="48.86088" lon="2.34091">
        <ele>96.3</ele>
        <time>2015-06-15T18:23:23.321Z</time>
      </trkpt>
      <trkpt lat="48.86089" lon="2.34091">
        <ele>96.6</ele>
        <time>2015-06-15T18:23:24.326Z</time>
      </trkpt>
      <trkpt lat="48.86093" lon="2.34083">
        <ele>96.8</ele>
        <time>2015-06-15T18:23:27.335Z</time>
      </trkpt>
      <trkpt lat="48.86095" lon="2.3408">
        <ele>96.8</ele>
        <time>2015-06-15T18:23:28.343Z</time>
      </trkpt>
      <trkpt lat="48.86099" lon="2.34073">
        <ele>97</ele>
        <time>2015-06-15T18:23:30.352Z</time>
      </trkpt>
      <trkpt lat="48.86101" lon="2.34069">
        <ele>97</ele>
        <time>2015-06-15T18:23:31.377Z</time>
      </trkpt>
      <trkpt lat="48.86107" lon="2.3406">
        <ele>97</ele>
        <time>2015-06-15T18:23:33.295Z</time>
      </trkpt>
      <trkpt lat="48.86109" lon="2.34055">
        <ele>97</ele>
        <time>2015-06-15T18:23:34.337Z</time>
      </trkpt>
      <trkpt lat="48.86114" lon="2.34043">
        <ele>96.9</ele>
        <time>2015-06-15T18:23:36.360Z</time>
      </trkpt>
      <trkpt lat="48.86116" lon="2.34037">
        <ele>96.9</ele>
        <time>2015-06-15T18:23:37.340Z</time>
      </trkpt>
      <trkpt lat="48.86118" lon="2.34029">
        <ele>96.7</ele>
        <time>2015-06-15T18:23:38.353Z</time>
      </trkpt>
      <trkpt lat="48.8612" lon="2.34022">
        <ele>96.6</ele>
        <time>2015-06-15T18:23:39.328Z</time>
      </trkpt>
      <trkpt lat="48.86122" lon="2.34015">
        <ele>96.6</ele>
        <time>2015-06-15T18:23:40.336Z</time>
      </trkpt>
      <trkpt lat="48.86125" lon="2.34008">
        <ele>96.7</ele>
        <time>2015-06-15T18:23:41.343Z</time>
      </trkpt>
      <trkpt lat="48.86126" lon="2.34">
        <ele>96.7</ele>
        <time>2015-06-15T18:23:42.353Z</time>
      </trkpt>
      <trkpt lat="48.86129" lon="2.33993">
        <ele>96.5</ele>
        <time>2015-06-15T18:23:43.397Z</time>
      </trkpt>
      <trkpt lat="48.86131" lon="2.33986">
        <ele>96.6</ele>
        <time>2015-06-15T18:23:44.338Z</time>
      </trkpt>
      <trkpt lat="48.86133" lon="2.33979">
        <ele>96.6</ele>
        <time>2015-06-15T18:23:45.330Z</time>
      </trkpt>
      <trkpt lat="48.86135" lon="2.33971">
        <ele>96.8</ele>
        <time>2015-06-15T18:23:46.338Z</time>
      </trkpt>
      <trkpt lat="48.86136" lon="2.33963">
        <ele>96.7</ele>
        <time>2015-06-15T18:23:47.350Z</time>
      </trkpt>
      <trkpt lat="48.86138" lon="2.33955">
        <ele>96.8</ele>
        <time>2015-06-15T18:23:48.367Z</time>
      </trkpt>
      <trkpt lat="48.86139" lon="2.33948">
        <ele>96.8</ele>
        <time>2015-06-15T18:23:49.316Z</time>
      </trkpt>
      <trkpt lat="48.8614" lon="2.3394">
        <ele>96.7</ele>
        <time>2015-06-15T18:23:50.347Z</time>
      </trkpt>
      <trkpt lat="48.86142" lon="2.33933">
        <ele>96.8</ele>
        <time>2015-06-15T18:23:51.356Z</time>
      </trkpt>
      <trkpt lat="48.86144" lon="2.33926">
        <ele>97</ele>
        <time>2015-06-15T18:23:52.432Z</time>
      </trkpt>
      <trkpt lat="48.86146" lon="2.3392">
        <ele>96.8</ele>
        <time>2015-06-15T18:23:53.381Z</time>
      </trkpt>
      <trkpt lat="48.86151" lon="2.33913">
        <ele>96.8</ele>
        <time>2015-06-15T18:23:55.320Z</time>
      </trkpt>
      <trkpt lat="48.86155" lon="2.33914">
        <ele>96.8</ele>
        <time>2015-06-15T18:23:56.343Z</time>
      </trkpt>
      <trkpt lat="48.86161" lon="2.33921">
        <ele>97.1</ele>
        <time>2015-06-15T18:23:58.370Z</time>
      </trkpt>
      <trkpt lat="48.86163" lon="2.33924">
        <ele>97.4</ele>
        <time>2015-06-15T18:23:59.384Z</time>
      </trkpt>
      <trkpt lat="48.8617" lon="2.3393">
        <ele>97.6</ele>
        <time>2015-06-15T18:24:01.309Z</time>
      </trkpt>
      <trkpt lat="48.86174" lon="2.33932">
        <ele>97.9</ele>
        <time>2015-06-15T18:24:02.350Z</time>
      </trkpt>
      <trkpt lat="48.86179" lon="2.33936">
        <ele>97.9</ele>
        <time>2015-06-15T18:24:03.350Z</time>
      </trkpt>
      <trkpt lat="48.86183" lon="2.33939">
        <ele>97.9</ele>
        <time>2015-06-15T18:24:04.365Z</time>
      </trkpt>
      <trkpt lat="48.86191" lon="2.33945">
        <ele>98.1</ele>
        <time>2015-06-15T18:24:06.303Z</time>
      </trkpt>
      <trkpt lat="48.86195" lon="2.33939">
        <ele>95.3</ele>
        <time>2015-06-15T18:24:07.312Z</time>
      </trkpt>
      <trkpt lat="48.86203" lon="2.33933">
        <ele>93.9</ele>
        <time>2015-06-15T18:24:09.429Z</time>
      </trkpt>
      <trkpt lat="48.86206" lon="2.33929">
        <ele>94.1</ele>
        <time>2015-06-15T18:24:10.311Z</time>
      </trkpt>
      <trkpt lat="48.8621" lon="2.33925">
        <ele>94.2</ele>
        <time>2015-06-15T18:24:11.307Z</time>
      </trkpt>
      <trkpt lat="48.86214" lon="2.33922">
        <ele>94.3</ele>
        <time>2015-06-15T18:24:12.339Z</time>
      </trkpt>
      <trkpt lat="48.86221" lon="2.33919">
        <ele>95.1</ele>
        <time>2015-06-15T18:24:14.366Z</time>
      </trkpt>
      <trkpt lat="48.86226" lon="2.33922">
        <ele>95.9</ele>
        <time>2015-06-15T18:24:15.275Z</time>
      </trkpt>
      <trkpt lat="48.86234" lon="2.33926">
        <ele>96.9</ele>
        <time>2015-06-15T18:24:17.317Z</time>
      </trkpt>
      <trkpt lat="48.86238" lon="2.33928">
        <ele>97.1</ele>
        <time>2015-06-15T18:24:18.341Z</time>
      </trkpt>
      <trkpt lat="48.86246" lon="2.33931">
        <ele>97.2</ele>
        <time>2015-06-15T18:24:20.369Z</time>
      </trkpt>
      <trkpt lat="48.86249" lon="2.33933">
        <ele>97.2</ele>
        <time>2015-06-15T18:24:21.328Z</time>
      </trkpt>
      <trkpt lat="48.86257" lon="2.33935">
        <ele>97.6</ele>
        <time>2015-06-15T18:24:23.307Z</time>
      </trkpt>
      <trkpt lat="48.8626" lon="2.33937">
        <ele>97.8</ele>
        <time>2015-06-15T18:24:24.341Z</time>
      </trkpt>
      <trkpt lat="48.86266" lon="2.3394">
        <ele>97.9</ele>
        <time>2015-06-15T18:24:26.364Z</time>
      </trkpt>
      <trkpt lat="48.8627" lon="2.33941">
        <ele>98.1</ele>
        <time>2015-06-15T18:24:27.275Z</time>
      </trkpt>
      <trkpt lat="48.86277" lon="2.33938">
        <ele>98</ele>
        <time>2015-06-15T18:24:29.318Z</time>
      </trkpt>
      <trkpt lat="48.86281" lon="2.33935">
        <ele>97.9</ele>
        <time>2015-06-15T18:24:30.323Z</time>
      </trkpt>
      <trkpt lat="48.86285" lon="2.33933">
        <ele>97.9</ele>
        <time>2015-06-15T18:24:31.361Z</time>
      </trkpt>
      <trkpt lat="48.86289" lon="2.33929">
        <ele>97.9</ele>
        <time>2015-06-15T18:24:32.373Z</time>
      </trkpt>
      <trkpt lat="48.86295" lon="2.33922">
        <ele>97.6</ele>
        <time>2015-06-15T18:24:34.274Z</time>
      </trkpt>
      <trkpt lat="48.86298" lon="2.33918">
        <ele>97.5</ele>
        <time>2015-06-15T18:24:35.336Z</time>
      </trkpt>
      <trkpt lat="48.86301" lon="2.33909">
        <ele>97.2</ele>
        <time>2015-06-15T18:24:37.385Z</time>
      </trkpt>
      <trkpt lat="48.86303" lon="2.33906">
        <ele>97.3</ele>
        <time>2015-06-15T18:24:38.297Z</time>
      </trkpt>
      <trkpt lat="48.86305" lon="2.33897">
        <ele>97.1</ele>
        <time>2015-06-15T18:24:40.359Z</time>
      </trkpt>
      <trkpt lat="48.86306" lon="2.33892">
        <ele>97.1</ele>
        <time>2015-06-15T18:24:41.267Z</time>
      </trkpt>
      <trkpt lat="48.86308" lon="2.33881">
        <ele>96.9</ele>
        <time>2015-06-15T18:24:43.308Z</time>
      </trkpt>
      <trkpt lat="48.86309" lon="2.33876">
        <ele>96.9</ele>
        <time>2015-06-15T18:24:44.350Z</time>
      </trkpt>
      <trkpt lat="48.86306" lon="2.33866">
        <ele>97</ele>
        <time>2015-06-15T18:24:47.429Z</time>
      </trkpt>
      <trkpt lat="48.86304" lon="2.33863">
        <ele>97.1</ele>
        <time>2015-06-15T18:24:48.326Z</time>
      </trkpt>
      <trkpt lat="48.86304" lon="2.33861">
        <ele>97.1</ele>
        <time>2015-06-15T18:24:49.303Z</time>
      </trkpt>
      <trkpt lat="48.86306" lon="2.33861">
        <ele>96.7</ele>
        <time>2015-06-15T18:24:50.328Z</time>
      </trkpt>
      <trkpt lat="48.86307" lon="2.33859">
        <ele>96.4</ele>
        <time>2015-06-15T18:24:51.337Z</time>
      </trkpt>
      <trkpt lat="48.8631" lon="2.33846">
        <ele>95.9</ele>
        <time>2015-06-15T18:24:54.314Z</time>
      </trkpt>
      <trkpt lat="48.86313" lon="2.33842">
        <ele>95.7</ele>
        <time>2015-06-15T18:24:55.284Z</time>
      </trkpt>
      <trkpt lat="48.86316" lon="2.33836">
        <ele>95.5</ele>
        <time>2015-06-15T18:24:56.333Z</time>
      </trkpt>
      <trkpt lat="48.86319" lon="2.33829">
        <ele>95.3</ele>
        <time>2015-06-15T18:24:57.349Z</time>
      </trkpt>
      <trkpt lat="48.86323" lon="2.33818">
        <ele>95.1</ele>
        <time>2015-06-15T18:24:59.282Z</time>
      </trkpt>
      <trkpt lat="48.86325" lon="2.33813">
        <ele>95.3</ele>
        <time>2015-06-15T18:25:00.360Z</time>
      </trkpt>
      <trkpt lat="48.86333" lon="2.3381">
        <ele>96.2</ele>
        <time>2015-06-15T18:25:05.318Z</time>
      </trkpt>
      <trkpt lat="48.86336" lon="2.33812">
        <ele>96.4</ele>
        <time>2015-06-15T18:25:06.328Z</time>
      </trkpt>
      <trkpt lat="48.86343" lon="2.33817">
        <ele>96.4</ele>
        <time>2015-06-15T18:25:10.285Z</time>
      </trkpt>
      <trkpt lat="48.86345" lon="2.33819">
        <ele>96.4</ele>
        <time>2015-06-15T18:25:11.320Z</time>
      </trkpt>
      <trkpt lat="48.86352" lon="2.33826">
        <ele>96.4</ele>
        <time>2015-06-15T18:25:14.353Z</time>
      </trkpt>
      <trkpt lat="48.86356" lon="2.33828">
        <ele>96.5</ele>
        <time>2015-06-15T18:25:15.278Z</time>
      </trkpt>
      <trkpt lat="48.86361" lon="2.33831">
        <ele>96.6</ele>
        <time>2015-06-15T18:25:16.331Z</time>
      </trkpt>
      <trkpt lat="48.86365" lon="2.33834">
        <ele>96.8</ele>
        <time>2015-06-15T18:25:17.286Z</time>
      </trkpt>
      <trkpt lat="48.86373" lon="2.33836">
        <ele>97.3</ele>
        <time>2015-06-15T18:25:19.355Z</time>
      </trkpt>
      <trkpt lat="48.86377" lon="2.33837">
        <ele>97.5</ele>
        <time>2015-06-15T18:25:20.312Z</time>
      </trkpt>
      <trkpt lat="48.86384" lon="2.3384">
        <ele>97.6</ele>
        <time>2015-06-15T18:25:22.379Z</time>
      </trkpt>
      <trkpt lat="48.86388" lon="2.33842">
        <ele>97.7</ele>
        <time>2015-06-15T18:25:23.278Z</time>
      </trkpt>
      <trkpt lat="48.86394" lon="2.33849">
        <ele>97.9</ele>
        <time>2015-06-15T18:25:25.305Z</time>
      </trkpt>
      <trkpt lat="48.86398" lon="2.33851">
        <ele>98.1</ele>
        <time>2015-06-15T18:25:26.333Z</time>
      </trkpt>
      <trkpt lat="48.86407" lon="2.33856">
        <ele>98.3</ele>
        <time>2015-06-15T18:25:28.360Z</time>
      </trkpt>
      <trkpt lat="48.86411" lon="2.33859">
        <ele>98.5</ele>
        <time>2015-06-15T18:25:29.288Z</time>
      </trkpt>
      <trkpt lat="48.86419" lon="2.33864">
        <ele>98.8</ele>
        <time>2015-06-15T18:25:31.296Z</time>
      </trkpt>
      <trkpt lat="48.86423" lon="2.33867">
        <ele>98.9</ele>
        <time>2015-06-15T18:25:32.294Z</time>
      </trkpt>
      <trkpt lat="48.86427" lon="2.3387">
        <ele>99</ele>
        <time>2015-06-15T18:25:33.311Z</time>
      </trkpt>
      <trkpt lat="48.86432" lon="2.33874">
        <ele>99.1</ele>
        <time>2015-06-15T18:25:34.342Z</time>
      </trkpt>
      <trkpt lat="48.86437" lon="2.33877">
        <ele>99.1</ele>
        <time>2015-06-15T18:25:35.265Z</time>
      </trkpt>
      <trkpt lat="48.86442" lon="2.33881">
        <ele>99.1</ele>
        <time>2015-06-15T18:25:36.262Z</time>
      </trkpt>
      <trkpt lat="48.86446" lon="2.33884">
        <ele>99.1</ele>
        <time>2015-06-15T18:25:37.280Z</time>
      </trkpt>
      <trkpt lat="48.8645" lon="2.33888">
        <ele>99.2</ele>
        <time>2015-06-15T18:25:38.315Z</time>
      </trkpt>
      <trkpt lat="48.86457" lon="2.33895">
        <ele>99</ele>
        <time>2015-06-15T18:25:40.332Z</time>
      </trkpt>
      <trkpt lat="48.86462" lon="2.33898">
        <ele>98.9</ele>
        <time>2015-06-15T18:25:41.337Z</time>
      </trkpt>
      <trkpt lat="48.86467" lon="2.33899">
        <ele>98.8</ele>
        <time>2015-06-15T18:25:42.340Z</time>
      </trkpt>
      <trkpt lat="48.86471" lon="2.33901">
        <ele>98.6</ele>
        <time>2015-06-15T18:25:43.363Z</time>
      </trkpt>
      <trkpt lat="48.86476" lon="2.33903">
        <ele>98.5</ele>
        <time>2015-06-15T18:25:44.311Z</time>
      </trkpt>
      <trkpt lat="48.8648" lon="2.33906">
        <ele>98.4</ele>
        <time>2015-06-15T18:25:45.314Z</time>
      </trkpt>
      <trkpt lat="48.86487" lon="2.33909">
        <ele>98.2</ele>
        <time>2015-06-15T18:25:47.329Z</time>
      </trkpt>
      <trkpt lat="48.86491" lon="2.33912">
        <ele>98.1</ele>
        <time>2015-06-15T18:25:48.339Z</time>
      </trkpt>
      <trkpt lat="48.86498" lon="2.33919">
        <ele>97.8</ele>
        <time>2015-06-15T18:25:50.330Z</time>
      </trkpt>
      <trkpt lat="48.86502" lon="2.33922">
        <ele>97.9</ele>
        <time>2015-06-15T18:25:51.318Z</time>
      </trkpt>
      <trkpt lat="48.86509" lon="2.33925">
        <ele>98</ele>
        <time>2015-06-15T18:25:52.285Z</time>
      </trkpt>
      <trkpt lat="48.86516" lon="2.33928">
        <ele>98.1</ele>
        <time>2015-06-15T18:25:53.302Z</time>
      </trkpt>
      <trkpt lat="48.86522" lon="2.3393">
        <ele>98.3</ele>
        <time>2015-06-15T18:25:54.311Z</time>
      </trkpt>
      <trkpt lat="48.86529" lon="2.33931">
        <ele>98.4</ele>
        <time>2015-06-15T18:25:55.316Z</time>
      </trkpt>
      <trkpt lat="48.86534" lon="2.33932">
        <ele>98.5</ele>
        <time>2015-06-15T18:25:56.328Z</time>
      </trkpt>
      <trkpt lat="48.8654" lon="2.33932">
        <ele>98.6</ele>
        <time>2015-06-15T18:25:57.322Z</time>
      </trkpt>
      <trkpt lat="48.86544" lon="2.33931">
        <ele>98.8</ele>
        <time>2015-06-15T18:25:58.346Z</time>
      </trkpt>
      <trkpt lat="48.86559" lon="2.33925">
        <ele>96.8</ele>
        <time>2015-06-15T18:26:01.312Z</time>
      </trkpt>
      <trkpt lat="48.86566" lon="2.33919">
        <ele>95.8</ele>
        <time>2015-06-15T18:26:03.256Z</time>
      </trkpt>
      <trkpt lat="48.86569" lon="2.33916">
        <ele>95.2</ele>
        <time>2015-06-15T18:26:04.297Z</time>
      </trkpt>
      <trkpt lat="48.86573" lon="2.33907">
        <ele>94.4</ele>
        <time>2015-06-15T18:26:06.250Z</time>
      </trkpt>
      <trkpt lat="48.86574" lon="2.33902">
        <ele>94.2</ele>
        <time>2015-06-15T18:26:07.246Z</time>
      </trkpt>
      <trkpt lat="48.86573" lon="2.3389">
        <ele>93.5</ele>
        <time>2015-06-15T18:26:09.321Z</time>
      </trkpt>
      <trkpt lat="48.86573" lon="2.33883">
        <ele>93.2</ele>
        <time>2015-06-15T18:26:10.225Z</time>
      </trkpt>
      <trkpt lat="48.86576" lon="2.33871">
        <ele>92.6</ele>
        <time>2015-06-15T18:26:13.307Z</time>
      </trkpt>
      <trkpt lat="48.86576" lon="2.33868">
        <ele>92.4</ele>
        <time>2015-06-15T18:26:14.324Z</time>
      </trkpt>
      <trkpt lat="48.86577" lon="2.33855">
        <ele>91.3</ele>
        <time>2015-06-15T18:26:20.331Z</time>
      </trkpt>
      <trkpt lat="48.86579" lon="2.33853">
        <ele>91.2</ele>
        <time>2015-06-15T18:26:21.348Z</time>
      </trkpt>
      <trkpt lat="48.86584" lon="2.33844">
        <ele>90.9</ele>
        <time>2015-06-15T18:26:25.364Z</time>
      </trkpt>
      <trkpt lat="48.86586" lon="2.33842">
        <ele>90.8</ele>
        <time>2015-06-15T18:26:26.416Z</time>
      </trkpt>
      <trkpt lat="48.86592" lon="2.33833">
        <ele>90.5</ele>
        <time>2015-06-15T18:26:30.309Z</time>
      </trkpt>
      <trkpt lat="48.86592" lon="2.3383">
        <ele>90.4</ele>
        <time>2015-06-15T18:26:31.329Z</time>
      </trkpt>
      <trkpt lat="48.86595" lon="2.3382">
        <ele>90.4</ele>
        <time>2015-06-15T18:26:35.313Z</time>
      </trkpt>
      <trkpt lat="48.86597" lon="2.33818">
        <ele>90.4</ele>
        <time>2015-06-15T18:26:36.340Z</time>
      </trkpt>
      <trkpt lat="48.86603" lon="2.33812">
        <ele>90.3</ele>
        <time>2015-06-15T18:26:39.305Z</time>
      </trkpt>
      <trkpt lat="48.86605" lon="2.3381">
        <ele>90.2</ele>
        <time>2015-06-15T18:26:40.164Z</time>
      </trkpt>
      <trkpt lat="48.86608" lon="2.338">
        <ele>89.7</ele>
        <time>2015-06-15T18:26:43.087Z</time>
      </trkpt>
      <trkpt lat="48.86609" lon="2.33797">
        <ele>89.8</ele>
        <time>2015-06-15T18:26:44.107Z</time>
      </trkpt>
      <trkpt lat="48.86615" lon="2.33789">
        <ele>91.8</ele>
        <time>2015-06-15T18:26:48.103Z</time>
      </trkpt>
      <trkpt lat="48.86617" lon="2.33789">
        <ele>92.5</ele>
        <time>2015-06-15T18:26:49.147Z</time>
      </trkpt>
      <trkpt lat="48.86619" lon="2.33789">
        <ele>93</ele>
        <time>2015-06-15T18:26:50.161Z</time>
      </trkpt>
      <trkpt lat="48.8662" lon="2.33788">
        <ele>93.5</ele>
        <time>2015-06-15T18:26:51.169Z</time>
      </trkpt>
      <trkpt lat="48.86619" lon="2.33787">
        <ele>93.7</ele>
        <time>2015-06-15T18:26:52.105Z</time>
      </trkpt>
      <trkpt lat="48.86619" lon="2.33782">
        <ele>94.7</ele>
        <time>2015-06-15T18:27:00.206Z</time>
      </trkpt>
      <trkpt lat="48.86619" lon="2.33781">
        <ele>94.9</ele>
        <time>2015-06-15T18:27:01.129Z</time>
      </trkpt>
      <trkpt lat="48.8662" lon="2.3378">
        <ele>95.1</ele>
        <time>2015-06-15T18:27:02.135Z</time>
      </trkpt>
      <trkpt lat="48.8662" lon="2.3378">
        <ele>95.8</ele>
        <time>2015-06-15T18:27:05.183Z</time>
      </trkpt>
      <trkpt lat="48.8662" lon="2.3378">
        <ele>95.9</ele>
        <time>2015-06-15T18:27:06.101Z</time>
      </trkpt>
      <trkpt lat="48.8662" lon="2.3378">
        <ele>96</ele>
        <time>2015-06-15T18:27:07.096Z</time>
      </trkpt>
      <trkpt lat="48.86618" lon="2.33769">
        <ele>97.4</ele>
        <time>2015-06-15T18:27:17.088Z</time>
      </trkpt>
      <trkpt lat="48.86623" lon="2.33765">
        <ele>96.8</ele>
        <time>2015-06-15T18:27:24.055Z</time>
      </trkpt>
      <trkpt lat="48.86626" lon="2.33759">
        <ele>97.4</ele>
        <time>2015-06-15T18:27:26.161Z</time>
      </trkpt>
      <trkpt lat="48.86628" lon="2.33753">
        <ele>98</ele>
        <time>2015-06-15T18:27:27.110Z</time>
      </trkpt>
      <trkpt lat="48.86635" lon="2.3375">
        <ele>98.3</ele>
        <time>2015-06-15T18:27:29.813Z</time>
      </trkpt>
      <trkpt lat="48.86638" lon="2.33751">
        <ele>98.3</ele>
        <time>2015-06-15T18:27:30.729Z</time>
      </trkpt>
      <trkpt lat="48.86647" lon="2.33752">
        <ele>98.2</ele>
        <time>2015-06-15T18:27:33.819Z</time>
      </trkpt>
      <trkpt lat="48.86652" lon="2.33746">
        <ele>96.8</ele>
        <time>2015-06-15T18:27:34.763Z</time>
      </trkpt>
      <trkpt lat="48.86656" lon="2.33742">
        <ele>96</ele>
        <time>2015-06-15T18:27:35.776Z</time>
      </trkpt>
      <trkpt lat="48.86659" lon="2.33737">
        <ele>95.7</ele>
        <time>2015-06-15T18:27:36.817Z</time>
      </trkpt>
      <trkpt lat="48.86663" lon="2.3373">
        <ele>95.7</ele>
        <time>2015-06-15T18:27:38.801Z</time>
      </trkpt>
      <trkpt lat="48.86665" lon="2.33725">
        <ele>95.4</ele>
        <time>2015-06-15T18:27:39.809Z</time>
      </trkpt>
      <trkpt lat="48.86669" lon="2.33713">
        <ele>94.7</ele>
        <time>2015-06-15T18:27:41.769Z</time>
      </trkpt>
      <trkpt lat="48.8667" lon="2.33706">
        <ele>94.5</ele>
        <time>2015-06-15T18:27:42.801Z</time>
      </trkpt>
      <trkpt lat="48.8667" lon="2.33698">
        <ele>94.2</ele>
        <time>2015-06-15T18:27:43.815Z</time>
      </trkpt>
      <trkpt lat="48.86671" lon="2.3369">
        <ele>93.6</ele>
        <time>2015-06-15T18:27:44.819Z</time>
      </trkpt>
      <trkpt lat="48.86673" lon="2.33683">
        <ele>93.1</ele>
        <time>2015-06-15T18:27:45.817Z</time>
      </trkpt>
      <trkpt lat="48.86675" lon="2.33676">
        <ele>91.6</ele>
        <time>2015-06-15T18:27:46.829Z</time>
      </trkpt>
      <trkpt lat="48.86677" lon="2.3367">
        <ele>91</ele>
        <time>2015-06-15T18:27:47.766Z</time>
      </trkpt>
      <trkpt lat="48.86679" lon="2.33664">
        <ele>91.1</ele>
        <time>2015-06-15T18:27:48.763Z</time>
      </trkpt>
      <trkpt lat="48.86684" lon="2.33653">
        <ele>90.9</ele>
        <time>2015-06-15T18:27:50.810Z</time>
      </trkpt>
      <trkpt lat="48.86687" lon="2.33647">
        <ele>90.8</ele>
        <time>2015-06-15T18:27:51.848Z</time>
      </trkpt>
      <trkpt lat="48.86691" lon="2.33636">
        <ele>90.8</ele>
        <time>2015-06-15T18:27:53.802Z</time>
      </trkpt>
      <trkpt lat="48.86693" lon="2.33631">
        <ele>90.8</ele>
        <time>2015-06-15T18:27:54.893Z</time>
      </trkpt>
      <trkpt lat="48.86696" lon="2.3362">
        <ele>90.6</ele>
        <time>2015-06-15T18:27:56.770Z</time>
      </trkpt>
      <trkpt lat="48.86698" lon="2.33614">
        <ele>90.4</ele>
        <time>2015-06-15T18:27:57.860Z</time>
      </trkpt>
      <trkpt lat="48.86701" lon="2.33608">
        <ele>90.4</ele>
        <time>2015-06-15T18:27:58.773Z</time>
      </trkpt>
      <trkpt lat="48.86704" lon="2.33602">
        <ele>90.3</ele>
        <time>2015-06-15T18:27:59.828Z</time>
      </trkpt>
      <trkpt lat="48.86706" lon="2.33596">
        <ele>90.3</ele>
        <time>2015-06-15T18:28:00.836Z</time>
      </trkpt>
      <trkpt lat="48.86709" lon="2.33588">
        <ele>90.2</ele>
        <time>2015-06-15T18:28:01.847Z</time>
      </trkpt>
      <trkpt lat="48.86711" lon="2.33581">
        <ele>90.2</ele>
        <time>2015-06-15T18:28:02.861Z</time>
      </trkpt>
      <trkpt lat="48.86714" lon="2.33573">
        <ele>90.2</ele>
        <time>2015-06-15T18:28:03.732Z</time>
      </trkpt>
      <trkpt lat="48.86716" lon="2.33566">
        <ele>90.1</ele>
        <time>2015-06-15T18:28:04.798Z</time>
      </trkpt>
      <trkpt lat="48.8672" lon="2.33559">
        <ele>90.1</ele>
        <time>2015-06-15T18:28:05.825Z</time>
      </trkpt>
      <trkpt lat="48.8672" lon="2.33551">
        <ele>90</ele>
        <time>2015-06-15T18:28:06.773Z</time>
      </trkpt>
      <trkpt lat="48.86722" lon="2.33543">
        <ele>89.9</ele>
        <time>2015-06-15T18:28:07.769Z</time>
      </trkpt>
      <trkpt lat="48.86723" lon="2.33531">
        <ele>90.1</ele>
        <time>2015-06-15T18:28:08.839Z</time>
      </trkpt>
      <trkpt lat="48.86723" lon="2.33523">
        <ele>90</ele>
        <time>2015-06-15T18:28:09.832Z</time>
      </trkpt>
      <trkpt lat="48.86723" lon="2.33515">
        <ele>89.9</ele>
        <time>2015-06-15T18:28:10.839Z</time>
      </trkpt>
      <trkpt lat="48.86722" lon="2.33507">
        <ele>89.9</ele>
        <time>2015-06-15T18:28:11.835Z</time>
      </trkpt>
      <trkpt lat="48.86722" lon="2.33499">
        <ele>89.9</ele>
        <time>2015-06-15T18:28:12.782Z</time>
      </trkpt>
      <trkpt lat="48.86722" lon="2.33492">
        <ele>89.7</ele>
        <time>2015-06-15T18:28:13.782Z</time>
      </trkpt>
      <trkpt lat="48.86728" lon="2.33483">
        <ele>91</ele>
        <time>2015-06-15T18:28:18.807Z</time>
      </trkpt>
      <trkpt lat="48.86736" lon="2.33487">
        <ele>92</ele>
        <time>2015-06-15T18:28:19.830Z</time>
      </trkpt>
      <trkpt lat="48.86742" lon="2.33491">
        <ele>92.7</ele>
        <time>2015-06-15T18:28:20.843Z</time>
      </trkpt>
      <trkpt lat="48.86747" lon="2.33494">
        <ele>93.4</ele>
        <time>2015-06-15T18:28:21.853Z</time>
      </trkpt>
      <trkpt lat="48.8675" lon="2.33502">
        <ele>94.2</ele>
        <time>2015-06-15T18:28:23.938Z</time>
      </trkpt>
      <trkpt lat="48.86751" lon="2.33507">
        <ele>94</ele>
        <time>2015-06-15T18:28:24.846Z</time>
      </trkpt>
      <trkpt lat="48.86752" lon="2.3352">
        <ele>94.2</ele>
        <time>2015-06-15T18:28:27.860Z</time>
      </trkpt>
      <trkpt lat="48.86754" lon="2.33522">
        <ele>94.2</ele>
        <time>2015-06-15T18:28:28.815Z</time>
      </trkpt>
      <trkpt lat="48.86759" lon="2.33528">
        <ele>94.5</ele>
        <time>2015-06-15T18:28:30.813Z</time>
      </trkpt>
      <trkpt lat="48.86762" lon="2.33531">
        <ele>94.6</ele>
        <time>2015-06-15T18:28:31.841Z</time>
      </trkpt>
      <trkpt lat="48.86769" lon="2.33536">
        <ele>95</ele>
        <time>2015-06-15T18:28:33.811Z</time>
      </trkpt>
      <trkpt lat="48.86772" lon="2.33539">
        <ele>95.3</ele>
        <time>2015-06-15T18:28:34.815Z</time>
      </trkpt>
      <trkpt lat="48.86779" lon="2.33544">
        <ele>95.9</ele>
        <time>2015-06-15T18:28:36.806Z</time>
      </trkpt>
      <trkpt lat="48.86782" lon="2.33547">
        <ele>95.9</ele>
        <time>2015-06-15T18:28:37.806Z</time>
      </trkpt>
      <trkpt lat="48.86788" lon="2.33545">
        <ele>95.5</ele>
        <time>2015-06-15T18:28:38.791Z</time>
      </trkpt>
      <trkpt lat="48.86793" lon="2.33542">
        <ele>95.2</ele>
        <time>2015-06-15T18:28:39.811Z</time>
      </trkpt>
      <trkpt lat="48.868" lon="2.33536">
        <ele>95</ele>
        <time>2015-06-15T18:28:40.777Z</time>
      </trkpt>
      <trkpt lat="48.86805" lon="2.33532">
        <ele>95.2</ele>
        <time>2015-06-15T18:28:41.781Z</time>
      </trkpt>
      <trkpt lat="48.86813" lon="2.33527">
        <ele>96.6</ele>
        <time>2015-06-15T18:28:43.831Z</time>
      </trkpt>
      <trkpt lat="48.86818" lon="2.33531">
        <ele>96.9</ele>
        <time>2015-06-15T18:28:44.864Z</time>
      </trkpt>
      <trkpt lat="48.86823" lon="2.33535">
        <ele>97.1</ele>
        <time>2015-06-15T18:28:45.789Z</time>
      </trkpt>
      <trkpt lat="48.86827" lon="2.33537">
        <ele>97.3</ele>
        <time>2015-06-15T18:28:46.792Z</time>
      </trkpt>
      <trkpt lat="48.86835" lon="2.33542">
        <ele>97.5</ele>
        <time>2015-06-15T18:28:48.754Z</time>
      </trkpt>
      <trkpt lat="48.86838" lon="2.33545">
        <ele>97.6</ele>
        <time>2015-06-15T18:28:49.844Z</time>
      </trkpt>
      <trkpt lat="48.86844" lon="2.3355">
        <ele>97.8</ele>
        <time>2015-06-15T18:28:51.806Z</time>
      </trkpt>
      <trkpt lat="48.86847" lon="2.33553">
        <ele>98</ele>
        <time>2015-06-15T18:28:52.829Z</time>
      </trkpt>
      <trkpt lat="48.86854" lon="2.33558">
        <ele>98.5</ele>
        <time>2015-06-15T18:28:54.788Z</time>
      </trkpt>
      <trkpt lat="48.86859" lon="2.33557">
        <ele>97.9</ele>
        <time>2015-06-15T18:28:55.834Z</time>
      </trkpt>
      <trkpt lat="48.86867" lon="2.3356">
        <ele>97.9</ele>
        <time>2015-06-15T18:28:57.806Z</time>
      </trkpt>
      <trkpt lat="48.8687" lon="2.33563">
        <ele>98</ele>
        <time>2015-06-15T18:28:58.787Z</time>
      </trkpt>
      <trkpt lat="48.86877" lon="2.33565">
        <ele>98.5</ele>
        <time>2015-06-15T18:29:00.839Z</time>
      </trkpt>
      <trkpt lat="48.86879" lon="2.33566">
        <ele>98.7</ele>
        <time>2015-06-15T18:29:01.835Z</time>
      </trkpt>
      <trkpt lat="48.86886" lon="2.33571">
        <ele>99.4</ele>
        <time>2015-06-15T18:29:04.824Z</time>
      </trkpt>
      <trkpt lat="48.86889" lon="2.33572">
        <ele>99.7</ele>
        <time>2015-06-15T18:29:05.823Z</time>
      </trkpt>
      <trkpt lat="48.86895" lon="2.33576">
        <ele>100.1</ele>
        <time>2015-06-15T18:29:07.778Z</time>
      </trkpt>
      <trkpt lat="48.86899" lon="2.33577">
        <ele>100.2</ele>
        <time>2015-06-15T18:29:08.807Z</time>
      </trkpt>
      <trkpt lat="48.86907" lon="2.33577">
        <ele>100.6</ele>
        <time>2015-06-15T18:29:10.888Z</time>
      </trkpt>
      <trkpt lat="48.86912" lon="2.33578">
        <ele>100.7</ele>
        <time>2015-06-15T18:29:11.780Z</time>
      </trkpt>
      <trkpt lat="48.86917" lon="2.33578">
        <ele>100.9</ele>
        <time>2015-06-15T18:29:12.777Z</time>
      </trkpt>
      <trkpt lat="48.86922" lon="2.33577">
        <ele>101.2</ele>
        <time>2015-06-15T18:29:13.909Z</time>
      </trkpt>
      <trkpt lat="48.8693" lon="2.33577">
        <ele>101.6</ele>
        <time>2015-06-15T18:29:15.792Z</time>
      </trkpt>
      <trkpt lat="48.86934" lon="2.33579">
        <ele>101.5</ele>
        <time>2015-06-15T18:29:16.829Z</time>
      </trkpt>
      <trkpt lat="48.86939" lon="2.33576">
        <ele>100.3</ele>
        <time>2015-06-15T18:29:17.748Z</time>
      </trkpt>
      <trkpt lat="48.86944" lon="2.33574">
        <ele>99.3</ele>
        <time>2015-06-15T18:29:18.776Z</time>
      </trkpt>
      <trkpt lat="48.86952" lon="2.33575">
        <ele>98.8</ele>
        <time>2015-06-15T18:29:20.832Z</time>
      </trkpt>
      <trkpt lat="48.86955" lon="2.33576">
        <ele>99</ele>
        <time>2015-06-15T18:29:21.815Z</time>
      </trkpt>
      <trkpt lat="48.86963" lon="2.33582">
        <ele>99.8</ele>
        <time>2015-06-15T18:29:24.905Z</time>
      </trkpt>
      <trkpt lat="48.86964" lon="2.33584">
        <ele>99.8</ele>
        <time>2015-06-15T18:29:25.830Z</time>
      </trkpt>
      <trkpt lat="48.8697" lon="2.33593">
        <ele>101.9</ele>
        <time>2015-06-15T18:29:30.905Z</time>
      </trkpt>
      <trkpt lat="48.86972" lon="2.33593">
        <ele>102.2</ele>
        <time>2015-06-15T18:29:31.807Z</time>
      </trkpt>
      <trkpt lat="48.86978" lon="2.33594">
        <ele>102.6</ele>
        <time>2015-06-15T18:29:33.783Z</time>
      </trkpt>
      <trkpt lat="48.86982" lon="2.33595">
        <ele>102.9</ele>
        <time>2015-06-15T18:29:34.784Z</time>
      </trkpt>
      <trkpt lat="48.8699" lon="2.33594">
        <ele>103.5</ele>
        <time>2015-06-15T18:29:36.787Z</time>
      </trkpt>
      <trkpt lat="48.86993" lon="2.33594">
        <ele>103.8</ele>
        <time>2015-06-15T18:29:37.805Z</time>
      </trkpt>
      <trkpt lat="48.87001" lon="2.33597">
        <ele>104.1</ele>
        <time>2015-06-15T18:29:40.759Z</time>
      </trkpt>
      <trkpt lat="48.87005" lon="2.33599">
        <ele>104.3</ele>
        <time>2015-06-15T18:29:41.787Z</time>
      </trkpt>
      <trkpt lat="48.87013" lon="2.33602">
        <ele>104.6</ele>
        <time>2015-06-15T18:29:44.857Z</time>
      </trkpt>
      <trkpt lat="48.87016" lon="2.33604">
        <ele>104.6</ele>
        <time>2015-06-15T18:29:45.763Z</time>
      </trkpt>
      <trkpt lat="48.87022" lon="2.33609">
        <ele>104.9</ele>
        <time>2015-06-15T18:29:47.790Z</time>
      </trkpt>
      <trkpt lat="48.87025" lon="2.3361">
        <ele>105</ele>
        <time>2015-06-15T18:29:48.810Z</time>
      </trkpt>
      <trkpt lat="48.87032" lon="2.33615">
        <ele>105.5</ele>
        <time>2015-06-15T18:29:51.766Z</time>
      </trkpt>
      <trkpt lat="48.87036" lon="2.33614">
        <ele>105.7</ele>
        <time>2015-06-15T18:29:52.786Z</time>
      </trkpt>
      <trkpt lat="48.87043" lon="2.33615">
        <ele>106</ele>
        <time>2015-06-15T18:29:54.834Z</time>
      </trkpt>
      <trkpt lat="48.87046" lon="2.33617">
        <ele>106.1</ele>
        <time>2015-06-15T18:29:55.768Z</time>
      </trkpt>
      <trkpt lat="48.87054" lon="2.3362">
        <ele>106.5</ele>
        <time>2015-06-15T18:29:58.805Z</time>
      </trkpt>
      <trkpt lat="48.87058" lon="2.33621">
        <ele>106.5</ele>
        <time>2015-06-15T18:29:59.813Z</time>
      </trkpt>
      <trkpt lat="48.87066" lon="2.33622">
        <ele>106.6</ele>
        <time>2015-06-15T18:30:02.919Z</time>
      </trkpt>
      <trkpt lat="48.87067" lon="2.33606">
        <ele>105</ele>
        <time>2015-06-15T18:30:03.809Z</time>
      </trkpt>
      <trkpt lat="48.87072" lon="2.33599">
        <ele>103.5</ele>
        <time>2015-06-15T18:30:05.772Z</time>
      </trkpt>
      <trkpt lat="48.87076" lon="2.33596">
        <ele>103</ele>
        <time>2015-06-15T18:30:06.772Z</time>
      </trkpt>
      <trkpt lat="48.8708" lon="2.33594">
        <ele>102.7</ele>
        <time>2015-06-15T18:30:07.935Z</time>
      </trkpt>
      <trkpt lat="48.87086" lon="2.33595">
        <ele>102.5</ele>
        <time>2015-06-15T18:30:08.810Z</time>
      </trkpt>
      <trkpt lat="48.87091" lon="2.33596">
        <ele>102.6</ele>
        <time>2015-06-15T18:30:09.822Z</time>
      </trkpt>
      <trkpt lat="48.87095" lon="2.33597">
        <ele>102.7</ele>
        <time>2015-06-15T18:30:10.770Z</time>
      </trkpt>
      <trkpt lat="48.87101" lon="2.33599">
        <ele>103.4</ele>
        <time>2015-06-15T18:30:11.819Z</time>
      </trkpt>
      <trkpt lat="48.87105" lon="2.33601">
        <ele>103.7</ele>
        <time>2015-06-15T18:30:12.827Z</time>
      </trkpt>
      <trkpt lat="48.87111" lon="2.33604">
        <ele>104.2</ele>
        <time>2015-06-15T18:30:14.840Z</time>
      </trkpt>
      <trkpt lat="48.87114" lon="2.33605">
        <ele>104.5</ele>
        <time>2015-06-15T18:30:15.857Z</time>
      </trkpt>
      <trkpt lat="48.87122" lon="2.33604">
        <ele>105.2</ele>
        <time>2015-06-15T18:30:18.035Z</time>
      </trkpt>
      <trkpt lat="48.87126" lon="2.33603">
        <ele>105.5</ele>
        <time>2015-06-15T18:30:18.815Z</time>
      </trkpt>
      <trkpt lat="48.87133" lon="2.336">
        <ele>106</ele>
        <time>2015-06-15T18:30:20.860Z</time>
      </trkpt>
      <trkpt lat="48.87138" lon="2.336">
        <ele>106.4</ele>
        <time>2015-06-15T18:30:21.781Z</time>
      </trkpt>
      <trkpt lat="48.87143" lon="2.33603">
        <ele>106.5</ele>
        <time>2015-06-15T18:30:23.200Z</time>
      </trkpt>
      <trkpt lat="48.87149" lon="2.33606">
        <ele>106.7</ele>
        <time>2015-06-15T18:30:23.787Z</time>
      </trkpt>
      <trkpt lat="48.87155" lon="2.33609">
        <ele>106.9</ele>
        <time>2015-06-15T18:30:24.810Z</time>
      </trkpt>
      <trkpt lat="48.87161" lon="2.33611">
        <ele>107</ele>
        <time>2015-06-15T18:30:25.811Z</time>
      </trkpt>
      <trkpt lat="48.87168" lon="2.33612">
        <ele>107.2</ele>
        <time>2015-06-15T18:30:26.824Z</time>
      </trkpt>
      <trkpt lat="48.87176" lon="2.33613">
        <ele>107.3</ele>
        <time>2015-06-15T18:30:27.825Z</time>
      </trkpt>
      <trkpt lat="48.87184" lon="2.33616">
        <ele>107.1</ele>
        <time>2015-06-15T18:30:29.802Z</time>
      </trkpt>
      <trkpt lat="48.87187" lon="2.33617">
        <ele>107.1</ele>
        <time>2015-06-15T18:30:30.831Z</time>
      </trkpt>
      <trkpt lat="48.87192" lon="2.33621">
        <ele>107.2</ele>
        <time>2015-06-15T18:30:32.815Z</time>
      </trkpt>
      <trkpt lat="48.87195" lon="2.33623">
        <ele>107.1</ele>
        <time>2015-06-15T18:30:33.839Z</time>
      </trkpt>
      <trkpt lat="48.87201" lon="2.33626">
        <ele>107</ele>
        <time>2015-06-15T18:30:37.829Z</time>
      </trkpt>
      <trkpt lat="48.87201" lon="2.33625">
        <ele>107.1</ele>
        <time>2015-06-15T18:30:38.919Z</time>
      </trkpt>
      <trkpt lat="48.87203" lon="2.33624">
        <ele>107.2</ele>
        <time>2015-06-15T18:30:39.794Z</time>
      </trkpt>
      <trkpt lat="48.87209" lon="2.3362">
        <ele>107.2</ele>
        <time>2015-06-15T18:30:41.861Z</time>
      </trkpt>
      <trkpt lat="48.87211" lon="2.33617">
        <ele>107.2</ele>
        <time>2015-06-15T18:30:42.827Z</time>
      </trkpt>
      <trkpt lat="48.87216" lon="2.3361">
        <ele>107.6</ele>
        <time>2015-06-15T18:30:44.811Z</time>
      </trkpt>
      <trkpt lat="48.87218" lon="2.33607">
        <ele>107.7</ele>
        <time>2015-06-15T18:30:45.842Z</time>
      </trkpt>
      <trkpt lat="48.87221" lon="2.33603">
        <ele>107.7</ele>
        <time>2015-06-15T18:30:46.859Z</time>
      </trkpt>
      <trkpt lat="48.87225" lon="2.33597">
        <ele>106.9</ele>
        <time>2015-06-15T18:30:47.741Z</time>
      </trkpt>
      <trkpt lat="48.87229" lon="2.33593">
        <ele>106.5</ele>
        <time>2015-06-15T18:30:48.814Z</time>
      </trkpt>
      <trkpt lat="48.87232" lon="2.33589">
        <ele>106.3</ele>
        <time>2015-06-15T18:30:49.831Z</time>
      </trkpt>
      <trkpt lat="48.87236" lon="2.33584">
        <ele>105.9</ele>
        <time>2015-06-15T18:30:50.859Z</time>
      </trkpt>
      <trkpt lat="48.8724" lon="2.33578">
        <ele>105.4</ele>
        <time>2015-06-15T18:30:51.761Z</time>
      </trkpt>
      <trkpt lat="48.87245" lon="2.33571">
        <ele>104.7</ele>
        <time>2015-06-15T18:30:52.785Z</time>
      </trkpt>
      <trkpt lat="48.87248" lon="2.33564">
        <ele>104.5</ele>
        <time>2015-06-15T18:30:53.790Z</time>
      </trkpt>
      <trkpt lat="48.8725" lon="2.33557">
        <ele>104.2</ele>
        <time>2015-06-15T18:30:54.793Z</time>
      </trkpt>
      <trkpt lat="48.87258" lon="2.33553">
        <ele>103.5</ele>
        <time>2015-06-15T18:30:55.806Z</time>
      </trkpt>
      <trkpt lat="48.87263" lon="2.33548">
        <ele>103.3</ele>
        <time>2015-06-15T18:30:56.848Z</time>
      </trkpt>
      <trkpt lat="48.87267" lon="2.33545">
        <ele>103.5</ele>
        <time>2015-06-15T18:30:57.912Z</time>
      </trkpt>
      <trkpt lat="48.87274" lon="2.33544">
        <ele>104.5</ele>
        <time>2015-06-15T18:30:59.826Z</time>
      </trkpt>
      <trkpt lat="48.87277" lon="2.33544">
        <ele>105</ele>
        <time>2015-06-15T18:31:00.784Z</time>
      </trkpt>
      <trkpt lat="48.87283" lon="2.33548">
        <ele>106</ele>
        <time>2015-06-15T18:31:02.874Z</time>
      </trkpt>
      <trkpt lat="48.87288" lon="2.3355">
        <ele>106.8</ele>
        <time>2015-06-15T18:31:03.766Z</time>
      </trkpt>
      <trkpt lat="48.87293" lon="2.33553">
        <ele>107.3</ele>
        <time>2015-06-15T18:31:04.854Z</time>
      </trkpt>
      <trkpt lat="48.87298" lon="2.33555">
        <ele>107.7</ele>
        <time>2015-06-15T18:31:05.822Z</time>
      </trkpt>
      <trkpt lat="48.87303" lon="2.33557">
        <ele>108.1</ele>
        <time>2015-06-15T18:31:06.766Z</time>
      </trkpt>
      <trkpt lat="48.87307" lon="2.33556">
        <ele>108.3</ele>
        <time>2015-06-15T18:31:07.789Z</time>
      </trkpt>
      <trkpt lat="48.87314" lon="2.3356">
        <ele>108.5</ele>
        <time>2015-06-15T18:31:09.750Z</time>
      </trkpt>
      <trkpt lat="48.87318" lon="2.3356">
        <ele>108.7</ele>
        <time>2015-06-15T18:31:10.754Z</time>
      </trkpt>
      <trkpt lat="48.87325" lon="2.33561">
        <ele>109</ele>
        <time>2015-06-15T18:31:12.780Z</time>
      </trkpt>
      <trkpt lat="48.87327" lon="2.3356">
        <ele>109.1</ele>
        <time>2015-06-15T18:31:13.873Z</time>
      </trkpt>
      <trkpt lat="48.87333" lon="2.33559">
        <ele>110</ele>
        <time>2015-06-15T18:31:16.803Z</time>
      </trkpt>
      <trkpt lat="48.87337" lon="2.33555">
        <ele>109.6</ele>
        <time>2015-06-15T18:31:17.813Z</time>
      </trkpt>
      <trkpt lat="48.87343" lon="2.33547">
        <ele>109</ele>
        <time>2015-06-15T18:31:20.778Z</time>
      </trkpt>
      <trkpt lat="48.87347" lon="2.3355">
        <ele>108.3</ele>
        <time>2015-06-15T18:31:21.768Z</time>
      </trkpt>
      <trkpt lat="48.87352" lon="2.33547">
        <ele>108.1</ele>
        <time>2015-06-15T18:31:24.835Z</time>
      </trkpt>
      <trkpt lat="48.87357" lon="2.33547">
        <ele>108.4</ele>
        <time>2015-06-15T18:31:25.845Z</time>
      </trkpt>
      <trkpt lat="48.87364" lon="2.33544">
        <ele>109</ele>
        <time>2015-06-15T18:31:26.882Z</time>
      </trkpt>
      <trkpt lat="48.8737" lon="2.33543">
        <ele>109.2</ele>
        <time>2015-06-15T18:31:27.806Z</time>
      </trkpt>
      <trkpt lat="48.87376" lon="2.33543">
        <ele>109.4</ele>
        <time>2015-06-15T18:31:28.833Z</time>
      </trkpt>
      <trkpt lat="48.8738" lon="2.33543">
        <ele>109.6</ele>
        <time>2015-06-15T18:31:29.859Z</time>
      </trkpt>
      <trkpt lat="48.87389" lon="2.33545">
        <ele>109.7</ele>
        <time>2015-06-15T18:31:31.832Z</time>
      </trkpt>
      <trkpt lat="48.87393" lon="2.33547">
        <ele>109.8</ele>
        <time>2015-06-15T18:31:32.915Z</time>
      </trkpt>
      <trkpt lat="48.87398" lon="2.33548">
        <ele>109.8</ele>
        <time>2015-06-15T18:31:33.760Z</time>
      </trkpt>
      <trkpt lat="48.87404" lon="2.33546">
        <ele>108.2</ele>
        <time>2015-06-15T18:31:34.768Z</time>
      </trkpt>
      <trkpt lat="48.87412" lon="2.33546">
        <ele>107.5</ele>
        <time>2015-06-15T18:31:36.799Z</time>
      </trkpt>
      <trkpt lat="48.87415" lon="2.33547">
        <ele>107.5</ele>
        <time>2015-06-15T18:31:37.816Z</time>
      </trkpt>
      <trkpt lat="48.87423" lon="2.3355">
        <ele>107.6</ele>
        <time>2015-06-15T18:31:39.776Z</time>
      </trkpt>
      <trkpt lat="48.87427" lon="2.33552">
        <ele>107.7</ele>
        <time>2015-06-15T18:31:40.786Z</time>
      </trkpt>
      <trkpt lat="48.87433" lon="2.33546">
        <ele>108.2</ele>
        <time>2015-06-15T18:31:42.729Z</time>
      </trkpt>
      <trkpt lat="48.87434" lon="2.33539">
        <ele>109.2</ele>
        <time>2015-06-15T18:31:43.763Z</time>
      </trkpt>
      <trkpt lat="48.8744" lon="2.33528">
        <ele>111.6</ele>
        <time>2015-06-15T18:31:45.872Z</time>
      </trkpt>
      <trkpt lat="48.87441" lon="2.3353">
        <ele>112.3</ele>
        <time>2015-06-15T18:31:46.822Z</time>
      </trkpt>
      <trkpt lat="48.87448" lon="2.33534">
        <ele>113.4</ele>
        <time>2015-06-15T18:31:48.797Z</time>
      </trkpt>
      <trkpt lat="48.87452" lon="2.33536">
        <ele>113.8</ele>
        <time>2015-06-15T18:31:49.832Z</time>
      </trkpt>
      <trkpt lat="48.8746" lon="2.3354">
        <ele>114.5</ele>
        <time>2015-06-15T18:31:51.790Z</time>
      </trkpt>
      <trkpt lat="48.87465" lon="2.3354">
        <ele>114.8</ele>
        <time>2015-06-15T18:31:52.911Z</time>
      </trkpt>
      <trkpt lat="48.87469" lon="2.33538">
        <ele>115.5</ele>
        <time>2015-06-15T18:31:53.788Z</time>
      </trkpt>
      <trkpt lat="48.87475" lon="2.33538">
        <ele>115.6</ele>
        <time>2015-06-15T18:31:54.802Z</time>
      </trkpt>
      <trkpt lat="48.87482" lon="2.33533">
        <ele>114.2</ele>
        <time>2015-06-15T18:31:55.840Z</time>
      </trkpt>
      <trkpt lat="48.87489" lon="2.33531">
        <ele>113.5</ele>
        <time>2015-06-15T18:31:56.818Z</time>
      </trkpt>
      <trkpt lat="48.87495" lon="2.33529">
        <ele>113.9</ele>
        <time>2015-06-15T18:31:57.818Z</time>
      </trkpt>
      <trkpt lat="48.87501" lon="2.33529">
        <ele>114.2</ele>
        <time>2015-06-15T18:31:58.834Z</time>
      </trkpt>
      <trkpt lat="48.87505" lon="2.33532">
        <ele>114.3</ele>
        <time>2015-06-15T18:31:59.847Z</time>
      </trkpt>
      <trkpt lat="48.8751" lon="2.33535">
        <ele>114.5</ele>
        <time>2015-06-15T18:32:00.855Z</time>
      </trkpt>
      <trkpt lat="48.87518" lon="2.33538">
        <ele>114.9</ele>
        <time>2015-06-15T18:32:02.894Z</time>
      </trkpt>
      <trkpt lat="48.87523" lon="2.33539">
        <ele>115.2</ele>
        <time>2015-06-15T18:32:03.883Z</time>
      </trkpt>
      <trkpt lat="48.87528" lon="2.3354">
        <ele>115.5</ele>
        <time>2015-06-15T18:32:04.755Z</time>
      </trkpt>
      <trkpt lat="48.87533" lon="2.33542">
        <ele>115.7</ele>
        <time>2015-06-15T18:32:05.750Z</time>
      </trkpt>
      <trkpt lat="48.87539" lon="2.33544">
        <ele>116</ele>
        <time>2015-06-15T18:32:06.898Z</time>
      </trkpt>
      <trkpt lat="48.87544" lon="2.33546">
        <ele>116.1</ele>
        <time>2015-06-15T18:32:07.746Z</time>
      </trkpt>
      <trkpt lat="48.87549" lon="2.33549">
        <ele>116.2</ele>
        <time>2015-06-15T18:32:08.776Z</time>
      </trkpt>
      <trkpt lat="48.87553" lon="2.33552">
        <ele>116.3</ele>
        <time>2015-06-15T18:32:09.832Z</time>
      </trkpt>
      <trkpt lat="48.87557" lon="2.33556">
        <ele>116.4</ele>
        <time>2015-06-15T18:32:10.754Z</time>
      </trkpt>
      <trkpt lat="48.87562" lon="2.33559">
        <ele>116.5</ele>
        <time>2015-06-15T18:32:11.750Z</time>
      </trkpt>
      <trkpt lat="48.87566" lon="2.33563">
        <ele>116.6</ele>
        <time>2015-06-15T18:32:12.778Z</time>
      </trkpt>
      <trkpt lat="48.8757" lon="2.33567">
        <ele>116.7</ele>
        <time>2015-06-15T18:32:13.793Z</time>
      </trkpt>
      <trkpt lat="48.87576" lon="2.33574">
        <ele>117.1</ele>
        <time>2015-06-15T18:32:16.781Z</time>
      </trkpt>
      <trkpt lat="48.87577" lon="2.33578">
        <ele>117.1</ele>
        <time>2015-06-15T18:32:17.810Z</time>
      </trkpt>
      <trkpt lat="48.87582" lon="2.33584">
        <ele>117</ele>
        <time>2015-06-15T18:32:19.760Z</time>
      </trkpt>
      <trkpt lat="48.87586" lon="2.33584">
        <ele>116.2</ele>
        <time>2015-06-15T18:32:20.818Z</time>
      </trkpt>
      <trkpt lat="48.8759" lon="2.33574">
        <ele>114.6</ele>
        <time>2015-06-15T18:32:21.766Z</time>
      </trkpt>
      <trkpt lat="48.87594" lon="2.33563">
        <ele>112.8</ele>
        <time>2015-06-15T18:32:22.764Z</time>
      </trkpt>
      <trkpt lat="48.87597" lon="2.33555">
        <ele>111.4</ele>
        <time>2015-06-15T18:32:23.852Z</time>
      </trkpt>
      <trkpt lat="48.87602" lon="2.33549">
        <ele>109.9</ele>
        <time>2015-06-15T18:32:24.787Z</time>
      </trkpt>
      <trkpt lat="48.8761" lon="2.33546">
        <ele>109.2</ele>
        <time>2015-06-15T18:32:27.815Z</time>
      </trkpt>
      <trkpt lat="48.87613" lon="2.33548">
        <ele>109.4</ele>
        <time>2015-06-15T18:32:28.838Z</time>
      </trkpt>
      <trkpt lat="48.87621" lon="2.33551">
        <ele>109.9</ele>
        <time>2015-06-15T18:32:30.870Z</time>
      </trkpt>
      <trkpt lat="48.87625" lon="2.33552">
        <ele>110</ele>
        <time>2015-06-15T18:32:31.782Z</time>
      </trkpt>
      <trkpt lat="48.87632" lon="2.33557">
        <ele>110.3</ele>
        <time>2015-06-15T18:32:33.771Z</time>
      </trkpt>
      <trkpt lat="48.87635" lon="2.33558">
        <ele>110.5</ele>
        <time>2015-06-15T18:32:34.780Z</time>
      </trkpt>
      <trkpt lat="48.87644" lon="2.3356">
        <ele>110.8</ele>
        <time>2015-06-15T18:32:37.825Z</time>
      </trkpt>
      <trkpt lat="48.87647" lon="2.3356">
        <ele>111</ele>
        <time>2015-06-15T18:32:38.800Z</time>
      </trkpt>
      <trkpt lat="48.87654" lon="2.33566">
        <ele>111.2</ele>
        <time>2015-06-15T18:32:40.765Z</time>
      </trkpt>
      <trkpt lat="48.87658" lon="2.33568">
        <ele>111.2</ele>
        <time>2015-06-15T18:32:41.783Z</time>
      </trkpt>
      <trkpt lat="48.87662" lon="2.33569">
        <ele>111.1</ele>
        <time>2015-06-15T18:32:42.811Z</time>
      </trkpt>
      <trkpt lat="48.87665" lon="2.3356">
        <ele>109.8</ele>
        <time>2015-06-15T18:32:43.832Z</time>
      </trkpt>
      <trkpt lat="48.87667" lon="2.33554">
        <ele>109.4</ele>
        <time>2015-06-15T18:32:44.843Z</time>
      </trkpt>
      <trkpt lat="48.87668" lon="2.33546">
        <ele>108.9</ele>
        <time>2015-06-15T18:32:45.754Z</time>
      </trkpt>
      <trkpt lat="48.87669" lon="2.33538">
        <ele>108.6</ele>
        <time>2015-06-15T18:32:46.770Z</time>
      </trkpt>
      <trkpt lat="48.8767" lon="2.3353">
        <ele>108.4</ele>
        <time>2015-06-15T18:32:47.785Z</time>
      </trkpt>
      <trkpt lat="48.87672" lon="2.33522">
        <ele>108.2</ele>
        <time>2015-06-15T18:32:48.802Z</time>
      </trkpt>
      <trkpt lat="48.87673" lon="2.33512">
        <ele>108</ele>
        <time>2015-06-15T18:32:49.816Z</time>
      </trkpt>
      <trkpt lat="48.87674" lon="2.33505">
        <ele>108</ele>
        <time>2015-06-15T18:32:50.835Z</time>
      </trkpt>
      <trkpt lat="48.87675" lon="2.33495">
        <ele>107.6</ele>
        <time>2015-06-15T18:32:51.758Z</time>
      </trkpt>
      <trkpt lat="48.87675" lon="2.33487">
        <ele>107.2</ele>
        <time>2015-06-15T18:32:52.765Z</time>
      </trkpt>
      <trkpt lat="48.87675" lon="2.33479">
        <ele>106.9</ele>
        <time>2015-06-15T18:32:53.775Z</time>
      </trkpt>
      <trkpt lat="48.87675" lon="2.33472">
        <ele>106.4</ele>
        <time>2015-06-15T18:32:54.780Z</time>
      </trkpt>
      <trkpt lat="48.87676" lon="2.33465">
        <ele>106</ele>
        <time>2015-06-15T18:32:55.908Z</time>
      </trkpt>
      <trkpt lat="48.87675" lon="2.33456">
        <ele>105.6</ele>
        <time>2015-06-15T18:32:56.779Z</time>
      </trkpt>
      <trkpt lat="48.87674" lon="2.33448">
        <ele>105.3</ele>
        <time>2015-06-15T18:32:57.787Z</time>
      </trkpt>
      <trkpt lat="48.87674" lon="2.3344">
        <ele>105</ele>
        <time>2015-06-15T18:32:58.780Z</time>
      </trkpt>
      <trkpt lat="48.87673" lon="2.33432">
        <ele>104.8</ele>
        <time>2015-06-15T18:32:59.792Z</time>
      </trkpt>
      <trkpt lat="48.87673" lon="2.33424">
        <ele>104.5</ele>
        <time>2015-06-15T18:33:00.810Z</time>
      </trkpt>
      <trkpt lat="48.87671" lon="2.33416">
        <ele>104.3</ele>
        <time>2015-06-15T18:33:01.818Z</time>
      </trkpt>
      <trkpt lat="48.8767" lon="2.33409">
        <ele>104.2</ele>
        <time>2015-06-15T18:33:02.840Z</time>
      </trkpt>
      <trkpt lat="48.87671" lon="2.33401">
        <ele>104.2</ele>
        <time>2015-06-15T18:33:03.768Z</time>
      </trkpt>
      <trkpt lat="48.87671" lon="2.33393">
        <ele>104.1</ele>
        <time>2015-06-15T18:33:04.774Z</time>
      </trkpt>
      <trkpt lat="48.8767" lon="2.33384">
        <ele>104</ele>
        <time>2015-06-15T18:33:05.785Z</time>
      </trkpt>
      <trkpt lat="48.87669" lon="2.33376">
        <ele>103.9</ele>
        <time>2015-06-15T18:33:06.813Z</time>
      </trkpt>
      <trkpt lat="48.87668" lon="2.33367">
        <ele>103.9</ele>
        <time>2015-06-15T18:33:07.830Z</time>
      </trkpt>
      <trkpt lat="48.87666" lon="2.33359">
        <ele>104</ele>
        <time>2015-06-15T18:33:08.839Z</time>
      </trkpt>
      <trkpt lat="48.87664" lon="2.33351">
        <ele>104.2</ele>
        <time>2015-06-15T18:33:09.755Z</time>
      </trkpt>
      <trkpt lat="48.87661" lon="2.33344">
        <ele>104.2</ele>
        <time>2015-06-15T18:33:10.760Z</time>
      </trkpt>
      <trkpt lat="48.8766" lon="2.33336">
        <ele>104.3</ele>
        <time>2015-06-15T18:33:11.770Z</time>
      </trkpt>
      <trkpt lat="48.8766" lon="2.33328">
        <ele>104.2</ele>
        <time>2015-06-15T18:33:12.792Z</time>
      </trkpt>
      <trkpt lat="48.87659" lon="2.3332">
        <ele>104.1</ele>
        <time>2015-06-15T18:33:13.804Z</time>
      </trkpt>
      <trkpt lat="48.8766" lon="2.33313">
        <ele>104</ele>
        <time>2015-06-15T18:33:14.835Z</time>
      </trkpt>
      <trkpt lat="48.8766" lon="2.33306">
        <ele>103.8</ele>
        <time>2015-06-15T18:33:15.740Z</time>
      </trkpt>
      <trkpt lat="48.87659" lon="2.33298">
        <ele>103.2</ele>
        <time>2015-06-15T18:33:16.750Z</time>
      </trkpt>
      <trkpt lat="48.87658" lon="2.33291">
        <ele>102.9</ele>
        <time>2015-06-15T18:33:17.754Z</time>
      </trkpt>
      <trkpt lat="48.87657" lon="2.33283">
        <ele>102.6</ele>
        <time>2015-06-15T18:33:18.760Z</time>
      </trkpt>
      <trkpt lat="48.87656" lon="2.33276">
        <ele>102.4</ele>
        <time>2015-06-15T18:33:19.770Z</time>
      </trkpt>
      <trkpt lat="48.87653" lon="2.33263">
        <ele>101.8</ele>
        <time>2015-06-15T18:33:21.793Z</time>
      </trkpt>
      <trkpt lat="48.87653" lon="2.33258">
        <ele>101.9</ele>
        <time>2015-06-15T18:33:22.754Z</time>
      </trkpt>
      <trkpt lat="48.87657" lon="2.33247">
        <ele>99.9</ele>
        <time>2015-06-15T18:33:25.836Z</time>
      </trkpt>
      <trkpt lat="48.87662" lon="2.33242">
        <ele>99.1</ele>
        <time>2015-06-15T18:33:26.854Z</time>
      </trkpt>
      <trkpt lat="48.87668" lon="2.33237">
        <ele>98.3</ele>
        <time>2015-06-15T18:33:28.788Z</time>
      </trkpt>
      <trkpt lat="48.87671" lon="2.33235">
        <ele>97.7</ele>
        <time>2015-06-15T18:33:29.841Z</time>
      </trkpt>
      <trkpt lat="48.87678" lon="2.33228">
        <ele>96.6</ele>
        <time>2015-06-15T18:33:31.766Z</time>
      </trkpt>
      <trkpt lat="48.8768" lon="2.33225">
        <ele>96.1</ele>
        <time>2015-06-15T18:33:32.877Z</time>
      </trkpt>
      <trkpt lat="48.87688" lon="2.33218">
        <ele>95.6</ele>
        <time>2015-06-15T18:33:35.723Z</time>
      </trkpt>
      <trkpt lat="48.87691" lon="2.33216">
        <ele>95.5</ele>
        <time>2015-06-15T18:33:36.758Z</time>
      </trkpt>
      <trkpt lat="48.87699" lon="2.33214">
        <ele>95.5</ele>
        <time>2015-06-15T18:33:38.817Z</time>
      </trkpt>
      <trkpt lat="48.87703" lon="2.33214">
        <ele>95.4</ele>
        <time>2015-06-15T18:33:39.783Z</time>
      </trkpt>
      <trkpt lat="48.87712" lon="2.33214">
        <ele>95.6</ele>
        <time>2015-06-15T18:33:41.755Z</time>
      </trkpt>
      <trkpt lat="48.87716" lon="2.33214">
        <ele>95.7</ele>
        <time>2015-06-15T18:33:42.779Z</time>
      </trkpt>
      <trkpt lat="48.87724" lon="2.33213">
        <ele>96</ele>
        <time>2015-06-15T18:33:44.826Z</time>
      </trkpt>
      <trkpt lat="48.87728" lon="2.33212">
        <ele>96.1</ele>
        <time>2015-06-15T18:33:45.773Z</time>
      </trkpt>
      <trkpt lat="48.87734" lon="2.3321">
        <ele>96.4</ele>
        <time>2015-06-15T18:33:47.796Z</time>
      </trkpt>
      <trkpt lat="48.87738" lon="2.3321">
        <ele>96.5</ele>
        <time>2015-06-15T18:33:48.738Z</time>
      </trkpt>
      <trkpt lat="48.87745" lon="2.33211">
        <ele>96.7</ele>
        <time>2015-06-15T18:33:50.755Z</time>
      </trkpt>
      <trkpt lat="48.87748" lon="2.33212">
        <ele>96.8</ele>
        <time>2015-06-15T18:33:51.770Z</time>
      </trkpt>
      <trkpt lat="48.87754" lon="2.33213">
        <ele>97</ele>
        <time>2015-06-15T18:33:53.716Z</time>
      </trkpt>
      <trkpt lat="48.87758" lon="2.33213">
        <ele>96.9</ele>
        <time>2015-06-15T18:33:54.733Z</time>
      </trkpt>
      <trkpt lat="48.87767" lon="2.3321">
        <ele>96.9</ele>
        <time>2015-06-15T18:33:57.986Z</time>
      </trkpt>
      <trkpt lat="48.87769" lon="2.33209">
        <ele>97.1</ele>
        <time>2015-06-15T18:33:58.776Z</time>
      </trkpt>
      <trkpt lat="48.87774" lon="2.332">
        <ele>97.4</ele>
        <time>2015-06-15T18:34:03.222Z</time>
      </trkpt>
      <trkpt lat="48.87774" lon="2.33197">
        <ele>97.3</ele>
        <time>2015-06-15T18:34:03.853Z</time>
      </trkpt>
      <trkpt lat="48.87775" lon="2.33186">
        <ele>96.9</ele>
        <time>2015-06-15T18:34:06.781Z</time>
      </trkpt>
      <trkpt lat="48.87775" lon="2.33179">
        <ele>96.8</ele>
        <time>2015-06-15T18:34:07.794Z</time>
      </trkpt>
      <trkpt lat="48.87774" lon="2.33167">
        <ele>97.5</ele>
        <time>2015-06-15T18:34:09.769Z</time>
      </trkpt>
      <trkpt lat="48.87774" lon="2.33162">
        <ele>97.5</ele>
        <time>2015-06-15T18:34:10.785Z</time>
      </trkpt>
      <trkpt lat="48.87778" lon="2.33151">
        <ele>97.5</ele>
        <time>2015-06-15T18:34:13.458Z</time>
      </trkpt>
      <trkpt lat="48.8778" lon="2.33146">
        <ele>97.5</ele>
        <time>2015-06-15T18:34:13.822Z</time>
      </trkpt>
      <trkpt lat="48.87783" lon="2.33135">
        <ele>97.3</ele>
        <time>2015-06-15T18:34:15.733Z</time>
      </trkpt>
      <trkpt lat="48.87784" lon="2.33129">
        <ele>97.3</ele>
        <time>2015-06-15T18:34:16.771Z</time>
      </trkpt>
      <trkpt lat="48.87783" lon="2.33118">
        <ele>97.6</ele>
        <time>2015-06-15T18:34:18.753Z</time>
      </trkpt>
      <trkpt lat="48.87779" lon="2.33113">
        <ele>97.8</ele>
        <time>2015-06-15T18:34:19.765Z</time>
      </trkpt>
      <trkpt lat="48.87774" lon="2.33105">
        <ele>96.6</ele>
        <time>2015-06-15T18:34:21.809Z</time>
      </trkpt>
      <trkpt lat="48.87774" lon="2.33102">
        <ele>96.5</ele>
        <time>2015-06-15T18:34:22.819Z</time>
      </trkpt>
      <trkpt lat="48.87771" lon="2.33091">
        <ele>96.7</ele>
        <time>2015-06-15T18:34:25.899Z</time>
      </trkpt>
      <trkpt lat="48.8777" lon="2.33088">
        <ele>96.8</ele>
        <time>2015-06-15T18:34:26.883Z</time>
      </trkpt>
      <trkpt lat="48.87764" lon="2.33078">
        <ele>97.6</ele>
        <time>2015-06-15T18:34:29.837Z</time>
      </trkpt>
      <trkpt lat="48.87762" lon="2.33075">
        <ele>97.9</ele>
        <time>2015-06-15T18:34:30.839Z</time>
      </trkpt>
      <trkpt lat="48.87759" lon="2.33064">
        <ele>98</ele>
        <time>2015-06-15T18:34:33.757Z</time>
      </trkpt>
      <trkpt lat="48.8776" lon="2.3306">
        <ele>98</ele>
        <time>2015-06-15T18:34:34.774Z</time>
      </trkpt>
      <trkpt lat="48.87765" lon="2.33051">
        <ele>98.4</ele>
        <time>2015-06-15T18:34:36.815Z</time>
      </trkpt>
      <trkpt lat="48.87768" lon="2.33048">
        <ele>98.4</ele>
        <time>2015-06-15T18:34:37.827Z</time>
      </trkpt>
      <trkpt lat="48.87775" lon="2.33045">
        <ele>98.3</ele>
        <time>2015-06-15T18:34:39.847Z</time>
      </trkpt>
      <trkpt lat="48.87778" lon="2.33044">
        <ele>98.2</ele>
        <time>2015-06-15T18:34:40.776Z</time>
      </trkpt>
      <trkpt lat="48.87785" lon="2.33041">
        <ele>98.4</ele>
        <time>2015-06-15T18:34:42.813Z</time>
      </trkpt>
      <trkpt lat="48.87789" lon="2.33038">
        <ele>98.6</ele>
        <time>2015-06-15T18:34:43.828Z</time>
      </trkpt>
      <trkpt lat="48.87795" lon="2.33035">
        <ele>98.8</ele>
        <time>2015-06-15T18:34:45.839Z</time>
      </trkpt>
      <trkpt lat="48.87798" lon="2.33034">
        <ele>98.9</ele>
        <time>2015-06-15T18:34:46.852Z</time>
      </trkpt>
      <trkpt lat="48.87806" lon="2.33031">
        <ele>98.7</ele>
        <time>2015-06-15T18:34:48.834Z</time>
      </trkpt>
      <trkpt lat="48.8781" lon="2.33029">
        <ele>98.5</ele>
        <time>2015-06-15T18:34:49.769Z</time>
      </trkpt>
      <trkpt lat="48.87817" lon="2.33025">
        <ele>98.6</ele>
        <time>2015-06-15T18:34:51.734Z</time>
      </trkpt>
      <trkpt lat="48.8782" lon="2.33024">
        <ele>98.8</ele>
        <time>2015-06-15T18:34:52.763Z</time>
      </trkpt>
      <trkpt lat="48.87827" lon="2.33022">
        <ele>99</ele>
        <time>2015-06-15T18:34:54.750Z</time>
      </trkpt>
      <trkpt lat="48.87831" lon="2.33021">
        <ele>99.1</ele>
        <time>2015-06-15T18:34:55.759Z</time>
      </trkpt>
      <trkpt lat="48.87839" lon="2.33019">
        <ele>99.4</ele>
        <time>2015-06-15T18:34:57.838Z</time>
      </trkpt>
      <trkpt lat="48.87843" lon="2.33018">
        <ele>99.6</ele>
        <time>2015-06-15T18:34:58.816Z</time>
      </trkpt>
      <trkpt lat="48.87848" lon="2.33007">
        <ele>100.6</ele>
        <time>2015-06-15T18:35:00.754Z</time>
      </trkpt>
      <trkpt lat="48.87852" lon="2.32997">
        <ele>99.7</ele>
        <time>2015-06-15T18:35:01.770Z</time>
      </trkpt>
      <trkpt lat="48.87857" lon="2.3299">
        <ele>101.1</ele>
        <time>2015-06-15T18:35:03.773Z</time>
      </trkpt>
      <trkpt lat="48.87859" lon="2.32988">
        <ele>101.6</ele>
        <time>2015-06-15T18:35:04.783Z</time>
      </trkpt>
      <trkpt lat="48.87867" lon="2.32987">
        <ele>101.9</ele>
        <time>2015-06-15T18:35:06.801Z</time>
      </trkpt>
      <trkpt lat="48.87872" lon="2.32987">
        <ele>102</ele>
        <time>2015-06-15T18:35:07.829Z</time>
      </trkpt>
      <trkpt lat="48.87876" lon="2.32986">
        <ele>102.1</ele>
        <time>2015-06-15T18:35:08.816Z</time>
      </trkpt>
      <trkpt lat="48.87881" lon="2.32984">
        <ele>102</ele>
        <time>2015-06-15T18:35:09.800Z</time>
      </trkpt>
      <trkpt lat="48.87885" lon="2.3298">
        <ele>101.6</ele>
        <time>2015-06-15T18:35:10.810Z</time>
      </trkpt>
      <trkpt lat="48.8789" lon="2.32975">
        <ele>101</ele>
        <time>2015-06-15T18:35:11.846Z</time>
      </trkpt>
      <trkpt lat="48.87896" lon="2.32966">
        <ele>100.7</ele>
        <time>2015-06-15T18:35:13.788Z</time>
      </trkpt>
      <trkpt lat="48.87899" lon="2.32964">
        <ele>100.9</ele>
        <time>2015-06-15T18:35:14.881Z</time>
      </trkpt>
      <trkpt lat="48.87903" lon="2.32961">
        <ele>101.1</ele>
        <time>2015-06-15T18:35:15.771Z</time>
      </trkpt>
      <trkpt lat="48.87908" lon="2.32959">
        <ele>101</ele>
        <time>2015-06-15T18:35:16.777Z</time>
      </trkpt>
      <trkpt lat="48.87913" lon="2.32955">
        <ele>100.9</ele>
        <time>2015-06-15T18:35:18.126Z</time>
      </trkpt>
      <trkpt lat="48.87918" lon="2.32951">
        <ele>100.8</ele>
        <time>2015-06-15T18:35:18.825Z</time>
      </trkpt>
      <trkpt lat="48.87923" lon="2.32948">
        <ele>100.8</ele>
        <time>2015-06-15T18:35:19.775Z</time>
      </trkpt>
      <trkpt lat="48.87926" lon="2.32944">
        <ele>101.1</ele>
        <time>2015-06-15T18:35:20.808Z</time>
      </trkpt>
      <trkpt lat="48.87934" lon="2.32942">
        <ele>101.3</ele>
        <time>2015-06-15T18:35:23.266Z</time>
      </trkpt>
      <trkpt lat="48.87938" lon="2.3294">
        <ele>101.4</ele>
        <time>2015-06-15T18:35:23.846Z</time>
      </trkpt>
      <trkpt lat="48.87946" lon="2.32935">
        <ele>101.7</ele>
        <time>2015-06-15T18:35:25.829Z</time>
      </trkpt>
      <trkpt lat="48.8795" lon="2.32933">
        <ele>102</ele>
        <time>2015-06-15T18:35:26.855Z</time>
      </trkpt>
      <trkpt lat="48.87955" lon="2.32931">
        <ele>101.9</ele>
        <time>2015-06-15T18:35:28.401Z</time>
      </trkpt>
      <trkpt lat="48.8796" lon="2.32928">
        <ele>101.5</ele>
        <time>2015-06-15T18:35:28.774Z</time>
      </trkpt>
      <trkpt lat="48.87967" lon="2.32927">
        <ele>101.8</ele>
        <time>2015-06-15T18:35:30.806Z</time>
      </trkpt>
      <trkpt lat="48.8797" lon="2.32927">
        <ele>101.9</ele>
        <time>2015-06-15T18:35:31.823Z</time>
      </trkpt>
      <trkpt lat="48.87978" lon="2.32926">
        <ele>102.1</ele>
        <time>2015-06-15T18:35:33.738Z</time>
      </trkpt>
      <trkpt lat="48.87982" lon="2.32926">
        <ele>102.1</ele>
        <time>2015-06-15T18:35:34.758Z</time>
      </trkpt>
      <trkpt lat="48.87988" lon="2.32922">
        <ele>102.5</ele>
        <time>2015-06-15T18:35:36.800Z</time>
      </trkpt>
      <trkpt lat="48.8799" lon="2.32919">
        <ele>103</ele>
        <time>2015-06-15T18:35:37.829Z</time>
      </trkpt>
      <trkpt lat="48.87996" lon="2.32914">
        <ele>103.7</ele>
        <time>2015-06-15T18:35:38.700Z</time>
      </trkpt>
      <trkpt lat="48.87999" lon="2.32913">
        <ele>103.8</ele>
        <time>2015-06-15T18:35:40.760Z</time>
      </trkpt>
      <trkpt lat="48.88007" lon="2.32912">
        <ele>104</ele>
        <time>2015-06-15T18:35:42.806Z</time>
      </trkpt>
      <trkpt lat="48.8801" lon="2.32911">
        <ele>104.1</ele>
        <time>2015-06-15T18:35:43.834Z</time>
      </trkpt>
      <trkpt lat="48.88018" lon="2.32909">
        <ele>104.2</ele>
        <time>2015-06-15T18:35:45.760Z</time>
      </trkpt>
      <trkpt lat="48.88022" lon="2.32907">
        <ele>104.2</ele>
        <time>2015-06-15T18:35:46.762Z</time>
      </trkpt>
      <trkpt lat="48.8803" lon="2.32903">
        <ele>104.3</ele>
        <time>2015-06-15T18:35:48.929Z</time>
      </trkpt>
      <trkpt lat="48.88034" lon="2.329">
        <ele>104.4</ele>
        <time>2015-06-15T18:35:49.846Z</time>
      </trkpt>
      <trkpt lat="48.8804" lon="2.32896">
        <ele>103.4</ele>
        <time>2015-06-15T18:35:50.857Z</time>
      </trkpt>
      <trkpt lat="48.88044" lon="2.32893">
        <ele>103.1</ele>
        <time>2015-06-15T18:35:51.770Z</time>
      </trkpt>
      <trkpt lat="48.88051" lon="2.3289">
        <ele>103.1</ele>
        <time>2015-06-15T18:35:54.111Z</time>
      </trkpt>
      <trkpt lat="48.88054" lon="2.32889">
        <ele>103.2</ele>
        <time>2015-06-15T18:35:54.775Z</time>
      </trkpt>
      <trkpt lat="48.88061" lon="2.32892">
        <ele>103.6</ele>
        <time>2015-06-15T18:35:56.810Z</time>
      </trkpt>
      <trkpt lat="48.88065" lon="2.32893">
        <ele>103.8</ele>
        <time>2015-06-15T18:35:57.740Z</time>
      </trkpt>
      <trkpt lat="48.88071" lon="2.32895">
        <ele>104.5</ele>
        <time>2015-06-15T18:35:59.858Z</time>
      </trkpt>
      <trkpt lat="48.88074" lon="2.32894">
        <ele>105</ele>
        <time>2015-06-15T18:36:00.781Z</time>
      </trkpt>
      <trkpt lat="48.8808" lon="2.3289">
        <ele>105.9</ele>
        <time>2015-06-15T18:36:03.848Z</time>
      </trkpt>
      <trkpt lat="48.88083" lon="2.32888">
        <ele>106.1</ele>
        <time>2015-06-15T18:36:04.851Z</time>
      </trkpt>
      <trkpt lat="48.88089" lon="2.32882">
        <ele>106.5</ele>
        <time>2015-06-15T18:36:06.777Z</time>
      </trkpt>
      <trkpt lat="48.88092" lon="2.32881">
        <ele>106.7</ele>
        <time>2015-06-15T18:36:07.806Z</time>
      </trkpt>
      <trkpt lat="48.88099" lon="2.32877">
        <ele>107</ele>
        <time>2015-06-15T18:36:09.843Z</time>
      </trkpt>
      <trkpt lat="48.88102" lon="2.32876">
        <ele>107</ele>
        <time>2015-06-15T18:36:10.768Z</time>
      </trkpt>
      <trkpt lat="48.8811" lon="2.32873">
        <ele>107.2</ele>
        <time>2015-06-15T18:36:12.930Z</time>
      </trkpt>
      <trkpt lat="48.88114" lon="2.32868">
        <ele>106.1</ele>
        <time>2015-06-15T18:36:13.790Z</time>
      </trkpt>
      <trkpt lat="48.88118" lon="2.32864">
        <ele>105.4</ele>
        <time>2015-06-15T18:36:14.808Z</time>
      </trkpt>
      <trkpt lat="48.88122" lon="2.32862">
        <ele>105.4</ele>
        <time>2015-06-15T18:36:15.814Z</time>
      </trkpt>
      <trkpt lat="48.8813" lon="2.3286">
        <ele>105.6</ele>
        <time>2015-06-15T18:36:18.015Z</time>
      </trkpt>
      <trkpt lat="48.88133" lon="2.3286">
        <ele>105.8</ele>
        <time>2015-06-15T18:36:18.790Z</time>
      </trkpt>
      <trkpt lat="48.8814" lon="2.32859">
        <ele>106</ele>
        <time>2015-06-15T18:36:20.826Z</time>
      </trkpt>
      <trkpt lat="48.88144" lon="2.32859">
        <ele>106.1</ele>
        <time>2015-06-15T18:36:21.913Z</time>
      </trkpt>
      <trkpt lat="48.8815" lon="2.32857">
        <ele>106.3</ele>
        <time>2015-06-15T18:36:23.920Z</time>
      </trkpt>
      <trkpt lat="48.88154" lon="2.32856">
        <ele>106.3</ele>
        <time>2015-06-15T18:36:24.784Z</time>
      </trkpt>
      <trkpt lat="48.88161" lon="2.32854">
        <ele>106.6</ele>
        <time>2015-06-15T18:36:26.839Z</time>
      </trkpt>
      <trkpt lat="48.88164" lon="2.32854">
        <ele>106.6</ele>
        <time>2015-06-15T18:36:27.860Z</time>
      </trkpt>
      <trkpt lat="48.8817" lon="2.32853">
        <ele>106.8</ele>
        <time>2015-06-15T18:36:29.790Z</time>
      </trkpt>
      <trkpt lat="48.88174" lon="2.32852">
        <ele>106.9</ele>
        <time>2015-06-15T18:36:30.816Z</time>
      </trkpt>
      <trkpt lat="48.8818" lon="2.32848">
        <ele>107.1</ele>
        <time>2015-06-15T18:36:33.290Z</time>
      </trkpt>
      <trkpt lat="48.88183" lon="2.32846">
        <ele>107.2</ele>
        <time>2015-06-15T18:36:33.791Z</time>
      </trkpt>
      <trkpt lat="48.88189" lon="2.3284">
        <ele>107.8</ele>
        <time>2015-06-15T18:36:35.809Z</time>
      </trkpt>
      <trkpt lat="48.88192" lon="2.32838">
        <ele>107.8</ele>
        <time>2015-06-15T18:36:36.811Z</time>
      </trkpt>
      <trkpt lat="48.88198" lon="2.32834">
        <ele>108.1</ele>
        <time>2015-06-15T18:36:38.825Z</time>
      </trkpt>
      <trkpt lat="48.88202" lon="2.32832">
        <ele>108.3</ele>
        <time>2015-06-15T18:36:39.830Z</time>
      </trkpt>
      <trkpt lat="48.88205" lon="2.3283">
        <ele>108.6</ele>
        <time>2015-06-15T18:36:40.805Z</time>
      </trkpt>
      <trkpt lat="48.8821" lon="2.32826">
        <ele>107.6</ele>
        <time>2015-06-15T18:36:41.808Z</time>
      </trkpt>
      <trkpt lat="48.88217" lon="2.32822">
        <ele>107.6</ele>
        <time>2015-06-15T18:36:43.748Z</time>
      </trkpt>
      <trkpt lat="48.8822" lon="2.32821">
        <ele>108</ele>
        <time>2015-06-15T18:36:44.882Z</time>
      </trkpt>
      <trkpt lat="48.88227" lon="2.32814">
        <ele>109.2</ele>
        <time>2015-06-15T18:36:48.431Z</time>
      </trkpt>
      <trkpt lat="48.8823" lon="2.32812">
        <ele>109.6</ele>
        <time>2015-06-15T18:36:48.768Z</time>
      </trkpt>
      <trkpt lat="48.88235" lon="2.32809">
        <ele>109.9</ele>
        <time>2015-06-15T18:36:50.817Z</time>
      </trkpt>
      <trkpt lat="48.88238" lon="2.32806">
        <ele>110.2</ele>
        <time>2015-06-15T18:36:51.827Z</time>
      </trkpt>
      <trkpt lat="48.88245" lon="2.32804">
        <ele>110.4</ele>
        <time>2015-06-15T18:36:54.399Z</time>
      </trkpt>
      <trkpt lat="48.88248" lon="2.32803">
        <ele>110.6</ele>
        <time>2015-06-15T18:36:54.725Z</time>
      </trkpt>
      <trkpt lat="48.88255" lon="2.32798">
        <ele>111.2</ele>
        <time>2015-06-15T18:36:57.846Z</time>
      </trkpt>
      <trkpt lat="48.88258" lon="2.32797">
        <ele>111.3</ele>
        <time>2015-06-15T18:36:58.784Z</time>
      </trkpt>
      <trkpt lat="48.88266" lon="2.32792">
        <ele>111.4</ele>
        <time>2015-06-15T18:37:01.780Z</time>
      </trkpt>
      <trkpt lat="48.88269" lon="2.32791">
        <ele>111.5</ele>
        <time>2015-06-15T18:37:02.799Z</time>
      </trkpt>
      <trkpt lat="48.88275" lon="2.32788">
        <ele>112.4</ele>
        <time>2015-06-15T18:37:04.764Z</time>
      </trkpt>
      <trkpt lat="48.88278" lon="2.32788">
        <ele>112.7</ele>
        <time>2015-06-15T18:37:05.774Z</time>
      </trkpt>
      <trkpt lat="48.88286" lon="2.32784">
        <ele>112.2</ele>
        <time>2015-06-15T18:37:08.819Z</time>
      </trkpt>
      <trkpt lat="48.88288" lon="2.32783">
        <ele>112.1</ele>
        <time>2015-06-15T18:37:09.898Z</time>
      </trkpt>
      <trkpt lat="48.88294" lon="2.32777">
        <ele>111.6</ele>
        <time>2015-06-15T18:37:12.978Z</time>
      </trkpt>
      <trkpt lat="48.88296" lon="2.32774">
        <ele>111.9</ele>
        <time>2015-06-15T18:37:13.780Z</time>
      </trkpt>
      <trkpt lat="48.88302" lon="2.32768">
        <ele>112.9</ele>
        <time>2015-06-15T18:37:16.764Z</time>
      </trkpt>
      <trkpt lat="48.88304" lon="2.32766">
        <ele>112.8</ele>
        <time>2015-06-15T18:37:17.784Z</time>
      </trkpt>
      <trkpt lat="48.88311" lon="2.32759">
        <ele>112.7</ele>
        <time>2015-06-15T18:37:23.168Z</time>
      </trkpt>
      <trkpt lat="48.88312" lon="2.32758">
        <ele>112.7</ele>
        <time>2015-06-15T18:37:23.858Z</time>
      </trkpt>
      <trkpt lat="48.88321" lon="2.32755">
        <ele>112.9</ele>
        <time>2015-06-15T18:37:28.853Z</time>
      </trkpt>
      <trkpt lat="48.88322" lon="2.32754">
        <ele>113</ele>
        <time>2015-06-15T18:37:29.843Z</time>
      </trkpt>
      <trkpt lat="48.88324" lon="2.32753">
        <ele>113.3</ele>
        <time>2015-06-15T18:37:31.806Z</time>
      </trkpt>
      <trkpt lat="48.88323" lon="2.32753">
        <ele>113.6</ele>
        <time>2015-06-15T18:37:32.968Z</time>
      </trkpt>
      <trkpt lat="48.88324" lon="2.32753">
        <ele>113.8</ele>
        <time>2015-06-15T18:37:35.896Z</time>
      </trkpt>
      <trkpt lat="48.88325" lon="2.32755">
        <ele>113.9</ele>
        <time>2015-06-15T18:37:36.750Z</time>
      </trkpt>
      <trkpt lat="48.88325" lon="2.32755">
        <ele>114</ele>
        <time>2015-06-15T18:37:38.402Z</time>
      </trkpt>
      <trkpt lat="48.88326" lon="2.32755">
        <ele>114</ele>
        <time>2015-06-15T18:37:38.819Z</time>
      </trkpt>
      <trkpt lat="48.88326" lon="2.32755">
        <ele>114</ele>
        <time>2015-06-15T18:38:06.766Z</time>
      </trkpt>
      <trkpt lat="48.8833" lon="2.3276">
        <ele>115.6</ele>
        <time>2015-06-15T18:38:07.797Z</time>
      </trkpt>
      <trkpt lat="48.88339" lon="2.32763">
        <ele>116.4</ele>
        <time>2015-06-15T18:38:13.167Z</time>
      </trkpt>
      <trkpt lat="48.88341" lon="2.32764">
        <ele>116.2</ele>
        <time>2015-06-15T18:38:13.828Z</time>
      </trkpt>
      <trkpt lat="48.88349" lon="2.32765">
        <ele>115.9</ele>
        <time>2015-06-15T18:38:18.235Z</time>
      </trkpt>
      <trkpt lat="48.88351" lon="2.32765">
        <ele>116.1</ele>
        <time>2015-06-15T18:38:18.819Z</time>
      </trkpt>
      <trkpt lat="48.88352" lon="2.32765">
        <ele>116.1</ele>
        <time>2015-06-15T18:38:20.060Z</time>
      </trkpt>
      <trkpt lat="48.88353" lon="2.32764">
        <ele>116.2</ele>
        <time>2015-06-15T18:38:20.886Z</time>
      </trkpt>
      <trkpt lat="48.88354" lon="2.32764">
        <ele>116.5</ele>
        <time>2015-06-15T18:38:21.781Z</time>
      </trkpt>
      <trkpt lat="48.88361" lon="2.32757">
        <ele>119.8</ele>
        <time>2015-06-15T18:38:49.822Z</time>
      </trkpt>
      <trkpt lat="48.88363" lon="2.32754">
        <ele>119.9</ele>
        <time>2015-06-15T18:38:50.861Z</time>
      </trkpt>
      <trkpt lat="48.88368" lon="2.32746">
        <ele>120.4</ele>
        <time>2015-06-15T18:38:53.827Z</time>
      </trkpt>
      <trkpt lat="48.8837" lon="2.32743">
        <ele>120.6</ele>
        <time>2015-06-15T18:38:54.864Z</time>
      </trkpt>
      <trkpt lat="48.88376" lon="2.32736">
        <ele>120.9</ele>
        <time>2015-06-15T18:38:57.822Z</time>
      </trkpt>
      <trkpt lat="48.88378" lon="2.32733">
        <ele>120.9</ele>
        <time>2015-06-15T18:38:58.749Z</time>
      </trkpt>
      <trkpt lat="48.88386" lon="2.32729">
        <ele>122.5</ele>
        <time>2015-06-15T18:39:03.101Z</time>
      </trkpt>
      <trkpt lat="48.88388" lon="2.32727">
        <ele>122.9</ele>
        <time>2015-06-15T18:39:03.828Z</time>
      </trkpt>
      <trkpt lat="48.88395" lon="2.32725">
        <ele>123.7</ele>
        <time>2015-06-15T18:39:06.817Z</time>
      </trkpt>
      <trkpt lat="48.88397" lon="2.32724">
        <ele>124</ele>
        <time>2015-06-15T18:39:07.832Z</time>
      </trkpt>
      <trkpt lat="48.88406" lon="2.32722">
        <ele>124.4</ele>
        <time>2015-06-15T18:39:13.245Z</time>
      </trkpt>
      <trkpt lat="48.88407" lon="2.32721">
        <ele>124.7</ele>
        <time>2015-06-15T18:39:13.828Z</time>
      </trkpt>
      <trkpt lat="48.88415" lon="2.32714">
        <ele>124.8</ele>
        <time>2015-06-15T18:39:16.749Z</time>
      </trkpt>
      <trkpt lat="48.88417" lon="2.32712">
        <ele>124.9</ele>
        <time>2015-06-15T18:39:17.774Z</time>
      </trkpt>
      <trkpt lat="48.88426" lon="2.32708">
        <ele>125</ele>
        <time>2015-06-15T18:39:20.827Z</time>
      </trkpt>
      <trkpt lat="48.88429" lon="2.32706">
        <ele>125.1</ele>
        <time>2015-06-15T18:39:21.764Z</time>
      </trkpt>
      <trkpt lat="48.88435" lon="2.32701">
        <ele>125</ele>
        <time>2015-06-15T18:39:23.792Z</time>
      </trkpt>
      <trkpt lat="48.88438" lon="2.327">
        <ele>125.1</ele>
        <time>2015-06-15T18:39:24.806Z</time>
      </trkpt>
      <trkpt lat="48.88445" lon="2.32697">
        <ele>125.1</ele>
        <time>2015-06-15T18:39:26.876Z</time>
      </trkpt>
      <trkpt lat="48.88447" lon="2.32695">
        <ele>125.3</ele>
        <time>2015-06-15T18:39:27.780Z</time>
      </trkpt>
      <trkpt lat="48.88453" lon="2.32693">
        <ele>125.5</ele>
        <time>2015-06-15T18:39:29.794Z</time>
      </trkpt>
      <trkpt lat="48.88457" lon="2.32692">
        <ele>125.4</ele>
        <time>2015-06-15T18:39:30.793Z</time>
      </trkpt>
      <trkpt lat="48.88464" lon="2.32689">
        <ele>125.4</ele>
        <time>2015-06-15T18:39:33.724Z</time>
      </trkpt>
      <trkpt lat="48.88469" lon="2.32688">
        <ele>125.3</ele>
        <time>2015-06-15T18:39:33.832Z</time>
      </trkpt>
      <trkpt lat="48.88474" lon="2.32687">
        <ele>125.4</ele>
        <time>2015-06-15T18:39:34.895Z</time>
      </trkpt>
      <trkpt lat="48.88478" lon="2.32686">
        <ele>125.5</ele>
        <time>2015-06-15T18:39:35.773Z</time>
      </trkpt>
      <trkpt lat="48.88486" lon="2.32682">
        <ele>125.6</ele>
        <time>2015-06-15T18:39:38.770Z</time>
      </trkpt>
      <trkpt lat="48.8849" lon="2.3268">
        <ele>125.7</ele>
        <time>2015-06-15T18:39:38.844Z</time>
      </trkpt>
      <trkpt lat="48.88498" lon="2.32677">
        <ele>126</ele>
        <time>2015-06-15T18:39:40.766Z</time>
      </trkpt>
      <trkpt lat="48.88501" lon="2.32677">
        <ele>126</ele>
        <time>2015-06-15T18:39:41.737Z</time>
      </trkpt>
      <trkpt lat="48.88506" lon="2.32672">
        <ele>125.9</ele>
        <time>2015-06-15T18:39:43.804Z</time>
      </trkpt>
      <trkpt lat="48.88509" lon="2.3267">
        <ele>125.9</ele>
        <time>2015-06-15T18:39:44.822Z</time>
      </trkpt>
      <trkpt lat="48.88514" lon="2.32667">
        <ele>126</ele>
        <time>2015-06-15T18:39:45.873Z</time>
      </trkpt>
      <trkpt lat="48.88519" lon="2.32666">
        <ele>126</ele>
        <time>2015-06-15T18:39:46.779Z</time>
      </trkpt>
      <trkpt lat="48.88523" lon="2.32663">
        <ele>126.1</ele>
        <time>2015-06-15T18:39:47.771Z</time>
      </trkpt>
      <trkpt lat="48.88528" lon="2.32661">
        <ele>126.1</ele>
        <time>2015-06-15T18:39:48.851Z</time>
      </trkpt>
      <trkpt lat="48.88536" lon="2.32657">
        <ele>125.8</ele>
        <time>2015-06-15T18:39:50.782Z</time>
      </trkpt>
      <trkpt lat="48.8854" lon="2.32655">
        <ele>125.8</ele>
        <time>2015-06-15T18:39:51.794Z</time>
      </trkpt>
      <trkpt lat="48.88548" lon="2.32651">
        <ele>125.6</ele>
        <time>2015-06-15T18:39:53.969Z</time>
      </trkpt>
      <trkpt lat="48.88551" lon="2.32649">
        <ele>125.6</ele>
        <time>2015-06-15T18:39:54.809Z</time>
      </trkpt>
      <trkpt lat="48.8856" lon="2.32646">
        <ele>125.2</ele>
        <time>2015-06-15T18:39:57.839Z</time>
      </trkpt>
      <trkpt lat="48.88563" lon="2.32646">
        <ele>125.2</ele>
        <time>2015-06-15T18:39:58.859Z</time>
      </trkpt>
      <trkpt lat="48.88568" lon="2.32643">
        <ele>125</ele>
        <time>2015-06-15T18:40:01.817Z</time>
      </trkpt>
      <trkpt lat="48.88569" lon="2.32643">
        <ele>125.1</ele>
        <time>2015-06-15T18:40:02.886Z</time>
      </trkpt>
      <trkpt lat="48.8857" lon="2.32642">
        <ele>125.2</ele>
        <time>2015-06-15T18:40:03.736Z</time>
      </trkpt>
      <trkpt lat="48.88571" lon="2.32643">
        <ele>125.3</ele>
        <time>2015-06-15T18:40:04.773Z</time>
      </trkpt>
      <trkpt lat="48.88579" lon="2.32641">
        <ele>126</ele>
        <time>2015-06-15T18:40:10.898Z</time>
      </trkpt>
      <trkpt lat="48.88581" lon="2.32639">
        <ele>126</ele>
        <time>2015-06-15T18:40:11.789Z</time>
      </trkpt>
      <trkpt lat="48.88587" lon="2.32634">
        <ele>126.4</ele>
        <time>2015-06-15T18:40:13.905Z</time>
      </trkpt>
      <trkpt lat="48.8859" lon="2.32633">
        <ele>126.5</ele>
        <time>2015-06-15T18:40:14.918Z</time>
      </trkpt>
      <trkpt lat="48.88597" lon="2.32629">
        <ele>126.9</ele>
        <time>2015-06-15T18:40:16.790Z</time>
      </trkpt>
      <trkpt lat="48.88601" lon="2.32626">
        <ele>127.4</ele>
        <time>2015-06-15T18:40:17.807Z</time>
      </trkpt>
      <trkpt lat="48.88609" lon="2.32622">
        <ele>128.1</ele>
        <time>2015-06-15T18:40:19.853Z</time>
      </trkpt>
      <trkpt lat="48.88614" lon="2.32621">
        <ele>128.4</ele>
        <time>2015-06-15T18:40:20.869Z</time>
      </trkpt>
      <trkpt lat="48.88619" lon="2.3262">
        <ele>128.6</ele>
        <time>2015-06-15T18:40:21.781Z</time>
      </trkpt>
      <trkpt lat="48.88624" lon="2.32619">
        <ele>129.1</ele>
        <time>2015-06-15T18:40:22.835Z</time>
      </trkpt>
      <trkpt lat="48.8863" lon="2.32615">
        <ele>130.6</ele>
        <time>2015-06-15T18:40:23.779Z</time>
      </trkpt>
      <trkpt lat="48.88633" lon="2.3261">
        <ele>130.9</ele>
        <time>2015-06-15T18:40:24.787Z</time>
      </trkpt>
      <trkpt lat="48.88637" lon="2.32607">
        <ele>131.1</ele>
        <time>2015-06-15T18:40:25.797Z</time>
      </trkpt>
      <trkpt lat="48.88642" lon="2.32604">
        <ele>131.2</ele>
        <time>2015-06-15T18:40:26.828Z</time>
      </trkpt>
      <trkpt lat="48.88646" lon="2.32601">
        <ele>131.4</ele>
        <time>2015-06-15T18:40:27.840Z</time>
      </trkpt>
      <trkpt lat="48.88651" lon="2.32599">
        <ele>131.4</ele>
        <time>2015-06-15T18:40:28.849Z</time>
      </trkpt>
      <trkpt lat="48.88655" lon="2.32598">
        <ele>131.4</ele>
        <time>2015-06-15T18:40:29.776Z</time>
      </trkpt>
      <trkpt lat="48.8866" lon="2.32596">
        <ele>131.4</ele>
        <time>2015-06-15T18:40:30.792Z</time>
      </trkpt>
      <trkpt lat="48.88664" lon="2.32593">
        <ele>131.4</ele>
        <time>2015-06-15T18:40:31.787Z</time>
      </trkpt>
      <trkpt lat="48.88669" lon="2.32592">
        <ele>131.4</ele>
        <time>2015-06-15T18:40:32.823Z</time>
      </trkpt>
      <trkpt lat="48.88674" lon="2.32591">
        <ele>131.3</ele>
        <time>2015-06-15T18:40:33.834Z</time>
      </trkpt>
      <trkpt lat="48.8868" lon="2.32591">
        <ele>131.3</ele>
        <time>2015-06-15T18:40:34.742Z</time>
      </trkpt>
      <trkpt lat="48.88685" lon="2.32591">
        <ele>131.2</ele>
        <time>2015-06-15T18:40:35.757Z</time>
      </trkpt>
      <trkpt lat="48.88689" lon="2.32589">
        <ele>131.1</ele>
        <time>2015-06-15T18:40:36.797Z</time>
      </trkpt>
      <trkpt lat="48.88694" lon="2.32586">
        <ele>131</ele>
        <time>2015-06-15T18:40:37.813Z</time>
      </trkpt>
      <trkpt lat="48.88698" lon="2.32584">
        <ele>130.9</ele>
        <time>2015-06-15T18:40:38.819Z</time>
      </trkpt>
      <trkpt lat="48.88702" lon="2.3258">
        <ele>130.8</ele>
        <time>2015-06-15T18:40:39.838Z</time>
      </trkpt>
      <trkpt lat="48.88709" lon="2.32578">
        <ele>128.7</ele>
        <time>2015-06-15T18:40:40.843Z</time>
      </trkpt>
      <trkpt lat="48.88714" lon="2.32577">
        <ele>127.3</ele>
        <time>2015-06-15T18:40:41.770Z</time>
      </trkpt>
      <trkpt lat="48.88719" lon="2.32575">
        <ele>126.7</ele>
        <time>2015-06-15T18:40:42.770Z</time>
      </trkpt>
      <trkpt lat="48.88724" lon="2.32573">
        <ele>126.9</ele>
        <time>2015-06-15T18:40:43.788Z</time>
      </trkpt>
      <trkpt lat="48.88729" lon="2.32571">
        <ele>126.8</ele>
        <time>2015-06-15T18:40:44.861Z</time>
      </trkpt>
      <trkpt lat="48.88734" lon="2.32568">
        <ele>126.9</ele>
        <time>2015-06-15T18:40:45.824Z</time>
      </trkpt>
      <trkpt lat="48.88738" lon="2.32565">
        <ele>126.9</ele>
        <time>2015-06-15T18:40:46.833Z</time>
      </trkpt>
      <trkpt lat="48.88746" lon="2.3256">
        <ele>126.9</ele>
        <time>2015-06-15T18:40:48.769Z</time>
      </trkpt>
      <trkpt lat="48.8875" lon="2.32559">
        <ele>127.2</ele>
        <time>2015-06-15T18:40:49.800Z</time>
      </trkpt>
      <trkpt lat="48.88759" lon="2.3256">
        <ele>127.8</ele>
        <time>2015-06-15T18:40:52.784Z</time>
      </trkpt>
      <trkpt lat="48.88762" lon="2.32561">
        <ele>127.9</ele>
        <time>2015-06-15T18:40:53.794Z</time>
      </trkpt>
      <trkpt lat="48.88769" lon="2.32563">
        <ele>128.2</ele>
        <time>2015-06-15T18:40:55.844Z</time>
      </trkpt>
      <trkpt lat="48.88772" lon="2.32564">
        <ele>128.3</ele>
        <time>2015-06-15T18:40:56.874Z</time>
      </trkpt>
      <trkpt lat="48.88781" lon="2.32568">
        <ele>128.4</ele>
        <time>2015-06-15T18:40:58.801Z</time>
      </trkpt>
      <trkpt lat="48.88785" lon="2.32569">
        <ele>128.5</ele>
        <time>2015-06-15T18:40:59.872Z</time>
      </trkpt>
      <trkpt lat="48.8879" lon="2.32569">
        <ele>128.6</ele>
        <time>2015-06-15T18:41:00.784Z</time>
      </trkpt>
      <trkpt lat="48.88794" lon="2.3257">
        <ele>128.6</ele>
        <time>2015-06-15T18:41:01.796Z</time>
      </trkpt>
      <trkpt lat="48.88799" lon="2.32571">
        <ele>128.9</ele>
        <time>2015-06-15T18:41:02.873Z</time>
      </trkpt>
      <trkpt lat="48.88803" lon="2.32573">
        <ele>129</ele>
        <time>2015-06-15T18:41:03.860Z</time>
      </trkpt>
      <trkpt lat="48.88809" lon="2.32576">
        <ele>129.2</ele>
        <time>2015-06-15T18:41:04.769Z</time>
      </trkpt>
      <trkpt lat="48.88815" lon="2.32578">
        <ele>129.4</ele>
        <time>2015-06-15T18:41:05.759Z</time>
      </trkpt>
      <trkpt lat="48.88824" lon="2.32581">
        <ele>129.5</ele>
        <time>2015-06-15T18:41:07.820Z</time>
      </trkpt>
      <trkpt lat="48.88828" lon="2.32583">
        <ele>129.7</ele>
        <time>2015-06-15T18:41:08.860Z</time>
      </trkpt>
      <trkpt lat="48.88835" lon="2.32585">
        <ele>130</ele>
        <time>2015-06-15T18:41:10.774Z</time>
      </trkpt>
      <trkpt lat="48.88839" lon="2.32584">
        <ele>130.1</ele>
        <time>2015-06-15T18:41:11.838Z</time>
      </trkpt>
      <trkpt lat="48.88848" lon="2.32586">
        <ele>130.2</ele>
        <time>2015-06-15T18:41:13.853Z</time>
      </trkpt>
      <trkpt lat="48.88852" lon="2.32587">
        <ele>130.3</ele>
        <time>2015-06-15T18:41:14.878Z</time>
      </trkpt>
      <trkpt lat="48.88856" lon="2.32589">
        <ele>130.3</ele>
        <time>2015-06-15T18:41:15.780Z</time>
      </trkpt>
      <trkpt lat="48.88861" lon="2.32591">
        <ele>130.4</ele>
        <time>2015-06-15T18:41:16.785Z</time>
      </trkpt>
      <trkpt lat="48.88866" lon="2.32594">
        <ele>130.5</ele>
        <time>2015-06-15T18:41:17.799Z</time>
      </trkpt>
      <trkpt lat="48.88871" lon="2.32597">
        <ele>130.7</ele>
        <time>2015-06-15T18:41:18.808Z</time>
      </trkpt>
      <trkpt lat="48.88877" lon="2.32599">
        <ele>130.7</ele>
        <time>2015-06-15T18:41:19.829Z</time>
      </trkpt>
      <trkpt lat="48.88882" lon="2.326">
        <ele>130.7</ele>
        <time>2015-06-15T18:41:20.836Z</time>
      </trkpt>
      <trkpt lat="48.88886" lon="2.32601">
        <ele>130.8</ele>
        <time>2015-06-15T18:41:21.863Z</time>
      </trkpt>
      <trkpt lat="48.88891" lon="2.32603">
        <ele>130.7</ele>
        <time>2015-06-15T18:41:22.863Z</time>
      </trkpt>
      <trkpt lat="48.88896" lon="2.32605">
        <ele>130.6</ele>
        <time>2015-06-15T18:41:23.834Z</time>
      </trkpt>
      <trkpt lat="48.88901" lon="2.32606">
        <ele>130.6</ele>
        <time>2015-06-15T18:41:24.843Z</time>
      </trkpt>
      <trkpt lat="48.88906" lon="2.32609">
        <ele>130.6</ele>
        <time>2015-06-15T18:41:25.859Z</time>
      </trkpt>
      <trkpt lat="48.88912" lon="2.32612">
        <ele>130.6</ele>
        <time>2015-06-15T18:41:26.873Z</time>
      </trkpt>
      <trkpt lat="48.88919" lon="2.32614">
        <ele>130.5</ele>
        <time>2015-06-15T18:41:27.783Z</time>
      </trkpt>
      <trkpt lat="48.88924" lon="2.32615">
        <ele>130.5</ele>
        <time>2015-06-15T18:41:28.778Z</time>
      </trkpt>
      <trkpt lat="48.88929" lon="2.32615">
        <ele>130.5</ele>
        <time>2015-06-15T18:41:29.792Z</time>
      </trkpt>
      <trkpt lat="48.88935" lon="2.32617">
        <ele>130.7</ele>
        <time>2015-06-15T18:41:30.803Z</time>
      </trkpt>
      <trkpt lat="48.88941" lon="2.3262">
        <ele>130.7</ele>
        <time>2015-06-15T18:41:31.814Z</time>
      </trkpt>
      <trkpt lat="48.88948" lon="2.32623">
        <ele>130.7</ele>
        <time>2015-06-15T18:41:32.866Z</time>
      </trkpt>
      <trkpt lat="48.88954" lon="2.32623">
        <ele>130.8</ele>
        <time>2015-06-15T18:41:33.776Z</time>
      </trkpt>
      <trkpt lat="48.88959" lon="2.32624">
        <ele>130.7</ele>
        <time>2015-06-15T18:41:34.782Z</time>
      </trkpt>
      <trkpt lat="48.88964" lon="2.32625">
        <ele>130.6</ele>
        <time>2015-06-15T18:41:35.788Z</time>
      </trkpt>
      <trkpt lat="48.88969" lon="2.32627">
        <ele>130.3</ele>
        <time>2015-06-15T18:41:36.795Z</time>
      </trkpt>
      <trkpt lat="48.88974" lon="2.32629">
        <ele>130</ele>
        <time>2015-06-15T18:41:37.811Z</time>
      </trkpt>
      <trkpt lat="48.88979" lon="2.32631">
        <ele>130</ele>
        <time>2015-06-15T18:41:38.827Z</time>
      </trkpt>
      <trkpt lat="48.88985" lon="2.32635">
        <ele>130.1</ele>
        <time>2015-06-15T18:41:39.846Z</time>
      </trkpt>
      <trkpt lat="48.8899" lon="2.32639">
        <ele>130.1</ele>
        <time>2015-06-15T18:41:40.751Z</time>
      </trkpt>
      <trkpt lat="48.88998" lon="2.32643">
        <ele>130.8</ele>
        <time>2015-06-15T18:41:42.786Z</time>
      </trkpt>
      <trkpt lat="48.89002" lon="2.32645">
        <ele>131.1</ele>
        <time>2015-06-15T18:41:43.852Z</time>
      </trkpt>
      <trkpt lat="48.89009" lon="2.3265">
        <ele>131</ele>
        <time>2015-06-15T18:41:45.791Z</time>
      </trkpt>
      <trkpt lat="48.89014" lon="2.32652">
        <ele>131.1</ele>
        <time>2015-06-15T18:41:46.811Z</time>
      </trkpt>
      <trkpt lat="48.89019" lon="2.32653">
        <ele>131.3</ele>
        <time>2015-06-15T18:41:47.890Z</time>
      </trkpt>
      <trkpt lat="48.89025" lon="2.32653">
        <ele>131.3</ele>
        <time>2015-06-15T18:41:48.782Z</time>
      </trkpt>
      <trkpt lat="48.8903" lon="2.32654">
        <ele>131.3</ele>
        <time>2015-06-15T18:41:50.026Z</time>
      </trkpt>
      <trkpt lat="48.89036" lon="2.32654">
        <ele>131.4</ele>
        <time>2015-06-15T18:41:50.837Z</time>
      </trkpt>
      <trkpt lat="48.89043" lon="2.32653">
        <ele>131.1</ele>
        <time>2015-06-15T18:41:51.845Z</time>
      </trkpt>
      <trkpt lat="48.89049" lon="2.32654">
        <ele>131.1</ele>
        <time>2015-06-15T18:41:52.805Z</time>
      </trkpt>
      <trkpt lat="48.89055" lon="2.32656">
        <ele>131</ele>
        <time>2015-06-15T18:41:53.804Z</time>
      </trkpt>
      <trkpt lat="48.89059" lon="2.32658">
        <ele>130.9</ele>
        <time>2015-06-15T18:41:54.812Z</time>
      </trkpt>
      <trkpt lat="48.89064" lon="2.32658">
        <ele>130.6</ele>
        <time>2015-06-15T18:41:55.894Z</time>
      </trkpt>
      <trkpt lat="48.89069" lon="2.3266">
        <ele>130.6</ele>
        <time>2015-06-15T18:41:56.912Z</time>
      </trkpt>
      <trkpt lat="48.89074" lon="2.32663">
        <ele>130.6</ele>
        <time>2015-06-15T18:41:57.809Z</time>
      </trkpt>
      <trkpt lat="48.89078" lon="2.32666">
        <ele>130.4</ele>
        <time>2015-06-15T18:41:58.796Z</time>
      </trkpt>
      <trkpt lat="48.89083" lon="2.32668">
        <ele>130.3</ele>
        <time>2015-06-15T18:41:59.843Z</time>
      </trkpt>
      <trkpt lat="48.89088" lon="2.32669">
        <ele>130.2</ele>
        <time>2015-06-15T18:42:00.834Z</time>
      </trkpt>
      <trkpt lat="48.89096" lon="2.3267">
        <ele>130</ele>
        <time>2015-06-15T18:42:02.871Z</time>
      </trkpt>
      <trkpt lat="48.89101" lon="2.3267">
        <ele>130</ele>
        <time>2015-06-15T18:42:03.793Z</time>
      </trkpt>
      <trkpt lat="48.89107" lon="2.32675">
        <ele>129.4</ele>
        <time>2015-06-15T18:42:04.780Z</time>
      </trkpt>
      <trkpt lat="48.89112" lon="2.3268">
        <ele>128.9</ele>
        <time>2015-06-15T18:42:05.803Z</time>
      </trkpt>
      <trkpt lat="48.8912" lon="2.32686">
        <ele>128.7</ele>
        <time>2015-06-15T18:42:07.766Z</time>
      </trkpt>
      <trkpt lat="48.89123" lon="2.32688">
        <ele>128.7</ele>
        <time>2015-06-15T18:42:08.805Z</time>
      </trkpt>
      <trkpt lat="48.89132" lon="2.32691">
        <ele>128.6</ele>
        <time>2015-06-15T18:42:10.821Z</time>
      </trkpt>
      <trkpt lat="48.89137" lon="2.32691">
        <ele>128.6</ele>
        <time>2015-06-15T18:42:11.837Z</time>
      </trkpt>
      <trkpt lat="48.89142" lon="2.32692">
        <ele>128.6</ele>
        <time>2015-06-15T18:42:12.850Z</time>
      </trkpt>
      <trkpt lat="48.89146" lon="2.32692">
        <ele>128.4</ele>
        <time>2015-06-15T18:42:13.820Z</time>
      </trkpt>
      <trkpt lat="48.89151" lon="2.32692">
        <ele>128</ele>
        <time>2015-06-15T18:42:14.875Z</time>
      </trkpt>
      <trkpt lat="48.89156" lon="2.32693">
        <ele>127.9</ele>
        <time>2015-06-15T18:42:15.773Z</time>
      </trkpt>
      <trkpt lat="48.89164" lon="2.32696">
        <ele>128</ele>
        <time>2015-06-15T18:42:17.826Z</time>
      </trkpt>
      <trkpt lat="48.89169" lon="2.32697">
        <ele>127.9</ele>
        <time>2015-06-15T18:42:18.836Z</time>
      </trkpt>
      <trkpt lat="48.89173" lon="2.32699">
        <ele>127.9</ele>
        <time>2015-06-15T18:42:19.785Z</time>
      </trkpt>
      <trkpt lat="48.89178" lon="2.32701">
        <ele>127.6</ele>
        <time>2015-06-15T18:42:20.818Z</time>
      </trkpt>
      <trkpt lat="48.89183" lon="2.32703">
        <ele>127.5</ele>
        <time>2015-06-15T18:42:21.819Z</time>
      </trkpt>
      <trkpt lat="48.89187" lon="2.32706">
        <ele>127.5</ele>
        <time>2015-06-15T18:42:22.826Z</time>
      </trkpt>
      <trkpt lat="48.89192" lon="2.32707">
        <ele>127.6</ele>
        <time>2015-06-15T18:42:23.856Z</time>
      </trkpt>
      <trkpt lat="48.89197" lon="2.32709">
        <ele>127.6</ele>
        <time>2015-06-15T18:42:24.869Z</time>
      </trkpt>
      <trkpt lat="48.89202" lon="2.32711">
        <ele>127.5</ele>
        <time>2015-06-15T18:42:25.817Z</time>
      </trkpt>
      <trkpt lat="48.89207" lon="2.32713">
        <ele>127.6</ele>
        <time>2015-06-15T18:42:26.878Z</time>
      </trkpt>
      <trkpt lat="48.89212" lon="2.32715">
        <ele>127.4</ele>
        <time>2015-06-15T18:42:27.802Z</time>
      </trkpt>
      <trkpt lat="48.89218" lon="2.32717">
        <ele>127.4</ele>
        <time>2015-06-15T18:42:28.798Z</time>
      </trkpt>
      <trkpt lat="48.89224" lon="2.32719">
        <ele>127.6</ele>
        <time>2015-06-15T18:42:29.811Z</time>
      </trkpt>
      <trkpt lat="48.8923" lon="2.32721">
        <ele>127.8</ele>
        <time>2015-06-15T18:42:30.807Z</time>
      </trkpt>
      <trkpt lat="48.89235" lon="2.32722">
        <ele>127.9</ele>
        <time>2015-06-15T18:42:31.814Z</time>
      </trkpt>
      <trkpt lat="48.8924" lon="2.32723">
        <ele>127.8</ele>
        <time>2015-06-15T18:42:32.892Z</time>
      </trkpt>
      <trkpt lat="48.89244" lon="2.32724">
        <ele>128</ele>
        <time>2015-06-15T18:42:33.765Z</time>
      </trkpt>
      <trkpt lat="48.8925" lon="2.32724">
        <ele>128.3</ele>
        <time>2015-06-15T18:42:34.768Z</time>
      </trkpt>
      <trkpt lat="48.89255" lon="2.32725">
        <ele>128.7</ele>
        <time>2015-06-15T18:42:35.779Z</time>
      </trkpt>
      <trkpt lat="48.89261" lon="2.32724">
        <ele>129</ele>
        <time>2015-06-15T18:42:36.807Z</time>
      </trkpt>
      <trkpt lat="48.89265" lon="2.32725">
        <ele>129.5</ele>
        <time>2015-06-15T18:42:37.825Z</time>
      </trkpt>
      <trkpt lat="48.8927" lon="2.32726">
        <ele>129.8</ele>
        <time>2015-06-15T18:42:38.829Z</time>
      </trkpt>
      <trkpt lat="48.89275" lon="2.32727">
        <ele>130.1</ele>
        <time>2015-06-15T18:42:39.842Z</time>
      </trkpt>
      <trkpt lat="48.89279" lon="2.32727">
        <ele>130.3</ele>
        <time>2015-06-15T18:42:40.848Z</time>
      </trkpt>
      <trkpt lat="48.89286" lon="2.32727">
        <ele>130.5</ele>
        <time>2015-06-15T18:42:42.776Z</time>
      </trkpt>
      <trkpt lat="48.89289" lon="2.32728">
        <ele>130.7</ele>
        <time>2015-06-15T18:42:43.839Z</time>
      </trkpt>
      <trkpt lat="48.89297" lon="2.3273">
        <ele>128.4</ele>
        <time>2015-06-15T18:42:45.778Z</time>
      </trkpt>
      <trkpt lat="48.89301" lon="2.32733">
        <ele>126.3</ele>
        <time>2015-06-15T18:42:46.925Z</time>
      </trkpt>
      <trkpt lat="48.89308" lon="2.3274">
        <ele>125.7</ele>
        <time>2015-06-15T18:42:49.861Z</time>
      </trkpt>
      <trkpt lat="48.8931" lon="2.32741">
        <ele>125.5</ele>
        <time>2015-06-15T18:42:50.828Z</time>
      </trkpt>
      <trkpt lat="48.89318" lon="2.32745">
        <ele>125.5</ele>
        <time>2015-06-15T18:42:53.788Z</time>
      </trkpt>
      <trkpt lat="48.89322" lon="2.32745">
        <ele>124.5</ele>
        <time>2015-06-15T18:42:54.798Z</time>
      </trkpt>
      <trkpt lat="48.89329" lon="2.32746">
        <ele>123.6</ele>
        <time>2015-06-15T18:42:56.817Z</time>
      </trkpt>
      <trkpt lat="48.89332" lon="2.32748">
        <ele>123.7</ele>
        <time>2015-06-15T18:42:57.834Z</time>
      </trkpt>
      <trkpt lat="48.8934" lon="2.32752">
        <ele>124.3</ele>
        <time>2015-06-15T18:43:00.782Z</time>
      </trkpt>
      <trkpt lat="48.89342" lon="2.32754">
        <ele>124.5</ele>
        <time>2015-06-15T18:43:01.803Z</time>
      </trkpt>
      <trkpt lat="48.8935" lon="2.32757">
        <ele>124.9</ele>
        <time>2015-06-15T18:43:04.843Z</time>
      </trkpt>
      <trkpt lat="48.89352" lon="2.32758">
        <ele>125</ele>
        <time>2015-06-15T18:43:05.855Z</time>
      </trkpt>
      <trkpt lat="48.8936" lon="2.32761">
        <ele>126.4</ele>
        <time>2015-06-15T18:43:11.773Z</time>
      </trkpt>
      <trkpt lat="48.89362" lon="2.3276">
        <ele>126.6</ele>
        <time>2015-06-15T18:43:12.793Z</time>
      </trkpt>
      <trkpt lat="48.8937" lon="2.32762">
        <ele>127</ele>
        <time>2015-06-15T18:43:15.741Z</time>
      </trkpt>
      <trkpt lat="48.89372" lon="2.32765">
        <ele>127.1</ele>
        <time>2015-06-15T18:43:16.741Z</time>
      </trkpt>
      <trkpt lat="48.89378" lon="2.32771">
        <ele>127.4</ele>
        <time>2015-06-15T18:43:18.830Z</time>
      </trkpt>
      <trkpt lat="48.89381" lon="2.32774">
        <ele>127.6</ele>
        <time>2015-06-15T18:43:19.839Z</time>
      </trkpt>
      <trkpt lat="48.89387" lon="2.32777">
        <ele>127.9</ele>
        <time>2015-06-15T18:43:21.777Z</time>
      </trkpt>
      <trkpt lat="48.8939" lon="2.32779">
        <ele>128</ele>
        <time>2015-06-15T18:43:22.773Z</time>
      </trkpt>
      <trkpt lat="48.89397" lon="2.32784">
        <ele>128.2</ele>
        <time>2015-06-15T18:43:24.748Z</time>
      </trkpt>
      <trkpt lat="48.89399" lon="2.32786">
        <ele>128.2</ele>
        <time>2015-06-15T18:43:25.775Z</time>
      </trkpt>
      <trkpt lat="48.89406" lon="2.32791">
        <ele>128.1</ele>
        <time>2015-06-15T18:43:27.737Z</time>
      </trkpt>
      <trkpt lat="48.89411" lon="2.32792">
        <ele>127.9</ele>
        <time>2015-06-15T18:43:28.802Z</time>
      </trkpt>
      <trkpt lat="48.89419" lon="2.32793">
        <ele>127.8</ele>
        <time>2015-06-15T18:43:31.783Z</time>
      </trkpt>
      <trkpt lat="48.89423" lon="2.32793">
        <ele>127.5</ele>
        <time>2015-06-15T18:43:32.826Z</time>
      </trkpt>
      <trkpt lat="48.89429" lon="2.32793">
        <ele>125.5</ele>
        <time>2015-06-15T18:43:33.730Z</time>
      </trkpt>
      <trkpt lat="48.89436" lon="2.32796">
        <ele>125.7</ele>
        <time>2015-06-15T18:43:34.800Z</time>
      </trkpt>
      <trkpt lat="48.89443" lon="2.32801">
        <ele>125.8</ele>
        <time>2015-06-15T18:43:35.871Z</time>
      </trkpt>
      <trkpt lat="48.8945" lon="2.32803">
        <ele>126</ele>
        <time>2015-06-15T18:43:36.886Z</time>
      </trkpt>
      <trkpt lat="48.89458" lon="2.32804">
        <ele>126.4</ele>
        <time>2015-06-15T18:43:37.326Z</time>
      </trkpt>
      <trkpt lat="48.89465" lon="2.32805">
        <ele>126.6</ele>
        <time>2015-06-15T18:43:38.822Z</time>
      </trkpt>
      <trkpt lat="48.89473" lon="2.32807">
        <ele>126.6</ele>
        <time>2015-06-15T18:43:39.836Z</time>
      </trkpt>
      <trkpt lat="48.89482" lon="2.32808">
        <ele>126.7</ele>
        <time>2015-06-15T18:43:40.766Z</time>
      </trkpt>
      <trkpt lat="48.8949" lon="2.32809">
        <ele>126.8</ele>
        <time>2015-06-15T18:43:42.357Z</time>
      </trkpt>
      <trkpt lat="48.89501" lon="2.32812">
        <ele>126.8</ele>
        <time>2015-06-15T18:43:42.765Z</time>
      </trkpt>
      <trkpt lat="48.89518" lon="2.32819">
        <ele>126</ele>
        <time>2015-06-15T18:43:43.798Z</time>
      </trkpt>
      <trkpt lat="48.89535" lon="2.32824">
        <ele>125</ele>
        <time>2015-06-15T18:43:44.784Z</time>
      </trkpt>
      <trkpt lat="48.89548" lon="2.32828">
        <ele>124.4</ele>
        <time>2015-06-15T18:43:45.850Z</time>
      </trkpt>
      <trkpt lat="48.89558" lon="2.32832">
        <ele>123.5</ele>
        <time>2015-06-15T18:43:46.776Z</time>
      </trkpt>
      <trkpt lat="48.89568" lon="2.32835">
        <ele>123.8</ele>
        <time>2015-06-15T18:43:47.772Z</time>
      </trkpt>
      <trkpt lat="48.89574" lon="2.32837">
        <ele>123.5</ele>
        <time>2015-06-15T18:43:48.814Z</time>
      </trkpt>
      <trkpt lat="48.89579" lon="2.32839">
        <ele>122.9</ele>
        <time>2015-06-15T18:43:49.833Z</time>
      </trkpt>
      <trkpt lat="48.89585" lon="2.32839">
        <ele>122.7</ele>
        <time>2015-06-15T18:43:50.885Z</time>
      </trkpt>
      <trkpt lat="48.8959" lon="2.32839">
        <ele>122.9</ele>
        <time>2015-06-15T18:43:51.804Z</time>
      </trkpt>
      <trkpt lat="48.89595" lon="2.3284">
        <ele>123.6</ele>
        <time>2015-06-15T18:43:52.804Z</time>
      </trkpt>
      <trkpt lat="48.896" lon="2.32841">
        <ele>124.2</ele>
        <time>2015-06-15T18:43:53.931Z</time>
      </trkpt>
      <trkpt lat="48.89608" lon="2.32844">
        <ele>125.1</ele>
        <time>2015-06-15T18:43:55.850Z</time>
      </trkpt>
      <trkpt lat="48.89611" lon="2.32845">
        <ele>126</ele>
        <time>2015-06-15T18:43:56.885Z</time>
      </trkpt>
      <trkpt lat="48.89617" lon="2.32849">
        <ele>126.1</ele>
        <time>2015-06-15T18:43:58.825Z</time>
      </trkpt>
      <trkpt lat="48.8962" lon="2.3285">
        <ele>126.1</ele>
        <time>2015-06-15T18:43:59.757Z</time>
      </trkpt>
      <trkpt lat="48.89627" lon="2.3285">
        <ele>126</ele>
        <time>2015-06-15T18:44:01.797Z</time>
      </trkpt>
      <trkpt lat="48.89632" lon="2.32851">
        <ele>126</ele>
        <time>2015-06-15T18:44:02.891Z</time>
      </trkpt>
      <trkpt lat="48.8964" lon="2.32853">
        <ele>125.7</ele>
        <time>2015-06-15T18:44:04.794Z</time>
      </trkpt>
      <trkpt lat="48.89644" lon="2.32854">
        <ele>125.9</ele>
        <time>2015-06-15T18:44:05.720Z</time>
      </trkpt>
      <trkpt lat="48.89649" lon="2.32856">
        <ele>126.2</ele>
        <time>2015-06-15T18:44:06.742Z</time>
      </trkpt>
      <trkpt lat="48.89654" lon="2.32858">
        <ele>126.4</ele>
        <time>2015-06-15T18:44:07.773Z</time>
      </trkpt>
      <trkpt lat="48.8966" lon="2.3286">
        <ele>126.5</ele>
        <time>2015-06-15T18:44:08.826Z</time>
      </trkpt>
      <trkpt lat="48.89666" lon="2.32863">
        <ele>126.5</ele>
        <time>2015-06-15T18:44:09.727Z</time>
      </trkpt>
      <trkpt lat="48.89671" lon="2.32864">
        <ele>126.2</ele>
        <time>2015-06-15T18:44:10.742Z</time>
      </trkpt>
      <trkpt lat="48.89676" lon="2.32865">
        <ele>126</ele>
        <time>2015-06-15T18:44:11.753Z</time>
      </trkpt>
      <trkpt lat="48.89684" lon="2.32869">
        <ele>125.1</ele>
        <time>2015-06-15T18:44:13.792Z</time>
      </trkpt>
      <trkpt lat="48.89688" lon="2.3287">
        <ele>124.8</ele>
        <time>2015-06-15T18:44:14.820Z</time>
      </trkpt>
      <trkpt lat="48.89693" lon="2.32872">
        <ele>125</ele>
        <time>2015-06-15T18:44:15.757Z</time>
      </trkpt>
      <trkpt lat="48.89697" lon="2.32874">
        <ele>125.2</ele>
        <time>2015-06-15T18:44:16.763Z</time>
      </trkpt>
      <trkpt lat="48.89702" lon="2.32877">
        <ele>124.4</ele>
        <time>2015-06-15T18:44:17.777Z</time>
      </trkpt>
      <trkpt lat="48.89707" lon="2.32877">
        <ele>123.4</ele>
        <time>2015-06-15T18:44:18.780Z</time>
      </trkpt>
      <trkpt lat="48.89712" lon="2.32878">
        <ele>122.9</ele>
        <time>2015-06-15T18:44:19.796Z</time>
      </trkpt>
      <trkpt lat="48.89722" lon="2.32881">
        <ele>121.6</ele>
        <time>2015-06-15T18:44:20.803Z</time>
      </trkpt>
      <trkpt lat="48.89731" lon="2.32885">
        <ele>120.8</ele>
        <time>2015-06-15T18:44:21.800Z</time>
      </trkpt>
      <trkpt lat="48.8974" lon="2.32889">
        <ele>118.9</ele>
        <time>2015-06-15T18:44:22.808Z</time>
      </trkpt>
      <trkpt lat="48.89746" lon="2.32893">
        <ele>117.5</ele>
        <time>2015-06-15T18:44:23.813Z</time>
      </trkpt>
      <trkpt lat="48.89751" lon="2.32897">
        <ele>116.7</ele>
        <time>2015-06-15T18:44:24.824Z</time>
      </trkpt>
      <trkpt lat="48.89755" lon="2.32904">
        <ele>115.6</ele>
        <time>2015-06-15T18:44:25.781Z</time>
      </trkpt>
      <trkpt lat="48.8976" lon="2.32908">
        <ele>114.9</ele>
        <time>2015-06-15T18:44:26.876Z</time>
      </trkpt>
      <trkpt lat="48.89764" lon="2.3291">
        <ele>114.9</ele>
        <time>2015-06-15T18:44:27.809Z</time>
      </trkpt>
      <trkpt lat="48.89769" lon="2.32911">
        <ele>115.2</ele>
        <time>2015-06-15T18:44:28.815Z</time>
      </trkpt>
      <trkpt lat="48.89777" lon="2.32913">
        <ele>115.6</ele>
        <time>2015-06-15T18:44:30.832Z</time>
      </trkpt>
      <trkpt lat="48.8978" lon="2.32914">
        <ele>115.4</ele>
        <time>2015-06-15T18:44:31.910Z</time>
      </trkpt>
      <trkpt lat="48.89788" lon="2.32916">
        <ele>115.4</ele>
        <time>2015-06-15T18:44:33.868Z</time>
      </trkpt>
      <trkpt lat="48.89792" lon="2.32917">
        <ele>115.1</ele>
        <time>2015-06-15T18:44:34.810Z</time>
      </trkpt>
      <trkpt lat="48.89796" lon="2.32918">
        <ele>115</ele>
        <time>2015-06-15T18:44:35.784Z</time>
      </trkpt>
      <trkpt lat="48.89801" lon="2.32919">
        <ele>115.2</ele>
        <time>2015-06-15T18:44:36.809Z</time>
      </trkpt>
      <trkpt lat="48.89806" lon="2.32921">
        <ele>115.5</ele>
        <time>2015-06-15T18:44:37.819Z</time>
      </trkpt>
      <trkpt lat="48.89811" lon="2.32921">
        <ele>115.7</ele>
        <time>2015-06-15T18:44:38.830Z</time>
      </trkpt>
      <trkpt lat="48.89816" lon="2.32923">
        <ele>116.1</ele>
        <time>2015-06-15T18:44:39.839Z</time>
      </trkpt>
      <trkpt lat="48.89821" lon="2.32924">
        <ele>116.5</ele>
        <time>2015-06-15T18:44:40.845Z</time>
      </trkpt>
      <trkpt lat="48.89827" lon="2.32926">
        <ele>116.9</ele>
        <time>2015-06-15T18:44:41.784Z</time>
      </trkpt>
      <trkpt lat="48.89832" lon="2.32926">
        <ele>117.1</ele>
        <time>2015-06-15T18:44:42.790Z</time>
      </trkpt>
      <trkpt lat="48.89837" lon="2.32927">
        <ele>117.4</ele>
        <time>2015-06-15T18:44:43.816Z</time>
      </trkpt>
      <trkpt lat="48.89842" lon="2.32929">
        <ele>117.8</ele>
        <time>2015-06-15T18:44:44.841Z</time>
      </trkpt>
      <trkpt lat="48.89848" lon="2.32931">
        <ele>118</ele>
        <time>2015-06-15T18:44:45.826Z</time>
      </trkpt>
      <trkpt lat="48.89852" lon="2.32933">
        <ele>117.9</ele>
        <time>2015-06-15T18:44:46.920Z</time>
      </trkpt>
      <trkpt lat="48.89857" lon="2.32937">
        <ele>118.1</ele>
        <time>2015-06-15T18:44:47.789Z</time>
      </trkpt>
      <trkpt lat="48.89861" lon="2.32941">
        <ele>117.9</ele>
        <time>2015-06-15T18:44:48.793Z</time>
      </trkpt>
      <trkpt lat="48.89867" lon="2.32946">
        <ele>117.7</ele>
        <time>2015-06-15T18:44:50.812Z</time>
      </trkpt>
      <trkpt lat="48.89872" lon="2.32948">
        <ele>117.3</ele>
        <time>2015-06-15T18:44:51.866Z</time>
      </trkpt>
      <trkpt lat="48.89877" lon="2.3295">
        <ele>116.6</ele>
        <time>2015-06-15T18:44:52.790Z</time>
      </trkpt>
      <trkpt lat="48.89882" lon="2.32953">
        <ele>116.5</ele>
        <time>2015-06-15T18:44:53.789Z</time>
      </trkpt>
      <trkpt lat="48.89888" lon="2.32957">
        <ele>116.6</ele>
        <time>2015-06-15T18:44:54.797Z</time>
      </trkpt>
      <trkpt lat="48.89894" lon="2.32961">
        <ele>116.7</ele>
        <time>2015-06-15T18:44:55.805Z</time>
      </trkpt>
      <trkpt lat="48.89899" lon="2.32965">
        <ele>117</ele>
        <time>2015-06-15T18:44:56.842Z</time>
      </trkpt>
      <trkpt lat="48.89904" lon="2.32969">
        <ele>116.9</ele>
        <time>2015-06-15T18:44:57.857Z</time>
      </trkpt>
      <trkpt lat="48.89909" lon="2.32972">
        <ele>117.1</ele>
        <time>2015-06-15T18:44:58.784Z</time>
      </trkpt>
      <trkpt lat="48.89914" lon="2.32974">
        <ele>117.6</ele>
        <time>2015-06-15T18:44:59.785Z</time>
      </trkpt>
      <trkpt lat="48.8992" lon="2.32976">
        <ele>117.8</ele>
        <time>2015-06-15T18:45:00.786Z</time>
      </trkpt>
      <trkpt lat="48.89926" lon="2.32978">
        <ele>117.5</ele>
        <time>2015-06-15T18:45:01.797Z</time>
      </trkpt>
      <trkpt lat="48.89933" lon="2.32979">
        <ele>116.9</ele>
        <time>2015-06-15T18:45:02.901Z</time>
      </trkpt>
      <trkpt lat="48.89939" lon="2.3298">
        <ele>116.2</ele>
        <time>2015-06-15T18:45:03.819Z</time>
      </trkpt>
      <trkpt lat="48.89945" lon="2.32981">
        <ele>115.4</ele>
        <time>2015-06-15T18:45:04.828Z</time>
      </trkpt>
      <trkpt lat="48.89951" lon="2.32983">
        <ele>115</ele>
        <time>2015-06-15T18:45:05.841Z</time>
      </trkpt>
      <trkpt lat="48.89957" lon="2.32985">
        <ele>114.5</ele>
        <time>2015-06-15T18:45:06.862Z</time>
      </trkpt>
      <trkpt lat="48.89963" lon="2.32987">
        <ele>114.3</ele>
        <time>2015-06-15T18:45:07.744Z</time>
      </trkpt>
      <trkpt lat="48.89969" lon="2.32989">
        <ele>114.1</ele>
        <time>2015-06-15T18:45:08.826Z</time>
      </trkpt>
      <trkpt lat="48.89974" lon="2.32992">
        <ele>113.5</ele>
        <time>2015-06-15T18:45:09.829Z</time>
      </trkpt>
      <trkpt lat="48.8998" lon="2.32994">
        <ele>112.9</ele>
        <time>2015-06-15T18:45:10.795Z</time>
      </trkpt>
      <trkpt lat="48.89987" lon="2.32995">
        <ele>112.6</ele>
        <time>2015-06-15T18:45:11.857Z</time>
      </trkpt>
      <trkpt lat="48.89993" lon="2.32998">
        <ele>112</ele>
        <time>2015-06-15T18:45:12.801Z</time>
      </trkpt>
      <trkpt lat="48.89999" lon="2.33">
        <ele>111.4</ele>
        <time>2015-06-15T18:45:13.796Z</time>
      </trkpt>
      <trkpt lat="48.90006" lon="2.33003">
        <ele>109.7</ele>
        <time>2015-06-15T18:45:14.802Z</time>
      </trkpt>
      <trkpt lat="48.90013" lon="2.33006">
        <ele>108</ele>
        <time>2015-06-15T18:45:15.825Z</time>
      </trkpt>
      <trkpt lat="48.90018" lon="2.33009">
        <ele>108</ele>
        <time>2015-06-15T18:45:16.841Z</time>
      </trkpt>
      <trkpt lat="48.90024" lon="2.3301">
        <ele>107.5</ele>
        <time>2015-06-15T18:45:17.860Z</time>
      </trkpt>
      <trkpt lat="48.90031" lon="2.33011">
        <ele>106.9</ele>
        <time>2015-06-15T18:45:18.780Z</time>
      </trkpt>
      <trkpt lat="48.90037" lon="2.33013">
        <ele>107.4</ele>
        <time>2015-06-15T18:45:19.770Z</time>
      </trkpt>
      <trkpt lat="48.90042" lon="2.33015">
        <ele>107.2</ele>
        <time>2015-06-15T18:45:20.822Z</time>
      </trkpt>
      <trkpt lat="48.90046" lon="2.33018">
        <ele>107.3</ele>
        <time>2015-06-15T18:45:21.816Z</time>
      </trkpt>
      <trkpt lat="48.90052" lon="2.33021">
        <ele>107.3</ele>
        <time>2015-06-15T18:45:22.842Z</time>
      </trkpt>
      <trkpt lat="48.90056" lon="2.33027">
        <ele>107.2</ele>
        <time>2015-06-15T18:45:23.855Z</time>
      </trkpt>
      <trkpt lat="48.90067" lon="2.33037">
        <ele>106.9</ele>
        <time>2015-06-15T18:45:25.782Z</time>
      </trkpt>
      <trkpt lat="48.90074" lon="2.33038">
        <ele>106.6</ele>
        <time>2015-06-15T18:45:26.835Z</time>
      </trkpt>
      <trkpt lat="48.9008" lon="2.33035">
        <ele>106.7</ele>
        <time>2015-06-15T18:45:27.843Z</time>
      </trkpt>
      <trkpt lat="48.90087" lon="2.33031">
        <ele>106.6</ele>
        <time>2015-06-15T18:45:28.860Z</time>
      </trkpt>
      <trkpt lat="48.90093" lon="2.33028">
        <ele>106.4</ele>
        <time>2015-06-15T18:45:29.759Z</time>
      </trkpt>
      <trkpt lat="48.90099" lon="2.33024">
        <ele>106.3</ele>
        <time>2015-06-15T18:45:30.797Z</time>
      </trkpt>
      <trkpt lat="48.90102" lon="2.33022">
        <ele>106.1</ele>
        <time>2015-06-15T18:45:31.835Z</time>
      </trkpt>
      <trkpt lat="48.90109" lon="2.33021">
        <ele>105.7</ele>
        <time>2015-06-15T18:45:34.777Z</time>
      </trkpt>
      <trkpt lat="48.90112" lon="2.33023">
        <ele>105.9</ele>
        <time>2015-06-15T18:45:35.777Z</time>
      </trkpt>
      <trkpt lat="48.90116" lon="2.33023">
        <ele>106.3</ele>
        <time>2015-06-15T18:45:36.821Z</time>
      </trkpt>
      <trkpt lat="48.90123" lon="2.33024">
        <ele>105.5</ele>
        <time>2015-06-15T18:45:37.828Z</time>
      </trkpt>
      <trkpt lat="48.9013" lon="2.33026">
        <ele>104.4</ele>
        <time>2015-06-15T18:45:38.851Z</time>
      </trkpt>
      <trkpt lat="48.90137" lon="2.33028">
        <ele>103</ele>
        <time>2015-06-15T18:45:39.772Z</time>
      </trkpt>
      <trkpt lat="48.90142" lon="2.3303">
        <ele>102.4</ele>
        <time>2015-06-15T18:45:40.803Z</time>
      </trkpt>
      <trkpt lat="48.90147" lon="2.33033">
        <ele>102.3</ele>
        <time>2015-06-15T18:45:41.791Z</time>
      </trkpt>
      <trkpt lat="48.90151" lon="2.33035">
        <ele>102.1</ele>
        <time>2015-06-15T18:45:42.809Z</time>
      </trkpt>
      <trkpt lat="48.90155" lon="2.33037">
        <ele>102.3</ele>
        <time>2015-06-15T18:45:43.818Z</time>
      </trkpt>
      <trkpt lat="48.9016" lon="2.33039">
        <ele>102.3</ele>
        <time>2015-06-15T18:45:44.837Z</time>
      </trkpt>
      <trkpt lat="48.90164" lon="2.33041">
        <ele>102.1</ele>
        <time>2015-06-15T18:45:45.855Z</time>
      </trkpt>
      <trkpt lat="48.90169" lon="2.33042">
        <ele>102.1</ele>
        <time>2015-06-15T18:45:46.877Z</time>
      </trkpt>
      <trkpt lat="48.90174" lon="2.33043">
        <ele>102</ele>
        <time>2015-06-15T18:45:47.829Z</time>
      </trkpt>
      <trkpt lat="48.90179" lon="2.33045">
        <ele>101.9</ele>
        <time>2015-06-15T18:45:48.778Z</time>
      </trkpt>
      <trkpt lat="48.90184" lon="2.33046">
        <ele>102.1</ele>
        <time>2015-06-15T18:45:49.778Z</time>
      </trkpt>
      <trkpt lat="48.90188" lon="2.33049">
        <ele>102.1</ele>
        <time>2015-06-15T18:45:50.832Z</time>
      </trkpt>
      <trkpt lat="48.90193" lon="2.3305">
        <ele>102.2</ele>
        <time>2015-06-15T18:45:51.833Z</time>
      </trkpt>
      <trkpt lat="48.90198" lon="2.33051">
        <ele>102.6</ele>
        <time>2015-06-15T18:45:52.783Z</time>
      </trkpt>
      <trkpt lat="48.90203" lon="2.33053">
        <ele>102.9</ele>
        <time>2015-06-15T18:45:53.783Z</time>
      </trkpt>
      <trkpt lat="48.90208" lon="2.33054">
        <ele>102.9</ele>
        <time>2015-06-15T18:45:54.816Z</time>
      </trkpt>
      <trkpt lat="48.90214" lon="2.33056">
        <ele>103.1</ele>
        <time>2015-06-15T18:45:55.857Z</time>
      </trkpt>
      <trkpt lat="48.90219" lon="2.33057">
        <ele>103.4</ele>
        <time>2015-06-15T18:45:56.871Z</time>
      </trkpt>
      <trkpt lat="48.90225" lon="2.33057">
        <ele>103.9</ele>
        <time>2015-06-15T18:45:57.812Z</time>
      </trkpt>
      <trkpt lat="48.9023" lon="2.33058">
        <ele>104.4</ele>
        <time>2015-06-15T18:45:58.802Z</time>
      </trkpt>
      <trkpt lat="48.90236" lon="2.3306">
        <ele>104.6</ele>
        <time>2015-06-15T18:45:59.931Z</time>
      </trkpt>
      <trkpt lat="48.90241" lon="2.33061">
        <ele>105</ele>
        <time>2015-06-15T18:46:00.835Z</time>
      </trkpt>
      <trkpt lat="48.90246" lon="2.33063">
        <ele>105.6</ele>
        <time>2015-06-15T18:46:01.838Z</time>
      </trkpt>
      <trkpt lat="48.90253" lon="2.33064">
        <ele>106.2</ele>
        <time>2015-06-15T18:46:02.903Z</time>
      </trkpt>
      <trkpt lat="48.9026" lon="2.33067">
        <ele>107.2</ele>
        <time>2015-06-15T18:46:03.799Z</time>
      </trkpt>
      <trkpt lat="48.90267" lon="2.3307">
        <ele>107.8</ele>
        <time>2015-06-15T18:46:04.772Z</time>
      </trkpt>
      <trkpt lat="48.90273" lon="2.33073">
        <ele>108.4</ele>
        <time>2015-06-15T18:46:05.821Z</time>
      </trkpt>
      <trkpt lat="48.90279" lon="2.33076">
        <ele>108.6</ele>
        <time>2015-06-15T18:46:06.784Z</time>
      </trkpt>
      <trkpt lat="48.90284" lon="2.33078">
        <ele>108.9</ele>
        <time>2015-06-15T18:46:07.770Z</time>
      </trkpt>
      <trkpt lat="48.9029" lon="2.3308">
        <ele>108.8</ele>
        <time>2015-06-15T18:46:08.836Z</time>
      </trkpt>
      <trkpt lat="48.90296" lon="2.33083">
        <ele>109.1</ele>
        <time>2015-06-15T18:46:09.844Z</time>
      </trkpt>
      <trkpt lat="48.90302" lon="2.33085">
        <ele>109.4</ele>
        <time>2015-06-15T18:46:10.772Z</time>
      </trkpt>
      <trkpt lat="48.90308" lon="2.33087">
        <ele>109.2</ele>
        <time>2015-06-15T18:46:11.808Z</time>
      </trkpt>
      <trkpt lat="48.90314" lon="2.33089">
        <ele>109.2</ele>
        <time>2015-06-15T18:46:12.837Z</time>
      </trkpt>
      <trkpt lat="48.90319" lon="2.33092">
        <ele>109.4</ele>
        <time>2015-06-15T18:46:13.929Z</time>
      </trkpt>
      <trkpt lat="48.90325" lon="2.33095">
        <ele>109.9</ele>
        <time>2015-06-15T18:46:14.944Z</time>
      </trkpt>
      <trkpt lat="48.90332" lon="2.33097">
        <ele>110.3</ele>
        <time>2015-06-15T18:46:15.825Z</time>
      </trkpt>
      <trkpt lat="48.90339" lon="2.33098">
        <ele>110.9</ele>
        <time>2015-06-15T18:46:16.834Z</time>
      </trkpt>
      <trkpt lat="48.90344" lon="2.33101">
        <ele>111.1</ele>
        <time>2015-06-15T18:46:17.850Z</time>
      </trkpt>
      <trkpt lat="48.9035" lon="2.33103">
        <ele>111.2</ele>
        <time>2015-06-15T18:46:18.883Z</time>
      </trkpt>
      <trkpt lat="48.90357" lon="2.33106">
        <ele>111.2</ele>
        <time>2015-06-15T18:46:19.790Z</time>
      </trkpt>
      <trkpt lat="48.90364" lon="2.33108">
        <ele>111.2</ele>
        <time>2015-06-15T18:46:20.829Z</time>
      </trkpt>
      <trkpt lat="48.9037" lon="2.3311">
        <ele>111.2</ele>
        <time>2015-06-15T18:46:21.831Z</time>
      </trkpt>
      <trkpt lat="48.90376" lon="2.33112">
        <ele>111.3</ele>
        <time>2015-06-15T18:46:22.859Z</time>
      </trkpt>
      <trkpt lat="48.90382" lon="2.33114">
        <ele>111.5</ele>
        <time>2015-06-15T18:46:23.785Z</time>
      </trkpt>
      <trkpt lat="48.90388" lon="2.33117">
        <ele>111.4</ele>
        <time>2015-06-15T18:46:24.788Z</time>
      </trkpt>
      <trkpt lat="48.90395" lon="2.3312">
        <ele>111.2</ele>
        <time>2015-06-15T18:46:25.795Z</time>
      </trkpt>
      <trkpt lat="48.90402" lon="2.33123">
        <ele>111.1</ele>
        <time>2015-06-15T18:46:26.838Z</time>
      </trkpt>
      <trkpt lat="48.90408" lon="2.33125">
        <ele>111.1</ele>
        <time>2015-06-15T18:46:27.828Z</time>
      </trkpt>
      <trkpt lat="48.90415" lon="2.33127">
        <ele>111.1</ele>
        <time>2015-06-15T18:46:28.833Z</time>
      </trkpt>
      <trkpt lat="48.90421" lon="2.33129">
        <ele>111.4</ele>
        <time>2015-06-15T18:46:29.859Z</time>
      </trkpt>
      <trkpt lat="48.90427" lon="2.33132">
        <ele>111.6</ele>
        <time>2015-06-15T18:46:30.778Z</time>
      </trkpt>
      <trkpt lat="48.90433" lon="2.33134">
        <ele>111</ele>
        <time>2015-06-15T18:46:31.786Z</time>
      </trkpt>
      <trkpt lat="48.90439" lon="2.33136">
        <ele>110.8</ele>
        <time>2015-06-15T18:46:32.896Z</time>
      </trkpt>
      <trkpt lat="48.90446" lon="2.33138">
        <ele>110.4</ele>
        <time>2015-06-15T18:46:33.791Z</time>
      </trkpt>
      <trkpt lat="48.90451" lon="2.3314">
        <ele>110.1</ele>
        <time>2015-06-15T18:46:34.811Z</time>
      </trkpt>
      <trkpt lat="48.90457" lon="2.33142">
        <ele>110.2</ele>
        <time>2015-06-15T18:46:35.812Z</time>
      </trkpt>
      <trkpt lat="48.90462" lon="2.33143">
        <ele>110.4</ele>
        <time>2015-06-15T18:46:36.824Z</time>
      </trkpt>
      <trkpt lat="48.90467" lon="2.33144">
        <ele>110.7</ele>
        <time>2015-06-15T18:46:37.835Z</time>
      </trkpt>
      <trkpt lat="48.90472" lon="2.33146">
        <ele>110.7</ele>
        <time>2015-06-15T18:46:38.892Z</time>
      </trkpt>
      <trkpt lat="48.90477" lon="2.33147">
        <ele>110.5</ele>
        <time>2015-06-15T18:46:39.814Z</time>
      </trkpt>
      <trkpt lat="48.90482" lon="2.33147">
        <ele>110.5</ele>
        <time>2015-06-15T18:46:40.814Z</time>
      </trkpt>
      <trkpt lat="48.90488" lon="2.33148">
        <ele>110.5</ele>
        <time>2015-06-15T18:46:41.835Z</time>
      </trkpt>
      <trkpt lat="48.90493" lon="2.33149">
        <ele>110.4</ele>
        <time>2015-06-15T18:46:42.786Z</time>
      </trkpt>
      <trkpt lat="48.90498" lon="2.33151">
        <ele>110.4</ele>
        <time>2015-06-15T18:46:43.806Z</time>
      </trkpt>
      <trkpt lat="48.90502" lon="2.33153">
        <ele>110.7</ele>
        <time>2015-06-15T18:46:44.840Z</time>
      </trkpt>
      <trkpt lat="48.90507" lon="2.33155">
        <ele>110.9</ele>
        <time>2015-06-15T18:46:45.850Z</time>
      </trkpt>
      <trkpt lat="48.90512" lon="2.33157">
        <ele>111.1</ele>
        <time>2015-06-15T18:46:46.778Z</time>
      </trkpt>
      <trkpt lat="48.90518" lon="2.33159">
        <ele>111.3</ele>
        <time>2015-06-15T18:46:47.899Z</time>
      </trkpt>
      <trkpt lat="48.90525" lon="2.33161">
        <ele>111.3</ele>
        <time>2015-06-15T18:46:48.777Z</time>
      </trkpt>
      <trkpt lat="48.90532" lon="2.33163">
        <ele>111.3</ele>
        <time>2015-06-15T18:46:49.790Z</time>
      </trkpt>
      <trkpt lat="48.90539" lon="2.33165">
        <ele>111.7</ele>
        <time>2015-06-15T18:46:50.824Z</time>
      </trkpt>
      <trkpt lat="48.90546" lon="2.33168">
        <ele>111.7</ele>
        <time>2015-06-15T18:46:51.818Z</time>
      </trkpt>
      <trkpt lat="48.90553" lon="2.3317">
        <ele>111.9</ele>
        <time>2015-06-15T18:46:52.822Z</time>
      </trkpt>
      <trkpt lat="48.9056" lon="2.33173">
        <ele>112.1</ele>
        <time>2015-06-15T18:46:53.831Z</time>
      </trkpt>
      <trkpt lat="48.90568" lon="2.33176">
        <ele>111.9</ele>
        <time>2015-06-15T18:46:54.743Z</time>
      </trkpt>
      <trkpt lat="48.90575" lon="2.33179">
        <ele>111.9</ele>
        <time>2015-06-15T18:46:55.783Z</time>
      </trkpt>
      <trkpt lat="48.90581" lon="2.33182">
        <ele>111.6</ele>
        <time>2015-06-15T18:46:56.817Z</time>
      </trkpt>
      <trkpt lat="48.90588" lon="2.33184">
        <ele>111.1</ele>
        <time>2015-06-15T18:46:57.806Z</time>
      </trkpt>
      <trkpt lat="48.90594" lon="2.33187">
        <ele>110.4</ele>
        <time>2015-06-15T18:46:58.827Z</time>
      </trkpt>
      <trkpt lat="48.906" lon="2.3319">
        <ele>109.9</ele>
        <time>2015-06-15T18:46:59.825Z</time>
      </trkpt>
      <trkpt lat="48.90606" lon="2.33191">
        <ele>109.1</ele>
        <time>2015-06-15T18:47:00.849Z</time>
      </trkpt>
      <trkpt lat="48.90612" lon="2.33193">
        <ele>108.4</ele>
        <time>2015-06-15T18:47:01.850Z</time>
      </trkpt>
      <trkpt lat="48.90618" lon="2.33195">
        <ele>108.1</ele>
        <time>2015-06-15T18:47:02.896Z</time>
      </trkpt>
      <trkpt lat="48.90624" lon="2.33198">
        <ele>108.3</ele>
        <time>2015-06-15T18:47:03.767Z</time>
      </trkpt>
      <trkpt lat="48.90629" lon="2.33199">
        <ele>108.3</ele>
        <time>2015-06-15T18:47:04.812Z</time>
      </trkpt>
      <trkpt lat="48.90634" lon="2.33201">
        <ele>108</ele>
        <time>2015-06-15T18:47:05.821Z</time>
      </trkpt>
      <trkpt lat="48.90641" lon="2.33201">
        <ele>106.5</ele>
        <time>2015-06-15T18:47:06.831Z</time>
      </trkpt>
      <trkpt lat="48.90646" lon="2.33203">
        <ele>106.9</ele>
        <time>2015-06-15T18:47:07.852Z</time>
      </trkpt>
      <trkpt lat="48.90653" lon="2.33206">
        <ele>107</ele>
        <time>2015-06-15T18:47:08.883Z</time>
      </trkpt>
      <trkpt lat="48.90659" lon="2.33209">
        <ele>107</ele>
        <time>2015-06-15T18:47:09.785Z</time>
      </trkpt>
      <trkpt lat="48.90664" lon="2.33211">
        <ele>106.9</ele>
        <time>2015-06-15T18:47:10.777Z</time>
      </trkpt>
      <trkpt lat="48.9067" lon="2.33212">
        <ele>106.8</ele>
        <time>2015-06-15T18:47:11.789Z</time>
      </trkpt>
      <trkpt lat="48.90677" lon="2.33212">
        <ele>106.7</ele>
        <time>2015-06-15T18:47:12.822Z</time>
      </trkpt>
      <trkpt lat="48.90684" lon="2.33212">
        <ele>106.4</ele>
        <time>2015-06-15T18:47:13.825Z</time>
      </trkpt>
      <trkpt lat="48.9069" lon="2.33213">
        <ele>106.1</ele>
        <time>2015-06-15T18:47:14.848Z</time>
      </trkpt>
      <trkpt lat="48.90696" lon="2.33215">
        <ele>105.9</ele>
        <time>2015-06-15T18:47:15.753Z</time>
      </trkpt>
      <trkpt lat="48.90702" lon="2.33216">
        <ele>106</ele>
        <time>2015-06-15T18:47:16.783Z</time>
      </trkpt>
      <trkpt lat="48.90708" lon="2.33218">
        <ele>106.3</ele>
        <time>2015-06-15T18:47:17.768Z</time>
      </trkpt>
      <trkpt lat="48.90716" lon="2.33221">
        <ele>106.5</ele>
        <time>2015-06-15T18:47:18.814Z</time>
      </trkpt>
      <trkpt lat="48.90722" lon="2.33224">
        <ele>106.5</ele>
        <time>2015-06-15T18:47:19.833Z</time>
      </trkpt>
      <trkpt lat="48.90731" lon="2.33226">
        <ele>107</ele>
        <time>2015-06-15T18:47:20.844Z</time>
      </trkpt>
      <trkpt lat="48.90739" lon="2.33228">
        <ele>107</ele>
        <time>2015-06-15T18:47:21.867Z</time>
      </trkpt>
      <trkpt lat="48.90746" lon="2.3323">
        <ele>106.8</ele>
        <time>2015-06-15T18:47:22.850Z</time>
      </trkpt>
      <trkpt lat="48.90753" lon="2.33233">
        <ele>106.7</ele>
        <time>2015-06-15T18:47:23.745Z</time>
      </trkpt>
      <trkpt lat="48.90761" lon="2.33236">
        <ele>106.5</ele>
        <time>2015-06-15T18:47:24.814Z</time>
      </trkpt>
      <trkpt lat="48.9077" lon="2.33239">
        <ele>106</ele>
        <time>2015-06-15T18:47:25.817Z</time>
      </trkpt>
      <trkpt lat="48.90776" lon="2.33241">
        <ele>105.4</ele>
        <time>2015-06-15T18:47:26.836Z</time>
      </trkpt>
      <trkpt lat="48.90788" lon="2.33242">
        <ele>103.7</ele>
        <time>2015-06-15T18:47:27.850Z</time>
      </trkpt>
      <trkpt lat="48.90794" lon="2.33244">
        <ele>103.9</ele>
        <time>2015-06-15T18:47:28.864Z</time>
      </trkpt>
      <trkpt lat="48.908" lon="2.33246">
        <ele>103.7</ele>
        <time>2015-06-15T18:47:29.779Z</time>
      </trkpt>
      <trkpt lat="48.90808" lon="2.3325">
        <ele>102.7</ele>
        <time>2015-06-15T18:47:31.786Z</time>
      </trkpt>
      <trkpt lat="48.90811" lon="2.33252">
        <ele>103</ele>
        <time>2015-06-15T18:47:32.883Z</time>
      </trkpt>
      <trkpt lat="48.90818" lon="2.33254">
        <ele>103.2</ele>
        <time>2015-06-15T18:47:34.851Z</time>
      </trkpt>
      <trkpt lat="48.90824" lon="2.33254">
        <ele>103.5</ele>
        <time>2015-06-15T18:47:35.762Z</time>
      </trkpt>
      <trkpt lat="48.9083" lon="2.33256">
        <ele>103.5</ele>
        <time>2015-06-15T18:47:36.764Z</time>
      </trkpt>
      <trkpt lat="48.90835" lon="2.33257">
        <ele>103.8</ele>
        <time>2015-06-15T18:47:37.789Z</time>
      </trkpt>
      <trkpt lat="48.90839" lon="2.33259">
        <ele>103.9</ele>
        <time>2015-06-15T18:47:38.824Z</time>
      </trkpt>
      <trkpt lat="48.90844" lon="2.33262">
        <ele>104.1</ele>
        <time>2015-06-15T18:47:39.751Z</time>
      </trkpt>
      <trkpt lat="48.9085" lon="2.33264">
        <ele>104.1</ele>
        <time>2015-06-15T18:47:40.763Z</time>
      </trkpt>
      <trkpt lat="48.90856" lon="2.33265">
        <ele>104.1</ele>
        <time>2015-06-15T18:47:41.770Z</time>
      </trkpt>
      <trkpt lat="48.9086" lon="2.33266">
        <ele>104.2</ele>
        <time>2015-06-15T18:47:42.781Z</time>
      </trkpt>
      <trkpt lat="48.90866" lon="2.33268">
        <ele>103.9</ele>
        <time>2015-06-15T18:47:43.796Z</time>
      </trkpt>
      <trkpt lat="48.90872" lon="2.33271">
        <ele>104</ele>
        <time>2015-06-15T18:47:44.819Z</time>
      </trkpt>
      <trkpt lat="48.90878" lon="2.33273">
        <ele>103.7</ele>
        <time>2015-06-15T18:47:45.824Z</time>
      </trkpt>
      <trkpt lat="48.90883" lon="2.33274">
        <ele>103.6</ele>
        <time>2015-06-15T18:47:46.830Z</time>
      </trkpt>
      <trkpt lat="48.90887" lon="2.33275">
        <ele>103.8</ele>
        <time>2015-06-15T18:47:47.841Z</time>
      </trkpt>
      <trkpt lat="48.90892" lon="2.33277">
        <ele>104.1</ele>
        <time>2015-06-15T18:47:48.857Z</time>
      </trkpt>
      <trkpt lat="48.90897" lon="2.3328">
        <ele>104.4</ele>
        <time>2015-06-15T18:47:49.773Z</time>
      </trkpt>
      <trkpt lat="48.90903" lon="2.33282">
        <ele>104.7</ele>
        <time>2015-06-15T18:47:50.884Z</time>
      </trkpt>
      <trkpt lat="48.90908" lon="2.33283">
        <ele>104.6</ele>
        <time>2015-06-15T18:47:51.782Z</time>
      </trkpt>
      <trkpt lat="48.90913" lon="2.33285">
        <ele>104.7</ele>
        <time>2015-06-15T18:47:52.785Z</time>
      </trkpt>
      <trkpt lat="48.90918" lon="2.33285">
        <ele>105</ele>
        <time>2015-06-15T18:47:53.795Z</time>
      </trkpt>
      <trkpt lat="48.90923" lon="2.33287">
        <ele>105.1</ele>
        <time>2015-06-15T18:47:54.812Z</time>
      </trkpt>
      <trkpt lat="48.90928" lon="2.33289">
        <ele>105.4</ele>
        <time>2015-06-15T18:47:55.820Z</time>
      </trkpt>
      <trkpt lat="48.90934" lon="2.3329">
        <ele>105.3</ele>
        <time>2015-06-15T18:47:56.896Z</time>
      </trkpt>
      <trkpt lat="48.9094" lon="2.33292">
        <ele>105.5</ele>
        <time>2015-06-15T18:47:57.826Z</time>
      </trkpt>
      <trkpt lat="48.90945" lon="2.33294">
        <ele>105.7</ele>
        <time>2015-06-15T18:47:58.792Z</time>
      </trkpt>
      <trkpt lat="48.90952" lon="2.33297">
        <ele>105.3</ele>
        <time>2015-06-15T18:47:59.791Z</time>
      </trkpt>
      <trkpt lat="48.90958" lon="2.33299">
        <ele>105.4</ele>
        <time>2015-06-15T18:48:00.818Z</time>
      </trkpt>
      <trkpt lat="48.90963" lon="2.33302">
        <ele>105.6</ele>
        <time>2015-06-15T18:48:01.838Z</time>
      </trkpt>
      <trkpt lat="48.90968" lon="2.33304">
        <ele>105.7</ele>
        <time>2015-06-15T18:48:02.880Z</time>
      </trkpt>
      <trkpt lat="48.90973" lon="2.33305">
        <ele>105.8</ele>
        <time>2015-06-15T18:48:03.776Z</time>
      </trkpt>
      <trkpt lat="48.90979" lon="2.33307">
        <ele>106</ele>
        <time>2015-06-15T18:48:04.797Z</time>
      </trkpt>
      <trkpt lat="48.90984" lon="2.33309">
        <ele>106.4</ele>
        <time>2015-06-15T18:48:05.794Z</time>
      </trkpt>
      <trkpt lat="48.9099" lon="2.3331">
        <ele>106.7</ele>
        <time>2015-06-15T18:48:06.807Z</time>
      </trkpt>
      <trkpt lat="48.90995" lon="2.33312">
        <ele>106.7</ele>
        <time>2015-06-15T18:48:07.823Z</time>
      </trkpt>
      <trkpt lat="48.91" lon="2.33314">
        <ele>106.4</ele>
        <time>2015-06-15T18:48:08.846Z</time>
      </trkpt>
      <trkpt lat="48.91006" lon="2.33316">
        <ele>106.4</ele>
        <time>2015-06-15T18:48:09.868Z</time>
      </trkpt>
      <trkpt lat="48.91012" lon="2.33319">
        <ele>106.2</ele>
        <time>2015-06-15T18:48:10.779Z</time>
      </trkpt>
      <trkpt lat="48.91019" lon="2.33322">
        <ele>106.2</ele>
        <time>2015-06-15T18:48:11.798Z</time>
      </trkpt>
      <trkpt lat="48.91024" lon="2.33325">
        <ele>106.4</ele>
        <time>2015-06-15T18:48:12.811Z</time>
      </trkpt>
      <trkpt lat="48.91029" lon="2.33326">
        <ele>106.7</ele>
        <time>2015-06-15T18:48:13.866Z</time>
      </trkpt>
      <trkpt lat="48.91034" lon="2.33327">
        <ele>106.7</ele>
        <time>2015-06-15T18:48:14.905Z</time>
      </trkpt>
      <trkpt lat="48.91039" lon="2.33329">
        <ele>106.7</ele>
        <time>2015-06-15T18:48:15.803Z</time>
      </trkpt>
      <trkpt lat="48.91045" lon="2.33332">
        <ele>106.4</ele>
        <time>2015-06-15T18:48:16.974Z</time>
      </trkpt>
      <trkpt lat="48.91051" lon="2.33333">
        <ele>106.1</ele>
        <time>2015-06-15T18:48:17.800Z</time>
      </trkpt>
      <trkpt lat="48.91056" lon="2.33336">
        <ele>106</ele>
        <time>2015-06-15T18:48:18.830Z</time>
      </trkpt>
      <trkpt lat="48.91061" lon="2.33338">
        <ele>105.8</ele>
        <time>2015-06-15T18:48:19.869Z</time>
      </trkpt>
      <trkpt lat="48.91067" lon="2.33342">
        <ele>105.3</ele>
        <time>2015-06-15T18:48:20.810Z</time>
      </trkpt>
      <trkpt lat="48.91071" lon="2.33344">
        <ele>105</ele>
        <time>2015-06-15T18:48:21.834Z</time>
      </trkpt>
      <trkpt lat="48.91077" lon="2.33347">
        <ele>104.8</ele>
        <time>2015-06-15T18:48:22.850Z</time>
      </trkpt>
      <trkpt lat="48.91082" lon="2.33349">
        <ele>104.6</ele>
        <time>2015-06-15T18:48:23.795Z</time>
      </trkpt>
      <trkpt lat="48.91086" lon="2.33351">
        <ele>104.3</ele>
        <time>2015-06-15T18:48:24.800Z</time>
      </trkpt>
      <trkpt lat="48.9109" lon="2.33353">
        <ele>104.3</ele>
        <time>2015-06-15T18:48:25.816Z</time>
      </trkpt>
      <trkpt lat="48.91094" lon="2.33354">
        <ele>104.2</ele>
        <time>2015-06-15T18:48:26.849Z</time>
      </trkpt>
      <trkpt lat="48.911" lon="2.33354">
        <ele>104.1</ele>
        <time>2015-06-15T18:48:27.864Z</time>
      </trkpt>
      <trkpt lat="48.91107" lon="2.33355">
        <ele>104.1</ele>
        <time>2015-06-15T18:48:29.805Z</time>
      </trkpt>
      <trkpt lat="48.9111" lon="2.33356">
        <ele>104.5</ele>
        <time>2015-06-15T18:48:30.811Z</time>
      </trkpt>
      <trkpt lat="48.91117" lon="2.33359">
        <ele>104.4</ele>
        <time>2015-06-15T18:48:32.906Z</time>
      </trkpt>
      <trkpt lat="48.9112" lon="2.3336">
        <ele>104.4</ele>
        <time>2015-06-15T18:48:33.781Z</time>
      </trkpt>
      <trkpt lat="48.91128" lon="2.33361">
        <ele>104.9</ele>
        <time>2015-06-15T18:48:36.209Z</time>
      </trkpt>
      <trkpt lat="48.91133" lon="2.33362">
        <ele>105.2</ele>
        <time>2015-06-15T18:48:36.810Z</time>
      </trkpt>
      <trkpt lat="48.91139" lon="2.33365">
        <ele>105.4</ele>
        <time>2015-06-15T18:48:38.874Z</time>
      </trkpt>
      <trkpt lat="48.91142" lon="2.33365">
        <ele>105.5</ele>
        <time>2015-06-15T18:48:39.741Z</time>
      </trkpt>
      <trkpt lat="48.91148" lon="2.33368">
        <ele>105.7</ele>
        <time>2015-06-15T18:48:41.808Z</time>
      </trkpt>
      <trkpt lat="48.91151" lon="2.33371">
        <ele>105.7</ele>
        <time>2015-06-15T18:48:42.743Z</time>
      </trkpt>
      <trkpt lat="48.91153" lon="2.33374">
        <ele>105.2</ele>
        <time>2015-06-15T18:49:53.798Z</time>
      </trkpt>
      <trkpt lat="48.91165" lon="2.3339">
        <ele>101.6</ele>
        <time>2015-06-15T18:49:54.803Z</time>
      </trkpt>
      <trkpt lat="48.91173" lon="2.33391">
        <ele>99.1</ele>
        <time>2015-06-15T18:50:16.797Z</time>
      </trkpt>
      <trkpt lat="48.91174" lon="2.33392">
        <ele>99.2</ele>
        <time>2015-06-15T18:50:17.820Z</time>
      </trkpt>
      <trkpt lat="48.91182" lon="2.33394">
        <ele>97.9</ele>
        <time>2015-06-15T18:50:21.822Z</time>
      </trkpt>
      <trkpt lat="48.91184" lon="2.33396">
        <ele>97.6</ele>
        <time>2015-06-15T18:50:22.807Z</time>
      </trkpt>
      <trkpt lat="48.91191" lon="2.334">
        <ele>96.2</ele>
        <time>2015-06-15T18:50:24.794Z</time>
      </trkpt>
      <trkpt lat="48.91195" lon="2.33403">
        <ele>95.4</ele>
        <time>2015-06-15T18:50:25.786Z</time>
      </trkpt>
      <trkpt lat="48.91203" lon="2.33407">
        <ele>94.7</ele>
        <time>2015-06-15T18:50:27.762Z</time>
      </trkpt>
      <trkpt lat="48.91208" lon="2.3341">
        <ele>94.5</ele>
        <time>2015-06-15T18:50:28.825Z</time>
      </trkpt>
      <trkpt lat="48.91215" lon="2.33415">
        <ele>95</ele>
        <time>2015-06-15T18:50:30.838Z</time>
      </trkpt>
      <trkpt lat="48.91219" lon="2.33418">
        <ele>94.8</ele>
        <time>2015-06-15T18:50:31.908Z</time>
      </trkpt>
      <trkpt lat="48.91226" lon="2.33424">
        <ele>94.5</ele>
        <time>2015-06-15T18:50:33.795Z</time>
      </trkpt>
      <trkpt lat="48.91229" lon="2.33426">
        <ele>94.3</ele>
        <time>2015-06-15T18:50:34.862Z</time>
      </trkpt>
      <trkpt lat="48.91236" lon="2.33431">
        <ele>93.6</ele>
        <time>2015-06-15T18:50:36.811Z</time>
      </trkpt>
      <trkpt lat="48.91239" lon="2.33435">
        <ele>93.3</ele>
        <time>2015-06-15T18:50:37.760Z</time>
      </trkpt>
      <trkpt lat="48.91244" lon="2.33443">
        <ele>92.9</ele>
        <time>2015-06-15T18:50:39.939Z</time>
      </trkpt>
      <trkpt lat="48.91247" lon="2.33446">
        <ele>92.7</ele>
        <time>2015-06-15T18:50:40.797Z</time>
      </trkpt>
      <trkpt lat="48.91254" lon="2.33452">
        <ele>93.3</ele>
        <time>2015-06-15T18:50:42.883Z</time>
      </trkpt>
      <trkpt lat="48.91257" lon="2.33455">
        <ele>93.6</ele>
        <time>2015-06-15T18:50:43.815Z</time>
      </trkpt>
      <trkpt lat="48.91265" lon="2.3346">
        <ele>93.9</ele>
        <time>2015-06-15T18:50:49.290Z</time>
      </trkpt>
      <trkpt lat="48.91266" lon="2.3346">
        <ele>93.5</ele>
        <time>2015-06-15T18:50:49.863Z</time>
      </trkpt>
      <trkpt lat="48.91273" lon="2.33459">
        <ele>93.6</ele>
        <time>2015-06-15T18:50:55.831Z</time>
      </trkpt>
      <trkpt lat="48.91275" lon="2.3346">
        <ele>93.3</ele>
        <time>2015-06-15T18:50:56.872Z</time>
      </trkpt>
      <trkpt lat="48.91282" lon="2.33459">
        <ele>93.3</ele>
        <time>2015-06-15T18:51:00.832Z</time>
      </trkpt>
      <trkpt lat="48.91284" lon="2.33456">
        <ele>92.8</ele>
        <time>2015-06-15T18:51:01.771Z</time>
      </trkpt>
      <trkpt lat="48.9129" lon="2.33447">
        <ele>92.4</ele>
        <time>2015-06-15T18:51:04.796Z</time>
      </trkpt>
      <trkpt lat="48.91291" lon="2.33443">
        <ele>92.3</ele>
        <time>2015-06-15T18:51:05.823Z</time>
      </trkpt>
      <trkpt lat="48.91295" lon="2.33436">
        <ele>92.6</ele>
        <time>2015-06-15T18:51:07.937Z</time>
      </trkpt>
      <trkpt lat="48.91297" lon="2.33432">
        <ele>93</ele>
        <time>2015-06-15T18:51:08.866Z</time>
      </trkpt>
      <trkpt lat="48.91299" lon="2.33423">
        <ele>94.1</ele>
        <time>2015-06-15T18:51:10.844Z</time>
      </trkpt>
      <trkpt lat="48.91301" lon="2.33418">
        <ele>94.1</ele>
        <time>2015-06-15T18:51:11.823Z</time>
      </trkpt>
      <trkpt lat="48.91307" lon="2.33411">
        <ele>93.9</ele>
        <time>2015-06-15T18:51:13.904Z</time>
      </trkpt>
      <trkpt lat="48.91311" lon="2.33408">
        <ele>93.7</ele>
        <time>2015-06-15T18:51:14.918Z</time>
      </trkpt>
      <trkpt lat="48.91319" lon="2.33402">
        <ele>93.3</ele>
        <time>2015-06-15T18:51:16.906Z</time>
      </trkpt>
      <trkpt lat="48.91322" lon="2.33398">
        <ele>93.3</ele>
        <time>2015-06-15T18:51:17.900Z</time>
      </trkpt>
      <trkpt lat="48.91329" lon="2.33392">
        <ele>93.5</ele>
        <time>2015-06-15T18:51:19.804Z</time>
      </trkpt>
      <trkpt lat="48.91332" lon="2.33389">
        <ele>93.8</ele>
        <time>2015-06-15T18:51:20.930Z</time>
      </trkpt>
      <trkpt lat="48.91338" lon="2.33382">
        <ele>94.3</ele>
        <time>2015-06-15T18:51:22.992Z</time>
      </trkpt>
      <trkpt lat="48.91341" lon="2.33378">
        <ele>94.6</ele>
        <time>2015-06-15T18:51:23.755Z</time>
      </trkpt>
      <trkpt lat="48.91347" lon="2.33371">
        <ele>94.9</ele>
        <time>2015-06-15T18:51:25.882Z</time>
      </trkpt>
      <trkpt lat="48.91349" lon="2.33367">
        <ele>95.1</ele>
        <time>2015-06-15T18:51:26.868Z</time>
      </trkpt>
      <trkpt lat="48.91355" lon="2.33358">
        <ele>96.2</ele>
        <time>2015-06-15T18:51:28.803Z</time>
      </trkpt>
      <trkpt lat="48.91359" lon="2.33351">
        <ele>96</ele>
        <time>2015-06-15T18:51:29.796Z</time>
      </trkpt>
      <trkpt lat="48.91363" lon="2.33346">
        <ele>95.9</ele>
        <time>2015-06-15T18:51:30.820Z</time>
      </trkpt>
      <trkpt lat="48.91366" lon="2.33339">
        <ele>95.7</ele>
        <time>2015-06-15T18:51:31.837Z</time>
      </trkpt>
      <trkpt lat="48.9137" lon="2.33334">
        <ele>95.5</ele>
        <time>2015-06-15T18:51:33.060Z</time>
      </trkpt>
      <trkpt lat="48.91373" lon="2.33328">
        <ele>95.6</ele>
        <time>2015-06-15T18:51:33.792Z</time>
      </trkpt>
      <trkpt lat="48.91376" lon="2.33322">
        <ele>95.7</ele>
        <time>2015-06-15T18:51:34.815Z</time>
      </trkpt>
      <trkpt lat="48.91379" lon="2.33315">
        <ele>95.7</ele>
        <time>2015-06-15T18:51:35.817Z</time>
      </trkpt>
      <trkpt lat="48.91385" lon="2.33308">
        <ele>96</ele>
        <time>2015-06-15T18:51:38.087Z</time>
      </trkpt>
      <trkpt lat="48.91388" lon="2.33304">
        <ele>96.2</ele>
        <time>2015-06-15T18:51:38.862Z</time>
      </trkpt>
      <trkpt lat="48.91391" lon="2.33298">
        <ele>96.4</ele>
        <time>2015-06-15T18:51:39.790Z</time>
      </trkpt>
      <trkpt lat="48.91394" lon="2.33294">
        <ele>96.3</ele>
        <time>2015-06-15T18:51:40.877Z</time>
      </trkpt>
      <trkpt lat="48.91398" lon="2.33289">
        <ele>95.8</ele>
        <time>2015-06-15T18:51:41.789Z</time>
      </trkpt>
      <trkpt lat="48.91401" lon="2.33284">
        <ele>95.7</ele>
        <time>2015-06-15T18:51:42.840Z</time>
      </trkpt>
      <trkpt lat="48.91405" lon="2.33279">
        <ele>95.5</ele>
        <time>2015-06-15T18:51:43.801Z</time>
      </trkpt>
      <trkpt lat="48.91408" lon="2.33275">
        <ele>95.1</ele>
        <time>2015-06-15T18:51:44.874Z</time>
      </trkpt>
      <trkpt lat="48.91415" lon="2.33266">
        <ele>94.9</ele>
        <time>2015-06-15T18:51:46.813Z</time>
      </trkpt>
      <trkpt lat="48.91418" lon="2.33261">
        <ele>95.1</ele>
        <time>2015-06-15T18:51:47.759Z</time>
      </trkpt>
      <trkpt lat="48.91421" lon="2.33256">
        <ele>95.2</ele>
        <time>2015-06-15T18:51:48.796Z</time>
      </trkpt>
      <trkpt lat="48.91425" lon="2.33251">
        <ele>94.9</ele>
        <time>2015-06-15T18:51:49.826Z</time>
      </trkpt>
      <trkpt lat="48.91433" lon="2.33244">
        <ele>93.4</ele>
        <time>2015-06-15T18:51:51.798Z</time>
      </trkpt>
      <trkpt lat="48.91436" lon="2.3324">
        <ele>92.8</ele>
        <time>2015-06-15T18:51:52.791Z</time>
      </trkpt>
      <trkpt lat="48.91442" lon="2.33231">
        <ele>92.4</ele>
        <time>2015-06-15T18:51:54.823Z</time>
      </trkpt>
      <trkpt lat="48.91445" lon="2.33227">
        <ele>92.2</ele>
        <time>2015-06-15T18:51:55.826Z</time>
      </trkpt>
      <trkpt lat="48.91451" lon="2.33219">
        <ele>91.7</ele>
        <time>2015-06-15T18:51:57.857Z</time>
      </trkpt>
      <trkpt lat="48.91455" lon="2.33215">
        <ele>91.9</ele>
        <time>2015-06-15T18:51:58.879Z</time>
      </trkpt>
      <trkpt lat="48.91459" lon="2.33212">
        <ele>92.1</ele>
        <time>2015-06-15T18:51:59.793Z</time>
      </trkpt>
      <trkpt lat="48.91462" lon="2.33208">
        <ele>92.2</ele>
        <time>2015-06-15T18:52:00.812Z</time>
      </trkpt>
      <trkpt lat="48.91469" lon="2.33202">
        <ele>91.6</ele>
        <time>2015-06-15T18:52:02.863Z</time>
      </trkpt>
      <trkpt lat="48.91473" lon="2.33199">
        <ele>91.7</ele>
        <time>2015-06-15T18:52:03.810Z</time>
      </trkpt>
      <trkpt lat="48.91477" lon="2.33195">
        <ele>91.6</ele>
        <time>2015-06-15T18:52:04.796Z</time>
      </trkpt>
      <trkpt lat="48.91481" lon="2.33192">
        <ele>91.8</ele>
        <time>2015-06-15T18:52:05.799Z</time>
      </trkpt>
      <trkpt lat="48.91485" lon="2.33189">
        <ele>91.7</ele>
        <time>2015-06-15T18:52:06.808Z</time>
      </trkpt>
      <trkpt lat="48.91489" lon="2.33186">
        <ele>91.7</ele>
        <time>2015-06-15T18:52:07.817Z</time>
      </trkpt>
      <trkpt lat="48.91494" lon="2.33181">
        <ele>91</ele>
        <time>2015-06-15T18:52:08.851Z</time>
      </trkpt>
      <trkpt lat="48.91499" lon="2.33176">
        <ele>90.7</ele>
        <time>2015-06-15T18:52:09.855Z</time>
      </trkpt>
      <trkpt lat="48.91504" lon="2.33172">
        <ele>90.8</ele>
        <time>2015-06-15T18:52:10.802Z</time>
      </trkpt>
      <trkpt lat="48.91509" lon="2.33167">
        <ele>90.7</ele>
        <time>2015-06-15T18:52:11.826Z</time>
      </trkpt>
      <trkpt lat="48.91513" lon="2.33162">
        <ele>90.6</ele>
        <time>2015-06-15T18:52:12.822Z</time>
      </trkpt>
      <trkpt lat="48.91518" lon="2.33157">
        <ele>90.8</ele>
        <time>2015-06-15T18:52:13.856Z</time>
      </trkpt>
      <trkpt lat="48.91523" lon="2.33153">
        <ele>90.8</ele>
        <time>2015-06-15T18:52:14.869Z</time>
      </trkpt>
      <trkpt lat="48.91527" lon="2.33148">
        <ele>90.5</ele>
        <time>2015-06-15T18:52:15.877Z</time>
      </trkpt>
      <trkpt lat="48.91532" lon="2.33144">
        <ele>90.3</ele>
        <time>2015-06-15T18:52:16.811Z</time>
      </trkpt>
      <trkpt lat="48.91535" lon="2.33139">
        <ele>90.5</ele>
        <time>2015-06-15T18:52:17.814Z</time>
      </trkpt>
      <trkpt lat="48.91542" lon="2.3313">
        <ele>90.6</ele>
        <time>2015-06-15T18:52:19.792Z</time>
      </trkpt>
      <trkpt lat="48.91545" lon="2.33125">
        <ele>90.4</ele>
        <time>2015-06-15T18:52:20.829Z</time>
      </trkpt>
      <trkpt lat="48.91552" lon="2.33117">
        <ele>90.8</ele>
        <time>2015-06-15T18:52:22.915Z</time>
      </trkpt>
      <trkpt lat="48.91555" lon="2.33113">
        <ele>90.9</ele>
        <time>2015-06-15T18:52:23.786Z</time>
      </trkpt>
      <trkpt lat="48.9156" lon="2.33109">
        <ele>91</ele>
        <time>2015-06-15T18:52:24.803Z</time>
      </trkpt>
      <trkpt lat="48.91564" lon="2.33105">
        <ele>90.9</ele>
        <time>2015-06-15T18:52:25.824Z</time>
      </trkpt>
      <trkpt lat="48.91569" lon="2.33102">
        <ele>90.8</ele>
        <time>2015-06-15T18:52:26.901Z</time>
      </trkpt>
      <trkpt lat="48.91574" lon="2.33097">
        <ele>90.7</ele>
        <time>2015-06-15T18:52:27.792Z</time>
      </trkpt>
      <trkpt lat="48.91579" lon="2.33093">
        <ele>90.4</ele>
        <time>2015-06-15T18:52:28.826Z</time>
      </trkpt>
      <trkpt lat="48.91583" lon="2.33089">
        <ele>89.9</ele>
        <time>2015-06-15T18:52:29.897Z</time>
      </trkpt>
      <trkpt lat="48.91588" lon="2.33087">
        <ele>89.8</ele>
        <time>2015-06-15T18:52:30.794Z</time>
      </trkpt>
      <trkpt lat="48.91593" lon="2.33083">
        <ele>89.7</ele>
        <time>2015-06-15T18:52:31.799Z</time>
      </trkpt>
      <trkpt lat="48.91598" lon="2.3308">
        <ele>89.3</ele>
        <time>2015-06-15T18:52:32.862Z</time>
      </trkpt>
      <trkpt lat="48.91603" lon="2.33075">
        <ele>89</ele>
        <time>2015-06-15T18:52:33.858Z</time>
      </trkpt>
      <trkpt lat="48.91607" lon="2.33071">
        <ele>89</ele>
        <time>2015-06-15T18:52:34.804Z</time>
      </trkpt>
      <trkpt lat="48.91612" lon="2.33066">
        <ele>88.8</ele>
        <time>2015-06-15T18:52:35.809Z</time>
      </trkpt>
      <trkpt lat="48.91617" lon="2.33061">
        <ele>88.6</ele>
        <time>2015-06-15T18:52:36.856Z</time>
      </trkpt>
      <trkpt lat="48.91621" lon="2.33056">
        <ele>88.6</ele>
        <time>2015-06-15T18:52:37.810Z</time>
      </trkpt>
      <trkpt lat="48.91626" lon="2.33051">
        <ele>88.9</ele>
        <time>2015-06-15T18:52:38.823Z</time>
      </trkpt>
      <trkpt lat="48.91631" lon="2.33046">
        <ele>88.8</ele>
        <time>2015-06-15T18:52:39.823Z</time>
      </trkpt>
      <trkpt lat="48.91635" lon="2.33044">
        <ele>88.7</ele>
        <time>2015-06-15T18:52:40.857Z</time>
      </trkpt>
      <trkpt lat="48.9164" lon="2.3304">
        <ele>88.7</ele>
        <time>2015-06-15T18:52:41.779Z</time>
      </trkpt>
      <trkpt lat="48.91645" lon="2.33036">
        <ele>89</ele>
        <time>2015-06-15T18:52:42.815Z</time>
      </trkpt>
      <trkpt lat="48.9165" lon="2.33034">
        <ele>89.3</ele>
        <time>2015-06-15T18:52:43.826Z</time>
      </trkpt>
      <trkpt lat="48.91655" lon="2.33031">
        <ele>89.2</ele>
        <time>2015-06-15T18:52:44.864Z</time>
      </trkpt>
      <trkpt lat="48.9166" lon="2.33028">
        <ele>89</ele>
        <time>2015-06-15T18:52:45.770Z</time>
      </trkpt>
      <trkpt lat="48.91664" lon="2.33024">
        <ele>88.8</ele>
        <time>2015-06-15T18:52:46.798Z</time>
      </trkpt>
      <trkpt lat="48.91669" lon="2.33021">
        <ele>88.5</ele>
        <time>2015-06-15T18:52:47.811Z</time>
      </trkpt>
      <trkpt lat="48.91674" lon="2.33018">
        <ele>88.4</ele>
        <time>2015-06-15T18:52:48.855Z</time>
      </trkpt>
      <trkpt lat="48.91679" lon="2.33015">
        <ele>88.2</ele>
        <time>2015-06-15T18:52:49.794Z</time>
      </trkpt>
      <trkpt lat="48.91684" lon="2.33011">
        <ele>88.3</ele>
        <time>2015-06-15T18:52:50.800Z</time>
      </trkpt>
      <trkpt lat="48.9169" lon="2.33009">
        <ele>88.5</ele>
        <time>2015-06-15T18:52:51.804Z</time>
      </trkpt>
      <trkpt lat="48.91695" lon="2.33005">
        <ele>88.4</ele>
        <time>2015-06-15T18:52:52.812Z</time>
      </trkpt>
      <trkpt lat="48.917" lon="2.33002">
        <ele>88.3</ele>
        <time>2015-06-15T18:52:53.825Z</time>
      </trkpt>
      <trkpt lat="48.91705" lon="2.33">
        <ele>88.1</ele>
        <time>2015-06-15T18:52:54.850Z</time>
      </trkpt>
      <trkpt lat="48.91711" lon="2.32997">
        <ele>88</ele>
        <time>2015-06-15T18:52:55.798Z</time>
      </trkpt>
      <trkpt lat="48.91717" lon="2.32995">
        <ele>87.8</ele>
        <time>2015-06-15T18:52:56.834Z</time>
      </trkpt>
      <trkpt lat="48.91722" lon="2.32992">
        <ele>87.6</ele>
        <time>2015-06-15T18:52:57.815Z</time>
      </trkpt>
      <trkpt lat="48.91728" lon="2.3299">
        <ele>87.1</ele>
        <time>2015-06-15T18:52:58.870Z</time>
      </trkpt>
      <trkpt lat="48.91733" lon="2.32988">
        <ele>87.3</ele>
        <time>2015-06-15T18:52:59.767Z</time>
      </trkpt>
      <trkpt lat="48.91739" lon="2.32985">
        <ele>87.3</ele>
        <time>2015-06-15T18:53:00.798Z</time>
      </trkpt>
      <trkpt lat="48.91745" lon="2.32983">
        <ele>87.1</ele>
        <time>2015-06-15T18:53:01.809Z</time>
      </trkpt>
      <trkpt lat="48.9175" lon="2.3298">
        <ele>86.9</ele>
        <time>2015-06-15T18:53:02.820Z</time>
      </trkpt>
      <trkpt lat="48.91756" lon="2.32978">
        <ele>87</ele>
        <time>2015-06-15T18:53:03.826Z</time>
      </trkpt>
      <trkpt lat="48.91761" lon="2.32976">
        <ele>87.1</ele>
        <time>2015-06-15T18:53:04.784Z</time>
      </trkpt>
      <trkpt lat="48.91766" lon="2.32974">
        <ele>87</ele>
        <time>2015-06-15T18:53:05.777Z</time>
      </trkpt>
      <trkpt lat="48.91771" lon="2.32972">
        <ele>86.8</ele>
        <time>2015-06-15T18:53:06.808Z</time>
      </trkpt>
      <trkpt lat="48.91775" lon="2.32971">
        <ele>86.5</ele>
        <time>2015-06-15T18:53:07.832Z</time>
      </trkpt>
      <trkpt lat="48.9178" lon="2.32969">
        <ele>86.3</ele>
        <time>2015-06-15T18:53:08.839Z</time>
      </trkpt>
      <trkpt lat="48.91784" lon="2.32968">
        <ele>86.2</ele>
        <time>2015-06-15T18:53:09.767Z</time>
      </trkpt>
      <trkpt lat="48.91789" lon="2.32967">
        <ele>86.1</ele>
        <time>2015-06-15T18:53:10.777Z</time>
      </trkpt>
      <trkpt lat="48.91793" lon="2.32966">
        <ele>86.3</ele>
        <time>2015-06-15T18:53:11.787Z</time>
      </trkpt>
      <trkpt lat="48.91798" lon="2.32965">
        <ele>86.4</ele>
        <time>2015-06-15T18:53:12.795Z</time>
      </trkpt>
      <trkpt lat="48.91803" lon="2.32965">
        <ele>86.6</ele>
        <time>2015-06-15T18:53:13.817Z</time>
      </trkpt>
      <trkpt lat="48.91812" lon="2.32962">
        <ele>86.8</ele>
        <time>2015-06-15T18:53:15.843Z</time>
      </trkpt>
      <trkpt lat="48.91815" lon="2.32959">
        <ele>86.8</ele>
        <time>2015-06-15T18:53:16.902Z</time>
      </trkpt>
      <trkpt lat="48.91821" lon="2.32952">
        <ele>86.3</ele>
        <time>2015-06-15T18:53:18.834Z</time>
      </trkpt>
      <trkpt lat="48.91824" lon="2.32948">
        <ele>86.3</ele>
        <time>2015-06-15T18:53:19.858Z</time>
      </trkpt>
      <trkpt lat="48.9183" lon="2.3294">
        <ele>86.5</ele>
        <time>2015-06-15T18:53:21.829Z</time>
      </trkpt>
      <trkpt lat="48.91832" lon="2.32936">
        <ele>86.5</ele>
        <time>2015-06-15T18:53:22.897Z</time>
      </trkpt>
      <trkpt lat="48.91838" lon="2.32928">
        <ele>86.3</ele>
        <time>2015-06-15T18:53:24.845Z</time>
      </trkpt>
      <trkpt lat="48.9184" lon="2.32923">
        <ele>86.1</ele>
        <time>2015-06-15T18:53:25.901Z</time>
      </trkpt>
      <trkpt lat="48.91846" lon="2.32915">
        <ele>85.8</ele>
        <time>2015-06-15T18:53:27.792Z</time>
      </trkpt>
      <trkpt lat="48.91849" lon="2.3291">
        <ele>86</ele>
        <time>2015-06-15T18:53:28.814Z</time>
      </trkpt>
      <trkpt lat="48.91855" lon="2.32901">
        <ele>86.4</ele>
        <time>2015-06-15T18:53:30.797Z</time>
      </trkpt>
      <trkpt lat="48.91858" lon="2.32896">
        <ele>86.5</ele>
        <time>2015-06-15T18:53:31.840Z</time>
      </trkpt>
      <trkpt lat="48.91864" lon="2.32888">
        <ele>87</ele>
        <time>2015-06-15T18:53:33.785Z</time>
      </trkpt>
      <trkpt lat="48.91867" lon="2.32884">
        <ele>87.1</ele>
        <time>2015-06-15T18:53:34.834Z</time>
      </trkpt>
      <trkpt lat="48.91872" lon="2.32876">
        <ele>87.2</ele>
        <time>2015-06-15T18:53:36.804Z</time>
      </trkpt>
      <trkpt lat="48.91875" lon="2.32871">
        <ele>87.2</ele>
        <time>2015-06-15T18:53:37.810Z</time>
      </trkpt>
      <trkpt lat="48.91881" lon="2.32861">
        <ele>86.9</ele>
        <time>2015-06-15T18:53:39.919Z</time>
      </trkpt>
      <trkpt lat="48.91884" lon="2.32857">
        <ele>86.8</ele>
        <time>2015-06-15T18:53:40.780Z</time>
      </trkpt>
      <trkpt lat="48.9189" lon="2.32847">
        <ele>87</ele>
        <time>2015-06-15T18:53:42.757Z</time>
      </trkpt>
      <trkpt lat="48.91893" lon="2.32842">
        <ele>87.1</ele>
        <time>2015-06-15T18:53:43.820Z</time>
      </trkpt>
      <trkpt lat="48.91896" lon="2.32837">
        <ele>87.4</ele>
        <time>2015-06-15T18:53:45.028Z</time>
      </trkpt>
      <trkpt lat="48.91899" lon="2.32832">
        <ele>87.5</ele>
        <time>2015-06-15T18:53:46.145Z</time>
      </trkpt>
      <trkpt lat="48.91903" lon="2.32826">
        <ele>87.7</ele>
        <time>2015-06-15T18:53:46.825Z</time>
      </trkpt>
      <trkpt lat="48.91906" lon="2.32821">
        <ele>87.8</ele>
        <time>2015-06-15T18:53:47.855Z</time>
      </trkpt>
      <trkpt lat="48.91912" lon="2.32811">
        <ele>88.4</ele>
        <time>2015-06-15T18:53:49.799Z</time>
      </trkpt>
      <trkpt lat="48.91915" lon="2.32806">
        <ele>88.5</ele>
        <time>2015-06-15T18:53:50.921Z</time>
      </trkpt>
      <trkpt lat="48.91918" lon="2.32802">
        <ele>88.7</ele>
        <time>2015-06-15T18:53:51.792Z</time>
      </trkpt>
      <trkpt lat="48.91922" lon="2.32797">
        <ele>89</ele>
        <time>2015-06-15T18:53:52.810Z</time>
      </trkpt>
      <trkpt lat="48.91926" lon="2.32792">
        <ele>89.4</ele>
        <time>2015-06-15T18:53:53.834Z</time>
      </trkpt>
      <trkpt lat="48.9193" lon="2.32788">
        <ele>89.5</ele>
        <time>2015-06-15T18:53:54.848Z</time>
      </trkpt>
      <trkpt lat="48.91933" lon="2.32783">
        <ele>89.8</ele>
        <time>2015-06-15T18:53:55.792Z</time>
      </trkpt>
      <trkpt lat="48.91936" lon="2.32777">
        <ele>90.1</ele>
        <time>2015-06-15T18:53:56.855Z</time>
      </trkpt>
      <trkpt lat="48.91942" lon="2.32769">
        <ele>90.5</ele>
        <time>2015-06-15T18:53:58.782Z</time>
      </trkpt>
      <trkpt lat="48.91945" lon="2.32765">
        <ele>90.7</ele>
        <time>2015-06-15T18:53:59.787Z</time>
      </trkpt>
      <trkpt lat="48.91951" lon="2.32756">
        <ele>91.7</ele>
        <time>2015-06-15T18:54:01.834Z</time>
      </trkpt>
      <trkpt lat="48.91956" lon="2.32751">
        <ele>91.8</ele>
        <time>2015-06-15T18:54:02.874Z</time>
      </trkpt>
      <trkpt lat="48.9196" lon="2.32747">
        <ele>91.7</ele>
        <time>2015-06-15T18:54:03.783Z</time>
      </trkpt>
      <trkpt lat="48.91964" lon="2.32743">
        <ele>92</ele>
        <time>2015-06-15T18:54:04.986Z</time>
      </trkpt>
      <trkpt lat="48.9197" lon="2.32734">
        <ele>92.5</ele>
        <time>2015-06-15T18:54:06.801Z</time>
      </trkpt>
      <trkpt lat="48.91974" lon="2.32728">
        <ele>92.6</ele>
        <time>2015-06-15T18:54:07.825Z</time>
      </trkpt>
      <trkpt lat="48.91977" lon="2.32721">
        <ele>92.8</ele>
        <time>2015-06-15T18:54:08.860Z</time>
      </trkpt>
      <trkpt lat="48.91981" lon="2.32715">
        <ele>92.8</ele>
        <time>2015-06-15T18:54:09.808Z</time>
      </trkpt>
      <trkpt lat="48.91984" lon="2.32708">
        <ele>92.8</ele>
        <time>2015-06-15T18:54:11.471Z</time>
      </trkpt>
      <trkpt lat="48.91987" lon="2.32703">
        <ele>93</ele>
        <time>2015-06-15T18:54:11.790Z</time>
      </trkpt>
      <trkpt lat="48.91989" lon="2.32694">
        <ele>92.6</ele>
        <time>2015-06-15T18:54:12.809Z</time>
      </trkpt>
      <trkpt lat="48.91991" lon="2.32685">
        <ele>92.4</ele>
        <time>2015-06-15T18:54:13.818Z</time>
      </trkpt>
      <trkpt lat="48.91993" lon="2.32677">
        <ele>92.1</ele>
        <time>2015-06-15T18:54:14.854Z</time>
      </trkpt>
      <trkpt lat="48.91995" lon="2.32668">
        <ele>92.2</ele>
        <time>2015-06-15T18:54:15.847Z</time>
      </trkpt>
      <trkpt lat="48.91998" lon="2.32661">
        <ele>92.5</ele>
        <time>2015-06-15T18:54:16.758Z</time>
      </trkpt>
      <trkpt lat="48.92003" lon="2.32655">
        <ele>92.6</ele>
        <time>2015-06-15T18:54:17.833Z</time>
      </trkpt>
      <trkpt lat="48.92008" lon="2.32649">
        <ele>92.3</ele>
        <time>2015-06-15T18:54:18.860Z</time>
      </trkpt>
      <trkpt lat="48.92015" lon="2.32644">
        <ele>91.3</ele>
        <time>2015-06-15T18:54:19.829Z</time>
      </trkpt>
      <trkpt lat="48.9202" lon="2.32637">
        <ele>90.7</ele>
        <time>2015-06-15T18:54:20.856Z</time>
      </trkpt>
      <trkpt lat="48.92024" lon="2.32631">
        <ele>90.5</ele>
        <time>2015-06-15T18:54:21.866Z</time>
      </trkpt>
      <trkpt lat="48.92028" lon="2.32624">
        <ele>90.6</ele>
        <time>2015-06-15T18:54:22.787Z</time>
      </trkpt>
      <trkpt lat="48.92032" lon="2.32618">
        <ele>90.8</ele>
        <time>2015-06-15T18:54:23.779Z</time>
      </trkpt>
      <trkpt lat="48.92036" lon="2.32613">
        <ele>90.8</ele>
        <time>2015-06-15T18:54:24.822Z</time>
      </trkpt>
      <trkpt lat="48.9204" lon="2.32608">
        <ele>90.6</ele>
        <time>2015-06-15T18:54:25.872Z</time>
      </trkpt>
      <trkpt lat="48.92044" lon="2.32604">
        <ele>90.5</ele>
        <time>2015-06-15T18:54:26.888Z</time>
      </trkpt>
      <trkpt lat="48.92047" lon="2.32599">
        <ele>90.3</ele>
        <time>2015-06-15T18:54:27.793Z</time>
      </trkpt>
      <trkpt lat="48.92051" lon="2.32594">
        <ele>90.2</ele>
        <time>2015-06-15T18:54:28.907Z</time>
      </trkpt>
      <trkpt lat="48.92054" lon="2.32589">
        <ele>90.1</ele>
        <time>2015-06-15T18:54:29.785Z</time>
      </trkpt>
      <trkpt lat="48.92061" lon="2.32581">
        <ele>90</ele>
        <time>2015-06-15T18:54:31.816Z</time>
      </trkpt>
      <trkpt lat="48.92064" lon="2.32577">
        <ele>89.8</ele>
        <time>2015-06-15T18:54:32.945Z</time>
      </trkpt>
      <trkpt lat="48.92071" lon="2.3257">
        <ele>89.4</ele>
        <time>2015-06-15T18:54:34.790Z</time>
      </trkpt>
      <trkpt lat="48.92074" lon="2.32566">
        <ele>89.4</ele>
        <time>2015-06-15T18:54:35.801Z</time>
      </trkpt>
      <trkpt lat="48.9208" lon="2.32559">
        <ele>89.6</ele>
        <time>2015-06-15T18:54:37.842Z</time>
      </trkpt>
      <trkpt lat="48.92084" lon="2.32555">
        <ele>89.7</ele>
        <time>2015-06-15T18:54:38.858Z</time>
      </trkpt>
      <trkpt lat="48.92089" lon="2.32545">
        <ele>89.6</ele>
        <time>2015-06-15T18:54:40.813Z</time>
      </trkpt>
      <trkpt lat="48.92092" lon="2.3254">
        <ele>89.5</ele>
        <time>2015-06-15T18:54:41.844Z</time>
      </trkpt>
      <trkpt lat="48.92098" lon="2.32532">
        <ele>88.9</ele>
        <time>2015-06-15T18:54:43.808Z</time>
      </trkpt>
      <trkpt lat="48.92101" lon="2.32527">
        <ele>88.9</ele>
        <time>2015-06-15T18:54:44.876Z</time>
      </trkpt>
      <trkpt lat="48.92104" lon="2.32522">
        <ele>88.7</ele>
        <time>2015-06-15T18:54:45.787Z</time>
      </trkpt>
      <trkpt lat="48.92108" lon="2.32518">
        <ele>88.7</ele>
        <time>2015-06-15T18:54:46.801Z</time>
      </trkpt>
      <trkpt lat="48.92111" lon="2.32513">
        <ele>88.8</ele>
        <time>2015-06-15T18:54:47.817Z</time>
      </trkpt>
      <trkpt lat="48.92115" lon="2.32508">
        <ele>88.9</ele>
        <time>2015-06-15T18:54:48.826Z</time>
      </trkpt>
      <trkpt lat="48.92122" lon="2.325">
        <ele>88.9</ele>
        <time>2015-06-15T18:54:50.848Z</time>
      </trkpt>
      <trkpt lat="48.92125" lon="2.32496">
        <ele>88.6</ele>
        <time>2015-06-15T18:54:51.849Z</time>
      </trkpt>
      <trkpt lat="48.92129" lon="2.3249">
        <ele>88.2</ele>
        <time>2015-06-15T18:54:52.865Z</time>
      </trkpt>
      <trkpt lat="48.92133" lon="2.32485">
        <ele>88.3</ele>
        <time>2015-06-15T18:54:53.827Z</time>
      </trkpt>
      <trkpt lat="48.92137" lon="2.32478">
        <ele>87.9</ele>
        <time>2015-06-15T18:54:54.843Z</time>
      </trkpt>
      <trkpt lat="48.92141" lon="2.32472">
        <ele>87.8</ele>
        <time>2015-06-15T18:54:55.856Z</time>
      </trkpt>
      <trkpt lat="48.92145" lon="2.32464">
        <ele>87.7</ele>
        <time>2015-06-15T18:54:56.888Z</time>
      </trkpt>
      <trkpt lat="48.92149" lon="2.32456">
        <ele>87.6</ele>
        <time>2015-06-15T18:54:57.841Z</time>
      </trkpt>
      <trkpt lat="48.92154" lon="2.32449">
        <ele>87.5</ele>
        <time>2015-06-15T18:54:58.811Z</time>
      </trkpt>
      <trkpt lat="48.92158" lon="2.32442">
        <ele>87.5</ele>
        <time>2015-06-15T18:54:59.824Z</time>
      </trkpt>
      <trkpt lat="48.92162" lon="2.32435">
        <ele>87.5</ele>
        <time>2015-06-15T18:55:00.828Z</time>
      </trkpt>
      <trkpt lat="48.92166" lon="2.32427">
        <ele>87.4</ele>
        <time>2015-06-15T18:55:01.836Z</time>
      </trkpt>
      <trkpt lat="48.9217" lon="2.32421">
        <ele>87.1</ele>
        <time>2015-06-15T18:55:02.899Z</time>
      </trkpt>
      <trkpt lat="48.92174" lon="2.32415">
        <ele>87.1</ele>
        <time>2015-06-15T18:55:03.820Z</time>
      </trkpt>
      <trkpt lat="48.92179" lon="2.32409">
        <ele>86.4</ele>
        <time>2015-06-15T18:55:04.796Z</time>
      </trkpt>
      <trkpt lat="48.92183" lon="2.32403">
        <ele>86.3</ele>
        <time>2015-06-15T18:55:05.826Z</time>
      </trkpt>
      <trkpt lat="48.92188" lon="2.32396">
        <ele>86.1</ele>
        <time>2015-06-15T18:55:06.840Z</time>
      </trkpt>
      <trkpt lat="48.92192" lon="2.3239">
        <ele>85.8</ele>
        <time>2015-06-15T18:55:07.845Z</time>
      </trkpt>
      <trkpt lat="48.92197" lon="2.32384">
        <ele>85.5</ele>
        <time>2015-06-15T18:55:08.894Z</time>
      </trkpt>
      <trkpt lat="48.92201" lon="2.32377">
        <ele>85.3</ele>
        <time>2015-06-15T18:55:09.868Z</time>
      </trkpt>
      <trkpt lat="48.92205" lon="2.32371">
        <ele>85.1</ele>
        <time>2015-06-15T18:55:10.891Z</time>
      </trkpt>
      <trkpt lat="48.92209" lon="2.32364">
        <ele>84.9</ele>
        <time>2015-06-15T18:55:11.917Z</time>
      </trkpt>
      <trkpt lat="48.92213" lon="2.32358">
        <ele>84.7</ele>
        <time>2015-06-15T18:55:12.918Z</time>
      </trkpt>
      <trkpt lat="48.92217" lon="2.32351">
        <ele>84.4</ele>
        <time>2015-06-15T18:55:13.964Z</time>
      </trkpt>
      <trkpt lat="48.92222" lon="2.32344">
        <ele>84.1</ele>
        <time>2015-06-15T18:55:15.002Z</time>
      </trkpt>
      <trkpt lat="48.92225" lon="2.32337">
        <ele>83.8</ele>
        <time>2015-06-15T18:55:15.915Z</time>
      </trkpt>
      <trkpt lat="48.92229" lon="2.3233">
        <ele>83.7</ele>
        <time>2015-06-15T18:55:16.928Z</time>
      </trkpt>
      <trkpt lat="48.92233" lon="2.32323">
        <ele>83.4</ele>
        <time>2015-06-15T18:55:17.955Z</time>
      </trkpt>
      <trkpt lat="48.92238" lon="2.32316">
        <ele>83.3</ele>
        <time>2015-06-15T18:55:19.020Z</time>
      </trkpt>
      <trkpt lat="48.92242" lon="2.32309">
        <ele>83.4</ele>
        <time>2015-06-15T18:55:19.980Z</time>
      </trkpt>
      <trkpt lat="48.92246" lon="2.32302">
        <ele>83.1</ele>
        <time>2015-06-15T18:55:20.989Z</time>
      </trkpt>
      <trkpt lat="48.9225" lon="2.32295">
        <ele>83.1</ele>
        <time>2015-06-15T18:55:21.911Z</time>
      </trkpt>
      <trkpt lat="48.92254" lon="2.32287">
        <ele>83.2</ele>
        <time>2015-06-15T18:55:22.880Z</time>
      </trkpt>
      <trkpt lat="48.92257" lon="2.32281">
        <ele>83.4</ele>
        <time>2015-06-15T18:55:23.907Z</time>
      </trkpt>
      <trkpt lat="48.92261" lon="2.32274">
        <ele>83.3</ele>
        <time>2015-06-15T18:55:24.912Z</time>
      </trkpt>
      <trkpt lat="48.92265" lon="2.32267">
        <ele>83.2</ele>
        <time>2015-06-15T18:55:25.918Z</time>
      </trkpt>
      <trkpt lat="48.92269" lon="2.3226">
        <ele>83.2</ele>
        <time>2015-06-15T18:55:26.938Z</time>
      </trkpt>
      <trkpt lat="48.92272" lon="2.32254">
        <ele>83</ele>
        <time>2015-06-15T18:55:27.953Z</time>
      </trkpt>
      <trkpt lat="48.92276" lon="2.32248">
        <ele>82.9</ele>
        <time>2015-06-15T18:55:28.966Z</time>
      </trkpt>
      <trkpt lat="48.92279" lon="2.32241">
        <ele>83</ele>
        <time>2015-06-15T18:55:29.970Z</time>
      </trkpt>
      <trkpt lat="48.92283" lon="2.32235">
        <ele>83</ele>
        <time>2015-06-15T18:55:30.979Z</time>
      </trkpt>
      <trkpt lat="48.92286" lon="2.3223">
        <ele>83</ele>
        <time>2015-06-15T18:55:31.906Z</time>
      </trkpt>
      <trkpt lat="48.9229" lon="2.32224">
        <ele>83.2</ele>
        <time>2015-06-15T18:55:33.052Z</time>
      </trkpt>
      <trkpt lat="48.92294" lon="2.32217">
        <ele>83.5</ele>
        <time>2015-06-15T18:55:33.902Z</time>
      </trkpt>
      <trkpt lat="48.92297" lon="2.3221">
        <ele>83.4</ele>
        <time>2015-06-15T18:55:34.918Z</time>
      </trkpt>
      <trkpt lat="48.923" lon="2.32203">
        <ele>83.4</ele>
        <time>2015-06-15T18:55:35.931Z</time>
      </trkpt>
      <trkpt lat="48.92304" lon="2.32196">
        <ele>83.1</ele>
        <time>2015-06-15T18:55:36.980Z</time>
      </trkpt>
      <trkpt lat="48.92307" lon="2.32189">
        <ele>82.8</ele>
        <time>2015-06-15T18:55:37.907Z</time>
      </trkpt>
      <trkpt lat="48.9231" lon="2.32182">
        <ele>82.8</ele>
        <time>2015-06-15T18:55:38.964Z</time>
      </trkpt>
      <trkpt lat="48.92313" lon="2.32176">
        <ele>83.1</ele>
        <time>2015-06-15T18:55:39.979Z</time>
      </trkpt>
      <trkpt lat="48.92317" lon="2.3217">
        <ele>83.3</ele>
        <time>2015-06-15T18:55:40.905Z</time>
      </trkpt>
      <trkpt lat="48.9232" lon="2.32164">
        <ele>83.4</ele>
        <time>2015-06-15T18:55:41.915Z</time>
      </trkpt>
      <trkpt lat="48.92322" lon="2.32158">
        <ele>83.5</ele>
        <time>2015-06-15T18:55:42.924Z</time>
      </trkpt>
      <trkpt lat="48.92325" lon="2.32153">
        <ele>83.5</ele>
        <time>2015-06-15T18:55:43.935Z</time>
      </trkpt>
      <trkpt lat="48.9233" lon="2.32142">
        <ele>83.7</ele>
        <time>2015-06-15T18:55:46.937Z</time>
      </trkpt>
      <trkpt lat="48.92331" lon="2.32141">
        <ele>83.6</ele>
        <time>2015-06-15T18:55:47.967Z</time>
      </trkpt>
      <trkpt lat="48.92335" lon="2.32131">
        <ele>83.5</ele>
        <time>2015-06-15T18:55:52.905Z</time>
      </trkpt>
      <trkpt lat="48.92336" lon="2.32128">
        <ele>83.3</ele>
        <time>2015-06-15T18:55:53.941Z</time>
      </trkpt>
      <trkpt lat="48.92339" lon="2.3212">
        <ele>83.6</ele>
        <time>2015-06-15T18:55:55.896Z</time>
      </trkpt>
      <trkpt lat="48.92341" lon="2.32117">
        <ele>83.8</ele>
        <time>2015-06-15T18:55:56.999Z</time>
      </trkpt>
      <trkpt lat="48.92346" lon="2.32109">
        <ele>83.8</ele>
        <time>2015-06-15T18:55:58.940Z</time>
      </trkpt>
      <trkpt lat="48.92349" lon="2.32104">
        <ele>83.7</ele>
        <time>2015-06-15T18:55:59.973Z</time>
      </trkpt>
      <trkpt lat="48.92352" lon="2.32098">
        <ele>83.3</ele>
        <time>2015-06-15T18:56:00.871Z</time>
      </trkpt>
      <trkpt lat="48.92355" lon="2.32093">
        <ele>83.2</ele>
        <time>2015-06-15T18:56:01.911Z</time>
      </trkpt>
      <trkpt lat="48.92358" lon="2.32088">
        <ele>83.2</ele>
        <time>2015-06-15T18:56:03.010Z</time>
      </trkpt>
      <trkpt lat="48.92361" lon="2.32083">
        <ele>82.5</ele>
        <time>2015-06-15T18:56:03.897Z</time>
      </trkpt>
      <trkpt lat="48.92364" lon="2.32077">
        <ele>82.5</ele>
        <time>2015-06-15T18:56:04.928Z</time>
      </trkpt>
      <trkpt lat="48.92367" lon="2.32071">
        <ele>82.2</ele>
        <time>2015-06-15T18:56:05.935Z</time>
      </trkpt>
      <trkpt lat="48.9237" lon="2.32064">
        <ele>82.2</ele>
        <time>2015-06-15T18:56:06.941Z</time>
      </trkpt>
      <trkpt lat="48.92373" lon="2.32058">
        <ele>82.1</ele>
        <time>2015-06-15T18:56:07.903Z</time>
      </trkpt>
      <trkpt lat="48.92376" lon="2.32051">
        <ele>81.8</ele>
        <time>2015-06-15T18:56:08.927Z</time>
      </trkpt>
      <trkpt lat="48.92379" lon="2.32046">
        <ele>81.8</ele>
        <time>2015-06-15T18:56:09.937Z</time>
      </trkpt>
      <trkpt lat="48.92382" lon="2.3204">
        <ele>81.7</ele>
        <time>2015-06-15T18:56:10.938Z</time>
      </trkpt>
      <trkpt lat="48.92386" lon="2.32034">
        <ele>81.6</ele>
        <time>2015-06-15T18:56:12.152Z</time>
      </trkpt>
      <trkpt lat="48.92389" lon="2.32028">
        <ele>81.5</ele>
        <time>2015-06-15T18:56:12.883Z</time>
      </trkpt>
      <trkpt lat="48.92392" lon="2.32021">
        <ele>81.4</ele>
        <time>2015-06-15T18:56:13.911Z</time>
      </trkpt>
      <trkpt lat="48.92395" lon="2.32015">
        <ele>81.6</ele>
        <time>2015-06-15T18:56:14.931Z</time>
      </trkpt>
      <trkpt lat="48.92398" lon="2.32009">
        <ele>81.6</ele>
        <time>2015-06-15T18:56:15.930Z</time>
      </trkpt>
      <trkpt lat="48.92401" lon="2.32002">
        <ele>81.7</ele>
        <time>2015-06-15T18:56:16.943Z</time>
      </trkpt>
      <trkpt lat="48.92404" lon="2.31995">
        <ele>81.8</ele>
        <time>2015-06-15T18:56:17.953Z</time>
      </trkpt>
      <trkpt lat="48.92408" lon="2.31989">
        <ele>81.6</ele>
        <time>2015-06-15T18:56:18.979Z</time>
      </trkpt>
      <trkpt lat="48.92411" lon="2.31982">
        <ele>81.7</ele>
        <time>2015-06-15T18:56:19.893Z</time>
      </trkpt>
      <trkpt lat="48.92415" lon="2.31976">
        <ele>81.7</ele>
        <time>2015-06-15T18:56:21.015Z</time>
      </trkpt>
      <trkpt lat="48.92418" lon="2.3197">
        <ele>81.8</ele>
        <time>2015-06-15T18:56:21.895Z</time>
      </trkpt>
      <trkpt lat="48.92422" lon="2.31963">
        <ele>81.6</ele>
        <time>2015-06-15T18:56:22.937Z</time>
      </trkpt>
      <trkpt lat="48.92426" lon="2.31957">
        <ele>81.6</ele>
        <time>2015-06-15T18:56:23.862Z</time>
      </trkpt>
      <trkpt lat="48.92429" lon="2.31951">
        <ele>81.7</ele>
        <time>2015-06-15T18:56:24.974Z</time>
      </trkpt>
      <trkpt lat="48.92433" lon="2.31945">
        <ele>81.9</ele>
        <time>2015-06-15T18:56:25.866Z</time>
      </trkpt>
      <trkpt lat="48.92436" lon="2.31939">
        <ele>82.1</ele>
        <time>2015-06-15T18:56:26.975Z</time>
      </trkpt>
      <trkpt lat="48.9244" lon="2.31933">
        <ele>82.1</ele>
        <time>2015-06-15T18:56:27.904Z</time>
      </trkpt>
      <trkpt lat="48.92443" lon="2.31926">
        <ele>81.7</ele>
        <time>2015-06-15T18:56:28.899Z</time>
      </trkpt>
      <trkpt lat="48.92446" lon="2.3192">
        <ele>81.4</ele>
        <time>2015-06-15T18:56:29.906Z</time>
      </trkpt>
      <trkpt lat="48.92449" lon="2.31913">
        <ele>81.8</ele>
        <time>2015-06-15T18:56:30.920Z</time>
      </trkpt>
      <trkpt lat="48.92452" lon="2.31906">
        <ele>82.3</ele>
        <time>2015-06-15T18:56:31.936Z</time>
      </trkpt>
      <trkpt lat="48.92454" lon="2.31898">
        <ele>82.6</ele>
        <time>2015-06-15T18:56:33.007Z</time>
      </trkpt>
      <trkpt lat="48.92457" lon="2.31891">
        <ele>82.7</ele>
        <time>2015-06-15T18:56:33.914Z</time>
      </trkpt>
      <trkpt lat="48.92461" lon="2.31884">
        <ele>82.6</ele>
        <time>2015-06-15T18:56:34.913Z</time>
      </trkpt>
      <trkpt lat="48.92465" lon="2.31878">
        <ele>82.5</ele>
        <time>2015-06-15T18:56:35.942Z</time>
      </trkpt>
      <trkpt lat="48.92469" lon="2.31872">
        <ele>82.5</ele>
        <time>2015-06-15T18:56:36.963Z</time>
      </trkpt>
      <trkpt lat="48.92472" lon="2.31866">
        <ele>82.4</ele>
        <time>2015-06-15T18:56:37.969Z</time>
      </trkpt>
      <trkpt lat="48.92476" lon="2.3186">
        <ele>81.9</ele>
        <time>2015-06-15T18:56:39.051Z</time>
      </trkpt>
      <trkpt lat="48.9248" lon="2.31854">
        <ele>81.4</ele>
        <time>2015-06-15T18:56:39.905Z</time>
      </trkpt>
      <trkpt lat="48.92484" lon="2.31847">
        <ele>81.3</ele>
        <time>2015-06-15T18:56:40.914Z</time>
      </trkpt>
      <trkpt lat="48.92488" lon="2.3184">
        <ele>81.2</ele>
        <time>2015-06-15T18:56:41.945Z</time>
      </trkpt>
      <trkpt lat="48.92491" lon="2.31833">
        <ele>81.5</ele>
        <time>2015-06-15T18:56:42.900Z</time>
      </trkpt>
      <trkpt lat="48.92495" lon="2.31826">
        <ele>81.4</ele>
        <time>2015-06-15T18:56:43.924Z</time>
      </trkpt>
      <trkpt lat="48.92498" lon="2.31819">
        <ele>81.4</ele>
        <time>2015-06-15T18:56:44.943Z</time>
      </trkpt>
      <trkpt lat="48.92502" lon="2.31813">
        <ele>81.4</ele>
        <time>2015-06-15T18:56:45.955Z</time>
      </trkpt>
      <trkpt lat="48.92506" lon="2.31806">
        <ele>81.3</ele>
        <time>2015-06-15T18:56:46.957Z</time>
      </trkpt>
      <trkpt lat="48.9251" lon="2.318">
        <ele>81.5</ele>
        <time>2015-06-15T18:56:47.962Z</time>
      </trkpt>
      <trkpt lat="48.92513" lon="2.31794">
        <ele>81.6</ele>
        <time>2015-06-15T18:56:48.894Z</time>
      </trkpt>
      <trkpt lat="48.92517" lon="2.31788">
        <ele>81.7</ele>
        <time>2015-06-15T18:56:49.895Z</time>
      </trkpt>
      <trkpt lat="48.92521" lon="2.31781">
        <ele>81.8</ele>
        <time>2015-06-15T18:56:50.982Z</time>
      </trkpt>
      <trkpt lat="48.92524" lon="2.31774">
        <ele>81.9</ele>
        <time>2015-06-15T18:56:51.940Z</time>
      </trkpt>
      <trkpt lat="48.92528" lon="2.31767">
        <ele>81.7</ele>
        <time>2015-06-15T18:56:52.944Z</time>
      </trkpt>
      <trkpt lat="48.92531" lon="2.3176">
        <ele>81.7</ele>
        <time>2015-06-15T18:56:53.865Z</time>
      </trkpt>
      <trkpt lat="48.92534" lon="2.31752">
        <ele>81.7</ele>
        <time>2015-06-15T18:56:54.899Z</time>
      </trkpt>
      <trkpt lat="48.92537" lon="2.31745">
        <ele>81.7</ele>
        <time>2015-06-15T18:56:55.926Z</time>
      </trkpt>
      <trkpt lat="48.92541" lon="2.31738">
        <ele>82.1</ele>
        <time>2015-06-15T18:56:56.956Z</time>
      </trkpt>
      <trkpt lat="48.92543" lon="2.31731">
        <ele>82.1</ele>
        <time>2015-06-15T18:56:57.951Z</time>
      </trkpt>
      <trkpt lat="48.92546" lon="2.31725">
        <ele>82.5</ele>
        <time>2015-06-15T18:56:58.961Z</time>
      </trkpt>
      <trkpt lat="48.92549" lon="2.31717">
        <ele>83.6</ele>
        <time>2015-06-15T18:56:59.979Z</time>
      </trkpt>
      <trkpt lat="48.92551" lon="2.31709">
        <ele>84.7</ele>
        <time>2015-06-15T18:57:00.873Z</time>
      </trkpt>
      <trkpt lat="48.92554" lon="2.31702">
        <ele>85.1</ele>
        <time>2015-06-15T18:57:01.912Z</time>
      </trkpt>
      <trkpt lat="48.92557" lon="2.31696">
        <ele>85</ele>
        <time>2015-06-15T18:57:03.007Z</time>
      </trkpt>
      <trkpt lat="48.92561" lon="2.3169">
        <ele>85.4</ele>
        <time>2015-06-15T18:57:03.907Z</time>
      </trkpt>
      <trkpt lat="48.92564" lon="2.31684">
        <ele>85.4</ele>
        <time>2015-06-15T18:57:04.904Z</time>
      </trkpt>
      <trkpt lat="48.92568" lon="2.31678">
        <ele>85.2</ele>
        <time>2015-06-15T18:57:05.909Z</time>
      </trkpt>
      <trkpt lat="48.92571" lon="2.31672">
        <ele>85.1</ele>
        <time>2015-06-15T18:57:06.931Z</time>
      </trkpt>
      <trkpt lat="48.92575" lon="2.31666">
        <ele>85.1</ele>
        <time>2015-06-15T18:57:07.962Z</time>
      </trkpt>
      <trkpt lat="48.92578" lon="2.3166">
        <ele>85</ele>
        <time>2015-06-15T18:57:08.971Z</time>
      </trkpt>
      <trkpt lat="48.92582" lon="2.31653">
        <ele>85.2</ele>
        <time>2015-06-15T18:57:09.973Z</time>
      </trkpt>
      <trkpt lat="48.92586" lon="2.31647">
        <ele>85.3</ele>
        <time>2015-06-15T18:57:10.982Z</time>
      </trkpt>
      <trkpt lat="48.92589" lon="2.31641">
        <ele>85.2</ele>
        <time>2015-06-15T18:57:11.929Z</time>
      </trkpt>
      <trkpt lat="48.92593" lon="2.31634">
        <ele>85.2</ele>
        <time>2015-06-15T18:57:12.908Z</time>
      </trkpt>
      <trkpt lat="48.92597" lon="2.31628">
        <ele>85.1</ele>
        <time>2015-06-15T18:57:13.940Z</time>
      </trkpt>
      <trkpt lat="48.926" lon="2.31621">
        <ele>85</ele>
        <time>2015-06-15T18:57:14.978Z</time>
      </trkpt>
      <trkpt lat="48.92604" lon="2.31615">
        <ele>85.1</ele>
        <time>2015-06-15T18:57:15.960Z</time>
      </trkpt>
      <trkpt lat="48.92608" lon="2.31609">
        <ele>85.1</ele>
        <time>2015-06-15T18:57:16.975Z</time>
      </trkpt>
      <trkpt lat="48.92611" lon="2.31602">
        <ele>85.1</ele>
        <time>2015-06-15T18:57:17.978Z</time>
      </trkpt>
      <trkpt lat="48.92615" lon="2.31596">
        <ele>85.2</ele>
        <time>2015-06-15T18:57:18.909Z</time>
      </trkpt>
      <trkpt lat="48.92618" lon="2.31589">
        <ele>85.3</ele>
        <time>2015-06-15T18:57:19.915Z</time>
      </trkpt>
      <trkpt lat="48.92622" lon="2.31582">
        <ele>85</ele>
        <time>2015-06-15T18:57:21.025Z</time>
      </trkpt>
      <trkpt lat="48.92626" lon="2.31575">
        <ele>84.7</ele>
        <time>2015-06-15T18:57:21.877Z</time>
      </trkpt>
      <trkpt lat="48.92629" lon="2.31568">
        <ele>84.2</ele>
        <time>2015-06-15T18:57:22.915Z</time>
      </trkpt>
      <trkpt lat="48.92632" lon="2.31561">
        <ele>83.5</ele>
        <time>2015-06-15T18:57:23.948Z</time>
      </trkpt>
      <trkpt lat="48.92636" lon="2.31553">
        <ele>83.2</ele>
        <time>2015-06-15T18:57:24.956Z</time>
      </trkpt>
      <trkpt lat="48.92639" lon="2.31547">
        <ele>83</ele>
        <time>2015-06-15T18:57:25.966Z</time>
      </trkpt>
      <trkpt lat="48.92643" lon="2.3154">
        <ele>82.9</ele>
        <time>2015-06-15T18:57:27.001Z</time>
      </trkpt>
      <trkpt lat="48.92646" lon="2.31533">
        <ele>83</ele>
        <time>2015-06-15T18:57:27.905Z</time>
      </trkpt>
      <trkpt lat="48.9265" lon="2.31526">
        <ele>83.2</ele>
        <time>2015-06-15T18:57:28.947Z</time>
      </trkpt>
      <trkpt lat="48.92653" lon="2.3152">
        <ele>83.5</ele>
        <time>2015-06-15T18:57:29.976Z</time>
      </trkpt>
      <trkpt lat="48.92657" lon="2.31514">
        <ele>83.6</ele>
        <time>2015-06-15T18:57:30.936Z</time>
      </trkpt>
      <trkpt lat="48.9266" lon="2.31507">
        <ele>83.8</ele>
        <time>2015-06-15T18:57:31.929Z</time>
      </trkpt>
      <trkpt lat="48.92663" lon="2.315">
        <ele>83.9</ele>
        <time>2015-06-15T18:57:33.033Z</time>
      </trkpt>
      <trkpt lat="48.92667" lon="2.31494">
        <ele>83.9</ele>
        <time>2015-06-15T18:57:33.903Z</time>
      </trkpt>
      <trkpt lat="48.9267" lon="2.31488">
        <ele>83.7</ele>
        <time>2015-06-15T18:57:34.904Z</time>
      </trkpt>
      <trkpt lat="48.92674" lon="2.31481">
        <ele>83.8</ele>
        <time>2015-06-15T18:57:35.927Z</time>
      </trkpt>
      <trkpt lat="48.92678" lon="2.31475">
        <ele>83.9</ele>
        <time>2015-06-15T18:57:36.952Z</time>
      </trkpt>
      <trkpt lat="48.92681" lon="2.31468">
        <ele>83.6</ele>
        <time>2015-06-15T18:57:37.959Z</time>
      </trkpt>
      <trkpt lat="48.92685" lon="2.31462">
        <ele>83.8</ele>
        <time>2015-06-15T18:57:38.971Z</time>
      </trkpt>
      <trkpt lat="48.92688" lon="2.31456">
        <ele>83.9</ele>
        <time>2015-06-15T18:57:39.979Z</time>
      </trkpt>
      <trkpt lat="48.92692" lon="2.31449">
        <ele>83.7</ele>
        <time>2015-06-15T18:57:40.905Z</time>
      </trkpt>
      <trkpt lat="48.92695" lon="2.31443">
        <ele>83.6</ele>
        <time>2015-06-15T18:57:41.909Z</time>
      </trkpt>
      <trkpt lat="48.92699" lon="2.31437">
        <ele>83.3</ele>
        <time>2015-06-15T18:57:42.906Z</time>
      </trkpt>
      <trkpt lat="48.92702" lon="2.3143">
        <ele>83.3</ele>
        <time>2015-06-15T18:57:43.931Z</time>
      </trkpt>
      <trkpt lat="48.92706" lon="2.31424">
        <ele>83.2</ele>
        <time>2015-06-15T18:57:44.974Z</time>
      </trkpt>
      <trkpt lat="48.92709" lon="2.31417">
        <ele>83.2</ele>
        <time>2015-06-15T18:57:45.980Z</time>
      </trkpt>
      <trkpt lat="48.92712" lon="2.31411">
        <ele>83.4</ele>
        <time>2015-06-15T18:57:46.915Z</time>
      </trkpt>
      <trkpt lat="48.92716" lon="2.31404">
        <ele>83.6</ele>
        <time>2015-06-15T18:57:47.925Z</time>
      </trkpt>
      <trkpt lat="48.92719" lon="2.31398">
        <ele>83.7</ele>
        <time>2015-06-15T18:57:48.950Z</time>
      </trkpt>
      <trkpt lat="48.92722" lon="2.31391">
        <ele>83.5</ele>
        <time>2015-06-15T18:57:49.961Z</time>
      </trkpt>
      <trkpt lat="48.92726" lon="2.31385">
        <ele>83.4</ele>
        <time>2015-06-15T18:57:50.988Z</time>
      </trkpt>
      <trkpt lat="48.92729" lon="2.31378">
        <ele>83.4</ele>
        <time>2015-06-15T18:57:51.916Z</time>
      </trkpt>
      <trkpt lat="48.92733" lon="2.31371">
        <ele>83.6</ele>
        <time>2015-06-15T18:57:52.914Z</time>
      </trkpt>
      <trkpt lat="48.92736" lon="2.31364">
        <ele>83.5</ele>
        <time>2015-06-15T18:57:53.922Z</time>
      </trkpt>
      <trkpt lat="48.9274" lon="2.31357">
        <ele>83.3</ele>
        <time>2015-06-15T18:57:54.948Z</time>
      </trkpt>
      <trkpt lat="48.92743" lon="2.3135">
        <ele>83.2</ele>
        <time>2015-06-15T18:57:55.950Z</time>
      </trkpt>
      <trkpt lat="48.92748" lon="2.31344">
        <ele>83</ele>
        <time>2015-06-15T18:57:57.002Z</time>
      </trkpt>
      <trkpt lat="48.92752" lon="2.31337">
        <ele>82.8</ele>
        <time>2015-06-15T18:57:57.916Z</time>
      </trkpt>
      <trkpt lat="48.92756" lon="2.31331">
        <ele>82.7</ele>
        <time>2015-06-15T18:57:58.936Z</time>
      </trkpt>
      <trkpt lat="48.92759" lon="2.31324">
        <ele>82.4</ele>
        <time>2015-06-15T18:57:59.948Z</time>
      </trkpt>
      <trkpt lat="48.92763" lon="2.31318">
        <ele>82.5</ele>
        <time>2015-06-15T18:58:00.956Z</time>
      </trkpt>
      <trkpt lat="48.92767" lon="2.31311">
        <ele>82.4</ele>
        <time>2015-06-15T18:58:01.997Z</time>
      </trkpt>
      <trkpt lat="48.92771" lon="2.31304">
        <ele>82.4</ele>
        <time>2015-06-15T18:58:03.022Z</time>
      </trkpt>
      <trkpt lat="48.92774" lon="2.31296">
        <ele>82.4</ele>
        <time>2015-06-15T18:58:03.935Z</time>
      </trkpt>
      <trkpt lat="48.92777" lon="2.31289">
        <ele>82.7</ele>
        <time>2015-06-15T18:58:04.966Z</time>
      </trkpt>
      <trkpt lat="48.92781" lon="2.31281">
        <ele>82.7</ele>
        <time>2015-06-15T18:58:05.965Z</time>
      </trkpt>
      <trkpt lat="48.92784" lon="2.31273">
        <ele>83.1</ele>
        <time>2015-06-15T18:58:06.920Z</time>
      </trkpt>
      <trkpt lat="48.92788" lon="2.31266">
        <ele>83.2</ele>
        <time>2015-06-15T18:58:07.918Z</time>
      </trkpt>
      <trkpt lat="48.92791" lon="2.31258">
        <ele>83.3</ele>
        <time>2015-06-15T18:58:08.945Z</time>
      </trkpt>
      <trkpt lat="48.92795" lon="2.31251">
        <ele>83.6</ele>
        <time>2015-06-15T18:58:09.979Z</time>
      </trkpt>
      <trkpt lat="48.92799" lon="2.31244">
        <ele>83.5</ele>
        <time>2015-06-15T18:58:10.920Z</time>
      </trkpt>
      <trkpt lat="48.92803" lon="2.31236">
        <ele>83.5</ele>
        <time>2015-06-15T18:58:11.901Z</time>
      </trkpt>
      <trkpt lat="48.92807" lon="2.31229">
        <ele>83.5</ele>
        <time>2015-06-15T18:58:12.910Z</time>
      </trkpt>
      <trkpt lat="48.9281" lon="2.31222">
        <ele>83</ele>
        <time>2015-06-15T18:58:13.928Z</time>
      </trkpt>
      <trkpt lat="48.92814" lon="2.31215">
        <ele>82.9</ele>
        <time>2015-06-15T18:58:15.076Z</time>
      </trkpt>
      <trkpt lat="48.92818" lon="2.3121">
        <ele>83.1</ele>
        <time>2015-06-15T18:58:15.938Z</time>
      </trkpt>
      <trkpt lat="48.92822" lon="2.31202">
        <ele>83.3</ele>
        <time>2015-06-15T18:58:16.919Z</time>
      </trkpt>
      <trkpt lat="48.92826" lon="2.31195">
        <ele>83.5</ele>
        <time>2015-06-15T18:58:17.930Z</time>
      </trkpt>
      <trkpt lat="48.92829" lon="2.31189">
        <ele>83.3</ele>
        <time>2015-06-15T18:58:18.950Z</time>
      </trkpt>
      <trkpt lat="48.92833" lon="2.31182">
        <ele>83.3</ele>
        <time>2015-06-15T18:58:19.961Z</time>
      </trkpt>
      <trkpt lat="48.92837" lon="2.31176">
        <ele>83.4</ele>
        <time>2015-06-15T18:58:20.996Z</time>
      </trkpt>
      <trkpt lat="48.9284" lon="2.31168">
        <ele>83.2</ele>
        <time>2015-06-15T18:58:21.937Z</time>
      </trkpt>
      <trkpt lat="48.92843" lon="2.31161">
        <ele>83</ele>
        <time>2015-06-15T18:58:22.946Z</time>
      </trkpt>
      <trkpt lat="48.92847" lon="2.31154">
        <ele>83.1</ele>
        <time>2015-06-15T18:58:23.962Z</time>
      </trkpt>
      <trkpt lat="48.9285" lon="2.31147">
        <ele>83.1</ele>
        <time>2015-06-15T18:58:24.970Z</time>
      </trkpt>
      <trkpt lat="48.92854" lon="2.31141">
        <ele>83.2</ele>
        <time>2015-06-15T18:58:25.978Z</time>
      </trkpt>
      <trkpt lat="48.92857" lon="2.31133">
        <ele>83.5</ele>
        <time>2015-06-15T18:58:27Z</time>
      </trkpt>
      <trkpt lat="48.92861" lon="2.31126">
        <ele>83.9</ele>
        <time>2015-06-15T18:58:27.898Z</time>
      </trkpt>
      <trkpt lat="48.92865" lon="2.31119">
        <ele>84</ele>
        <time>2015-06-15T18:58:29.027Z</time>
      </trkpt>
      <trkpt lat="48.92868" lon="2.31113">
        <ele>84.3</ele>
        <time>2015-06-15T18:58:29.931Z</time>
      </trkpt>
      <trkpt lat="48.92872" lon="2.31106">
        <ele>84.4</ele>
        <time>2015-06-15T18:58:30.962Z</time>
      </trkpt>
      <trkpt lat="48.92875" lon="2.31099">
        <ele>84.4</ele>
        <time>2015-06-15T18:58:31.968Z</time>
      </trkpt>
      <trkpt lat="48.92879" lon="2.31091">
        <ele>84.5</ele>
        <time>2015-06-15T18:58:33.016Z</time>
      </trkpt>
      <trkpt lat="48.92883" lon="2.31084">
        <ele>84.7</ele>
        <time>2015-06-15T18:58:33.902Z</time>
      </trkpt>
      <trkpt lat="48.92886" lon="2.31077">
        <ele>84.9</ele>
        <time>2015-06-15T18:58:34.925Z</time>
      </trkpt>
      <trkpt lat="48.9289" lon="2.31071">
        <ele>84.8</ele>
        <time>2015-06-15T18:58:35.941Z</time>
      </trkpt>
      <trkpt lat="48.92893" lon="2.31064">
        <ele>84.6</ele>
        <time>2015-06-15T18:58:36.954Z</time>
      </trkpt>
      <trkpt lat="48.92897" lon="2.31058">
        <ele>84.5</ele>
        <time>2015-06-15T18:58:37.974Z</time>
      </trkpt>
      <trkpt lat="48.929" lon="2.31051">
        <ele>84.5</ele>
        <time>2015-06-15T18:58:38.976Z</time>
      </trkpt>
      <trkpt lat="48.92904" lon="2.31044">
        <ele>84.8</ele>
        <time>2015-06-15T18:58:39.869Z</time>
      </trkpt>
      <trkpt lat="48.92907" lon="2.31038">
        <ele>84.7</ele>
        <time>2015-06-15T18:58:40.932Z</time>
      </trkpt>
      <trkpt lat="48.92911" lon="2.31031">
        <ele>84.8</ele>
        <time>2015-06-15T18:58:41.951Z</time>
      </trkpt>
      <trkpt lat="48.92915" lon="2.31025">
        <ele>84.7</ele>
        <time>2015-06-15T18:58:42.961Z</time>
      </trkpt>
      <trkpt lat="48.92919" lon="2.31017">
        <ele>84.5</ele>
        <time>2015-06-15T18:58:43.956Z</time>
      </trkpt>
      <trkpt lat="48.92923" lon="2.3101">
        <ele>85</ele>
        <time>2015-06-15T18:58:44.981Z</time>
      </trkpt>
      <trkpt lat="48.92927" lon="2.31004">
        <ele>84.9</ele>
        <time>2015-06-15T18:58:45.982Z</time>
      </trkpt>
      <trkpt lat="48.9293" lon="2.30996">
        <ele>84.8</ele>
        <time>2015-06-15T18:58:46.870Z</time>
      </trkpt>
      <trkpt lat="48.92934" lon="2.30989">
        <ele>85</ele>
        <time>2015-06-15T18:58:47.900Z</time>
      </trkpt>
      <trkpt lat="48.92937" lon="2.30981">
        <ele>85.4</ele>
        <time>2015-06-15T18:58:48.936Z</time>
      </trkpt>
      <trkpt lat="48.92941" lon="2.30974">
        <ele>85.7</ele>
        <time>2015-06-15T18:58:49.939Z</time>
      </trkpt>
      <trkpt lat="48.92944" lon="2.30968">
        <ele>85.7</ele>
        <time>2015-06-15T18:58:50.951Z</time>
      </trkpt>
      <trkpt lat="48.92947" lon="2.30962">
        <ele>85.7</ele>
        <time>2015-06-15T18:58:51.954Z</time>
      </trkpt>
      <trkpt lat="48.9295" lon="2.30955">
        <ele>85.6</ele>
        <time>2015-06-15T18:58:52.981Z</time>
      </trkpt>
      <trkpt lat="48.92953" lon="2.30949">
        <ele>85.7</ele>
        <time>2015-06-15T18:58:53.993Z</time>
      </trkpt>
      <trkpt lat="48.92956" lon="2.30943">
        <ele>85.6</ele>
        <time>2015-06-15T18:58:54.903Z</time>
      </trkpt>
      <trkpt lat="48.92958" lon="2.30936">
        <ele>85.4</ele>
        <time>2015-06-15T18:58:55.925Z</time>
      </trkpt>
      <trkpt lat="48.92963" lon="2.30926">
        <ele>85.5</ele>
        <time>2015-06-15T18:58:56.964Z</time>
      </trkpt>
      <trkpt lat="48.92966" lon="2.30919">
        <ele>85.8</ele>
        <time>2015-06-15T18:58:57.953Z</time>
      </trkpt>
      <trkpt lat="48.92971" lon="2.30911">
        <ele>85.5</ele>
        <time>2015-06-15T18:58:58.965Z</time>
      </trkpt>
      <trkpt lat="48.92975" lon="2.30905">
        <ele>85.2</ele>
        <time>2015-06-15T18:58:59.968Z</time>
      </trkpt>
      <trkpt lat="48.92979" lon="2.30897">
        <ele>85.5</ele>
        <time>2015-06-15T18:59:00.895Z</time>
      </trkpt>
      <trkpt lat="48.92983" lon="2.30891">
        <ele>85.7</ele>
        <time>2015-06-15T18:59:01.917Z</time>
      </trkpt>
      <trkpt lat="48.92987" lon="2.30884">
        <ele>85.6</ele>
        <time>2015-06-15T18:59:03.009Z</time>
      </trkpt>
      <trkpt lat="48.92991" lon="2.30878">
        <ele>85.3</ele>
        <time>2015-06-15T18:59:03.884Z</time>
      </trkpt>
      <trkpt lat="48.92994" lon="2.30871">
        <ele>85</ele>
        <time>2015-06-15T18:59:04.897Z</time>
      </trkpt>
      <trkpt lat="48.92998" lon="2.30864">
        <ele>84.9</ele>
        <time>2015-06-15T18:59:05.914Z</time>
      </trkpt>
      <trkpt lat="48.93001" lon="2.30857">
        <ele>85</ele>
        <time>2015-06-15T18:59:06.934Z</time>
      </trkpt>
      <trkpt lat="48.93004" lon="2.3085">
        <ele>85.4</ele>
        <time>2015-06-15T18:59:07.967Z</time>
      </trkpt>
      <trkpt lat="48.93007" lon="2.30842">
        <ele>85.5</ele>
        <time>2015-06-15T18:59:08.983Z</time>
      </trkpt>
      <trkpt lat="48.9301" lon="2.30835">
        <ele>85.7</ele>
        <time>2015-06-15T18:59:09.888Z</time>
      </trkpt>
      <trkpt lat="48.93013" lon="2.30828">
        <ele>85.7</ele>
        <time>2015-06-15T18:59:10.892Z</time>
      </trkpt>
      <trkpt lat="48.93017" lon="2.30822">
        <ele>85.8</ele>
        <time>2015-06-15T18:59:11.906Z</time>
      </trkpt>
      <trkpt lat="48.9302" lon="2.30815">
        <ele>85.8</ele>
        <time>2015-06-15T18:59:12.911Z</time>
      </trkpt>
      <trkpt lat="48.93024" lon="2.30808">
        <ele>85.8</ele>
        <time>2015-06-15T18:59:13.929Z</time>
      </trkpt>
      <trkpt lat="48.93027" lon="2.30801">
        <ele>86</ele>
        <time>2015-06-15T18:59:14.963Z</time>
      </trkpt>
      <trkpt lat="48.9303" lon="2.30794">
        <ele>86.1</ele>
        <time>2015-06-15T18:59:15.964Z</time>
      </trkpt>
      <trkpt lat="48.93033" lon="2.30787">
        <ele>86.3</ele>
        <time>2015-06-15T18:59:16.994Z</time>
      </trkpt>
      <trkpt lat="48.93037" lon="2.30781">
        <ele>86.2</ele>
        <time>2015-06-15T18:59:17.900Z</time>
      </trkpt>
      <trkpt lat="48.93041" lon="2.30775">
        <ele>86.3</ele>
        <time>2015-06-15T18:59:18.890Z</time>
      </trkpt>
      <trkpt lat="48.93044" lon="2.3077">
        <ele>86.4</ele>
        <time>2015-06-15T18:59:19.909Z</time>
      </trkpt>
      <trkpt lat="48.93048" lon="2.30764">
        <ele>86.4</ele>
        <time>2015-06-15T18:59:20.964Z</time>
      </trkpt>
      <trkpt lat="48.93052" lon="2.30758">
        <ele>86.2</ele>
        <time>2015-06-15T18:59:21.983Z</time>
      </trkpt>
      <trkpt lat="48.93056" lon="2.30752">
        <ele>85.9</ele>
        <time>2015-06-15T18:59:22.894Z</time>
      </trkpt>
      <trkpt lat="48.93059" lon="2.30746">
        <ele>85.7</ele>
        <time>2015-06-15T18:59:23.906Z</time>
      </trkpt>
      <trkpt lat="48.93063" lon="2.3074">
        <ele>85.7</ele>
        <time>2015-06-15T18:59:24.931Z</time>
      </trkpt>
      <trkpt lat="48.93067" lon="2.30733">
        <ele>85.7</ele>
        <time>2015-06-15T18:59:25.948Z</time>
      </trkpt>
      <trkpt lat="48.93071" lon="2.30726">
        <ele>85.7</ele>
        <time>2015-06-15T18:59:26.990Z</time>
      </trkpt>
      <trkpt lat="48.93074" lon="2.30719">
        <ele>85.5</ele>
        <time>2015-06-15T18:59:27.902Z</time>
      </trkpt>
      <trkpt lat="48.93078" lon="2.30713">
        <ele>85.3</ele>
        <time>2015-06-15T18:59:28.904Z</time>
      </trkpt>
      <trkpt lat="48.93081" lon="2.30706">
        <ele>85.2</ele>
        <time>2015-06-15T18:59:29.918Z</time>
      </trkpt>
      <trkpt lat="48.93084" lon="2.30698">
        <ele>85.3</ele>
        <time>2015-06-15T18:59:30.933Z</time>
      </trkpt>
      <trkpt lat="48.93087" lon="2.30692">
        <ele>85.3</ele>
        <time>2015-06-15T18:59:31.944Z</time>
      </trkpt>
      <trkpt lat="48.93091" lon="2.30685">
        <ele>85.1</ele>
        <time>2015-06-15T18:59:32.979Z</time>
      </trkpt>
      <trkpt lat="48.93094" lon="2.30677">
        <ele>85.1</ele>
        <time>2015-06-15T18:59:33.934Z</time>
      </trkpt>
      <trkpt lat="48.93098" lon="2.3067">
        <ele>85.4</ele>
        <time>2015-06-15T18:59:34.921Z</time>
      </trkpt>
      <trkpt lat="48.93101" lon="2.30663">
        <ele>85.5</ele>
        <time>2015-06-15T18:59:35.973Z</time>
      </trkpt>
      <trkpt lat="48.93105" lon="2.30655">
        <ele>85.8</ele>
        <time>2015-06-15T18:59:36.928Z</time>
      </trkpt>
      <trkpt lat="48.93109" lon="2.30648">
        <ele>86</ele>
        <time>2015-06-15T18:59:37.913Z</time>
      </trkpt>
      <trkpt lat="48.93113" lon="2.30641">
        <ele>85.9</ele>
        <time>2015-06-15T18:59:38.957Z</time>
      </trkpt>
      <trkpt lat="48.93117" lon="2.30634">
        <ele>85.9</ele>
        <time>2015-06-15T18:59:39.957Z</time>
      </trkpt>
      <trkpt lat="48.9312" lon="2.30627">
        <ele>85.7</ele>
        <time>2015-06-15T18:59:40.904Z</time>
      </trkpt>
      <trkpt lat="48.93124" lon="2.3062">
        <ele>85.6</ele>
        <time>2015-06-15T18:59:41.900Z</time>
      </trkpt>
      <trkpt lat="48.93127" lon="2.30613">
        <ele>85.8</ele>
        <time>2015-06-15T18:59:42.920Z</time>
      </trkpt>
      <trkpt lat="48.93131" lon="2.30606">
        <ele>86</ele>
        <time>2015-06-15T18:59:43.938Z</time>
      </trkpt>
      <trkpt lat="48.93134" lon="2.30598">
        <ele>86.1</ele>
        <time>2015-06-15T18:59:44.961Z</time>
      </trkpt>
      <trkpt lat="48.93138" lon="2.30592">
        <ele>86.1</ele>
        <time>2015-06-15T18:59:45.971Z</time>
      </trkpt>
      <trkpt lat="48.93142" lon="2.30586">
        <ele>86.1</ele>
        <time>2015-06-15T18:59:46.910Z</time>
      </trkpt>
      <trkpt lat="48.93146" lon="2.30579">
        <ele>86</ele>
        <time>2015-06-15T18:59:47.898Z</time>
      </trkpt>
      <trkpt lat="48.93149" lon="2.30573">
        <ele>86</ele>
        <time>2015-06-15T18:59:48.902Z</time>
      </trkpt>
      <trkpt lat="48.93153" lon="2.30566">
        <ele>85.8</ele>
        <time>2015-06-15T18:59:49.916Z</time>
      </trkpt>
      <trkpt lat="48.93156" lon="2.3056">
        <ele>85.7</ele>
        <time>2015-06-15T18:59:50.961Z</time>
      </trkpt>
      <trkpt lat="48.9316" lon="2.30555">
        <ele>85.7</ele>
        <time>2015-06-15T18:59:51.985Z</time>
      </trkpt>
      <trkpt lat="48.93164" lon="2.30549">
        <ele>85.5</ele>
        <time>2015-06-15T18:59:52.902Z</time>
      </trkpt>
      <trkpt lat="48.93168" lon="2.30544">
        <ele>85.2</ele>
        <time>2015-06-15T18:59:53.905Z</time>
      </trkpt>
      <trkpt lat="48.93171" lon="2.30538">
        <ele>85</ele>
        <time>2015-06-15T18:59:54.918Z</time>
      </trkpt>
      <trkpt lat="48.93175" lon="2.30533">
        <ele>85</ele>
        <time>2015-06-15T18:59:55.931Z</time>
      </trkpt>
      <trkpt lat="48.93179" lon="2.30527">
        <ele>85</ele>
        <time>2015-06-15T18:59:56.958Z</time>
      </trkpt>
      <trkpt lat="48.93182" lon="2.30522">
        <ele>84.7</ele>
        <time>2015-06-15T18:59:57.961Z</time>
      </trkpt>
      <trkpt lat="48.93186" lon="2.30516">
        <ele>84.7</ele>
        <time>2015-06-15T18:59:58.972Z</time>
      </trkpt>
      <trkpt lat="48.93189" lon="2.3051">
        <ele>84.7</ele>
        <time>2015-06-15T18:59:59.898Z</time>
      </trkpt>
      <trkpt lat="48.93193" lon="2.30505">
        <ele>84.6</ele>
        <time>2015-06-15T19:00:00.876Z</time>
      </trkpt>
      <trkpt lat="48.93195" lon="2.30499">
        <ele>84.9</ele>
        <time>2015-06-15T19:00:01.905Z</time>
      </trkpt>
      <trkpt lat="48.93199" lon="2.30493">
        <ele>84.9</ele>
        <time>2015-06-15T19:00:03.003Z</time>
      </trkpt>
      <trkpt lat="48.93202" lon="2.30486">
        <ele>84.9</ele>
        <time>2015-06-15T19:00:03.893Z</time>
      </trkpt>
      <trkpt lat="48.93205" lon="2.30479">
        <ele>85</ele>
        <time>2015-06-15T19:00:04.900Z</time>
      </trkpt>
      <trkpt lat="48.93209" lon="2.30474">
        <ele>85.2</ele>
        <time>2015-06-15T19:00:05.908Z</time>
      </trkpt>
      <trkpt lat="48.93212" lon="2.30468">
        <ele>85.4</ele>
        <time>2015-06-15T19:00:06.918Z</time>
      </trkpt>
      <trkpt lat="48.93216" lon="2.30462">
        <ele>85.7</ele>
        <time>2015-06-15T19:00:07.940Z</time>
      </trkpt>
      <trkpt lat="48.9322" lon="2.30456">
        <ele>86.1</ele>
        <time>2015-06-15T19:00:08.957Z</time>
      </trkpt>
      <trkpt lat="48.93225" lon="2.30451">
        <ele>86.3</ele>
        <time>2015-06-15T19:00:09.962Z</time>
      </trkpt>
      <trkpt lat="48.9323" lon="2.30447">
        <ele>86.3</ele>
        <time>2015-06-15T19:00:10.939Z</time>
      </trkpt>
      <trkpt lat="48.93236" lon="2.30446">
        <ele>86.4</ele>
        <time>2015-06-15T19:00:11.938Z</time>
      </trkpt>
      <trkpt lat="48.93241" lon="2.30445">
        <ele>86.3</ele>
        <time>2015-06-15T19:00:13.028Z</time>
      </trkpt>
      <trkpt lat="48.93246" lon="2.30444">
        <ele>86.4</ele>
        <time>2015-06-15T19:00:13.953Z</time>
      </trkpt>
      <trkpt lat="48.93252" lon="2.30443">
        <ele>86.4</ele>
        <time>2015-06-15T19:00:14.964Z</time>
      </trkpt>
      <trkpt lat="48.93258" lon="2.30442">
        <ele>86.5</ele>
        <time>2015-06-15T19:00:15.967Z</time>
      </trkpt>
      <trkpt lat="48.93263" lon="2.30441">
        <ele>86.9</ele>
        <time>2015-06-15T19:00:16.974Z</time>
      </trkpt>
      <trkpt lat="48.93267" lon="2.3044">
        <ele>87.5</ele>
        <time>2015-06-15T19:00:17.932Z</time>
      </trkpt>
      <trkpt lat="48.93276" lon="2.3044">
        <ele>89.2</ele>
        <time>2015-06-15T19:00:19.957Z</time>
      </trkpt>
      <trkpt lat="48.9328" lon="2.30439">
        <ele>89.8</ele>
        <time>2015-06-15T19:00:21Z</time>
      </trkpt>
      <trkpt lat="48.93288" lon="2.30435">
        <ele>90.4</ele>
        <time>2015-06-15T19:00:22.907Z</time>
      </trkpt>
      <trkpt lat="48.93292" lon="2.30434">
        <ele>90.3</ele>
        <time>2015-06-15T19:00:23.932Z</time>
      </trkpt>
      <trkpt lat="48.93299" lon="2.30434">
        <ele>91.7</ele>
        <time>2015-06-15T19:01:05.961Z</time>
      </trkpt>
      <trkpt lat="48.93316" lon="2.30446">
        <ele>93.4</ele>
        <time>2015-06-15T19:01:06.864Z</time>
      </trkpt>
      <trkpt lat="48.93318" lon="2.30452">
        <ele>93.4</ele>
        <time>2015-06-15T19:01:19.944Z</time>
      </trkpt>
      <trkpt lat="48.93328" lon="2.30449">
        <ele>98.3</ele>
        <time>2015-06-15T19:01:20.952Z</time>
      </trkpt>
      <trkpt lat="48.93331" lon="2.30438">
        <ele>99</ele>
        <time>2015-06-15T19:01:23.902Z</time>
      </trkpt>
      <trkpt lat="48.9333" lon="2.30433">
        <ele>99.3</ele>
        <time>2015-06-15T19:01:24.902Z</time>
      </trkpt>
      <trkpt lat="48.93329" lon="2.30422">
        <ele>99.4</ele>
        <time>2015-06-15T19:01:27.002Z</time>
      </trkpt>
      <trkpt lat="48.93329" lon="2.30417">
        <ele>99.4</ele>
        <time>2015-06-15T19:01:27.889Z</time>
      </trkpt>
      <trkpt lat="48.93327" lon="2.30406">
        <ele>99.4</ele>
        <time>2015-06-15T19:01:29.887Z</time>
      </trkpt>
      <trkpt lat="48.93327" lon="2.30401">
        <ele>99.6</ele>
        <time>2015-06-15T19:01:30.897Z</time>
      </trkpt>
      <trkpt lat="48.93327" lon="2.30391">
        <ele>100.1</ele>
        <time>2015-06-15T19:01:32.950Z</time>
      </trkpt>
      <trkpt lat="48.93326" lon="2.30386">
        <ele>100.3</ele>
        <time>2015-06-15T19:01:33.939Z</time>
      </trkpt>
      <trkpt lat="48.93325" lon="2.30375">
        <ele>99.9</ele>
        <time>2015-06-15T19:01:35.892Z</time>
      </trkpt>
      <trkpt lat="48.93325" lon="2.30369">
        <ele>100.1</ele>
        <time>2015-06-15T19:01:36.894Z</time>
      </trkpt>
      <trkpt lat="48.93325" lon="2.30358">
        <ele>100.5</ele>
        <time>2015-06-15T19:01:38.947Z</time>
      </trkpt>
      <trkpt lat="48.93324" lon="2.30353">
        <ele>100.9</ele>
        <time>2015-06-15T19:01:39.954Z</time>
      </trkpt>
      <trkpt lat="48.93323" lon="2.30341">
        <ele>101.6</ele>
        <time>2015-06-15T19:01:41.936Z</time>
      </trkpt>
      <trkpt lat="48.93323" lon="2.30335">
        <ele>102.1</ele>
        <time>2015-06-15T19:01:42.917Z</time>
      </trkpt>
      <trkpt lat="48.93321" lon="2.30324">
        <ele>102.7</ele>
        <time>2015-06-15T19:01:44.996Z</time>
      </trkpt>
      <trkpt lat="48.93321" lon="2.30319">
        <ele>103</ele>
        <time>2015-06-15T19:01:46.005Z</time>
      </trkpt>
      <trkpt lat="48.93321" lon="2.30308">
        <ele>104.2</ele>
        <time>2015-06-15T19:01:47.937Z</time>
      </trkpt>
      <trkpt lat="48.93323" lon="2.30303">
        <ele>103.5</ele>
        <time>2015-06-15T19:01:48.934Z</time>
      </trkpt>
      <trkpt lat="48.93325" lon="2.30291">
        <ele>103.8</ele>
        <time>2015-06-15T19:01:51.905Z</time>
      </trkpt>
      <trkpt lat="48.93325" lon="2.30286">
        <ele>104</ele>
        <time>2015-06-15T19:01:52.909Z</time>
      </trkpt>
      <trkpt lat="48.93327" lon="2.30277">
        <ele>103.5</ele>
        <time>2015-06-15T19:01:54.926Z</time>
      </trkpt>
      <trkpt lat="48.93328" lon="2.30273">
        <ele>103.6</ele>
        <time>2015-06-15T19:01:55.967Z</time>
      </trkpt>
      <trkpt lat="48.93335" lon="2.30269">
        <ele>100.1</ele>
        <time>2015-06-15T19:01:57.906Z</time>
      </trkpt>
      <trkpt lat="48.93338" lon="2.30269">
        <ele>98.9</ele>
        <time>2015-06-15T19:01:58.959Z</time>
      </trkpt>
      <trkpt lat="48.93346" lon="2.30271">
        <ele>97.6</ele>
        <time>2015-06-15T19:02:01.894Z</time>
      </trkpt>
      <trkpt lat="48.93348" lon="2.30273">
        <ele>97</ele>
        <time>2015-06-15T19:02:02.947Z</time>
      </trkpt>
      <trkpt lat="48.93356" lon="2.30269">
        <ele>94.2</ele>
        <time>2015-06-15T19:02:07.944Z</time>
      </trkpt>
      <trkpt lat="48.93358" lon="2.30268">
        <ele>94.2</ele>
        <time>2015-06-15T19:02:09.055Z</time>
      </trkpt>
      <trkpt lat="48.93367" lon="2.30269">
        <ele>93.9</ele>
        <time>2015-06-15T19:02:13.992Z</time>
      </trkpt>
      <trkpt lat="48.93369" lon="2.30269">
        <ele>93.6</ele>
        <time>2015-06-15T19:02:15.022Z</time>
      </trkpt>
      <trkpt lat="48.93377" lon="2.30271">
        <ele>93.8</ele>
        <time>2015-06-15T19:02:19.967Z</time>
      </trkpt>
      <trkpt lat="48.93379" lon="2.30272">
        <ele>93.9</ele>
        <time>2015-06-15T19:02:20.975Z</time>
      </trkpt>
      <trkpt lat="48.93387" lon="2.30275">
        <ele>95</ele>
        <time>2015-06-15T19:02:23.965Z</time>
      </trkpt>
      <trkpt lat="48.9339" lon="2.30277">
        <ele>94.9</ele>
        <time>2015-06-15T19:02:25.011Z</time>
      </trkpt>
      <trkpt lat="48.93396" lon="2.30284">
        <ele>93.8</ele>
        <time>2015-06-15T19:02:26.964Z</time>
      </trkpt>
      <trkpt lat="48.93399" lon="2.30287">
        <ele>93.1</ele>
        <time>2015-06-15T19:02:27.987Z</time>
      </trkpt>
      <trkpt lat="48.93406" lon="2.30293">
        <ele>92.3</ele>
        <time>2015-06-15T19:02:29.917Z</time>
      </trkpt>
      <trkpt lat="48.9341" lon="2.30295">
        <ele>91.9</ele>
        <time>2015-06-15T19:02:30.965Z</time>
      </trkpt>
      <trkpt lat="48.93416" lon="2.30299">
        <ele>90.9</ele>
        <time>2015-06-15T19:02:32.996Z</time>
      </trkpt>
      <trkpt lat="48.9342" lon="2.30301">
        <ele>90.6</ele>
        <time>2015-06-15T19:02:33.933Z</time>
      </trkpt>
      <trkpt lat="48.93426" lon="2.30306">
        <ele>90.4</ele>
        <time>2015-06-15T19:02:36.151Z</time>
      </trkpt>
      <trkpt lat="48.9343" lon="2.30307">
        <ele>89.8</ele>
        <time>2015-06-15T19:02:36.939Z</time>
      </trkpt>
      <trkpt lat="48.93438" lon="2.3031">
        <ele>89.7</ele>
        <time>2015-06-15T19:02:39.932Z</time>
      </trkpt>
      <trkpt lat="48.93441" lon="2.30311">
        <ele>89.9</ele>
        <time>2015-06-15T19:02:40.903Z</time>
      </trkpt>
      <trkpt lat="48.93449" lon="2.30313">
        <ele>89.3</ele>
        <time>2015-06-15T19:02:42.969Z</time>
      </trkpt>
      <trkpt lat="48.93453" lon="2.30314">
        <ele>89.2</ele>
        <time>2015-06-15T19:02:43.909Z</time>
      </trkpt>
      <trkpt lat="48.93457" lon="2.30315">
        <ele>89.3</ele>
        <time>2015-06-15T19:02:45.012Z</time>
      </trkpt>
      <trkpt lat="48.93462" lon="2.30316">
        <ele>89.6</ele>
        <time>2015-06-15T19:02:45.900Z</time>
      </trkpt>
      <trkpt lat="48.9347" lon="2.30317">
        <ele>89.8</ele>
        <time>2015-06-15T19:02:47.912Z</time>
      </trkpt>
      <trkpt lat="48.93474" lon="2.30318">
        <ele>89.9</ele>
        <time>2015-06-15T19:02:48.953Z</time>
      </trkpt>
      <trkpt lat="48.93481" lon="2.30323">
        <ele>89.7</ele>
        <time>2015-06-15T19:02:50.991Z</time>
      </trkpt>
      <trkpt lat="48.93485" lon="2.30327">
        <ele>89.5</ele>
        <time>2015-06-15T19:02:52.004Z</time>
      </trkpt>
      <trkpt lat="48.9349" lon="2.3033">
        <ele>89.4</ele>
        <time>2015-06-15T19:02:52.920Z</time>
      </trkpt>
      <trkpt lat="48.93494" lon="2.30332">
        <ele>89.3</ele>
        <time>2015-06-15T19:02:53.937Z</time>
      </trkpt>
      <trkpt lat="48.93499" lon="2.30336">
        <ele>89.4</ele>
        <time>2015-06-15T19:02:54.953Z</time>
      </trkpt>
      <trkpt lat="48.93504" lon="2.30338">
        <ele>89.7</ele>
        <time>2015-06-15T19:02:55.964Z</time>
      </trkpt>
      <trkpt lat="48.93509" lon="2.30342">
        <ele>89.6</ele>
        <time>2015-06-15T19:02:56.985Z</time>
      </trkpt>
      <trkpt lat="48.93514" lon="2.30345">
        <ele>89.8</ele>
        <time>2015-06-15T19:02:58.027Z</time>
      </trkpt>
      <trkpt lat="48.9352" lon="2.30348">
        <ele>90</ele>
        <time>2015-06-15T19:02:59.569Z</time>
      </trkpt>
      <trkpt lat="48.93524" lon="2.3035">
        <ele>90.4</ele>
        <time>2015-06-15T19:02:59.889Z</time>
      </trkpt>
      <trkpt lat="48.9353" lon="2.30353">
        <ele>90.7</ele>
        <time>2015-06-15T19:03:00.906Z</time>
      </trkpt>
      <trkpt lat="48.93537" lon="2.30355">
        <ele>90.9</ele>
        <time>2015-06-15T19:03:01.924Z</time>
      </trkpt>
      <trkpt lat="48.93542" lon="2.30358">
        <ele>90.9</ele>
        <time>2015-06-15T19:03:02.968Z</time>
      </trkpt>
      <trkpt lat="48.93549" lon="2.3036">
        <ele>91.2</ele>
        <time>2015-06-15T19:03:03.962Z</time>
      </trkpt>
      <trkpt lat="48.93556" lon="2.30362">
        <ele>91.5</ele>
        <time>2015-06-15T19:03:04.899Z</time>
      </trkpt>
      <trkpt lat="48.93562" lon="2.30364">
        <ele>91.6</ele>
        <time>2015-06-15T19:03:05.906Z</time>
      </trkpt>
      <trkpt lat="48.93568" lon="2.30368">
        <ele>92</ele>
        <time>2015-06-15T19:03:06.928Z</time>
      </trkpt>
      <trkpt lat="48.93574" lon="2.3037">
        <ele>92.3</ele>
        <time>2015-06-15T19:03:07.940Z</time>
      </trkpt>
      <trkpt lat="48.93581" lon="2.30372">
        <ele>92.4</ele>
        <time>2015-06-15T19:03:08.948Z</time>
      </trkpt>
      <trkpt lat="48.93587" lon="2.30374">
        <ele>92.4</ele>
        <time>2015-06-15T19:03:09.954Z</time>
      </trkpt>
      <trkpt lat="48.93593" lon="2.30375">
        <ele>92.4</ele>
        <time>2015-06-15T19:03:10.966Z</time>
      </trkpt>
      <trkpt lat="48.93598" lon="2.30378">
        <ele>92.5</ele>
        <time>2015-06-15T19:03:11.984Z</time>
      </trkpt>
      <trkpt lat="48.93602" lon="2.3038">
        <ele>92.7</ele>
        <time>2015-06-15T19:03:12.890Z</time>
      </trkpt>
      <trkpt lat="48.93607" lon="2.30382">
        <ele>92.5</ele>
        <time>2015-06-15T19:03:13.900Z</time>
      </trkpt>
      <trkpt lat="48.93613" lon="2.30384">
        <ele>92.5</ele>
        <time>2015-06-15T19:03:14.954Z</time>
      </trkpt>
      <trkpt lat="48.93618" lon="2.30386">
        <ele>92.5</ele>
        <time>2015-06-15T19:03:15.949Z</time>
      </trkpt>
      <trkpt lat="48.93624" lon="2.30387">
        <ele>92.3</ele>
        <time>2015-06-15T19:03:16.959Z</time>
      </trkpt>
      <trkpt lat="48.9363" lon="2.3039">
        <ele>92.1</ele>
        <time>2015-06-15T19:03:17.981Z</time>
      </trkpt>
      <trkpt lat="48.93637" lon="2.30392">
        <ele>91.3</ele>
        <time>2015-06-15T19:03:18.911Z</time>
      </trkpt>
      <trkpt lat="48.93644" lon="2.30394">
        <ele>90.1</ele>
        <time>2015-06-15T19:03:19.912Z</time>
      </trkpt>
      <trkpt lat="48.9365" lon="2.30396">
        <ele>89.8</ele>
        <time>2015-06-15T19:03:20.974Z</time>
      </trkpt>
      <trkpt lat="48.93658" lon="2.30398">
        <ele>89</ele>
        <time>2015-06-15T19:03:21.954Z</time>
      </trkpt>
      <trkpt lat="48.93664" lon="2.304">
        <ele>88.2</ele>
        <time>2015-06-15T19:03:22.988Z</time>
      </trkpt>
      <trkpt lat="48.93669" lon="2.30403">
        <ele>87.9</ele>
        <time>2015-06-15T19:03:23.969Z</time>
      </trkpt>
      <trkpt lat="48.93674" lon="2.30406">
        <ele>87.5</ele>
        <time>2015-06-15T19:03:24.894Z</time>
      </trkpt>
      <trkpt lat="48.93678" lon="2.30407">
        <ele>87.2</ele>
        <time>2015-06-15T19:03:25.906Z</time>
      </trkpt>
      <trkpt lat="48.93683" lon="2.3041">
        <ele>86.8</ele>
        <time>2015-06-15T19:03:26.959Z</time>
      </trkpt>
      <trkpt lat="48.93688" lon="2.30411">
        <ele>86.3</ele>
        <time>2015-06-15T19:03:27.956Z</time>
      </trkpt>
      <trkpt lat="48.93692" lon="2.30412">
        <ele>86.1</ele>
        <time>2015-06-15T19:03:28.967Z</time>
      </trkpt>
      <trkpt lat="48.93697" lon="2.30414">
        <ele>86</ele>
        <time>2015-06-15T19:03:29.974Z</time>
      </trkpt>
      <trkpt lat="48.93702" lon="2.30416">
        <ele>85.5</ele>
        <time>2015-06-15T19:03:30.899Z</time>
      </trkpt>
      <trkpt lat="48.93707" lon="2.30418">
        <ele>85.7</ele>
        <time>2015-06-15T19:03:31.897Z</time>
      </trkpt>
      <trkpt lat="48.93711" lon="2.30421">
        <ele>85.8</ele>
        <time>2015-06-15T19:03:32.977Z</time>
      </trkpt>
      <trkpt lat="48.93716" lon="2.30423">
        <ele>85.7</ele>
        <time>2015-06-15T19:03:33.966Z</time>
      </trkpt>
      <trkpt lat="48.93723" lon="2.30425">
        <ele>85.6</ele>
        <time>2015-06-15T19:03:35.903Z</time>
      </trkpt>
      <trkpt lat="48.93727" lon="2.30427">
        <ele>85.9</ele>
        <time>2015-06-15T19:03:36.961Z</time>
      </trkpt>
      <trkpt lat="48.93734" lon="2.3043">
        <ele>86.3</ele>
        <time>2015-06-15T19:03:39.015Z</time>
      </trkpt>
      <trkpt lat="48.93738" lon="2.30431">
        <ele>86.5</ele>
        <time>2015-06-15T19:03:39.934Z</time>
      </trkpt>
      <trkpt lat="48.93743" lon="2.30432">
        <ele>86.3</ele>
        <time>2015-06-15T19:03:40.934Z</time>
      </trkpt>
      <trkpt lat="48.93747" lon="2.30432">
        <ele>86.2</ele>
        <time>2015-06-15T19:03:41.944Z</time>
      </trkpt>
      <trkpt lat="48.93752" lon="2.30434">
        <ele>85.2</ele>
        <time>2015-06-15T19:03:42.962Z</time>
      </trkpt>
      <trkpt lat="48.93757" lon="2.30436">
        <ele>84.5</ele>
        <time>2015-06-15T19:03:44.140Z</time>
      </trkpt>
      <trkpt lat="48.93765" lon="2.30437">
        <ele>83.6</ele>
        <time>2015-06-15T19:03:45.904Z</time>
      </trkpt>
      <trkpt lat="48.9377" lon="2.30439">
        <ele>83</ele>
        <time>2015-06-15T19:03:46.938Z</time>
      </trkpt>
      <trkpt lat="48.93777" lon="2.30442">
        <ele>82</ele>
        <time>2015-06-15T19:03:48.906Z</time>
      </trkpt>
      <trkpt lat="48.93781" lon="2.30443">
        <ele>82</ele>
        <time>2015-06-15T19:03:49.911Z</time>
      </trkpt>
      <trkpt lat="48.9379" lon="2.30443">
        <ele>81.8</ele>
        <time>2015-06-15T19:03:51.991Z</time>
      </trkpt>
      <trkpt lat="48.93794" lon="2.30443">
        <ele>81.9</ele>
        <time>2015-06-15T19:03:52.934Z</time>
      </trkpt>
      <trkpt lat="48.93803" lon="2.30442">
        <ele>81.9</ele>
        <time>2015-06-15T19:03:54.946Z</time>
      </trkpt>
      <trkpt lat="48.93807" lon="2.30441">
        <ele>81.7</ele>
        <time>2015-06-15T19:03:55.978Z</time>
      </trkpt>
      <trkpt lat="48.93814" lon="2.30441">
        <ele>81.3</ele>
        <time>2015-06-15T19:03:57.917Z</time>
      </trkpt>
      <trkpt lat="48.93818" lon="2.30441">
        <ele>81.5</ele>
        <time>2015-06-15T19:03:58.970Z</time>
      </trkpt>
      <trkpt lat="48.93826" lon="2.3044">
        <ele>81.8</ele>
        <time>2015-06-15T19:04:00.932Z</time>
      </trkpt>
      <trkpt lat="48.9383" lon="2.3044">
        <ele>82</ele>
        <time>2015-06-15T19:04:01.915Z</time>
      </trkpt>
      <trkpt lat="48.93838" lon="2.30439">
        <ele>82.4</ele>
        <time>2015-06-15T19:04:03.999Z</time>
      </trkpt>
      <trkpt lat="48.93842" lon="2.30438">
        <ele>82.3</ele>
        <time>2015-06-15T19:04:04.915Z</time>
      </trkpt>
      <trkpt lat="48.93849" lon="2.30436">
        <ele>82.8</ele>
        <time>2015-06-15T19:04:06.576Z</time>
      </trkpt>
      <trkpt lat="48.93852" lon="2.30436">
        <ele>82.9</ele>
        <time>2015-06-15T19:04:07.967Z</time>
      </trkpt>
      <trkpt lat="48.9386" lon="2.30435">
        <ele>83</ele>
        <time>2015-06-15T19:04:09.915Z</time>
      </trkpt>
      <trkpt lat="48.93865" lon="2.30435">
        <ele>83</ele>
        <time>2015-06-15T19:04:10.937Z</time>
      </trkpt>
      <trkpt lat="48.93869" lon="2.30435">
        <ele>83.2</ele>
        <time>2015-06-15T19:04:12.147Z</time>
      </trkpt>
      <trkpt lat="48.93874" lon="2.30435">
        <ele>83.5</ele>
        <time>2015-06-15T19:04:12.954Z</time>
      </trkpt>
      <trkpt lat="48.93883" lon="2.30434">
        <ele>83.3</ele>
        <time>2015-06-15T19:04:14.977Z</time>
      </trkpt>
      <trkpt lat="48.93886" lon="2.30433">
        <ele>83.5</ele>
        <time>2015-06-15T19:04:16.099Z</time>
      </trkpt>
      <trkpt lat="48.93894" lon="2.30433">
        <ele>83.6</ele>
        <time>2015-06-15T19:04:17.930Z</time>
      </trkpt>
      <trkpt lat="48.93898" lon="2.30432">
        <ele>83.7</ele>
        <time>2015-06-15T19:04:18.957Z</time>
      </trkpt>
      <trkpt lat="48.93905" lon="2.30433">
        <ele>83.1</ele>
        <time>2015-06-15T19:04:21.024Z</time>
      </trkpt>
      <trkpt lat="48.93909" lon="2.30434">
        <ele>83</ele>
        <time>2015-06-15T19:04:22.005Z</time>
      </trkpt>
      <trkpt lat="48.93915" lon="2.30433">
        <ele>82.7</ele>
        <time>2015-06-15T19:04:23.874Z</time>
      </trkpt>
      <trkpt lat="48.93918" lon="2.30433">
        <ele>82.5</ele>
        <time>2015-06-15T19:04:24.885Z</time>
      </trkpt>
      <trkpt lat="48.93926" lon="2.30432">
        <ele>82.3</ele>
        <time>2015-06-15T19:04:27.910Z</time>
      </trkpt>
      <trkpt lat="48.93929" lon="2.30432">
        <ele>82.4</ele>
        <time>2015-06-15T19:04:28.914Z</time>
      </trkpt>
      <trkpt lat="48.93937" lon="2.30429">
        <ele>82.6</ele>
        <time>2015-06-15T19:04:31.950Z</time>
      </trkpt>
      <trkpt lat="48.9394" lon="2.30429">
        <ele>82.5</ele>
        <time>2015-06-15T19:04:32.997Z</time>
      </trkpt>
      <trkpt lat="48.93947" lon="2.30429">
        <ele>82.5</ele>
        <time>2015-06-15T19:04:36.120Z</time>
      </trkpt>
      <trkpt lat="48.93949" lon="2.30428">
        <ele>82.6</ele>
        <time>2015-06-15T19:04:36.911Z</time>
      </trkpt>
      <trkpt lat="48.93957" lon="2.30426">
        <ele>83.1</ele>
        <time>2015-06-15T19:04:39.963Z</time>
      </trkpt>
      <trkpt lat="48.93959" lon="2.30425">
        <ele>83.1</ele>
        <time>2015-06-15T19:04:40.980Z</time>
      </trkpt>
      <trkpt lat="48.93967" lon="2.30422">
        <ele>83.2</ele>
        <time>2015-06-15T19:04:43.912Z</time>
      </trkpt>
      <trkpt lat="48.9397" lon="2.30421">
        <ele>83.2</ele>
        <time>2015-06-15T19:04:45.006Z</time>
      </trkpt>
      <trkpt lat="48.93974" lon="2.30412">
        <ele>82.7</ele>
        <time>2015-06-15T19:04:48.929Z</time>
      </trkpt>
      <trkpt lat="48.93975" lon="2.30409">
        <ele>82.8</ele>
        <time>2015-06-15T19:04:49.938Z</time>
      </trkpt>
      <trkpt lat="48.93979" lon="2.30397">
        <ele>82.9</ele>
        <time>2015-06-15T19:04:53.886Z</time>
      </trkpt>
      <trkpt lat="48.9398" lon="2.30393">
        <ele>83</ele>
        <time>2015-06-15T19:04:54.920Z</time>
      </trkpt>
      <trkpt lat="48.93984" lon="2.30384">
        <ele>83.4</ele>
        <time>2015-06-15T19:04:57.020Z</time>
      </trkpt>
      <trkpt lat="48.93986" lon="2.30381">
        <ele>83.8</ele>
        <time>2015-06-15T19:04:57.919Z</time>
      </trkpt>
      <trkpt lat="48.93992" lon="2.30373">
        <ele>84.2</ele>
        <time>2015-06-15T19:05:00.983Z</time>
      </trkpt>
      <trkpt lat="48.93992" lon="2.30371">
        <ele>84.4</ele>
        <time>2015-06-15T19:05:02Z</time>
      </trkpt>
      <trkpt lat="48.93992" lon="2.30363">
        <ele>84.4</ele>
        <time>2015-06-15T19:05:04.960Z</time>
      </trkpt>
      <trkpt lat="48.93992" lon="2.30357">
        <ele>84.5</ele>
        <time>2015-06-15T19:05:05.919Z</time>
      </trkpt>
      <trkpt lat="48.93992" lon="2.30346">
        <ele>84.6</ele>
        <time>2015-06-15T19:05:07.974Z</time>
      </trkpt>
      <trkpt lat="48.93992" lon="2.30341">
        <ele>84.5</ele>
        <time>2015-06-15T19:05:09.009Z</time>
      </trkpt>
      <trkpt lat="48.9399" lon="2.30332">
        <ele>84.4</ele>
        <time>2015-06-15T19:05:10.919Z</time>
      </trkpt>
      <trkpt lat="48.93989" lon="2.30327">
        <ele>84.3</ele>
        <time>2015-06-15T19:05:12.006Z</time>
      </trkpt>
      <trkpt lat="48.93988" lon="2.30317">
        <ele>84.8</ele>
        <time>2015-06-15T19:05:13.997Z</time>
      </trkpt>
      <trkpt lat="48.93987" lon="2.30312">
        <ele>85</ele>
        <time>2015-06-15T19:05:15.024Z</time>
      </trkpt>
      <trkpt lat="48.93986" lon="2.30301">
        <ele>85.4</ele>
        <time>2015-06-15T19:05:16.942Z</time>
      </trkpt>
      <trkpt lat="48.93986" lon="2.30296">
        <ele>85.8</ele>
        <time>2015-06-15T19:05:17.963Z</time>
      </trkpt>
      <trkpt lat="48.93985" lon="2.30285">
        <ele>86.5</ele>
        <time>2015-06-15T19:05:20.070Z</time>
      </trkpt>
      <trkpt lat="48.93984" lon="2.3028">
        <ele>86.7</ele>
        <time>2015-06-15T19:05:20.982Z</time>
      </trkpt>
      <trkpt lat="48.93983" lon="2.30268">
        <ele>87.8</ele>
        <time>2015-06-15T19:05:22.884Z</time>
      </trkpt>
      <trkpt lat="48.93983" lon="2.30262">
        <ele>88.2</ele>
        <time>2015-06-15T19:05:23.916Z</time>
      </trkpt>
      <trkpt lat="48.93983" lon="2.30251">
        <ele>87.8</ele>
        <time>2015-06-15T19:05:25.949Z</time>
      </trkpt>
      <trkpt lat="48.93984" lon="2.30245">
        <ele>87.8</ele>
        <time>2015-06-15T19:05:26.996Z</time>
      </trkpt>
      <trkpt lat="48.93984" lon="2.30233">
        <ele>87.5</ele>
        <time>2015-06-15T19:05:28.904Z</time>
      </trkpt>
      <trkpt lat="48.93984" lon="2.30227">
        <ele>87.1</ele>
        <time>2015-06-15T19:05:29.903Z</time>
      </trkpt>
      <trkpt lat="48.93985" lon="2.3022">
        <ele>87.1</ele>
        <time>2015-06-15T19:05:30.985Z</time>
      </trkpt>
      <trkpt lat="48.93986" lon="2.30213">
        <ele>86.7</ele>
        <time>2015-06-15T19:05:31.991Z</time>
      </trkpt>
      <trkpt lat="48.93986" lon="2.30206">
        <ele>86.2</ele>
        <time>2015-06-15T19:05:33.013Z</time>
      </trkpt>
      <trkpt lat="48.93988" lon="2.30198">
        <ele>85.9</ele>
        <time>2015-06-15T19:05:33.911Z</time>
      </trkpt>
      <trkpt lat="48.93989" lon="2.30191">
        <ele>85.7</ele>
        <time>2015-06-15T19:05:34.979Z</time>
      </trkpt>
      <trkpt lat="48.93989" lon="2.30182">
        <ele>85.5</ele>
        <time>2015-06-15T19:05:35.988Z</time>
      </trkpt>
      <trkpt lat="48.9399" lon="2.30174">
        <ele>85.3</ele>
        <time>2015-06-15T19:05:36.995Z</time>
      </trkpt>
      <trkpt lat="48.93992" lon="2.30166">
        <ele>85.3</ele>
        <time>2015-06-15T19:05:37.916Z</time>
      </trkpt>
      <trkpt lat="48.93994" lon="2.30157">
        <ele>85.1</ele>
        <time>2015-06-15T19:05:39.014Z</time>
      </trkpt>
      <trkpt lat="48.93996" lon="2.30149">
        <ele>84.8</ele>
        <time>2015-06-15T19:05:39.910Z</time>
      </trkpt>
      <trkpt lat="48.93998" lon="2.3014">
        <ele>84.7</ele>
        <time>2015-06-15T19:05:41.072Z</time>
      </trkpt>
      <trkpt lat="48.94" lon="2.30131">
        <ele>84.5</ele>
        <time>2015-06-15T19:05:41.929Z</time>
      </trkpt>
      <trkpt lat="48.94001" lon="2.30121">
        <ele>84.4</ele>
        <time>2015-06-15T19:05:42.979Z</time>
      </trkpt>
      <trkpt lat="48.94003" lon="2.30112">
        <ele>84.3</ele>
        <time>2015-06-15T19:05:43.905Z</time>
      </trkpt>
      <trkpt lat="48.94005" lon="2.30103">
        <ele>84.3</ele>
        <time>2015-06-15T19:05:45.065Z</time>
      </trkpt>
      <trkpt lat="48.94007" lon="2.30095">
        <ele>84</ele>
        <time>2015-06-15T19:05:45.974Z</time>
      </trkpt>
      <trkpt lat="48.94008" lon="2.30087">
        <ele>83.8</ele>
        <time>2015-06-15T19:05:46.896Z</time>
      </trkpt>
      <trkpt lat="48.9401" lon="2.30078">
        <ele>83.8</ele>
        <time>2015-06-15T19:05:47.927Z</time>
      </trkpt>
      <trkpt lat="48.94012" lon="2.3007">
        <ele>83.7</ele>
        <time>2015-06-15T19:05:48.910Z</time>
      </trkpt>
      <trkpt lat="48.94013" lon="2.30063">
        <ele>83.4</ele>
        <time>2015-06-15T19:05:49.921Z</time>
      </trkpt>
      <trkpt lat="48.94015" lon="2.30055">
        <ele>83.3</ele>
        <time>2015-06-15T19:05:50.964Z</time>
      </trkpt>
      <trkpt lat="48.94016" lon="2.30048">
        <ele>83.4</ele>
        <time>2015-06-15T19:05:51.956Z</time>
      </trkpt>
      <trkpt lat="48.94018" lon="2.3004">
        <ele>83.4</ele>
        <time>2015-06-15T19:05:52.908Z</time>
      </trkpt>
      <trkpt lat="48.9402" lon="2.30033">
        <ele>83.2</ele>
        <time>2015-06-15T19:05:53.896Z</time>
      </trkpt>
      <trkpt lat="48.94022" lon="2.30026">
        <ele>83.1</ele>
        <time>2015-06-15T19:05:54.949Z</time>
      </trkpt>
      <trkpt lat="48.94024" lon="2.30018">
        <ele>82.3</ele>
        <time>2015-06-15T19:05:55.954Z</time>
      </trkpt>
      <trkpt lat="48.94025" lon="2.30011">
        <ele>82.4</ele>
        <time>2015-06-15T19:05:56.965Z</time>
      </trkpt>
      <trkpt lat="48.94027" lon="2.30004">
        <ele>82.7</ele>
        <time>2015-06-15T19:05:57.956Z</time>
      </trkpt>
      <trkpt lat="48.94029" lon="2.29996">
        <ele>83</ele>
        <time>2015-06-15T19:05:58.947Z</time>
      </trkpt>
      <trkpt lat="48.9403" lon="2.2999">
        <ele>82.9</ele>
        <time>2015-06-15T19:05:59.963Z</time>
      </trkpt>
      <trkpt lat="48.94032" lon="2.29983">
        <ele>82.6</ele>
        <time>2015-06-15T19:06:00.913Z</time>
      </trkpt>
      <trkpt lat="48.94033" lon="2.29976">
        <ele>82.6</ele>
        <time>2015-06-15T19:06:01.914Z</time>
      </trkpt>
      <trkpt lat="48.94036" lon="2.29969">
        <ele>82.5</ele>
        <time>2015-06-15T19:06:03.022Z</time>
      </trkpt>
      <trkpt lat="48.94037" lon="2.29962">
        <ele>82.3</ele>
        <time>2015-06-15T19:06:03.899Z</time>
      </trkpt>
      <trkpt lat="48.9404" lon="2.29956">
        <ele>82</ele>
        <time>2015-06-15T19:06:04.905Z</time>
      </trkpt>
      <trkpt lat="48.94041" lon="2.29949">
        <ele>81.9</ele>
        <time>2015-06-15T19:06:05.918Z</time>
      </trkpt>
      <trkpt lat="48.94043" lon="2.29942">
        <ele>82</ele>
        <time>2015-06-15T19:06:06.937Z</time>
      </trkpt>
      <trkpt lat="48.94044" lon="2.29935">
        <ele>81.9</ele>
        <time>2015-06-15T19:06:07.960Z</time>
      </trkpt>
      <trkpt lat="48.94046" lon="2.29928">
        <ele>81.8</ele>
        <time>2015-06-15T19:06:08.999Z</time>
      </trkpt>
      <trkpt lat="48.94048" lon="2.29921">
        <ele>81.8</ele>
        <time>2015-06-15T19:06:09.950Z</time>
      </trkpt>
      <trkpt lat="48.9405" lon="2.29913">
        <ele>81.6</ele>
        <time>2015-06-15T19:06:10.908Z</time>
      </trkpt>
      <trkpt lat="48.94051" lon="2.29905">
        <ele>81.6</ele>
        <time>2015-06-15T19:06:11.908Z</time>
      </trkpt>
      <trkpt lat="48.94054" lon="2.29898">
        <ele>81.5</ele>
        <time>2015-06-15T19:06:12.922Z</time>
      </trkpt>
      <trkpt lat="48.94057" lon="2.2989">
        <ele>81.2</ele>
        <time>2015-06-15T19:06:13.942Z</time>
      </trkpt>
      <trkpt lat="48.94059" lon="2.29883">
        <ele>81</ele>
        <time>2015-06-15T19:06:14.961Z</time>
      </trkpt>
      <trkpt lat="48.94061" lon="2.29875">
        <ele>81.2</ele>
        <time>2015-06-15T19:06:15.902Z</time>
      </trkpt>
      <trkpt lat="48.94062" lon="2.29866">
        <ele>81.3</ele>
        <time>2015-06-15T19:06:16.917Z</time>
      </trkpt>
      <trkpt lat="48.94064" lon="2.29858">
        <ele>81.4</ele>
        <time>2015-06-15T19:06:17.924Z</time>
      </trkpt>
      <trkpt lat="48.94066" lon="2.2985">
        <ele>81.6</ele>
        <time>2015-06-15T19:06:18.951Z</time>
      </trkpt>
      <trkpt lat="48.94068" lon="2.29842">
        <ele>81.8</ele>
        <time>2015-06-15T19:06:19.963Z</time>
      </trkpt>
      <trkpt lat="48.9407" lon="2.29834">
        <ele>81.9</ele>
        <time>2015-06-15T19:06:20.995Z</time>
      </trkpt>
      <trkpt lat="48.94072" lon="2.29826">
        <ele>82.3</ele>
        <time>2015-06-15T19:06:21.919Z</time>
      </trkpt>
      <trkpt lat="48.94074" lon="2.29818">
        <ele>82.6</ele>
        <time>2015-06-15T19:06:22.907Z</time>
      </trkpt>
      <trkpt lat="48.94076" lon="2.2981">
        <ele>82.8</ele>
        <time>2015-06-15T19:06:23.917Z</time>
      </trkpt>
      <trkpt lat="48.94077" lon="2.29802">
        <ele>83</ele>
        <time>2015-06-15T19:06:24.931Z</time>
      </trkpt>
      <trkpt lat="48.94078" lon="2.29793">
        <ele>83.1</ele>
        <time>2015-06-15T19:06:25.942Z</time>
      </trkpt>
      <trkpt lat="48.94079" lon="2.29784">
        <ele>83.2</ele>
        <time>2015-06-15T19:06:26.941Z</time>
      </trkpt>
      <trkpt lat="48.94081" lon="2.29776">
        <ele>82.9</ele>
        <time>2015-06-15T19:06:27.876Z</time>
      </trkpt>
      <trkpt lat="48.94083" lon="2.29768">
        <ele>83.2</ele>
        <time>2015-06-15T19:06:28.987Z</time>
      </trkpt>
      <trkpt lat="48.94085" lon="2.2976">
        <ele>83.1</ele>
        <time>2015-06-15T19:06:29.930Z</time>
      </trkpt>
      <trkpt lat="48.94086" lon="2.29752">
        <ele>82.8</ele>
        <time>2015-06-15T19:06:30.911Z</time>
      </trkpt>
      <trkpt lat="48.94088" lon="2.29745">
        <ele>83.2</ele>
        <time>2015-06-15T19:06:31.917Z</time>
      </trkpt>
      <trkpt lat="48.9409" lon="2.29737">
        <ele>83.5</ele>
        <time>2015-06-15T19:06:32.979Z</time>
      </trkpt>
      <trkpt lat="48.94091" lon="2.2973">
        <ele>83.8</ele>
        <time>2015-06-15T19:06:33.979Z</time>
      </trkpt>
      <trkpt lat="48.94093" lon="2.29722">
        <ele>83.9</ele>
        <time>2015-06-15T19:06:34.894Z</time>
      </trkpt>
      <trkpt lat="48.94095" lon="2.29714">
        <ele>84</ele>
        <time>2015-06-15T19:06:35.910Z</time>
      </trkpt>
      <trkpt lat="48.94098" lon="2.29707">
        <ele>84.2</ele>
        <time>2015-06-15T19:06:36.921Z</time>
      </trkpt>
      <trkpt lat="48.941" lon="2.29699">
        <ele>84.2</ele>
        <time>2015-06-15T19:06:37.943Z</time>
      </trkpt>
      <trkpt lat="48.94102" lon="2.29691">
        <ele>84.5</ele>
        <time>2015-06-15T19:06:38.959Z</time>
      </trkpt>
      <trkpt lat="48.94105" lon="2.29684">
        <ele>84.3</ele>
        <time>2015-06-15T19:06:39.966Z</time>
      </trkpt>
      <trkpt lat="48.94107" lon="2.29676">
        <ele>84.2</ele>
        <time>2015-06-15T19:06:40.987Z</time>
      </trkpt>
      <trkpt lat="48.94109" lon="2.29669">
        <ele>83.9</ele>
        <time>2015-06-15T19:06:41.904Z</time>
      </trkpt>
      <trkpt lat="48.94111" lon="2.29662">
        <ele>83.7</ele>
        <time>2015-06-15T19:06:42.926Z</time>
      </trkpt>
      <trkpt lat="48.94112" lon="2.29655">
        <ele>83.8</ele>
        <time>2015-06-15T19:06:43.969Z</time>
      </trkpt>
      <trkpt lat="48.94114" lon="2.29647">
        <ele>83.7</ele>
        <time>2015-06-15T19:06:45Z</time>
      </trkpt>
      <trkpt lat="48.94115" lon="2.2964">
        <ele>83.9</ele>
        <time>2015-06-15T19:06:45.906Z</time>
      </trkpt>
      <trkpt lat="48.94117" lon="2.29632">
        <ele>84</ele>
        <time>2015-06-15T19:06:46.914Z</time>
      </trkpt>
      <trkpt lat="48.94119" lon="2.29625">
        <ele>84</ele>
        <time>2015-06-15T19:06:47.913Z</time>
      </trkpt>
      <trkpt lat="48.94121" lon="2.29618">
        <ele>84.3</ele>
        <time>2015-06-15T19:06:48.927Z</time>
      </trkpt>
      <trkpt lat="48.94123" lon="2.29611">
        <ele>84.5</ele>
        <time>2015-06-15T19:06:49.935Z</time>
      </trkpt>
      <trkpt lat="48.94125" lon="2.29604">
        <ele>84.5</ele>
        <time>2015-06-15T19:06:50.967Z</time>
      </trkpt>
      <trkpt lat="48.94127" lon="2.29597">
        <ele>84.6</ele>
        <time>2015-06-15T19:06:51.959Z</time>
      </trkpt>
      <trkpt lat="48.94129" lon="2.2959">
        <ele>84.2</ele>
        <time>2015-06-15T19:06:52.968Z</time>
      </trkpt>
      <trkpt lat="48.94132" lon="2.29583">
        <ele>83.9</ele>
        <time>2015-06-15T19:06:53.977Z</time>
      </trkpt>
      <trkpt lat="48.94134" lon="2.29576">
        <ele>83.6</ele>
        <time>2015-06-15T19:06:54.911Z</time>
      </trkpt>
      <trkpt lat="48.94137" lon="2.29571">
        <ele>83.3</ele>
        <time>2015-06-15T19:06:55.895Z</time>
      </trkpt>
      <trkpt lat="48.9414" lon="2.29559">
        <ele>82.9</ele>
        <time>2015-06-15T19:06:57.986Z</time>
      </trkpt>
      <trkpt lat="48.94143" lon="2.29553">
        <ele>83.2</ele>
        <time>2015-06-15T19:06:58.908Z</time>
      </trkpt>
      <trkpt lat="48.94147" lon="2.29549">
        <ele>83.1</ele>
        <time>2015-06-15T19:06:59.910Z</time>
      </trkpt>
      <trkpt lat="48.94151" lon="2.29545">
        <ele>83.2</ele>
        <time>2015-06-15T19:07:00.960Z</time>
      </trkpt>
      <trkpt lat="48.94155" lon="2.29542">
        <ele>83.2</ele>
        <time>2015-06-15T19:07:01.914Z</time>
      </trkpt>
      <trkpt lat="48.94159" lon="2.2954">
        <ele>83.1</ele>
        <time>2015-06-15T19:07:03.005Z</time>
      </trkpt>
      <trkpt lat="48.94166" lon="2.29534">
        <ele>82.6</ele>
        <time>2015-06-15T19:07:04.919Z</time>
      </trkpt>
      <trkpt lat="48.94169" lon="2.29531">
        <ele>82.6</ele>
        <time>2015-06-15T19:07:05.935Z</time>
      </trkpt>
      <trkpt lat="48.94175" lon="2.29523">
        <ele>82.6</ele>
        <time>2015-06-15T19:07:07.965Z</time>
      </trkpt>
      <trkpt lat="48.94176" lon="2.29518">
        <ele>82.5</ele>
        <time>2015-06-15T19:07:08.994Z</time>
      </trkpt>
      <trkpt lat="48.94178" lon="2.29508">
        <ele>82.6</ele>
        <time>2015-06-15T19:07:10.932Z</time>
      </trkpt>
      <trkpt lat="48.94179" lon="2.29504">
        <ele>82.6</ele>
        <time>2015-06-15T19:07:11.928Z</time>
      </trkpt>
      <trkpt lat="48.94178" lon="2.29491">
        <ele>83.3</ele>
        <time>2015-06-15T19:07:15.957Z</time>
      </trkpt>
      <trkpt lat="48.94178" lon="2.29489">
        <ele>83.1</ele>
        <time>2015-06-15T19:07:17.126Z</time>
      </trkpt>
      <trkpt lat="48.94171" lon="2.29483">
        <ele>84.3</ele>
        <time>2015-06-15T19:07:24.940Z</time>
      </trkpt>
      <trkpt lat="48.9417" lon="2.29482">
        <ele>84.3</ele>
        <time>2015-06-15T19:07:25.955Z</time>
      </trkpt>
      <trkpt lat="48.94162" lon="2.29479">
        <ele>84.2</ele>
        <time>2015-06-15T19:07:29.989Z</time>
      </trkpt>
      <trkpt lat="48.9416" lon="2.29478">
        <ele>84.3</ele>
        <time>2015-06-15T19:07:30.943Z</time>
      </trkpt>
      <trkpt lat="48.94154" lon="2.29469">
        <ele>84.3</ele>
        <time>2015-06-15T19:07:33.885Z</time>
      </trkpt>
      <trkpt lat="48.94152" lon="2.29466">
        <ele>84.1</ele>
        <time>2015-06-15T19:07:34.896Z</time>
      </trkpt>
      <trkpt lat="48.94148" lon="2.29457">
        <ele>84.4</ele>
        <time>2015-06-15T19:07:36.949Z</time>
      </trkpt>
      <trkpt lat="48.94146" lon="2.29453">
        <ele>84.5</ele>
        <time>2015-06-15T19:07:37.972Z</time>
      </trkpt>
      <trkpt lat="48.94142" lon="2.29443">
        <ele>85</ele>
        <time>2015-06-15T19:07:39.916Z</time>
      </trkpt>
      <trkpt lat="48.94141" lon="2.29438">
        <ele>85</ele>
        <time>2015-06-15T19:07:40.932Z</time>
      </trkpt>
      <trkpt lat="48.94138" lon="2.29428">
        <ele>85.1</ele>
        <time>2015-06-15T19:07:42.976Z</time>
      </trkpt>
      <trkpt lat="48.94136" lon="2.29423">
        <ele>84.9</ele>
        <time>2015-06-15T19:07:43.994Z</time>
      </trkpt>
      <trkpt lat="48.94132" lon="2.29412">
        <ele>85.2</ele>
        <time>2015-06-15T19:07:45.938Z</time>
      </trkpt>
      <trkpt lat="48.9413" lon="2.29407">
        <ele>85.6</ele>
        <time>2015-06-15T19:07:46.946Z</time>
      </trkpt>
      <trkpt lat="48.94127" lon="2.29396">
        <ele>86</ele>
        <time>2015-06-15T19:07:48.906Z</time>
      </trkpt>
      <trkpt lat="48.94125" lon="2.2939">
        <ele>86.1</ele>
        <time>2015-06-15T19:07:49.912Z</time>
      </trkpt>
      <trkpt lat="48.94121" lon="2.29378">
        <ele>86.5</ele>
        <time>2015-06-15T19:07:51.975Z</time>
      </trkpt>
      <trkpt lat="48.94119" lon="2.29373">
        <ele>86.8</ele>
        <time>2015-06-15T19:07:52.930Z</time>
      </trkpt>
      <trkpt lat="48.94115" lon="2.29361">
        <ele>87.2</ele>
        <time>2015-06-15T19:07:54.899Z</time>
      </trkpt>
      <trkpt lat="48.94113" lon="2.29355">
        <ele>87.3</ele>
        <time>2015-06-15T19:07:55.907Z</time>
      </trkpt>
      <trkpt lat="48.9411" lon="2.29348">
        <ele>87.4</ele>
        <time>2015-06-15T19:07:56.937Z</time>
      </trkpt>
      <trkpt lat="48.94108" lon="2.29342">
        <ele>87.3</ele>
        <time>2015-06-15T19:07:57.942Z</time>
      </trkpt>
      <trkpt lat="48.94105" lon="2.29336">
        <ele>87.4</ele>
        <time>2015-06-15T19:07:58.965Z</time>
      </trkpt>
      <trkpt lat="48.94103" lon="2.2933">
        <ele>87.4</ele>
        <time>2015-06-15T19:08:00.001Z</time>
      </trkpt>
      <trkpt lat="48.94101" lon="2.29323">
        <ele>87.5</ele>
        <time>2015-06-15T19:08:00.903Z</time>
      </trkpt>
      <trkpt lat="48.941" lon="2.29316">
        <ele>87.5</ele>
        <time>2015-06-15T19:08:01.876Z</time>
      </trkpt>
      <trkpt lat="48.94098" lon="2.29309">
        <ele>87.7</ele>
        <time>2015-06-15T19:08:03.136Z</time>
      </trkpt>
      <trkpt lat="48.94097" lon="2.29302">
        <ele>87.7</ele>
        <time>2015-06-15T19:08:03.964Z</time>
      </trkpt>
      <trkpt lat="48.94095" lon="2.29291">
        <ele>87.2</ele>
        <time>2015-06-15T19:08:05.901Z</time>
      </trkpt>
      <trkpt lat="48.94096" lon="2.29285">
        <ele>86.7</ele>
        <time>2015-06-15T19:08:06.904Z</time>
      </trkpt>
      <trkpt lat="48.94094" lon="2.29272">
        <ele>86.4</ele>
        <time>2015-06-15T19:08:08.942Z</time>
      </trkpt>
      <trkpt lat="48.94093" lon="2.29267">
        <ele>86.5</ele>
        <time>2015-06-15T19:08:10.124Z</time>
      </trkpt>
      <trkpt lat="48.9409" lon="2.29256">
        <ele>86.9</ele>
        <time>2015-06-15T19:08:11.933Z</time>
      </trkpt>
      <trkpt lat="48.94089" lon="2.29249">
        <ele>87.2</ele>
        <time>2015-06-15T19:08:13.047Z</time>
      </trkpt>
      <trkpt lat="48.94088" lon="2.29243">
        <ele>87.4</ele>
        <time>2015-06-15T19:08:13.973Z</time>
      </trkpt>
      <trkpt lat="48.9409" lon="2.29236">
        <ele>88.4</ele>
        <time>2015-06-15T19:08:15.353Z</time>
      </trkpt>
      <trkpt lat="48.94087" lon="2.29224">
        <ele>88.3</ele>
        <time>2015-06-15T19:08:16.905Z</time>
      </trkpt>
      <trkpt lat="48.94085" lon="2.29218">
        <ele>88.3</ele>
        <time>2015-06-15T19:08:17.975Z</time>
      </trkpt>
      <trkpt lat="48.94084" lon="2.29205">
        <ele>88.4</ele>
        <time>2015-06-15T19:08:19.931Z</time>
      </trkpt>
      <trkpt lat="48.94082" lon="2.29198">
        <ele>88</ele>
        <time>2015-06-15T19:08:20.976Z</time>
      </trkpt>
      <trkpt lat="48.94081" lon="2.2919">
        <ele>87.4</ele>
        <time>2015-06-15T19:08:21.895Z</time>
      </trkpt>
      <trkpt lat="48.9408" lon="2.29183">
        <ele>87.2</ele>
        <time>2015-06-15T19:08:22.912Z</time>
      </trkpt>
      <trkpt lat="48.94078" lon="2.29176">
        <ele>86.8</ele>
        <time>2015-06-15T19:08:23.934Z</time>
      </trkpt>
      <trkpt lat="48.94077" lon="2.29169">
        <ele>86.5</ele>
        <time>2015-06-15T19:08:24.946Z</time>
      </trkpt>
      <trkpt lat="48.94079" lon="2.29157">
        <ele>85.4</ele>
        <time>2015-06-15T19:08:27.006Z</time>
      </trkpt>
      <trkpt lat="48.94081" lon="2.29153">
        <ele>85.1</ele>
        <time>2015-06-15T19:08:27.909Z</time>
      </trkpt>
      <trkpt lat="48.94088" lon="2.29148">
        <ele>84.5</ele>
        <time>2015-06-15T19:08:29.926Z</time>
      </trkpt>
      <trkpt lat="48.94092" lon="2.29146">
        <ele>84.1</ele>
        <time>2015-06-15T19:08:30.938Z</time>
      </trkpt>
      <trkpt lat="48.94099" lon="2.29141">
        <ele>84.1</ele>
        <time>2015-06-15T19:08:33.063Z</time>
      </trkpt>
      <trkpt lat="48.94103" lon="2.29139">
        <ele>83.7</ele>
        <time>2015-06-15T19:08:33.918Z</time>
      </trkpt>
      <trkpt lat="48.94111" lon="2.29135">
        <ele>82.8</ele>
        <time>2015-06-15T19:08:35.982Z</time>
      </trkpt>
      <trkpt lat="48.94115" lon="2.29133">
        <ele>82.5</ele>
        <time>2015-06-15T19:08:36.892Z</time>
      </trkpt>
      <trkpt lat="48.94123" lon="2.29128">
        <ele>81.8</ele>
        <time>2015-06-15T19:08:38.969Z</time>
      </trkpt>
      <trkpt lat="48.94127" lon="2.29124">
        <ele>81.7</ele>
        <time>2015-06-15T19:08:39.882Z</time>
      </trkpt>
      <trkpt lat="48.94134" lon="2.29117">
        <ele>81.8</ele>
        <time>2015-06-15T19:08:41.942Z</time>
      </trkpt>
      <trkpt lat="48.94137" lon="2.29112">
        <ele>81.9</ele>
        <time>2015-06-15T19:08:42.953Z</time>
      </trkpt>
      <trkpt lat="48.94143" lon="2.29101">
        <ele>81.7</ele>
        <time>2015-06-15T19:08:44.983Z</time>
      </trkpt>
      <trkpt lat="48.94146" lon="2.29096">
        <ele>81.5</ele>
        <time>2015-06-15T19:08:45.867Z</time>
      </trkpt>
      <trkpt lat="48.9415" lon="2.29091">
        <ele>81.4</ele>
        <time>2015-06-15T19:08:46.879Z</time>
      </trkpt>
      <trkpt lat="48.94153" lon="2.29086">
        <ele>81.3</ele>
        <time>2015-06-15T19:08:47.896Z</time>
      </trkpt>
      <trkpt lat="48.94156" lon="2.2908">
        <ele>81.3</ele>
        <time>2015-06-15T19:08:48.918Z</time>
      </trkpt>
      <trkpt lat="48.9416" lon="2.29075">
        <ele>81.2</ele>
        <time>2015-06-15T19:08:49.924Z</time>
      </trkpt>
      <trkpt lat="48.94163" lon="2.29069">
        <ele>81.1</ele>
        <time>2015-06-15T19:08:50.954Z</time>
      </trkpt>
      <trkpt lat="48.94166" lon="2.29063">
        <ele>81</ele>
        <time>2015-06-15T19:08:51.970Z</time>
      </trkpt>
      <trkpt lat="48.9417" lon="2.29058">
        <ele>80.9</ele>
        <time>2015-06-15T19:08:52.911Z</time>
      </trkpt>
      <trkpt lat="48.94174" lon="2.29053">
        <ele>80.9</ele>
        <time>2015-06-15T19:08:53.887Z</time>
      </trkpt>
      <trkpt lat="48.94178" lon="2.29048">
        <ele>80.8</ele>
        <time>2015-06-15T19:08:54.983Z</time>
      </trkpt>
      <trkpt lat="48.94181" lon="2.29043">
        <ele>80.8</ele>
        <time>2015-06-15T19:08:55.912Z</time>
      </trkpt>
      <trkpt lat="48.94185" lon="2.29037">
        <ele>80.7</ele>
        <time>2015-06-15T19:08:56.938Z</time>
      </trkpt>
      <trkpt lat="48.94188" lon="2.29031">
        <ele>80.6</ele>
        <time>2015-06-15T19:08:57.951Z</time>
      </trkpt>
      <trkpt lat="48.94192" lon="2.29026">
        <ele>80.5</ele>
        <time>2015-06-15T19:08:58.863Z</time>
      </trkpt>
      <trkpt lat="48.94195" lon="2.2902">
        <ele>80.6</ele>
        <time>2015-06-15T19:08:59.895Z</time>
      </trkpt>
      <trkpt lat="48.94198" lon="2.29013">
        <ele>80.5</ele>
        <time>2015-06-15T19:09:00.927Z</time>
      </trkpt>
      <trkpt lat="48.94202" lon="2.29007">
        <ele>80.4</ele>
        <time>2015-06-15T19:09:01.908Z</time>
      </trkpt>
      <trkpt lat="48.94205" lon="2.29001">
        <ele>80.2</ele>
        <time>2015-06-15T19:09:03.027Z</time>
      </trkpt>
      <trkpt lat="48.94208" lon="2.28995">
        <ele>80</ele>
        <time>2015-06-15T19:09:03.919Z</time>
      </trkpt>
      <trkpt lat="48.94212" lon="2.28989">
        <ele>80</ele>
        <time>2015-06-15T19:09:04.942Z</time>
      </trkpt>
      <trkpt lat="48.94215" lon="2.28983">
        <ele>79.7</ele>
        <time>2015-06-15T19:09:05.939Z</time>
      </trkpt>
      <trkpt lat="48.94219" lon="2.28977">
        <ele>79.6</ele>
        <time>2015-06-15T19:09:06.914Z</time>
      </trkpt>
      <trkpt lat="48.94222" lon="2.28971">
        <ele>79.3</ele>
        <time>2015-06-15T19:09:07.856Z</time>
      </trkpt>
      <trkpt lat="48.94226" lon="2.28965">
        <ele>79.2</ele>
        <time>2015-06-15T19:09:08.898Z</time>
      </trkpt>
      <trkpt lat="48.9423" lon="2.28959">
        <ele>79.1</ele>
        <time>2015-06-15T19:09:09.884Z</time>
      </trkpt>
      <trkpt lat="48.94233" lon="2.28953">
        <ele>79</ele>
        <time>2015-06-15T19:09:10.920Z</time>
      </trkpt>
      <trkpt lat="48.94237" lon="2.28947">
        <ele>78.8</ele>
        <time>2015-06-15T19:09:11.968Z</time>
      </trkpt>
      <trkpt lat="48.9424" lon="2.2894">
        <ele>78.7</ele>
        <time>2015-06-15T19:09:12.876Z</time>
      </trkpt>
      <trkpt lat="48.94244" lon="2.28935">
        <ele>78.7</ele>
        <time>2015-06-15T19:09:13.906Z</time>
      </trkpt>
      <trkpt lat="48.94248" lon="2.28929">
        <ele>78.7</ele>
        <time>2015-06-15T19:09:15.009Z</time>
      </trkpt>
      <trkpt lat="48.94251" lon="2.28923">
        <ele>78.7</ele>
        <time>2015-06-15T19:09:15.853Z</time>
      </trkpt>
      <trkpt lat="48.94255" lon="2.28918">
        <ele>78.7</ele>
        <time>2015-06-15T19:09:16.926Z</time>
      </trkpt>
      <trkpt lat="48.94259" lon="2.28912">
        <ele>78.9</ele>
        <time>2015-06-15T19:09:17.892Z</time>
      </trkpt>
      <trkpt lat="48.94262" lon="2.28906">
        <ele>78.9</ele>
        <time>2015-06-15T19:09:18.926Z</time>
      </trkpt>
      <trkpt lat="48.94266" lon="2.289">
        <ele>78.9</ele>
        <time>2015-06-15T19:09:19.951Z</time>
      </trkpt>
      <trkpt lat="48.94269" lon="2.28894">
        <ele>79.1</ele>
        <time>2015-06-15T19:09:20.920Z</time>
      </trkpt>
      <trkpt lat="48.94272" lon="2.28889">
        <ele>79.1</ele>
        <time>2015-06-15T19:09:21.969Z</time>
      </trkpt>
      <trkpt lat="48.94276" lon="2.28883">
        <ele>79.2</ele>
        <time>2015-06-15T19:09:22.871Z</time>
      </trkpt>
      <trkpt lat="48.94279" lon="2.28877">
        <ele>79.2</ele>
        <time>2015-06-15T19:09:23.923Z</time>
      </trkpt>
      <trkpt lat="48.94282" lon="2.28871">
        <ele>79.3</ele>
        <time>2015-06-15T19:09:24.936Z</time>
      </trkpt>
      <trkpt lat="48.94285" lon="2.28865">
        <ele>79.4</ele>
        <time>2015-06-15T19:09:25.944Z</time>
      </trkpt>
      <trkpt lat="48.94288" lon="2.28859">
        <ele>79.5</ele>
        <time>2015-06-15T19:09:27.039Z</time>
      </trkpt>
      <trkpt lat="48.94291" lon="2.28853">
        <ele>79.8</ele>
        <time>2015-06-15T19:09:27.908Z</time>
      </trkpt>
      <trkpt lat="48.94295" lon="2.28846">
        <ele>80.5</ele>
        <time>2015-06-15T19:09:28.943Z</time>
      </trkpt>
      <trkpt lat="48.94298" lon="2.2884">
        <ele>80.6</ele>
        <time>2015-06-15T19:09:29.930Z</time>
      </trkpt>
      <trkpt lat="48.94301" lon="2.28834">
        <ele>80.9</ele>
        <time>2015-06-15T19:09:30.976Z</time>
      </trkpt>
      <trkpt lat="48.94305" lon="2.28827">
        <ele>80.9</ele>
        <time>2015-06-15T19:09:32.014Z</time>
      </trkpt>
      <trkpt lat="48.94308" lon="2.28822">
        <ele>81.1</ele>
        <time>2015-06-15T19:09:33.046Z</time>
      </trkpt>
      <trkpt lat="48.94311" lon="2.28815">
        <ele>80.8</ele>
        <time>2015-06-15T19:09:33.925Z</time>
      </trkpt>
      <trkpt lat="48.94313" lon="2.28808">
        <ele>80.6</ele>
        <time>2015-06-15T19:09:34.925Z</time>
      </trkpt>
      <trkpt lat="48.94315" lon="2.28801">
        <ele>80.4</ele>
        <time>2015-06-15T19:09:35.940Z</time>
      </trkpt>
      <trkpt lat="48.94318" lon="2.28795">
        <ele>80.4</ele>
        <time>2015-06-15T19:09:36.862Z</time>
      </trkpt>
      <trkpt lat="48.94321" lon="2.28788">
        <ele>80.3</ele>
        <time>2015-06-15T19:09:37.933Z</time>
      </trkpt>
      <trkpt lat="48.94323" lon="2.28779">
        <ele>80.3</ele>
        <time>2015-06-15T19:09:38.984Z</time>
      </trkpt>
      <trkpt lat="48.94326" lon="2.28773">
        <ele>80.3</ele>
        <time>2015-06-15T19:09:39.896Z</time>
      </trkpt>
      <trkpt lat="48.9433" lon="2.2877">
        <ele>80</ele>
        <time>2015-06-15T19:09:40.888Z</time>
      </trkpt>
      <trkpt lat="48.94334" lon="2.28764">
        <ele>80.1</ele>
        <time>2015-06-15T19:09:41.915Z</time>
      </trkpt>
      <trkpt lat="48.94337" lon="2.28756">
        <ele>81</ele>
        <time>2015-06-15T19:09:43.071Z</time>
      </trkpt>
      <trkpt lat="48.9434" lon="2.28749">
        <ele>81.4</ele>
        <time>2015-06-15T19:09:43.913Z</time>
      </trkpt>
      <trkpt lat="48.94343" lon="2.28742">
        <ele>81.3</ele>
        <time>2015-06-15T19:09:44.951Z</time>
      </trkpt>
      <trkpt lat="48.94346" lon="2.28734">
        <ele>81.5</ele>
        <time>2015-06-15T19:09:45.905Z</time>
      </trkpt>
      <trkpt lat="48.9435" lon="2.28727">
        <ele>81.6</ele>
        <time>2015-06-15T19:09:46.900Z</time>
      </trkpt>
      <trkpt lat="48.94354" lon="2.28721">
        <ele>81.9</ele>
        <time>2015-06-15T19:09:47.907Z</time>
      </trkpt>
      <trkpt lat="48.94358" lon="2.28714">
        <ele>82.2</ele>
        <time>2015-06-15T19:09:48.913Z</time>
      </trkpt>
      <trkpt lat="48.94362" lon="2.28708">
        <ele>82.4</ele>
        <time>2015-06-15T19:09:49.931Z</time>
      </trkpt>
      <trkpt lat="48.94366" lon="2.28701">
        <ele>82.5</ele>
        <time>2015-06-15T19:09:50.966Z</time>
      </trkpt>
      <trkpt lat="48.9437" lon="2.28695">
        <ele>82.5</ele>
        <time>2015-06-15T19:09:51.852Z</time>
      </trkpt>
      <trkpt lat="48.94373" lon="2.28688">
        <ele>82.6</ele>
        <time>2015-06-15T19:09:53.248Z</time>
      </trkpt>
      <trkpt lat="48.94377" lon="2.28681">
        <ele>82.8</ele>
        <time>2015-06-15T19:09:53.891Z</time>
      </trkpt>
      <trkpt lat="48.94381" lon="2.28674">
        <ele>83</ele>
        <time>2015-06-15T19:09:54.910Z</time>
      </trkpt>
      <trkpt lat="48.94385" lon="2.28667">
        <ele>83</ele>
        <time>2015-06-15T19:09:55.916Z</time>
      </trkpt>
      <trkpt lat="48.94389" lon="2.28661">
        <ele>82.9</ele>
        <time>2015-06-15T19:09:56.942Z</time>
      </trkpt>
      <trkpt lat="48.94393" lon="2.28654">
        <ele>82.7</ele>
        <time>2015-06-15T19:09:57.992Z</time>
      </trkpt>
      <trkpt lat="48.94396" lon="2.28646">
        <ele>82.8</ele>
        <time>2015-06-15T19:09:58.876Z</time>
      </trkpt>
      <trkpt lat="48.944" lon="2.28639">
        <ele>82.5</ele>
        <time>2015-06-15T19:09:59.925Z</time>
      </trkpt>
      <trkpt lat="48.94404" lon="2.28632">
        <ele>82.2</ele>
        <time>2015-06-15T19:10:00.908Z</time>
      </trkpt>
      <trkpt lat="48.94408" lon="2.28625">
        <ele>82.2</ele>
        <time>2015-06-15T19:10:01.917Z</time>
      </trkpt>
      <trkpt lat="48.94411" lon="2.28618">
        <ele>81.8</ele>
        <time>2015-06-15T19:10:02.964Z</time>
      </trkpt>
      <trkpt lat="48.94415" lon="2.28612">
        <ele>81.8</ele>
        <time>2015-06-15T19:10:03.841Z</time>
      </trkpt>
      <trkpt lat="48.94419" lon="2.28605">
        <ele>81.9</ele>
        <time>2015-06-15T19:10:04.941Z</time>
      </trkpt>
      <trkpt lat="48.94423" lon="2.28598">
        <ele>81.9</ele>
        <time>2015-06-15T19:10:05.915Z</time>
      </trkpt>
      <trkpt lat="48.94427" lon="2.28591">
        <ele>81.9</ele>
        <time>2015-06-15T19:10:06.930Z</time>
      </trkpt>
      <trkpt lat="48.94431" lon="2.28585">
        <ele>81.7</ele>
        <time>2015-06-15T19:10:07.934Z</time>
      </trkpt>
      <trkpt lat="48.94435" lon="2.28578">
        <ele>81.7</ele>
        <time>2015-06-15T19:10:08.947Z</time>
      </trkpt>
      <trkpt lat="48.94439" lon="2.28572">
        <ele>81.7</ele>
        <time>2015-06-15T19:10:09.956Z</time>
      </trkpt>
      <trkpt lat="48.94443" lon="2.28566">
        <ele>81.6</ele>
        <time>2015-06-15T19:10:10.843Z</time>
      </trkpt>
      <trkpt lat="48.94448" lon="2.28561">
        <ele>81.5</ele>
        <time>2015-06-15T19:10:11.872Z</time>
      </trkpt>
      <trkpt lat="48.94452" lon="2.28555">
        <ele>81.5</ele>
        <time>2015-06-15T19:10:12.916Z</time>
      </trkpt>
      <trkpt lat="48.94455" lon="2.28548">
        <ele>81.2</ele>
        <time>2015-06-15T19:10:13.928Z</time>
      </trkpt>
      <trkpt lat="48.94459" lon="2.28541">
        <ele>81.3</ele>
        <time>2015-06-15T19:10:15.036Z</time>
      </trkpt>
      <trkpt lat="48.94462" lon="2.28533">
        <ele>81.9</ele>
        <time>2015-06-15T19:10:15.987Z</time>
      </trkpt>
      <trkpt lat="48.94467" lon="2.28525">
        <ele>83.8</ele>
        <time>2015-06-15T19:10:16.881Z</time>
      </trkpt>
      <trkpt lat="48.94471" lon="2.28516">
        <ele>85.3</ele>
        <time>2015-06-15T19:10:17.902Z</time>
      </trkpt>
      <trkpt lat="48.94474" lon="2.28509">
        <ele>85.7</ele>
        <time>2015-06-15T19:10:18.914Z</time>
      </trkpt>
      <trkpt lat="48.94477" lon="2.28501">
        <ele>85.9</ele>
        <time>2015-06-15T19:10:19.915Z</time>
      </trkpt>
      <trkpt lat="48.94479" lon="2.28493">
        <ele>85.8</ele>
        <time>2015-06-15T19:10:20.952Z</time>
      </trkpt>
      <trkpt lat="48.94481" lon="2.28486">
        <ele>85.4</ele>
        <time>2015-06-15T19:10:21.857Z</time>
      </trkpt>
      <trkpt lat="48.94484" lon="2.28479">
        <ele>85.3</ele>
        <time>2015-06-15T19:10:22.872Z</time>
      </trkpt>
      <trkpt lat="48.94487" lon="2.28472">
        <ele>84.9</ele>
        <time>2015-06-15T19:10:24.150Z</time>
      </trkpt>
      <trkpt lat="48.9449" lon="2.28465">
        <ele>84.5</ele>
        <time>2015-06-15T19:10:24.911Z</time>
      </trkpt>
      <trkpt lat="48.94492" lon="2.28459">
        <ele>84.2</ele>
        <time>2015-06-15T19:10:25.922Z</time>
      </trkpt>
      <trkpt lat="48.94495" lon="2.28452">
        <ele>84</ele>
        <time>2015-06-15T19:10:26.982Z</time>
      </trkpt>
      <trkpt lat="48.94498" lon="2.28446">
        <ele>83.7</ele>
        <time>2015-06-15T19:10:28.025Z</time>
      </trkpt>
      <trkpt lat="48.94502" lon="2.2844">
        <ele>83.8</ele>
        <time>2015-06-15T19:10:28.889Z</time>
      </trkpt>
      <trkpt lat="48.94506" lon="2.28434">
        <ele>83.6</ele>
        <time>2015-06-15T19:10:29.901Z</time>
      </trkpt>
      <trkpt lat="48.9451" lon="2.28428">
        <ele>83.6</ele>
        <time>2015-06-15T19:10:30.940Z</time>
      </trkpt>
      <trkpt lat="48.94513" lon="2.28422">
        <ele>83.9</ele>
        <time>2015-06-15T19:10:31.950Z</time>
      </trkpt>
      <trkpt lat="48.94517" lon="2.28417">
        <ele>83.7</ele>
        <time>2015-06-15T19:10:33.016Z</time>
      </trkpt>
      <trkpt lat="48.94521" lon="2.28411">
        <ele>83.8</ele>
        <time>2015-06-15T19:10:33.890Z</time>
      </trkpt>
      <trkpt lat="48.94525" lon="2.28406">
        <ele>83.8</ele>
        <time>2015-06-15T19:10:34.888Z</time>
      </trkpt>
      <trkpt lat="48.94529" lon="2.284">
        <ele>83.8</ele>
        <time>2015-06-15T19:10:35.941Z</time>
      </trkpt>
      <trkpt lat="48.94533" lon="2.28394">
        <ele>83.8</ele>
        <time>2015-06-15T19:10:36.954Z</time>
      </trkpt>
      <trkpt lat="48.94536" lon="2.28388">
        <ele>83.6</ele>
        <time>2015-06-15T19:10:37.902Z</time>
      </trkpt>
      <trkpt lat="48.94538" lon="2.28382">
        <ele>83.1</ele>
        <time>2015-06-15T19:10:38.980Z</time>
      </trkpt>
      <trkpt lat="48.94542" lon="2.28375">
        <ele>83</ele>
        <time>2015-06-15T19:10:39.876Z</time>
      </trkpt>
      <trkpt lat="48.94545" lon="2.28369">
        <ele>82.9</ele>
        <time>2015-06-15T19:10:40.875Z</time>
      </trkpt>
      <trkpt lat="48.94549" lon="2.28362">
        <ele>82.9</ele>
        <time>2015-06-15T19:10:41.889Z</time>
      </trkpt>
      <trkpt lat="48.94553" lon="2.28358">
        <ele>82.9</ele>
        <time>2015-06-15T19:10:42.902Z</time>
      </trkpt>
      <trkpt lat="48.94557" lon="2.28351">
        <ele>82.9</ele>
        <time>2015-06-15T19:10:43.919Z</time>
      </trkpt>
      <trkpt lat="48.9456" lon="2.28345">
        <ele>83</ele>
        <time>2015-06-15T19:10:44.950Z</time>
      </trkpt>
      <trkpt lat="48.94563" lon="2.28338">
        <ele>82.9</ele>
        <time>2015-06-15T19:10:45.944Z</time>
      </trkpt>
      <trkpt lat="48.94567" lon="2.28332">
        <ele>82.8</ele>
        <time>2015-06-15T19:10:47.016Z</time>
      </trkpt>
      <trkpt lat="48.9457" lon="2.28326">
        <ele>82.8</ele>
        <time>2015-06-15T19:10:47.932Z</time>
      </trkpt>
      <trkpt lat="48.94572" lon="2.28319">
        <ele>82.6</ele>
        <time>2015-06-15T19:10:48.934Z</time>
      </trkpt>
      <trkpt lat="48.94575" lon="2.28313">
        <ele>82.4</ele>
        <time>2015-06-15T19:10:49.973Z</time>
      </trkpt>
      <trkpt lat="48.94578" lon="2.28308">
        <ele>82.4</ele>
        <time>2015-06-15T19:10:50.993Z</time>
      </trkpt>
      <trkpt lat="48.94581" lon="2.28303">
        <ele>82.2</ele>
        <time>2015-06-15T19:10:51.901Z</time>
      </trkpt>
      <trkpt lat="48.94585" lon="2.28297">
        <ele>81.9</ele>
        <time>2015-06-15T19:10:52.907Z</time>
      </trkpt>
      <trkpt lat="48.94589" lon="2.28292">
        <ele>82.2</ele>
        <time>2015-06-15T19:10:53.929Z</time>
      </trkpt>
      <trkpt lat="48.94592" lon="2.28287">
        <ele>82.8</ele>
        <time>2015-06-15T19:10:54.935Z</time>
      </trkpt>
      <trkpt lat="48.94596" lon="2.28282">
        <ele>82.5</ele>
        <time>2015-06-15T19:10:55.958Z</time>
      </trkpt>
      <trkpt lat="48.94599" lon="2.28276">
        <ele>82.5</ele>
        <time>2015-06-15T19:10:56.973Z</time>
      </trkpt>
      <trkpt lat="48.94602" lon="2.28271">
        <ele>82.7</ele>
        <time>2015-06-15T19:10:57.980Z</time>
      </trkpt>
      <trkpt lat="48.94606" lon="2.28265">
        <ele>82.8</ele>
        <time>2015-06-15T19:10:58.980Z</time>
      </trkpt>
      <trkpt lat="48.94609" lon="2.2826">
        <ele>83.1</ele>
        <time>2015-06-15T19:10:59.895Z</time>
      </trkpt>
      <trkpt lat="48.94613" lon="2.28254">
        <ele>83.1</ele>
        <time>2015-06-15T19:11:00.900Z</time>
      </trkpt>
      <trkpt lat="48.94616" lon="2.28249">
        <ele>83.2</ele>
        <time>2015-06-15T19:11:01.913Z</time>
      </trkpt>
      <trkpt lat="48.94622" lon="2.2824">
        <ele>83.2</ele>
        <time>2015-06-15T19:11:03.901Z</time>
      </trkpt>
      <trkpt lat="48.94625" lon="2.28236">
        <ele>83.1</ele>
        <time>2015-06-15T19:11:04.926Z</time>
      </trkpt>
      <trkpt lat="48.9463" lon="2.28227">
        <ele>83.2</ele>
        <time>2015-06-15T19:11:06.979Z</time>
      </trkpt>
      <trkpt lat="48.94632" lon="2.28222">
        <ele>83.2</ele>
        <time>2015-06-15T19:11:07.965Z</time>
      </trkpt>
      <trkpt lat="48.94637" lon="2.28213">
        <ele>82.8</ele>
        <time>2015-06-15T19:11:09.902Z</time>
      </trkpt>
      <trkpt lat="48.9464" lon="2.28208">
        <ele>83</ele>
        <time>2015-06-15T19:11:10.908Z</time>
      </trkpt>
      <trkpt lat="48.94645" lon="2.28198">
        <ele>83.7</ele>
        <time>2015-06-15T19:11:12.968Z</time>
      </trkpt>
      <trkpt lat="48.94647" lon="2.28194">
        <ele>83.8</ele>
        <time>2015-06-15T19:11:13.980Z</time>
      </trkpt>
      <trkpt lat="48.94652" lon="2.28186">
        <ele>84</ele>
        <time>2015-06-15T19:11:16.028Z</time>
      </trkpt>
      <trkpt lat="48.94655" lon="2.28182">
        <ele>83.9</ele>
        <time>2015-06-15T19:11:16.973Z</time>
      </trkpt>
      <trkpt lat="48.94659" lon="2.28175">
        <ele>84</ele>
        <time>2015-06-15T19:11:18.912Z</time>
      </trkpt>
      <trkpt lat="48.94661" lon="2.28171">
        <ele>83.9</ele>
        <time>2015-06-15T19:11:19.966Z</time>
      </trkpt>
      <trkpt lat="48.94667" lon="2.28161">
        <ele>83.9</ele>
        <time>2015-06-15T19:11:22.942Z</time>
      </trkpt>
      <trkpt lat="48.94669" lon="2.28159">
        <ele>83.8</ele>
        <time>2015-06-15T19:11:23.975Z</time>
      </trkpt>
      <trkpt lat="48.94675" lon="2.28151">
        <ele>84.2</ele>
        <time>2015-06-15T19:11:27.899Z</time>
      </trkpt>
      <trkpt lat="48.94676" lon="2.2815">
        <ele>84.4</ele>
        <time>2015-06-15T19:11:28.935Z</time>
      </trkpt>
      <trkpt lat="48.94676" lon="2.28149">
        <ele>84.4</ele>
        <time>2015-06-15T19:12:40.902Z</time>
      </trkpt>
      <trkpt lat="48.94667" lon="2.28144">
        <ele>85</ele>
        <time>2015-06-15T19:12:41.905Z</time>
      </trkpt>
      <trkpt lat="48.94661" lon="2.28137">
        <ele>85.7</ele>
        <time>2015-06-15T19:12:45.972Z</time>
      </trkpt>
      <trkpt lat="48.94659" lon="2.28134">
        <ele>85.7</ele>
        <time>2015-06-15T19:12:46.957Z</time>
      </trkpt>
      <trkpt lat="48.94654" lon="2.28125">
        <ele>85.2</ele>
        <time>2015-06-15T19:12:50.986Z</time>
      </trkpt>
      <trkpt lat="48.94653" lon="2.28122">
        <ele>85.2</ele>
        <time>2015-06-15T19:12:51.992Z</time>
      </trkpt>
      <trkpt lat="48.9465" lon="2.28114">
        <ele>85.3</ele>
        <time>2015-06-15T19:18:31.978Z</time>
      </trkpt>
      <trkpt lat="48.94664" lon="2.28154">
        <ele>84.1</ele>
        <time>2015-06-15T19:18:32.998Z</time>
      </trkpt>
      <trkpt lat="48.9466" lon="2.28163">
        <ele>84.4</ele>
        <time>2015-06-15T19:18:35.954Z</time>
      </trkpt>
      <trkpt lat="48.94659" lon="2.28166">
        <ele>84.4</ele>
        <time>2015-06-15T19:18:36.999Z</time>
      </trkpt>
      <trkpt lat="48.94656" lon="2.28178">
        <ele>86</ele>
        <time>2015-06-15T19:18:40.904Z</time>
      </trkpt>
      <trkpt lat="48.94655" lon="2.28181">
        <ele>86.5</ele>
        <time>2015-06-15T19:18:41.914Z</time>
      </trkpt>
      <trkpt lat="48.9465" lon="2.28191">
        <ele>87</ele>
        <time>2015-06-15T19:18:45.995Z</time>
      </trkpt>
      <trkpt lat="48.94649" lon="2.28194">
        <ele>87.1</ele>
        <time>2015-06-15T19:18:46.910Z</time>
      </trkpt>
      <trkpt lat="48.94644" lon="2.28202">
        <ele>87.3</ele>
        <time>2015-06-15T19:18:49.939Z</time>
      </trkpt>
      <trkpt lat="48.94642" lon="2.28205">
        <ele>87.5</ele>
        <time>2015-06-15T19:18:50.979Z</time>
      </trkpt>
      <trkpt lat="48.94637" lon="2.28212">
        <ele>87.3</ele>
        <time>2015-06-15T19:18:52.914Z</time>
      </trkpt>
      <trkpt lat="48.94635" lon="2.28216">
        <ele>87.1</ele>
        <time>2015-06-15T19:18:53.912Z</time>
      </trkpt>
      <trkpt lat="48.9463" lon="2.28225">
        <ele>87.3</ele>
        <time>2015-06-15T19:18:55.927Z</time>
      </trkpt>
      <trkpt lat="48.94629" lon="2.28229">
        <ele>88</ele>
        <time>2015-06-15T19:18:56.972Z</time>
      </trkpt>
      <trkpt lat="48.94625" lon="2.28237">
        <ele>88.2</ele>
        <time>2015-06-15T19:18:58.910Z</time>
      </trkpt>
      <trkpt lat="48.94623" lon="2.28241">
        <ele>88.2</ele>
        <time>2015-06-15T19:18:59.929Z</time>
      </trkpt>
      <trkpt lat="48.94619" lon="2.28249">
        <ele>88.4</ele>
        <time>2015-06-15T19:19:01.972Z</time>
      </trkpt>
      <trkpt lat="48.94618" lon="2.28253">
        <ele>88.5</ele>
        <time>2015-06-15T19:19:03.036Z</time>
      </trkpt>
      <trkpt lat="48.94615" lon="2.28261">
        <ele>88.7</ele>
        <time>2015-06-15T19:19:04.921Z</time>
      </trkpt>
      <trkpt lat="48.94613" lon="2.28266">
        <ele>88.7</ele>
        <time>2015-06-15T19:19:05.956Z</time>
      </trkpt>
      <trkpt lat="48.94608" lon="2.28274">
        <ele>88.9</ele>
        <time>2015-06-15T19:19:07.905Z</time>
      </trkpt>
      <trkpt lat="48.94605" lon="2.28278">
        <ele>89</ele>
        <time>2015-06-15T19:19:08.946Z</time>
      </trkpt>
      <trkpt lat="48.946" lon="2.28287">
        <ele>88.8</ele>
        <time>2015-06-15T19:19:10.944Z</time>
      </trkpt>
      <trkpt lat="48.94598" lon="2.28292">
        <ele>89.2</ele>
        <time>2015-06-15T19:19:11.956Z</time>
      </trkpt>
      <trkpt lat="48.94592" lon="2.28301">
        <ele>89.1</ele>
        <time>2015-06-15T19:19:13.944Z</time>
      </trkpt>
      <trkpt lat="48.94589" lon="2.28306">
        <ele>89.1</ele>
        <time>2015-06-15T19:19:14.972Z</time>
      </trkpt>
      <trkpt lat="48.94583" lon="2.28316">
        <ele>89.1</ele>
        <time>2015-06-15T19:19:16.900Z</time>
      </trkpt>
      <trkpt lat="48.9458" lon="2.28322">
        <ele>89.4</ele>
        <time>2015-06-15T19:19:17.909Z</time>
      </trkpt>
      <trkpt lat="48.94577" lon="2.28328">
        <ele>89.4</ele>
        <time>2015-06-15T19:19:18.907Z</time>
      </trkpt>
      <trkpt lat="48.94574" lon="2.28334">
        <ele>89.8</ele>
        <time>2015-06-15T19:19:19.906Z</time>
      </trkpt>
      <trkpt lat="48.9457" lon="2.28341">
        <ele>90.1</ele>
        <time>2015-06-15T19:19:20.976Z</time>
      </trkpt>
      <trkpt lat="48.94567" lon="2.28347">
        <ele>89.9</ele>
        <time>2015-06-15T19:19:21.989Z</time>
      </trkpt>
      <trkpt lat="48.94563" lon="2.28354">
        <ele>89.8</ele>
        <time>2015-06-15T19:19:22.906Z</time>
      </trkpt>
      <trkpt lat="48.9456" lon="2.2836">
        <ele>89.9</ele>
        <time>2015-06-15T19:19:23.929Z</time>
      </trkpt>
      <trkpt lat="48.94556" lon="2.28366">
        <ele>90</ele>
        <time>2015-06-15T19:19:24.937Z</time>
      </trkpt>
      <trkpt lat="48.94553" lon="2.28373">
        <ele>90.3</ele>
        <time>2015-06-15T19:19:25.942Z</time>
      </trkpt>
      <trkpt lat="48.9455" lon="2.2838">
        <ele>90.5</ele>
        <time>2015-06-15T19:19:26.972Z</time>
      </trkpt>
      <trkpt lat="48.94547" lon="2.28388">
        <ele>90.8</ele>
        <time>2015-06-15T19:19:27.987Z</time>
      </trkpt>
      <trkpt lat="48.94543" lon="2.28395">
        <ele>90.9</ele>
        <time>2015-06-15T19:19:28.932Z</time>
      </trkpt>
      <trkpt lat="48.9454" lon="2.28402">
        <ele>90.9</ele>
        <time>2015-06-15T19:19:29.891Z</time>
      </trkpt>
      <trkpt lat="48.94537" lon="2.28408">
        <ele>91</ele>
        <time>2015-06-15T19:19:30.911Z</time>
      </trkpt>
      <trkpt lat="48.94534" lon="2.28414">
        <ele>91.1</ele>
        <time>2015-06-15T19:19:31.937Z</time>
      </trkpt>
      <trkpt lat="48.94528" lon="2.28423">
        <ele>91.5</ele>
        <time>2015-06-15T19:19:33.900Z</time>
      </trkpt>
      <trkpt lat="48.94524" lon="2.28428">
        <ele>92.3</ele>
        <time>2015-06-15T19:19:34.937Z</time>
      </trkpt>
      <trkpt lat="48.94519" lon="2.28437">
        <ele>92.8</ele>
        <time>2015-06-15T19:19:36.957Z</time>
      </trkpt>
      <trkpt lat="48.94516" lon="2.28442">
        <ele>92.6</ele>
        <time>2015-06-15T19:19:37.930Z</time>
      </trkpt>
      <trkpt lat="48.94513" lon="2.28447">
        <ele>92.7</ele>
        <time>2015-06-15T19:19:38.972Z</time>
      </trkpt>
      <trkpt lat="48.9451" lon="2.28453">
        <ele>92.8</ele>
        <time>2015-06-15T19:19:39.867Z</time>
      </trkpt>
      <trkpt lat="48.94504" lon="2.28463">
        <ele>93.3</ele>
        <time>2015-06-15T19:19:41.899Z</time>
      </trkpt>
      <trkpt lat="48.94502" lon="2.28467">
        <ele>93.7</ele>
        <time>2015-06-15T19:19:42.954Z</time>
      </trkpt>
      <trkpt lat="48.94498" lon="2.28476">
        <ele>94.2</ele>
        <time>2015-06-15T19:19:44.974Z</time>
      </trkpt>
      <trkpt lat="48.94496" lon="2.28481">
        <ele>94.3</ele>
        <time>2015-06-15T19:19:45.932Z</time>
      </trkpt>
      <trkpt lat="48.94491" lon="2.28488">
        <ele>94.5</ele>
        <time>2015-06-15T19:19:47.957Z</time>
      </trkpt>
      <trkpt lat="48.94489" lon="2.28493">
        <ele>95.5</ele>
        <time>2015-06-15T19:19:48.992Z</time>
      </trkpt>
      <trkpt lat="48.94486" lon="2.28499">
        <ele>96.1</ele>
        <time>2015-06-15T19:19:49.930Z</time>
      </trkpt>
      <trkpt lat="48.94482" lon="2.28504">
        <ele>96.1</ele>
        <time>2015-06-15T19:19:51.011Z</time>
      </trkpt>
      <trkpt lat="48.94478" lon="2.28511">
        <ele>96.5</ele>
        <time>2015-06-15T19:19:51.897Z</time>
      </trkpt>
      <trkpt lat="48.94474" lon="2.28518">
        <ele>97.1</ele>
        <time>2015-06-15T19:19:52.905Z</time>
      </trkpt>
      <trkpt lat="48.9447" lon="2.28525">
        <ele>98.1</ele>
        <time>2015-06-15T19:19:53.915Z</time>
      </trkpt>
      <trkpt lat="48.94467" lon="2.28532">
        <ele>98.6</ele>
        <time>2015-06-15T19:19:54.921Z</time>
      </trkpt>
      <trkpt lat="48.94464" lon="2.28538">
        <ele>99.2</ele>
        <time>2015-06-15T19:19:55.955Z</time>
      </trkpt>
      <trkpt lat="48.9446" lon="2.28545">
        <ele>99.1</ele>
        <time>2015-06-15T19:19:56.973Z</time>
      </trkpt>
      <trkpt lat="48.94456" lon="2.28551">
        <ele>99.4</ele>
        <time>2015-06-15T19:19:57.896Z</time>
      </trkpt>
      <trkpt lat="48.94454" lon="2.28556">
        <ele>100</ele>
        <time>2015-06-15T19:19:58.896Z</time>
      </trkpt>
      <trkpt lat="48.9445" lon="2.28562">
        <ele>100.3</ele>
        <time>2015-06-15T19:19:59.903Z</time>
      </trkpt>
      <trkpt lat="48.94447" lon="2.28568">
        <ele>100.3</ele>
        <time>2015-06-15T19:20:00.915Z</time>
      </trkpt>
      <trkpt lat="48.94442" lon="2.28577">
        <ele>100.2</ele>
        <time>2015-06-15T19:20:03.021Z</time>
      </trkpt>
      <trkpt lat="48.94439" lon="2.28581">
        <ele>100.2</ele>
        <time>2015-06-15T19:20:03.926Z</time>
      </trkpt>
      <trkpt lat="48.94434" lon="2.2859">
        <ele>100.4</ele>
        <time>2015-06-15T19:20:05.953Z</time>
      </trkpt>
      <trkpt lat="48.94431" lon="2.28594">
        <ele>100.6</ele>
        <time>2015-06-15T19:20:06.893Z</time>
      </trkpt>
      <trkpt lat="48.94427" lon="2.28602">
        <ele>100.8</ele>
        <time>2015-06-15T19:20:08.981Z</time>
      </trkpt>
      <trkpt lat="48.94424" lon="2.28607">
        <ele>100.9</ele>
        <time>2015-06-15T19:20:09.909Z</time>
      </trkpt>
      <trkpt lat="48.94419" lon="2.28615">
        <ele>102</ele>
        <time>2015-06-15T19:20:11.982Z</time>
      </trkpt>
      <trkpt lat="48.94416" lon="2.2862">
        <ele>102.5</ele>
        <time>2015-06-15T19:20:12.891Z</time>
      </trkpt>
      <trkpt lat="48.94413" lon="2.28625">
        <ele>103</ele>
        <time>2015-06-15T19:20:13.894Z</time>
      </trkpt>
      <trkpt lat="48.9441" lon="2.28631">
        <ele>103.5</ele>
        <time>2015-06-15T19:20:14.937Z</time>
      </trkpt>
      <trkpt lat="48.94407" lon="2.28636">
        <ele>103.7</ele>
        <time>2015-06-15T19:20:15.860Z</time>
      </trkpt>
      <trkpt lat="48.94404" lon="2.28642">
        <ele>103.8</ele>
        <time>2015-06-15T19:20:16.898Z</time>
      </trkpt>
      <trkpt lat="48.94398" lon="2.28651">
        <ele>103.9</ele>
        <time>2015-06-15T19:20:18.919Z</time>
      </trkpt>
      <trkpt lat="48.94395" lon="2.28657">
        <ele>103.9</ele>
        <time>2015-06-15T19:20:19.973Z</time>
      </trkpt>
      <trkpt lat="48.94391" lon="2.28662">
        <ele>104.4</ele>
        <time>2015-06-15T19:20:20.932Z</time>
      </trkpt>
      <trkpt lat="48.94387" lon="2.28668">
        <ele>104.8</ele>
        <time>2015-06-15T19:20:21.955Z</time>
      </trkpt>
      <trkpt lat="48.94384" lon="2.28674">
        <ele>105.1</ele>
        <time>2015-06-15T19:20:22.960Z</time>
      </trkpt>
      <trkpt lat="48.94381" lon="2.28681">
        <ele>105.6</ele>
        <time>2015-06-15T19:20:23.967Z</time>
      </trkpt>
      <trkpt lat="48.94377" lon="2.28688">
        <ele>106</ele>
        <time>2015-06-15T19:20:24.989Z</time>
      </trkpt>
      <trkpt lat="48.94374" lon="2.28694">
        <ele>106.6</ele>
        <time>2015-06-15T19:20:25.995Z</time>
      </trkpt>
      <trkpt lat="48.94371" lon="2.28699">
        <ele>107</ele>
        <time>2015-06-15T19:20:27.020Z</time>
      </trkpt>
      <trkpt lat="48.94367" lon="2.28703">
        <ele>107</ele>
        <time>2015-06-15T19:20:27.912Z</time>
      </trkpt>
      <trkpt lat="48.94365" lon="2.28709">
        <ele>106</ele>
        <time>2015-06-15T19:20:28.938Z</time>
      </trkpt>
      <trkpt lat="48.94361" lon="2.28716">
        <ele>104.9</ele>
        <time>2015-06-15T19:20:30.030Z</time>
      </trkpt>
      <trkpt lat="48.94358" lon="2.28723">
        <ele>104.2</ele>
        <time>2015-06-15T19:20:30.904Z</time>
      </trkpt>
      <trkpt lat="48.94354" lon="2.28732">
        <ele>103.9</ele>
        <time>2015-06-15T19:20:31.932Z</time>
      </trkpt>
      <trkpt lat="48.94351" lon="2.28738">
        <ele>104</ele>
        <time>2015-06-15T19:20:33.016Z</time>
      </trkpt>
      <trkpt lat="48.94348" lon="2.28743">
        <ele>103.9</ele>
        <time>2015-06-15T19:20:33.899Z</time>
      </trkpt>
      <trkpt lat="48.94342" lon="2.28752">
        <ele>103</ele>
        <time>2015-06-15T19:20:35.984Z</time>
      </trkpt>
      <trkpt lat="48.9434" lon="2.28756">
        <ele>102.8</ele>
        <time>2015-06-15T19:20:37.015Z</time>
      </trkpt>
      <trkpt lat="48.94335" lon="2.28764">
        <ele>102.5</ele>
        <time>2015-06-15T19:20:39.004Z</time>
      </trkpt>
      <trkpt lat="48.94332" lon="2.28768">
        <ele>102.4</ele>
        <time>2015-06-15T19:20:40.026Z</time>
      </trkpt>
      <trkpt lat="48.94328" lon="2.28774">
        <ele>102.3</ele>
        <time>2015-06-15T19:20:40.905Z</time>
      </trkpt>
      <trkpt lat="48.94325" lon="2.28779">
        <ele>102.2</ele>
        <time>2015-06-15T19:20:41.909Z</time>
      </trkpt>
      <trkpt lat="48.94321" lon="2.28785">
        <ele>102.3</ele>
        <time>2015-06-15T19:20:42.967Z</time>
      </trkpt>
      <trkpt lat="48.94318" lon="2.28791">
        <ele>102.4</ele>
        <time>2015-06-15T19:20:43.978Z</time>
      </trkpt>
      <trkpt lat="48.94314" lon="2.28797">
        <ele>102.4</ele>
        <time>2015-06-15T19:20:45.004Z</time>
      </trkpt>
      <trkpt lat="48.94311" lon="2.28803">
        <ele>102.5</ele>
        <time>2015-06-15T19:20:45.917Z</time>
      </trkpt>
      <trkpt lat="48.94308" lon="2.28808">
        <ele>102.6</ele>
        <time>2015-06-15T19:20:46.929Z</time>
      </trkpt>
      <trkpt lat="48.94305" lon="2.28813">
        <ele>102.6</ele>
        <time>2015-06-15T19:20:47.943Z</time>
      </trkpt>
      <trkpt lat="48.94302" lon="2.28819">
        <ele>102.5</ele>
        <time>2015-06-15T19:20:48.950Z</time>
      </trkpt>
      <trkpt lat="48.94298" lon="2.28824">
        <ele>102.4</ele>
        <time>2015-06-15T19:20:49.874Z</time>
      </trkpt>
      <trkpt lat="48.94293" lon="2.28833">
        <ele>102.5</ele>
        <time>2015-06-15T19:20:51.942Z</time>
      </trkpt>
      <trkpt lat="48.9429" lon="2.28838">
        <ele>102.6</ele>
        <time>2015-06-15T19:20:53.036Z</time>
      </trkpt>
      <trkpt lat="48.94286" lon="2.28845">
        <ele>102.3</ele>
        <time>2015-06-15T19:20:53.914Z</time>
      </trkpt>
      <trkpt lat="48.94282" lon="2.28851">
        <ele>102.4</ele>
        <time>2015-06-15T19:20:54.922Z</time>
      </trkpt>
      <trkpt lat="48.94279" lon="2.28857">
        <ele>102.5</ele>
        <time>2015-06-15T19:20:55.959Z</time>
      </trkpt>
      <trkpt lat="48.94276" lon="2.28863">
        <ele>102.7</ele>
        <time>2015-06-15T19:20:56.973Z</time>
      </trkpt>
      <trkpt lat="48.94272" lon="2.28869">
        <ele>102.9</ele>
        <time>2015-06-15T19:20:57.921Z</time>
      </trkpt>
      <trkpt lat="48.94269" lon="2.28874">
        <ele>102.9</ele>
        <time>2015-06-15T19:20:58.928Z</time>
      </trkpt>
      <trkpt lat="48.94266" lon="2.28879">
        <ele>103.2</ele>
        <time>2015-06-15T19:20:59.935Z</time>
      </trkpt>
      <trkpt lat="48.94263" lon="2.28885">
        <ele>103.5</ele>
        <time>2015-06-15T19:21:00.945Z</time>
      </trkpt>
      <trkpt lat="48.9426" lon="2.28891">
        <ele>103.7</ele>
        <time>2015-06-15T19:21:01.966Z</time>
      </trkpt>
      <trkpt lat="48.94257" lon="2.28896">
        <ele>103.8</ele>
        <time>2015-06-15T19:21:03.016Z</time>
      </trkpt>
      <trkpt lat="48.94252" lon="2.28905">
        <ele>103.9</ele>
        <time>2015-06-15T19:21:05.746Z</time>
      </trkpt>
      <trkpt lat="48.9425" lon="2.28909">
        <ele>103.8</ele>
        <time>2015-06-15T19:21:05.914Z</time>
      </trkpt>
      <trkpt lat="48.94245" lon="2.28918">
        <ele>104</ele>
        <time>2015-06-15T19:21:07.873Z</time>
      </trkpt>
      <trkpt lat="48.94242" lon="2.28924">
        <ele>104.1</ele>
        <time>2015-06-15T19:21:08.972Z</time>
      </trkpt>
      <trkpt lat="48.94236" lon="2.28934">
        <ele>104.7</ele>
        <time>2015-06-15T19:21:09.875Z</time>
      </trkpt>
      <trkpt lat="48.94232" lon="2.28941">
        <ele>104.8</ele>
        <time>2015-06-15T19:21:10.876Z</time>
      </trkpt>
      <trkpt lat="48.94229" lon="2.28948">
        <ele>105</ele>
        <time>2015-06-15T19:21:11.891Z</time>
      </trkpt>
      <trkpt lat="48.94225" lon="2.28954">
        <ele>105.3</ele>
        <time>2015-06-15T19:21:12.902Z</time>
      </trkpt>
      <trkpt lat="48.94223" lon="2.2896">
        <ele>105.5</ele>
        <time>2015-06-15T19:21:13.901Z</time>
      </trkpt>
      <trkpt lat="48.9422" lon="2.28966">
        <ele>105.9</ele>
        <time>2015-06-15T19:21:14.942Z</time>
      </trkpt>
      <trkpt lat="48.94216" lon="2.28972">
        <ele>106.1</ele>
        <time>2015-06-15T19:21:15.937Z</time>
      </trkpt>
      <trkpt lat="48.94213" lon="2.28978">
        <ele>106.4</ele>
        <time>2015-06-15T19:21:16.946Z</time>
      </trkpt>
      <trkpt lat="48.9421" lon="2.28984">
        <ele>107.4</ele>
        <time>2015-06-15T19:21:17.873Z</time>
      </trkpt>
      <trkpt lat="48.94207" lon="2.28991">
        <ele>107.6</ele>
        <time>2015-06-15T19:21:18.878Z</time>
      </trkpt>
      <trkpt lat="48.94204" lon="2.28997">
        <ele>107.7</ele>
        <time>2015-06-15T19:21:19.888Z</time>
      </trkpt>
      <trkpt lat="48.94201" lon="2.29004">
        <ele>107.8</ele>
        <time>2015-06-15T19:21:20.946Z</time>
      </trkpt>
      <trkpt lat="48.94198" lon="2.29009">
        <ele>107.9</ele>
        <time>2015-06-15T19:21:22.021Z</time>
      </trkpt>
      <trkpt lat="48.94195" lon="2.29016">
        <ele>108</ele>
        <time>2015-06-15T19:21:22.985Z</time>
      </trkpt>
      <trkpt lat="48.94192" lon="2.29022">
        <ele>108</ele>
        <time>2015-06-15T19:21:23.890Z</time>
      </trkpt>
      <trkpt lat="48.94189" lon="2.29027">
        <ele>108.1</ele>
        <time>2015-06-15T19:21:24.893Z</time>
      </trkpt>
      <trkpt lat="48.94186" lon="2.29032">
        <ele>108.2</ele>
        <time>2015-06-15T19:21:25.894Z</time>
      </trkpt>
      <trkpt lat="48.94183" lon="2.29038">
        <ele>108.3</ele>
        <time>2015-06-15T19:21:26.954Z</time>
      </trkpt>
      <trkpt lat="48.94179" lon="2.29041">
        <ele>108.3</ele>
        <time>2015-06-15T19:21:27.891Z</time>
      </trkpt>
      <trkpt lat="48.94176" lon="2.29046">
        <ele>108.1</ele>
        <time>2015-06-15T19:21:28.896Z</time>
      </trkpt>
      <trkpt lat="48.94172" lon="2.29051">
        <ele>108.1</ele>
        <time>2015-06-15T19:21:29.922Z</time>
      </trkpt>
      <trkpt lat="48.94169" lon="2.29058">
        <ele>108.1</ele>
        <time>2015-06-15T19:21:30.933Z</time>
      </trkpt>
      <trkpt lat="48.94166" lon="2.29065">
        <ele>108.3</ele>
        <time>2015-06-15T19:21:31.936Z</time>
      </trkpt>
      <trkpt lat="48.94162" lon="2.29072">
        <ele>108.8</ele>
        <time>2015-06-15T19:21:33Z</time>
      </trkpt>
      <trkpt lat="48.94159" lon="2.2908">
        <ele>109.4</ele>
        <time>2015-06-15T19:21:33.877Z</time>
      </trkpt>
      <trkpt lat="48.94157" lon="2.29089">
        <ele>109</ele>
        <time>2015-06-15T19:21:34.876Z</time>
      </trkpt>
      <trkpt lat="48.94155" lon="2.29096">
        <ele>108.9</ele>
        <time>2015-06-15T19:21:35.882Z</time>
      </trkpt>
      <trkpt lat="48.94153" lon="2.29101">
        <ele>109.3</ele>
        <time>2015-06-15T19:21:36.887Z</time>
      </trkpt>
      <trkpt lat="48.9415" lon="2.29106">
        <ele>109.7</ele>
        <time>2015-06-15T19:21:37.911Z</time>
      </trkpt>
      <trkpt lat="48.94146" lon="2.2911">
        <ele>109.8</ele>
        <time>2015-06-15T19:21:38.930Z</time>
      </trkpt>
      <trkpt lat="48.9414" lon="2.29113">
        <ele>110.1</ele>
        <time>2015-06-15T19:21:39.940Z</time>
      </trkpt>
      <trkpt lat="48.94135" lon="2.29116">
        <ele>109.8</ele>
        <time>2015-06-15T19:21:40.962Z</time>
      </trkpt>
      <trkpt lat="48.9413" lon="2.29118">
        <ele>109.2</ele>
        <time>2015-06-15T19:21:41.899Z</time>
      </trkpt>
      <trkpt lat="48.94124" lon="2.2912">
        <ele>107.9</ele>
        <time>2015-06-15T19:21:42.906Z</time>
      </trkpt>
      <trkpt lat="48.94116" lon="2.29121">
        <ele>104.6</ele>
        <time>2015-06-15T19:21:43.936Z</time>
      </trkpt>
      <trkpt lat="48.9411" lon="2.29123">
        <ele>102.9</ele>
        <time>2015-06-15T19:21:44.969Z</time>
      </trkpt>
      <trkpt lat="48.94105" lon="2.29125">
        <ele>101.9</ele>
        <time>2015-06-15T19:21:45.903Z</time>
      </trkpt>
      <trkpt lat="48.941" lon="2.29129">
        <ele>101.3</ele>
        <time>2015-06-15T19:21:46.905Z</time>
      </trkpt>
      <trkpt lat="48.94095" lon="2.29132">
        <ele>101.1</ele>
        <time>2015-06-15T19:21:47.921Z</time>
      </trkpt>
      <trkpt lat="48.9409" lon="2.29136">
        <ele>100.6</ele>
        <time>2015-06-15T19:21:48.927Z</time>
      </trkpt>
      <trkpt lat="48.94086" lon="2.29139">
        <ele>99.8</ele>
        <time>2015-06-15T19:21:49.941Z</time>
      </trkpt>
      <trkpt lat="48.94081" lon="2.29142">
        <ele>99.5</ele>
        <time>2015-06-15T19:21:50.964Z</time>
      </trkpt>
      <trkpt lat="48.94073" lon="2.29144">
        <ele>99.1</ele>
        <time>2015-06-15T19:21:53.877Z</time>
      </trkpt>
      <trkpt lat="48.94071" lon="2.29143">
        <ele>98.8</ele>
        <time>2015-06-15T19:21:54.872Z</time>
      </trkpt>
      <trkpt lat="48.94066" lon="2.29135">
        <ele>92.6</ele>
        <time>2015-06-15T19:22:27.096Z</time>
      </trkpt>
      <trkpt lat="48.94065" lon="2.29132">
        <ele>92.6</ele>
        <time>2015-06-15T19:22:27.932Z</time>
      </trkpt>
      <trkpt lat="48.94062" lon="2.2912">
        <ele>92.2</ele>
        <time>2015-06-15T19:22:30.939Z</time>
      </trkpt>
      <trkpt lat="48.94061" lon="2.29115">
        <ele>92.3</ele>
        <time>2015-06-15T19:22:31.960Z</time>
      </trkpt>
      <trkpt lat="48.94059" lon="2.29104">
        <ele>92.2</ele>
        <time>2015-06-15T19:22:33.904Z</time>
      </trkpt>
      <trkpt lat="48.94058" lon="2.29099">
        <ele>92</ele>
        <time>2015-06-15T19:22:34.916Z</time>
      </trkpt>
      <trkpt lat="48.94056" lon="2.29088">
        <ele>91.6</ele>
        <time>2015-06-15T19:22:36.935Z</time>
      </trkpt>
      <trkpt lat="48.94055" lon="2.29083">
        <ele>91.5</ele>
        <time>2015-06-15T19:22:37.890Z</time>
      </trkpt>
      <trkpt lat="48.94053" lon="2.29071">
        <ele>91.5</ele>
        <time>2015-06-15T19:22:39.945Z</time>
      </trkpt>
      <trkpt lat="48.94052" lon="2.29065">
        <ele>91.6</ele>
        <time>2015-06-15T19:22:40.883Z</time>
      </trkpt>
      <trkpt lat="48.94049" lon="2.29053">
        <ele>91.1</ele>
        <time>2015-06-15T19:22:42.901Z</time>
      </trkpt>
      <trkpt lat="48.94048" lon="2.29047">
        <ele>90.7</ele>
        <time>2015-06-15T19:22:43.918Z</time>
      </trkpt>
      <trkpt lat="48.94046" lon="2.29033">
        <ele>90.1</ele>
        <time>2015-06-15T19:22:45.885Z</time>
      </trkpt>
      <trkpt lat="48.94045" lon="2.29026">
        <ele>89.8</ele>
        <time>2015-06-15T19:22:47Z</time>
      </trkpt>
      <trkpt lat="48.94043" lon="2.29019">
        <ele>89.2</ele>
        <time>2015-06-15T19:22:47.886Z</time>
      </trkpt>
      <trkpt lat="48.94042" lon="2.29011">
        <ele>88.4</ele>
        <time>2015-06-15T19:22:49.021Z</time>
      </trkpt>
      <trkpt lat="48.9404" lon="2.29003">
        <ele>87.6</ele>
        <time>2015-06-15T19:22:49.884Z</time>
      </trkpt>
      <trkpt lat="48.94039" lon="2.28995">
        <ele>87.2</ele>
        <time>2015-06-15T19:22:51.021Z</time>
      </trkpt>
      <trkpt lat="48.94037" lon="2.28987">
        <ele>86.8</ele>
        <time>2015-06-15T19:22:51.972Z</time>
      </trkpt>
      <trkpt lat="48.94035" lon="2.2898">
        <ele>86.4</ele>
        <time>2015-06-15T19:22:52.891Z</time>
      </trkpt>
      <trkpt lat="48.94034" lon="2.28972">
        <ele>86.4</ele>
        <time>2015-06-15T19:22:53.921Z</time>
      </trkpt>
      <trkpt lat="48.94033" lon="2.28964">
        <ele>86.6</ele>
        <time>2015-06-15T19:22:54.939Z</time>
      </trkpt>
      <trkpt lat="48.94032" lon="2.28957">
        <ele>86.3</ele>
        <time>2015-06-15T19:22:55.971Z</time>
      </trkpt>
      <trkpt lat="48.9403" lon="2.28949">
        <ele>86</ele>
        <time>2015-06-15T19:22:56.990Z</time>
      </trkpt>
      <trkpt lat="48.94028" lon="2.28941">
        <ele>85.8</ele>
        <time>2015-06-15T19:22:57.904Z</time>
      </trkpt>
      <trkpt lat="48.94027" lon="2.28932">
        <ele>86.4</ele>
        <time>2015-06-15T19:22:58.922Z</time>
      </trkpt>
      <trkpt lat="48.94025" lon="2.28924">
        <ele>86.4</ele>
        <time>2015-06-15T19:22:59.902Z</time>
      </trkpt>
      <trkpt lat="48.94023" lon="2.28916">
        <ele>86.4</ele>
        <time>2015-06-15T19:23:00.864Z</time>
      </trkpt>
      <trkpt lat="48.94021" lon="2.28907">
        <ele>86.1</ele>
        <time>2015-06-15T19:23:01.926Z</time>
      </trkpt>
      <trkpt lat="48.9402" lon="2.28899">
        <ele>85.8</ele>
        <time>2015-06-15T19:23:03.012Z</time>
      </trkpt>
      <trkpt lat="48.94018" lon="2.28891">
        <ele>85.3</ele>
        <time>2015-06-15T19:23:03.901Z</time>
      </trkpt>
      <trkpt lat="48.94016" lon="2.28883">
        <ele>85.1</ele>
        <time>2015-06-15T19:23:04.940Z</time>
      </trkpt>
      <trkpt lat="48.94015" lon="2.28875">
        <ele>85.1</ele>
        <time>2015-06-15T19:23:05.987Z</time>
      </trkpt>
      <trkpt lat="48.94013" lon="2.28867">
        <ele>85</ele>
        <time>2015-06-15T19:23:06.899Z</time>
      </trkpt>
      <trkpt lat="48.94012" lon="2.28859">
        <ele>85</ele>
        <time>2015-06-15T19:23:07.912Z</time>
      </trkpt>
      <trkpt lat="48.94011" lon="2.28851">
        <ele>84.7</ele>
        <time>2015-06-15T19:23:08.976Z</time>
      </trkpt>
      <trkpt lat="48.94009" lon="2.28843">
        <ele>84.5</ele>
        <time>2015-06-15T19:23:09.887Z</time>
      </trkpt>
      <trkpt lat="48.94008" lon="2.28835">
        <ele>84.4</ele>
        <time>2015-06-15T19:23:10.925Z</time>
      </trkpt>
      <trkpt lat="48.94006" lon="2.28826">
        <ele>84.4</ele>
        <time>2015-06-15T19:23:11.939Z</time>
      </trkpt>
      <trkpt lat="48.94004" lon="2.28818">
        <ele>84.1</ele>
        <time>2015-06-15T19:23:12.946Z</time>
      </trkpt>
      <trkpt lat="48.94003" lon="2.2881">
        <ele>83.5</ele>
        <time>2015-06-15T19:23:13.924Z</time>
      </trkpt>
      <trkpt lat="48.94001" lon="2.28802">
        <ele>83.2</ele>
        <time>2015-06-15T19:23:14.967Z</time>
      </trkpt>
      <trkpt lat="48.94" lon="2.28794">
        <ele>82.8</ele>
        <time>2015-06-15T19:23:15.923Z</time>
      </trkpt>
      <trkpt lat="48.93998" lon="2.28785">
        <ele>82.4</ele>
        <time>2015-06-15T19:23:16.909Z</time>
      </trkpt>
      <trkpt lat="48.93996" lon="2.28777">
        <ele>81.8</ele>
        <time>2015-06-15T19:23:17.954Z</time>
      </trkpt>
      <trkpt lat="48.93994" lon="2.28769">
        <ele>81.7</ele>
        <time>2015-06-15T19:23:18.977Z</time>
      </trkpt>
      <trkpt lat="48.93993" lon="2.28761">
        <ele>81.7</ele>
        <time>2015-06-15T19:23:19.916Z</time>
      </trkpt>
      <trkpt lat="48.93991" lon="2.28754">
        <ele>81.8</ele>
        <time>2015-06-15T19:23:21.013Z</time>
      </trkpt>
      <trkpt lat="48.9399" lon="2.28746">
        <ele>82</ele>
        <time>2015-06-15T19:23:21.906Z</time>
      </trkpt>
      <trkpt lat="48.93988" lon="2.28738">
        <ele>81.9</ele>
        <time>2015-06-15T19:23:22.916Z</time>
      </trkpt>
      <trkpt lat="48.93987" lon="2.2873">
        <ele>81.9</ele>
        <time>2015-06-15T19:23:23.928Z</time>
      </trkpt>
      <trkpt lat="48.93986" lon="2.28722">
        <ele>81.8</ele>
        <time>2015-06-15T19:23:24.935Z</time>
      </trkpt>
      <trkpt lat="48.93983" lon="2.2871">
        <ele>82</ele>
        <time>2015-06-15T19:23:26.976Z</time>
      </trkpt>
      <trkpt lat="48.93982" lon="2.28704">
        <ele>82.1</ele>
        <time>2015-06-15T19:23:27.934Z</time>
      </trkpt>
      <trkpt lat="48.9398" lon="2.28693">
        <ele>81.9</ele>
        <time>2015-06-15T19:23:29.969Z</time>
      </trkpt>
      <trkpt lat="48.9398" lon="2.28689">
        <ele>82</ele>
        <time>2015-06-15T19:23:30.952Z</time>
      </trkpt>
      <trkpt lat="48.93982" lon="2.28676">
        <ele>82.6</ele>
        <time>2015-06-15T19:23:35.015Z</time>
      </trkpt>
      <trkpt lat="48.93982" lon="2.28673">
        <ele>82.5</ele>
        <time>2015-06-15T19:23:35.952Z</time>
      </trkpt>
      <trkpt lat="48.93979" lon="2.28663">
        <ele>83.3</ele>
        <time>2015-06-15T19:23:39.009Z</time>
      </trkpt>
      <trkpt lat="48.93977" lon="2.28659">
        <ele>83.6</ele>
        <time>2015-06-15T19:23:39.929Z</time>
      </trkpt>
      <trkpt lat="48.93974" lon="2.28649">
        <ele>83.9</ele>
        <time>2015-06-15T19:23:42.941Z</time>
      </trkpt>
      <trkpt lat="48.93973" lon="2.28644">
        <ele>83.7</ele>
        <time>2015-06-15T19:23:43.958Z</time>
      </trkpt>
      <trkpt lat="48.9397" lon="2.28633">
        <ele>83.8</ele>
        <time>2015-06-15T19:23:45.901Z</time>
      </trkpt>
      <trkpt lat="48.93969" lon="2.28627">
        <ele>83.9</ele>
        <time>2015-06-15T19:23:46.869Z</time>
      </trkpt>
      <trkpt lat="48.93967" lon="2.28617">
        <ele>83.5</ele>
        <time>2015-06-15T19:23:48.963Z</time>
      </trkpt>
      <trkpt lat="48.93965" lon="2.28611">
        <ele>83.6</ele>
        <time>2015-06-15T19:23:49.879Z</time>
      </trkpt>
      <trkpt lat="48.93961" lon="2.28599">
        <ele>84</ele>
        <time>2015-06-15T19:23:51.905Z</time>
      </trkpt>
      <trkpt lat="48.9396" lon="2.28592">
        <ele>84.3</ele>
        <time>2015-06-15T19:23:52.937Z</time>
      </trkpt>
      <trkpt lat="48.93958" lon="2.28585">
        <ele>84.5</ele>
        <time>2015-06-15T19:23:53.957Z</time>
      </trkpt>
      <trkpt lat="48.93956" lon="2.28578">
        <ele>84.6</ele>
        <time>2015-06-15T19:23:55.012Z</time>
      </trkpt>
      <trkpt lat="48.93955" lon="2.28571">
        <ele>84.4</ele>
        <time>2015-06-15T19:23:55.914Z</time>
      </trkpt>
      <trkpt lat="48.93953" lon="2.28564">
        <ele>84.1</ele>
        <time>2015-06-15T19:23:57.036Z</time>
      </trkpt>
      <trkpt lat="48.93952" lon="2.28557">
        <ele>84.5</ele>
        <time>2015-06-15T19:23:57.910Z</time>
      </trkpt>
      <trkpt lat="48.9395" lon="2.28551">
        <ele>85</ele>
        <time>2015-06-15T19:23:58.919Z</time>
      </trkpt>
      <trkpt lat="48.93948" lon="2.28544">
        <ele>85.5</ele>
        <time>2015-06-15T19:23:59.948Z</time>
      </trkpt>
      <trkpt lat="48.93946" lon="2.28537">
        <ele>85.5</ele>
        <time>2015-06-15T19:24:01.012Z</time>
      </trkpt>
      <trkpt lat="48.93944" lon="2.2853">
        <ele>85.4</ele>
        <time>2015-06-15T19:24:01.960Z</time>
      </trkpt>
      <trkpt lat="48.93943" lon="2.28523">
        <ele>85.4</ele>
        <time>2015-06-15T19:24:03.261Z</time>
      </trkpt>
      <trkpt lat="48.93941" lon="2.28515">
        <ele>85.4</ele>
        <time>2015-06-15T19:24:03.902Z</time>
      </trkpt>
      <trkpt lat="48.9394" lon="2.28508">
        <ele>85.3</ele>
        <time>2015-06-15T19:24:04.914Z</time>
      </trkpt>
      <trkpt lat="48.93938" lon="2.285">
        <ele>85.1</ele>
        <time>2015-06-15T19:24:05.920Z</time>
      </trkpt>
      <trkpt lat="48.93937" lon="2.28493">
        <ele>85</ele>
        <time>2015-06-15T19:24:06.937Z</time>
      </trkpt>
      <trkpt lat="48.93936" lon="2.28486">
        <ele>84.9</ele>
        <time>2015-06-15T19:24:07.966Z</time>
      </trkpt>
      <trkpt lat="48.93934" lon="2.28479">
        <ele>84.6</ele>
        <time>2015-06-15T19:24:08.982Z</time>
      </trkpt>
      <trkpt lat="48.93932" lon="2.28472">
        <ele>84.3</ele>
        <time>2015-06-15T19:24:09.897Z</time>
      </trkpt>
      <trkpt lat="48.93931" lon="2.28464">
        <ele>84</ele>
        <time>2015-06-15T19:24:10.912Z</time>
      </trkpt>
      <trkpt lat="48.93929" lon="2.28456">
        <ele>84.1</ele>
        <time>2015-06-15T19:24:11.927Z</time>
      </trkpt>
      <trkpt lat="48.93928" lon="2.28448">
        <ele>83.9</ele>
        <time>2015-06-15T19:24:12.927Z</time>
      </trkpt>
      <trkpt lat="48.93926" lon="2.28439">
        <ele>84.1</ele>
        <time>2015-06-15T19:24:13.972Z</time>
      </trkpt>
      <trkpt lat="48.93924" lon="2.2843">
        <ele>84.2</ele>
        <time>2015-06-15T19:24:14.987Z</time>
      </trkpt>
      <trkpt lat="48.93922" lon="2.28422">
        <ele>84.4</ele>
        <time>2015-06-15T19:24:15.898Z</time>
      </trkpt>
      <trkpt lat="48.93921" lon="2.28413">
        <ele>84.3</ele>
        <time>2015-06-15T19:24:16.904Z</time>
      </trkpt>
      <trkpt lat="48.93919" lon="2.28405">
        <ele>84.5</ele>
        <time>2015-06-15T19:24:17.935Z</time>
      </trkpt>
      <trkpt lat="48.93918" lon="2.28397">
        <ele>84.4</ele>
        <time>2015-06-15T19:24:18.946Z</time>
      </trkpt>
      <trkpt lat="48.93916" lon="2.28389">
        <ele>84.5</ele>
        <time>2015-06-15T19:24:19.951Z</time>
      </trkpt>
      <trkpt lat="48.93915" lon="2.28381">
        <ele>84.5</ele>
        <time>2015-06-15T19:24:20.983Z</time>
      </trkpt>
      <trkpt lat="48.93913" lon="2.28373">
        <ele>84.5</ele>
        <time>2015-06-15T19:24:21.886Z</time>
      </trkpt>
      <trkpt lat="48.93911" lon="2.28365">
        <ele>84.3</ele>
        <time>2015-06-15T19:24:22.907Z</time>
      </trkpt>
      <trkpt lat="48.93909" lon="2.28357">
        <ele>84.2</ele>
        <time>2015-06-15T19:24:23.921Z</time>
      </trkpt>
      <trkpt lat="48.93907" lon="2.28349">
        <ele>84.3</ele>
        <time>2015-06-15T19:24:24.931Z</time>
      </trkpt>
      <trkpt lat="48.93906" lon="2.28341">
        <ele>84.4</ele>
        <time>2015-06-15T19:24:25.941Z</time>
      </trkpt>
      <trkpt lat="48.93904" lon="2.28334">
        <ele>84.6</ele>
        <time>2015-06-15T19:24:26.956Z</time>
      </trkpt>
      <trkpt lat="48.93902" lon="2.28326">
        <ele>84.5</ele>
        <time>2015-06-15T19:24:27.963Z</time>
      </trkpt>
      <trkpt lat="48.93901" lon="2.28319">
        <ele>84.4</ele>
        <time>2015-06-15T19:24:28.883Z</time>
      </trkpt>
      <trkpt lat="48.93899" lon="2.28311">
        <ele>84.3</ele>
        <time>2015-06-15T19:24:29.889Z</time>
      </trkpt>
      <trkpt lat="48.93898" lon="2.28304">
        <ele>84.4</ele>
        <time>2015-06-15T19:24:30.896Z</time>
      </trkpt>
      <trkpt lat="48.93896" lon="2.28296">
        <ele>84.3</ele>
        <time>2015-06-15T19:24:31.902Z</time>
      </trkpt>
      <trkpt lat="48.93895" lon="2.28288">
        <ele>84.2</ele>
        <time>2015-06-15T19:24:32.961Z</time>
      </trkpt>
      <trkpt lat="48.93893" lon="2.2828">
        <ele>84.2</ele>
        <time>2015-06-15T19:24:33.891Z</time>
      </trkpt>
      <trkpt lat="48.93892" lon="2.28272">
        <ele>83.8</ele>
        <time>2015-06-15T19:24:34.884Z</time>
      </trkpt>
      <trkpt lat="48.9389" lon="2.28264">
        <ele>83.8</ele>
        <time>2015-06-15T19:24:35.887Z</time>
      </trkpt>
      <trkpt lat="48.93888" lon="2.28256">
        <ele>83.7</ele>
        <time>2015-06-15T19:24:36.902Z</time>
      </trkpt>
      <trkpt lat="48.93887" lon="2.28248">
        <ele>83.6</ele>
        <time>2015-06-15T19:24:37.910Z</time>
      </trkpt>
      <trkpt lat="48.93885" lon="2.28239">
        <ele>83.2</ele>
        <time>2015-06-15T19:24:38.947Z</time>
      </trkpt>
      <trkpt lat="48.93883" lon="2.28231">
        <ele>82.9</ele>
        <time>2015-06-15T19:24:39.943Z</time>
      </trkpt>
      <trkpt lat="48.93881" lon="2.28223">
        <ele>82.8</ele>
        <time>2015-06-15T19:24:40.973Z</time>
      </trkpt>
      <trkpt lat="48.9388" lon="2.28215">
        <ele>82.4</ele>
        <time>2015-06-15T19:24:41.925Z</time>
      </trkpt>
      <trkpt lat="48.93878" lon="2.28207">
        <ele>82.4</ele>
        <time>2015-06-15T19:24:42.911Z</time>
      </trkpt>
      <trkpt lat="48.93877" lon="2.282">
        <ele>82.6</ele>
        <time>2015-06-15T19:24:43.959Z</time>
      </trkpt>
      <trkpt lat="48.93876" lon="2.28192">
        <ele>83</ele>
        <time>2015-06-15T19:24:44.976Z</time>
      </trkpt>
      <trkpt lat="48.93874" lon="2.28183">
        <ele>83.2</ele>
        <time>2015-06-15T19:24:45.884Z</time>
      </trkpt>
      <trkpt lat="48.93873" lon="2.28175">
        <ele>83.2</ele>
        <time>2015-06-15T19:24:46.889Z</time>
      </trkpt>
      <trkpt lat="48.93871" lon="2.28167">
        <ele>82.9</ele>
        <time>2015-06-15T19:24:47.902Z</time>
      </trkpt>
      <trkpt lat="48.93869" lon="2.28159">
        <ele>83</ele>
        <time>2015-06-15T19:24:48.910Z</time>
      </trkpt>
      <trkpt lat="48.93867" lon="2.2815">
        <ele>83</ele>
        <time>2015-06-15T19:24:49.918Z</time>
      </trkpt>
      <trkpt lat="48.93865" lon="2.28142">
        <ele>83</ele>
        <time>2015-06-15T19:24:50.914Z</time>
      </trkpt>
      <trkpt lat="48.93864" lon="2.28134">
        <ele>83.3</ele>
        <time>2015-06-15T19:24:51.932Z</time>
      </trkpt>
      <trkpt lat="48.93862" lon="2.28126">
        <ele>83.7</ele>
        <time>2015-06-15T19:24:52.941Z</time>
      </trkpt>
      <trkpt lat="48.9386" lon="2.28118">
        <ele>84.3</ele>
        <time>2015-06-15T19:24:53.951Z</time>
      </trkpt>
      <trkpt lat="48.93859" lon="2.2811">
        <ele>85.2</ele>
        <time>2015-06-15T19:24:54.866Z</time>
      </trkpt>
      <trkpt lat="48.93857" lon="2.28103">
        <ele>85.7</ele>
        <time>2015-06-15T19:24:55.887Z</time>
      </trkpt>
      <trkpt lat="48.93856" lon="2.28096">
        <ele>85.8</ele>
        <time>2015-06-15T19:24:56.930Z</time>
      </trkpt>
      <trkpt lat="48.93854" lon="2.28088">
        <ele>85.9</ele>
        <time>2015-06-15T19:24:57.946Z</time>
      </trkpt>
      <trkpt lat="48.93853" lon="2.28081">
        <ele>86</ele>
        <time>2015-06-15T19:24:58.962Z</time>
      </trkpt>
      <trkpt lat="48.93852" lon="2.28073">
        <ele>86.1</ele>
        <time>2015-06-15T19:25:00.172Z</time>
      </trkpt>
      <trkpt lat="48.93851" lon="2.28066">
        <ele>86.1</ele>
        <time>2015-06-15T19:25:00.920Z</time>
      </trkpt>
      <trkpt lat="48.93849" lon="2.28059">
        <ele>86.3</ele>
        <time>2015-06-15T19:25:01.924Z</time>
      </trkpt>
      <trkpt lat="48.93849" lon="2.28052">
        <ele>86.3</ele>
        <time>2015-06-15T19:25:02.980Z</time>
      </trkpt>
      <trkpt lat="48.93847" lon="2.28045">
        <ele>86.4</ele>
        <time>2015-06-15T19:25:03.904Z</time>
      </trkpt>
      <trkpt lat="48.93846" lon="2.28039">
        <ele>86.6</ele>
        <time>2015-06-15T19:25:04.938Z</time>
      </trkpt>
      <trkpt lat="48.93844" lon="2.28032">
        <ele>86.7</ele>
        <time>2015-06-15T19:25:05.910Z</time>
      </trkpt>
      <trkpt lat="48.93843" lon="2.28025">
        <ele>86.7</ele>
        <time>2015-06-15T19:25:06.911Z</time>
      </trkpt>
      <trkpt lat="48.93841" lon="2.28017">
        <ele>86.6</ele>
        <time>2015-06-15T19:25:07.919Z</time>
      </trkpt>
      <trkpt lat="48.93839" lon="2.28011">
        <ele>86.6</ele>
        <time>2015-06-15T19:25:08.945Z</time>
      </trkpt>
      <trkpt lat="48.93838" lon="2.28003">
        <ele>86.6</ele>
        <time>2015-06-15T19:25:09.950Z</time>
      </trkpt>
      <trkpt lat="48.93836" lon="2.27996">
        <ele>86.5</ele>
        <time>2015-06-15T19:25:10.884Z</time>
      </trkpt>
      <trkpt lat="48.93834" lon="2.27989">
        <ele>86.5</ele>
        <time>2015-06-15T19:25:11.899Z</time>
      </trkpt>
      <trkpt lat="48.93832" lon="2.27982">
        <ele>86.7</ele>
        <time>2015-06-15T19:25:12.906Z</time>
      </trkpt>
      <trkpt lat="48.93831" lon="2.27975">
        <ele>86.7</ele>
        <time>2015-06-15T19:25:13.942Z</time>
      </trkpt>
      <trkpt lat="48.9383" lon="2.27968">
        <ele>86.7</ele>
        <time>2015-06-15T19:25:14.982Z</time>
      </trkpt>
      <trkpt lat="48.93829" lon="2.27961">
        <ele>86.5</ele>
        <time>2015-06-15T19:25:15.964Z</time>
      </trkpt>
      <trkpt lat="48.93828" lon="2.27954">
        <ele>86.2</ele>
        <time>2015-06-15T19:25:16.978Z</time>
      </trkpt>
      <trkpt lat="48.93826" lon="2.27948">
        <ele>86.2</ele>
        <time>2015-06-15T19:25:17.899Z</time>
      </trkpt>
      <trkpt lat="48.93825" lon="2.27941">
        <ele>86</ele>
        <time>2015-06-15T19:25:18.918Z</time>
      </trkpt>
      <trkpt lat="48.93824" lon="2.27934">
        <ele>85.9</ele>
        <time>2015-06-15T19:25:19.929Z</time>
      </trkpt>
      <trkpt lat="48.93822" lon="2.27928">
        <ele>85.8</ele>
        <time>2015-06-15T19:25:20.966Z</time>
      </trkpt>
      <trkpt lat="48.93821" lon="2.27921">
        <ele>85.7</ele>
        <time>2015-06-15T19:25:22.146Z</time>
      </trkpt>
      <trkpt lat="48.9382" lon="2.27914">
        <ele>85.7</ele>
        <time>2015-06-15T19:25:22.899Z</time>
      </trkpt>
      <trkpt lat="48.93819" lon="2.27907">
        <ele>85.8</ele>
        <time>2015-06-15T19:25:23.894Z</time>
      </trkpt>
      <trkpt lat="48.93817" lon="2.279">
        <ele>85.6</ele>
        <time>2015-06-15T19:25:24.896Z</time>
      </trkpt>
      <trkpt lat="48.93816" lon="2.27893">
        <ele>85.1</ele>
        <time>2015-06-15T19:25:25.905Z</time>
      </trkpt>
      <trkpt lat="48.93815" lon="2.27886">
        <ele>85</ele>
        <time>2015-06-15T19:25:27.012Z</time>
      </trkpt>
      <trkpt lat="48.93813" lon="2.27873">
        <ele>85.2</ele>
        <time>2015-06-15T19:25:28.931Z</time>
      </trkpt>
      <trkpt lat="48.93813" lon="2.27867">
        <ele>85.2</ele>
        <time>2015-06-15T19:25:29.993Z</time>
      </trkpt>
      <trkpt lat="48.93816" lon="2.27856">
        <ele>85.4</ele>
        <time>2015-06-15T19:25:31.898Z</time>
      </trkpt>
      <trkpt lat="48.93818" lon="2.27851">
        <ele>85.5</ele>
        <time>2015-06-15T19:25:33.026Z</time>
      </trkpt>
      <trkpt lat="48.93821" lon="2.27842">
        <ele>85.5</ele>
        <time>2015-06-15T19:25:34.893Z</time>
      </trkpt>
      <trkpt lat="48.93822" lon="2.27838">
        <ele>85.5</ele>
        <time>2015-06-15T19:25:35.909Z</time>
      </trkpt>
      <trkpt lat="48.93823" lon="2.27828">
        <ele>85.4</ele>
        <time>2015-06-15T19:25:37.965Z</time>
      </trkpt>
      <trkpt lat="48.93823" lon="2.27823">
        <ele>85.4</ele>
        <time>2015-06-15T19:25:39.024Z</time>
      </trkpt>
      <trkpt lat="48.93821" lon="2.27813">
        <ele>85.9</ele>
        <time>2015-06-15T19:25:40.925Z</time>
      </trkpt>
      <trkpt lat="48.9382" lon="2.27809">
        <ele>86.1</ele>
        <time>2015-06-15T19:25:41.949Z</time>
      </trkpt>
      <trkpt lat="48.93816" lon="2.27799">
        <ele>85.8</ele>
        <time>2015-06-15T19:25:45.948Z</time>
      </trkpt>
      <trkpt lat="48.93816" lon="2.27799">
        <ele>85.5</ele>
        <time>2015-06-15T19:25:46.916Z</time>
      </trkpt>
      <trkpt lat="48.93816" lon="2.27799">
        <ele>85.4</ele>
        <time>2015-06-15T19:25:51.031Z</time>
      </trkpt>
      <trkpt lat="48.93813" lon="2.27798">
        <ele>85.6</ele>
        <time>2015-06-15T19:25:51.910Z</time>
      </trkpt>
      <trkpt lat="48.93806" lon="2.27791">
        <ele>85.6</ele>
        <time>2015-06-15T19:25:55.959Z</time>
      </trkpt>
      <trkpt lat="48.93804" lon="2.27788">
        <ele>85.5</ele>
        <time>2015-06-15T19:25:56.982Z</time>
      </trkpt>
      <trkpt lat="48.93798" lon="2.2778">
        <ele>85.5</ele>
        <time>2015-06-15T19:25:59.954Z</time>
      </trkpt>
      <trkpt lat="48.93796" lon="2.27775">
        <ele>85.7</ele>
        <time>2015-06-15T19:26:00.913Z</time>
      </trkpt>
      <trkpt lat="48.93794" lon="2.27766">
        <ele>85.2</ele>
        <time>2015-06-15T19:26:03.088Z</time>
      </trkpt>
      <trkpt lat="48.93793" lon="2.27761">
        <ele>85.2</ele>
        <time>2015-06-15T19:26:03.928Z</time>
      </trkpt>
      <trkpt lat="48.9379" lon="2.2775">
        <ele>84.7</ele>
        <time>2015-06-15T19:26:05.920Z</time>
      </trkpt>
      <trkpt lat="48.93789" lon="2.27744">
        <ele>84.6</ele>
        <time>2015-06-15T19:26:06.934Z</time>
      </trkpt>
      <trkpt lat="48.93787" lon="2.27737">
        <ele>84.3</ele>
        <time>2015-06-15T19:26:07.898Z</time>
      </trkpt>
      <trkpt lat="48.93786" lon="2.27731">
        <ele>84</ele>
        <time>2015-06-15T19:26:08.972Z</time>
      </trkpt>
      <trkpt lat="48.93784" lon="2.27717">
        <ele>83.4</ele>
        <time>2015-06-15T19:26:10.963Z</time>
      </trkpt>
      <trkpt lat="48.93783" lon="2.27711">
        <ele>83.2</ele>
        <time>2015-06-15T19:26:11.903Z</time>
      </trkpt>
      <trkpt lat="48.9378" lon="2.27698">
        <ele>83.3</ele>
        <time>2015-06-15T19:26:13.979Z</time>
      </trkpt>
      <trkpt lat="48.93779" lon="2.27692">
        <ele>83.4</ele>
        <time>2015-06-15T19:26:14.963Z</time>
      </trkpt>
      <trkpt lat="48.93778" lon="2.27685">
        <ele>83.5</ele>
        <time>2015-06-15T19:26:15.977Z</time>
      </trkpt>
      <trkpt lat="48.93776" lon="2.27678">
        <ele>83.6</ele>
        <time>2015-06-15T19:26:16.981Z</time>
      </trkpt>
      <trkpt lat="48.93773" lon="2.27666">
        <ele>83.4</ele>
        <time>2015-06-15T19:26:18.913Z</time>
      </trkpt>
      <trkpt lat="48.93772" lon="2.27661">
        <ele>83.4</ele>
        <time>2015-06-15T19:26:19.915Z</time>
      </trkpt>
      <trkpt lat="48.93769" lon="2.27649">
        <ele>83.5</ele>
        <time>2015-06-15T19:26:21.939Z</time>
      </trkpt>
      <trkpt lat="48.93768" lon="2.27643">
        <ele>83.7</ele>
        <time>2015-06-15T19:26:22.903Z</time>
      </trkpt>
      <trkpt lat="48.93765" lon="2.2763">
        <ele>84</ele>
        <time>2015-06-15T19:26:24.941Z</time>
      </trkpt>
      <trkpt lat="48.93764" lon="2.27623">
        <ele>84</ele>
        <time>2015-06-15T19:26:25.967Z</time>
      </trkpt>
      <trkpt lat="48.93763" lon="2.27616">
        <ele>84</ele>
        <time>2015-06-15T19:26:26.984Z</time>
      </trkpt>
      <trkpt lat="48.93761" lon="2.27609">
        <ele>84</ele>
        <time>2015-06-15T19:26:27.902Z</time>
      </trkpt>
      <trkpt lat="48.9376" lon="2.27602">
        <ele>83.9</ele>
        <time>2015-06-15T19:26:28.931Z</time>
      </trkpt>
      <trkpt lat="48.93758" lon="2.27594">
        <ele>83.6</ele>
        <time>2015-06-15T19:26:29.948Z</time>
      </trkpt>
      <trkpt lat="48.93757" lon="2.27587">
        <ele>83.7</ele>
        <time>2015-06-15T19:26:30.951Z</time>
      </trkpt>
      <trkpt lat="48.93756" lon="2.2758">
        <ele>84</ele>
        <time>2015-06-15T19:26:31.987Z</time>
      </trkpt>
      <trkpt lat="48.93754" lon="2.27572">
        <ele>83.9</ele>
        <time>2015-06-15T19:26:33.057Z</time>
      </trkpt>
      <trkpt lat="48.93752" lon="2.27564">
        <ele>83.8</ele>
        <time>2015-06-15T19:26:33.906Z</time>
      </trkpt>
      <trkpt lat="48.93751" lon="2.27557">
        <ele>83.9</ele>
        <time>2015-06-15T19:26:34.918Z</time>
      </trkpt>
      <trkpt lat="48.93749" lon="2.27549">
        <ele>83.8</ele>
        <time>2015-06-15T19:26:35.927Z</time>
      </trkpt>
      <trkpt lat="48.93748" lon="2.27542">
        <ele>83.8</ele>
        <time>2015-06-15T19:26:36.947Z</time>
      </trkpt>
      <trkpt lat="48.93746" lon="2.27535">
        <ele>84</ele>
        <time>2015-06-15T19:26:37.984Z</time>
      </trkpt>
      <trkpt lat="48.93745" lon="2.27527">
        <ele>84</ele>
        <time>2015-06-15T19:26:38.995Z</time>
      </trkpt>
      <trkpt lat="48.93743" lon="2.2752">
        <ele>84.1</ele>
        <time>2015-06-15T19:26:39.896Z</time>
      </trkpt>
      <trkpt lat="48.93742" lon="2.27513">
        <ele>84.2</ele>
        <time>2015-06-15T19:26:40.888Z</time>
      </trkpt>
      <trkpt lat="48.93741" lon="2.27506">
        <ele>84</ele>
        <time>2015-06-15T19:26:41.909Z</time>
      </trkpt>
      <trkpt lat="48.93739" lon="2.27499">
        <ele>83.9</ele>
        <time>2015-06-15T19:26:42.922Z</time>
      </trkpt>
      <trkpt lat="48.93737" lon="2.27491">
        <ele>83.9</ele>
        <time>2015-06-15T19:26:43.934Z</time>
      </trkpt>
      <trkpt lat="48.93735" lon="2.27484">
        <ele>83.8</ele>
        <time>2015-06-15T19:26:44.963Z</time>
      </trkpt>
      <trkpt lat="48.93734" lon="2.27477">
        <ele>84.1</ele>
        <time>2015-06-15T19:26:45.876Z</time>
      </trkpt>
      <trkpt lat="48.93733" lon="2.27469">
        <ele>84.2</ele>
        <time>2015-06-15T19:26:46.870Z</time>
      </trkpt>
      <trkpt lat="48.93731" lon="2.27461">
        <ele>84.1</ele>
        <time>2015-06-15T19:26:47.879Z</time>
      </trkpt>
      <trkpt lat="48.93729" lon="2.27452">
        <ele>84.3</ele>
        <time>2015-06-15T19:26:48.896Z</time>
      </trkpt>
      <trkpt lat="48.93728" lon="2.27444">
        <ele>84.2</ele>
        <time>2015-06-15T19:26:49.899Z</time>
      </trkpt>
      <trkpt lat="48.93726" lon="2.27436">
        <ele>84.1</ele>
        <time>2015-06-15T19:26:50.926Z</time>
      </trkpt>
      <trkpt lat="48.93724" lon="2.27428">
        <ele>84.3</ele>
        <time>2015-06-15T19:26:51.926Z</time>
      </trkpt>
      <trkpt lat="48.93723" lon="2.2742">
        <ele>84.6</ele>
        <time>2015-06-15T19:26:52.937Z</time>
      </trkpt>
      <trkpt lat="48.93721" lon="2.27411">
        <ele>84.7</ele>
        <time>2015-06-15T19:26:53.945Z</time>
      </trkpt>
      <trkpt lat="48.93719" lon="2.27402">
        <ele>84.7</ele>
        <time>2015-06-15T19:26:54.955Z</time>
      </trkpt>
      <trkpt lat="48.93717" lon="2.27394">
        <ele>84.7</ele>
        <time>2015-06-15T19:26:55.964Z</time>
      </trkpt>
      <trkpt lat="48.93715" lon="2.27385">
        <ele>84.9</ele>
        <time>2015-06-15T19:26:56.975Z</time>
      </trkpt>
      <trkpt lat="48.93712" lon="2.27377">
        <ele>85.2</ele>
        <time>2015-06-15T19:26:57.880Z</time>
      </trkpt>
      <trkpt lat="48.93711" lon="2.27368">
        <ele>85.5</ele>
        <time>2015-06-15T19:26:58.893Z</time>
      </trkpt>
      <trkpt lat="48.93709" lon="2.27359">
        <ele>85.7</ele>
        <time>2015-06-15T19:26:59.908Z</time>
      </trkpt>
      <trkpt lat="48.93707" lon="2.27351">
        <ele>86</ele>
        <time>2015-06-15T19:27:00.913Z</time>
      </trkpt>
      <trkpt lat="48.93705" lon="2.27343">
        <ele>86.2</ele>
        <time>2015-06-15T19:27:01.924Z</time>
      </trkpt>
      <trkpt lat="48.93703" lon="2.27334">
        <ele>86.4</ele>
        <time>2015-06-15T19:27:02.947Z</time>
      </trkpt>
      <trkpt lat="48.93702" lon="2.27325">
        <ele>86.5</ele>
        <time>2015-06-15T19:27:03.954Z</time>
      </trkpt>
      <trkpt lat="48.937" lon="2.27317">
        <ele>86.5</ele>
        <time>2015-06-15T19:27:04.918Z</time>
      </trkpt>
      <trkpt lat="48.93698" lon="2.27308">
        <ele>86.6</ele>
        <time>2015-06-15T19:27:05.905Z</time>
      </trkpt>
      <trkpt lat="48.93697" lon="2.273">
        <ele>86.5</ele>
        <time>2015-06-15T19:27:06.946Z</time>
      </trkpt>
      <trkpt lat="48.93695" lon="2.27291">
        <ele>86.6</ele>
        <time>2015-06-15T19:27:07.952Z</time>
      </trkpt>
      <trkpt lat="48.93694" lon="2.27283">
        <ele>86.5</ele>
        <time>2015-06-15T19:27:08.979Z</time>
      </trkpt>
      <trkpt lat="48.93692" lon="2.27274">
        <ele>86.3</ele>
        <time>2015-06-15T19:27:09.882Z</time>
      </trkpt>
      <trkpt lat="48.93691" lon="2.27266">
        <ele>86.1</ele>
        <time>2015-06-15T19:27:10.911Z</time>
      </trkpt>
      <trkpt lat="48.93689" lon="2.27257">
        <ele>85.8</ele>
        <time>2015-06-15T19:27:11.881Z</time>
      </trkpt>
      <trkpt lat="48.93687" lon="2.27249">
        <ele>85.4</ele>
        <time>2015-06-15T19:27:12.886Z</time>
      </trkpt>
      <trkpt lat="48.93686" lon="2.27241">
        <ele>85</ele>
        <time>2015-06-15T19:27:13.922Z</time>
      </trkpt>
      <trkpt lat="48.93684" lon="2.27233">
        <ele>84.8</ele>
        <time>2015-06-15T19:27:14.982Z</time>
      </trkpt>
      <trkpt lat="48.93683" lon="2.27224">
        <ele>84.5</ele>
        <time>2015-06-15T19:27:15.882Z</time>
      </trkpt>
      <trkpt lat="48.93682" lon="2.27216">
        <ele>84.1</ele>
        <time>2015-06-15T19:27:16.882Z</time>
      </trkpt>
      <trkpt lat="48.9368" lon="2.27208">
        <ele>84.3</ele>
        <time>2015-06-15T19:27:17.915Z</time>
      </trkpt>
      <trkpt lat="48.93679" lon="2.27201">
        <ele>84.4</ele>
        <time>2015-06-15T19:27:18.915Z</time>
      </trkpt>
      <trkpt lat="48.93677" lon="2.27193">
        <ele>85</ele>
        <time>2015-06-15T19:27:19.925Z</time>
      </trkpt>
      <trkpt lat="48.93676" lon="2.27187">
        <ele>85</ele>
        <time>2015-06-15T19:27:20.949Z</time>
      </trkpt>
      <trkpt lat="48.93674" lon="2.27179">
        <ele>85</ele>
        <time>2015-06-15T19:27:21.956Z</time>
      </trkpt>
      <trkpt lat="48.93673" lon="2.27172">
        <ele>84.9</ele>
        <time>2015-06-15T19:27:22.885Z</time>
      </trkpt>
      <trkpt lat="48.93672" lon="2.27165">
        <ele>85.1</ele>
        <time>2015-06-15T19:27:23.884Z</time>
      </trkpt>
      <trkpt lat="48.93671" lon="2.27157">
        <ele>85.1</ele>
        <time>2015-06-15T19:27:24.878Z</time>
      </trkpt>
      <trkpt lat="48.93669" lon="2.2715">
        <ele>84.8</ele>
        <time>2015-06-15T19:27:25.882Z</time>
      </trkpt>
      <trkpt lat="48.93668" lon="2.27142">
        <ele>84.7</ele>
        <time>2015-06-15T19:27:26.969Z</time>
      </trkpt>
      <trkpt lat="48.93666" lon="2.27135">
        <ele>84.7</ele>
        <time>2015-06-15T19:27:27.847Z</time>
      </trkpt>
      <trkpt lat="48.93665" lon="2.27127">
        <ele>84.9</ele>
        <time>2015-06-15T19:27:28.890Z</time>
      </trkpt>
      <trkpt lat="48.93663" lon="2.2712">
        <ele>85</ele>
        <time>2015-06-15T19:27:29.898Z</time>
      </trkpt>
      <trkpt lat="48.93662" lon="2.27112">
        <ele>84.9</ele>
        <time>2015-06-15T19:27:30.907Z</time>
      </trkpt>
      <trkpt lat="48.9366" lon="2.27105">
        <ele>85.1</ele>
        <time>2015-06-15T19:27:31.938Z</time>
      </trkpt>
      <trkpt lat="48.93659" lon="2.27097">
        <ele>85.4</ele>
        <time>2015-06-15T19:27:32.948Z</time>
      </trkpt>
      <trkpt lat="48.93657" lon="2.27089">
        <ele>85.5</ele>
        <time>2015-06-15T19:27:33.960Z</time>
      </trkpt>
      <trkpt lat="48.93656" lon="2.27082">
        <ele>85.6</ele>
        <time>2015-06-15T19:27:34.891Z</time>
      </trkpt>
      <trkpt lat="48.93654" lon="2.27074">
        <ele>85.4</ele>
        <time>2015-06-15T19:27:35.910Z</time>
      </trkpt>
      <trkpt lat="48.93653" lon="2.27067">
        <ele>85.6</ele>
        <time>2015-06-15T19:27:36.914Z</time>
      </trkpt>
      <trkpt lat="48.93651" lon="2.2706">
        <ele>85.9</ele>
        <time>2015-06-15T19:27:37.916Z</time>
      </trkpt>
      <trkpt lat="48.93649" lon="2.27052">
        <ele>86.1</ele>
        <time>2015-06-15T19:27:38.947Z</time>
      </trkpt>
      <trkpt lat="48.93647" lon="2.27044">
        <ele>86.2</ele>
        <time>2015-06-15T19:27:39.885Z</time>
      </trkpt>
      <trkpt lat="48.93645" lon="2.27036">
        <ele>86.5</ele>
        <time>2015-06-15T19:27:40.904Z</time>
      </trkpt>
      <trkpt lat="48.93644" lon="2.27029">
        <ele>87</ele>
        <time>2015-06-15T19:27:41.904Z</time>
      </trkpt>
      <trkpt lat="48.93643" lon="2.27021">
        <ele>87.3</ele>
        <time>2015-06-15T19:27:42.925Z</time>
      </trkpt>
      <trkpt lat="48.93641" lon="2.27014">
        <ele>87.4</ele>
        <time>2015-06-15T19:27:43.934Z</time>
      </trkpt>
      <trkpt lat="48.93639" lon="2.27006">
        <ele>87.9</ele>
        <time>2015-06-15T19:27:44.953Z</time>
      </trkpt>
      <trkpt lat="48.93637" lon="2.26999">
        <ele>88.3</ele>
        <time>2015-06-15T19:27:45.879Z</time>
      </trkpt>
      <trkpt lat="48.93635" lon="2.26991">
        <ele>88.6</ele>
        <time>2015-06-15T19:27:46.887Z</time>
      </trkpt>
      <trkpt lat="48.93633" lon="2.26983">
        <ele>88.6</ele>
        <time>2015-06-15T19:27:47.907Z</time>
      </trkpt>
      <trkpt lat="48.93632" lon="2.26975">
        <ele>89.1</ele>
        <time>2015-06-15T19:27:48.928Z</time>
      </trkpt>
      <trkpt lat="48.9363" lon="2.26967">
        <ele>89</ele>
        <time>2015-06-15T19:27:49.943Z</time>
      </trkpt>
      <trkpt lat="48.93629" lon="2.2696">
        <ele>88.8</ele>
        <time>2015-06-15T19:27:50.951Z</time>
      </trkpt>
      <trkpt lat="48.93627" lon="2.26952">
        <ele>88.7</ele>
        <time>2015-06-15T19:27:51.889Z</time>
      </trkpt>
      <trkpt lat="48.93625" lon="2.26944">
        <ele>88.7</ele>
        <time>2015-06-15T19:27:52.871Z</time>
      </trkpt>
      <trkpt lat="48.93624" lon="2.26937">
        <ele>88.8</ele>
        <time>2015-06-15T19:27:53.882Z</time>
      </trkpt>
      <trkpt lat="48.93623" lon="2.2693">
        <ele>88.9</ele>
        <time>2015-06-15T19:27:54.894Z</time>
      </trkpt>
      <trkpt lat="48.93621" lon="2.26923">
        <ele>89.2</ele>
        <time>2015-06-15T19:27:55.906Z</time>
      </trkpt>
      <trkpt lat="48.9362" lon="2.26916">
        <ele>89</ele>
        <time>2015-06-15T19:27:56.945Z</time>
      </trkpt>
      <trkpt lat="48.93619" lon="2.26909">
        <ele>88.6</ele>
        <time>2015-06-15T19:27:57.954Z</time>
      </trkpt>
      <trkpt lat="48.93617" lon="2.26897">
        <ele>87.9</ele>
        <time>2015-06-15T19:27:59.885Z</time>
      </trkpt>
      <trkpt lat="48.93616" lon="2.2689">
        <ele>87.9</ele>
        <time>2015-06-15T19:28:00.881Z</time>
      </trkpt>
      <trkpt lat="48.93615" lon="2.26884">
        <ele>87.8</ele>
        <time>2015-06-15T19:28:01.896Z</time>
      </trkpt>
      <trkpt lat="48.93613" lon="2.26877">
        <ele>88</ele>
        <time>2015-06-15T19:28:02.939Z</time>
      </trkpt>
      <trkpt lat="48.93612" lon="2.2687">
        <ele>88.1</ele>
        <time>2015-06-15T19:28:03.980Z</time>
      </trkpt>
      <trkpt lat="48.9361" lon="2.26863">
        <ele>88.4</ele>
        <time>2015-06-15T19:28:04.971Z</time>
      </trkpt>
      <trkpt lat="48.93608" lon="2.2685">
        <ele>89.1</ele>
        <time>2015-06-15T19:28:06.889Z</time>
      </trkpt>
      <trkpt lat="48.93607" lon="2.26844">
        <ele>89.6</ele>
        <time>2015-06-15T19:28:07.950Z</time>
      </trkpt>
      <trkpt lat="48.93605" lon="2.26837">
        <ele>90</ele>
        <time>2015-06-15T19:28:09.084Z</time>
      </trkpt>
      <trkpt lat="48.93604" lon="2.26831">
        <ele>89.9</ele>
        <time>2015-06-15T19:28:09.897Z</time>
      </trkpt>
      <trkpt lat="48.93602" lon="2.26824">
        <ele>89.9</ele>
        <time>2015-06-15T19:28:10.928Z</time>
      </trkpt>
      <trkpt lat="48.936" lon="2.26817">
        <ele>90</ele>
        <time>2015-06-15T19:28:11.938Z</time>
      </trkpt>
      <trkpt lat="48.93599" lon="2.2681">
        <ele>90.1</ele>
        <time>2015-06-15T19:28:12.952Z</time>
      </trkpt>
      <trkpt lat="48.93597" lon="2.26803">
        <ele>90.1</ele>
        <time>2015-06-15T19:28:13.980Z</time>
      </trkpt>
      <trkpt lat="48.93594" lon="2.26792">
        <ele>89.5</ele>
        <time>2015-06-15T19:28:15.864Z</time>
      </trkpt>
      <trkpt lat="48.93594" lon="2.26787">
        <ele>89.3</ele>
        <time>2015-06-15T19:28:16.894Z</time>
      </trkpt>
      <trkpt lat="48.93594" lon="2.26776">
        <ele>89</ele>
        <time>2015-06-15T19:28:18.912Z</time>
      </trkpt>
      <trkpt lat="48.93594" lon="2.26771">
        <ele>88.7</ele>
        <time>2015-06-15T19:28:19.924Z</time>
      </trkpt>
      <trkpt lat="48.93598" lon="2.26759">
        <ele>88.5</ele>
        <time>2015-06-15T19:28:22.892Z</time>
      </trkpt>
      <trkpt lat="48.93599" lon="2.26756">
        <ele>88.4</ele>
        <time>2015-06-15T19:28:23.935Z</time>
      </trkpt>
      <trkpt lat="48.93604" lon="2.26748">
        <ele>88.2</ele>
        <time>2015-06-15T19:28:26.992Z</time>
      </trkpt>
      <trkpt lat="48.93606" lon="2.26745">
        <ele>88.2</ele>
        <time>2015-06-15T19:28:28.001Z</time>
      </trkpt>
      <trkpt lat="48.93612" lon="2.26735">
        <ele>87.6</ele>
        <time>2015-06-15T19:28:31.022Z</time>
      </trkpt>
      <trkpt lat="48.93614" lon="2.26732">
        <ele>87.4</ele>
        <time>2015-06-15T19:28:31.925Z</time>
      </trkpt>
      <trkpt lat="48.93619" lon="2.26724">
        <ele>86.9</ele>
        <time>2015-06-15T19:28:34.909Z</time>
      </trkpt>
      <trkpt lat="48.93619" lon="2.26721">
        <ele>86.8</ele>
        <time>2015-06-15T19:28:35.919Z</time>
      </trkpt>
      <trkpt lat="48.9362" lon="2.26708">
        <ele>87.1</ele>
        <time>2015-06-15T19:28:41.432Z</time>
      </trkpt>
      <trkpt lat="48.93619" lon="2.26705">
        <ele>87.4</ele>
        <time>2015-06-15T19:28:41.922Z</time>
      </trkpt>
      <trkpt lat="48.9362" lon="2.26703">
        <ele>87.7</ele>
        <time>2015-06-15T19:28:49.924Z</time>
      </trkpt>
      <trkpt lat="48.93616" lon="2.26692">
        <ele>87.3</ele>
        <time>2015-06-15T19:28:50.978Z</time>
      </trkpt>
      <trkpt lat="48.93611" lon="2.26683">
        <ele>87.4</ele>
        <time>2015-06-15T19:28:54.913Z</time>
      </trkpt>
      <trkpt lat="48.9361" lon="2.26681">
        <ele>87.5</ele>
        <time>2015-06-15T19:28:55.918Z</time>
      </trkpt>
      <trkpt lat="48.93603" lon="2.26674">
        <ele>87.9</ele>
        <time>2015-06-15T19:28:59.956Z</time>
      </trkpt>
      <trkpt lat="48.93601" lon="2.26673">
        <ele>88.1</ele>
        <time>2015-06-15T19:29:00.859Z</time>
      </trkpt>
      <trkpt lat="48.93592" lon="2.26669">
        <ele>88.8</ele>
        <time>2015-06-15T19:29:04.916Z</time>
      </trkpt>
      <trkpt lat="48.9359" lon="2.26668">
        <ele>89</ele>
        <time>2015-06-15T19:29:05.931Z</time>
      </trkpt>
      <trkpt lat="48.93583" lon="2.26665">
        <ele>89.5</ele>
        <time>2015-06-15T19:29:08.993Z</time>
      </trkpt>
      <trkpt lat="48.93581" lon="2.26665">
        <ele>89.4</ele>
        <time>2015-06-15T19:29:09.918Z</time>
      </trkpt>
      <trkpt lat="48.93574" lon="2.26658">
        <ele>90.2</ele>
        <time>2015-06-15T19:29:13.216Z</time>
      </trkpt>
      <trkpt lat="48.93572" lon="2.26655">
        <ele>90.1</ele>
        <time>2015-06-15T19:29:13.951Z</time>
      </trkpt>
      <trkpt lat="48.93565" lon="2.26651">
        <ele>90.8</ele>
        <time>2015-06-15T19:29:16.980Z</time>
      </trkpt>
      <trkpt lat="48.93563" lon="2.26651">
        <ele>90.3</ele>
        <time>2015-06-15T19:29:17.916Z</time>
      </trkpt>
      <trkpt lat="48.93556" lon="2.26646">
        <ele>90</ele>
        <time>2015-06-15T19:29:20.988Z</time>
      </trkpt>
      <trkpt lat="48.93554" lon="2.26644">
        <ele>89.9</ele>
        <time>2015-06-15T19:29:22.001Z</time>
      </trkpt>
      <trkpt lat="48.93549" lon="2.26634">
        <ele>89.1</ele>
        <time>2015-06-15T19:29:24.930Z</time>
      </trkpt>
      <trkpt lat="48.93547" lon="2.26631">
        <ele>88.9</ele>
        <time>2015-06-15T19:29:25.948Z</time>
      </trkpt>
      <trkpt lat="48.93542" lon="2.26622">
        <ele>88.7</ele>
        <time>2015-06-15T19:29:28.925Z</time>
      </trkpt>
      <trkpt lat="48.9354" lon="2.26619">
        <ele>88.6</ele>
        <time>2015-06-15T19:29:29.872Z</time>
      </trkpt>
      <trkpt lat="48.93533" lon="2.26611">
        <ele>88.8</ele>
        <time>2015-06-15T19:29:33.932Z</time>
      </trkpt>
      <trkpt lat="48.93532" lon="2.26609">
        <ele>89.2</ele>
        <time>2015-06-15T19:29:34.883Z</time>
      </trkpt>
      <trkpt lat="48.93524" lon="2.26602">
        <ele>89.3</ele>
        <time>2015-06-15T19:29:38.938Z</time>
      </trkpt>
      <trkpt lat="48.93523" lon="2.266">
        <ele>89.2</ele>
        <time>2015-06-15T19:29:39.859Z</time>
      </trkpt>
      <trkpt lat="48.93517" lon="2.26593">
        <ele>89.2</ele>
        <time>2015-06-15T19:29:42.930Z</time>
      </trkpt>
      <trkpt lat="48.93515" lon="2.26591">
        <ele>89.3</ele>
        <time>2015-06-15T19:29:43.998Z</time>
      </trkpt>
      <trkpt lat="48.93509" lon="2.26584">
        <ele>88.9</ele>
        <time>2015-06-15T19:29:46.893Z</time>
      </trkpt>
      <trkpt lat="48.93507" lon="2.26582">
        <ele>88.8</ele>
        <time>2015-06-15T19:29:47.939Z</time>
      </trkpt>
      <trkpt lat="48.93501" lon="2.26575">
        <ele>88.7</ele>
        <time>2015-06-15T19:29:50.959Z</time>
      </trkpt>
      <trkpt lat="48.93499" lon="2.26573">
        <ele>88.9</ele>
        <time>2015-06-15T19:29:51.961Z</time>
      </trkpt>
      <trkpt lat="48.93492" lon="2.26567">
        <ele>89.4</ele>
        <time>2015-06-15T19:29:54.928Z</time>
      </trkpt>
      <trkpt lat="48.9349" lon="2.26565">
        <ele>89.5</ele>
        <time>2015-06-15T19:29:55.951Z</time>
      </trkpt>
      <trkpt lat="48.93482" lon="2.26559">
        <ele>89.3</ele>
        <time>2015-06-15T19:29:58.904Z</time>
      </trkpt>
      <trkpt lat="48.9348" lon="2.26557">
        <ele>89.2</ele>
        <time>2015-06-15T19:29:59.924Z</time>
      </trkpt>
      <trkpt lat="48.93473" lon="2.26552">
        <ele>89.1</ele>
        <time>2015-06-15T19:30:01.964Z</time>
      </trkpt>
      <trkpt lat="48.9347" lon="2.26549">
        <ele>88.9</ele>
        <time>2015-06-15T19:30:02.991Z</time>
      </trkpt>
      <trkpt lat="48.93463" lon="2.26543">
        <ele>89.1</ele>
        <time>2015-06-15T19:30:04.889Z</time>
      </trkpt>
      <trkpt lat="48.9346" lon="2.2654">
        <ele>88.9</ele>
        <time>2015-06-15T19:30:05.917Z</time>
      </trkpt>
      <trkpt lat="48.93454" lon="2.26533">
        <ele>88.5</ele>
        <time>2015-06-15T19:30:08.170Z</time>
      </trkpt>
      <trkpt lat="48.9345" lon="2.26529">
        <ele>88.4</ele>
        <time>2015-06-15T19:30:08.995Z</time>
      </trkpt>
      <trkpt lat="48.93443" lon="2.26523">
        <ele>88.5</ele>
        <time>2015-06-15T19:30:10.960Z</time>
      </trkpt>
      <trkpt lat="48.9344" lon="2.2652">
        <ele>88.5</ele>
        <time>2015-06-15T19:30:11.894Z</time>
      </trkpt>
      <trkpt lat="48.93432" lon="2.26516">
        <ele>88</ele>
        <time>2015-06-15T19:30:13.951Z</time>
      </trkpt>
      <trkpt lat="48.93427" lon="2.26514">
        <ele>87.8</ele>
        <time>2015-06-15T19:30:14.997Z</time>
      </trkpt>
      <trkpt lat="48.93423" lon="2.26512">
        <ele>87.7</ele>
        <time>2015-06-15T19:30:15.909Z</time>
      </trkpt>
      <trkpt lat="48.93419" lon="2.2651">
        <ele>87.9</ele>
        <time>2015-06-15T19:30:16.934Z</time>
      </trkpt>
      <trkpt lat="48.93414" lon="2.26507">
        <ele>88</ele>
        <time>2015-06-15T19:30:18.316Z</time>
      </trkpt>
      <trkpt lat="48.9341" lon="2.26506">
        <ele>88</ele>
        <time>2015-06-15T19:30:18.893Z</time>
      </trkpt>
      <trkpt lat="48.93406" lon="2.26504">
        <ele>87.8</ele>
        <time>2015-06-15T19:30:19.891Z</time>
      </trkpt>
      <trkpt lat="48.93401" lon="2.26502">
        <ele>87.7</ele>
        <time>2015-06-15T19:30:20.922Z</time>
      </trkpt>
      <trkpt lat="48.93396" lon="2.265">
        <ele>87.7</ele>
        <time>2015-06-15T19:30:21.935Z</time>
      </trkpt>
      <trkpt lat="48.93392" lon="2.26498">
        <ele>87.5</ele>
        <time>2015-06-15T19:30:22.950Z</time>
      </trkpt>
      <trkpt lat="48.93384" lon="2.26494">
        <ele>87</ele>
        <time>2015-06-15T19:30:24.876Z</time>
      </trkpt>
      <trkpt lat="48.9338" lon="2.26493">
        <ele>86.8</ele>
        <time>2015-06-15T19:30:25.890Z</time>
      </trkpt>
      <trkpt lat="48.93373" lon="2.26489">
        <ele>86.7</ele>
        <time>2015-06-15T19:30:27.931Z</time>
      </trkpt>
      <trkpt lat="48.93369" lon="2.26489">
        <ele>86.5</ele>
        <time>2015-06-15T19:30:28.942Z</time>
      </trkpt>
      <trkpt lat="48.93362" lon="2.26486">
        <ele>86.1</ele>
        <time>2015-06-15T19:30:30.910Z</time>
      </trkpt>
      <trkpt lat="48.93359" lon="2.26485">
        <ele>85.7</ele>
        <time>2015-06-15T19:30:31.992Z</time>
      </trkpt>
      <trkpt lat="48.93351" lon="2.26482">
        <ele>85.1</ele>
        <time>2015-06-15T19:30:34.891Z</time>
      </trkpt>
      <trkpt lat="48.93349" lon="2.26481">
        <ele>85.3</ele>
        <time>2015-06-15T19:30:35.916Z</time>
      </trkpt>
      <trkpt lat="48.93342" lon="2.2648">
        <ele>86.4</ele>
        <time>2015-06-15T19:30:42.916Z</time>
      </trkpt>
      <trkpt lat="48.93339" lon="2.26477">
        <ele>87.6</ele>
        <time>2015-06-15T19:30:43.957Z</time>
      </trkpt>
      <trkpt lat="48.93336" lon="2.2647">
        <ele>88.2</ele>
        <time>2015-06-15T19:30:45.877Z</time>
      </trkpt>
      <trkpt lat="48.93333" lon="2.26465">
        <ele>89.6</ele>
        <time>2015-06-15T19:30:46.922Z</time>
      </trkpt>
      <trkpt lat="48.93325" lon="2.26469">
        <ele>89.6</ele>
        <time>2015-06-15T19:30:50.917Z</time>
      </trkpt>
      <trkpt lat="48.93324" lon="2.26472">
        <ele>89.7</ele>
        <time>2015-06-15T19:30:51.953Z</time>
      </trkpt>
      <trkpt lat="48.93319" lon="2.26478">
        <ele>90</ele>
        <time>2015-06-15T19:30:53.865Z</time>
      </trkpt>
      <trkpt lat="48.93316" lon="2.26482">
        <ele>90.1</ele>
        <time>2015-06-15T19:30:54.942Z</time>
      </trkpt>
      <trkpt lat="48.93312" lon="2.26487">
        <ele>90.4</ele>
        <time>2015-06-15T19:30:55.869Z</time>
      </trkpt>
      <trkpt lat="48.93308" lon="2.26492">
        <ele>90.8</ele>
        <time>2015-06-15T19:30:56.917Z</time>
      </trkpt>
      <trkpt lat="48.93302" lon="2.26499">
        <ele>91.5</ele>
        <time>2015-06-15T19:30:58.940Z</time>
      </trkpt>
      <trkpt lat="48.93299" lon="2.26501">
        <ele>91.3</ele>
        <time>2015-06-15T19:30:59.905Z</time>
      </trkpt>
      <trkpt lat="48.93293" lon="2.26507">
        <ele>91.5</ele>
        <time>2015-06-15T19:31:01.866Z</time>
      </trkpt>
      <trkpt lat="48.9329" lon="2.26511">
        <ele>91.5</ele>
        <time>2015-06-15T19:31:02.994Z</time>
      </trkpt>
      <trkpt lat="48.93284" lon="2.26521">
        <ele>91.1</ele>
        <time>2015-06-15T19:31:04.878Z</time>
      </trkpt>
      <trkpt lat="48.93281" lon="2.26527">
        <ele>90.7</ele>
        <time>2015-06-15T19:31:05.912Z</time>
      </trkpt>
      <trkpt lat="48.93277" lon="2.26536">
        <ele>90.4</ele>
        <time>2015-06-15T19:31:07.937Z</time>
      </trkpt>
      <trkpt lat="48.93273" lon="2.26543">
        <ele>90.6</ele>
        <time>2015-06-15T19:31:09.020Z</time>
      </trkpt>
      <trkpt lat="48.93268" lon="2.26552">
        <ele>90.8</ele>
        <time>2015-06-15T19:31:09.893Z</time>
      </trkpt>
      <trkpt lat="48.93263" lon="2.2656">
        <ele>90.9</ele>
        <time>2015-06-15T19:31:10.907Z</time>
      </trkpt>
      <trkpt lat="48.93256" lon="2.26569">
        <ele>91.4</ele>
        <time>2015-06-15T19:31:12.957Z</time>
      </trkpt>
      <trkpt lat="48.93254" lon="2.26572">
        <ele>91.7</ele>
        <time>2015-06-15T19:31:14.024Z</time>
      </trkpt>
      <trkpt lat="48.93249" lon="2.26577">
        <ele>91.3</ele>
        <time>2015-06-15T19:31:15.886Z</time>
      </trkpt>
      <trkpt lat="48.93246" lon="2.2658">
        <ele>91.1</ele>
        <time>2015-06-15T19:31:16.898Z</time>
      </trkpt>
      <trkpt lat="48.93241" lon="2.26586">
        <ele>90.5</ele>
        <time>2015-06-15T19:31:18.929Z</time>
      </trkpt>
      <trkpt lat="48.93239" lon="2.26589">
        <ele>90.2</ele>
        <time>2015-06-15T19:31:19.915Z</time>
      </trkpt>
      <trkpt lat="48.93234" lon="2.26595">
        <ele>89.7</ele>
        <time>2015-06-15T19:31:21.848Z</time>
      </trkpt>
      <trkpt lat="48.93231" lon="2.26599">
        <ele>89.4</ele>
        <time>2015-06-15T19:31:22.901Z</time>
      </trkpt>
      <trkpt lat="48.93225" lon="2.26607">
        <ele>89.2</ele>
        <time>2015-06-15T19:31:24.876Z</time>
      </trkpt>
      <trkpt lat="48.93222" lon="2.26612">
        <ele>89.4</ele>
        <time>2015-06-15T19:31:25.887Z</time>
      </trkpt>
      <trkpt lat="48.93216" lon="2.26621">
        <ele>89.3</ele>
        <time>2015-06-15T19:31:27.954Z</time>
      </trkpt>
      <trkpt lat="48.93213" lon="2.26625">
        <ele>89.4</ele>
        <time>2015-06-15T19:31:28.962Z</time>
      </trkpt>
      <trkpt lat="48.93206" lon="2.26633">
        <ele>89.7</ele>
        <time>2015-06-15T19:31:30.872Z</time>
      </trkpt>
      <trkpt lat="48.93202" lon="2.26638">
        <ele>89.4</ele>
        <time>2015-06-15T19:31:31.885Z</time>
      </trkpt>
      <trkpt lat="48.93195" lon="2.26646">
        <ele>89.2</ele>
        <time>2015-06-15T19:31:33.922Z</time>
      </trkpt>
      <trkpt lat="48.93193" lon="2.26651">
        <ele>89.3</ele>
        <time>2015-06-15T19:31:34.954Z</time>
      </trkpt>
      <trkpt lat="48.93187" lon="2.26658">
        <ele>88.9</ele>
        <time>2015-06-15T19:31:36.908Z</time>
      </trkpt>
      <trkpt lat="48.93184" lon="2.26662">
        <ele>89</ele>
        <time>2015-06-15T19:31:37.943Z</time>
      </trkpt>
      <trkpt lat="48.93179" lon="2.26669">
        <ele>89.6</ele>
        <time>2015-06-15T19:31:39.901Z</time>
      </trkpt>
      <trkpt lat="48.93176" lon="2.26674">
        <ele>89.7</ele>
        <time>2015-06-15T19:31:40.913Z</time>
      </trkpt>
      <trkpt lat="48.93173" lon="2.26679">
        <ele>90</ele>
        <time>2015-06-15T19:31:41.952Z</time>
      </trkpt>
      <trkpt lat="48.93169" lon="2.26684">
        <ele>90.2</ele>
        <time>2015-06-15T19:31:42.849Z</time>
      </trkpt>
      <trkpt lat="48.93162" lon="2.2669">
        <ele>90.2</ele>
        <time>2015-06-15T19:31:44.931Z</time>
      </trkpt>
      <trkpt lat="48.93159" lon="2.26692">
        <ele>90.5</ele>
        <time>2015-06-15T19:31:45.950Z</time>
      </trkpt>
      <trkpt lat="48.93151" lon="2.26695">
        <ele>90.7</ele>
        <time>2015-06-15T19:31:47.877Z</time>
      </trkpt>
      <trkpt lat="48.93147" lon="2.26697">
        <ele>91</ele>
        <time>2015-06-15T19:31:48.856Z</time>
      </trkpt>
      <trkpt lat="48.93139" lon="2.267">
        <ele>90.6</ele>
        <time>2015-06-15T19:31:51.023Z</time>
      </trkpt>
      <trkpt lat="48.93134" lon="2.26701">
        <ele>90.3</ele>
        <time>2015-06-15T19:31:51.895Z</time>
      </trkpt>
      <trkpt lat="48.93127" lon="2.26703">
        <ele>90.2</ele>
        <time>2015-06-15T19:31:53.922Z</time>
      </trkpt>
      <trkpt lat="48.93123" lon="2.26703">
        <ele>90</ele>
        <time>2015-06-15T19:31:54.961Z</time>
      </trkpt>
      <trkpt lat="48.93118" lon="2.26704">
        <ele>89.2</ele>
        <time>2015-06-15T19:31:56.493Z</time>
      </trkpt>
      <trkpt lat="48.93113" lon="2.26706">
        <ele>88.8</ele>
        <time>2015-06-15T19:31:56.930Z</time>
      </trkpt>
      <trkpt lat="48.93108" lon="2.26709">
        <ele>88.1</ele>
        <time>2015-06-15T19:31:58.018Z</time>
      </trkpt>
      <trkpt lat="48.93102" lon="2.26714">
        <ele>87.8</ele>
        <time>2015-06-15T19:31:58.944Z</time>
      </trkpt>
      <trkpt lat="48.93097" lon="2.2672">
        <ele>87.6</ele>
        <time>2015-06-15T19:31:59.873Z</time>
      </trkpt>
      <trkpt lat="48.93092" lon="2.26722">
        <ele>87.5</ele>
        <time>2015-06-15T19:32:00.881Z</time>
      </trkpt>
      <trkpt lat="48.93087" lon="2.26725">
        <ele>87.1</ele>
        <time>2015-06-15T19:32:01.887Z</time>
      </trkpt>
      <trkpt lat="48.93083" lon="2.26728">
        <ele>87</ele>
        <time>2015-06-15T19:32:02.973Z</time>
      </trkpt>
      <trkpt lat="48.93079" lon="2.26732">
        <ele>87</ele>
        <time>2015-06-15T19:32:03.860Z</time>
      </trkpt>
      <trkpt lat="48.93075" lon="2.26736">
        <ele>87.2</ele>
        <time>2015-06-15T19:32:04.861Z</time>
      </trkpt>
      <trkpt lat="48.9307" lon="2.26739">
        <ele>87.1</ele>
        <time>2015-06-15T19:32:05.878Z</time>
      </trkpt>
      <trkpt lat="48.93066" lon="2.26742">
        <ele>87.1</ele>
        <time>2015-06-15T19:32:06.932Z</time>
      </trkpt>
      <trkpt lat="48.93058" lon="2.26746">
        <ele>87.5</ele>
        <time>2015-06-15T19:32:08.905Z</time>
      </trkpt>
      <trkpt lat="48.93053" lon="2.26749">
        <ele>87.8</ele>
        <time>2015-06-15T19:32:09.899Z</time>
      </trkpt>
      <trkpt lat="48.93048" lon="2.26752">
        <ele>88.1</ele>
        <time>2015-06-15T19:32:10.917Z</time>
      </trkpt>
      <trkpt lat="48.93043" lon="2.26754">
        <ele>88.4</ele>
        <time>2015-06-15T19:32:11.988Z</time>
      </trkpt>
      <trkpt lat="48.93038" lon="2.26756">
        <ele>88.5</ele>
        <time>2015-06-15T19:32:13.087Z</time>
      </trkpt>
      <trkpt lat="48.93034" lon="2.26758">
        <ele>88.8</ele>
        <time>2015-06-15T19:32:13.867Z</time>
      </trkpt>
      <trkpt lat="48.93029" lon="2.26758">
        <ele>88.9</ele>
        <time>2015-06-15T19:32:14.883Z</time>
      </trkpt>
      <trkpt lat="48.93024" lon="2.26761">
        <ele>89.2</ele>
        <time>2015-06-15T19:32:15.900Z</time>
      </trkpt>
      <trkpt lat="48.93019" lon="2.26763">
        <ele>89.5</ele>
        <time>2015-06-15T19:32:16.806Z</time>
      </trkpt>
      <trkpt lat="48.93015" lon="2.26764">
        <ele>89.8</ele>
        <time>2015-06-15T19:32:17.826Z</time>
      </trkpt>
      <trkpt lat="48.93007" lon="2.26766">
        <ele>90.2</ele>
        <time>2015-06-15T19:32:19.845Z</time>
      </trkpt>
      <trkpt lat="48.93003" lon="2.26768">
        <ele>90.4</ele>
        <time>2015-06-15T19:32:20.850Z</time>
      </trkpt>
      <trkpt lat="48.92998" lon="2.2677">
        <ele>90.5</ele>
        <time>2015-06-15T19:32:21.830Z</time>
      </trkpt>
      <trkpt lat="48.92994" lon="2.26773">
        <ele>90.4</ele>
        <time>2015-06-15T19:32:22.858Z</time>
      </trkpt>
      <trkpt lat="48.92988" lon="2.26776">
        <ele>90</ele>
        <time>2015-06-15T19:32:23.847Z</time>
      </trkpt>
      <trkpt lat="48.92982" lon="2.26778">
        <ele>89.1</ele>
        <time>2015-06-15T19:32:24.859Z</time>
      </trkpt>
      <trkpt lat="48.92977" lon="2.26781">
        <ele>88.9</ele>
        <time>2015-06-15T19:32:25.873Z</time>
      </trkpt>
      <trkpt lat="48.92971" lon="2.26783">
        <ele>89</ele>
        <time>2015-06-15T19:32:26.891Z</time>
      </trkpt>
      <trkpt lat="48.92964" lon="2.26786">
        <ele>87.4</ele>
        <time>2015-06-15T19:32:27.899Z</time>
      </trkpt>
      <trkpt lat="48.92958" lon="2.26789">
        <ele>86.9</ele>
        <time>2015-06-15T19:32:28.911Z</time>
      </trkpt>
      <trkpt lat="48.92954" lon="2.26792">
        <ele>86.6</ele>
        <time>2015-06-15T19:32:29.912Z</time>
      </trkpt>
      <trkpt lat="48.9295" lon="2.26796">
        <ele>86.1</ele>
        <time>2015-06-15T19:32:30.845Z</time>
      </trkpt>
      <trkpt lat="48.92943" lon="2.26805">
        <ele>85.8</ele>
        <time>2015-06-15T19:32:32.951Z</time>
      </trkpt>
      <trkpt lat="48.92939" lon="2.26814">
        <ele>86.3</ele>
        <time>2015-06-15T19:32:33.941Z</time>
      </trkpt>
      <trkpt lat="48.92934" lon="2.26826">
        <ele>88.4</ele>
        <time>2015-06-15T19:32:35.852Z</time>
      </trkpt>
      <trkpt lat="48.92932" lon="2.26832">
        <ele>89.5</ele>
        <time>2015-06-15T19:32:36.861Z</time>
      </trkpt>
      <trkpt lat="48.92928" lon="2.26837">
        <ele>89.8</ele>
        <time>2015-06-15T19:32:37.895Z</time>
      </trkpt>
      <trkpt lat="48.92924" lon="2.26843">
        <ele>89.8</ele>
        <time>2015-06-15T19:32:39.015Z</time>
      </trkpt>
      <trkpt lat="48.92918" lon="2.26852">
        <ele>89.8</ele>
        <time>2015-06-15T19:32:40.915Z</time>
      </trkpt>
      <trkpt lat="48.92914" lon="2.26858">
        <ele>90.5</ele>
        <time>2015-06-15T19:32:41.857Z</time>
      </trkpt>
      <trkpt lat="48.9291" lon="2.26863">
        <ele>90.9</ele>
        <time>2015-06-15T19:32:42.861Z</time>
      </trkpt>
      <trkpt lat="48.92906" lon="2.26867">
        <ele>91.3</ele>
        <time>2015-06-15T19:32:43.860Z</time>
      </trkpt>
      <trkpt lat="48.92902" lon="2.26872">
        <ele>91.8</ele>
        <time>2015-06-15T19:32:44.917Z</time>
      </trkpt>
      <trkpt lat="48.92896" lon="2.26877">
        <ele>91.6</ele>
        <time>2015-06-15T19:32:45.920Z</time>
      </trkpt>
      <trkpt lat="48.9289" lon="2.26887">
        <ele>92.2</ele>
        <time>2015-06-15T19:32:47.932Z</time>
      </trkpt>
      <trkpt lat="48.92886" lon="2.26891">
        <ele>92.7</ele>
        <time>2015-06-15T19:32:48.889Z</time>
      </trkpt>
      <trkpt lat="48.9288" lon="2.26898">
        <ele>93</ele>
        <time>2015-06-15T19:32:51.046Z</time>
      </trkpt>
      <trkpt lat="48.92877" lon="2.26902">
        <ele>92.8</ele>
        <time>2015-06-15T19:32:51.875Z</time>
      </trkpt>
      <trkpt lat="48.92872" lon="2.26912">
        <ele>93</ele>
        <time>2015-06-15T19:32:54.419Z</time>
      </trkpt>
      <trkpt lat="48.9287" lon="2.26918">
        <ele>93.1</ele>
        <time>2015-06-15T19:32:54.926Z</time>
      </trkpt>
      <trkpt lat="48.92866" lon="2.2693">
        <ele>93.1</ele>
        <time>2015-06-15T19:32:56.941Z</time>
      </trkpt>
      <trkpt lat="48.92864" lon="2.26936">
        <ele>93.2</ele>
        <time>2015-06-15T19:32:57.828Z</time>
      </trkpt>
      <trkpt lat="48.92861" lon="2.26942">
        <ele>93.5</ele>
        <time>2015-06-15T19:32:58.896Z</time>
      </trkpt>
      <trkpt lat="48.92859" lon="2.26949">
        <ele>93.6</ele>
        <time>2015-06-15T19:32:59.917Z</time>
      </trkpt>
      <trkpt lat="48.92857" lon="2.26956">
        <ele>93.6</ele>
        <time>2015-06-15T19:33:00.940Z</time>
      </trkpt>
      <trkpt lat="48.92854" lon="2.26962">
        <ele>93.5</ele>
        <time>2015-06-15T19:33:01.827Z</time>
      </trkpt>
      <trkpt lat="48.92852" lon="2.26969">
        <ele>93.5</ele>
        <time>2015-06-15T19:33:03.158Z</time>
      </trkpt>
      <trkpt lat="48.9285" lon="2.26976">
        <ele>93.3</ele>
        <time>2015-06-15T19:33:03.948Z</time>
      </trkpt>
      <trkpt lat="48.92847" lon="2.26983">
        <ele>93.3</ele>
        <time>2015-06-15T19:33:04.831Z</time>
      </trkpt>
      <trkpt lat="48.92846" lon="2.2699">
        <ele>93.5</ele>
        <time>2015-06-15T19:33:05.909Z</time>
      </trkpt>
      <trkpt lat="48.92844" lon="2.26997">
        <ele>93.3</ele>
        <time>2015-06-15T19:33:06.959Z</time>
      </trkpt>
      <trkpt lat="48.92842" lon="2.27004">
        <ele>93.2</ele>
        <time>2015-06-15T19:33:07.909Z</time>
      </trkpt>
      <trkpt lat="48.92839" lon="2.2701">
        <ele>92.8</ele>
        <time>2015-06-15T19:33:08.911Z</time>
      </trkpt>
      <trkpt lat="48.92836" lon="2.27017">
        <ele>92.2</ele>
        <time>2015-06-15T19:33:09.915Z</time>
      </trkpt>
      <trkpt lat="48.92833" lon="2.27024">
        <ele>91.9</ele>
        <time>2015-06-15T19:33:10.933Z</time>
      </trkpt>
      <trkpt lat="48.92831" lon="2.27031">
        <ele>91.7</ele>
        <time>2015-06-15T19:33:11.939Z</time>
      </trkpt>
      <trkpt lat="48.92828" lon="2.27038">
        <ele>91.8</ele>
        <time>2015-06-15T19:33:12.870Z</time>
      </trkpt>
      <trkpt lat="48.92825" lon="2.27046">
        <ele>91.6</ele>
        <time>2015-06-15T19:33:13.912Z</time>
      </trkpt>
      <trkpt lat="48.92822" lon="2.27053">
        <ele>91.6</ele>
        <time>2015-06-15T19:33:14.949Z</time>
      </trkpt>
      <trkpt lat="48.9282" lon="2.2706">
        <ele>91.6</ele>
        <time>2015-06-15T19:33:15.952Z</time>
      </trkpt>
      <trkpt lat="48.92818" lon="2.27067">
        <ele>91.6</ele>
        <time>2015-06-15T19:33:16.865Z</time>
      </trkpt>
      <trkpt lat="48.92817" lon="2.27074">
        <ele>91.8</ele>
        <time>2015-06-15T19:33:17.875Z</time>
      </trkpt>
      <trkpt lat="48.92816" lon="2.27081">
        <ele>91.9</ele>
        <time>2015-06-15T19:33:18.883Z</time>
      </trkpt>
      <trkpt lat="48.92814" lon="2.27088">
        <ele>92</ele>
        <time>2015-06-15T19:33:19.892Z</time>
      </trkpt>
      <trkpt lat="48.92811" lon="2.27097">
        <ele>92.6</ele>
        <time>2015-06-15T19:33:20.937Z</time>
      </trkpt>
      <trkpt lat="48.92808" lon="2.27107">
        <ele>93</ele>
        <time>2015-06-15T19:33:21.954Z</time>
      </trkpt>
      <trkpt lat="48.92806" lon="2.27114">
        <ele>92.9</ele>
        <time>2015-06-15T19:33:22.888Z</time>
      </trkpt>
      <trkpt lat="48.92804" lon="2.27122">
        <ele>93.2</ele>
        <time>2015-06-15T19:33:23.884Z</time>
      </trkpt>
      <trkpt lat="48.92803" lon="2.27129">
        <ele>93.7</ele>
        <time>2015-06-15T19:33:24.887Z</time>
      </trkpt>
      <trkpt lat="48.92802" lon="2.27137">
        <ele>94.2</ele>
        <time>2015-06-15T19:33:25.918Z</time>
      </trkpt>
      <trkpt lat="48.928" lon="2.27144">
        <ele>94.5</ele>
        <time>2015-06-15T19:33:26.989Z</time>
      </trkpt>
      <trkpt lat="48.92796" lon="2.27152">
        <ele>94.5</ele>
        <time>2015-06-15T19:33:27.869Z</time>
      </trkpt>
      <trkpt lat="48.92792" lon="2.2716">
        <ele>94.3</ele>
        <time>2015-06-15T19:33:28.881Z</time>
      </trkpt>
      <trkpt lat="48.92788" lon="2.27169">
        <ele>93.6</ele>
        <time>2015-06-15T19:33:29.891Z</time>
      </trkpt>
      <trkpt lat="48.92784" lon="2.27181">
        <ele>93.8</ele>
        <time>2015-06-15T19:33:30.901Z</time>
      </trkpt>
      <trkpt lat="48.9278" lon="2.2719">
        <ele>93.5</ele>
        <time>2015-06-15T19:33:31.911Z</time>
      </trkpt>
      <trkpt lat="48.92776" lon="2.27198">
        <ele>93.9</ele>
        <time>2015-06-15T19:33:32.959Z</time>
      </trkpt>
      <trkpt lat="48.92774" lon="2.27205">
        <ele>94.6</ele>
        <time>2015-06-15T19:33:33.860Z</time>
      </trkpt>
      <trkpt lat="48.92771" lon="2.27216">
        <ele>95.5</ele>
        <time>2015-06-15T19:33:35.871Z</time>
      </trkpt>
      <trkpt lat="48.92769" lon="2.27223">
        <ele>95.7</ele>
        <time>2015-06-15T19:33:36.955Z</time>
      </trkpt>
      <trkpt lat="48.92767" lon="2.2723">
        <ele>95.7</ele>
        <time>2015-06-15T19:33:37.866Z</time>
      </trkpt>
      <trkpt lat="48.92766" lon="2.27237">
        <ele>96.2</ele>
        <time>2015-06-15T19:33:38.920Z</time>
      </trkpt>
      <trkpt lat="48.92765" lon="2.27245">
        <ele>96.6</ele>
        <time>2015-06-15T19:33:39.927Z</time>
      </trkpt>
      <trkpt lat="48.92762" lon="2.27252">
        <ele>97.1</ele>
        <time>2015-06-15T19:33:40.866Z</time>
      </trkpt>
      <trkpt lat="48.92759" lon="2.27258">
        <ele>97.3</ele>
        <time>2015-06-15T19:33:41.865Z</time>
      </trkpt>
      <trkpt lat="48.92757" lon="2.27264">
        <ele>97.4</ele>
        <time>2015-06-15T19:33:42.869Z</time>
      </trkpt>
      <trkpt lat="48.9275" lon="2.27274">
        <ele>97.7</ele>
        <time>2015-06-15T19:33:44.916Z</time>
      </trkpt>
      <trkpt lat="48.92745" lon="2.27281">
        <ele>97.7</ele>
        <time>2015-06-15T19:33:45.869Z</time>
      </trkpt>
      <trkpt lat="48.92739" lon="2.27289">
        <ele>97.2</ele>
        <time>2015-06-15T19:33:46.880Z</time>
      </trkpt>
      <trkpt lat="48.92732" lon="2.27297">
        <ele>96.7</ele>
        <time>2015-06-15T19:33:47.892Z</time>
      </trkpt>
      <trkpt lat="48.92726" lon="2.27304">
        <ele>96.4</ele>
        <time>2015-06-15T19:33:48.933Z</time>
      </trkpt>
      <trkpt lat="48.92721" lon="2.27307">
        <ele>96.5</ele>
        <time>2015-06-15T19:33:49.856Z</time>
      </trkpt>
      <trkpt lat="48.92716" lon="2.27312">
        <ele>96.6</ele>
        <time>2015-06-15T19:33:50.951Z</time>
      </trkpt>
      <trkpt lat="48.92711" lon="2.27315">
        <ele>96.8</ele>
        <time>2015-06-15T19:33:51.845Z</time>
      </trkpt>
      <trkpt lat="48.92706" lon="2.27319">
        <ele>97.1</ele>
        <time>2015-06-15T19:33:52.861Z</time>
      </trkpt>
      <trkpt lat="48.92701" lon="2.27322">
        <ele>97.5</ele>
        <time>2015-06-15T19:33:53.874Z</time>
      </trkpt>
      <trkpt lat="48.92695" lon="2.27325">
        <ele>97.6</ele>
        <time>2015-06-15T19:33:54.869Z</time>
      </trkpt>
      <trkpt lat="48.92691" lon="2.27328">
        <ele>98.3</ele>
        <time>2015-06-15T19:33:55.879Z</time>
      </trkpt>
      <trkpt lat="48.92689" lon="2.27334">
        <ele>98.5</ele>
        <time>2015-06-15T19:33:56.907Z</time>
      </trkpt>
      <trkpt lat="48.92687" lon="2.27341">
        <ele>98.2</ele>
        <time>2015-06-15T19:33:57.917Z</time>
      </trkpt>
      <trkpt lat="48.92684" lon="2.27348">
        <ele>98</ele>
        <time>2015-06-15T19:33:58.933Z</time>
      </trkpt>
      <trkpt lat="48.9268" lon="2.27352">
        <ele>97.9</ele>
        <time>2015-06-15T19:33:59.862Z</time>
      </trkpt>
      <trkpt lat="48.92673" lon="2.27357">
        <ele>98.3</ele>
        <time>2015-06-15T19:34:01.863Z</time>
      </trkpt>
      <trkpt lat="48.92669" lon="2.27359">
        <ele>98.6</ele>
        <time>2015-06-15T19:34:03.043Z</time>
      </trkpt>
      <trkpt lat="48.92662" lon="2.27366">
        <ele>99.4</ele>
        <time>2015-06-15T19:34:04.857Z</time>
      </trkpt>
      <trkpt lat="48.92659" lon="2.27369">
        <ele>99.9</ele>
        <time>2015-06-15T19:34:05.886Z</time>
      </trkpt>
      <trkpt lat="48.92652" lon="2.27376">
        <ele>101.2</ele>
        <time>2015-06-15T19:34:07.910Z</time>
      </trkpt>
      <trkpt lat="48.92644" lon="2.27377">
        <ele>100.1</ele>
        <time>2015-06-15T19:34:09.008Z</time>
      </trkpt>
      <trkpt lat="48.92637" lon="2.27381">
        <ele>99</ele>
        <time>2015-06-15T19:34:09.868Z</time>
      </trkpt>
      <trkpt lat="48.92631" lon="2.27385">
        <ele>98.2</ele>
        <time>2015-06-15T19:34:10.853Z</time>
      </trkpt>
      <trkpt lat="48.92625" lon="2.27388">
        <ele>97.5</ele>
        <time>2015-06-15T19:34:11.862Z</time>
      </trkpt>
      <trkpt lat="48.9262" lon="2.27389">
        <ele>97</ele>
        <time>2015-06-15T19:34:12.866Z</time>
      </trkpt>
      <trkpt lat="48.92615" lon="2.27391">
        <ele>96.6</ele>
        <time>2015-06-15T19:34:13.917Z</time>
      </trkpt>
      <trkpt lat="48.9261" lon="2.27394">
        <ele>96.6</ele>
        <time>2015-06-15T19:34:14.969Z</time>
      </trkpt>
      <trkpt lat="48.92605" lon="2.27397">
        <ele>96.6</ele>
        <time>2015-06-15T19:34:15.859Z</time>
      </trkpt>
      <trkpt lat="48.926" lon="2.274">
        <ele>96.4</ele>
        <time>2015-06-15T19:34:16.913Z</time>
      </trkpt>
      <trkpt lat="48.92596" lon="2.27402">
        <ele>96.8</ele>
        <time>2015-06-15T19:34:17.943Z</time>
      </trkpt>
      <trkpt lat="48.92591" lon="2.27405">
        <ele>97</ele>
        <time>2015-06-15T19:34:18.961Z</time>
      </trkpt>
      <trkpt lat="48.92586" lon="2.27408">
        <ele>97.1</ele>
        <time>2015-06-15T19:34:19.941Z</time>
      </trkpt>
      <trkpt lat="48.92582" lon="2.27411">
        <ele>97.1</ele>
        <time>2015-06-15T19:34:20.956Z</time>
      </trkpt>
      <trkpt lat="48.92578" lon="2.27414">
        <ele>97.1</ele>
        <time>2015-06-15T19:34:21.869Z</time>
      </trkpt>
      <trkpt lat="48.92573" lon="2.27418">
        <ele>96.9</ele>
        <time>2015-06-15T19:34:22.865Z</time>
      </trkpt>
      <trkpt lat="48.92569" lon="2.27421">
        <ele>96.9</ele>
        <time>2015-06-15T19:34:23.885Z</time>
      </trkpt>
      <trkpt lat="48.92564" lon="2.27424">
        <ele>97.1</ele>
        <time>2015-06-15T19:34:24.915Z</time>
      </trkpt>
      <trkpt lat="48.92559" lon="2.27428">
        <ele>97.1</ele>
        <time>2015-06-15T19:34:25.928Z</time>
      </trkpt>
      <trkpt lat="48.92555" lon="2.27431">
        <ele>96.8</ele>
        <time>2015-06-15T19:34:26.933Z</time>
      </trkpt>
      <trkpt lat="48.9255" lon="2.27434">
        <ele>96.7</ele>
        <time>2015-06-15T19:34:27.939Z</time>
      </trkpt>
      <trkpt lat="48.92546" lon="2.27437">
        <ele>96.7</ele>
        <time>2015-06-15T19:34:28.894Z</time>
      </trkpt>
      <trkpt lat="48.92538" lon="2.27442">
        <ele>96.4</ele>
        <time>2015-06-15T19:34:30.916Z</time>
      </trkpt>
      <trkpt lat="48.92533" lon="2.27446">
        <ele>96.1</ele>
        <time>2015-06-15T19:34:31.875Z</time>
      </trkpt>
      <trkpt lat="48.92528" lon="2.2745">
        <ele>96.1</ele>
        <time>2015-06-15T19:34:32.978Z</time>
      </trkpt>
      <trkpt lat="48.92522" lon="2.27455">
        <ele>95.9</ele>
        <time>2015-06-15T19:34:33.872Z</time>
      </trkpt>
      <trkpt lat="48.92517" lon="2.27457">
        <ele>96.1</ele>
        <time>2015-06-15T19:34:34.862Z</time>
      </trkpt>
      <trkpt lat="48.92512" lon="2.2746">
        <ele>96</ele>
        <time>2015-06-15T19:34:35.886Z</time>
      </trkpt>
      <trkpt lat="48.92504" lon="2.27463">
        <ele>95.6</ele>
        <time>2015-06-15T19:34:36.887Z</time>
      </trkpt>
      <trkpt lat="48.92499" lon="2.27467">
        <ele>95.8</ele>
        <time>2015-06-15T19:34:37.902Z</time>
      </trkpt>
      <trkpt lat="48.92495" lon="2.27471">
        <ele>95.7</ele>
        <time>2015-06-15T19:34:38.915Z</time>
      </trkpt>
      <trkpt lat="48.9249" lon="2.27476">
        <ele>95.6</ele>
        <time>2015-06-15T19:34:39.934Z</time>
      </trkpt>
      <trkpt lat="48.92485" lon="2.27481">
        <ele>95.2</ele>
        <time>2015-06-15T19:34:40.849Z</time>
      </trkpt>
      <trkpt lat="48.92478" lon="2.27484">
        <ele>94.7</ele>
        <time>2015-06-15T19:34:41.831Z</time>
      </trkpt>
      <trkpt lat="48.92473" lon="2.27487">
        <ele>94.4</ele>
        <time>2015-06-15T19:34:42.861Z</time>
      </trkpt>
      <trkpt lat="48.92469" lon="2.27489">
        <ele>94</ele>
        <time>2015-06-15T19:34:43.875Z</time>
      </trkpt>
      <trkpt lat="48.92464" lon="2.27492">
        <ele>93.8</ele>
        <time>2015-06-15T19:34:44.893Z</time>
      </trkpt>
      <trkpt lat="48.92459" lon="2.27495">
        <ele>94.1</ele>
        <time>2015-06-15T19:34:45.901Z</time>
      </trkpt>
      <trkpt lat="48.92454" lon="2.27498">
        <ele>94.1</ele>
        <time>2015-06-15T19:34:47.213Z</time>
      </trkpt>
      <trkpt lat="48.92449" lon="2.27503">
        <ele>94.2</ele>
        <time>2015-06-15T19:34:47.857Z</time>
      </trkpt>
      <trkpt lat="48.92444" lon="2.27508">
        <ele>94.5</ele>
        <time>2015-06-15T19:34:48.869Z</time>
      </trkpt>
      <trkpt lat="48.92441" lon="2.27513">
        <ele>94.2</ele>
        <time>2015-06-15T19:34:49.896Z</time>
      </trkpt>
      <trkpt lat="48.92437" lon="2.27518">
        <ele>94.2</ele>
        <time>2015-06-15T19:34:50.910Z</time>
      </trkpt>
      <trkpt lat="48.92431" lon="2.27522">
        <ele>94</ele>
        <time>2015-06-15T19:34:51.834Z</time>
      </trkpt>
      <trkpt lat="48.92426" lon="2.27526">
        <ele>93.9</ele>
        <time>2015-06-15T19:34:52.836Z</time>
      </trkpt>
      <trkpt lat="48.9242" lon="2.27531">
        <ele>94</ele>
        <time>2015-06-15T19:34:53.872Z</time>
      </trkpt>
      <trkpt lat="48.92415" lon="2.27536">
        <ele>93.8</ele>
        <time>2015-06-15T19:34:54.885Z</time>
      </trkpt>
      <trkpt lat="48.9241" lon="2.27539">
        <ele>93.7</ele>
        <time>2015-06-15T19:34:55.894Z</time>
      </trkpt>
      <trkpt lat="48.92405" lon="2.27541">
        <ele>93.6</ele>
        <time>2015-06-15T19:34:56.993Z</time>
      </trkpt>
      <trkpt lat="48.92401" lon="2.27547">
        <ele>93.8</ele>
        <time>2015-06-15T19:34:57.848Z</time>
      </trkpt>
      <trkpt lat="48.9239" lon="2.27554">
        <ele>92.9</ele>
        <time>2015-06-15T19:34:58.855Z</time>
      </trkpt>
      <trkpt lat="48.92382" lon="2.27559">
        <ele>92.7</ele>
        <time>2015-06-15T19:34:59.864Z</time>
      </trkpt>
      <trkpt lat="48.92377" lon="2.27565">
        <ele>92.9</ele>
        <time>2015-06-15T19:35:00.886Z</time>
      </trkpt>
      <trkpt lat="48.92371" lon="2.27568">
        <ele>93</ele>
        <time>2015-06-15T19:35:01.850Z</time>
      </trkpt>
      <trkpt lat="48.92364" lon="2.27572">
        <ele>93.3</ele>
        <time>2015-06-15T19:35:02.948Z</time>
      </trkpt>
      <trkpt lat="48.92357" lon="2.27577">
        <ele>93.4</ele>
        <time>2015-06-15T19:35:03.841Z</time>
      </trkpt>
      <trkpt lat="48.9235" lon="2.27583">
        <ele>93.7</ele>
        <time>2015-06-15T19:35:04.854Z</time>
      </trkpt>
      <trkpt lat="48.92344" lon="2.27588">
        <ele>93.6</ele>
        <time>2015-06-15T19:35:06.121Z</time>
      </trkpt>
      <trkpt lat="48.92337" lon="2.27593">
        <ele>93.8</ele>
        <time>2015-06-15T19:35:06.881Z</time>
      </trkpt>
      <trkpt lat="48.92329" lon="2.27597">
        <ele>93.3</ele>
        <time>2015-06-15T19:35:07.899Z</time>
      </trkpt>
      <trkpt lat="48.92323" lon="2.27602">
        <ele>93.5</ele>
        <time>2015-06-15T19:35:08.928Z</time>
      </trkpt>
      <trkpt lat="48.92319" lon="2.27605">
        <ele>93.6</ele>
        <time>2015-06-15T19:35:09.811Z</time>
      </trkpt>
      <trkpt lat="48.92314" lon="2.27609">
        <ele>94.1</ele>
        <time>2015-06-15T19:35:10.825Z</time>
      </trkpt>
      <trkpt lat="48.92308" lon="2.27613">
        <ele>94.4</ele>
        <time>2015-06-15T19:35:11.829Z</time>
      </trkpt>
      <trkpt lat="48.92302" lon="2.27618">
        <ele>94.3</ele>
        <time>2015-06-15T19:35:12.842Z</time>
      </trkpt>
      <trkpt lat="48.92297" lon="2.27623">
        <ele>94.2</ele>
        <time>2015-06-15T19:35:13.892Z</time>
      </trkpt>
      <trkpt lat="48.92291" lon="2.27628">
        <ele>94.6</ele>
        <time>2015-06-15T19:35:14.909Z</time>
      </trkpt>
      <trkpt lat="48.92286" lon="2.27635">
        <ele>94.4</ele>
        <time>2015-06-15T19:35:15.850Z</time>
      </trkpt>
      <trkpt lat="48.9228" lon="2.27641">
        <ele>94.9</ele>
        <time>2015-06-15T19:35:16.849Z</time>
      </trkpt>
      <trkpt lat="48.92274" lon="2.27649">
        <ele>94.5</ele>
        <time>2015-06-15T19:35:17.870Z</time>
      </trkpt>
      <trkpt lat="48.92269" lon="2.27657">
        <ele>94.2</ele>
        <time>2015-06-15T19:35:18.879Z</time>
      </trkpt>
      <trkpt lat="48.92265" lon="2.27665">
        <ele>93.3</ele>
        <time>2015-06-15T19:35:19.938Z</time>
      </trkpt>
      <trkpt lat="48.9226" lon="2.2767">
        <ele>93.3</ele>
        <time>2015-06-15T19:35:20.911Z</time>
      </trkpt>
      <trkpt lat="48.92257" lon="2.27674">
        <ele>93.5</ele>
        <time>2015-06-15T19:35:21.925Z</time>
      </trkpt>
      <trkpt lat="48.92251" lon="2.27681">
        <ele>93.3</ele>
        <time>2015-06-15T19:35:22.963Z</time>
      </trkpt>
      <trkpt lat="48.92246" lon="2.27687">
        <ele>93.3</ele>
        <time>2015-06-15T19:35:23.861Z</time>
      </trkpt>
      <trkpt lat="48.92242" lon="2.27693">
        <ele>93.6</ele>
        <time>2015-06-15T19:35:24.850Z</time>
      </trkpt>
      <trkpt lat="48.92238" lon="2.27698">
        <ele>93.9</ele>
        <time>2015-06-15T19:35:25.873Z</time>
      </trkpt>
      <trkpt lat="48.92234" lon="2.27703">
        <ele>93.9</ele>
        <time>2015-06-15T19:35:26.872Z</time>
      </trkpt>
      <trkpt lat="48.9223" lon="2.27709">
        <ele>93.9</ele>
        <time>2015-06-15T19:35:27.894Z</time>
      </trkpt>
      <trkpt lat="48.92225" lon="2.27716">
        <ele>94</ele>
        <time>2015-06-15T19:35:28.913Z</time>
      </trkpt>
      <trkpt lat="48.9222" lon="2.27722">
        <ele>93.9</ele>
        <time>2015-06-15T19:35:29.930Z</time>
      </trkpt>
      <trkpt lat="48.92215" lon="2.27728">
        <ele>94</ele>
        <time>2015-06-15T19:35:30.842Z</time>
      </trkpt>
      <trkpt lat="48.92211" lon="2.27734">
        <ele>93.7</ele>
        <time>2015-06-15T19:35:31.845Z</time>
      </trkpt>
      <trkpt lat="48.92207" lon="2.27739">
        <ele>93.6</ele>
        <time>2015-06-15T19:35:32.891Z</time>
      </trkpt>
      <trkpt lat="48.92203" lon="2.27743">
        <ele>94.3</ele>
        <time>2015-06-15T19:35:33.910Z</time>
      </trkpt>
      <trkpt lat="48.92198" lon="2.27747">
        <ele>94</ele>
        <time>2015-06-15T19:35:34.921Z</time>
      </trkpt>
      <trkpt lat="48.92195" lon="2.27753">
        <ele>93.6</ele>
        <time>2015-06-15T19:35:35.838Z</time>
      </trkpt>
      <trkpt lat="48.92191" lon="2.27758">
        <ele>94.1</ele>
        <time>2015-06-15T19:35:36.844Z</time>
      </trkpt>
      <trkpt lat="48.92187" lon="2.27764">
        <ele>94.5</ele>
        <time>2015-06-15T19:35:37.860Z</time>
      </trkpt>
      <trkpt lat="48.92183" lon="2.2777">
        <ele>95</ele>
        <time>2015-06-15T19:35:38.881Z</time>
      </trkpt>
      <trkpt lat="48.92179" lon="2.27775">
        <ele>95.4</ele>
        <time>2015-06-15T19:35:39.880Z</time>
      </trkpt>
      <trkpt lat="48.92176" lon="2.2778">
        <ele>95.9</ele>
        <time>2015-06-15T19:35:40.885Z</time>
      </trkpt>
      <trkpt lat="48.92169" lon="2.27789">
        <ele>97.2</ele>
        <time>2015-06-15T19:35:42.911Z</time>
      </trkpt>
      <trkpt lat="48.92166" lon="2.27793">
        <ele>97.7</ele>
        <time>2015-06-15T19:35:43.936Z</time>
      </trkpt>
      <trkpt lat="48.92162" lon="2.27798">
        <ele>98</ele>
        <time>2015-06-15T19:35:44.968Z</time>
      </trkpt>
      <trkpt lat="48.92158" lon="2.27802">
        <ele>98.6</ele>
        <time>2015-06-15T19:35:45.841Z</time>
      </trkpt>
      <trkpt lat="48.92155" lon="2.27806">
        <ele>99</ele>
        <time>2015-06-15T19:35:46.846Z</time>
      </trkpt>
      <trkpt lat="48.92151" lon="2.27811">
        <ele>99.3</ele>
        <time>2015-06-15T19:35:47.869Z</time>
      </trkpt>
      <trkpt lat="48.92146" lon="2.27817">
        <ele>100.3</ele>
        <time>2015-06-15T19:35:49.888Z</time>
      </trkpt>
      <trkpt lat="48.92144" lon="2.27819">
        <ele>100.5</ele>
        <time>2015-06-15T19:35:50.938Z</time>
      </trkpt>
      <trkpt lat="48.92137" lon="2.27825">
        <ele>100.7</ele>
        <time>2015-06-15T19:35:53.895Z</time>
      </trkpt>
      <trkpt lat="48.92133" lon="2.27827">
        <ele>100.6</ele>
        <time>2015-06-15T19:35:54.850Z</time>
      </trkpt>
      <trkpt lat="48.92126" lon="2.27831">
        <ele>98.9</ele>
        <time>2015-06-15T19:35:56.922Z</time>
      </trkpt>
      <trkpt lat="48.92123" lon="2.27834">
        <ele>98.2</ele>
        <time>2015-06-15T19:35:57.902Z</time>
      </trkpt>
      <trkpt lat="48.92116" lon="2.27842">
        <ele>98.4</ele>
        <time>2015-06-15T19:35:59.867Z</time>
      </trkpt>
      <trkpt lat="48.92112" lon="2.27847">
        <ele>98.6</ele>
        <time>2015-06-15T19:36:00.878Z</time>
      </trkpt>
      <trkpt lat="48.92106" lon="2.27855">
        <ele>99</ele>
        <time>2015-06-15T19:36:02.939Z</time>
      </trkpt>
      <trkpt lat="48.92103" lon="2.27858">
        <ele>99.5</ele>
        <time>2015-06-15T19:36:03.969Z</time>
      </trkpt>
      <trkpt lat="48.92099" lon="2.27865">
        <ele>100.2</ele>
        <time>2015-06-15T19:36:05.851Z</time>
      </trkpt>
      <trkpt lat="48.92096" lon="2.27869">
        <ele>100.5</ele>
        <time>2015-06-15T19:36:06.873Z</time>
      </trkpt>
      <trkpt lat="48.92092" lon="2.27873">
        <ele>100.9</ele>
        <time>2015-06-15T19:36:07.814Z</time>
      </trkpt>
      <trkpt lat="48.92088" lon="2.27877">
        <ele>100.9</ele>
        <time>2015-06-15T19:36:08.882Z</time>
      </trkpt>
      <trkpt lat="48.92081" lon="2.27886">
        <ele>100.4</ele>
        <time>2015-06-15T19:36:10.818Z</time>
      </trkpt>
      <trkpt lat="48.92078" lon="2.2789">
        <ele>100.3</ele>
        <time>2015-06-15T19:36:11.838Z</time>
      </trkpt>
      <trkpt lat="48.92071" lon="2.27897">
        <ele>100.6</ele>
        <time>2015-06-15T19:36:13.888Z</time>
      </trkpt>
      <trkpt lat="48.92067" lon="2.27902">
        <ele>100.5</ele>
        <time>2015-06-15T19:36:14.967Z</time>
      </trkpt>
      <trkpt lat="48.92063" lon="2.27907">
        <ele>100.4</ele>
        <time>2015-06-15T19:36:15.850Z</time>
      </trkpt>
      <trkpt lat="48.92058" lon="2.27913">
        <ele>100.1</ele>
        <time>2015-06-15T19:36:16.858Z</time>
      </trkpt>
      <trkpt lat="48.92052" lon="2.2792">
        <ele>100</ele>
        <time>2015-06-15T19:36:17.890Z</time>
      </trkpt>
      <trkpt lat="48.92047" lon="2.27926">
        <ele>100.1</ele>
        <time>2015-06-15T19:36:18.915Z</time>
      </trkpt>
      <trkpt lat="48.92043" lon="2.27932">
        <ele>100.3</ele>
        <time>2015-06-15T19:36:19.863Z</time>
      </trkpt>
      <trkpt lat="48.92036" lon="2.27938">
        <ele>100</ele>
        <time>2015-06-15T19:36:20.896Z</time>
      </trkpt>
      <trkpt lat="48.92029" lon="2.27943">
        <ele>99.6</ele>
        <time>2015-06-15T19:36:21.896Z</time>
      </trkpt>
      <trkpt lat="48.92023" lon="2.27948">
        <ele>98.6</ele>
        <time>2015-06-15T19:36:22.906Z</time>
      </trkpt>
      <trkpt lat="48.92017" lon="2.27953">
        <ele>97.8</ele>
        <time>2015-06-15T19:36:23.878Z</time>
      </trkpt>
      <trkpt lat="48.92012" lon="2.27959">
        <ele>97.6</ele>
        <time>2015-06-15T19:36:24.839Z</time>
      </trkpt>
      <trkpt lat="48.92005" lon="2.27967">
        <ele>97.7</ele>
        <time>2015-06-15T19:36:26.913Z</time>
      </trkpt>
      <trkpt lat="48.92001" lon="2.27971">
        <ele>98</ele>
        <time>2015-06-15T19:36:27.876Z</time>
      </trkpt>
      <trkpt lat="48.91997" lon="2.27975">
        <ele>98.3</ele>
        <time>2015-06-15T19:36:28.878Z</time>
      </trkpt>
      <trkpt lat="48.91994" lon="2.2798">
        <ele>98.5</ele>
        <time>2015-06-15T19:36:29.955Z</time>
      </trkpt>
      <trkpt lat="48.91988" lon="2.27984">
        <ele>98.4</ele>
        <time>2015-06-15T19:36:30.812Z</time>
      </trkpt>
      <trkpt lat="48.91982" lon="2.27988">
        <ele>98</ele>
        <time>2015-06-15T19:36:31.840Z</time>
      </trkpt>
      <trkpt lat="48.91975" lon="2.27994">
        <ele>97.8</ele>
        <time>2015-06-15T19:36:32.999Z</time>
      </trkpt>
      <trkpt lat="48.91969" lon="2.28001">
        <ele>97.6</ele>
        <time>2015-06-15T19:36:33.847Z</time>
      </trkpt>
      <trkpt lat="48.91965" lon="2.28006">
        <ele>97.5</ele>
        <time>2015-06-15T19:36:34.862Z</time>
      </trkpt>
      <trkpt lat="48.91961" lon="2.28012">
        <ele>98.3</ele>
        <time>2015-06-15T19:36:35.885Z</time>
      </trkpt>
      <trkpt lat="48.91954" lon="2.2802">
        <ele>98.3</ele>
        <time>2015-06-15T19:36:37.934Z</time>
      </trkpt>
      <trkpt lat="48.91952" lon="2.28022">
        <ele>98.5</ele>
        <time>2015-06-15T19:36:38.951Z</time>
      </trkpt>
      <trkpt lat="48.91946" lon="2.28029">
        <ele>98.9</ele>
        <time>2015-06-15T19:36:40.880Z</time>
      </trkpt>
      <trkpt lat="48.91942" lon="2.28035">
        <ele>99.3</ele>
        <time>2015-06-15T19:36:41.933Z</time>
      </trkpt>
      <trkpt lat="48.91938" lon="2.2804">
        <ele>99.4</ele>
        <time>2015-06-15T19:36:42.955Z</time>
      </trkpt>
      <trkpt lat="48.91935" lon="2.28044">
        <ele>99.2</ele>
        <time>2015-06-15T19:36:43.867Z</time>
      </trkpt>
      <trkpt lat="48.91931" lon="2.28049">
        <ele>99.1</ele>
        <time>2015-06-15T19:36:44.895Z</time>
      </trkpt>
      <trkpt lat="48.91926" lon="2.28054">
        <ele>99.4</ele>
        <time>2015-06-15T19:36:45.905Z</time>
      </trkpt>
      <trkpt lat="48.91922" lon="2.28059">
        <ele>99.5</ele>
        <time>2015-06-15T19:36:46.924Z</time>
      </trkpt>
      <trkpt lat="48.91919" lon="2.28064">
        <ele>99.8</ele>
        <time>2015-06-15T19:36:47.848Z</time>
      </trkpt>
      <trkpt lat="48.91914" lon="2.28073">
        <ele>100</ele>
        <time>2015-06-15T19:36:49.863Z</time>
      </trkpt>
      <trkpt lat="48.91911" lon="2.28078">
        <ele>100.4</ele>
        <time>2015-06-15T19:36:50.969Z</time>
      </trkpt>
      <trkpt lat="48.91909" lon="2.2809">
        <ele>100.9</ele>
        <time>2015-06-15T19:36:52.821Z</time>
      </trkpt>
      <trkpt lat="48.91908" lon="2.28096">
        <ele>101.3</ele>
        <time>2015-06-15T19:36:53.850Z</time>
      </trkpt>
      <trkpt lat="48.91905" lon="2.28103">
        <ele>101.7</ele>
        <time>2015-06-15T19:36:54.880Z</time>
      </trkpt>
      <trkpt lat="48.91903" lon="2.2811">
        <ele>102.3</ele>
        <time>2015-06-15T19:36:55.879Z</time>
      </trkpt>
      <trkpt lat="48.919" lon="2.28121">
        <ele>103.3</ele>
        <time>2015-06-15T19:36:57.940Z</time>
      </trkpt>
      <trkpt lat="48.91897" lon="2.28128">
        <ele>102.6</ele>
        <time>2015-06-15T19:36:58.819Z</time>
      </trkpt>
      <trkpt lat="48.91894" lon="2.28134">
        <ele>102.4</ele>
        <time>2015-06-15T19:36:59.859Z</time>
      </trkpt>
      <trkpt lat="48.91892" lon="2.2814">
        <ele>102.4</ele>
        <time>2015-06-15T19:37:00.872Z</time>
      </trkpt>
      <trkpt lat="48.9189" lon="2.28149">
        <ele>102.2</ele>
        <time>2015-06-15T19:37:01.894Z</time>
      </trkpt>
      <trkpt lat="48.91888" lon="2.28158">
        <ele>102</ele>
        <time>2015-06-15T19:37:02.964Z</time>
      </trkpt>
      <trkpt lat="48.91886" lon="2.28166">
        <ele>102.4</ele>
        <time>2015-06-15T19:37:03.873Z</time>
      </trkpt>
      <trkpt lat="48.91884" lon="2.28172">
        <ele>102.7</ele>
        <time>2015-06-15T19:37:04.915Z</time>
      </trkpt>
      <trkpt lat="48.91881" lon="2.28184">
        <ele>102.7</ele>
        <time>2015-06-15T19:37:06.878Z</time>
      </trkpt>
      <trkpt lat="48.9188" lon="2.28189">
        <ele>102.5</ele>
        <time>2015-06-15T19:37:07.961Z</time>
      </trkpt>
      <trkpt lat="48.91877" lon="2.28199">
        <ele>102.5</ele>
        <time>2015-06-15T19:37:09.897Z</time>
      </trkpt>
      <trkpt lat="48.91877" lon="2.28205">
        <ele>101.7</ele>
        <time>2015-06-15T19:37:10.921Z</time>
      </trkpt>
      <trkpt lat="48.91874" lon="2.28217">
        <ele>101.4</ele>
        <time>2015-06-15T19:37:12.890Z</time>
      </trkpt>
      <trkpt lat="48.91872" lon="2.28223">
        <ele>101.7</ele>
        <time>2015-06-15T19:37:13.929Z</time>
      </trkpt>
      <trkpt lat="48.91869" lon="2.28236">
        <ele>102.9</ele>
        <time>2015-06-15T19:37:15.905Z</time>
      </trkpt>
      <trkpt lat="48.91867" lon="2.28244">
        <ele>103.2</ele>
        <time>2015-06-15T19:37:16.858Z</time>
      </trkpt>
      <trkpt lat="48.91865" lon="2.28252">
        <ele>103.3</ele>
        <time>2015-06-15T19:37:17.872Z</time>
      </trkpt>
      <trkpt lat="48.91863" lon="2.2826">
        <ele>103.7</ele>
        <time>2015-06-15T19:37:18.852Z</time>
      </trkpt>
      <trkpt lat="48.9186" lon="2.28267">
        <ele>103.9</ele>
        <time>2015-06-15T19:37:19.914Z</time>
      </trkpt>
      <trkpt lat="48.91856" lon="2.28274">
        <ele>104</ele>
        <time>2015-06-15T19:37:20.925Z</time>
      </trkpt>
      <trkpt lat="48.91854" lon="2.28281">
        <ele>103.7</ele>
        <time>2015-06-15T19:37:21.857Z</time>
      </trkpt>
      <trkpt lat="48.91852" lon="2.28288">
        <ele>104</ele>
        <time>2015-06-15T19:37:22.857Z</time>
      </trkpt>
      <trkpt lat="48.9185" lon="2.28299">
        <ele>104.5</ele>
        <time>2015-06-15T19:37:24.889Z</time>
      </trkpt>
      <trkpt lat="48.91851" lon="2.28304">
        <ele>104.7</ele>
        <time>2015-06-15T19:37:25.890Z</time>
      </trkpt>
      <trkpt lat="48.91849" lon="2.28313">
        <ele>104.1</ele>
        <time>2015-06-15T19:37:27.844Z</time>
      </trkpt>
      <trkpt lat="48.91846" lon="2.28319">
        <ele>104.1</ele>
        <time>2015-06-15T19:37:28.922Z</time>
      </trkpt>
      <trkpt lat="48.91843" lon="2.28326">
        <ele>104.2</ele>
        <time>2015-06-15T19:37:29.948Z</time>
      </trkpt>
      <trkpt lat="48.91841" lon="2.28335">
        <ele>104.1</ele>
        <time>2015-06-15T19:37:30.851Z</time>
      </trkpt>
      <trkpt lat="48.91839" lon="2.28344">
        <ele>104</ele>
        <time>2015-06-15T19:37:31.878Z</time>
      </trkpt>
      <trkpt lat="48.91836" lon="2.28353">
        <ele>104.3</ele>
        <time>2015-06-15T19:37:32.944Z</time>
      </trkpt>
      <trkpt lat="48.91832" lon="2.28363">
        <ele>103.8</ele>
        <time>2015-06-15T19:37:33.847Z</time>
      </trkpt>
      <trkpt lat="48.91829" lon="2.28372">
        <ele>103.8</ele>
        <time>2015-06-15T19:37:34.856Z</time>
      </trkpt>
      <trkpt lat="48.91827" lon="2.28379">
        <ele>103.9</ele>
        <time>2015-06-15T19:37:35.879Z</time>
      </trkpt>
      <trkpt lat="48.91825" lon="2.28386">
        <ele>104.2</ele>
        <time>2015-06-15T19:37:36.910Z</time>
      </trkpt>
      <trkpt lat="48.91822" lon="2.28392">
        <ele>104.3</ele>
        <time>2015-06-15T19:37:37.933Z</time>
      </trkpt>
      <trkpt lat="48.91819" lon="2.284">
        <ele>104.7</ele>
        <time>2015-06-15T19:37:38.941Z</time>
      </trkpt>
      <trkpt lat="48.91817" lon="2.28407">
        <ele>105</ele>
        <time>2015-06-15T19:37:39.850Z</time>
      </trkpt>
      <trkpt lat="48.91815" lon="2.28414">
        <ele>105.1</ele>
        <time>2015-06-15T19:37:40.890Z</time>
      </trkpt>
      <trkpt lat="48.91812" lon="2.28422">
        <ele>104.7</ele>
        <time>2015-06-15T19:37:41.931Z</time>
      </trkpt>
      <trkpt lat="48.91811" lon="2.28429">
        <ele>104.9</ele>
        <time>2015-06-15T19:37:42.845Z</time>
      </trkpt>
      <trkpt lat="48.91808" lon="2.28436">
        <ele>105</ele>
        <time>2015-06-15T19:37:43.844Z</time>
      </trkpt>
      <trkpt lat="48.91806" lon="2.28443">
        <ele>104.9</ele>
        <time>2015-06-15T19:37:44.895Z</time>
      </trkpt>
      <trkpt lat="48.91804" lon="2.2845">
        <ele>105.1</ele>
        <time>2015-06-15T19:37:45.952Z</time>
      </trkpt>
      <trkpt lat="48.91801" lon="2.28458">
        <ele>105.4</ele>
        <time>2015-06-15T19:37:46.921Z</time>
      </trkpt>
      <trkpt lat="48.91799" lon="2.28465">
        <ele>105.3</ele>
        <time>2015-06-15T19:37:47.865Z</time>
      </trkpt>
      <trkpt lat="48.91795" lon="2.28474">
        <ele>105.3</ele>
        <time>2015-06-15T19:37:48.877Z</time>
      </trkpt>
      <trkpt lat="48.91792" lon="2.28482">
        <ele>105.3</ele>
        <time>2015-06-15T19:37:49.908Z</time>
      </trkpt>
      <trkpt lat="48.91789" lon="2.2849">
        <ele>105.7</ele>
        <time>2015-06-15T19:37:50.921Z</time>
      </trkpt>
      <trkpt lat="48.91786" lon="2.28498">
        <ele>105.8</ele>
        <time>2015-06-15T19:37:51.925Z</time>
      </trkpt>
      <trkpt lat="48.91783" lon="2.28507">
        <ele>106.1</ele>
        <time>2015-06-15T19:37:52.941Z</time>
      </trkpt>
      <trkpt lat="48.9178" lon="2.28515">
        <ele>106.5</ele>
        <time>2015-06-15T19:37:53.879Z</time>
      </trkpt>
      <trkpt lat="48.91778" lon="2.28524">
        <ele>106.9</ele>
        <time>2015-06-15T19:37:54.870Z</time>
      </trkpt>
      <trkpt lat="48.91776" lon="2.28532">
        <ele>107.3</ele>
        <time>2015-06-15T19:37:55.870Z</time>
      </trkpt>
      <trkpt lat="48.91774" lon="2.28539">
        <ele>107.6</ele>
        <time>2015-06-15T19:37:56.938Z</time>
      </trkpt>
      <trkpt lat="48.91771" lon="2.28547">
        <ele>107.4</ele>
        <time>2015-06-15T19:37:57.853Z</time>
      </trkpt>
      <trkpt lat="48.91769" lon="2.28554">
        <ele>107.2</ele>
        <time>2015-06-15T19:37:58.853Z</time>
      </trkpt>
      <trkpt lat="48.91769" lon="2.28562">
        <ele>106.1</ele>
        <time>2015-06-15T19:37:59.869Z</time>
      </trkpt>
      <trkpt lat="48.91768" lon="2.28571">
        <ele>105.1</ele>
        <time>2015-06-15T19:38:00.906Z</time>
      </trkpt>
      <trkpt lat="48.91765" lon="2.28579">
        <ele>105.1</ele>
        <time>2015-06-15T19:38:01.919Z</time>
      </trkpt>
      <trkpt lat="48.91763" lon="2.28588">
        <ele>105.5</ele>
        <time>2015-06-15T19:38:02.936Z</time>
      </trkpt>
      <trkpt lat="48.91761" lon="2.28596">
        <ele>105.7</ele>
        <time>2015-06-15T19:38:03.836Z</time>
      </trkpt>
      <trkpt lat="48.91756" lon="2.28605">
        <ele>105.4</ele>
        <time>2015-06-15T19:38:04.842Z</time>
      </trkpt>
      <trkpt lat="48.9175" lon="2.28613">
        <ele>105.2</ele>
        <time>2015-06-15T19:38:05.848Z</time>
      </trkpt>
      <trkpt lat="48.91746" lon="2.28621">
        <ele>105.4</ele>
        <time>2015-06-15T19:38:06.865Z</time>
      </trkpt>
      <trkpt lat="48.91742" lon="2.28629">
        <ele>105.6</ele>
        <time>2015-06-15T19:38:07.891Z</time>
      </trkpt>
      <trkpt lat="48.91739" lon="2.28636">
        <ele>105.4</ele>
        <time>2015-06-15T19:38:08.910Z</time>
      </trkpt>
      <trkpt lat="48.91737" lon="2.28643">
        <ele>105.6</ele>
        <time>2015-06-15T19:38:09.833Z</time>
      </trkpt>
      <trkpt lat="48.91734" lon="2.28652">
        <ele>106.1</ele>
        <time>2015-06-15T19:38:10.845Z</time>
      </trkpt>
      <trkpt lat="48.91731" lon="2.28659">
        <ele>106</ele>
        <time>2015-06-15T19:38:11.867Z</time>
      </trkpt>
      <trkpt lat="48.91728" lon="2.28667">
        <ele>106.2</ele>
        <time>2015-06-15T19:38:12.872Z</time>
      </trkpt>
      <trkpt lat="48.91726" lon="2.28674">
        <ele>106.3</ele>
        <time>2015-06-15T19:38:13.887Z</time>
      </trkpt>
      <trkpt lat="48.91724" lon="2.2868">
        <ele>106.6</ele>
        <time>2015-06-15T19:38:14.903Z</time>
      </trkpt>
      <trkpt lat="48.91722" lon="2.28687">
        <ele>106.9</ele>
        <time>2015-06-15T19:38:15.906Z</time>
      </trkpt>
      <trkpt lat="48.9172" lon="2.28695">
        <ele>107</ele>
        <time>2015-06-15T19:38:16.917Z</time>
      </trkpt>
      <trkpt lat="48.91718" lon="2.28706">
        <ele>106</ele>
        <time>2015-06-15T19:38:17.921Z</time>
      </trkpt>
      <trkpt lat="48.91715" lon="2.28716">
        <ele>105.3</ele>
        <time>2015-06-15T19:38:18.930Z</time>
      </trkpt>
      <trkpt lat="48.91713" lon="2.28726">
        <ele>104.3</ele>
        <time>2015-06-15T19:38:19.933Z</time>
      </trkpt>
      <trkpt lat="48.91711" lon="2.28733">
        <ele>103.6</ele>
        <time>2015-06-15T19:38:20.939Z</time>
      </trkpt>
      <trkpt lat="48.9171" lon="2.2874">
        <ele>102.7</ele>
        <time>2015-06-15T19:38:21.838Z</time>
      </trkpt>
      <trkpt lat="48.91708" lon="2.28748">
        <ele>101.9</ele>
        <time>2015-06-15T19:38:22.862Z</time>
      </trkpt>
      <trkpt lat="48.91707" lon="2.28754">
        <ele>101.9</ele>
        <time>2015-06-15T19:38:23.890Z</time>
      </trkpt>
      <trkpt lat="48.91705" lon="2.28761">
        <ele>101.8</ele>
        <time>2015-06-15T19:38:24.904Z</time>
      </trkpt>
      <trkpt lat="48.91703" lon="2.28769">
        <ele>101.5</ele>
        <time>2015-06-15T19:38:25.865Z</time>
      </trkpt>
      <trkpt lat="48.91701" lon="2.28776">
        <ele>101</ele>
        <time>2015-06-15T19:38:26.916Z</time>
      </trkpt>
      <trkpt lat="48.917" lon="2.28783">
        <ele>100.7</ele>
        <time>2015-06-15T19:38:27.928Z</time>
      </trkpt>
      <trkpt lat="48.91698" lon="2.28789">
        <ele>100.4</ele>
        <time>2015-06-15T19:38:28.942Z</time>
      </trkpt>
      <trkpt lat="48.91695" lon="2.28796">
        <ele>100</ele>
        <time>2015-06-15T19:38:29.859Z</time>
      </trkpt>
      <trkpt lat="48.91693" lon="2.28805">
        <ele>99.6</ele>
        <time>2015-06-15T19:38:30.865Z</time>
      </trkpt>
      <trkpt lat="48.91692" lon="2.28813">
        <ele>99.1</ele>
        <time>2015-06-15T19:38:31.879Z</time>
      </trkpt>
      <trkpt lat="48.9169" lon="2.2882">
        <ele>99.1</ele>
        <time>2015-06-15T19:38:32.951Z</time>
      </trkpt>
      <trkpt lat="48.91687" lon="2.28826">
        <ele>99.1</ele>
        <time>2015-06-15T19:38:33.855Z</time>
      </trkpt>
      <trkpt lat="48.91685" lon="2.28832">
        <ele>99</ele>
        <time>2015-06-15T19:38:34.848Z</time>
      </trkpt>
      <trkpt lat="48.91682" lon="2.28838">
        <ele>98.9</ele>
        <time>2015-06-15T19:38:35.857Z</time>
      </trkpt>
      <trkpt lat="48.9168" lon="2.28845">
        <ele>98.5</ele>
        <time>2015-06-15T19:38:36.862Z</time>
      </trkpt>
      <trkpt lat="48.91679" lon="2.28852">
        <ele>98.2</ele>
        <time>2015-06-15T19:38:37.875Z</time>
      </trkpt>
      <trkpt lat="48.91676" lon="2.28859">
        <ele>98.4</ele>
        <time>2015-06-15T19:38:38.895Z</time>
      </trkpt>
      <trkpt lat="48.91674" lon="2.28866">
        <ele>98.7</ele>
        <time>2015-06-15T19:38:39.851Z</time>
      </trkpt>
      <trkpt lat="48.91673" lon="2.28873">
        <ele>98.9</ele>
        <time>2015-06-15T19:38:40.826Z</time>
      </trkpt>
      <trkpt lat="48.91671" lon="2.28881">
        <ele>99.1</ele>
        <time>2015-06-15T19:38:41.838Z</time>
      </trkpt>
      <trkpt lat="48.91669" lon="2.2889">
        <ele>99.2</ele>
        <time>2015-06-15T19:38:42.848Z</time>
      </trkpt>
      <trkpt lat="48.91668" lon="2.28898">
        <ele>98.8</ele>
        <time>2015-06-15T19:38:43.864Z</time>
      </trkpt>
      <trkpt lat="48.91666" lon="2.28905">
        <ele>98.8</ele>
        <time>2015-06-15T19:38:44.869Z</time>
      </trkpt>
      <trkpt lat="48.91663" lon="2.28913">
        <ele>98.8</ele>
        <time>2015-06-15T19:38:45.831Z</time>
      </trkpt>
      <trkpt lat="48.9166" lon="2.28923">
        <ele>98.7</ele>
        <time>2015-06-15T19:38:46.846Z</time>
      </trkpt>
      <trkpt lat="48.91657" lon="2.28932">
        <ele>98.6</ele>
        <time>2015-06-15T19:38:47.857Z</time>
      </trkpt>
      <trkpt lat="48.91654" lon="2.28941">
        <ele>98.6</ele>
        <time>2015-06-15T19:38:48.856Z</time>
      </trkpt>
      <trkpt lat="48.91652" lon="2.28949">
        <ele>98.6</ele>
        <time>2015-06-15T19:38:49.864Z</time>
      </trkpt>
      <trkpt lat="48.91649" lon="2.28957">
        <ele>98.7</ele>
        <time>2015-06-15T19:38:50.869Z</time>
      </trkpt>
      <trkpt lat="48.91646" lon="2.28966">
        <ele>99</ele>
        <time>2015-06-15T19:38:51.874Z</time>
      </trkpt>
      <trkpt lat="48.91643" lon="2.28976">
        <ele>99.3</ele>
        <time>2015-06-15T19:38:52.893Z</time>
      </trkpt>
      <trkpt lat="48.9164" lon="2.28984">
        <ele>99.7</ele>
        <time>2015-06-15T19:38:53.901Z</time>
      </trkpt>
      <trkpt lat="48.91638" lon="2.28991">
        <ele>99.7</ele>
        <time>2015-06-15T19:38:54.917Z</time>
      </trkpt>
      <trkpt lat="48.91636" lon="2.28998">
        <ele>99.6</ele>
        <time>2015-06-15T19:38:55.930Z</time>
      </trkpt>
      <trkpt lat="48.91634" lon="2.29005">
        <ele>99.4</ele>
        <time>2015-06-15T19:38:56.937Z</time>
      </trkpt>
      <trkpt lat="48.91632" lon="2.29013">
        <ele>99.2</ele>
        <time>2015-06-15T19:38:57.844Z</time>
      </trkpt>
      <trkpt lat="48.9163" lon="2.2902">
        <ele>99.1</ele>
        <time>2015-06-15T19:38:58.857Z</time>
      </trkpt>
      <trkpt lat="48.91627" lon="2.29026">
        <ele>98.5</ele>
        <time>2015-06-15T19:38:59.872Z</time>
      </trkpt>
      <trkpt lat="48.91625" lon="2.29033">
        <ele>98.2</ele>
        <time>2015-06-15T19:39:00.882Z</time>
      </trkpt>
      <trkpt lat="48.91622" lon="2.2904">
        <ele>97.9</ele>
        <time>2015-06-15T19:39:01.889Z</time>
      </trkpt>
      <trkpt lat="48.9162" lon="2.29048">
        <ele>97.7</ele>
        <time>2015-06-15T19:39:02.900Z</time>
      </trkpt>
      <trkpt lat="48.91618" lon="2.29054">
        <ele>97.6</ele>
        <time>2015-06-15T19:39:03.909Z</time>
      </trkpt>
      <trkpt lat="48.91616" lon="2.29062">
        <ele>97.4</ele>
        <time>2015-06-15T19:39:04.823Z</time>
      </trkpt>
      <trkpt lat="48.91613" lon="2.29069">
        <ele>97.4</ele>
        <time>2015-06-15T19:39:05.859Z</time>
      </trkpt>
      <trkpt lat="48.91611" lon="2.29077">
        <ele>97.5</ele>
        <time>2015-06-15T19:39:06.870Z</time>
      </trkpt>
      <trkpt lat="48.91608" lon="2.29085">
        <ele>97.5</ele>
        <time>2015-06-15T19:39:07.887Z</time>
      </trkpt>
      <trkpt lat="48.91605" lon="2.29093">
        <ele>98.1</ele>
        <time>2015-06-15T19:39:08.916Z</time>
      </trkpt>
      <trkpt lat="48.916" lon="2.29102">
        <ele>97.9</ele>
        <time>2015-06-15T19:39:09.923Z</time>
      </trkpt>
      <trkpt lat="48.91596" lon="2.29113">
        <ele>98</ele>
        <time>2015-06-15T19:39:10.844Z</time>
      </trkpt>
      <trkpt lat="48.91592" lon="2.29127">
        <ele>98.4</ele>
        <time>2015-06-15T19:39:11.840Z</time>
      </trkpt>
      <trkpt lat="48.9159" lon="2.29137">
        <ele>97.8</ele>
        <time>2015-06-15T19:39:12.865Z</time>
      </trkpt>
      <trkpt lat="48.91587" lon="2.29146">
        <ele>98.1</ele>
        <time>2015-06-15T19:39:13.875Z</time>
      </trkpt>
      <trkpt lat="48.91585" lon="2.29154">
        <ele>98.2</ele>
        <time>2015-06-15T19:39:14.900Z</time>
      </trkpt>
      <trkpt lat="48.91584" lon="2.29161">
        <ele>98.7</ele>
        <time>2015-06-15T19:39:15.932Z</time>
      </trkpt>
      <trkpt lat="48.91582" lon="2.29173">
        <ele>99.6</ele>
        <time>2015-06-15T19:39:17.859Z</time>
      </trkpt>
      <trkpt lat="48.9158" lon="2.29179">
        <ele>99.7</ele>
        <time>2015-06-15T19:39:18.875Z</time>
      </trkpt>
      <trkpt lat="48.91577" lon="2.29189">
        <ele>99.3</ele>
        <time>2015-06-15T19:39:20.954Z</time>
      </trkpt>
      <trkpt lat="48.91575" lon="2.29196">
        <ele>98.7</ele>
        <time>2015-06-15T19:39:21.951Z</time>
      </trkpt>
      <trkpt lat="48.91571" lon="2.29208">
        <ele>98</ele>
        <time>2015-06-15T19:39:23.905Z</time>
      </trkpt>
      <trkpt lat="48.91569" lon="2.29213">
        <ele>98</ele>
        <time>2015-06-15T19:39:24.936Z</time>
      </trkpt>
      <trkpt lat="48.91565" lon="2.29225">
        <ele>98</ele>
        <time>2015-06-15T19:39:26.907Z</time>
      </trkpt>
      <trkpt lat="48.91562" lon="2.2923">
        <ele>98</ele>
        <time>2015-06-15T19:39:27.823Z</time>
      </trkpt>
      <trkpt lat="48.91559" lon="2.29242">
        <ele>97.5</ele>
        <time>2015-06-15T19:39:30.935Z</time>
      </trkpt>
      <trkpt lat="48.91559" lon="2.29246">
        <ele>96.9</ele>
        <time>2015-06-15T19:39:31.877Z</time>
      </trkpt>
      <trkpt lat="48.91558" lon="2.29252">
        <ele>96.6</ele>
        <time>2015-06-15T19:39:32.985Z</time>
      </trkpt>
      <trkpt lat="48.91557" lon="2.2926">
        <ele>96.6</ele>
        <time>2015-06-15T19:39:33.850Z</time>
      </trkpt>
      <trkpt lat="48.91555" lon="2.29268">
        <ele>96.5</ele>
        <time>2015-06-15T19:39:34.935Z</time>
      </trkpt>
      <trkpt lat="48.91552" lon="2.29275">
        <ele>96.5</ele>
        <time>2015-06-15T19:39:35.862Z</time>
      </trkpt>
      <trkpt lat="48.91549" lon="2.29284">
        <ele>96.8</ele>
        <time>2015-06-15T19:39:36.886Z</time>
      </trkpt>
      <trkpt lat="48.91546" lon="2.29292">
        <ele>97.2</ele>
        <time>2015-06-15T19:39:37.898Z</time>
      </trkpt>
      <trkpt lat="48.91544" lon="2.29301">
        <ele>97.7</ele>
        <time>2015-06-15T19:39:38.902Z</time>
      </trkpt>
      <trkpt lat="48.91541" lon="2.29308">
        <ele>98</ele>
        <time>2015-06-15T19:39:39.909Z</time>
      </trkpt>
      <trkpt lat="48.91539" lon="2.29316">
        <ele>98.3</ele>
        <time>2015-06-15T19:39:40.926Z</time>
      </trkpt>
      <trkpt lat="48.91537" lon="2.29323">
        <ele>98.6</ele>
        <time>2015-06-15T19:39:41.870Z</time>
      </trkpt>
      <trkpt lat="48.91535" lon="2.29331">
        <ele>99.2</ele>
        <time>2015-06-15T19:39:42.861Z</time>
      </trkpt>
      <trkpt lat="48.91535" lon="2.29338">
        <ele>100</ele>
        <time>2015-06-15T19:39:43.882Z</time>
      </trkpt>
      <trkpt lat="48.91535" lon="2.29347">
        <ele>100.1</ele>
        <time>2015-06-15T19:39:44.899Z</time>
      </trkpt>
      <trkpt lat="48.91533" lon="2.29355">
        <ele>100.1</ele>
        <time>2015-06-15T19:39:45.888Z</time>
      </trkpt>
      <trkpt lat="48.9153" lon="2.29363">
        <ele>100.6</ele>
        <time>2015-06-15T19:39:46.906Z</time>
      </trkpt>
      <trkpt lat="48.91528" lon="2.29371">
        <ele>101.2</ele>
        <time>2015-06-15T19:39:47.913Z</time>
      </trkpt>
      <trkpt lat="48.91525" lon="2.2938">
        <ele>101.6</ele>
        <time>2015-06-15T19:39:48.840Z</time>
      </trkpt>
      <trkpt lat="48.91522" lon="2.29388">
        <ele>102</ele>
        <time>2015-06-15T19:39:49.842Z</time>
      </trkpt>
      <trkpt lat="48.91518" lon="2.29397">
        <ele>101.6</ele>
        <time>2015-06-15T19:39:50.852Z</time>
      </trkpt>
      <trkpt lat="48.91513" lon="2.29404">
        <ele>101.7</ele>
        <time>2015-06-15T19:39:51.859Z</time>
      </trkpt>
      <trkpt lat="48.91508" lon="2.29412">
        <ele>101.6</ele>
        <time>2015-06-15T19:39:52.883Z</time>
      </trkpt>
      <trkpt lat="48.91503" lon="2.29418">
        <ele>101.5</ele>
        <time>2015-06-15T19:39:53.892Z</time>
      </trkpt>
      <trkpt lat="48.91499" lon="2.29422">
        <ele>101.4</ele>
        <time>2015-06-15T19:39:54.907Z</time>
      </trkpt>
      <trkpt lat="48.91495" lon="2.29427">
        <ele>101.5</ele>
        <time>2015-06-15T19:39:55.921Z</time>
      </trkpt>
      <trkpt lat="48.9149" lon="2.29431">
        <ele>101.6</ele>
        <time>2015-06-15T19:39:56.941Z</time>
      </trkpt>
      <trkpt lat="48.91484" lon="2.29436">
        <ele>101.7</ele>
        <time>2015-06-15T19:39:57.848Z</time>
      </trkpt>
      <trkpt lat="48.91479" lon="2.29439">
        <ele>102</ele>
        <time>2015-06-15T19:39:58.854Z</time>
      </trkpt>
      <trkpt lat="48.91472" lon="2.29443">
        <ele>102.5</ele>
        <time>2015-06-15T19:39:59.864Z</time>
      </trkpt>
      <trkpt lat="48.91467" lon="2.29447">
        <ele>103.1</ele>
        <time>2015-06-15T19:40:00.886Z</time>
      </trkpt>
      <trkpt lat="48.91463" lon="2.29451">
        <ele>103.3</ele>
        <time>2015-06-15T19:40:01.891Z</time>
      </trkpt>
      <trkpt lat="48.9146" lon="2.29459">
        <ele>102.5</ele>
        <time>2015-06-15T19:40:03.926Z</time>
      </trkpt>
      <trkpt lat="48.91458" lon="2.29463">
        <ele>103.3</ele>
        <time>2015-06-15T19:40:04.878Z</time>
      </trkpt>
      <trkpt lat="48.91454" lon="2.29467">
        <ele>103.4</ele>
        <time>2015-06-15T19:40:05.859Z</time>
      </trkpt>
      <trkpt lat="48.91449" lon="2.29471">
        <ele>103.4</ele>
        <time>2015-06-15T19:40:06.864Z</time>
      </trkpt>
      <trkpt lat="48.91444" lon="2.29475">
        <ele>103.5</ele>
        <time>2015-06-15T19:40:07.877Z</time>
      </trkpt>
      <trkpt lat="48.9144" lon="2.29477">
        <ele>103.5</ele>
        <time>2015-06-15T19:40:08.877Z</time>
      </trkpt>
      <trkpt lat="48.91436" lon="2.29481">
        <ele>103.7</ele>
        <time>2015-06-15T19:40:09.894Z</time>
      </trkpt>
      <trkpt lat="48.91431" lon="2.29485">
        <ele>104</ele>
        <time>2015-06-15T19:40:10.906Z</time>
      </trkpt>
      <trkpt lat="48.91426" lon="2.29489">
        <ele>104.1</ele>
        <time>2015-06-15T19:40:11.825Z</time>
      </trkpt>
      <trkpt lat="48.9142" lon="2.29494">
        <ele>104.2</ele>
        <time>2015-06-15T19:40:12.843Z</time>
      </trkpt>
      <trkpt lat="48.91416" lon="2.29497">
        <ele>104.1</ele>
        <time>2015-06-15T19:40:13.836Z</time>
      </trkpt>
      <trkpt lat="48.91411" lon="2.29501">
        <ele>103.8</ele>
        <time>2015-06-15T19:40:14.894Z</time>
      </trkpt>
      <trkpt lat="48.91406" lon="2.29505">
        <ele>103.3</ele>
        <time>2015-06-15T19:40:15.900Z</time>
      </trkpt>
      <trkpt lat="48.91401" lon="2.29508">
        <ele>103</ele>
        <time>2015-06-15T19:40:16.908Z</time>
      </trkpt>
      <trkpt lat="48.91397" lon="2.29511">
        <ele>102.8</ele>
        <time>2015-06-15T19:40:17.918Z</time>
      </trkpt>
      <trkpt lat="48.91393" lon="2.29513">
        <ele>102.8</ele>
        <time>2015-06-15T19:40:18.838Z</time>
      </trkpt>
      <trkpt lat="48.91387" lon="2.29516">
        <ele>102.2</ele>
        <time>2015-06-15T19:40:19.840Z</time>
      </trkpt>
      <trkpt lat="48.91383" lon="2.29519">
        <ele>102.1</ele>
        <time>2015-06-15T19:40:20.885Z</time>
      </trkpt>
      <trkpt lat="48.91376" lon="2.29523">
        <ele>101.3</ele>
        <time>2015-06-15T19:40:21.916Z</time>
      </trkpt>
      <trkpt lat="48.91371" lon="2.29528">
        <ele>101.2</ele>
        <time>2015-06-15T19:40:22.916Z</time>
      </trkpt>
      <trkpt lat="48.91365" lon="2.29531">
        <ele>100.6</ele>
        <time>2015-06-15T19:40:24Z</time>
      </trkpt>
      <trkpt lat="48.9136" lon="2.29535">
        <ele>100.2</ele>
        <time>2015-06-15T19:40:24.841Z</time>
      </trkpt>
      <trkpt lat="48.91354" lon="2.29538">
        <ele>99.5</ele>
        <time>2015-06-15T19:40:25.832Z</time>
      </trkpt>
      <trkpt lat="48.9135" lon="2.29541">
        <ele>99.8</ele>
        <time>2015-06-15T19:40:26.939Z</time>
      </trkpt>
      <trkpt lat="48.91343" lon="2.29548">
        <ele>100.4</ele>
        <time>2015-06-15T19:40:28.834Z</time>
      </trkpt>
      <trkpt lat="48.9134" lon="2.29551">
        <ele>100.3</ele>
        <time>2015-06-15T19:40:29.846Z</time>
      </trkpt>
      <trkpt lat="48.91334" lon="2.29557">
        <ele>100</ele>
        <time>2015-06-15T19:40:31.881Z</time>
      </trkpt>
      <trkpt lat="48.9133" lon="2.29559">
        <ele>100.5</ele>
        <time>2015-06-15T19:40:32.914Z</time>
      </trkpt>
      <trkpt lat="48.91326" lon="2.29563">
        <ele>100.9</ele>
        <time>2015-06-15T19:40:33.940Z</time>
      </trkpt>
      <trkpt lat="48.91322" lon="2.29567">
        <ele>101.1</ele>
        <time>2015-06-15T19:40:34.856Z</time>
      </trkpt>
      <trkpt lat="48.91318" lon="2.29572">
        <ele>100.7</ele>
        <time>2015-06-15T19:40:35.865Z</time>
      </trkpt>
      <trkpt lat="48.91313" lon="2.29577">
        <ele>100.7</ele>
        <time>2015-06-15T19:40:36.865Z</time>
      </trkpt>
      <trkpt lat="48.91309" lon="2.29581">
        <ele>100.8</ele>
        <time>2015-06-15T19:40:37.919Z</time>
      </trkpt>
      <trkpt lat="48.91305" lon="2.29585">
        <ele>100.8</ele>
        <time>2015-06-15T19:40:38.929Z</time>
      </trkpt>
      <trkpt lat="48.913" lon="2.29588">
        <ele>100.6</ele>
        <time>2015-06-15T19:40:39.842Z</time>
      </trkpt>
      <trkpt lat="48.91295" lon="2.29591">
        <ele>99.9</ele>
        <time>2015-06-15T19:40:40.852Z</time>
      </trkpt>
      <trkpt lat="48.91288" lon="2.29595">
        <ele>99.1</ele>
        <time>2015-06-15T19:40:42.871Z</time>
      </trkpt>
      <trkpt lat="48.91284" lon="2.29597">
        <ele>98.6</ele>
        <time>2015-06-15T19:40:43.892Z</time>
      </trkpt>
      <trkpt lat="48.91276" lon="2.296">
        <ele>97.5</ele>
        <time>2015-06-15T19:40:45.856Z</time>
      </trkpt>
      <trkpt lat="48.91271" lon="2.29601">
        <ele>96.9</ele>
        <time>2015-06-15T19:40:46.880Z</time>
      </trkpt>
      <trkpt lat="48.91263" lon="2.29602">
        <ele>95.9</ele>
        <time>2015-06-15T19:40:48.917Z</time>
      </trkpt>
      <trkpt lat="48.91259" lon="2.29604">
        <ele>95.9</ele>
        <time>2015-06-15T19:40:49.935Z</time>
      </trkpt>
      <trkpt lat="48.91253" lon="2.29609">
        <ele>96.3</ele>
        <time>2015-06-15T19:40:51.850Z</time>
      </trkpt>
      <trkpt lat="48.91251" lon="2.29612">
        <ele>96.9</ele>
        <time>2015-06-15T19:40:52.891Z</time>
      </trkpt>
      <trkpt lat="48.91244" lon="2.2962">
        <ele>94.5</ele>
        <time>2015-06-15T19:44:25.099Z</time>
      </trkpt>
      <trkpt lat="48.91241" lon="2.29621">
        <ele>94.5</ele>
        <time>2015-06-15T19:44:25.921Z</time>
      </trkpt>
      <trkpt lat="48.91236" lon="2.29625">
        <ele>94.4</ele>
        <time>2015-06-15T19:44:27.860Z</time>
      </trkpt>
      <trkpt lat="48.91233" lon="2.29627">
        <ele>94.4</ele>
        <time>2015-06-15T19:44:28.893Z</time>
      </trkpt>
      <trkpt lat="48.91226" lon="2.29634">
        <ele>94.9</ele>
        <time>2015-06-15T19:44:31.857Z</time>
      </trkpt>
      <trkpt lat="48.91224" lon="2.29636">
        <ele>94.8</ele>
        <time>2015-06-15T19:44:32.964Z</time>
      </trkpt>
      <trkpt lat="48.91217" lon="2.29644">
        <ele>95.2</ele>
        <time>2015-06-15T19:44:36.907Z</time>
      </trkpt>
      <trkpt lat="48.91216" lon="2.29645">
        <ele>95.4</ele>
        <time>2015-06-15T19:44:37.804Z</time>
      </trkpt>
      <trkpt lat="48.91209" lon="2.29652">
        <ele>96.4</ele>
        <time>2015-06-15T19:44:40.914Z</time>
      </trkpt>
      <trkpt lat="48.91206" lon="2.29654">
        <ele>96.5</ele>
        <time>2015-06-15T19:44:41.841Z</time>
      </trkpt>
      <trkpt lat="48.912" lon="2.29659">
        <ele>96.8</ele>
        <time>2015-06-15T19:44:43.872Z</time>
      </trkpt>
      <trkpt lat="48.91197" lon="2.29662">
        <ele>96.9</ele>
        <time>2015-06-15T19:44:44.889Z</time>
      </trkpt>
      <trkpt lat="48.9119" lon="2.29668">
        <ele>97.6</ele>
        <time>2015-06-15T19:44:47.815Z</time>
      </trkpt>
      <trkpt lat="48.91186" lon="2.29671">
        <ele>97.5</ele>
        <time>2015-06-15T19:44:48.828Z</time>
      </trkpt>
      <trkpt lat="48.91182" lon="2.29674">
        <ele>97.4</ele>
        <time>2015-06-15T19:44:49.856Z</time>
      </trkpt>
      <trkpt lat="48.91178" lon="2.29677">
        <ele>97.9</ele>
        <time>2015-06-15T19:44:50.900Z</time>
      </trkpt>
      <trkpt lat="48.91171" lon="2.29682">
        <ele>98.9</ele>
        <time>2015-06-15T19:44:52.937Z</time>
      </trkpt>
      <trkpt lat="48.91168" lon="2.29684">
        <ele>99.3</ele>
        <time>2015-06-15T19:44:53.983Z</time>
      </trkpt>
      <trkpt lat="48.91167" lon="2.29684">
        <ele>99.6</ele>
        <time>2015-06-15T19:44:54.851Z</time>
      </trkpt>
      <trkpt lat="48.91166" lon="2.29683">
        <ele>100.1</ele>
        <time>2015-06-15T19:44:55.940Z</time>
      </trkpt>
      <trkpt lat="48.91166" lon="2.29685">
        <ele>100.2</ele>
        <time>2015-06-15T19:44:57.857Z</time>
      </trkpt>
      <trkpt lat="48.91163" lon="2.29691">
        <ele>100.7</ele>
        <time>2015-06-15T19:44:58.858Z</time>
      </trkpt>
      <trkpt lat="48.91156" lon="2.29699">
        <ele>101</ele>
        <time>2015-06-15T19:45:00.952Z</time>
      </trkpt>
      <trkpt lat="48.91152" lon="2.29702">
        <ele>101.2</ele>
        <time>2015-06-15T19:45:01.840Z</time>
      </trkpt>
      <trkpt lat="48.91143" lon="2.29706">
        <ele>101.7</ele>
        <time>2015-06-15T19:45:03.874Z</time>
      </trkpt>
      <trkpt lat="48.91139" lon="2.29709">
        <ele>102.4</ele>
        <time>2015-06-15T19:45:04.907Z</time>
      </trkpt>
      <trkpt lat="48.91135" lon="2.29713">
        <ele>102.6</ele>
        <time>2015-06-15T19:45:05.953Z</time>
      </trkpt>
      <trkpt lat="48.9113" lon="2.29717">
        <ele>103.1</ele>
        <time>2015-06-15T19:45:06.843Z</time>
      </trkpt>
      <trkpt lat="48.91125" lon="2.2972">
        <ele>103.2</ele>
        <time>2015-06-15T19:45:07.856Z</time>
      </trkpt>
      <trkpt lat="48.91121" lon="2.29724">
        <ele>103.4</ele>
        <time>2015-06-15T19:45:08.937Z</time>
      </trkpt>
      <trkpt lat="48.91116" lon="2.29728">
        <ele>103.4</ele>
        <time>2015-06-15T19:45:09.854Z</time>
      </trkpt>
      <trkpt lat="48.91111" lon="2.2973">
        <ele>103.4</ele>
        <time>2015-06-15T19:45:10.855Z</time>
      </trkpt>
      <trkpt lat="48.91106" lon="2.29733">
        <ele>103.5</ele>
        <time>2015-06-15T19:45:11.883Z</time>
      </trkpt>
      <trkpt lat="48.91102" lon="2.29736">
        <ele>103.3</ele>
        <time>2015-06-15T19:45:12.888Z</time>
      </trkpt>
      <trkpt lat="48.91097" lon="2.29739">
        <ele>102.9</ele>
        <time>2015-06-15T19:45:13.907Z</time>
      </trkpt>
      <trkpt lat="48.91093" lon="2.29741">
        <ele>102.6</ele>
        <time>2015-06-15T19:45:14.913Z</time>
      </trkpt>
      <trkpt lat="48.91086" lon="2.29746">
        <ele>101.6</ele>
        <time>2015-06-15T19:45:16.853Z</time>
      </trkpt>
      <trkpt lat="48.91084" lon="2.29749">
        <ele>100.5</ele>
        <time>2015-06-15T19:45:17.857Z</time>
      </trkpt>
      <trkpt lat="48.91078" lon="2.29757">
        <ele>99.3</ele>
        <time>2015-06-15T19:45:20.910Z</time>
      </trkpt>
      <trkpt lat="48.91077" lon="2.29761">
        <ele>99.1</ele>
        <time>2015-06-15T19:45:21.813Z</time>
      </trkpt>
      <trkpt lat="48.91077" lon="2.29772">
        <ele>98.3</ele>
        <time>2015-06-15T19:45:23.820Z</time>
      </trkpt>
      <trkpt lat="48.91078" lon="2.29777">
        <ele>97.8</ele>
        <time>2015-06-15T19:45:24.876Z</time>
      </trkpt>
      <trkpt lat="48.91081" lon="2.29787">
        <ele>97.2</ele>
        <time>2015-06-15T19:45:27.638Z</time>
      </trkpt>
      <trkpt lat="48.91083" lon="2.29792">
        <ele>96.9</ele>
        <time>2015-06-15T19:45:27.845Z</time>
      </trkpt>
      <trkpt lat="48.91087" lon="2.29802">
        <ele>95.9</ele>
        <time>2015-06-15T19:45:29.973Z</time>
      </trkpt>
      <trkpt lat="48.91089" lon="2.29806">
        <ele>95.8</ele>
        <time>2015-06-15T19:45:30.831Z</time>
      </trkpt>
      <trkpt lat="48.91095" lon="2.29815">
        <ele>95.3</ele>
        <time>2015-06-15T19:45:32.882Z</time>
      </trkpt>
      <trkpt lat="48.91097" lon="2.2982">
        <ele>95.2</ele>
        <time>2015-06-15T19:45:33.888Z</time>
      </trkpt>
      <trkpt lat="48.91103" lon="2.2983">
        <ele>95.2</ele>
        <time>2015-06-15T19:45:35.907Z</time>
      </trkpt>
      <trkpt lat="48.91104" lon="2.29836">
        <ele>95.5</ele>
        <time>2015-06-15T19:45:36.975Z</time>
      </trkpt>
      <trkpt lat="48.91107" lon="2.29847">
        <ele>96.5</ele>
        <time>2015-06-15T19:45:39.892Z</time>
      </trkpt>
      <trkpt lat="48.91108" lon="2.29849">
        <ele>97</ele>
        <time>2015-06-15T19:45:40.911Z</time>
      </trkpt>
      <trkpt lat="48.91111" lon="2.29858">
        <ele>97.3</ele>
        <time>2015-06-15T19:45:44.154Z</time>
      </trkpt>
      <trkpt lat="48.91113" lon="2.29861">
        <ele>97.5</ele>
        <time>2015-06-15T19:45:44.956Z</time>
      </trkpt>
      <trkpt lat="48.91115" lon="2.29873">
        <ele>97.6</ele>
        <time>2015-06-15T19:45:47.879Z</time>
      </trkpt>
      <trkpt lat="48.91117" lon="2.29877">
        <ele>97.5</ele>
        <time>2015-06-15T19:45:48.907Z</time>
      </trkpt>
      <trkpt lat="48.9112" lon="2.29885">
        <ele>97.1</ele>
        <time>2015-06-15T19:45:50.925Z</time>
      </trkpt>
      <trkpt lat="48.91122" lon="2.29889">
        <ele>97.2</ele>
        <time>2015-06-15T19:45:51.907Z</time>
      </trkpt>
      <trkpt lat="48.91127" lon="2.29898">
        <ele>97.8</ele>
        <time>2015-06-15T19:45:54.577Z</time>
      </trkpt>
      <trkpt lat="48.91129" lon="2.29902">
        <ele>97.8</ele>
        <time>2015-06-15T19:45:54.849Z</time>
      </trkpt>
      <trkpt lat="48.91134" lon="2.29913">
        <ele>98.4</ele>
        <time>2015-06-15T19:45:56.954Z</time>
      </trkpt>
      <trkpt lat="48.91136" lon="2.29918">
        <ele>98.4</ele>
        <time>2015-06-15T19:45:57.844Z</time>
      </trkpt>
      <trkpt lat="48.91138" lon="2.29925">
        <ele>98.5</ele>
        <time>2015-06-15T19:45:58.879Z</time>
      </trkpt>
      <trkpt lat="48.91141" lon="2.29931">
        <ele>99</ele>
        <time>2015-06-15T19:45:59.907Z</time>
      </trkpt>
      <trkpt lat="48.91144" lon="2.29938">
        <ele>99.1</ele>
        <time>2015-06-15T19:46:00.855Z</time>
      </trkpt>
      <trkpt lat="48.91147" lon="2.29944">
        <ele>99.5</ele>
        <time>2015-06-15T19:46:01.870Z</time>
      </trkpt>
      <trkpt lat="48.9115" lon="2.29951">
        <ele>99.6</ele>
        <time>2015-06-15T19:46:03.048Z</time>
      </trkpt>
      <trkpt lat="48.91153" lon="2.29958">
        <ele>99.7</ele>
        <time>2015-06-15T19:46:03.835Z</time>
      </trkpt>
      <trkpt lat="48.91158" lon="2.29964">
        <ele>101.3</ele>
        <time>2015-06-15T19:46:04.930Z</time>
      </trkpt>
      <trkpt lat="48.91161" lon="2.29972">
        <ele>100.8</ele>
        <time>2015-06-15T19:46:05.844Z</time>
      </trkpt>
      <trkpt lat="48.91163" lon="2.2998">
        <ele>100.3</ele>
        <time>2015-06-15T19:46:06.964Z</time>
      </trkpt>
      <trkpt lat="48.91167" lon="2.29988">
        <ele>100.3</ele>
        <time>2015-06-15T19:46:07.890Z</time>
      </trkpt>
      <trkpt lat="48.91169" lon="2.29997">
        <ele>99.8</ele>
        <time>2015-06-15T19:46:08.919Z</time>
      </trkpt>
      <trkpt lat="48.91173" lon="2.30006">
        <ele>99.5</ele>
        <time>2015-06-15T19:46:09.817Z</time>
      </trkpt>
      <trkpt lat="48.91176" lon="2.30016">
        <ele>99.1</ele>
        <time>2015-06-15T19:46:10.849Z</time>
      </trkpt>
      <trkpt lat="48.9118" lon="2.30026">
        <ele>98.5</ele>
        <time>2015-06-15T19:46:11.856Z</time>
      </trkpt>
      <trkpt lat="48.91183" lon="2.30035">
        <ele>98.3</ele>
        <time>2015-06-15T19:46:12.902Z</time>
      </trkpt>
      <trkpt lat="48.91186" lon="2.30045">
        <ele>98.1</ele>
        <time>2015-06-15T19:46:13.929Z</time>
      </trkpt>
      <trkpt lat="48.9119" lon="2.30055">
        <ele>98</ele>
        <time>2015-06-15T19:46:14.976Z</time>
      </trkpt>
      <trkpt lat="48.91193" lon="2.30064">
        <ele>97.6</ele>
        <time>2015-06-15T19:46:15.844Z</time>
      </trkpt>
      <trkpt lat="48.91195" lon="2.30074">
        <ele>97</ele>
        <time>2015-06-15T19:46:16.864Z</time>
      </trkpt>
      <trkpt lat="48.91198" lon="2.30083">
        <ele>96.6</ele>
        <time>2015-06-15T19:46:17.872Z</time>
      </trkpt>
      <trkpt lat="48.91201" lon="2.30093">
        <ele>95.9</ele>
        <time>2015-06-15T19:46:18.887Z</time>
      </trkpt>
      <trkpt lat="48.91204" lon="2.30102">
        <ele>95.4</ele>
        <time>2015-06-15T19:46:19.805Z</time>
      </trkpt>
      <trkpt lat="48.91207" lon="2.30109">
        <ele>95</ele>
        <time>2015-06-15T19:46:20.894Z</time>
      </trkpt>
      <trkpt lat="48.91209" lon="2.30117">
        <ele>94.5</ele>
        <time>2015-06-15T19:46:21.904Z</time>
      </trkpt>
      <trkpt lat="48.91211" lon="2.30126">
        <ele>94.5</ele>
        <time>2015-06-15T19:46:22.915Z</time>
      </trkpt>
      <trkpt lat="48.91213" lon="2.30134">
        <ele>94.5</ele>
        <time>2015-06-15T19:46:23.841Z</time>
      </trkpt>
      <trkpt lat="48.91216" lon="2.30142">
        <ele>94.7</ele>
        <time>2015-06-15T19:46:24.818Z</time>
      </trkpt>
      <trkpt lat="48.91219" lon="2.30151">
        <ele>94.8</ele>
        <time>2015-06-15T19:46:25.842Z</time>
      </trkpt>
      <trkpt lat="48.91222" lon="2.30158">
        <ele>94.9</ele>
        <time>2015-06-15T19:46:26.871Z</time>
      </trkpt>
      <trkpt lat="48.91225" lon="2.30166">
        <ele>94.7</ele>
        <time>2015-06-15T19:46:27.897Z</time>
      </trkpt>
      <trkpt lat="48.91229" lon="2.30173">
        <ele>94.3</ele>
        <time>2015-06-15T19:46:28.901Z</time>
      </trkpt>
      <trkpt lat="48.91232" lon="2.3018">
        <ele>94</ele>
        <time>2015-06-15T19:46:29.950Z</time>
      </trkpt>
      <trkpt lat="48.91235" lon="2.30187">
        <ele>94.1</ele>
        <time>2015-06-15T19:46:30.924Z</time>
      </trkpt>
      <trkpt lat="48.91238" lon="2.30195">
        <ele>94.1</ele>
        <time>2015-06-15T19:46:31.827Z</time>
      </trkpt>
      <trkpt lat="48.91241" lon="2.30202">
        <ele>94.3</ele>
        <time>2015-06-15T19:46:32.936Z</time>
      </trkpt>
      <trkpt lat="48.91244" lon="2.3021">
        <ele>94.9</ele>
        <time>2015-06-15T19:46:33.824Z</time>
      </trkpt>
      <trkpt lat="48.91246" lon="2.30218">
        <ele>94.8</ele>
        <time>2015-06-15T19:46:34.826Z</time>
      </trkpt>
      <trkpt lat="48.91248" lon="2.30226">
        <ele>94.7</ele>
        <time>2015-06-15T19:46:35.906Z</time>
      </trkpt>
      <trkpt lat="48.9125" lon="2.30235">
        <ele>94.2</ele>
        <time>2015-06-15T19:46:36.825Z</time>
      </trkpt>
      <trkpt lat="48.91251" lon="2.30244">
        <ele>94.2</ele>
        <time>2015-06-15T19:46:37.831Z</time>
      </trkpt>
      <trkpt lat="48.91254" lon="2.30252">
        <ele>94.5</ele>
        <time>2015-06-15T19:46:38.879Z</time>
      </trkpt>
      <trkpt lat="48.91255" lon="2.3026">
        <ele>94.7</ele>
        <time>2015-06-15T19:46:39.858Z</time>
      </trkpt>
      <trkpt lat="48.91257" lon="2.30269">
        <ele>95.4</ele>
        <time>2015-06-15T19:46:40.885Z</time>
      </trkpt>
      <trkpt lat="48.91258" lon="2.30277">
        <ele>95.8</ele>
        <time>2015-06-15T19:46:41.874Z</time>
      </trkpt>
      <trkpt lat="48.9126" lon="2.30285">
        <ele>95.8</ele>
        <time>2015-06-15T19:46:42.890Z</time>
      </trkpt>
      <trkpt lat="48.9126" lon="2.30294">
        <ele>95.6</ele>
        <time>2015-06-15T19:46:43.890Z</time>
      </trkpt>
      <trkpt lat="48.91261" lon="2.30303">
        <ele>95.7</ele>
        <time>2015-06-15T19:46:44.910Z</time>
      </trkpt>
      <trkpt lat="48.91262" lon="2.30312">
        <ele>95.3</ele>
        <time>2015-06-15T19:46:45.921Z</time>
      </trkpt>
      <trkpt lat="48.91263" lon="2.3032">
        <ele>94.7</ele>
        <time>2015-06-15T19:46:46.845Z</time>
      </trkpt>
      <trkpt lat="48.91264" lon="2.30328">
        <ele>94.4</ele>
        <time>2015-06-15T19:46:47.856Z</time>
      </trkpt>
      <trkpt lat="48.91266" lon="2.30335">
        <ele>94</ele>
        <time>2015-06-15T19:46:48.889Z</time>
      </trkpt>
      <trkpt lat="48.91266" lon="2.30343">
        <ele>94.2</ele>
        <time>2015-06-15T19:46:49.888Z</time>
      </trkpt>
      <trkpt lat="48.91267" lon="2.30351">
        <ele>94.2</ele>
        <time>2015-06-15T19:46:50.905Z</time>
      </trkpt>
      <trkpt lat="48.91269" lon="2.30359">
        <ele>94.2</ele>
        <time>2015-06-15T19:46:51.835Z</time>
      </trkpt>
      <trkpt lat="48.91271" lon="2.30368">
        <ele>94.2</ele>
        <time>2015-06-15T19:46:52.924Z</time>
      </trkpt>
      <trkpt lat="48.91272" lon="2.30375">
        <ele>94.1</ele>
        <time>2015-06-15T19:46:54.053Z</time>
      </trkpt>
      <trkpt lat="48.91274" lon="2.30384">
        <ele>94</ele>
        <time>2015-06-15T19:46:54.847Z</time>
      </trkpt>
      <trkpt lat="48.91276" lon="2.30392">
        <ele>94</ele>
        <time>2015-06-15T19:46:55.858Z</time>
      </trkpt>
      <trkpt lat="48.91277" lon="2.304">
        <ele>94.1</ele>
        <time>2015-06-15T19:46:56.899Z</time>
      </trkpt>
      <trkpt lat="48.91278" lon="2.30409">
        <ele>94.5</ele>
        <time>2015-06-15T19:46:57.920Z</time>
      </trkpt>
      <trkpt lat="48.91279" lon="2.30418">
        <ele>94.8</ele>
        <time>2015-06-15T19:46:58.854Z</time>
      </trkpt>
      <trkpt lat="48.9128" lon="2.30426">
        <ele>95.1</ele>
        <time>2015-06-15T19:46:59.860Z</time>
      </trkpt>
      <trkpt lat="48.91282" lon="2.30434">
        <ele>95.2</ele>
        <time>2015-06-15T19:47:00.873Z</time>
      </trkpt>
      <trkpt lat="48.91284" lon="2.30442">
        <ele>95.1</ele>
        <time>2015-06-15T19:47:01.882Z</time>
      </trkpt>
      <trkpt lat="48.91285" lon="2.3045">
        <ele>95</ele>
        <time>2015-06-15T19:47:03.007Z</time>
      </trkpt>
      <trkpt lat="48.91285" lon="2.30458">
        <ele>94.8</ele>
        <time>2015-06-15T19:47:03.845Z</time>
      </trkpt>
      <trkpt lat="48.91286" lon="2.30467">
        <ele>94.6</ele>
        <time>2015-06-15T19:47:04.863Z</time>
      </trkpt>
      <trkpt lat="48.91286" lon="2.30476">
        <ele>94.9</ele>
        <time>2015-06-15T19:47:05.865Z</time>
      </trkpt>
      <trkpt lat="48.91288" lon="2.30486">
        <ele>95.1</ele>
        <time>2015-06-15T19:47:06.907Z</time>
      </trkpt>
      <trkpt lat="48.91289" lon="2.30495">
        <ele>95.2</ele>
        <time>2015-06-15T19:47:07.919Z</time>
      </trkpt>
      <trkpt lat="48.9129" lon="2.30504">
        <ele>95.3</ele>
        <time>2015-06-15T19:47:08.924Z</time>
      </trkpt>
      <trkpt lat="48.91292" lon="2.30513">
        <ele>95.6</ele>
        <time>2015-06-15T19:47:09.877Z</time>
      </trkpt>
      <trkpt lat="48.91292" lon="2.3052">
        <ele>96</ele>
        <time>2015-06-15T19:47:10.908Z</time>
      </trkpt>
      <trkpt lat="48.91294" lon="2.30529">
        <ele>96.5</ele>
        <time>2015-06-15T19:47:11.910Z</time>
      </trkpt>
      <trkpt lat="48.91295" lon="2.30537">
        <ele>96.9</ele>
        <time>2015-06-15T19:47:12.928Z</time>
      </trkpt>
      <trkpt lat="48.91296" lon="2.30545">
        <ele>97.6</ele>
        <time>2015-06-15T19:47:13.936Z</time>
      </trkpt>
      <trkpt lat="48.91298" lon="2.30554">
        <ele>97.8</ele>
        <time>2015-06-15T19:47:14.965Z</time>
      </trkpt>
      <trkpt lat="48.91299" lon="2.30562">
        <ele>98.1</ele>
        <time>2015-06-15T19:47:15.845Z</time>
      </trkpt>
      <trkpt lat="48.91301" lon="2.30571">
        <ele>98.2</ele>
        <time>2015-06-15T19:47:16.851Z</time>
      </trkpt>
      <trkpt lat="48.91303" lon="2.30579">
        <ele>98.2</ele>
        <time>2015-06-15T19:47:17.849Z</time>
      </trkpt>
      <trkpt lat="48.91305" lon="2.30587">
        <ele>98.3</ele>
        <time>2015-06-15T19:47:18.865Z</time>
      </trkpt>
      <trkpt lat="48.91307" lon="2.30595">
        <ele>98.3</ele>
        <time>2015-06-15T19:47:19.902Z</time>
      </trkpt>
      <trkpt lat="48.91307" lon="2.30603">
        <ele>98</ele>
        <time>2015-06-15T19:47:20.937Z</time>
      </trkpt>
      <trkpt lat="48.91309" lon="2.30611">
        <ele>98.2</ele>
        <time>2015-06-15T19:47:21.837Z</time>
      </trkpt>
      <trkpt lat="48.91312" lon="2.30618">
        <ele>99</ele>
        <time>2015-06-15T19:47:22.856Z</time>
      </trkpt>
      <trkpt lat="48.91315" lon="2.30626">
        <ele>99.6</ele>
        <time>2015-06-15T19:47:23.890Z</time>
      </trkpt>
      <trkpt lat="48.91318" lon="2.30636">
        <ele>100.6</ele>
        <time>2015-06-15T19:47:24.906Z</time>
      </trkpt>
      <trkpt lat="48.91323" lon="2.30644">
        <ele>101</ele>
        <time>2015-06-15T19:47:25.910Z</time>
      </trkpt>
      <trkpt lat="48.91327" lon="2.30652">
        <ele>101.6</ele>
        <time>2015-06-15T19:47:26.928Z</time>
      </trkpt>
      <trkpt lat="48.9133" lon="2.30661">
        <ele>102</ele>
        <time>2015-06-15T19:47:27.848Z</time>
      </trkpt>
      <trkpt lat="48.91331" lon="2.30671">
        <ele>101.4</ele>
        <time>2015-06-15T19:47:28.847Z</time>
      </trkpt>
      <trkpt lat="48.91333" lon="2.3068">
        <ele>101.2</ele>
        <time>2015-06-15T19:47:29.857Z</time>
      </trkpt>
      <trkpt lat="48.91335" lon="2.30689">
        <ele>100.9</ele>
        <time>2015-06-15T19:47:30.874Z</time>
      </trkpt>
      <trkpt lat="48.91336" lon="2.307">
        <ele>100.8</ele>
        <time>2015-06-15T19:47:31.884Z</time>
      </trkpt>
      <trkpt lat="48.91338" lon="2.3071">
        <ele>100.6</ele>
        <time>2015-06-15T19:47:32.945Z</time>
      </trkpt>
      <trkpt lat="48.91339" lon="2.30719">
        <ele>100.5</ele>
        <time>2015-06-15T19:47:33.841Z</time>
      </trkpt>
      <trkpt lat="48.9134" lon="2.30728">
        <ele>100.2</ele>
        <time>2015-06-15T19:47:34.851Z</time>
      </trkpt>
      <trkpt lat="48.91342" lon="2.30737">
        <ele>99.9</ele>
        <time>2015-06-15T19:47:35.866Z</time>
      </trkpt>
      <trkpt lat="48.91343" lon="2.30746">
        <ele>99.8</ele>
        <time>2015-06-15T19:47:36.872Z</time>
      </trkpt>
      <trkpt lat="48.91344" lon="2.30755">
        <ele>99.8</ele>
        <time>2015-06-15T19:47:37.876Z</time>
      </trkpt>
      <trkpt lat="48.91346" lon="2.30763">
        <ele>99.9</ele>
        <time>2015-06-15T19:47:38.907Z</time>
      </trkpt>
      <trkpt lat="48.91347" lon="2.30771">
        <ele>99.6</ele>
        <time>2015-06-15T19:47:39.923Z</time>
      </trkpt>
      <trkpt lat="48.9135" lon="2.30778">
        <ele>99.3</ele>
        <time>2015-06-15T19:47:40.830Z</time>
      </trkpt>
      <trkpt lat="48.91351" lon="2.30786">
        <ele>98.9</ele>
        <time>2015-06-15T19:47:41.831Z</time>
      </trkpt>
      <trkpt lat="48.91352" lon="2.30794">
        <ele>98.2</ele>
        <time>2015-06-15T19:47:42.844Z</time>
      </trkpt>
      <trkpt lat="48.91352" lon="2.30803">
        <ele>98.2</ele>
        <time>2015-06-15T19:47:43.859Z</time>
      </trkpt>
      <trkpt lat="48.91353" lon="2.30811">
        <ele>97.8</ele>
        <time>2015-06-15T19:47:44.883Z</time>
      </trkpt>
      <trkpt lat="48.91355" lon="2.3082">
        <ele>97.3</ele>
        <time>2015-06-15T19:47:45.899Z</time>
      </trkpt>
      <trkpt lat="48.91355" lon="2.30829">
        <ele>97.1</ele>
        <time>2015-06-15T19:47:46.916Z</time>
      </trkpt>
      <trkpt lat="48.91354" lon="2.30838">
        <ele>97.2</ele>
        <time>2015-06-15T19:47:47.839Z</time>
      </trkpt>
      <trkpt lat="48.91355" lon="2.30847">
        <ele>97.5</ele>
        <time>2015-06-15T19:47:48.841Z</time>
      </trkpt>
      <trkpt lat="48.91355" lon="2.30857">
        <ele>97.6</ele>
        <time>2015-06-15T19:47:49.849Z</time>
      </trkpt>
      <trkpt lat="48.91357" lon="2.30865">
        <ele>97.4</ele>
        <time>2015-06-15T19:47:50.890Z</time>
      </trkpt>
      <trkpt lat="48.91361" lon="2.30875">
        <ele>96.9</ele>
        <time>2015-06-15T19:47:51.884Z</time>
      </trkpt>
      <trkpt lat="48.91362" lon="2.30885">
        <ele>96.5</ele>
        <time>2015-06-15T19:47:52.902Z</time>
      </trkpt>
      <trkpt lat="48.91362" lon="2.30895">
        <ele>95.9</ele>
        <time>2015-06-15T19:47:53.841Z</time>
      </trkpt>
      <trkpt lat="48.91364" lon="2.30903">
        <ele>95.3</ele>
        <time>2015-06-15T19:47:54.839Z</time>
      </trkpt>
      <trkpt lat="48.91365" lon="2.30912">
        <ele>94.4</ele>
        <time>2015-06-15T19:47:55.848Z</time>
      </trkpt>
      <trkpt lat="48.91366" lon="2.30921">
        <ele>93.7</ele>
        <time>2015-06-15T19:47:56.906Z</time>
      </trkpt>
      <trkpt lat="48.91366" lon="2.30932">
        <ele>93.1</ele>
        <time>2015-06-15T19:47:57.912Z</time>
      </trkpt>
      <trkpt lat="48.91368" lon="2.30942">
        <ele>92.3</ele>
        <time>2015-06-15T19:47:58.927Z</time>
      </trkpt>
      <trkpt lat="48.9137" lon="2.30951">
        <ele>92</ele>
        <time>2015-06-15T19:47:59.937Z</time>
      </trkpt>
      <trkpt lat="48.91372" lon="2.30962">
        <ele>91.8</ele>
        <time>2015-06-15T19:48:00.877Z</time>
      </trkpt>
      <trkpt lat="48.91373" lon="2.30972">
        <ele>91.2</ele>
        <time>2015-06-15T19:48:01.878Z</time>
      </trkpt>
      <trkpt lat="48.91375" lon="2.30982">
        <ele>90.9</ele>
        <time>2015-06-15T19:48:02.941Z</time>
      </trkpt>
      <trkpt lat="48.91377" lon="2.30991">
        <ele>90.3</ele>
        <time>2015-06-15T19:48:03.879Z</time>
      </trkpt>
      <trkpt lat="48.9138" lon="2.31">
        <ele>89.9</ele>
        <time>2015-06-15T19:48:04.916Z</time>
      </trkpt>
      <trkpt lat="48.91383" lon="2.31008">
        <ele>89.9</ele>
        <time>2015-06-15T19:48:05.842Z</time>
      </trkpt>
      <trkpt lat="48.91386" lon="2.31016">
        <ele>89.3</ele>
        <time>2015-06-15T19:48:06.910Z</time>
      </trkpt>
      <trkpt lat="48.91388" lon="2.31024">
        <ele>89.4</ele>
        <time>2015-06-15T19:48:07.819Z</time>
      </trkpt>
      <trkpt lat="48.9139" lon="2.31033">
        <ele>89.3</ele>
        <time>2015-06-15T19:48:08.882Z</time>
      </trkpt>
      <trkpt lat="48.91391" lon="2.31042">
        <ele>89</ele>
        <time>2015-06-15T19:48:09.896Z</time>
      </trkpt>
      <trkpt lat="48.91391" lon="2.31052">
        <ele>88.8</ele>
        <time>2015-06-15T19:48:10.810Z</time>
      </trkpt>
      <trkpt lat="48.91392" lon="2.31061">
        <ele>88.6</ele>
        <time>2015-06-15T19:48:11.864Z</time>
      </trkpt>
      <trkpt lat="48.91394" lon="2.3107">
        <ele>88.4</ele>
        <time>2015-06-15T19:48:12.866Z</time>
      </trkpt>
      <trkpt lat="48.91397" lon="2.31077">
        <ele>88</ele>
        <time>2015-06-15T19:48:13.907Z</time>
      </trkpt>
      <trkpt lat="48.91399" lon="2.31086">
        <ele>88.4</ele>
        <time>2015-06-15T19:48:14.939Z</time>
      </trkpt>
      <trkpt lat="48.91402" lon="2.31095">
        <ele>88</ele>
        <time>2015-06-15T19:48:15.839Z</time>
      </trkpt>
      <trkpt lat="48.91406" lon="2.31102">
        <ele>87.8</ele>
        <time>2015-06-15T19:48:17.058Z</time>
      </trkpt>
      <trkpt lat="48.91409" lon="2.3111">
        <ele>87.4</ele>
        <time>2015-06-15T19:48:17.881Z</time>
      </trkpt>
      <trkpt lat="48.91413" lon="2.31118">
        <ele>87.3</ele>
        <time>2015-06-15T19:48:18.899Z</time>
      </trkpt>
      <trkpt lat="48.91416" lon="2.31126">
        <ele>87</ele>
        <time>2015-06-15T19:48:19.918Z</time>
      </trkpt>
      <trkpt lat="48.91419" lon="2.31135">
        <ele>86.5</ele>
        <time>2015-06-15T19:48:20.940Z</time>
      </trkpt>
      <trkpt lat="48.91422" lon="2.31143">
        <ele>86.2</ele>
        <time>2015-06-15T19:48:21.842Z</time>
      </trkpt>
      <trkpt lat="48.91425" lon="2.31151">
        <ele>85.3</ele>
        <time>2015-06-15T19:48:22.849Z</time>
      </trkpt>
      <trkpt lat="48.91429" lon="2.31159">
        <ele>84.8</ele>
        <time>2015-06-15T19:48:23.856Z</time>
      </trkpt>
      <trkpt lat="48.91433" lon="2.31166">
        <ele>84</ele>
        <time>2015-06-15T19:48:24.879Z</time>
      </trkpt>
      <trkpt lat="48.91436" lon="2.31174">
        <ele>83.9</ele>
        <time>2015-06-15T19:48:25.900Z</time>
      </trkpt>
      <trkpt lat="48.91439" lon="2.31183">
        <ele>83.7</ele>
        <time>2015-06-15T19:48:26.991Z</time>
      </trkpt>
      <trkpt lat="48.91442" lon="2.31192">
        <ele>84</ele>
        <time>2015-06-15T19:48:27.887Z</time>
      </trkpt>
      <trkpt lat="48.91444" lon="2.31201">
        <ele>83.9</ele>
        <time>2015-06-15T19:48:28.880Z</time>
      </trkpt>
      <trkpt lat="48.91448" lon="2.3121">
        <ele>83.9</ele>
        <time>2015-06-15T19:48:29.887Z</time>
      </trkpt>
      <trkpt lat="48.91452" lon="2.31218">
        <ele>84.2</ele>
        <time>2015-06-15T19:48:30.901Z</time>
      </trkpt>
      <trkpt lat="48.91456" lon="2.31226">
        <ele>84.4</ele>
        <time>2015-06-15T19:48:31.914Z</time>
      </trkpt>
      <trkpt lat="48.91458" lon="2.31235">
        <ele>84.5</ele>
        <time>2015-06-15T19:48:32.924Z</time>
      </trkpt>
      <trkpt lat="48.91462" lon="2.31242">
        <ele>84.1</ele>
        <time>2015-06-15T19:48:33.929Z</time>
      </trkpt>
      <trkpt lat="48.91465" lon="2.31249">
        <ele>83.7</ele>
        <time>2015-06-15T19:48:34.875Z</time>
      </trkpt>
      <trkpt lat="48.91466" lon="2.31257">
        <ele>83.6</ele>
        <time>2015-06-15T19:48:35.881Z</time>
      </trkpt>
      <trkpt lat="48.91468" lon="2.31265">
        <ele>83.4</ele>
        <time>2015-06-15T19:48:36.840Z</time>
      </trkpt>
      <trkpt lat="48.91471" lon="2.31273">
        <ele>83.5</ele>
        <time>2015-06-15T19:48:37.845Z</time>
      </trkpt>
      <trkpt lat="48.91473" lon="2.31283">
        <ele>83.2</ele>
        <time>2015-06-15T19:48:38.890Z</time>
      </trkpt>
      <trkpt lat="48.91476" lon="2.31291">
        <ele>83.5</ele>
        <time>2015-06-15T19:48:39.887Z</time>
      </trkpt>
      <trkpt lat="48.91478" lon="2.313">
        <ele>83.9</ele>
        <time>2015-06-15T19:48:40.907Z</time>
      </trkpt>
      <trkpt lat="48.91482" lon="2.31308">
        <ele>84</ele>
        <time>2015-06-15T19:48:41.914Z</time>
      </trkpt>
      <trkpt lat="48.91486" lon="2.31317">
        <ele>84.1</ele>
        <time>2015-06-15T19:48:42.801Z</time>
      </trkpt>
      <trkpt lat="48.91488" lon="2.31326">
        <ele>84.1</ele>
        <time>2015-06-15T19:48:43.844Z</time>
      </trkpt>
      <trkpt lat="48.9149" lon="2.31336">
        <ele>83.8</ele>
        <time>2015-06-15T19:48:44.894Z</time>
      </trkpt>
      <trkpt lat="48.91492" lon="2.31346">
        <ele>83.6</ele>
        <time>2015-06-15T19:48:45.808Z</time>
      </trkpt>
      <trkpt lat="48.91494" lon="2.31355">
        <ele>83.7</ele>
        <time>2015-06-15T19:48:46.875Z</time>
      </trkpt>
      <trkpt lat="48.91497" lon="2.31363">
        <ele>83.5</ele>
        <time>2015-06-15T19:48:47.841Z</time>
      </trkpt>
      <trkpt lat="48.915" lon="2.31371">
        <ele>83.3</ele>
        <time>2015-06-15T19:48:48.857Z</time>
      </trkpt>
      <trkpt lat="48.91502" lon="2.31379">
        <ele>83.4</ele>
        <time>2015-06-15T19:48:49.866Z</time>
      </trkpt>
      <trkpt lat="48.91505" lon="2.31386">
        <ele>83.6</ele>
        <time>2015-06-15T19:48:50.906Z</time>
      </trkpt>
      <trkpt lat="48.91507" lon="2.31393">
        <ele>83.4</ele>
        <time>2015-06-15T19:48:51.920Z</time>
      </trkpt>
      <trkpt lat="48.91509" lon="2.314">
        <ele>83.6</ele>
        <time>2015-06-15T19:48:52.900Z</time>
      </trkpt>
      <trkpt lat="48.91511" lon="2.31407">
        <ele>83.8</ele>
        <time>2015-06-15T19:48:53.919Z</time>
      </trkpt>
      <trkpt lat="48.91513" lon="2.31414">
        <ele>84.2</ele>
        <time>2015-06-15T19:48:54.925Z</time>
      </trkpt>
      <trkpt lat="48.91516" lon="2.31421">
        <ele>84.5</ele>
        <time>2015-06-15T19:48:55.944Z</time>
      </trkpt>
      <trkpt lat="48.91519" lon="2.31428">
        <ele>84.2</ele>
        <time>2015-06-15T19:48:56.958Z</time>
      </trkpt>
      <trkpt lat="48.91522" lon="2.31436">
        <ele>84.1</ele>
        <time>2015-06-15T19:48:57.871Z</time>
      </trkpt>
      <trkpt lat="48.91526" lon="2.31443">
        <ele>84.1</ele>
        <time>2015-06-15T19:48:58.890Z</time>
      </trkpt>
      <trkpt lat="48.91529" lon="2.3145">
        <ele>84.2</ele>
        <time>2015-06-15T19:48:59.879Z</time>
      </trkpt>
      <trkpt lat="48.91532" lon="2.31457">
        <ele>84.2</ele>
        <time>2015-06-15T19:49:00.905Z</time>
      </trkpt>
      <trkpt lat="48.91535" lon="2.31464">
        <ele>85</ele>
        <time>2015-06-15T19:49:01.895Z</time>
      </trkpt>
      <trkpt lat="48.91538" lon="2.31471">
        <ele>85.3</ele>
        <time>2015-06-15T19:49:02.909Z</time>
      </trkpt>
      <trkpt lat="48.9154" lon="2.31478">
        <ele>85.1</ele>
        <time>2015-06-15T19:49:03.923Z</time>
      </trkpt>
      <trkpt lat="48.91542" lon="2.31485">
        <ele>84.8</ele>
        <time>2015-06-15T19:49:04.929Z</time>
      </trkpt>
      <trkpt lat="48.91544" lon="2.31493">
        <ele>84.9</ele>
        <time>2015-06-15T19:49:05.846Z</time>
      </trkpt>
      <trkpt lat="48.91546" lon="2.315">
        <ele>85</ele>
        <time>2015-06-15T19:49:06.861Z</time>
      </trkpt>
      <trkpt lat="48.91548" lon="2.31507">
        <ele>85</ele>
        <time>2015-06-15T19:49:07.850Z</time>
      </trkpt>
      <trkpt lat="48.91549" lon="2.31514">
        <ele>85.3</ele>
        <time>2015-06-15T19:49:08.906Z</time>
      </trkpt>
      <trkpt lat="48.9155" lon="2.31522">
        <ele>85.2</ele>
        <time>2015-06-15T19:49:09.893Z</time>
      </trkpt>
      <trkpt lat="48.91552" lon="2.31529">
        <ele>85</ele>
        <time>2015-06-15T19:49:10.899Z</time>
      </trkpt>
      <trkpt lat="48.91553" lon="2.31536">
        <ele>85</ele>
        <time>2015-06-15T19:49:11.912Z</time>
      </trkpt>
      <trkpt lat="48.91555" lon="2.31544">
        <ele>85.3</ele>
        <time>2015-06-15T19:49:12.909Z</time>
      </trkpt>
      <trkpt lat="48.91559" lon="2.3155">
        <ele>86.6</ele>
        <time>2015-06-15T19:49:13.919Z</time>
      </trkpt>
      <trkpt lat="48.91564" lon="2.31556">
        <ele>88.2</ele>
        <time>2015-06-15T19:49:14.945Z</time>
      </trkpt>
      <trkpt lat="48.91567" lon="2.31564">
        <ele>88.4</ele>
        <time>2015-06-15T19:49:15.856Z</time>
      </trkpt>
      <trkpt lat="48.9157" lon="2.31571">
        <ele>89.5</ele>
        <time>2015-06-15T19:49:16.868Z</time>
      </trkpt>
      <trkpt lat="48.91573" lon="2.31579">
        <ele>90.1</ele>
        <time>2015-06-15T19:49:17.876Z</time>
      </trkpt>
      <trkpt lat="48.91575" lon="2.31586">
        <ele>90.3</ele>
        <time>2015-06-15T19:49:18.901Z</time>
      </trkpt>
      <trkpt lat="48.91579" lon="2.31593">
        <ele>91.4</ele>
        <time>2015-06-15T19:49:19.915Z</time>
      </trkpt>
      <trkpt lat="48.91582" lon="2.316">
        <ele>92</ele>
        <time>2015-06-15T19:49:20.923Z</time>
      </trkpt>
      <trkpt lat="48.91585" lon="2.31608">
        <ele>92.6</ele>
        <time>2015-06-15T19:49:21.834Z</time>
      </trkpt>
      <trkpt lat="48.91587" lon="2.31616">
        <ele>93.5</ele>
        <time>2015-06-15T19:49:22.880Z</time>
      </trkpt>
      <trkpt lat="48.91589" lon="2.31624">
        <ele>93.9</ele>
        <time>2015-06-15T19:49:23.892Z</time>
      </trkpt>
      <trkpt lat="48.9159" lon="2.31632">
        <ele>94.2</ele>
        <time>2015-06-15T19:49:24.905Z</time>
      </trkpt>
      <trkpt lat="48.91591" lon="2.3164">
        <ele>94.5</ele>
        <time>2015-06-15T19:49:25.911Z</time>
      </trkpt>
      <trkpt lat="48.91593" lon="2.31649">
        <ele>95.5</ele>
        <time>2015-06-15T19:49:26.958Z</time>
      </trkpt>
      <trkpt lat="48.91594" lon="2.31659">
        <ele>96.1</ele>
        <time>2015-06-15T19:49:27.860Z</time>
      </trkpt>
      <trkpt lat="48.91593" lon="2.31669">
        <ele>96.5</ele>
        <time>2015-06-15T19:49:28.854Z</time>
      </trkpt>
      <trkpt lat="48.91593" lon="2.31676">
        <ele>95.9</ele>
        <time>2015-06-15T19:49:29.871Z</time>
      </trkpt>
      <trkpt lat="48.91594" lon="2.31684">
        <ele>96</ele>
        <time>2015-06-15T19:49:30.877Z</time>
      </trkpt>
      <trkpt lat="48.91595" lon="2.31692">
        <ele>96</ele>
        <time>2015-06-15T19:49:31.904Z</time>
      </trkpt>
      <trkpt lat="48.91597" lon="2.31701">
        <ele>95.6</ele>
        <time>2015-06-15T19:49:32.915Z</time>
      </trkpt>
      <trkpt lat="48.916" lon="2.31709">
        <ele>95.2</ele>
        <time>2015-06-15T19:49:33.922Z</time>
      </trkpt>
      <trkpt lat="48.91604" lon="2.31716">
        <ele>94.3</ele>
        <time>2015-06-15T19:49:34.853Z</time>
      </trkpt>
      <trkpt lat="48.91608" lon="2.31724">
        <ele>94.2</ele>
        <time>2015-06-15T19:49:35.871Z</time>
      </trkpt>
      <trkpt lat="48.91612" lon="2.31731">
        <ele>94.2</ele>
        <time>2015-06-15T19:49:36.884Z</time>
      </trkpt>
      <trkpt lat="48.91615" lon="2.31739">
        <ele>94.1</ele>
        <time>2015-06-15T19:49:37.894Z</time>
      </trkpt>
      <trkpt lat="48.91618" lon="2.31747">
        <ele>94.1</ele>
        <time>2015-06-15T19:49:38.904Z</time>
      </trkpt>
      <trkpt lat="48.91621" lon="2.31754">
        <ele>94</ele>
        <time>2015-06-15T19:49:39.910Z</time>
      </trkpt>
      <trkpt lat="48.91625" lon="2.31763">
        <ele>94.8</ele>
        <time>2015-06-15T19:49:40.911Z</time>
      </trkpt>
      <trkpt lat="48.91627" lon="2.31771">
        <ele>95</ele>
        <time>2015-06-15T19:49:41.969Z</time>
      </trkpt>
      <trkpt lat="48.91631" lon="2.31778">
        <ele>95.3</ele>
        <time>2015-06-15T19:49:42.822Z</time>
      </trkpt>
      <trkpt lat="48.91634" lon="2.31785">
        <ele>96</ele>
        <time>2015-06-15T19:49:43.860Z</time>
      </trkpt>
      <trkpt lat="48.91637" lon="2.31792">
        <ele>95.9</ele>
        <time>2015-06-15T19:49:44.915Z</time>
      </trkpt>
      <trkpt lat="48.9164" lon="2.31799">
        <ele>96</ele>
        <time>2015-06-15T19:49:45.844Z</time>
      </trkpt>
      <trkpt lat="48.91643" lon="2.31807">
        <ele>96.8</ele>
        <time>2015-06-15T19:49:46.849Z</time>
      </trkpt>
      <trkpt lat="48.91647" lon="2.31813">
        <ele>96.9</ele>
        <time>2015-06-15T19:49:47.852Z</time>
      </trkpt>
      <trkpt lat="48.91652" lon="2.3182">
        <ele>98.2</ele>
        <time>2015-06-15T19:49:48.875Z</time>
      </trkpt>
      <trkpt lat="48.91656" lon="2.31827">
        <ele>99.3</ele>
        <time>2015-06-15T19:49:49.886Z</time>
      </trkpt>
      <trkpt lat="48.9166" lon="2.31834">
        <ele>99.9</ele>
        <time>2015-06-15T19:49:50.910Z</time>
      </trkpt>
      <trkpt lat="48.91662" lon="2.31841">
        <ele>99.5</ele>
        <time>2015-06-15T19:49:51.911Z</time>
      </trkpt>
      <trkpt lat="48.91666" lon="2.31847">
        <ele>99.8</ele>
        <time>2015-06-15T19:49:52.925Z</time>
      </trkpt>
      <trkpt lat="48.91669" lon="2.31854">
        <ele>99.9</ele>
        <time>2015-06-15T19:49:53.924Z</time>
      </trkpt>
      <trkpt lat="48.91673" lon="2.31861">
        <ele>99.4</ele>
        <time>2015-06-15T19:49:54.932Z</time>
      </trkpt>
      <trkpt lat="48.91676" lon="2.31867">
        <ele>99.3</ele>
        <time>2015-06-15T19:49:55.855Z</time>
      </trkpt>
      <trkpt lat="48.9168" lon="2.31873">
        <ele>99.6</ele>
        <time>2015-06-15T19:49:56.943Z</time>
      </trkpt>
      <trkpt lat="48.91683" lon="2.31879">
        <ele>99.6</ele>
        <time>2015-06-15T19:49:57.854Z</time>
      </trkpt>
      <trkpt lat="48.91687" lon="2.31885">
        <ele>99.4</ele>
        <time>2015-06-15T19:49:58.861Z</time>
      </trkpt>
      <trkpt lat="48.9169" lon="2.31891">
        <ele>99.3</ele>
        <time>2015-06-15T19:49:59.871Z</time>
      </trkpt>
      <trkpt lat="48.91694" lon="2.31897">
        <ele>99</ele>
        <time>2015-06-15T19:50:00.921Z</time>
      </trkpt>
      <trkpt lat="48.91698" lon="2.31903">
        <ele>99.4</ele>
        <time>2015-06-15T19:50:01.827Z</time>
      </trkpt>
      <trkpt lat="48.91702" lon="2.31909">
        <ele>99.7</ele>
        <time>2015-06-15T19:50:02.946Z</time>
      </trkpt>
      <trkpt lat="48.91705" lon="2.31915">
        <ele>100.1</ele>
        <time>2015-06-15T19:50:03.860Z</time>
      </trkpt>
      <trkpt lat="48.91708" lon="2.31921">
        <ele>100.4</ele>
        <time>2015-06-15T19:50:04.866Z</time>
      </trkpt>
      <trkpt lat="48.91711" lon="2.31928">
        <ele>101</ele>
        <time>2015-06-15T19:50:05.934Z</time>
      </trkpt>
      <trkpt lat="48.91714" lon="2.31933">
        <ele>101.1</ele>
        <time>2015-06-15T19:50:06.859Z</time>
      </trkpt>
      <trkpt lat="48.91718" lon="2.31939">
        <ele>101.5</ele>
        <time>2015-06-15T19:50:07.860Z</time>
      </trkpt>
      <trkpt lat="48.91723" lon="2.31944">
        <ele>102.1</ele>
        <time>2015-06-15T19:50:08.939Z</time>
      </trkpt>
      <trkpt lat="48.91727" lon="2.31949">
        <ele>102.9</ele>
        <time>2015-06-15T19:50:09.883Z</time>
      </trkpt>
      <trkpt lat="48.9173" lon="2.31954">
        <ele>103.2</ele>
        <time>2015-06-15T19:50:10.935Z</time>
      </trkpt>
      <trkpt lat="48.91735" lon="2.31959">
        <ele>103.4</ele>
        <time>2015-06-15T19:50:11.842Z</time>
      </trkpt>
      <trkpt lat="48.91739" lon="2.31965">
        <ele>103.6</ele>
        <time>2015-06-15T19:50:12.876Z</time>
      </trkpt>
      <trkpt lat="48.91742" lon="2.31969">
        <ele>103.5</ele>
        <time>2015-06-15T19:50:13.886Z</time>
      </trkpt>
      <trkpt lat="48.91747" lon="2.3198">
        <ele>102.7</ele>
        <time>2015-06-15T19:50:15.891Z</time>
      </trkpt>
      <trkpt lat="48.91749" lon="2.31985">
        <ele>102</ele>
        <time>2015-06-15T19:50:16.922Z</time>
      </trkpt>
      <trkpt lat="48.91755" lon="2.31995">
        <ele>100.2</ele>
        <time>2015-06-15T19:50:18.886Z</time>
      </trkpt>
      <trkpt lat="48.91758" lon="2.32">
        <ele>99.3</ele>
        <time>2015-06-15T19:50:19.918Z</time>
      </trkpt>
      <trkpt lat="48.91763" lon="2.3201">
        <ele>97.5</ele>
        <time>2015-06-15T19:50:21.862Z</time>
      </trkpt>
      <trkpt lat="48.91767" lon="2.32014">
        <ele>96.9</ele>
        <time>2015-06-15T19:50:22.866Z</time>
      </trkpt>
      <trkpt lat="48.91771" lon="2.32018">
        <ele>96.5</ele>
        <time>2015-06-15T19:50:23.834Z</time>
      </trkpt>
      <trkpt lat="48.91775" lon="2.32022">
        <ele>96.3</ele>
        <time>2015-06-15T19:50:24.803Z</time>
      </trkpt>
      <trkpt lat="48.91779" lon="2.32026">
        <ele>95.8</ele>
        <time>2015-06-15T19:50:26.055Z</time>
      </trkpt>
      <trkpt lat="48.91784" lon="2.32029">
        <ele>95.3</ele>
        <time>2015-06-15T19:50:26.931Z</time>
      </trkpt>
      <trkpt lat="48.91789" lon="2.32033">
        <ele>95.1</ele>
        <time>2015-06-15T19:50:27.849Z</time>
      </trkpt>
      <trkpt lat="48.91793" lon="2.32037">
        <ele>94.5</ele>
        <time>2015-06-15T19:50:28.848Z</time>
      </trkpt>
      <trkpt lat="48.918" lon="2.32045">
        <ele>94.2</ele>
        <time>2015-06-15T19:50:30.909Z</time>
      </trkpt>
      <trkpt lat="48.91803" lon="2.32049">
        <ele>94</ele>
        <time>2015-06-15T19:50:31.921Z</time>
      </trkpt>
      <trkpt lat="48.91807" lon="2.32053">
        <ele>93.4</ele>
        <time>2015-06-15T19:50:32.961Z</time>
      </trkpt>
      <trkpt lat="48.91811" lon="2.32057">
        <ele>92.7</ele>
        <time>2015-06-15T19:50:33.855Z</time>
      </trkpt>
      <trkpt lat="48.91815" lon="2.3206">
        <ele>91.9</ele>
        <time>2015-06-15T19:50:34.897Z</time>
      </trkpt>
      <trkpt lat="48.91819" lon="2.32064">
        <ele>91.3</ele>
        <time>2015-06-15T19:50:35.904Z</time>
      </trkpt>
      <trkpt lat="48.91824" lon="2.32068">
        <ele>90.7</ele>
        <time>2015-06-15T19:50:36.912Z</time>
      </trkpt>
      <trkpt lat="48.91827" lon="2.32071">
        <ele>90.3</ele>
        <time>2015-06-15T19:50:37.921Z</time>
      </trkpt>
      <trkpt lat="48.91831" lon="2.32075">
        <ele>89.6</ele>
        <time>2015-06-15T19:50:38.949Z</time>
      </trkpt>
      <trkpt lat="48.91835" lon="2.32078">
        <ele>89.1</ele>
        <time>2015-06-15T19:50:39.870Z</time>
      </trkpt>
      <trkpt lat="48.91839" lon="2.32081">
        <ele>88.7</ele>
        <time>2015-06-15T19:50:40.882Z</time>
      </trkpt>
      <trkpt lat="48.91843" lon="2.32085">
        <ele>88.3</ele>
        <time>2015-06-15T19:50:41.914Z</time>
      </trkpt>
      <trkpt lat="48.91851" lon="2.32093">
        <ele>87.5</ele>
        <time>2015-06-15T19:50:43.940Z</time>
      </trkpt>
      <trkpt lat="48.91854" lon="2.32097">
        <ele>87.2</ele>
        <time>2015-06-15T19:50:44.973Z</time>
      </trkpt>
      <trkpt lat="48.91861" lon="2.32104">
        <ele>86.8</ele>
        <time>2015-06-15T19:50:46.868Z</time>
      </trkpt>
      <trkpt lat="48.91864" lon="2.32108">
        <ele>86.3</ele>
        <time>2015-06-15T19:50:47.917Z</time>
      </trkpt>
      <trkpt lat="48.91869" lon="2.32112">
        <ele>86.1</ele>
        <time>2015-06-15T19:50:48.848Z</time>
      </trkpt>
      <trkpt lat="48.91873" lon="2.32115">
        <ele>86</ele>
        <time>2015-06-15T19:50:50.062Z</time>
      </trkpt>
      <trkpt lat="48.9188" lon="2.32122">
        <ele>86</ele>
        <time>2015-06-15T19:50:51.901Z</time>
      </trkpt>
      <trkpt lat="48.91884" lon="2.32126">
        <ele>86.1</ele>
        <time>2015-06-15T19:50:52.895Z</time>
      </trkpt>
      <trkpt lat="48.91889" lon="2.32129">
        <ele>86.5</ele>
        <time>2015-06-15T19:50:53.851Z</time>
      </trkpt>
      <trkpt lat="48.91892" lon="2.32132">
        <ele>86.4</ele>
        <time>2015-06-15T19:50:54.857Z</time>
      </trkpt>
      <trkpt lat="48.91899" lon="2.3214">
        <ele>86.5</ele>
        <time>2015-06-15T19:50:56.943Z</time>
      </trkpt>
      <trkpt lat="48.91902" lon="2.32144">
        <ele>86.3</ele>
        <time>2015-06-15T19:50:57.932Z</time>
      </trkpt>
      <trkpt lat="48.91906" lon="2.32148">
        <ele>86</ele>
        <time>2015-06-15T19:50:58.897Z</time>
      </trkpt>
      <trkpt lat="48.9191" lon="2.32152">
        <ele>85.9</ele>
        <time>2015-06-15T19:50:59.904Z</time>
      </trkpt>
      <trkpt lat="48.91914" lon="2.32156">
        <ele>85.7</ele>
        <time>2015-06-15T19:51:00.906Z</time>
      </trkpt>
      <trkpt lat="48.91919" lon="2.32159">
        <ele>85</ele>
        <time>2015-06-15T19:51:01.920Z</time>
      </trkpt>
      <trkpt lat="48.91923" lon="2.32169">
        <ele>84.7</ele>
        <time>2015-06-15T19:51:03.841Z</time>
      </trkpt>
      <trkpt lat="48.91927" lon="2.32174">
        <ele>84.7</ele>
        <time>2015-06-15T19:51:04.884Z</time>
      </trkpt>
      <trkpt lat="48.9193" lon="2.32179">
        <ele>85</ele>
        <time>2015-06-15T19:51:05.859Z</time>
      </trkpt>
      <trkpt lat="48.91933" lon="2.32185">
        <ele>85.1</ele>
        <time>2015-06-15T19:51:06.867Z</time>
      </trkpt>
      <trkpt lat="48.91936" lon="2.3219">
        <ele>85.2</ele>
        <time>2015-06-15T19:51:07.876Z</time>
      </trkpt>
      <trkpt lat="48.91939" lon="2.32196">
        <ele>85</ele>
        <time>2015-06-15T19:51:08.898Z</time>
      </trkpt>
      <trkpt lat="48.91942" lon="2.32201">
        <ele>85</ele>
        <time>2015-06-15T19:51:09.906Z</time>
      </trkpt>
      <trkpt lat="48.91944" lon="2.32207">
        <ele>85</ele>
        <time>2015-06-15T19:51:10.804Z</time>
      </trkpt>
      <trkpt lat="48.91948" lon="2.32218">
        <ele>85.2</ele>
        <time>2015-06-15T19:51:12.926Z</time>
      </trkpt>
      <trkpt lat="48.9195" lon="2.32224">
        <ele>85.3</ele>
        <time>2015-06-15T19:51:14.124Z</time>
      </trkpt>
      <trkpt lat="48.91952" lon="2.3223">
        <ele>85.6</ele>
        <time>2015-06-15T19:51:14.900Z</time>
      </trkpt>
      <trkpt lat="48.91956" lon="2.32236">
        <ele>85.8</ele>
        <time>2015-06-15T19:51:15.894Z</time>
      </trkpt>
      <trkpt lat="48.91959" lon="2.32243">
        <ele>85.7</ele>
        <time>2015-06-15T19:51:16.919Z</time>
      </trkpt>
      <trkpt lat="48.91963" lon="2.32249">
        <ele>85.8</ele>
        <time>2015-06-15T19:51:17.923Z</time>
      </trkpt>
      <trkpt lat="48.91966" lon="2.32256">
        <ele>85.8</ele>
        <time>2015-06-15T19:51:18.844Z</time>
      </trkpt>
      <trkpt lat="48.9197" lon="2.32262">
        <ele>86.1</ele>
        <time>2015-06-15T19:51:19.852Z</time>
      </trkpt>
      <trkpt lat="48.91973" lon="2.32268">
        <ele>86.2</ele>
        <time>2015-06-15T19:51:20.900Z</time>
      </trkpt>
      <trkpt lat="48.91976" lon="2.32274">
        <ele>86.3</ele>
        <time>2015-06-15T19:51:21.894Z</time>
      </trkpt>
      <trkpt lat="48.91979" lon="2.3228">
        <ele>86.6</ele>
        <time>2015-06-15T19:51:22.842Z</time>
      </trkpt>
      <trkpt lat="48.91983" lon="2.32286">
        <ele>86.3</ele>
        <time>2015-06-15T19:51:23.846Z</time>
      </trkpt>
      <trkpt lat="48.91986" lon="2.32292">
        <ele>86</ele>
        <time>2015-06-15T19:51:24.857Z</time>
      </trkpt>
      <trkpt lat="48.9199" lon="2.32298">
        <ele>86.2</ele>
        <time>2015-06-15T19:51:25.865Z</time>
      </trkpt>
      <trkpt lat="48.91993" lon="2.32304">
        <ele>86.3</ele>
        <time>2015-06-15T19:51:26.921Z</time>
      </trkpt>
      <trkpt lat="48.91998" lon="2.32309">
        <ele>86.1</ele>
        <time>2015-06-15T19:51:27.830Z</time>
      </trkpt>
      <trkpt lat="48.92002" lon="2.32314">
        <ele>86.3</ele>
        <time>2015-06-15T19:51:28.841Z</time>
      </trkpt>
      <trkpt lat="48.92006" lon="2.3232">
        <ele>86.7</ele>
        <time>2015-06-15T19:51:29.852Z</time>
      </trkpt>
      <trkpt lat="48.9201" lon="2.32326">
        <ele>87.1</ele>
        <time>2015-06-15T19:51:30.880Z</time>
      </trkpt>
      <trkpt lat="48.92015" lon="2.32331">
        <ele>87.1</ele>
        <time>2015-06-15T19:51:31.911Z</time>
      </trkpt>
      <trkpt lat="48.92018" lon="2.32337">
        <ele>87.1</ele>
        <time>2015-06-15T19:51:32.952Z</time>
      </trkpt>
      <trkpt lat="48.92021" lon="2.32343">
        <ele>87.1</ele>
        <time>2015-06-15T19:51:33.861Z</time>
      </trkpt>
      <trkpt lat="48.92024" lon="2.32349">
        <ele>86.8</ele>
        <time>2015-06-15T19:51:34.900Z</time>
      </trkpt>
      <trkpt lat="48.92027" lon="2.32356">
        <ele>86.9</ele>
        <time>2015-06-15T19:51:35.915Z</time>
      </trkpt>
      <trkpt lat="48.92029" lon="2.32362">
        <ele>87</ele>
        <time>2015-06-15T19:51:36.924Z</time>
      </trkpt>
      <trkpt lat="48.92032" lon="2.32368">
        <ele>86.9</ele>
        <time>2015-06-15T19:51:37.880Z</time>
      </trkpt>
      <trkpt lat="48.92035" lon="2.32374">
        <ele>86.9</ele>
        <time>2015-06-15T19:51:38.911Z</time>
      </trkpt>
      <trkpt lat="48.92038" lon="2.32379">
        <ele>86.8</ele>
        <time>2015-06-15T19:51:39.906Z</time>
      </trkpt>
      <trkpt lat="48.9204" lon="2.32385">
        <ele>86.4</ele>
        <time>2015-06-15T19:51:40.925Z</time>
      </trkpt>
      <trkpt lat="48.92042" lon="2.32392">
        <ele>86.3</ele>
        <time>2015-06-15T19:51:41.925Z</time>
      </trkpt>
      <trkpt lat="48.92046" lon="2.32404">
        <ele>86.1</ele>
        <time>2015-06-15T19:51:43.845Z</time>
      </trkpt>
      <trkpt lat="48.92047" lon="2.3241">
        <ele>85.9</ele>
        <time>2015-06-15T19:51:44.949Z</time>
      </trkpt>
      <trkpt lat="48.9205" lon="2.32423">
        <ele>85.2</ele>
        <time>2015-06-15T19:51:46.847Z</time>
      </trkpt>
      <trkpt lat="48.92051" lon="2.32428">
        <ele>85</ele>
        <time>2015-06-15T19:51:47.905Z</time>
      </trkpt>
      <trkpt lat="48.92056" lon="2.32438">
        <ele>85</ele>
        <time>2015-06-15T19:51:49.841Z</time>
      </trkpt>
      <trkpt lat="48.92059" lon="2.32443">
        <ele>85.1</ele>
        <time>2015-06-15T19:51:50.895Z</time>
      </trkpt>
      <trkpt lat="48.92064" lon="2.32452">
        <ele>85.1</ele>
        <time>2015-06-15T19:51:52.818Z</time>
      </trkpt>
      <trkpt lat="48.92066" lon="2.32457">
        <ele>85</ele>
        <time>2015-06-15T19:51:53.831Z</time>
      </trkpt>
      <trkpt lat="48.92071" lon="2.32465">
        <ele>85.1</ele>
        <time>2015-06-15T19:51:55.813Z</time>
      </trkpt>
      <trkpt lat="48.92073" lon="2.32468">
        <ele>85.1</ele>
        <time>2015-06-15T19:51:56.931Z</time>
      </trkpt>
      <trkpt lat="48.92078" lon="2.32476">
        <ele>84.6</ele>
        <time>2015-06-15T19:51:59.921Z</time>
      </trkpt>
      <trkpt lat="48.9208" lon="2.32479">
        <ele>84.7</ele>
        <time>2015-06-15T19:52:00.840Z</time>
      </trkpt>
      <trkpt lat="48.92084" lon="2.32488">
        <ele>85</ele>
        <time>2015-06-15T19:52:03.910Z</time>
      </trkpt>
      <trkpt lat="48.92085" lon="2.32491">
        <ele>85.3</ele>
        <time>2015-06-15T19:52:04.830Z</time>
      </trkpt>
      <trkpt lat="48.92092" lon="2.325">
        <ele>85.3</ele>
        <time>2015-06-15T19:52:08.937Z</time>
      </trkpt>
      <trkpt lat="48.92093" lon="2.32502">
        <ele>85.4</ele>
        <time>2015-06-15T19:52:09.832Z</time>
      </trkpt>
      <trkpt lat="48.92098" lon="2.32511">
        <ele>86.1</ele>
        <time>2015-06-15T19:53:11.872Z</time>
      </trkpt>
      <trkpt lat="48.92099" lon="2.32526">
        <ele>87.6</ele>
        <time>2015-06-15T19:53:12.949Z</time>
      </trkpt>
      <trkpt lat="48.92098" lon="2.32536">
        <ele>88.6</ele>
        <time>2015-06-15T19:53:17.912Z</time>
      </trkpt>
      <trkpt lat="48.92097" lon="2.3254">
        <ele>88.9</ele>
        <time>2015-06-15T19:53:18.921Z</time>
      </trkpt>
      <trkpt lat="48.92091" lon="2.32548">
        <ele>88.5</ele>
        <time>2015-06-15T19:53:21.928Z</time>
      </trkpt>
      <trkpt lat="48.92089" lon="2.32551">
        <ele>88.4</ele>
        <time>2015-06-15T19:53:22.855Z</time>
      </trkpt>
      <trkpt lat="48.92084" lon="2.32558">
        <ele>88.3</ele>
        <time>2015-06-15T19:53:24.888Z</time>
      </trkpt>
      <trkpt lat="48.92082" lon="2.32561">
        <ele>87.8</ele>
        <time>2015-06-15T19:53:25.930Z</time>
      </trkpt>
      <trkpt lat="48.92077" lon="2.32567">
        <ele>87.8</ele>
        <time>2015-06-15T19:53:27.808Z</time>
      </trkpt>
      <trkpt lat="48.92075" lon="2.3257">
        <ele>88.1</ele>
        <time>2015-06-15T19:53:28.872Z</time>
      </trkpt>
      <trkpt lat="48.9207" lon="2.32577">
        <ele>88.4</ele>
        <time>2015-06-15T19:53:30.896Z</time>
      </trkpt>
      <trkpt lat="48.92068" lon="2.3258">
        <ele>88.3</ele>
        <time>2015-06-15T19:53:31.879Z</time>
      </trkpt>
      <trkpt lat="48.92063" lon="2.32587">
        <ele>88.1</ele>
        <time>2015-06-15T19:53:33.913Z</time>
      </trkpt>
      <trkpt lat="48.92061" lon="2.3259">
        <ele>87.6</ele>
        <time>2015-06-15T19:53:34.879Z</time>
      </trkpt>
      <trkpt lat="48.92055" lon="2.32598">
        <ele>87.7</ele>
        <time>2015-06-15T19:53:37.894Z</time>
      </trkpt>
      <trkpt lat="48.92053" lon="2.32601">
        <ele>87.6</ele>
        <time>2015-06-15T19:53:38.957Z</time>
      </trkpt>
      <trkpt lat="48.92047" lon="2.3261">
        <ele>87.5</ele>
        <time>2015-06-15T19:53:41.882Z</time>
      </trkpt>
      <trkpt lat="48.92046" lon="2.32612">
        <ele>87.6</ele>
        <time>2015-06-15T19:53:42.871Z</time>
      </trkpt>
      <trkpt lat="48.92041" lon="2.3262">
        <ele>87.6</ele>
        <time>2015-06-15T19:53:45.844Z</time>
      </trkpt>
      <trkpt lat="48.92039" lon="2.32623">
        <ele>87.7</ele>
        <time>2015-06-15T19:53:46.843Z</time>
      </trkpt>
      <trkpt lat="48.92033" lon="2.3263">
        <ele>88</ele>
        <time>2015-06-15T19:53:49.913Z</time>
      </trkpt>
      <trkpt lat="48.92031" lon="2.32634">
        <ele>87.5</ele>
        <time>2015-06-15T19:53:50.942Z</time>
      </trkpt>
      <trkpt lat="48.92026" lon="2.32641">
        <ele>87.4</ele>
        <time>2015-06-15T19:53:52.852Z</time>
      </trkpt>
      <trkpt lat="48.92023" lon="2.32645">
        <ele>87</ele>
        <time>2015-06-15T19:53:53.885Z</time>
      </trkpt>
      <trkpt lat="48.92017" lon="2.32654">
        <ele>86.1</ele>
        <time>2015-06-15T19:53:55.829Z</time>
      </trkpt>
      <trkpt lat="48.92014" lon="2.32659">
        <ele>86.1</ele>
        <time>2015-06-15T19:53:56.954Z</time>
      </trkpt>
      <trkpt lat="48.92009" lon="2.32668">
        <ele>86.6</ele>
        <time>2015-06-15T19:53:58.881Z</time>
      </trkpt>
      <trkpt lat="48.92005" lon="2.32673">
        <ele>86.6</ele>
        <time>2015-06-15T19:53:59.890Z</time>
      </trkpt>
      <trkpt lat="48.91999" lon="2.3268">
        <ele>86.8</ele>
        <time>2015-06-15T19:54:01.857Z</time>
      </trkpt>
      <trkpt lat="48.91996" lon="2.32683">
        <ele>86.8</ele>
        <time>2015-06-15T19:54:02.937Z</time>
      </trkpt>
      <trkpt lat="48.9199" lon="2.32692">
        <ele>86</ele>
        <time>2015-06-15T19:54:06.858Z</time>
      </trkpt>
      <trkpt lat="48.91988" lon="2.32695">
        <ele>86.1</ele>
        <time>2015-06-15T19:54:07.876Z</time>
      </trkpt>
      <trkpt lat="48.91983" lon="2.32703">
        <ele>86.8</ele>
        <time>2015-06-15T19:54:10.878Z</time>
      </trkpt>
      <trkpt lat="48.91981" lon="2.32706">
        <ele>87.3</ele>
        <time>2015-06-15T19:54:11.883Z</time>
      </trkpt>
      <trkpt lat="48.91976" lon="2.32712">
        <ele>88</ele>
        <time>2015-06-15T19:54:13.814Z</time>
      </trkpt>
      <trkpt lat="48.91975" lon="2.32716">
        <ele>87.7</ele>
        <time>2015-06-15T19:54:14.868Z</time>
      </trkpt>
      <trkpt lat="48.91969" lon="2.32724">
        <ele>87.9</ele>
        <time>2015-06-15T19:54:16.912Z</time>
      </trkpt>
      <trkpt lat="48.91966" lon="2.32729">
        <ele>87.9</ele>
        <time>2015-06-15T19:54:17.838Z</time>
      </trkpt>
      <trkpt lat="48.91962" lon="2.32733">
        <ele>87.6</ele>
        <time>2015-06-15T19:54:18.872Z</time>
      </trkpt>
      <trkpt lat="48.91959" lon="2.32738">
        <ele>87.6</ele>
        <time>2015-06-15T19:54:19.953Z</time>
      </trkpt>
      <trkpt lat="48.91956" lon="2.32745">
        <ele>87.4</ele>
        <time>2015-06-15T19:54:20.906Z</time>
      </trkpt>
      <trkpt lat="48.91952" lon="2.32752">
        <ele>87.3</ele>
        <time>2015-06-15T19:54:21.925Z</time>
      </trkpt>
      <trkpt lat="48.91948" lon="2.32758">
        <ele>87.2</ele>
        <time>2015-06-15T19:54:22.843Z</time>
      </trkpt>
      <trkpt lat="48.91945" lon="2.32763">
        <ele>87.2</ele>
        <time>2015-06-15T19:54:23.847Z</time>
      </trkpt>
      <trkpt lat="48.91941" lon="2.3277">
        <ele>87.4</ele>
        <time>2015-06-15T19:54:24.859Z</time>
      </trkpt>
      <trkpt lat="48.91937" lon="2.32776">
        <ele>87.5</ele>
        <time>2015-06-15T19:54:25.863Z</time>
      </trkpt>
      <trkpt lat="48.91933" lon="2.32782">
        <ele>87.9</ele>
        <time>2015-06-15T19:54:26.908Z</time>
      </trkpt>
      <trkpt lat="48.9193" lon="2.32788">
        <ele>88.2</ele>
        <time>2015-06-15T19:54:27.844Z</time>
      </trkpt>
      <trkpt lat="48.91926" lon="2.32794">
        <ele>88.1</ele>
        <time>2015-06-15T19:54:28.833Z</time>
      </trkpt>
      <trkpt lat="48.91923" lon="2.328">
        <ele>88.2</ele>
        <time>2015-06-15T19:54:29.842Z</time>
      </trkpt>
      <trkpt lat="48.91917" lon="2.32809">
        <ele>88</ele>
        <time>2015-06-15T19:54:31.855Z</time>
      </trkpt>
      <trkpt lat="48.91914" lon="2.32815">
        <ele>87.8</ele>
        <time>2015-06-15T19:54:32.876Z</time>
      </trkpt>
      <trkpt lat="48.91908" lon="2.32824">
        <ele>87.7</ele>
        <time>2015-06-15T19:54:34.806Z</time>
      </trkpt>
      <trkpt lat="48.91905" lon="2.32828">
        <ele>87.7</ele>
        <time>2015-06-15T19:54:35.849Z</time>
      </trkpt>
      <trkpt lat="48.919" lon="2.32836">
        <ele>87.6</ele>
        <time>2015-06-15T19:54:37.826Z</time>
      </trkpt>
      <trkpt lat="48.91896" lon="2.32842">
        <ele>87.2</ele>
        <time>2015-06-15T19:54:38.912Z</time>
      </trkpt>
      <trkpt lat="48.91891" lon="2.32849">
        <ele>87.1</ele>
        <time>2015-06-15T19:54:41.217Z</time>
      </trkpt>
      <trkpt lat="48.91889" lon="2.32851">
        <ele>87.2</ele>
        <time>2015-06-15T19:54:41.856Z</time>
      </trkpt>
      <trkpt lat="48.91883" lon="2.32858">
        <ele>87.2</ele>
        <time>2015-06-15T19:54:43.944Z</time>
      </trkpt>
      <trkpt lat="48.91881" lon="2.32862">
        <ele>87.1</ele>
        <time>2015-06-15T19:54:44.852Z</time>
      </trkpt>
      <trkpt lat="48.91876" lon="2.32868">
        <ele>86.7</ele>
        <time>2015-06-15T19:54:46.917Z</time>
      </trkpt>
      <trkpt lat="48.91874" lon="2.32871">
        <ele>86.6</ele>
        <time>2015-06-15T19:54:47.824Z</time>
      </trkpt>
      <trkpt lat="48.91868" lon="2.32881">
        <ele>86.2</ele>
        <time>2015-06-15T19:54:51.399Z</time>
      </trkpt>
      <trkpt lat="48.91866" lon="2.32884">
        <ele>86.2</ele>
        <time>2015-06-15T19:54:51.840Z</time>
      </trkpt>
      <trkpt lat="48.91859" lon="2.32892">
        <ele>86.3</ele>
        <time>2015-06-15T19:54:54.835Z</time>
      </trkpt>
      <trkpt lat="48.91857" lon="2.32895">
        <ele>86.3</ele>
        <time>2015-06-15T19:54:55.844Z</time>
      </trkpt>
      <trkpt lat="48.91851" lon="2.32903">
        <ele>86</ele>
        <time>2015-06-15T19:54:58.837Z</time>
      </trkpt>
      <trkpt lat="48.91848" lon="2.32906">
        <ele>86</ele>
        <time>2015-06-15T19:54:59.884Z</time>
      </trkpt>
      <trkpt lat="48.91844" lon="2.32913">
        <ele>86.1</ele>
        <time>2015-06-15T19:55:01.834Z</time>
      </trkpt>
      <trkpt lat="48.91842" lon="2.32916">
        <ele>86.1</ele>
        <time>2015-06-15T19:55:02.917Z</time>
      </trkpt>
      <trkpt lat="48.91837" lon="2.32923">
        <ele>86.3</ele>
        <time>2015-06-15T19:55:04.830Z</time>
      </trkpt>
      <trkpt lat="48.91835" lon="2.32927">
        <ele>86.4</ele>
        <time>2015-06-15T19:55:05.840Z</time>
      </trkpt>
      <trkpt lat="48.91829" lon="2.32935">
        <ele>85.9</ele>
        <time>2015-06-15T19:55:08.896Z</time>
      </trkpt>
      <trkpt lat="48.91827" lon="2.32938">
        <ele>85.7</ele>
        <time>2015-06-15T19:55:09.903Z</time>
      </trkpt>
      <trkpt lat="48.91821" lon="2.32945">
        <ele>85.7</ele>
        <time>2015-06-15T19:55:13.603Z</time>
      </trkpt>
      <trkpt lat="48.91819" lon="2.32946">
        <ele>85.9</ele>
        <time>2015-06-15T19:55:13.806Z</time>
      </trkpt>
      <trkpt lat="48.91811" lon="2.32947">
        <ele>85.7</ele>
        <time>2015-06-15T19:55:16.841Z</time>
      </trkpt>
      <trkpt lat="48.91808" lon="2.32947">
        <ele>85.7</ele>
        <time>2015-06-15T19:55:17.841Z</time>
      </trkpt>
      <trkpt lat="48.91802" lon="2.3295">
        <ele>85.7</ele>
        <time>2015-06-15T19:55:19.852Z</time>
      </trkpt>
      <trkpt lat="48.91798" lon="2.32953">
        <ele>85.5</ele>
        <time>2015-06-15T19:55:20.906Z</time>
      </trkpt>
      <trkpt lat="48.91791" lon="2.32959">
        <ele>85.7</ele>
        <time>2015-06-15T19:55:23.707Z</time>
      </trkpt>
      <trkpt lat="48.91787" lon="2.32963">
        <ele>86.1</ele>
        <time>2015-06-15T19:55:23.835Z</time>
      </trkpt>
      <trkpt lat="48.9178" lon="2.3297">
        <ele>86.3</ele>
        <time>2015-06-15T19:55:25.900Z</time>
      </trkpt>
      <trkpt lat="48.91776" lon="2.32972">
        <ele>86.2</ele>
        <time>2015-06-15T19:55:26.915Z</time>
      </trkpt>
      <trkpt lat="48.91768" lon="2.32976">
        <ele>86.8</ele>
        <time>2015-06-15T19:55:28.856Z</time>
      </trkpt>
      <trkpt lat="48.91763" lon="2.3298">
        <ele>87.3</ele>
        <time>2015-06-15T19:55:29.886Z</time>
      </trkpt>
      <trkpt lat="48.91759" lon="2.32984">
        <ele>87.6</ele>
        <time>2015-06-15T19:55:30.905Z</time>
      </trkpt>
      <trkpt lat="48.91755" lon="2.32986">
        <ele>87.8</ele>
        <time>2015-06-15T19:55:31.837Z</time>
      </trkpt>
      <trkpt lat="48.91747" lon="2.32991">
        <ele>87.9</ele>
        <time>2015-06-15T19:55:33.864Z</time>
      </trkpt>
      <trkpt lat="48.91742" lon="2.32994">
        <ele>87.4</ele>
        <time>2015-06-15T19:55:34.869Z</time>
      </trkpt>
      <trkpt lat="48.91738" lon="2.32997">
        <ele>87.2</ele>
        <time>2015-06-15T19:55:35.876Z</time>
      </trkpt>
      <trkpt lat="48.91734" lon="2.33">
        <ele>87.1</ele>
        <time>2015-06-15T19:55:36.910Z</time>
      </trkpt>
      <trkpt lat="48.91727" lon="2.33004">
        <ele>87.2</ele>
        <time>2015-06-15T19:55:38.819Z</time>
      </trkpt>
      <trkpt lat="48.91723" lon="2.33005">
        <ele>87.2</ele>
        <time>2015-06-15T19:55:39.901Z</time>
      </trkpt>
      <trkpt lat="48.91717" lon="2.33009">
        <ele>87.3</ele>
        <time>2015-06-15T19:55:41.818Z</time>
      </trkpt>
      <trkpt lat="48.91713" lon="2.33011">
        <ele>87.5</ele>
        <time>2015-06-15T19:55:42.867Z</time>
      </trkpt>
      <trkpt lat="48.91704" lon="2.33015">
        <ele>88</ele>
        <time>2015-06-15T19:55:44.891Z</time>
      </trkpt>
      <trkpt lat="48.917" lon="2.33017">
        <ele>88.1</ele>
        <time>2015-06-15T19:55:45.875Z</time>
      </trkpt>
      <trkpt lat="48.91692" lon="2.33021">
        <ele>88</ele>
        <time>2015-06-15T19:55:47.907Z</time>
      </trkpt>
      <trkpt lat="48.91688" lon="2.33023">
        <ele>88.2</ele>
        <time>2015-06-15T19:55:48.967Z</time>
      </trkpt>
      <trkpt lat="48.91679" lon="2.33026">
        <ele>88.6</ele>
        <time>2015-06-15T19:55:50.894Z</time>
      </trkpt>
      <trkpt lat="48.91674" lon="2.33027">
        <ele>89.1</ele>
        <time>2015-06-15T19:55:51.809Z</time>
      </trkpt>
      <trkpt lat="48.91669" lon="2.33029">
        <ele>89.2</ele>
        <time>2015-06-15T19:55:52.813Z</time>
      </trkpt>
      <trkpt lat="48.91665" lon="2.33031">
        <ele>89.4</ele>
        <time>2015-06-15T19:55:53.824Z</time>
      </trkpt>
      <trkpt lat="48.91657" lon="2.33034">
        <ele>89.3</ele>
        <time>2015-06-15T19:55:55.877Z</time>
      </trkpt>
      <trkpt lat="48.91653" lon="2.33036">
        <ele>89.2</ele>
        <time>2015-06-15T19:55:56.952Z</time>
      </trkpt>
      <trkpt lat="48.91646" lon="2.33038">
        <ele>89.9</ele>
        <time>2015-06-15T19:55:58.913Z</time>
      </trkpt>
      <trkpt lat="48.91642" lon="2.3304">
        <ele>90.1</ele>
        <time>2015-06-15T19:55:59.795Z</time>
      </trkpt>
      <trkpt lat="48.91635" lon="2.33045">
        <ele>90.9</ele>
        <time>2015-06-15T19:56:01.822Z</time>
      </trkpt>
      <trkpt lat="48.91632" lon="2.33048">
        <ele>91.1</ele>
        <time>2015-06-15T19:56:02.883Z</time>
      </trkpt>
      <trkpt lat="48.91625" lon="2.33055">
        <ele>91.6</ele>
        <time>2015-06-15T19:56:04.937Z</time>
      </trkpt>
      <trkpt lat="48.9162" lon="2.3306">
        <ele>91.5</ele>
        <time>2015-06-15T19:56:05.803Z</time>
      </trkpt>
      <trkpt lat="48.91615" lon="2.33065">
        <ele>91.6</ele>
        <time>2015-06-15T19:56:06.817Z</time>
      </trkpt>
      <trkpt lat="48.91611" lon="2.3307">
        <ele>91.7</ele>
        <time>2015-06-15T19:56:07.844Z</time>
      </trkpt>
      <trkpt lat="48.91604" lon="2.33078">
        <ele>91.9</ele>
        <time>2015-06-15T19:56:09.894Z</time>
      </trkpt>
      <trkpt lat="48.916" lon="2.33083">
        <ele>92.1</ele>
        <time>2015-06-15T19:56:10.905Z</time>
      </trkpt>
      <trkpt lat="48.91597" lon="2.33088">
        <ele>92.6</ele>
        <time>2015-06-15T19:56:11.828Z</time>
      </trkpt>
      <trkpt lat="48.91593" lon="2.33092">
        <ele>93</ele>
        <time>2015-06-15T19:56:12.831Z</time>
      </trkpt>
      <trkpt lat="48.91587" lon="2.33098">
        <ele>93.3</ele>
        <time>2015-06-15T19:56:13.551Z</time>
      </trkpt>
      <trkpt lat="48.91582" lon="2.33103">
        <ele>93.7</ele>
        <time>2015-06-15T19:56:14.842Z</time>
      </trkpt>
      <trkpt lat="48.91576" lon="2.33109">
        <ele>94.1</ele>
        <time>2015-06-15T19:56:15.871Z</time>
      </trkpt>
      <trkpt lat="48.91571" lon="2.33114">
        <ele>94.4</ele>
        <time>2015-06-15T19:56:16.905Z</time>
      </trkpt>
      <trkpt lat="48.91566" lon="2.33119">
        <ele>94.7</ele>
        <time>2015-06-15T19:56:17.791Z</time>
      </trkpt>
      <trkpt lat="48.91561" lon="2.33124">
        <ele>95.2</ele>
        <time>2015-06-15T19:56:18.830Z</time>
      </trkpt>
      <trkpt lat="48.91555" lon="2.33132">
        <ele>96.6</ele>
        <time>2015-06-15T19:56:19.854Z</time>
      </trkpt>
      <trkpt lat="48.91552" lon="2.33137">
        <ele>97.3</ele>
        <time>2015-06-15T19:56:20.867Z</time>
      </trkpt>
      <trkpt lat="48.91547" lon="2.33141">
        <ele>97.1</ele>
        <time>2015-06-15T19:56:21.904Z</time>
      </trkpt>
      <trkpt lat="48.91542" lon="2.33144">
        <ele>97.4</ele>
        <time>2015-06-15T19:56:22.847Z</time>
      </trkpt>
      <trkpt lat="48.91533" lon="2.33146">
        <ele>97.8</ele>
        <time>2015-06-15T19:56:24.816Z</time>
      </trkpt>
      <trkpt lat="48.9153" lon="2.33148">
        <ele>97.8</ele>
        <time>2015-06-15T19:56:25.846Z</time>
      </trkpt>
      <trkpt lat="48.91523" lon="2.33146">
        <ele>99.1</ele>
        <time>2015-06-15T19:56:28.827Z</time>
      </trkpt>
      <trkpt lat="48.9152" lon="2.33148">
        <ele>99.9</ele>
        <time>2015-06-15T19:56:29.845Z</time>
      </trkpt>
      <trkpt lat="48.91515" lon="2.33153">
        <ele>100.9</ele>
        <time>2015-06-15T19:56:31.855Z</time>
      </trkpt>
      <trkpt lat="48.91511" lon="2.33156">
        <ele>101.4</ele>
        <time>2015-06-15T19:56:32.921Z</time>
      </trkpt>
      <trkpt lat="48.91504" lon="2.33161">
        <ele>102.2</ele>
        <time>2015-06-15T19:56:34.856Z</time>
      </trkpt>
      <trkpt lat="48.915" lon="2.33165">
        <ele>102.1</ele>
        <time>2015-06-15T19:56:35.876Z</time>
      </trkpt>
      <trkpt lat="48.91497" lon="2.33169">
        <ele>101.9</ele>
        <time>2015-06-15T19:56:36.846Z</time>
      </trkpt>
      <trkpt lat="48.91493" lon="2.33173">
        <ele>102.8</ele>
        <time>2015-06-15T19:56:37.835Z</time>
      </trkpt>
      <trkpt lat="48.91489" lon="2.33178">
        <ele>103.5</ele>
        <time>2015-06-15T19:56:38.890Z</time>
      </trkpt>
      <trkpt lat="48.91485" lon="2.33182">
        <ele>104.1</ele>
        <time>2015-06-15T19:56:39.888Z</time>
      </trkpt>
      <trkpt lat="48.91481" lon="2.33187">
        <ele>104.8</ele>
        <time>2015-06-15T19:56:40.847Z</time>
      </trkpt>
      <trkpt lat="48.91478" lon="2.33192">
        <ele>105.3</ele>
        <time>2015-06-15T19:56:41.838Z</time>
      </trkpt>
      <trkpt lat="48.91473" lon="2.33196">
        <ele>105.6</ele>
        <time>2015-06-15T19:56:42.856Z</time>
      </trkpt>
      <trkpt lat="48.91469" lon="2.33199">
        <ele>105.8</ele>
        <time>2015-06-15T19:56:43.860Z</time>
      </trkpt>
      <trkpt lat="48.91465" lon="2.33203">
        <ele>105.7</ele>
        <time>2015-06-15T19:56:44.934Z</time>
      </trkpt>
      <trkpt lat="48.9146" lon="2.33206">
        <ele>105.3</ele>
        <time>2015-06-15T19:56:45.848Z</time>
      </trkpt>
      <trkpt lat="48.91456" lon="2.33209">
        <ele>104.9</ele>
        <time>2015-06-15T19:56:46.840Z</time>
      </trkpt>
      <trkpt lat="48.91451" lon="2.33212">
        <ele>104.7</ele>
        <time>2015-06-15T19:56:47.874Z</time>
      </trkpt>
      <trkpt lat="48.91443" lon="2.33217">
        <ele>103.9</ele>
        <time>2015-06-15T19:56:49.912Z</time>
      </trkpt>
      <trkpt lat="48.91439" lon="2.3322">
        <ele>103.6</ele>
        <time>2015-06-15T19:56:50.934Z</time>
      </trkpt>
      <trkpt lat="48.91431" lon="2.33225">
        <ele>103.6</ele>
        <time>2015-06-15T19:56:52.926Z</time>
      </trkpt>
      <trkpt lat="48.91427" lon="2.33229">
        <ele>103.8</ele>
        <time>2015-06-15T19:56:53.881Z</time>
      </trkpt>
      <trkpt lat="48.91423" lon="2.33234">
        <ele>103.8</ele>
        <time>2015-06-15T19:56:54.892Z</time>
      </trkpt>
      <trkpt lat="48.9142" lon="2.33238">
        <ele>103.9</ele>
        <time>2015-06-15T19:56:55.927Z</time>
      </trkpt>
      <trkpt lat="48.91413" lon="2.33246">
        <ele>104</ele>
        <time>2015-06-15T19:56:57.836Z</time>
      </trkpt>
      <trkpt lat="48.91409" lon="2.33251">
        <ele>104.5</ele>
        <time>2015-06-15T19:56:58.841Z</time>
      </trkpt>
      <trkpt lat="48.91403" lon="2.33261">
        <ele>105.2</ele>
        <time>2015-06-15T19:57:00.923Z</time>
      </trkpt>
      <trkpt lat="48.914" lon="2.33265">
        <ele>104.6</ele>
        <time>2015-06-15T19:57:01.826Z</time>
      </trkpt>
      <trkpt lat="48.91395" lon="2.33275">
        <ele>104.8</ele>
        <time>2015-06-15T19:57:03.860Z</time>
      </trkpt>
      <trkpt lat="48.91392" lon="2.33279">
        <ele>104.9</ele>
        <time>2015-06-15T19:57:04.825Z</time>
      </trkpt>
      <trkpt lat="48.91389" lon="2.33283">
        <ele>104.8</ele>
        <time>2015-06-15T19:57:05.832Z</time>
      </trkpt>
      <trkpt lat="48.91386" lon="2.33289">
        <ele>104.2</ele>
        <time>2015-06-15T19:57:06.857Z</time>
      </trkpt>
      <trkpt lat="48.91383" lon="2.33295">
        <ele>104</ele>
        <time>2015-06-15T19:57:07.902Z</time>
      </trkpt>
      <trkpt lat="48.9138" lon="2.33301">
        <ele>104.1</ele>
        <time>2015-06-15T19:57:08.905Z</time>
      </trkpt>
      <trkpt lat="48.91377" lon="2.33307">
        <ele>104.4</ele>
        <time>2015-06-15T19:57:09.831Z</time>
      </trkpt>
      <trkpt lat="48.91375" lon="2.33313">
        <ele>105.7</ele>
        <time>2015-06-15T19:57:11.062Z</time>
      </trkpt>
      <trkpt lat="48.9137" lon="2.33324">
        <ele>107.8</ele>
        <time>2015-06-15T19:57:12.866Z</time>
      </trkpt>
      <trkpt lat="48.91366" lon="2.3333">
        <ele>108</ele>
        <time>2015-06-15T19:57:13.876Z</time>
      </trkpt>
      <trkpt lat="48.91362" lon="2.33335">
        <ele>108.1</ele>
        <time>2015-06-15T19:57:14.905Z</time>
      </trkpt>
      <trkpt lat="48.91358" lon="2.33341">
        <ele>108</ele>
        <time>2015-06-15T19:57:15.910Z</time>
      </trkpt>
      <trkpt lat="48.91354" lon="2.33347">
        <ele>107.9</ele>
        <time>2015-06-15T19:57:16.842Z</time>
      </trkpt>
      <trkpt lat="48.9135" lon="2.33354">
        <ele>107.8</ele>
        <time>2015-06-15T19:57:17.849Z</time>
      </trkpt>
      <trkpt lat="48.91347" lon="2.3336">
        <ele>107.9</ele>
        <time>2015-06-15T19:57:18.858Z</time>
      </trkpt>
      <trkpt lat="48.91343" lon="2.33366">
        <ele>107.9</ele>
        <time>2015-06-15T19:57:19.858Z</time>
      </trkpt>
      <trkpt lat="48.91339" lon="2.33372">
        <ele>108.2</ele>
        <time>2015-06-15T19:57:20.863Z</time>
      </trkpt>
      <trkpt lat="48.91336" lon="2.33377">
        <ele>108.8</ele>
        <time>2015-06-15T19:57:21.891Z</time>
      </trkpt>
      <trkpt lat="48.91331" lon="2.33388">
        <ele>109.8</ele>
        <time>2015-06-15T19:57:23.922Z</time>
      </trkpt>
      <trkpt lat="48.91329" lon="2.33393">
        <ele>110.4</ele>
        <time>2015-06-15T19:57:24.834Z</time>
      </trkpt>
      <trkpt lat="48.91325" lon="2.33402">
        <ele>111.7</ele>
        <time>2015-06-15T19:57:26.864Z</time>
      </trkpt>
      <trkpt lat="48.91322" lon="2.33406">
        <ele>112.1</ele>
        <time>2015-06-15T19:57:27.916Z</time>
      </trkpt>
      <trkpt lat="48.91317" lon="2.33413">
        <ele>113.2</ele>
        <time>2015-06-15T19:57:29.857Z</time>
      </trkpt>
      <trkpt lat="48.91315" lon="2.33418">
        <ele>112.8</ele>
        <time>2015-06-15T19:57:30.873Z</time>
      </trkpt>
      <trkpt lat="48.91309" lon="2.33426">
        <ele>112.7</ele>
        <time>2015-06-15T19:57:32.945Z</time>
      </trkpt>
      <trkpt lat="48.91305" lon="2.33432">
        <ele>112.5</ele>
        <time>2015-06-15T19:57:33.906Z</time>
      </trkpt>
      <trkpt lat="48.91299" lon="2.33443">
        <ele>112.3</ele>
        <time>2015-06-15T19:57:35.832Z</time>
      </trkpt>
      <trkpt lat="48.91296" lon="2.33447">
        <ele>112.4</ele>
        <time>2015-06-15T19:57:36.875Z</time>
      </trkpt>
      <trkpt lat="48.91291" lon="2.33456">
        <ele>112.5</ele>
        <time>2015-06-15T19:57:38.904Z</time>
      </trkpt>
      <trkpt lat="48.91288" lon="2.3346">
        <ele>112.4</ele>
        <time>2015-06-15T19:57:39.828Z</time>
      </trkpt>
      <trkpt lat="48.91282" lon="2.33467">
        <ele>111.4</ele>
        <time>2015-06-15T19:57:41.859Z</time>
      </trkpt>
      <trkpt lat="48.91276" lon="2.3347">
        <ele>109.4</ele>
        <time>2015-06-15T19:57:42.892Z</time>
      </trkpt>
      <trkpt lat="48.91271" lon="2.33471">
        <ele>109.3</ele>
        <time>2015-06-15T19:57:43.915Z</time>
      </trkpt>
      <trkpt lat="48.91267" lon="2.33469">
        <ele>109</ele>
        <time>2015-06-15T19:57:44.922Z</time>
      </trkpt>
      <trkpt lat="48.91261" lon="2.33467">
        <ele>108.3</ele>
        <time>2015-06-15T19:57:45.845Z</time>
      </trkpt>
      <trkpt lat="48.91255" lon="2.33464">
        <ele>107</ele>
        <time>2015-06-15T19:57:46.860Z</time>
      </trkpt>
      <trkpt lat="48.9125" lon="2.3346">
        <ele>106.2</ele>
        <time>2015-06-15T19:57:47.873Z</time>
      </trkpt>
      <trkpt lat="48.91245" lon="2.33457">
        <ele>105.4</ele>
        <time>2015-06-15T19:57:48.893Z</time>
      </trkpt>
      <trkpt lat="48.91241" lon="2.33453">
        <ele>104.7</ele>
        <time>2015-06-15T19:57:49.846Z</time>
      </trkpt>
      <trkpt lat="48.91237" lon="2.3345">
        <ele>104.2</ele>
        <time>2015-06-15T19:57:50.902Z</time>
      </trkpt>
      <trkpt lat="48.91233" lon="2.33446">
        <ele>103.9</ele>
        <time>2015-06-15T19:57:51.916Z</time>
      </trkpt>
      <trkpt lat="48.9123" lon="2.33437">
        <ele>103.5</ele>
        <time>2015-06-15T19:57:52.866Z</time>
      </trkpt>
      <trkpt lat="48.91228" lon="2.33429">
        <ele>103</ele>
        <time>2015-06-15T19:57:53.876Z</time>
      </trkpt>
      <trkpt lat="48.91226" lon="2.3342">
        <ele>102.1</ele>
        <time>2015-06-15T19:57:54.867Z</time>
      </trkpt>
      <trkpt lat="48.91223" lon="2.33413">
        <ele>101.5</ele>
        <time>2015-06-15T19:57:55.888Z</time>
      </trkpt>
      <trkpt lat="48.91221" lon="2.33406">
        <ele>101.1</ele>
        <time>2015-06-15T19:57:56.928Z</time>
      </trkpt>
      <trkpt lat="48.91218" lon="2.33398">
        <ele>100.1</ele>
        <time>2015-06-15T19:57:57.842Z</time>
      </trkpt>
      <trkpt lat="48.91215" lon="2.33392">
        <ele>99.5</ele>
        <time>2015-06-15T19:57:58.860Z</time>
      </trkpt>
      <trkpt lat="48.91212" lon="2.33386">
        <ele>99.5</ele>
        <time>2015-06-15T19:57:59.873Z</time>
      </trkpt>
      <trkpt lat="48.91209" lon="2.3338">
        <ele>99</ele>
        <time>2015-06-15T19:58:00.894Z</time>
      </trkpt>
      <trkpt lat="48.91203" lon="2.33371">
        <ele>98.3</ele>
        <time>2015-06-15T19:58:03.110Z</time>
      </trkpt>
      <trkpt lat="48.91199" lon="2.33367">
        <ele>97.9</ele>
        <time>2015-06-15T19:58:03.902Z</time>
      </trkpt>
      <trkpt lat="48.91195" lon="2.33363">
        <ele>98.2</ele>
        <time>2015-06-15T19:58:04.816Z</time>
      </trkpt>
      <trkpt lat="48.91191" lon="2.33359">
        <ele>98.3</ele>
        <time>2015-06-15T19:58:05.829Z</time>
      </trkpt>
      <trkpt lat="48.91187" lon="2.33354">
        <ele>98.5</ele>
        <time>2015-06-15T19:58:06.852Z</time>
      </trkpt>
      <trkpt lat="48.91183" lon="2.3335">
        <ele>98.4</ele>
        <time>2015-06-15T19:58:07.889Z</time>
      </trkpt>
      <trkpt lat="48.91179" lon="2.33346">
        <ele>98.9</ele>
        <time>2015-06-15T19:58:08.911Z</time>
      </trkpt>
      <trkpt lat="48.91175" lon="2.33341">
        <ele>99.3</ele>
        <time>2015-06-15T19:58:09.840Z</time>
      </trkpt>
      <trkpt lat="48.91171" lon="2.33336">
        <ele>99.7</ele>
        <time>2015-06-15T19:58:10.882Z</time>
      </trkpt>
      <trkpt lat="48.91168" lon="2.33332">
        <ele>99.8</ele>
        <time>2015-06-15T19:58:11.891Z</time>
      </trkpt>
      <trkpt lat="48.91163" lon="2.33329">
        <ele>100</ele>
        <time>2015-06-15T19:58:12.905Z</time>
      </trkpt>
      <trkpt lat="48.9116" lon="2.33324">
        <ele>100</ele>
        <time>2015-06-15T19:58:13.877Z</time>
      </trkpt>
      <trkpt lat="48.91156" lon="2.33316">
        <ele>99.1</ele>
        <time>2015-06-15T19:58:14.978Z</time>
      </trkpt>
      <trkpt lat="48.91153" lon="2.33308">
        <ele>98.8</ele>
        <time>2015-06-15T19:58:15.886Z</time>
      </trkpt>
      <trkpt lat="48.91149" lon="2.33301">
        <ele>98.5</ele>
        <time>2015-06-15T19:58:16.872Z</time>
      </trkpt>
      <trkpt lat="48.91145" lon="2.33295">
        <ele>98.4</ele>
        <time>2015-06-15T19:58:17.859Z</time>
      </trkpt>
      <trkpt lat="48.9114" lon="2.33289">
        <ele>98.6</ele>
        <time>2015-06-15T19:58:18.865Z</time>
      </trkpt>
      <trkpt lat="48.91136" lon="2.33283">
        <ele>98.4</ele>
        <time>2015-06-15T19:58:19.891Z</time>
      </trkpt>
      <trkpt lat="48.91132" lon="2.33278">
        <ele>98.7</ele>
        <time>2015-06-15T19:58:20.912Z</time>
      </trkpt>
      <trkpt lat="48.91127" lon="2.33272">
        <ele>98.9</ele>
        <time>2015-06-15T19:58:21.912Z</time>
      </trkpt>
      <trkpt lat="48.91123" lon="2.33266">
        <ele>98.6</ele>
        <time>2015-06-15T19:58:22.839Z</time>
      </trkpt>
      <trkpt lat="48.91119" lon="2.3326">
        <ele>98.3</ele>
        <time>2015-06-15T19:58:23.826Z</time>
      </trkpt>
      <trkpt lat="48.91114" lon="2.33254">
        <ele>98.3</ele>
        <time>2015-06-15T19:58:24.818Z</time>
      </trkpt>
      <trkpt lat="48.9111" lon="2.33248">
        <ele>98.2</ele>
        <time>2015-06-15T19:58:25.836Z</time>
      </trkpt>
      <trkpt lat="48.91106" lon="2.33242">
        <ele>97.7</ele>
        <time>2015-06-15T19:58:26.895Z</time>
      </trkpt>
      <trkpt lat="48.91101" lon="2.33236">
        <ele>97.6</ele>
        <time>2015-06-15T19:58:27.907Z</time>
      </trkpt>
      <trkpt lat="48.91097" lon="2.33229">
        <ele>97.4</ele>
        <time>2015-06-15T19:58:28.826Z</time>
      </trkpt>
      <trkpt lat="48.91093" lon="2.33222">
        <ele>97.1</ele>
        <time>2015-06-15T19:58:29.859Z</time>
      </trkpt>
      <trkpt lat="48.91089" lon="2.33214">
        <ele>96.3</ele>
        <time>2015-06-15T19:58:30.862Z</time>
      </trkpt>
      <trkpt lat="48.91085" lon="2.33207">
        <ele>96.1</ele>
        <time>2015-06-15T19:58:31.884Z</time>
      </trkpt>
      <trkpt lat="48.91081" lon="2.33198">
        <ele>96.3</ele>
        <time>2015-06-15T19:58:32.942Z</time>
      </trkpt>
      <trkpt lat="48.91077" lon="2.33191">
        <ele>96.3</ele>
        <time>2015-06-15T19:58:33.867Z</time>
      </trkpt>
      <trkpt lat="48.91073" lon="2.33184">
        <ele>96.2</ele>
        <time>2015-06-15T19:58:34.879Z</time>
      </trkpt>
      <trkpt lat="48.91069" lon="2.33176">
        <ele>96.3</ele>
        <time>2015-06-15T19:58:35.891Z</time>
      </trkpt>
      <trkpt lat="48.91065" lon="2.3317">
        <ele>96.5</ele>
        <time>2015-06-15T19:58:36.899Z</time>
      </trkpt>
      <trkpt lat="48.91061" lon="2.33164">
        <ele>96.6</ele>
        <time>2015-06-15T19:58:37.906Z</time>
      </trkpt>
      <trkpt lat="48.91057" lon="2.33157">
        <ele>96.6</ele>
        <time>2015-06-15T19:58:38.949Z</time>
      </trkpt>
      <trkpt lat="48.91053" lon="2.3315">
        <ele>96.5</ele>
        <time>2015-06-15T19:58:39.849Z</time>
      </trkpt>
      <trkpt lat="48.91049" lon="2.33142">
        <ele>95.8</ele>
        <time>2015-06-15T19:58:40.845Z</time>
      </trkpt>
      <trkpt lat="48.91045" lon="2.33135">
        <ele>95.6</ele>
        <time>2015-06-15T19:58:41.844Z</time>
      </trkpt>
      <trkpt lat="48.91041" lon="2.33128">
        <ele>95.8</ele>
        <time>2015-06-15T19:58:42.871Z</time>
      </trkpt>
      <trkpt lat="48.91037" lon="2.33122">
        <ele>95.5</ele>
        <time>2015-06-15T19:58:43.893Z</time>
      </trkpt>
      <trkpt lat="48.91033" lon="2.33116">
        <ele>95</ele>
        <time>2015-06-15T19:58:44.919Z</time>
      </trkpt>
      <trkpt lat="48.91028" lon="2.3311">
        <ele>94.9</ele>
        <time>2015-06-15T19:58:45.845Z</time>
      </trkpt>
      <trkpt lat="48.91024" lon="2.33103">
        <ele>94.7</ele>
        <time>2015-06-15T19:58:46.834Z</time>
      </trkpt>
      <trkpt lat="48.9102" lon="2.33096">
        <ele>94.7</ele>
        <time>2015-06-15T19:58:47.843Z</time>
      </trkpt>
      <trkpt lat="48.91017" lon="2.3309">
        <ele>94.6</ele>
        <time>2015-06-15T19:58:48.857Z</time>
      </trkpt>
      <trkpt lat="48.91013" lon="2.33084">
        <ele>94.1</ele>
        <time>2015-06-15T19:58:49.869Z</time>
      </trkpt>
      <trkpt lat="48.9101" lon="2.33078">
        <ele>93.7</ele>
        <time>2015-06-15T19:58:50.903Z</time>
      </trkpt>
      <trkpt lat="48.91006" lon="2.33072">
        <ele>93.5</ele>
        <time>2015-06-15T19:58:51.917Z</time>
      </trkpt>
      <trkpt lat="48.91002" lon="2.33067">
        <ele>94</ele>
        <time>2015-06-15T19:58:52.836Z</time>
      </trkpt>
      <trkpt lat="48.90998" lon="2.33061">
        <ele>94.5</ele>
        <time>2015-06-15T19:58:53.862Z</time>
      </trkpt>
      <trkpt lat="48.90994" lon="2.33056">
        <ele>94.7</ele>
        <time>2015-06-15T19:58:54.846Z</time>
      </trkpt>
      <trkpt lat="48.9099" lon="2.33049">
        <ele>94.8</ele>
        <time>2015-06-15T19:58:55.865Z</time>
      </trkpt>
      <trkpt lat="48.90986" lon="2.33042">
        <ele>94.8</ele>
        <time>2015-06-15T19:58:56.908Z</time>
      </trkpt>
      <trkpt lat="48.90982" lon="2.33034">
        <ele>94.9</ele>
        <time>2015-06-15T19:58:57.920Z</time>
      </trkpt>
      <trkpt lat="48.90979" lon="2.33027">
        <ele>94.7</ele>
        <time>2015-06-15T19:58:58.837Z</time>
      </trkpt>
      <trkpt lat="48.90974" lon="2.33021">
        <ele>94</ele>
        <time>2015-06-15T19:58:59.837Z</time>
      </trkpt>
      <trkpt lat="48.9097" lon="2.33013">
        <ele>93.9</ele>
        <time>2015-06-15T19:59:00.848Z</time>
      </trkpt>
      <trkpt lat="48.90965" lon="2.33006">
        <ele>93.5</ele>
        <time>2015-06-15T19:59:01.863Z</time>
      </trkpt>
      <trkpt lat="48.90961" lon="2.32997">
        <ele>92.7</ele>
        <time>2015-06-15T19:59:02.935Z</time>
      </trkpt>
      <trkpt lat="48.90957" lon="2.32988">
        <ele>92.3</ele>
        <time>2015-06-15T19:59:03.829Z</time>
      </trkpt>
      <trkpt lat="48.90953" lon="2.32981">
        <ele>92</ele>
        <time>2015-06-15T19:59:04.828Z</time>
      </trkpt>
      <trkpt lat="48.90949" lon="2.32974">
        <ele>92.1</ele>
        <time>2015-06-15T19:59:05.861Z</time>
      </trkpt>
      <trkpt lat="48.90945" lon="2.32966">
        <ele>92.6</ele>
        <time>2015-06-15T19:59:06.872Z</time>
      </trkpt>
      <trkpt lat="48.90941" lon="2.3296">
        <ele>93.1</ele>
        <time>2015-06-15T19:59:07.869Z</time>
      </trkpt>
      <trkpt lat="48.90936" lon="2.32955">
        <ele>93.5</ele>
        <time>2015-06-15T19:59:08.919Z</time>
      </trkpt>
      <trkpt lat="48.90931" lon="2.32949">
        <ele>93.4</ele>
        <time>2015-06-15T19:59:09.852Z</time>
      </trkpt>
      <trkpt lat="48.90925" lon="2.32942">
        <ele>93.2</ele>
        <time>2015-06-15T19:59:10.830Z</time>
      </trkpt>
      <trkpt lat="48.90919" lon="2.32936">
        <ele>92.7</ele>
        <time>2015-06-15T19:59:11.849Z</time>
      </trkpt>
      <trkpt lat="48.90915" lon="2.32929">
        <ele>92.5</ele>
        <time>2015-06-15T19:59:12.880Z</time>
      </trkpt>
      <trkpt lat="48.9091" lon="2.32922">
        <ele>92.3</ele>
        <time>2015-06-15T19:59:13.906Z</time>
      </trkpt>
      <trkpt lat="48.90906" lon="2.32915">
        <ele>91.6</ele>
        <time>2015-06-15T19:59:14.926Z</time>
      </trkpt>
      <trkpt lat="48.90901" lon="2.32908">
        <ele>91.2</ele>
        <time>2015-06-15T19:59:15.840Z</time>
      </trkpt>
      <trkpt lat="48.90898" lon="2.329">
        <ele>90.6</ele>
        <time>2015-06-15T19:59:16.854Z</time>
      </trkpt>
      <trkpt lat="48.90895" lon="2.32893">
        <ele>90.5</ele>
        <time>2015-06-15T19:59:17.891Z</time>
      </trkpt>
      <trkpt lat="48.90891" lon="2.32886">
        <ele>90</ele>
        <time>2015-06-15T19:59:18.843Z</time>
      </trkpt>
      <trkpt lat="48.90887" lon="2.3288">
        <ele>89.6</ele>
        <time>2015-06-15T19:59:19.849Z</time>
      </trkpt>
      <trkpt lat="48.90883" lon="2.32873">
        <ele>89.3</ele>
        <time>2015-06-15T19:59:20.925Z</time>
      </trkpt>
      <trkpt lat="48.9088" lon="2.32866">
        <ele>89</ele>
        <time>2015-06-15T19:59:21.811Z</time>
      </trkpt>
      <trkpt lat="48.90876" lon="2.3286">
        <ele>88.1</ele>
        <time>2015-06-15T19:59:22.829Z</time>
      </trkpt>
      <trkpt lat="48.90873" lon="2.32855">
        <ele>87.7</ele>
        <time>2015-06-15T19:59:23.841Z</time>
      </trkpt>
      <trkpt lat="48.90869" lon="2.32849">
        <ele>87.7</ele>
        <time>2015-06-15T19:59:24.846Z</time>
      </trkpt>
      <trkpt lat="48.90865" lon="2.32842">
        <ele>87.4</ele>
        <time>2015-06-15T19:59:25.856Z</time>
      </trkpt>
      <trkpt lat="48.90862" lon="2.32837">
        <ele>87.7</ele>
        <time>2015-06-15T19:59:26.884Z</time>
      </trkpt>
      <trkpt lat="48.90858" lon="2.32831">
        <ele>88</ele>
        <time>2015-06-15T19:59:27.897Z</time>
      </trkpt>
      <trkpt lat="48.90855" lon="2.32825">
        <ele>88.3</ele>
        <time>2015-06-15T19:59:28.908Z</time>
      </trkpt>
      <trkpt lat="48.90851" lon="2.32819">
        <ele>88.5</ele>
        <time>2015-06-15T19:59:29.828Z</time>
      </trkpt>
      <trkpt lat="48.90847" lon="2.32813">
        <ele>88.7</ele>
        <time>2015-06-15T19:59:30.830Z</time>
      </trkpt>
      <trkpt lat="48.90844" lon="2.32807">
        <ele>88.6</ele>
        <time>2015-06-15T19:59:31.859Z</time>
      </trkpt>
      <trkpt lat="48.90841" lon="2.32801">
        <ele>88.8</ele>
        <time>2015-06-15T19:59:32.893Z</time>
      </trkpt>
      <trkpt lat="48.90837" lon="2.32795">
        <ele>88.6</ele>
        <time>2015-06-15T19:59:33.889Z</time>
      </trkpt>
      <trkpt lat="48.90834" lon="2.32789">
        <ele>89</ele>
        <time>2015-06-15T19:59:34.899Z</time>
      </trkpt>
      <trkpt lat="48.90831" lon="2.32782">
        <ele>88.6</ele>
        <time>2015-06-15T19:59:35.906Z</time>
      </trkpt>
      <trkpt lat="48.90827" lon="2.32777">
        <ele>88.5</ele>
        <time>2015-06-15T19:59:36.911Z</time>
      </trkpt>
      <trkpt lat="48.90824" lon="2.32772">
        <ele>87.8</ele>
        <time>2015-06-15T19:59:37.834Z</time>
      </trkpt>
      <trkpt lat="48.90821" lon="2.32766">
        <ele>87.6</ele>
        <time>2015-06-15T19:59:38.892Z</time>
      </trkpt>
      <trkpt lat="48.90818" lon="2.32761">
        <ele>87.6</ele>
        <time>2015-06-15T19:59:39.895Z</time>
      </trkpt>
      <trkpt lat="48.90811" lon="2.32751">
        <ele>87.5</ele>
        <time>2015-06-15T19:59:41.909Z</time>
      </trkpt>
      <trkpt lat="48.90808" lon="2.32747">
        <ele>87.2</ele>
        <time>2015-06-15T19:59:42.868Z</time>
      </trkpt>
      <trkpt lat="48.90801" lon="2.32741">
        <ele>86.8</ele>
        <time>2015-06-15T19:59:44.903Z</time>
      </trkpt>
      <trkpt lat="48.90798" lon="2.32738">
        <ele>86.4</ele>
        <time>2015-06-15T19:59:45.801Z</time>
      </trkpt>
      <trkpt lat="48.90793" lon="2.32732">
        <ele>85.6</ele>
        <time>2015-06-15T19:59:47.889Z</time>
      </trkpt>
      <trkpt lat="48.90791" lon="2.32728">
        <ele>85.6</ele>
        <time>2015-06-15T19:59:48.799Z</time>
      </trkpt>
      <trkpt lat="48.90786" lon="2.32719">
        <ele>85.3</ele>
        <time>2015-06-15T19:59:50.907Z</time>
      </trkpt>
      <trkpt lat="48.90783" lon="2.32714">
        <ele>85.2</ele>
        <time>2015-06-15T19:59:52.001Z</time>
      </trkpt>
      <trkpt lat="48.90778" lon="2.32704">
        <ele>84.5</ele>
        <time>2015-06-15T19:59:53.874Z</time>
      </trkpt>
      <trkpt lat="48.90776" lon="2.32699">
        <ele>84.5</ele>
        <time>2015-06-15T19:59:54.897Z</time>
      </trkpt>
      <trkpt lat="48.9077" lon="2.3269">
        <ele>84.6</ele>
        <time>2015-06-15T19:59:56.922Z</time>
      </trkpt>
      <trkpt lat="48.90767" lon="2.32686">
        <ele>84.5</ele>
        <time>2015-06-15T19:59:57.873Z</time>
      </trkpt>
      <trkpt lat="48.90761" lon="2.32678">
        <ele>85</ele>
        <time>2015-06-15T19:59:59.882Z</time>
      </trkpt>
      <trkpt lat="48.90758" lon="2.32673">
        <ele>85.1</ele>
        <time>2015-06-15T20:00:00.896Z</time>
      </trkpt>
      <trkpt lat="48.90755" lon="2.32668">
        <ele>85.1</ele>
        <time>2015-06-15T20:00:01.852Z</time>
      </trkpt>
      <trkpt lat="48.90752" lon="2.32663">
        <ele>85.5</ele>
        <time>2015-06-15T20:00:02.978Z</time>
      </trkpt>
      <trkpt lat="48.90745" lon="2.32654">
        <ele>85.4</ele>
        <time>2015-06-15T20:00:04.850Z</time>
      </trkpt>
      <trkpt lat="48.90742" lon="2.32649">
        <ele>85.2</ele>
        <time>2015-06-15T20:00:05.859Z</time>
      </trkpt>
      <trkpt lat="48.90739" lon="2.32643">
        <ele>84.9</ele>
        <time>2015-06-15T20:00:06.888Z</time>
      </trkpt>
      <trkpt lat="48.90736" lon="2.32637">
        <ele>84.8</ele>
        <time>2015-06-15T20:00:07.891Z</time>
      </trkpt>
      <trkpt lat="48.90732" lon="2.32631">
        <ele>84.7</ele>
        <time>2015-06-15T20:00:08.960Z</time>
      </trkpt>
      <trkpt lat="48.90729" lon="2.32625">
        <ele>84.5</ele>
        <time>2015-06-15T20:00:09.822Z</time>
      </trkpt>
      <trkpt lat="48.90723" lon="2.32616">
        <ele>84.8</ele>
        <time>2015-06-15T20:00:11.846Z</time>
      </trkpt>
      <trkpt lat="48.9072" lon="2.32611">
        <ele>85</ele>
        <time>2015-06-15T20:00:12.834Z</time>
      </trkpt>
      <trkpt lat="48.90717" lon="2.32606">
        <ele>85.1</ele>
        <time>2015-06-15T20:00:13.827Z</time>
      </trkpt>
      <trkpt lat="48.90713" lon="2.326">
        <ele>85.2</ele>
        <time>2015-06-15T20:00:14.897Z</time>
      </trkpt>
      <trkpt lat="48.90709" lon="2.32594">
        <ele>85.3</ele>
        <time>2015-06-15T20:00:15.833Z</time>
      </trkpt>
      <trkpt lat="48.90705" lon="2.32588">
        <ele>85.6</ele>
        <time>2015-06-15T20:00:16.836Z</time>
      </trkpt>
      <trkpt lat="48.907" lon="2.32581">
        <ele>85.7</ele>
        <time>2015-06-15T20:00:17.923Z</time>
      </trkpt>
      <trkpt lat="48.90696" lon="2.32574">
        <ele>85.8</ele>
        <time>2015-06-15T20:00:18.833Z</time>
      </trkpt>
      <trkpt lat="48.90691" lon="2.32567">
        <ele>85.7</ele>
        <time>2015-06-15T20:00:19.825Z</time>
      </trkpt>
      <trkpt lat="48.90686" lon="2.3256">
        <ele>86.1</ele>
        <time>2015-06-15T20:00:20.921Z</time>
      </trkpt>
      <trkpt lat="48.90682" lon="2.32553">
        <ele>86.5</ele>
        <time>2015-06-15T20:00:21.820Z</time>
      </trkpt>
      <trkpt lat="48.90677" lon="2.32545">
        <ele>86.8</ele>
        <time>2015-06-15T20:00:22.821Z</time>
      </trkpt>
      <trkpt lat="48.90671" lon="2.32537">
        <ele>86.9</ele>
        <time>2015-06-15T20:00:23.838Z</time>
      </trkpt>
      <trkpt lat="48.90666" lon="2.32529">
        <ele>86.9</ele>
        <time>2015-06-15T20:00:24.840Z</time>
      </trkpt>
      <trkpt lat="48.90662" lon="2.32522">
        <ele>86.6</ele>
        <time>2015-06-15T20:00:25.867Z</time>
      </trkpt>
      <trkpt lat="48.90657" lon="2.32515">
        <ele>86.6</ele>
        <time>2015-06-15T20:00:26.886Z</time>
      </trkpt>
      <trkpt lat="48.90652" lon="2.32507">
        <ele>86.9</ele>
        <time>2015-06-15T20:00:27.900Z</time>
      </trkpt>
      <trkpt lat="48.90647" lon="2.32499">
        <ele>86.8</ele>
        <time>2015-06-15T20:00:28.819Z</time>
      </trkpt>
      <trkpt lat="48.90642" lon="2.32491">
        <ele>86.8</ele>
        <time>2015-06-15T20:00:29.814Z</time>
      </trkpt>
      <trkpt lat="48.90637" lon="2.32483">
        <ele>86.7</ele>
        <time>2015-06-15T20:00:30.822Z</time>
      </trkpt>
      <trkpt lat="48.90632" lon="2.32474">
        <ele>87</ele>
        <time>2015-06-15T20:00:31.849Z</time>
      </trkpt>
      <trkpt lat="48.90627" lon="2.32466">
        <ele>87.2</ele>
        <time>2015-06-15T20:00:32.923Z</time>
      </trkpt>
      <trkpt lat="48.90623" lon="2.3246">
        <ele>87.2</ele>
        <time>2015-06-15T20:00:33.820Z</time>
      </trkpt>
      <trkpt lat="48.90619" lon="2.32453">
        <ele>87.4</ele>
        <time>2015-06-15T20:00:34.827Z</time>
      </trkpt>
      <trkpt lat="48.90614" lon="2.32447">
        <ele>87.4</ele>
        <time>2015-06-15T20:00:35.843Z</time>
      </trkpt>
      <trkpt lat="48.90611" lon="2.32441">
        <ele>87.7</ele>
        <time>2015-06-15T20:00:36.860Z</time>
      </trkpt>
      <trkpt lat="48.90607" lon="2.32436">
        <ele>87.9</ele>
        <time>2015-06-15T20:00:37.861Z</time>
      </trkpt>
      <trkpt lat="48.90604" lon="2.3243">
        <ele>87.8</ele>
        <time>2015-06-15T20:00:38.882Z</time>
      </trkpt>
      <trkpt lat="48.906" lon="2.32425">
        <ele>87.9</ele>
        <time>2015-06-15T20:00:39.827Z</time>
      </trkpt>
      <trkpt lat="48.90597" lon="2.32419">
        <ele>87.9</ele>
        <time>2015-06-15T20:00:40.842Z</time>
      </trkpt>
      <trkpt lat="48.90593" lon="2.32414">
        <ele>88</ele>
        <time>2015-06-15T20:00:41.901Z</time>
      </trkpt>
      <trkpt lat="48.9059" lon="2.32409">
        <ele>88.2</ele>
        <time>2015-06-15T20:00:42.806Z</time>
      </trkpt>
      <trkpt lat="48.90584" lon="2.324">
        <ele>89</ele>
        <time>2015-06-15T20:00:44.860Z</time>
      </trkpt>
      <trkpt lat="48.90581" lon="2.32395">
        <ele>89.3</ele>
        <time>2015-06-15T20:00:45.899Z</time>
      </trkpt>
      <trkpt lat="48.90577" lon="2.32386">
        <ele>89.9</ele>
        <time>2015-06-15T20:00:47.811Z</time>
      </trkpt>
      <trkpt lat="48.90574" lon="2.32381">
        <ele>90.3</ele>
        <time>2015-06-15T20:00:48.826Z</time>
      </trkpt>
      <trkpt lat="48.90569" lon="2.3237">
        <ele>89.9</ele>
        <time>2015-06-15T20:00:50.978Z</time>
      </trkpt>
      <trkpt lat="48.90567" lon="2.32364">
        <ele>89.3</ele>
        <time>2015-06-15T20:00:51.826Z</time>
      </trkpt>
      <trkpt lat="48.90563" lon="2.32355">
        <ele>89.3</ele>
        <time>2015-06-15T20:00:53.891Z</time>
      </trkpt>
      <trkpt lat="48.90561" lon="2.32351">
        <ele>89.8</ele>
        <time>2015-06-15T20:00:54.845Z</time>
      </trkpt>
      <trkpt lat="48.90555" lon="2.32342">
        <ele>90.8</ele>
        <time>2015-06-15T20:00:56.876Z</time>
      </trkpt>
      <trkpt lat="48.90551" lon="2.32338">
        <ele>91.3</ele>
        <time>2015-06-15T20:00:57.894Z</time>
      </trkpt>
      <trkpt lat="48.90546" lon="2.3233">
        <ele>91.8</ele>
        <time>2015-06-15T20:00:59.825Z</time>
      </trkpt>
      <trkpt lat="48.90544" lon="2.32325">
        <ele>91.8</ele>
        <time>2015-06-15T20:01:00.834Z</time>
      </trkpt>
      <trkpt lat="48.90543" lon="2.32319">
        <ele>91.8</ele>
        <time>2015-06-15T20:01:01.849Z</time>
      </trkpt>
      <trkpt lat="48.90541" lon="2.32312">
        <ele>91.6</ele>
        <time>2015-06-15T20:01:02.944Z</time>
      </trkpt>
      <trkpt lat="48.90538" lon="2.32306">
        <ele>91.5</ele>
        <time>2015-06-15T20:01:03.831Z</time>
      </trkpt>
      <trkpt lat="48.90535" lon="2.323">
        <ele>91.4</ele>
        <time>2015-06-15T20:01:04.837Z</time>
      </trkpt>
      <trkpt lat="48.90532" lon="2.32294">
        <ele>91</ele>
        <time>2015-06-15T20:01:05.858Z</time>
      </trkpt>
      <trkpt lat="48.90529" lon="2.32288">
        <ele>90.9</ele>
        <time>2015-06-15T20:01:06.875Z</time>
      </trkpt>
      <trkpt lat="48.90527" lon="2.32282">
        <ele>91</ele>
        <time>2015-06-15T20:01:07.897Z</time>
      </trkpt>
      <trkpt lat="48.90524" lon="2.32276">
        <ele>90.4</ele>
        <time>2015-06-15T20:01:08.910Z</time>
      </trkpt>
      <trkpt lat="48.90521" lon="2.32265">
        <ele>90.3</ele>
        <time>2015-06-15T20:01:10.858Z</time>
      </trkpt>
      <trkpt lat="48.90519" lon="2.32259">
        <ele>90.5</ele>
        <time>2015-06-15T20:01:11.871Z</time>
      </trkpt>
      <trkpt lat="48.90517" lon="2.32247">
        <ele>90.2</ele>
        <time>2015-06-15T20:01:13.911Z</time>
      </trkpt>
      <trkpt lat="48.90516" lon="2.32241">
        <ele>90.2</ele>
        <time>2015-06-15T20:01:14.841Z</time>
      </trkpt>
      <trkpt lat="48.90515" lon="2.32229">
        <ele>90.2</ele>
        <time>2015-06-15T20:01:16.911Z</time>
      </trkpt>
      <trkpt lat="48.90515" lon="2.32222">
        <ele>90.6</ele>
        <time>2015-06-15T20:01:17.819Z</time>
      </trkpt>
      <trkpt lat="48.90517" lon="2.32212">
        <ele>90.7</ele>
        <time>2015-06-15T20:01:19.846Z</time>
      </trkpt>
      <trkpt lat="48.90518" lon="2.32208">
        <ele>90.9</ele>
        <time>2015-06-15T20:01:20.878Z</time>
      </trkpt>
      <trkpt lat="48.90518" lon="2.32195">
        <ele>97.2</ele>
        <time>2015-06-15T20:01:23.842Z</time>
      </trkpt>
      <trkpt lat="48.90518" lon="2.32193">
        <ele>98.8</ele>
        <time>2015-06-15T20:01:24.896Z</time>
      </trkpt>
      <trkpt lat="48.9052" lon="2.32182">
        <ele>104.5</ele>
        <time>2015-06-15T20:01:28.822Z</time>
      </trkpt>
      <trkpt lat="48.90522" lon="2.3218">
        <ele>104.9</ele>
        <time>2015-06-15T20:01:29.847Z</time>
      </trkpt>
      <trkpt lat="48.90517" lon="2.32171">
        <ele>106.8</ele>
        <time>2015-06-15T20:01:35.812Z</time>
      </trkpt>
      <trkpt lat="48.90516" lon="2.32168">
        <ele>106</ele>
        <time>2015-06-15T20:01:36.832Z</time>
      </trkpt>
      <trkpt lat="48.90511" lon="2.32159">
        <ele>105.1</ele>
        <time>2015-06-15T20:01:38.852Z</time>
      </trkpt>
      <trkpt lat="48.90508" lon="2.32155">
        <ele>104.8</ele>
        <time>2015-06-15T20:01:39.870Z</time>
      </trkpt>
      <trkpt lat="48.90504" lon="2.32151">
        <ele>104.4</ele>
        <time>2015-06-15T20:01:40.882Z</time>
      </trkpt>
      <trkpt lat="48.905" lon="2.32147">
        <ele>104</ele>
        <time>2015-06-15T20:01:41.862Z</time>
      </trkpt>
      <trkpt lat="48.90493" lon="2.32138">
        <ele>103</ele>
        <time>2015-06-15T20:01:43.822Z</time>
      </trkpt>
      <trkpt lat="48.90491" lon="2.32134">
        <ele>102.4</ele>
        <time>2015-06-15T20:01:44.859Z</time>
      </trkpt>
      <trkpt lat="48.90486" lon="2.32127">
        <ele>101.6</ele>
        <time>2015-06-15T20:01:46.891Z</time>
      </trkpt>
      <trkpt lat="48.90483" lon="2.32124">
        <ele>101.5</ele>
        <time>2015-06-15T20:01:47.896Z</time>
      </trkpt>
      <trkpt lat="48.90479" lon="2.3212">
        <ele>101.5</ele>
        <time>2015-06-15T20:01:48.817Z</time>
      </trkpt>
      <trkpt lat="48.90475" lon="2.32117">
        <ele>101.3</ele>
        <time>2015-06-15T20:01:49.846Z</time>
      </trkpt>
      <trkpt lat="48.90467" lon="2.32112">
        <ele>101.3</ele>
        <time>2015-06-15T20:01:51.900Z</time>
      </trkpt>
      <trkpt lat="48.90464" lon="2.32109">
        <ele>101.8</ele>
        <time>2015-06-15T20:01:52.820Z</time>
      </trkpt>
      <trkpt lat="48.90459" lon="2.32108">
        <ele>101.2</ele>
        <time>2015-06-15T20:01:53.820Z</time>
      </trkpt>
      <trkpt lat="48.90455" lon="2.32107">
        <ele>100.5</ele>
        <time>2015-06-15T20:01:54.833Z</time>
      </trkpt>
      <trkpt lat="48.90448" lon="2.32107">
        <ele>99.3</ele>
        <time>2015-06-15T20:01:56.885Z</time>
      </trkpt>
      <trkpt lat="48.90444" lon="2.32109">
        <ele>98.8</ele>
        <time>2015-06-15T20:01:57.893Z</time>
      </trkpt>
      <trkpt lat="48.90439" lon="2.32109">
        <ele>98.6</ele>
        <time>2015-06-15T20:01:58.902Z</time>
      </trkpt>
      <trkpt lat="48.90434" lon="2.32109">
        <ele>98.9</ele>
        <time>2015-06-15T20:01:59.796Z</time>
      </trkpt>
      <trkpt lat="48.90429" lon="2.32109">
        <ele>99</ele>
        <time>2015-06-15T20:02:00.817Z</time>
      </trkpt>
      <trkpt lat="48.90424" lon="2.32107">
        <ele>98.9</ele>
        <time>2015-06-15T20:02:01.829Z</time>
      </trkpt>
      <trkpt lat="48.90419" lon="2.32106">
        <ele>99.1</ele>
        <time>2015-06-15T20:02:03.174Z</time>
      </trkpt>
      <trkpt lat="48.90415" lon="2.32104">
        <ele>99.2</ele>
        <time>2015-06-15T20:02:03.889Z</time>
      </trkpt>
      <trkpt lat="48.90406" lon="2.32102">
        <ele>99.4</ele>
        <time>2015-06-15T20:02:05.779Z</time>
      </trkpt>
      <trkpt lat="48.90401" lon="2.32102">
        <ele>99.6</ele>
        <time>2015-06-15T20:02:06.788Z</time>
      </trkpt>
      <trkpt lat="48.90396" lon="2.32101">
        <ele>99.6</ele>
        <time>2015-06-15T20:02:08.244Z</time>
      </trkpt>
      <trkpt lat="48.90391" lon="2.321">
        <ele>99.9</ele>
        <time>2015-06-15T20:02:08.831Z</time>
      </trkpt>
      <trkpt lat="48.90386" lon="2.32098">
        <ele>100.1</ele>
        <time>2015-06-15T20:02:09.860Z</time>
      </trkpt>
      <trkpt lat="48.90382" lon="2.32094">
        <ele>100.3</ele>
        <time>2015-06-15T20:02:10.867Z</time>
      </trkpt>
      <trkpt lat="48.90376" lon="2.32086">
        <ele>98.9</ele>
        <time>2015-06-15T20:02:12.883Z</time>
      </trkpt>
      <trkpt lat="48.90375" lon="2.32079">
        <ele>97.7</ele>
        <time>2015-06-15T20:02:13.834Z</time>
      </trkpt>
      <trkpt lat="48.9037" lon="2.32069">
        <ele>96.9</ele>
        <time>2015-06-15T20:02:15.805Z</time>
      </trkpt>
      <trkpt lat="48.90368" lon="2.32063">
        <ele>96.8</ele>
        <time>2015-06-15T20:02:16.949Z</time>
      </trkpt>
      <trkpt lat="48.90363" lon="2.32056">
        <ele>95.5</ele>
        <time>2015-06-15T20:02:18.802Z</time>
      </trkpt>
      <trkpt lat="48.90361" lon="2.32053">
        <ele>95.3</ele>
        <time>2015-06-15T20:02:19.831Z</time>
      </trkpt>
      <trkpt lat="48.90357" lon="2.32044">
        <ele>95</ele>
        <time>2015-06-15T20:02:21.808Z</time>
      </trkpt>
      <trkpt lat="48.90355" lon="2.3204">
        <ele>94.7</ele>
        <time>2015-06-15T20:02:22.828Z</time>
      </trkpt>
      <trkpt lat="48.90351" lon="2.32031">
        <ele>94.3</ele>
        <time>2015-06-15T20:02:24.873Z</time>
      </trkpt>
      <trkpt lat="48.90348" lon="2.32026">
        <ele>94.2</ele>
        <time>2015-06-15T20:02:25.835Z</time>
      </trkpt>
      <trkpt lat="48.90346" lon="2.3202">
        <ele>94.3</ele>
        <time>2015-06-15T20:02:26.853Z</time>
      </trkpt>
      <trkpt lat="48.90343" lon="2.32015">
        <ele>94</ele>
        <time>2015-06-15T20:02:27.836Z</time>
      </trkpt>
      <trkpt lat="48.90341" lon="2.32008">
        <ele>93.6</ele>
        <time>2015-06-15T20:02:28.907Z</time>
      </trkpt>
      <trkpt lat="48.9034" lon="2.32001">
        <ele>93.1</ele>
        <time>2015-06-15T20:02:29.806Z</time>
      </trkpt>
      <trkpt lat="48.90337" lon="2.31995">
        <ele>92.7</ele>
        <time>2015-06-15T20:02:30.809Z</time>
      </trkpt>
      <trkpt lat="48.90335" lon="2.31989">
        <ele>92.1</ele>
        <time>2015-06-15T20:02:31.831Z</time>
      </trkpt>
      <trkpt lat="48.90332" lon="2.31983">
        <ele>92.1</ele>
        <time>2015-06-15T20:02:32.874Z</time>
      </trkpt>
      <trkpt lat="48.90329" lon="2.31978">
        <ele>92.1</ele>
        <time>2015-06-15T20:02:33.884Z</time>
      </trkpt>
      <trkpt lat="48.90327" lon="2.31972">
        <ele>92.3</ele>
        <time>2015-06-15T20:02:34.807Z</time>
      </trkpt>
      <trkpt lat="48.90324" lon="2.31967">
        <ele>92.6</ele>
        <time>2015-06-15T20:02:35.812Z</time>
      </trkpt>
      <trkpt lat="48.90319" lon="2.31961">
        <ele>92.6</ele>
        <time>2015-06-15T20:02:36.816Z</time>
      </trkpt>
      <trkpt lat="48.90316" lon="2.31956">
        <ele>93</ele>
        <time>2015-06-15T20:02:37.817Z</time>
      </trkpt>
      <trkpt lat="48.9031" lon="2.31948">
        <ele>93.3</ele>
        <time>2015-06-15T20:02:39.894Z</time>
      </trkpt>
      <trkpt lat="48.90307" lon="2.31943">
        <ele>93.3</ele>
        <time>2015-06-15T20:02:40.858Z</time>
      </trkpt>
      <trkpt lat="48.90302" lon="2.31935">
        <ele>93.4</ele>
        <time>2015-06-15T20:02:42.823Z</time>
      </trkpt>
      <trkpt lat="48.903" lon="2.3193">
        <ele>93.7</ele>
        <time>2015-06-15T20:02:43.848Z</time>
      </trkpt>
      <trkpt lat="48.90294" lon="2.31922">
        <ele>93.9</ele>
        <time>2015-06-15T20:02:45.814Z</time>
      </trkpt>
      <trkpt lat="48.90291" lon="2.31915">
        <ele>93.5</ele>
        <time>2015-06-15T20:02:46.855Z</time>
      </trkpt>
      <trkpt lat="48.90285" lon="2.31906">
        <ele>93.2</ele>
        <time>2015-06-15T20:02:48.852Z</time>
      </trkpt>
      <trkpt lat="48.90281" lon="2.31901">
        <ele>93.2</ele>
        <time>2015-06-15T20:02:49.779Z</time>
      </trkpt>
      <trkpt lat="48.90277" lon="2.31895">
        <ele>93.3</ele>
        <time>2015-06-15T20:02:50.872Z</time>
      </trkpt>
      <trkpt lat="48.90273" lon="2.3189">
        <ele>93.3</ele>
        <time>2015-06-15T20:02:51.861Z</time>
      </trkpt>
      <trkpt lat="48.9027" lon="2.31884">
        <ele>92.8</ele>
        <time>2015-06-15T20:02:52.864Z</time>
      </trkpt>
      <trkpt lat="48.90266" lon="2.3188">
        <ele>92.2</ele>
        <time>2015-06-15T20:02:53.832Z</time>
      </trkpt>
      <trkpt lat="48.90262" lon="2.31873">
        <ele>90.7</ele>
        <time>2015-06-15T20:02:55.779Z</time>
      </trkpt>
      <trkpt lat="48.90259" lon="2.31869">
        <ele>90.6</ele>
        <time>2015-06-15T20:02:56.851Z</time>
      </trkpt>
      <trkpt lat="48.90254" lon="2.31862">
        <ele>90.3</ele>
        <time>2015-06-15T20:02:58.827Z</time>
      </trkpt>
      <trkpt lat="48.90252" lon="2.31858">
        <ele>90.4</ele>
        <time>2015-06-15T20:02:59.829Z</time>
      </trkpt>
      <trkpt lat="48.90248" lon="2.3185">
        <ele>90.9</ele>
        <time>2015-06-15T20:03:01.843Z</time>
      </trkpt>
      <trkpt lat="48.90246" lon="2.31846">
        <ele>91</ele>
        <time>2015-06-15T20:03:02.875Z</time>
      </trkpt>
      <trkpt lat="48.9024" lon="2.31838">
        <ele>90.9</ele>
        <time>2015-06-15T20:03:05.811Z</time>
      </trkpt>
      <trkpt lat="48.90237" lon="2.31836">
        <ele>91.1</ele>
        <time>2015-06-15T20:03:06.820Z</time>
      </trkpt>
      <trkpt lat="48.9023" lon="2.31829">
        <ele>91.5</ele>
        <time>2015-06-15T20:03:09.843Z</time>
      </trkpt>
      <trkpt lat="48.90227" lon="2.31826">
        <ele>91</ele>
        <time>2015-06-15T20:03:10.875Z</time>
      </trkpt>
      <trkpt lat="48.90221" lon="2.31823">
        <ele>91.1</ele>
        <time>2015-06-15T20:03:13.416Z</time>
      </trkpt>
      <trkpt lat="48.90218" lon="2.31822">
        <ele>90.8</ele>
        <time>2015-06-15T20:03:13.897Z</time>
      </trkpt>
      <trkpt lat="48.9021" lon="2.31824">
        <ele>90.3</ele>
        <time>2015-06-15T20:03:16.817Z</time>
      </trkpt>
      <trkpt lat="48.90209" lon="2.31824">
        <ele>90.4</ele>
        <time>2015-06-15T20:03:17.823Z</time>
      </trkpt>
      <trkpt lat="48.90202" lon="2.31821">
        <ele>91.5</ele>
        <time>2015-06-15T20:03:29.874Z</time>
      </trkpt>
      <trkpt lat="48.90199" lon="2.31823">
        <ele>93.7</ele>
        <time>2015-06-15T20:03:30.836Z</time>
      </trkpt>
      <trkpt lat="48.90194" lon="2.31831">
        <ele>94.8</ele>
        <time>2015-06-15T20:03:32.871Z</time>
      </trkpt>
      <trkpt lat="48.90191" lon="2.31835">
        <ele>95</ele>
        <time>2015-06-15T20:03:33.894Z</time>
      </trkpt>
      <trkpt lat="48.90187" lon="2.31842">
        <ele>95.8</ele>
        <time>2015-06-15T20:03:35.850Z</time>
      </trkpt>
      <trkpt lat="48.90185" lon="2.31846">
        <ele>96.5</ele>
        <time>2015-06-15T20:03:36.834Z</time>
      </trkpt>
      <trkpt lat="48.9018" lon="2.31856">
        <ele>96.9</ele>
        <time>2015-06-15T20:03:39.205Z</time>
      </trkpt>
      <trkpt lat="48.90176" lon="2.31862">
        <ele>98</ele>
        <time>2015-06-15T20:03:39.805Z</time>
      </trkpt>
      <trkpt lat="48.90174" lon="2.3187">
        <ele>98.9</ele>
        <time>2015-06-15T20:03:40.832Z</time>
      </trkpt>
      <trkpt lat="48.9017" lon="2.31878">
        <ele>99.1</ele>
        <time>2015-06-15T20:03:41.905Z</time>
      </trkpt>
      <trkpt lat="48.90167" lon="2.31885">
        <ele>99.4</ele>
        <time>2015-06-15T20:03:42.893Z</time>
      </trkpt>
      <trkpt lat="48.90163" lon="2.3189">
        <ele>99.9</ele>
        <time>2015-06-15T20:03:43.936Z</time>
      </trkpt>
      <trkpt lat="48.90159" lon="2.31899">
        <ele>102</ele>
        <time>2015-06-15T20:03:45.883Z</time>
      </trkpt>
      <trkpt lat="48.90157" lon="2.31903">
        <ele>102.6</ele>
        <time>2015-06-15T20:03:46.776Z</time>
      </trkpt>
      <trkpt lat="48.90151" lon="2.3191">
        <ele>103</ele>
        <time>2015-06-15T20:03:49.544Z</time>
      </trkpt>
      <trkpt lat="48.90149" lon="2.31914">
        <ele>103.1</ele>
        <time>2015-06-15T20:03:49.784Z</time>
      </trkpt>
      <trkpt lat="48.90144" lon="2.3192">
        <ele>103.3</ele>
        <time>2015-06-15T20:03:51.784Z</time>
      </trkpt>
      <trkpt lat="48.90142" lon="2.31923">
        <ele>103.6</ele>
        <time>2015-06-15T20:03:52.816Z</time>
      </trkpt>
      <trkpt lat="48.90136" lon="2.3193">
        <ele>104.1</ele>
        <time>2015-06-15T20:03:54.777Z</time>
      </trkpt>
      <trkpt lat="48.90133" lon="2.31933">
        <ele>104.2</ele>
        <time>2015-06-15T20:03:55.821Z</time>
      </trkpt>
      <trkpt lat="48.90127" lon="2.31942">
        <ele>104.8</ele>
        <time>2015-06-15T20:03:58.205Z</time>
      </trkpt>
      <trkpt lat="48.90124" lon="2.31945">
        <ele>106.5</ele>
        <time>2015-06-15T20:03:58.910Z</time>
      </trkpt>
      <trkpt lat="48.9012" lon="2.31955">
        <ele>104.6</ele>
        <time>2015-06-15T20:04:00.834Z</time>
      </trkpt>
      <trkpt lat="48.90116" lon="2.31962">
        <ele>104.5</ele>
        <time>2015-06-15T20:04:01.852Z</time>
      </trkpt>
      <trkpt lat="48.90111" lon="2.31969">
        <ele>103.3</ele>
        <time>2015-06-15T20:04:03.273Z</time>
      </trkpt>
      <trkpt lat="48.90108" lon="2.31975">
        <ele>103.4</ele>
        <time>2015-06-15T20:04:03.900Z</time>
      </trkpt>
      <trkpt lat="48.90102" lon="2.31985">
        <ele>103.6</ele>
        <time>2015-06-15T20:04:05.820Z</time>
      </trkpt>
      <trkpt lat="48.901" lon="2.31989">
        <ele>103.9</ele>
        <time>2015-06-15T20:04:06.823Z</time>
      </trkpt>
      <trkpt lat="48.90097" lon="2.31996">
        <ele>104.4</ele>
        <time>2015-06-15T20:04:08.901Z</time>
      </trkpt>
      <trkpt lat="48.90094" lon="2.32">
        <ele>104.6</ele>
        <time>2015-06-15T20:04:09.915Z</time>
      </trkpt>
      <trkpt lat="48.90089" lon="2.32009">
        <ele>104.9</ele>
        <time>2015-06-15T20:04:11.812Z</time>
      </trkpt>
      <trkpt lat="48.90086" lon="2.32013">
        <ele>104.8</ele>
        <time>2015-06-15T20:04:12.857Z</time>
      </trkpt>
      <trkpt lat="48.9008" lon="2.3202">
        <ele>104.8</ele>
        <time>2015-06-15T20:04:15.886Z</time>
      </trkpt>
      <trkpt lat="48.90077" lon="2.32025">
        <ele>105</ele>
        <time>2015-06-15T20:04:16.814Z</time>
      </trkpt>
      <trkpt lat="48.90072" lon="2.32035">
        <ele>105.7</ele>
        <time>2015-06-15T20:04:18.839Z</time>
      </trkpt>
      <trkpt lat="48.9007" lon="2.3204">
        <ele>106</ele>
        <time>2015-06-15T20:04:19.783Z</time>
      </trkpt>
      <trkpt lat="48.90064" lon="2.32047">
        <ele>105.9</ele>
        <time>2015-06-15T20:04:21.834Z</time>
      </trkpt>
      <trkpt lat="48.90062" lon="2.3205">
        <ele>105.8</ele>
        <time>2015-06-15T20:04:22.829Z</time>
      </trkpt>
      <trkpt lat="48.90054" lon="2.32053">
        <ele>105.2</ele>
        <time>2015-06-15T20:04:26.926Z</time>
      </trkpt>
      <trkpt lat="48.90053" lon="2.32052">
        <ele>105.3</ele>
        <time>2015-06-15T20:04:27.832Z</time>
      </trkpt>
      <trkpt lat="48.90049" lon="2.32044">
        <ele>104.9</ele>
        <time>2015-06-15T20:04:30.877Z</time>
      </trkpt>
      <trkpt lat="48.90046" lon="2.32041">
        <ele>104.8</ele>
        <time>2015-06-15T20:04:31.805Z</time>
      </trkpt>
      <trkpt lat="48.90043" lon="2.32028">
        <ele>103.5</ele>
        <time>2015-06-15T20:04:34.979Z</time>
      </trkpt>
      <trkpt lat="48.90042" lon="2.32024">
        <ele>103.1</ele>
        <time>2015-06-15T20:04:35.823Z</time>
      </trkpt>
      <trkpt lat="48.9004" lon="2.32015">
        <ele>102</ele>
        <time>2015-06-15T20:04:37.842Z</time>
      </trkpt>
      <trkpt lat="48.90038" lon="2.3201">
        <ele>101.9</ele>
        <time>2015-06-15T20:04:38.858Z</time>
      </trkpt>
      <trkpt lat="48.90036" lon="2.32001">
        <ele>101.4</ele>
        <time>2015-06-15T20:04:40.891Z</time>
      </trkpt>
      <trkpt lat="48.90034" lon="2.31997">
        <ele>101</ele>
        <time>2015-06-15T20:04:41.906Z</time>
      </trkpt>
      <trkpt lat="48.90031" lon="2.31988">
        <ele>100.9</ele>
        <time>2015-06-15T20:04:43.794Z</time>
      </trkpt>
      <trkpt lat="48.9003" lon="2.31985">
        <ele>100.7</ele>
        <time>2015-06-15T20:04:44.924Z</time>
      </trkpt>
      <trkpt lat="48.90026" lon="2.31973">
        <ele>100.8</ele>
        <time>2015-06-15T20:04:47.876Z</time>
      </trkpt>
      <trkpt lat="48.90025" lon="2.31968">
        <ele>101</ele>
        <time>2015-06-15T20:04:48.894Z</time>
      </trkpt>
      <trkpt lat="48.90022" lon="2.3196">
        <ele>101</ele>
        <time>2015-06-15T20:04:50.919Z</time>
      </trkpt>
      <trkpt lat="48.90021" lon="2.31956">
        <ele>101.1</ele>
        <time>2015-06-15T20:04:51.823Z</time>
      </trkpt>
      <trkpt lat="48.90015" lon="2.31945">
        <ele>101.2</ele>
        <time>2015-06-15T20:04:55.332Z</time>
      </trkpt>
      <trkpt lat="48.90013" lon="2.31942">
        <ele>101.5</ele>
        <time>2015-06-15T20:04:55.890Z</time>
      </trkpt>
      <trkpt lat="48.90008" lon="2.31934">
        <ele>101.4</ele>
        <time>2015-06-15T20:04:58.087Z</time>
      </trkpt>
      <trkpt lat="48.90006" lon="2.3193">
        <ele>101.5</ele>
        <time>2015-06-15T20:04:58.820Z</time>
      </trkpt>
      <trkpt lat="48.90001" lon="2.31923">
        <ele>101.5</ele>
        <time>2015-06-15T20:05:00.878Z</time>
      </trkpt>
      <trkpt lat="48.89999" lon="2.31919">
        <ele>100.7</ele>
        <time>2015-06-15T20:05:01.785Z</time>
      </trkpt>
      <trkpt lat="48.89995" lon="2.31911">
        <ele>99.9</ele>
        <time>2015-06-15T20:05:03.846Z</time>
      </trkpt>
      <trkpt lat="48.89992" lon="2.31909">
        <ele>100.1</ele>
        <time>2015-06-15T20:05:04.871Z</time>
      </trkpt>
      <trkpt lat="48.89986" lon="2.31899">
        <ele>100.3</ele>
        <time>2015-06-15T20:05:08.836Z</time>
      </trkpt>
      <trkpt lat="48.89985" lon="2.31897">
        <ele>100.2</ele>
        <time>2015-06-15T20:05:09.928Z</time>
      </trkpt>
      <trkpt lat="48.89976" lon="2.31895">
        <ele>98.6</ele>
        <time>2015-06-15T20:05:18.387Z</time>
      </trkpt>
      <trkpt lat="48.89975" lon="2.31895">
        <ele>98.7</ele>
        <time>2015-06-15T20:05:18.822Z</time>
      </trkpt>
      <trkpt lat="48.89969" lon="2.31906">
        <ele>100</ele>
        <time>2015-06-15T20:05:24.798Z</time>
      </trkpt>
      <trkpt lat="48.8997" lon="2.31908">
        <ele>100.3</ele>
        <time>2015-06-15T20:05:25.805Z</time>
      </trkpt>
      <trkpt lat="48.89969" lon="2.31918">
        <ele>101.3</ele>
        <time>2015-06-15T20:05:28.802Z</time>
      </trkpt>
      <trkpt lat="48.89967" lon="2.31924">
        <ele>101.5</ele>
        <time>2015-06-15T20:05:29.792Z</time>
      </trkpt>
      <trkpt lat="48.89966" lon="2.3193">
        <ele>101.6</ele>
        <time>2015-06-15T20:05:30.817Z</time>
      </trkpt>
      <trkpt lat="48.89963" lon="2.31939">
        <ele>101.7</ele>
        <time>2015-06-15T20:05:31.824Z</time>
      </trkpt>
      <trkpt lat="48.89959" lon="2.31948">
        <ele>101.6</ele>
        <time>2015-06-15T20:05:32.854Z</time>
      </trkpt>
      <trkpt lat="48.89955" lon="2.31957">
        <ele>101.6</ele>
        <time>2015-06-15T20:05:33.894Z</time>
      </trkpt>
      <trkpt lat="48.89952" lon="2.31969">
        <ele>102.2</ele>
        <time>2015-06-15T20:05:35.819Z</time>
      </trkpt>
      <trkpt lat="48.89951" lon="2.31975">
        <ele>102.2</ele>
        <time>2015-06-15T20:05:36.811Z</time>
      </trkpt>
      <trkpt lat="48.89947" lon="2.31986">
        <ele>102.5</ele>
        <time>2015-06-15T20:05:38.843Z</time>
      </trkpt>
      <trkpt lat="48.89945" lon="2.31991">
        <ele>102.4</ele>
        <time>2015-06-15T20:05:39.908Z</time>
      </trkpt>
      <trkpt lat="48.89941" lon="2.32">
        <ele>102.4</ele>
        <time>2015-06-15T20:05:42.290Z</time>
      </trkpt>
      <trkpt lat="48.8994" lon="2.32005">
        <ele>102.3</ele>
        <time>2015-06-15T20:05:42.792Z</time>
      </trkpt>
      <trkpt lat="48.89938" lon="2.32017">
        <ele>101.9</ele>
        <time>2015-06-15T20:05:45.852Z</time>
      </trkpt>
      <trkpt lat="48.89936" lon="2.3202">
        <ele>102</ele>
        <time>2015-06-15T20:05:46.884Z</time>
      </trkpt>
      <trkpt lat="48.89936" lon="2.3203">
        <ele>102.1</ele>
        <time>2015-06-15T20:05:49.806Z</time>
      </trkpt>
      <trkpt lat="48.89936" lon="2.32034">
        <ele>101.9</ele>
        <time>2015-06-15T20:05:50.881Z</time>
      </trkpt>
      <trkpt lat="48.89935" lon="2.32046">
        <ele>102.4</ele>
        <time>2015-06-15T20:05:54.387Z</time>
      </trkpt>
      <trkpt lat="48.89934" lon="2.3205">
        <ele>102.5</ele>
        <time>2015-06-15T20:05:54.817Z</time>
      </trkpt>
      <trkpt lat="48.89934" lon="2.32061">
        <ele>102.7</ele>
        <time>2015-06-15T20:05:58.214Z</time>
      </trkpt>
      <trkpt lat="48.89934" lon="2.32064">
        <ele>103</ele>
        <time>2015-06-15T20:05:58.801Z</time>
      </trkpt>
      <trkpt lat="48.89931" lon="2.32075">
        <ele>102.7</ele>
        <time>2015-06-15T20:06:00.854Z</time>
      </trkpt>
      <trkpt lat="48.89929" lon="2.3208">
        <ele>102.5</ele>
        <time>2015-06-15T20:06:01.851Z</time>
      </trkpt>
      <trkpt lat="48.89924" lon="2.32091">
        <ele>102.4</ele>
        <time>2015-06-15T20:06:03.868Z</time>
      </trkpt>
      <trkpt lat="48.89922" lon="2.32097">
        <ele>102.5</ele>
        <time>2015-06-15T20:06:04.882Z</time>
      </trkpt>
      <trkpt lat="48.8992" lon="2.32104">
        <ele>102.2</ele>
        <time>2015-06-15T20:06:06.625Z</time>
      </trkpt>
      <trkpt lat="48.89918" lon="2.32111">
        <ele>102</ele>
        <time>2015-06-15T20:06:06.939Z</time>
      </trkpt>
      <trkpt lat="48.89915" lon="2.32122">
        <ele>101.7</ele>
        <time>2015-06-15T20:06:08.915Z</time>
      </trkpt>
      <trkpt lat="48.89913" lon="2.32127">
        <ele>101.9</ele>
        <time>2015-06-15T20:06:09.823Z</time>
      </trkpt>
      <trkpt lat="48.8991" lon="2.32137">
        <ele>102.6</ele>
        <time>2015-06-15T20:06:11.846Z</time>
      </trkpt>
      <trkpt lat="48.89908" lon="2.32142">
        <ele>103</ele>
        <time>2015-06-15T20:06:13.005Z</time>
      </trkpt>
      <trkpt lat="48.89905" lon="2.32155">
        <ele>103.1</ele>
        <time>2015-06-15T20:06:16.811Z</time>
      </trkpt>
      <trkpt lat="48.89905" lon="2.32159">
        <ele>103.2</ele>
        <time>2015-06-15T20:06:16.881Z</time>
      </trkpt>
      <trkpt lat="48.89903" lon="2.32169">
        <ele>104.3</ele>
        <time>2015-06-15T20:06:18.837Z</time>
      </trkpt>
      <trkpt lat="48.89903" lon="2.32173">
        <ele>104.8</ele>
        <time>2015-06-15T20:06:20.150Z</time>
      </trkpt>
      <trkpt lat="48.899" lon="2.32184">
        <ele>106.3</ele>
        <time>2015-06-15T20:06:22.849Z</time>
      </trkpt>
      <trkpt lat="48.89899" lon="2.32188">
        <ele>106.6</ele>
        <time>2015-06-15T20:06:23.843Z</time>
      </trkpt>
      <trkpt lat="48.89898" lon="2.32198">
        <ele>108.2</ele>
        <time>2015-06-15T20:06:25.817Z</time>
      </trkpt>
      <trkpt lat="48.89898" lon="2.32202">
        <ele>109</ele>
        <time>2015-06-15T20:06:26.853Z</time>
      </trkpt>
      <trkpt lat="48.89898" lon="2.32214">
        <ele>110.8</ele>
        <time>2015-06-15T20:06:29.817Z</time>
      </trkpt>
      <trkpt lat="48.89897" lon="2.32217">
        <ele>110.9</ele>
        <time>2015-06-15T20:06:30.824Z</time>
      </trkpt>
      <trkpt lat="48.89893" lon="2.32228">
        <ele>110.3</ele>
        <time>2015-06-15T20:06:33.833Z</time>
      </trkpt>
      <trkpt lat="48.89892" lon="2.32232">
        <ele>110.1</ele>
        <time>2015-06-15T20:06:34.953Z</time>
      </trkpt>
      <trkpt lat="48.89888" lon="2.32243">
        <ele>110.1</ele>
        <time>2015-06-15T20:06:37.870Z</time>
      </trkpt>
      <trkpt lat="48.89888" lon="2.32246">
        <ele>110.5</ele>
        <time>2015-06-15T20:06:39.051Z</time>
      </trkpt>
      <trkpt lat="48.89886" lon="2.32257">
        <ele>110.7</ele>
        <time>2015-06-15T20:06:42.056Z</time>
      </trkpt>
      <trkpt lat="48.89885" lon="2.3226">
        <ele>110.7</ele>
        <time>2015-06-15T20:06:42.807Z</time>
      </trkpt>
      <trkpt lat="48.89882" lon="2.32271">
        <ele>110</ele>
        <time>2015-06-15T20:06:45.869Z</time>
      </trkpt>
      <trkpt lat="48.89881" lon="2.32274">
        <ele>109.9</ele>
        <time>2015-06-15T20:06:46.810Z</time>
      </trkpt>
      <trkpt lat="48.89879" lon="2.32283">
        <ele>109</ele>
        <time>2015-06-15T20:06:48.846Z</time>
      </trkpt>
      <trkpt lat="48.89877" lon="2.32288">
        <ele>108.3</ele>
        <time>2015-06-15T20:06:50.044Z</time>
      </trkpt>
      <trkpt lat="48.89873" lon="2.32297">
        <ele>108.1</ele>
        <time>2015-06-15T20:06:51.905Z</time>
      </trkpt>
      <trkpt lat="48.89869" lon="2.32301">
        <ele>108.1</ele>
        <time>2015-06-15T20:06:52.806Z</time>
      </trkpt>
      <trkpt lat="48.89863" lon="2.3231">
        <ele>107.5</ele>
        <time>2015-06-15T20:06:54.034Z</time>
      </trkpt>
      <trkpt lat="48.89859" lon="2.32313">
        <ele>107.1</ele>
        <time>2015-06-15T20:06:55.856Z</time>
      </trkpt>
      <trkpt lat="48.89853" lon="2.32318">
        <ele>106.3</ele>
        <time>2015-06-15T20:06:58.135Z</time>
      </trkpt>
      <trkpt lat="48.8985" lon="2.32321">
        <ele>105.8</ele>
        <time>2015-06-15T20:06:58.869Z</time>
      </trkpt>
      <trkpt lat="48.89846" lon="2.32323">
        <ele>104.8</ele>
        <time>2015-06-15T20:06:59.865Z</time>
      </trkpt>
      <trkpt lat="48.89841" lon="2.32325">
        <ele>104.1</ele>
        <time>2015-06-15T20:07:00.843Z</time>
      </trkpt>
      <trkpt lat="48.89834" lon="2.32325">
        <ele>103.4</ele>
        <time>2015-06-15T20:07:03.168Z</time>
      </trkpt>
      <trkpt lat="48.89829" lon="2.32326">
        <ele>103</ele>
        <time>2015-06-15T20:07:04.071Z</time>
      </trkpt>
      <trkpt lat="48.89821" lon="2.32328">
        <ele>103</ele>
        <time>2015-06-15T20:07:05.826Z</time>
      </trkpt>
      <trkpt lat="48.89818" lon="2.32329">
        <ele>103</ele>
        <time>2015-06-15T20:07:06.825Z</time>
      </trkpt>
      <trkpt lat="48.89812" lon="2.32329">
        <ele>103</ele>
        <time>2015-06-15T20:07:08.891Z</time>
      </trkpt>
      <trkpt lat="48.89808" lon="2.3233">
        <ele>103.2</ele>
        <time>2015-06-15T20:07:09.912Z</time>
      </trkpt>
      <trkpt lat="48.898" lon="2.32331">
        <ele>102.7</ele>
        <time>2015-06-15T20:07:11.867Z</time>
      </trkpt>
      <trkpt lat="48.89797" lon="2.32332">
        <ele>102.7</ele>
        <time>2015-06-15T20:07:12.850Z</time>
      </trkpt>
      <trkpt lat="48.8979" lon="2.32333">
        <ele>102.8</ele>
        <time>2015-06-15T20:07:15.819Z</time>
      </trkpt>
      <trkpt lat="48.89787" lon="2.32333">
        <ele>102.8</ele>
        <time>2015-06-15T20:07:16.833Z</time>
      </trkpt>
      <trkpt lat="48.8978" lon="2.32335">
        <ele>103.5</ele>
        <time>2015-06-15T20:07:18.867Z</time>
      </trkpt>
      <trkpt lat="48.89777" lon="2.32335">
        <ele>103.6</ele>
        <time>2015-06-15T20:07:19.868Z</time>
      </trkpt>
      <trkpt lat="48.89769" lon="2.32332">
        <ele>103.9</ele>
        <time>2015-06-15T20:07:23.837Z</time>
      </trkpt>
      <trkpt lat="48.89767" lon="2.32331">
        <ele>103.9</ele>
        <time>2015-06-15T20:07:24.799Z</time>
      </trkpt>
      <trkpt lat="48.8976" lon="2.32328">
        <ele>104.5</ele>
        <time>2015-06-15T20:07:27.827Z</time>
      </trkpt>
      <trkpt lat="48.89757" lon="2.32327">
        <ele>104.4</ele>
        <time>2015-06-15T20:07:28.839Z</time>
      </trkpt>
      <trkpt lat="48.8975" lon="2.32322">
        <ele>104.6</ele>
        <time>2015-06-15T20:07:32.908Z</time>
      </trkpt>
      <trkpt lat="48.89748" lon="2.3232">
        <ele>104.5</ele>
        <time>2015-06-15T20:07:33.834Z</time>
      </trkpt>
      <trkpt lat="48.89742" lon="2.32314">
        <ele>104.6</ele>
        <time>2015-06-15T20:07:36.833Z</time>
      </trkpt>
      <trkpt lat="48.8974" lon="2.32314">
        <ele>105</ele>
        <time>2015-06-15T20:07:37.833Z</time>
      </trkpt>
      <trkpt lat="48.89734" lon="2.3231">
        <ele>105.4</ele>
        <time>2015-06-15T20:07:39.894Z</time>
      </trkpt>
      <trkpt lat="48.89731" lon="2.32307">
        <ele>105.4</ele>
        <time>2015-06-15T20:07:40.817Z</time>
      </trkpt>
      <trkpt lat="48.89724" lon="2.32301">
        <ele>104.7</ele>
        <time>2015-06-15T20:07:43.852Z</time>
      </trkpt>
      <trkpt lat="48.89721" lon="2.32299">
        <ele>104.7</ele>
        <time>2015-06-15T20:07:44.890Z</time>
      </trkpt>
      <trkpt lat="48.89714" lon="2.32296">
        <ele>104.4</ele>
        <time>2015-06-15T20:07:46.823Z</time>
      </trkpt>
      <trkpt lat="48.8971" lon="2.32294">
        <ele>104.3</ele>
        <time>2015-06-15T20:07:47.820Z</time>
      </trkpt>
      <trkpt lat="48.89703" lon="2.3229">
        <ele>104.6</ele>
        <time>2015-06-15T20:07:49.837Z</time>
      </trkpt>
      <trkpt lat="48.89699" lon="2.32288">
        <ele>104.9</ele>
        <time>2015-06-15T20:07:50.885Z</time>
      </trkpt>
      <trkpt lat="48.89691" lon="2.32281">
        <ele>104.7</ele>
        <time>2015-06-15T20:07:53.075Z</time>
      </trkpt>
      <trkpt lat="48.89688" lon="2.32278">
        <ele>104.5</ele>
        <time>2015-06-15T20:07:53.783Z</time>
      </trkpt>
      <trkpt lat="48.89681" lon="2.3227">
        <ele>105.5</ele>
        <time>2015-06-15T20:07:55.831Z</time>
      </trkpt>
      <trkpt lat="48.89677" lon="2.32268">
        <ele>105.6</ele>
        <time>2015-06-15T20:07:56.843Z</time>
      </trkpt>
      <trkpt lat="48.89673" lon="2.32266">
        <ele>105.8</ele>
        <time>2015-06-15T20:07:57.900Z</time>
      </trkpt>
      <trkpt lat="48.89667" lon="2.32264">
        <ele>105.8</ele>
        <time>2015-06-15T20:07:58.826Z</time>
      </trkpt>
      <trkpt lat="48.89663" lon="2.32261">
        <ele>106.1</ele>
        <time>2015-06-15T20:07:59.841Z</time>
      </trkpt>
      <trkpt lat="48.89659" lon="2.32258">
        <ele>106</ele>
        <time>2015-06-15T20:08:00.766Z</time>
      </trkpt>
      <trkpt lat="48.89655" lon="2.32255">
        <ele>106.1</ele>
        <time>2015-06-15T20:08:01.813Z</time>
      </trkpt>
      <trkpt lat="48.89651" lon="2.3225">
        <ele>106.1</ele>
        <time>2015-06-15T20:08:02.885Z</time>
      </trkpt>
      <trkpt lat="48.89647" lon="2.32247">
        <ele>106.1</ele>
        <time>2015-06-15T20:08:03.899Z</time>
      </trkpt>
      <trkpt lat="48.89643" lon="2.32243">
        <ele>106.1</ele>
        <time>2015-06-15T20:08:04.785Z</time>
      </trkpt>
      <trkpt lat="48.89639" lon="2.3224">
        <ele>106.2</ele>
        <time>2015-06-15T20:08:05.829Z</time>
      </trkpt>
      <trkpt lat="48.89634" lon="2.32236">
        <ele>106.4</ele>
        <time>2015-06-15T20:08:06.833Z</time>
      </trkpt>
      <trkpt lat="48.89626" lon="2.32231">
        <ele>105.9</ele>
        <time>2015-06-15T20:08:08.873Z</time>
      </trkpt>
      <trkpt lat="48.89622" lon="2.32228">
        <ele>105.8</ele>
        <time>2015-06-15T20:08:09.802Z</time>
      </trkpt>
      <trkpt lat="48.89614" lon="2.32222">
        <ele>106</ele>
        <time>2015-06-15T20:08:11.810Z</time>
      </trkpt>
      <trkpt lat="48.8961" lon="2.32219">
        <ele>106.2</ele>
        <time>2015-06-15T20:08:12.822Z</time>
      </trkpt>
      <trkpt lat="48.89603" lon="2.32215">
        <ele>105.9</ele>
        <time>2015-06-15T20:08:14.832Z</time>
      </trkpt>
      <trkpt lat="48.896" lon="2.32213">
        <ele>106</ele>
        <time>2015-06-15T20:08:15.844Z</time>
      </trkpt>
      <trkpt lat="48.89594" lon="2.32208">
        <ele>106</ele>
        <time>2015-06-15T20:08:17.783Z</time>
      </trkpt>
      <trkpt lat="48.89592" lon="2.32205">
        <ele>106.3</ele>
        <time>2015-06-15T20:08:18.773Z</time>
      </trkpt>
      <trkpt lat="48.89585" lon="2.32198">
        <ele>106.7</ele>
        <time>2015-06-15T20:08:21.866Z</time>
      </trkpt>
      <trkpt lat="48.89583" lon="2.32197">
        <ele>106.9</ele>
        <time>2015-06-15T20:08:22.792Z</time>
      </trkpt>
      <trkpt lat="48.8958" lon="2.32196">
        <ele>108</ele>
        <time>2015-06-15T20:09:11.811Z</time>
      </trkpt>
      <trkpt lat="48.89575" lon="2.32184">
        <ele>108.1</ele>
        <time>2015-06-15T20:09:12.811Z</time>
      </trkpt>
      <trkpt lat="48.89568" lon="2.32182">
        <ele>107.9</ele>
        <time>2015-06-15T20:09:15.862Z</time>
      </trkpt>
      <trkpt lat="48.89565" lon="2.32179">
        <ele>107.3</ele>
        <time>2015-06-15T20:09:17.094Z</time>
      </trkpt>
      <trkpt lat="48.89559" lon="2.32174">
        <ele>106.9</ele>
        <time>2015-06-15T20:09:18.842Z</time>
      </trkpt>
      <trkpt lat="48.89555" lon="2.32172">
        <ele>107</ele>
        <time>2015-06-15T20:09:19.751Z</time>
      </trkpt>
      <trkpt lat="48.89548" lon="2.32167">
        <ele>106.9</ele>
        <time>2015-06-15T20:09:21.860Z</time>
      </trkpt>
      <trkpt lat="48.89544" lon="2.32164">
        <ele>106.9</ele>
        <time>2015-06-15T20:09:22.815Z</time>
      </trkpt>
      <trkpt lat="48.89535" lon="2.3216">
        <ele>106.4</ele>
        <time>2015-06-15T20:09:24.806Z</time>
      </trkpt>
      <trkpt lat="48.8953" lon="2.32156">
        <ele>106</ele>
        <time>2015-06-15T20:09:25.784Z</time>
      </trkpt>
      <trkpt lat="48.89526" lon="2.32151">
        <ele>105.8</ele>
        <time>2015-06-15T20:09:26.828Z</time>
      </trkpt>
      <trkpt lat="48.89521" lon="2.32148">
        <ele>105.7</ele>
        <time>2015-06-15T20:09:27.857Z</time>
      </trkpt>
      <trkpt lat="48.89516" lon="2.32145">
        <ele>105.6</ele>
        <time>2015-06-15T20:09:28.789Z</time>
      </trkpt>
      <trkpt lat="48.89511" lon="2.32142">
        <ele>105.5</ele>
        <time>2015-06-15T20:09:29.822Z</time>
      </trkpt>
      <trkpt lat="48.89506" lon="2.32139">
        <ele>105.9</ele>
        <time>2015-06-15T20:09:30.790Z</time>
      </trkpt>
      <trkpt lat="48.89501" lon="2.32137">
        <ele>105.5</ele>
        <time>2015-06-15T20:09:31.803Z</time>
      </trkpt>
      <trkpt lat="48.89497" lon="2.32136">
        <ele>105</ele>
        <time>2015-06-15T20:09:32.845Z</time>
      </trkpt>
      <trkpt lat="48.89491" lon="2.32132">
        <ele>104.7</ele>
        <time>2015-06-15T20:09:33.850Z</time>
      </trkpt>
      <trkpt lat="48.89485" lon="2.32128">
        <ele>104.4</ele>
        <time>2015-06-15T20:09:34.870Z</time>
      </trkpt>
      <trkpt lat="48.8948" lon="2.32124">
        <ele>104.2</ele>
        <time>2015-06-15T20:09:35.876Z</time>
      </trkpt>
      <trkpt lat="48.89475" lon="2.32121">
        <ele>104.3</ele>
        <time>2015-06-15T20:09:36.786Z</time>
      </trkpt>
      <trkpt lat="48.8947" lon="2.32117">
        <ele>104.4</ele>
        <time>2015-06-15T20:09:37.812Z</time>
      </trkpt>
      <trkpt lat="48.89465" lon="2.32112">
        <ele>104.6</ele>
        <time>2015-06-15T20:09:38.811Z</time>
      </trkpt>
      <trkpt lat="48.89459" lon="2.32106">
        <ele>104.9</ele>
        <time>2015-06-15T20:09:39.828Z</time>
      </trkpt>
      <trkpt lat="48.89454" lon="2.321">
        <ele>104.9</ele>
        <time>2015-06-15T20:09:40.839Z</time>
      </trkpt>
      <trkpt lat="48.89448" lon="2.32096">
        <ele>104.8</ele>
        <time>2015-06-15T20:09:41.847Z</time>
      </trkpt>
      <trkpt lat="48.89442" lon="2.32091">
        <ele>104.7</ele>
        <time>2015-06-15T20:09:42.794Z</time>
      </trkpt>
      <trkpt lat="48.89437" lon="2.32086">
        <ele>104.2</ele>
        <time>2015-06-15T20:09:43.817Z</time>
      </trkpt>
      <trkpt lat="48.89431" lon="2.32081">
        <ele>103.9</ele>
        <time>2015-06-15T20:09:44.830Z</time>
      </trkpt>
      <trkpt lat="48.89425" lon="2.32076">
        <ele>103</ele>
        <time>2015-06-15T20:09:45.838Z</time>
      </trkpt>
      <trkpt lat="48.89419" lon="2.32071">
        <ele>102.5</ele>
        <time>2015-06-15T20:09:46.861Z</time>
      </trkpt>
      <trkpt lat="48.89414" lon="2.32067">
        <ele>102.6</ele>
        <time>2015-06-15T20:09:47.778Z</time>
      </trkpt>
      <trkpt lat="48.89408" lon="2.32064">
        <ele>102.6</ele>
        <time>2015-06-15T20:09:48.782Z</time>
      </trkpt>
      <trkpt lat="48.89402" lon="2.3206">
        <ele>102.7</ele>
        <time>2015-06-15T20:09:49.787Z</time>
      </trkpt>
      <trkpt lat="48.89397" lon="2.32057">
        <ele>102.5</ele>
        <time>2015-06-15T20:09:50.826Z</time>
      </trkpt>
      <trkpt lat="48.89392" lon="2.32053">
        <ele>102.4</ele>
        <time>2015-06-15T20:09:51.789Z</time>
      </trkpt>
      <trkpt lat="48.89386" lon="2.32051">
        <ele>101.8</ele>
        <time>2015-06-15T20:09:52.774Z</time>
      </trkpt>
      <trkpt lat="48.89381" lon="2.32049">
        <ele>101.8</ele>
        <time>2015-06-15T20:09:53.786Z</time>
      </trkpt>
      <trkpt lat="48.89376" lon="2.32045">
        <ele>101.8</ele>
        <time>2015-06-15T20:09:54.796Z</time>
      </trkpt>
      <trkpt lat="48.89371" lon="2.3204">
        <ele>101.5</ele>
        <time>2015-06-15T20:09:55.814Z</time>
      </trkpt>
      <trkpt lat="48.89366" lon="2.32035">
        <ele>101.3</ele>
        <time>2015-06-15T20:09:56.846Z</time>
      </trkpt>
      <trkpt lat="48.8936" lon="2.32028">
        <ele>103.6</ele>
        <time>2015-06-15T20:09:57.851Z</time>
      </trkpt>
      <trkpt lat="48.89355" lon="2.32024">
        <ele>103.8</ele>
        <time>2015-06-15T20:09:58.764Z</time>
      </trkpt>
      <trkpt lat="48.8935" lon="2.3202">
        <ele>104.1</ele>
        <time>2015-06-15T20:09:59.832Z</time>
      </trkpt>
      <trkpt lat="48.89344" lon="2.32017">
        <ele>104.2</ele>
        <time>2015-06-15T20:10:00.842Z</time>
      </trkpt>
      <trkpt lat="48.89339" lon="2.32012">
        <ele>104.7</ele>
        <time>2015-06-15T20:10:01.855Z</time>
      </trkpt>
      <trkpt lat="48.89335" lon="2.32008">
        <ele>104.7</ele>
        <time>2015-06-15T20:10:02.877Z</time>
      </trkpt>
      <trkpt lat="48.8933" lon="2.32005">
        <ele>104.5</ele>
        <time>2015-06-15T20:10:03.781Z</time>
      </trkpt>
      <trkpt lat="48.89325" lon="2.32001">
        <ele>104.4</ele>
        <time>2015-06-15T20:10:04.808Z</time>
      </trkpt>
      <trkpt lat="48.89321" lon="2.31997">
        <ele>104.6</ele>
        <time>2015-06-15T20:10:05.855Z</time>
      </trkpt>
      <trkpt lat="48.89317" lon="2.31992">
        <ele>104.6</ele>
        <time>2015-06-15T20:10:06.782Z</time>
      </trkpt>
      <trkpt lat="48.89312" lon="2.31988">
        <ele>104.3</ele>
        <time>2015-06-15T20:10:07.777Z</time>
      </trkpt>
      <trkpt lat="48.89308" lon="2.31985">
        <ele>103.7</ele>
        <time>2015-06-15T20:10:08.813Z</time>
      </trkpt>
      <trkpt lat="48.89303" lon="2.31981">
        <ele>103.2</ele>
        <time>2015-06-15T20:10:09.845Z</time>
      </trkpt>
      <trkpt lat="48.89298" lon="2.31978">
        <ele>103</ele>
        <time>2015-06-15T20:10:10.779Z</time>
      </trkpt>
      <trkpt lat="48.89294" lon="2.31975">
        <ele>101.9</ele>
        <time>2015-06-15T20:10:11.777Z</time>
      </trkpt>
      <trkpt lat="48.89285" lon="2.3197">
        <ele>100.4</ele>
        <time>2015-06-15T20:10:13.831Z</time>
      </trkpt>
      <trkpt lat="48.89281" lon="2.31967">
        <ele>99.8</ele>
        <time>2015-06-15T20:10:14.907Z</time>
      </trkpt>
      <trkpt lat="48.89277" lon="2.31963">
        <ele>99.3</ele>
        <time>2015-06-15T20:10:15.785Z</time>
      </trkpt>
      <trkpt lat="48.89271" lon="2.31959">
        <ele>99.1</ele>
        <time>2015-06-15T20:10:16.885Z</time>
      </trkpt>
      <trkpt lat="48.89266" lon="2.31955">
        <ele>99.1</ele>
        <time>2015-06-15T20:10:17.899Z</time>
      </trkpt>
      <trkpt lat="48.8926" lon="2.3195">
        <ele>98.7</ele>
        <time>2015-06-15T20:10:18.826Z</time>
      </trkpt>
      <trkpt lat="48.89255" lon="2.31945">
        <ele>98.7</ele>
        <time>2015-06-15T20:10:19.905Z</time>
      </trkpt>
      <trkpt lat="48.8925" lon="2.31941">
        <ele>98.4</ele>
        <time>2015-06-15T20:10:20.828Z</time>
      </trkpt>
      <trkpt lat="48.89245" lon="2.31937">
        <ele>98.6</ele>
        <time>2015-06-15T20:10:21.837Z</time>
      </trkpt>
      <trkpt lat="48.8924" lon="2.31934">
        <ele>98.5</ele>
        <time>2015-06-15T20:10:22.845Z</time>
      </trkpt>
      <trkpt lat="48.89234" lon="2.3193">
        <ele>98.3</ele>
        <time>2015-06-15T20:10:23.848Z</time>
      </trkpt>
      <trkpt lat="48.89229" lon="2.31927">
        <ele>98.2</ele>
        <time>2015-06-15T20:10:24.781Z</time>
      </trkpt>
      <trkpt lat="48.89224" lon="2.31924">
        <ele>98.2</ele>
        <time>2015-06-15T20:10:25.812Z</time>
      </trkpt>
      <trkpt lat="48.89219" lon="2.31918">
        <ele>98.2</ele>
        <time>2015-06-15T20:10:26.876Z</time>
      </trkpt>
      <trkpt lat="48.89214" lon="2.31912">
        <ele>98.7</ele>
        <time>2015-06-15T20:10:27.781Z</time>
      </trkpt>
      <trkpt lat="48.8921" lon="2.31907">
        <ele>98.9</ele>
        <time>2015-06-15T20:10:28.794Z</time>
      </trkpt>
      <trkpt lat="48.89205" lon="2.31903">
        <ele>98.9</ele>
        <time>2015-06-15T20:10:29.809Z</time>
      </trkpt>
      <trkpt lat="48.892" lon="2.319">
        <ele>98.6</ele>
        <time>2015-06-15T20:10:30.817Z</time>
      </trkpt>
      <trkpt lat="48.89196" lon="2.31896">
        <ele>98.5</ele>
        <time>2015-06-15T20:10:31.831Z</time>
      </trkpt>
      <trkpt lat="48.89192" lon="2.31892">
        <ele>98.3</ele>
        <time>2015-06-15T20:10:32.835Z</time>
      </trkpt>
      <trkpt lat="48.89183" lon="2.31887">
        <ele>98.8</ele>
        <time>2015-06-15T20:10:34.777Z</time>
      </trkpt>
      <trkpt lat="48.89179" lon="2.31885">
        <ele>99.1</ele>
        <time>2015-06-15T20:10:35.807Z</time>
      </trkpt>
      <trkpt lat="48.89171" lon="2.3188">
        <ele>99.6</ele>
        <time>2015-06-15T20:10:37.831Z</time>
      </trkpt>
      <trkpt lat="48.89168" lon="2.31877">
        <ele>99.1</ele>
        <time>2015-06-15T20:10:38.862Z</time>
      </trkpt>
      <trkpt lat="48.89162" lon="2.31872">
        <ele>98.9</ele>
        <time>2015-06-15T20:10:40.797Z</time>
      </trkpt>
      <trkpt lat="48.8916" lon="2.3187">
        <ele>98.8</ele>
        <time>2015-06-15T20:10:41.830Z</time>
      </trkpt>
      <trkpt lat="48.89155" lon="2.31858">
        <ele>98.6</ele>
        <time>2015-06-15T20:10:44.854Z</time>
      </trkpt>
      <trkpt lat="48.89153" lon="2.31853">
        <ele>98.9</ele>
        <time>2015-06-15T20:10:45.873Z</time>
      </trkpt>
      <trkpt lat="48.89149" lon="2.31845">
        <ele>99.8</ele>
        <time>2015-06-15T20:10:47.885Z</time>
      </trkpt>
      <trkpt lat="48.89146" lon="2.31843">
        <ele>99.9</ele>
        <time>2015-06-15T20:10:48.893Z</time>
      </trkpt>
      <trkpt lat="48.89139" lon="2.31839">
        <ele>100.1</ele>
        <time>2015-06-15T20:10:50.902Z</time>
      </trkpt>
      <trkpt lat="48.89135" lon="2.31837">
        <ele>100.3</ele>
        <time>2015-06-15T20:10:51.812Z</time>
      </trkpt>
      <trkpt lat="48.89128" lon="2.31832">
        <ele>100.8</ele>
        <time>2015-06-15T20:10:53.860Z</time>
      </trkpt>
      <trkpt lat="48.89124" lon="2.3183">
        <ele>100.7</ele>
        <time>2015-06-15T20:10:54.868Z</time>
      </trkpt>
      <trkpt lat="48.89116" lon="2.31826">
        <ele>101.3</ele>
        <time>2015-06-15T20:10:56.887Z</time>
      </trkpt>
      <trkpt lat="48.89113" lon="2.31823">
        <ele>101.4</ele>
        <time>2015-06-15T20:10:57.802Z</time>
      </trkpt>
      <trkpt lat="48.89105" lon="2.31816">
        <ele>102.7</ele>
        <time>2015-06-15T20:10:59.817Z</time>
      </trkpt>
      <trkpt lat="48.89102" lon="2.31813">
        <ele>103</ele>
        <time>2015-06-15T20:11:00.825Z</time>
      </trkpt>
      <trkpt lat="48.89095" lon="2.31807">
        <ele>104</ele>
        <time>2015-06-15T20:11:02.885Z</time>
      </trkpt>
      <trkpt lat="48.89091" lon="2.31803">
        <ele>104.1</ele>
        <time>2015-06-15T20:11:03.832Z</time>
      </trkpt>
      <trkpt lat="48.89088" lon="2.31798">
        <ele>104.3</ele>
        <time>2015-06-15T20:11:04.805Z</time>
      </trkpt>
      <trkpt lat="48.89084" lon="2.31794">
        <ele>104.4</ele>
        <time>2015-06-15T20:11:05.812Z</time>
      </trkpt>
      <trkpt lat="48.8908" lon="2.3179">
        <ele>104.6</ele>
        <time>2015-06-15T20:11:06.832Z</time>
      </trkpt>
      <trkpt lat="48.89076" lon="2.31786">
        <ele>105.1</ele>
        <time>2015-06-15T20:11:07.841Z</time>
      </trkpt>
      <trkpt lat="48.89069" lon="2.31778">
        <ele>105</ele>
        <time>2015-06-15T20:11:09.898Z</time>
      </trkpt>
      <trkpt lat="48.89065" lon="2.31775">
        <ele>105.1</ele>
        <time>2015-06-15T20:11:10.824Z</time>
      </trkpt>
      <trkpt lat="48.89061" lon="2.31772">
        <ele>105.3</ele>
        <time>2015-06-15T20:11:11.842Z</time>
      </trkpt>
      <trkpt lat="48.89057" lon="2.31767">
        <ele>105.3</ele>
        <time>2015-06-15T20:11:12.841Z</time>
      </trkpt>
      <trkpt lat="48.89053" lon="2.31763">
        <ele>105.3</ele>
        <time>2015-06-15T20:11:13.848Z</time>
      </trkpt>
      <trkpt lat="48.89049" lon="2.31759">
        <ele>105.4</ele>
        <time>2015-06-15T20:11:14.866Z</time>
      </trkpt>
      <trkpt lat="48.89044" lon="2.31755">
        <ele>105.3</ele>
        <time>2015-06-15T20:11:15.804Z</time>
      </trkpt>
      <trkpt lat="48.8904" lon="2.3175">
        <ele>104.8</ele>
        <time>2015-06-15T20:11:16.759Z</time>
      </trkpt>
      <trkpt lat="48.89036" lon="2.31745">
        <ele>104</ele>
        <time>2015-06-15T20:11:18.117Z</time>
      </trkpt>
      <trkpt lat="48.89032" lon="2.31738">
        <ele>103.2</ele>
        <time>2015-06-15T20:11:18.841Z</time>
      </trkpt>
      <trkpt lat="48.89028" lon="2.31732">
        <ele>102.6</ele>
        <time>2015-06-15T20:11:20.039Z</time>
      </trkpt>
      <trkpt lat="48.89024" lon="2.31726">
        <ele>102</ele>
        <time>2015-06-15T20:11:20.915Z</time>
      </trkpt>
      <trkpt lat="48.8902" lon="2.31721">
        <ele>101.9</ele>
        <time>2015-06-15T20:11:21.811Z</time>
      </trkpt>
      <trkpt lat="48.89016" lon="2.31716">
        <ele>101.6</ele>
        <time>2015-06-15T20:11:22.843Z</time>
      </trkpt>
      <trkpt lat="48.89012" lon="2.31712">
        <ele>100.9</ele>
        <time>2015-06-15T20:11:24.056Z</time>
      </trkpt>
      <trkpt lat="48.89008" lon="2.31707">
        <ele>100.3</ele>
        <time>2015-06-15T20:11:24.938Z</time>
      </trkpt>
      <trkpt lat="48.89004" lon="2.31703">
        <ele>99.9</ele>
        <time>2015-06-15T20:11:25.802Z</time>
      </trkpt>
      <trkpt lat="48.88999" lon="2.31698">
        <ele>99.5</ele>
        <time>2015-06-15T20:11:26.820Z</time>
      </trkpt>
      <trkpt lat="48.88995" lon="2.31693">
        <ele>98.8</ele>
        <time>2015-06-15T20:11:27.825Z</time>
      </trkpt>
      <trkpt lat="48.88991" lon="2.31688">
        <ele>98.4</ele>
        <time>2015-06-15T20:11:28.878Z</time>
      </trkpt>
      <trkpt lat="48.88986" lon="2.31683">
        <ele>98</ele>
        <time>2015-06-15T20:11:29.768Z</time>
      </trkpt>
      <trkpt lat="48.88982" lon="2.31679">
        <ele>97.8</ele>
        <time>2015-06-15T20:11:30.783Z</time>
      </trkpt>
      <trkpt lat="48.88978" lon="2.31674">
        <ele>97.4</ele>
        <time>2015-06-15T20:11:31.796Z</time>
      </trkpt>
      <trkpt lat="48.88974" lon="2.31669">
        <ele>97.1</ele>
        <time>2015-06-15T20:11:32.871Z</time>
      </trkpt>
      <trkpt lat="48.88969" lon="2.31665">
        <ele>96.8</ele>
        <time>2015-06-15T20:11:33.871Z</time>
      </trkpt>
      <trkpt lat="48.88964" lon="2.31661">
        <ele>96.7</ele>
        <time>2015-06-15T20:11:34.776Z</time>
      </trkpt>
      <trkpt lat="48.8896" lon="2.31657">
        <ele>96.7</ele>
        <time>2015-06-15T20:11:35.790Z</time>
      </trkpt>
      <trkpt lat="48.88955" lon="2.31652">
        <ele>96.7</ele>
        <time>2015-06-15T20:11:36.821Z</time>
      </trkpt>
      <trkpt lat="48.88951" lon="2.31649">
        <ele>96.5</ele>
        <time>2015-06-15T20:11:37.836Z</time>
      </trkpt>
      <trkpt lat="48.88946" lon="2.31644">
        <ele>96.2</ele>
        <time>2015-06-15T20:11:38.863Z</time>
      </trkpt>
      <trkpt lat="48.88942" lon="2.3164">
        <ele>96.1</ele>
        <time>2015-06-15T20:11:39.778Z</time>
      </trkpt>
      <trkpt lat="48.88937" lon="2.31636">
        <ele>96.2</ele>
        <time>2015-06-15T20:11:40.825Z</time>
      </trkpt>
      <trkpt lat="48.88929" lon="2.3163">
        <ele>96.1</ele>
        <time>2015-06-15T20:11:42.777Z</time>
      </trkpt>
      <trkpt lat="48.88925" lon="2.31626">
        <ele>96.1</ele>
        <time>2015-06-15T20:11:43.938Z</time>
      </trkpt>
      <trkpt lat="48.88921" lon="2.31622">
        <ele>96</ele>
        <time>2015-06-15T20:11:44.905Z</time>
      </trkpt>
      <trkpt lat="48.88917" lon="2.31617">
        <ele>96.4</ele>
        <time>2015-06-15T20:11:45.786Z</time>
      </trkpt>
      <trkpt lat="48.88913" lon="2.31613">
        <ele>96.4</ele>
        <time>2015-06-15T20:11:46.787Z</time>
      </trkpt>
      <trkpt lat="48.88909" lon="2.31609">
        <ele>96.1</ele>
        <time>2015-06-15T20:11:47.815Z</time>
      </trkpt>
      <trkpt lat="48.88905" lon="2.31605">
        <ele>95.6</ele>
        <time>2015-06-15T20:11:48.822Z</time>
      </trkpt>
      <trkpt lat="48.88901" lon="2.31601">
        <ele>95.8</ele>
        <time>2015-06-15T20:11:49.827Z</time>
      </trkpt>
      <trkpt lat="48.88896" lon="2.31598">
        <ele>95.8</ele>
        <time>2015-06-15T20:11:50.843Z</time>
      </trkpt>
      <trkpt lat="48.88892" lon="2.31595">
        <ele>95.5</ele>
        <time>2015-06-15T20:11:51.849Z</time>
      </trkpt>
      <trkpt lat="48.88888" lon="2.31592">
        <ele>94.9</ele>
        <time>2015-06-15T20:11:52.870Z</time>
      </trkpt>
      <trkpt lat="48.88884" lon="2.3159">
        <ele>94.9</ele>
        <time>2015-06-15T20:11:53.790Z</time>
      </trkpt>
      <trkpt lat="48.88879" lon="2.31586">
        <ele>95.5</ele>
        <time>2015-06-15T20:11:54.807Z</time>
      </trkpt>
      <trkpt lat="48.88875" lon="2.31583">
        <ele>95.5</ele>
        <time>2015-06-15T20:11:55.820Z</time>
      </trkpt>
      <trkpt lat="48.88869" lon="2.31576">
        <ele>94.5</ele>
        <time>2015-06-15T20:11:57.844Z</time>
      </trkpt>
      <trkpt lat="48.88866" lon="2.31572">
        <ele>94.2</ele>
        <time>2015-06-15T20:11:58.857Z</time>
      </trkpt>
      <trkpt lat="48.88859" lon="2.31563">
        <ele>93.5</ele>
        <time>2015-06-15T20:12:01.039Z</time>
      </trkpt>
      <trkpt lat="48.88856" lon="2.3156">
        <ele>93.2</ele>
        <time>2015-06-15T20:12:01.836Z</time>
      </trkpt>
      <trkpt lat="48.8885" lon="2.31554">
        <ele>93</ele>
        <time>2015-06-15T20:12:03.803Z</time>
      </trkpt>
      <trkpt lat="48.88846" lon="2.31551">
        <ele>92.9</ele>
        <time>2015-06-15T20:12:04.843Z</time>
      </trkpt>
      <trkpt lat="48.88838" lon="2.31545">
        <ele>92.2</ele>
        <time>2015-06-15T20:12:06.796Z</time>
      </trkpt>
      <trkpt lat="48.88835" lon="2.31542">
        <ele>92</ele>
        <time>2015-06-15T20:12:07.848Z</time>
      </trkpt>
      <trkpt lat="48.88827" lon="2.31535">
        <ele>92.2</ele>
        <time>2015-06-15T20:12:09.797Z</time>
      </trkpt>
      <trkpt lat="48.88824" lon="2.31532">
        <ele>92.3</ele>
        <time>2015-06-15T20:12:10.827Z</time>
      </trkpt>
      <trkpt lat="48.88818" lon="2.31526">
        <ele>92.8</ele>
        <time>2015-06-15T20:12:12.834Z</time>
      </trkpt>
      <trkpt lat="48.88814" lon="2.31523">
        <ele>92.9</ele>
        <time>2015-06-15T20:12:13.849Z</time>
      </trkpt>
      <trkpt lat="48.88808" lon="2.31517">
        <ele>93.6</ele>
        <time>2015-06-15T20:12:15.773Z</time>
      </trkpt>
      <trkpt lat="48.88805" lon="2.31514">
        <ele>93.7</ele>
        <time>2015-06-15T20:12:16.775Z</time>
      </trkpt>
      <trkpt lat="48.88797" lon="2.31508">
        <ele>93.6</ele>
        <time>2015-06-15T20:12:19.852Z</time>
      </trkpt>
      <trkpt lat="48.88795" lon="2.31507">
        <ele>93.6</ele>
        <time>2015-06-15T20:12:20.886Z</time>
      </trkpt>
      <trkpt lat="48.88792" lon="2.31499">
        <ele>93.8</ele>
        <time>2015-06-15T20:12:22.770Z</time>
      </trkpt>
      <trkpt lat="48.88789" lon="2.31496">
        <ele>93.8</ele>
        <time>2015-06-15T20:12:23.801Z</time>
      </trkpt>
      <trkpt lat="48.88785" lon="2.31489">
        <ele>94</ele>
        <time>2015-06-15T20:12:25.863Z</time>
      </trkpt>
      <trkpt lat="48.88783" lon="2.31485">
        <ele>94.2</ele>
        <time>2015-06-15T20:12:26.943Z</time>
      </trkpt>
      <trkpt lat="48.88777" lon="2.31474">
        <ele>95.3</ele>
        <time>2015-06-15T20:12:29.811Z</time>
      </trkpt>
      <trkpt lat="48.88775" lon="2.31471">
        <ele>95.4</ele>
        <time>2015-06-15T20:12:30.883Z</time>
      </trkpt>
      <trkpt lat="48.88771" lon="2.31464">
        <ele>96.5</ele>
        <time>2015-06-15T20:12:32.904Z</time>
      </trkpt>
      <trkpt lat="48.88769" lon="2.31461">
        <ele>97</ele>
        <time>2015-06-15T20:12:33.803Z</time>
      </trkpt>
      <trkpt lat="48.88764" lon="2.31454">
        <ele>97.3</ele>
        <time>2015-06-15T20:12:35.811Z</time>
      </trkpt>
      <trkpt lat="48.88761" lon="2.3145">
        <ele>97.9</ele>
        <time>2015-06-15T20:12:36.825Z</time>
      </trkpt>
      <trkpt lat="48.88756" lon="2.31442">
        <ele>98.7</ele>
        <time>2015-06-15T20:12:39.123Z</time>
      </trkpt>
      <trkpt lat="48.88753" lon="2.31438">
        <ele>98.8</ele>
        <time>2015-06-15T20:12:39.803Z</time>
      </trkpt>
      <trkpt lat="48.88747" lon="2.3143">
        <ele>99.2</ele>
        <time>2015-06-15T20:12:41.877Z</time>
      </trkpt>
      <trkpt lat="48.88745" lon="2.31426">
        <ele>99</ele>
        <time>2015-06-15T20:12:42.886Z</time>
      </trkpt>
      <trkpt lat="48.88738" lon="2.3142">
        <ele>99.2</ele>
        <time>2015-06-15T20:12:45.827Z</time>
      </trkpt>
      <trkpt lat="48.88736" lon="2.3142">
        <ele>98.8</ele>
        <time>2015-06-15T20:12:46.874Z</time>
      </trkpt>
      <trkpt lat="48.88731" lon="2.31428">
        <ele>96.2</ele>
        <time>2015-06-15T20:13:35.841Z</time>
      </trkpt>
      <trkpt lat="48.88728" lon="2.31431">
        <ele>95.9</ele>
        <time>2015-06-15T20:13:36.831Z</time>
      </trkpt>
      <trkpt lat="48.88723" lon="2.31438">
        <ele>95.3</ele>
        <time>2015-06-15T20:13:38.868Z</time>
      </trkpt>
      <trkpt lat="48.88721" lon="2.31443">
        <ele>95.2</ele>
        <time>2015-06-15T20:13:39.856Z</time>
      </trkpt>
      <trkpt lat="48.88717" lon="2.31453">
        <ele>94.9</ele>
        <time>2015-06-15T20:13:41.819Z</time>
      </trkpt>
      <trkpt lat="48.88715" lon="2.31457">
        <ele>95</ele>
        <time>2015-06-15T20:13:42.908Z</time>
      </trkpt>
      <trkpt lat="48.88711" lon="2.31468">
        <ele>94.7</ele>
        <time>2015-06-15T20:13:44.882Z</time>
      </trkpt>
      <trkpt lat="48.88709" lon="2.31472">
        <ele>94.7</ele>
        <time>2015-06-15T20:13:45.793Z</time>
      </trkpt>
      <trkpt lat="48.88704" lon="2.31482">
        <ele>94.6</ele>
        <time>2015-06-15T20:13:47.829Z</time>
      </trkpt>
      <trkpt lat="48.88702" lon="2.31487">
        <ele>94.5</ele>
        <time>2015-06-15T20:13:48.860Z</time>
      </trkpt>
      <trkpt lat="48.88698" lon="2.31497">
        <ele>94.4</ele>
        <time>2015-06-15T20:13:50.907Z</time>
      </trkpt>
      <trkpt lat="48.88695" lon="2.31501">
        <ele>94.4</ele>
        <time>2015-06-15T20:13:51.796Z</time>
      </trkpt>
      <trkpt lat="48.88691" lon="2.3151">
        <ele>94.2</ele>
        <time>2015-06-15T20:13:53.879Z</time>
      </trkpt>
      <trkpt lat="48.88688" lon="2.31515">
        <ele>94</ele>
        <time>2015-06-15T20:13:54.880Z</time>
      </trkpt>
      <trkpt lat="48.88683" lon="2.31524">
        <ele>93.8</ele>
        <time>2015-06-15T20:13:56.879Z</time>
      </trkpt>
      <trkpt lat="48.8868" lon="2.31529">
        <ele>93.6</ele>
        <time>2015-06-15T20:13:57.885Z</time>
      </trkpt>
      <trkpt lat="48.88677" lon="2.31534">
        <ele>93.6</ele>
        <time>2015-06-15T20:13:58.797Z</time>
      </trkpt>
      <trkpt lat="48.88674" lon="2.3154">
        <ele>93.7</ele>
        <time>2015-06-15T20:13:59.806Z</time>
      </trkpt>
      <trkpt lat="48.88668" lon="2.3155">
        <ele>93.3</ele>
        <time>2015-06-15T20:14:01.837Z</time>
      </trkpt>
      <trkpt lat="48.88665" lon="2.31555">
        <ele>93.3</ele>
        <time>2015-06-15T20:14:02.869Z</time>
      </trkpt>
      <trkpt lat="48.88662" lon="2.31561">
        <ele>93.5</ele>
        <time>2015-06-15T20:14:03.876Z</time>
      </trkpt>
      <trkpt lat="48.88659" lon="2.31565">
        <ele>94</ele>
        <time>2015-06-15T20:14:04.817Z</time>
      </trkpt>
      <trkpt lat="48.88656" lon="2.31571">
        <ele>94.3</ele>
        <time>2015-06-15T20:14:05.830Z</time>
      </trkpt>
      <trkpt lat="48.88653" lon="2.31577">
        <ele>94.4</ele>
        <time>2015-06-15T20:14:06.866Z</time>
      </trkpt>
      <trkpt lat="48.88649" lon="2.31584">
        <ele>94.3</ele>
        <time>2015-06-15T20:14:07.820Z</time>
      </trkpt>
      <trkpt lat="48.88646" lon="2.3159">
        <ele>94.1</ele>
        <time>2015-06-15T20:14:08.816Z</time>
      </trkpt>
      <trkpt lat="48.88641" lon="2.316">
        <ele>94.2</ele>
        <time>2015-06-15T20:14:11.180Z</time>
      </trkpt>
      <trkpt lat="48.88638" lon="2.31603">
        <ele>94.7</ele>
        <time>2015-06-15T20:14:11.773Z</time>
      </trkpt>
      <trkpt lat="48.88632" lon="2.31609">
        <ele>95.1</ele>
        <time>2015-06-15T20:14:13.815Z</time>
      </trkpt>
      <trkpt lat="48.88629" lon="2.31612">
        <ele>95.2</ele>
        <time>2015-06-15T20:14:14.907Z</time>
      </trkpt>
      <trkpt lat="48.88623" lon="2.31619">
        <ele>95</ele>
        <time>2015-06-15T20:14:16.831Z</time>
      </trkpt>
      <trkpt lat="48.8862" lon="2.31623">
        <ele>95</ele>
        <time>2015-06-15T20:14:17.874Z</time>
      </trkpt>
      <trkpt lat="48.88616" lon="2.31628">
        <ele>95.4</ele>
        <time>2015-06-15T20:14:18.859Z</time>
      </trkpt>
      <trkpt lat="48.88613" lon="2.31633">
        <ele>95.7</ele>
        <time>2015-06-15T20:14:19.765Z</time>
      </trkpt>
      <trkpt lat="48.88607" lon="2.31641">
        <ele>96.3</ele>
        <time>2015-06-15T20:14:21.829Z</time>
      </trkpt>
      <trkpt lat="48.88603" lon="2.31645">
        <ele>96.5</ele>
        <time>2015-06-15T20:14:22.844Z</time>
      </trkpt>
      <trkpt lat="48.886" lon="2.31649">
        <ele>96.8</ele>
        <time>2015-06-15T20:14:24.163Z</time>
      </trkpt>
      <trkpt lat="48.88596" lon="2.31654">
        <ele>97</ele>
        <time>2015-06-15T20:14:24.831Z</time>
      </trkpt>
      <trkpt lat="48.88592" lon="2.31661">
        <ele>97.3</ele>
        <time>2015-06-15T20:14:26.323Z</time>
      </trkpt>
      <trkpt lat="48.88588" lon="2.31665">
        <ele>97.5</ele>
        <time>2015-06-15T20:14:26.876Z</time>
      </trkpt>
      <trkpt lat="48.88581" lon="2.31673">
        <ele>98.5</ele>
        <time>2015-06-15T20:14:28.917Z</time>
      </trkpt>
      <trkpt lat="48.88578" lon="2.31677">
        <ele>99</ele>
        <time>2015-06-15T20:14:29.780Z</time>
      </trkpt>
      <trkpt lat="48.88571" lon="2.31683">
        <ele>99.9</ele>
        <time>2015-06-15T20:14:31.832Z</time>
      </trkpt>
      <trkpt lat="48.88568" lon="2.31686">
        <ele>100.1</ele>
        <time>2015-06-15T20:14:33.017Z</time>
      </trkpt>
      <trkpt lat="48.88561" lon="2.31692">
        <ele>100.7</ele>
        <time>2015-06-15T20:14:34.820Z</time>
      </trkpt>
      <trkpt lat="48.88558" lon="2.31696">
        <ele>100.9</ele>
        <time>2015-06-15T20:14:35.841Z</time>
      </trkpt>
      <trkpt lat="48.88553" lon="2.31702">
        <ele>101.1</ele>
        <time>2015-06-15T20:14:37.914Z</time>
      </trkpt>
      <trkpt lat="48.8855" lon="2.31705">
        <ele>101.1</ele>
        <time>2015-06-15T20:14:38.910Z</time>
      </trkpt>
      <trkpt lat="48.88545" lon="2.31709">
        <ele>101.6</ele>
        <time>2015-06-15T20:14:40.856Z</time>
      </trkpt>
      <trkpt lat="48.88541" lon="2.31712">
        <ele>101.5</ele>
        <time>2015-06-15T20:14:41.878Z</time>
      </trkpt>
      <trkpt lat="48.88535" lon="2.31717">
        <ele>101.8</ele>
        <time>2015-06-15T20:14:43.823Z</time>
      </trkpt>
      <trkpt lat="48.88532" lon="2.3172">
        <ele>102</ele>
        <time>2015-06-15T20:14:44.917Z</time>
      </trkpt>
      <trkpt lat="48.88526" lon="2.31726">
        <ele>102.2</ele>
        <time>2015-06-15T20:14:46.817Z</time>
      </trkpt>
      <trkpt lat="48.88523" lon="2.3173">
        <ele>102.2</ele>
        <time>2015-06-15T20:14:47.828Z</time>
      </trkpt>
      <trkpt lat="48.88516" lon="2.31737">
        <ele>102.9</ele>
        <time>2015-06-15T20:14:49.848Z</time>
      </trkpt>
      <trkpt lat="48.88513" lon="2.31741">
        <ele>103.2</ele>
        <time>2015-06-15T20:14:50.873Z</time>
      </trkpt>
      <trkpt lat="48.88506" lon="2.31749">
        <ele>103.7</ele>
        <time>2015-06-15T20:14:52.808Z</time>
      </trkpt>
      <trkpt lat="48.88503" lon="2.31752">
        <ele>103.9</ele>
        <time>2015-06-15T20:14:53.826Z</time>
      </trkpt>
      <trkpt lat="48.88496" lon="2.31759">
        <ele>104.1</ele>
        <time>2015-06-15T20:14:55.822Z</time>
      </trkpt>
      <trkpt lat="48.88492" lon="2.31763">
        <ele>104.4</ele>
        <time>2015-06-15T20:14:56.900Z</time>
      </trkpt>
      <trkpt lat="48.88485" lon="2.3177">
        <ele>104.6</ele>
        <time>2015-06-15T20:14:58.871Z</time>
      </trkpt>
      <trkpt lat="48.88482" lon="2.31773">
        <ele>104.8</ele>
        <time>2015-06-15T20:14:59.888Z</time>
      </trkpt>
      <trkpt lat="48.88475" lon="2.31781">
        <ele>104.7</ele>
        <time>2015-06-15T20:15:01.841Z</time>
      </trkpt>
      <trkpt lat="48.88471" lon="2.31786">
        <ele>104.8</ele>
        <time>2015-06-15T20:15:02.884Z</time>
      </trkpt>
      <trkpt lat="48.88465" lon="2.31792">
        <ele>105.3</ele>
        <time>2015-06-15T20:15:04.901Z</time>
      </trkpt>
      <trkpt lat="48.88462" lon="2.31794">
        <ele>105.2</ele>
        <time>2015-06-15T20:15:05.802Z</time>
      </trkpt>
      <trkpt lat="48.88455" lon="2.31802">
        <ele>105.6</ele>
        <time>2015-06-15T20:15:08.455Z</time>
      </trkpt>
      <trkpt lat="48.88452" lon="2.31805">
        <ele>105.4</ele>
        <time>2015-06-15T20:15:09.029Z</time>
      </trkpt>
      <trkpt lat="48.88446" lon="2.31813">
        <ele>105.6</ele>
        <time>2015-06-15T20:15:10.827Z</time>
      </trkpt>
      <trkpt lat="48.88443" lon="2.31816">
        <ele>105.5</ele>
        <time>2015-06-15T20:15:11.834Z</time>
      </trkpt>
      <trkpt lat="48.88436" lon="2.31824">
        <ele>105.5</ele>
        <time>2015-06-15T20:15:13.807Z</time>
      </trkpt>
      <trkpt lat="48.88433" lon="2.31828">
        <ele>105.5</ele>
        <time>2015-06-15T20:15:14.902Z</time>
      </trkpt>
      <trkpt lat="48.88426" lon="2.31834">
        <ele>105.6</ele>
        <time>2015-06-15T20:15:16.820Z</time>
      </trkpt>
      <trkpt lat="48.88423" lon="2.31838">
        <ele>105.7</ele>
        <time>2015-06-15T20:15:17.825Z</time>
      </trkpt>
      <trkpt lat="48.88417" lon="2.31843">
        <ele>106.1</ele>
        <time>2015-06-15T20:15:19.780Z</time>
      </trkpt>
      <trkpt lat="48.88414" lon="2.31846">
        <ele>106.3</ele>
        <time>2015-06-15T20:15:20.836Z</time>
      </trkpt>
      <trkpt lat="48.88407" lon="2.31851">
        <ele>106.8</ele>
        <time>2015-06-15T20:15:23.550Z</time>
      </trkpt>
      <trkpt lat="48.88404" lon="2.31855">
        <ele>107.1</ele>
        <time>2015-06-15T20:15:23.782Z</time>
      </trkpt>
      <trkpt lat="48.88398" lon="2.3186">
        <ele>107.9</ele>
        <time>2015-06-15T20:15:25.831Z</time>
      </trkpt>
      <trkpt lat="48.88395" lon="2.31864">
        <ele>107.9</ele>
        <time>2015-06-15T20:15:26.881Z</time>
      </trkpt>
      <trkpt lat="48.8839" lon="2.31871">
        <ele>107.7</ele>
        <time>2015-06-15T20:15:28.774Z</time>
      </trkpt>
      <trkpt lat="48.88386" lon="2.31873">
        <ele>107.7</ele>
        <time>2015-06-15T20:15:29.817Z</time>
      </trkpt>
      <trkpt lat="48.8838" lon="2.31878">
        <ele>107.7</ele>
        <time>2015-06-15T20:15:31.861Z</time>
      </trkpt>
      <trkpt lat="48.88377" lon="2.31881">
        <ele>107.6</ele>
        <time>2015-06-15T20:15:32.900Z</time>
      </trkpt>
      <trkpt lat="48.88371" lon="2.31886">
        <ele>107.1</ele>
        <time>2015-06-15T20:15:34.842Z</time>
      </trkpt>
      <trkpt lat="48.88367" lon="2.3189">
        <ele>106.9</ele>
        <time>2015-06-15T20:15:35.877Z</time>
      </trkpt>
      <trkpt lat="48.88361" lon="2.31898">
        <ele>107</ele>
        <time>2015-06-15T20:15:37.890Z</time>
      </trkpt>
      <trkpt lat="48.88358" lon="2.31901">
        <ele>106.8</ele>
        <time>2015-06-15T20:15:38.923Z</time>
      </trkpt>
      <trkpt lat="48.88352" lon="2.31909">
        <ele>106.6</ele>
        <time>2015-06-15T20:15:40.805Z</time>
      </trkpt>
      <trkpt lat="48.88349" lon="2.31912">
        <ele>107.1</ele>
        <time>2015-06-15T20:15:41.813Z</time>
      </trkpt>
      <trkpt lat="48.88342" lon="2.31918">
        <ele>107</ele>
        <time>2015-06-15T20:15:43.960Z</time>
      </trkpt>
      <trkpt lat="48.88339" lon="2.31921">
        <ele>106.9</ele>
        <time>2015-06-15T20:15:44.866Z</time>
      </trkpt>
      <trkpt lat="48.88332" lon="2.31928">
        <ele>107.3</ele>
        <time>2015-06-15T20:15:46.781Z</time>
      </trkpt>
      <trkpt lat="48.88329" lon="2.31932">
        <ele>107.7</ele>
        <time>2015-06-15T20:15:47.768Z</time>
      </trkpt>
      <trkpt lat="48.88323" lon="2.31937">
        <ele>108.1</ele>
        <time>2015-06-15T20:15:49.826Z</time>
      </trkpt>
      <trkpt lat="48.8832" lon="2.3194">
        <ele>108.5</ele>
        <time>2015-06-15T20:15:50.837Z</time>
      </trkpt>
      <trkpt lat="48.88315" lon="2.31946">
        <ele>109.3</ele>
        <time>2015-06-15T20:15:52.862Z</time>
      </trkpt>
      <trkpt lat="48.88311" lon="2.31951">
        <ele>109.5</ele>
        <time>2015-06-15T20:15:53.883Z</time>
      </trkpt>
      <trkpt lat="48.88305" lon="2.31959">
        <ele>109.6</ele>
        <time>2015-06-15T20:15:55.810Z</time>
      </trkpt>
      <trkpt lat="48.88301" lon="2.31964">
        <ele>109.5</ele>
        <time>2015-06-15T20:15:56.826Z</time>
      </trkpt>
      <trkpt lat="48.88294" lon="2.31971">
        <ele>110.5</ele>
        <time>2015-06-15T20:15:58.848Z</time>
      </trkpt>
      <trkpt lat="48.88291" lon="2.31974">
        <ele>110.7</ele>
        <time>2015-06-15T20:15:59.859Z</time>
      </trkpt>
      <trkpt lat="48.88285" lon="2.31981">
        <ele>110.9</ele>
        <time>2015-06-15T20:16:01.886Z</time>
      </trkpt>
      <trkpt lat="48.88282" lon="2.31983">
        <ele>111</ele>
        <time>2015-06-15T20:16:02.964Z</time>
      </trkpt>
      <trkpt lat="48.88275" lon="2.31991">
        <ele>111.6</ele>
        <time>2015-06-15T20:16:04.825Z</time>
      </trkpt>
      <trkpt lat="48.88272" lon="2.31994">
        <ele>112</ele>
        <time>2015-06-15T20:16:05.863Z</time>
      </trkpt>
      <trkpt lat="48.88266" lon="2.32">
        <ele>112.3</ele>
        <time>2015-06-15T20:16:08.563Z</time>
      </trkpt>
      <trkpt lat="48.88262" lon="2.32003">
        <ele>112.6</ele>
        <time>2015-06-15T20:16:08.832Z</time>
      </trkpt>
      <trkpt lat="48.88256" lon="2.32011">
        <ele>113.1</ele>
        <time>2015-06-15T20:16:10.864Z</time>
      </trkpt>
      <trkpt lat="48.88252" lon="2.32015">
        <ele>112.9</ele>
        <time>2015-06-15T20:16:11.879Z</time>
      </trkpt>
      <trkpt lat="48.88246" lon="2.32023">
        <ele>112.9</ele>
        <time>2015-06-15T20:16:13.808Z</time>
      </trkpt>
      <trkpt lat="48.88242" lon="2.32028">
        <ele>113.1</ele>
        <time>2015-06-15T20:16:14.876Z</time>
      </trkpt>
      <trkpt lat="48.88239" lon="2.32033">
        <ele>113.5</ele>
        <time>2015-06-15T20:16:15.867Z</time>
      </trkpt>
      <trkpt lat="48.88236" lon="2.32039">
        <ele>114.3</ele>
        <time>2015-06-15T20:16:16.773Z</time>
      </trkpt>
      <trkpt lat="48.8823" lon="2.32045">
        <ele>114.6</ele>
        <time>2015-06-15T20:16:18.843Z</time>
      </trkpt>
      <trkpt lat="48.88227" lon="2.32048">
        <ele>114.3</ele>
        <time>2015-06-15T20:16:19.854Z</time>
      </trkpt>
      <trkpt lat="48.88219" lon="2.32054">
        <ele>114</ele>
        <time>2015-06-15T20:16:22.807Z</time>
      </trkpt>
      <trkpt lat="48.88217" lon="2.32055">
        <ele>113.9</ele>
        <time>2015-06-15T20:16:23.825Z</time>
      </trkpt>
      <trkpt lat="48.8821" lon="2.32061">
        <ele>114.8</ele>
        <time>2015-06-15T20:16:27.819Z</time>
      </trkpt>
      <trkpt lat="48.88208" lon="2.32063">
        <ele>115.3</ele>
        <time>2015-06-15T20:16:28.814Z</time>
      </trkpt>
      <trkpt lat="48.88204" lon="2.32066">
        <ele>117</ele>
        <time>2015-06-15T20:17:24.828Z</time>
      </trkpt>
      <trkpt lat="48.88199" lon="2.32051">
        <ele>114.8</ele>
        <time>2015-06-15T20:17:25.834Z</time>
      </trkpt>
      <trkpt lat="48.88193" lon="2.32059">
        <ele>113.6</ele>
        <time>2015-06-15T20:17:28.812Z</time>
      </trkpt>
      <trkpt lat="48.8819" lon="2.32062">
        <ele>113.3</ele>
        <time>2015-06-15T20:17:29.832Z</time>
      </trkpt>
      <trkpt lat="48.88184" lon="2.32065">
        <ele>113</ele>
        <time>2015-06-15T20:17:32.012Z</time>
      </trkpt>
      <trkpt lat="48.88181" lon="2.32067">
        <ele>113</ele>
        <time>2015-06-15T20:17:32.895Z</time>
      </trkpt>
      <trkpt lat="48.88174" lon="2.32072">
        <ele>112.9</ele>
        <time>2015-06-15T20:17:34.852Z</time>
      </trkpt>
      <trkpt lat="48.8817" lon="2.32074">
        <ele>112.9</ele>
        <time>2015-06-15T20:17:35.839Z</time>
      </trkpt>
      <trkpt lat="48.88163" lon="2.32078">
        <ele>113</ele>
        <time>2015-06-15T20:17:38.695Z</time>
      </trkpt>
      <trkpt lat="48.88159" lon="2.3208">
        <ele>112.9</ele>
        <time>2015-06-15T20:17:38.831Z</time>
      </trkpt>
      <trkpt lat="48.8815" lon="2.32084">
        <ele>113.1</ele>
        <time>2015-06-15T20:17:40.842Z</time>
      </trkpt>
      <trkpt lat="48.88146" lon="2.32087">
        <ele>113.6</ele>
        <time>2015-06-15T20:17:41.885Z</time>
      </trkpt>
      <trkpt lat="48.88142" lon="2.3209">
        <ele>113.7</ele>
        <time>2015-06-15T20:17:42.880Z</time>
      </trkpt>
      <trkpt lat="48.88137" lon="2.32094">
        <ele>113.7</ele>
        <time>2015-06-15T20:17:43.800Z</time>
      </trkpt>
      <trkpt lat="48.88132" lon="2.32096">
        <ele>113.6</ele>
        <time>2015-06-15T20:17:44.901Z</time>
      </trkpt>
      <trkpt lat="48.88128" lon="2.32099">
        <ele>113.6</ele>
        <time>2015-06-15T20:17:45.847Z</time>
      </trkpt>
      <trkpt lat="48.88123" lon="2.32101">
        <ele>113.4</ele>
        <time>2015-06-15T20:17:46.850Z</time>
      </trkpt>
      <trkpt lat="48.88118" lon="2.32105">
        <ele>113.5</ele>
        <time>2015-06-15T20:17:47.871Z</time>
      </trkpt>
      <trkpt lat="48.88113" lon="2.32109">
        <ele>113.6</ele>
        <time>2015-06-15T20:17:49Z</time>
      </trkpt>
      <trkpt lat="48.88109" lon="2.32112">
        <ele>113.5</ele>
        <time>2015-06-15T20:17:49.803Z</time>
      </trkpt>
      <trkpt lat="48.88101" lon="2.32117">
        <ele>113.6</ele>
        <time>2015-06-15T20:17:51.846Z</time>
      </trkpt>
      <trkpt lat="48.88096" lon="2.32119">
        <ele>113.6</ele>
        <time>2015-06-15T20:17:52.858Z</time>
      </trkpt>
      <trkpt lat="48.8809" lon="2.32122">
        <ele>113.5</ele>
        <time>2015-06-15T20:17:53.889Z</time>
      </trkpt>
      <trkpt lat="48.88086" lon="2.32123">
        <ele>113.4</ele>
        <time>2015-06-15T20:17:54.804Z</time>
      </trkpt>
      <trkpt lat="48.88081" lon="2.32124">
        <ele>113.5</ele>
        <time>2015-06-15T20:17:55.810Z</time>
      </trkpt>
      <trkpt lat="48.88077" lon="2.32126">
        <ele>113.8</ele>
        <time>2015-06-15T20:17:56.864Z</time>
      </trkpt>
      <trkpt lat="48.88069" lon="2.32133">
        <ele>114.6</ele>
        <time>2015-06-15T20:17:58.886Z</time>
      </trkpt>
      <trkpt lat="48.88063" lon="2.32133">
        <ele>114.6</ele>
        <time>2015-06-15T20:17:59.807Z</time>
      </trkpt>
      <trkpt lat="48.88056" lon="2.32132">
        <ele>114.5</ele>
        <time>2015-06-15T20:18:00.805Z</time>
      </trkpt>
      <trkpt lat="48.88053" lon="2.32135">
        <ele>114.8</ele>
        <time>2015-06-15T20:18:01.837Z</time>
      </trkpt>
      <trkpt lat="48.88046" lon="2.3214">
        <ele>115.2</ele>
        <time>2015-06-15T20:18:03.880Z</time>
      </trkpt>
      <trkpt lat="48.88043" lon="2.32142">
        <ele>115.4</ele>
        <time>2015-06-15T20:18:04.912Z</time>
      </trkpt>
      <trkpt lat="48.88036" lon="2.32147">
        <ele>115.8</ele>
        <time>2015-06-15T20:18:06.812Z</time>
      </trkpt>
      <trkpt lat="48.88031" lon="2.32151">
        <ele>115.7</ele>
        <time>2015-06-15T20:18:07.829Z</time>
      </trkpt>
      <trkpt lat="48.88026" lon="2.32155">
        <ele>115.8</ele>
        <time>2015-06-15T20:18:08.869Z</time>
      </trkpt>
      <trkpt lat="48.88022" lon="2.32158">
        <ele>116</ele>
        <time>2015-06-15T20:18:09.882Z</time>
      </trkpt>
      <trkpt lat="48.88017" lon="2.32162">
        <ele>116.1</ele>
        <time>2015-06-15T20:18:10.772Z</time>
      </trkpt>
      <trkpt lat="48.88012" lon="2.32165">
        <ele>116.3</ele>
        <time>2015-06-15T20:18:11.799Z</time>
      </trkpt>
      <trkpt lat="48.88007" lon="2.32168">
        <ele>116.3</ele>
        <time>2015-06-15T20:18:12.830Z</time>
      </trkpt>
      <trkpt lat="48.88002" lon="2.3217">
        <ele>116.3</ele>
        <time>2015-06-15T20:18:13.833Z</time>
      </trkpt>
      <trkpt lat="48.87998" lon="2.32173">
        <ele>116.4</ele>
        <time>2015-06-15T20:18:14.850Z</time>
      </trkpt>
      <trkpt lat="48.87993" lon="2.32175">
        <ele>116.6</ele>
        <time>2015-06-15T20:18:15.859Z</time>
      </trkpt>
      <trkpt lat="48.87987" lon="2.32177">
        <ele>116.5</ele>
        <time>2015-06-15T20:18:16.871Z</time>
      </trkpt>
      <trkpt lat="48.8798" lon="2.32178">
        <ele>116.4</ele>
        <time>2015-06-15T20:18:17.765Z</time>
      </trkpt>
      <trkpt lat="48.87975" lon="2.3218">
        <ele>116.6</ele>
        <time>2015-06-15T20:18:18.786Z</time>
      </trkpt>
      <trkpt lat="48.87969" lon="2.32181">
        <ele>116.6</ele>
        <time>2015-06-15T20:18:19.807Z</time>
      </trkpt>
      <trkpt lat="48.8796" lon="2.32184">
        <ele>116.8</ele>
        <time>2015-06-15T20:18:21.850Z</time>
      </trkpt>
      <trkpt lat="48.87956" lon="2.32185">
        <ele>116.9</ele>
        <time>2015-06-15T20:18:22.814Z</time>
      </trkpt>
      <trkpt lat="48.8795" lon="2.32192">
        <ele>116.4</ele>
        <time>2015-06-15T20:18:24.801Z</time>
      </trkpt>
      <trkpt lat="48.87946" lon="2.32196">
        <ele>116.2</ele>
        <time>2015-06-15T20:18:25.840Z</time>
      </trkpt>
      <trkpt lat="48.8794" lon="2.322">
        <ele>116.8</ele>
        <time>2015-06-15T20:18:26.886Z</time>
      </trkpt>
      <trkpt lat="48.87935" lon="2.32204">
        <ele>117.3</ele>
        <time>2015-06-15T20:18:27.792Z</time>
      </trkpt>
      <trkpt lat="48.87929" lon="2.32206">
        <ele>117.6</ele>
        <time>2015-06-15T20:18:28.795Z</time>
      </trkpt>
      <trkpt lat="48.87925" lon="2.32209">
        <ele>117.9</ele>
        <time>2015-06-15T20:18:29.808Z</time>
      </trkpt>
      <trkpt lat="48.87921" lon="2.32213">
        <ele>118.2</ele>
        <time>2015-06-15T20:18:30.822Z</time>
      </trkpt>
      <trkpt lat="48.87916" lon="2.32216">
        <ele>118.4</ele>
        <time>2015-06-15T20:18:31.849Z</time>
      </trkpt>
      <trkpt lat="48.87911" lon="2.32218">
        <ele>118.6</ele>
        <time>2015-06-15T20:18:32.897Z</time>
      </trkpt>
      <trkpt lat="48.87906" lon="2.3222">
        <ele>118.5</ele>
        <time>2015-06-15T20:18:33.801Z</time>
      </trkpt>
      <trkpt lat="48.87901" lon="2.32222">
        <ele>118.3</ele>
        <time>2015-06-15T20:18:34.801Z</time>
      </trkpt>
      <trkpt lat="48.87896" lon="2.32225">
        <ele>118.6</ele>
        <time>2015-06-15T20:18:35.806Z</time>
      </trkpt>
      <trkpt lat="48.8789" lon="2.32227">
        <ele>119</ele>
        <time>2015-06-15T20:18:36.848Z</time>
      </trkpt>
      <trkpt lat="48.87885" lon="2.32229">
        <ele>119.2</ele>
        <time>2015-06-15T20:18:37.872Z</time>
      </trkpt>
      <trkpt lat="48.8788" lon="2.32231">
        <ele>119.3</ele>
        <time>2015-06-15T20:18:38.899Z</time>
      </trkpt>
      <trkpt lat="48.87876" lon="2.32233">
        <ele>119.4</ele>
        <time>2015-06-15T20:18:39.789Z</time>
      </trkpt>
      <trkpt lat="48.87869" lon="2.32238">
        <ele>119.4</ele>
        <time>2015-06-15T20:18:41.801Z</time>
      </trkpt>
      <trkpt lat="48.87866" lon="2.32239">
        <ele>119.1</ele>
        <time>2015-06-15T20:18:42.917Z</time>
      </trkpt>
      <trkpt lat="48.87859" lon="2.32241">
        <ele>118.9</ele>
        <time>2015-06-15T20:18:44.838Z</time>
      </trkpt>
      <trkpt lat="48.87854" lon="2.32243">
        <ele>119</ele>
        <time>2015-06-15T20:18:46.026Z</time>
      </trkpt>
      <trkpt lat="48.87849" lon="2.32244">
        <ele>119.5</ele>
        <time>2015-06-15T20:18:46.880Z</time>
      </trkpt>
      <trkpt lat="48.87845" lon="2.32245">
        <ele>119.6</ele>
        <time>2015-06-15T20:18:47.769Z</time>
      </trkpt>
      <trkpt lat="48.8784" lon="2.32247">
        <ele>119.8</ele>
        <time>2015-06-15T20:18:48.795Z</time>
      </trkpt>
      <trkpt lat="48.87836" lon="2.32249">
        <ele>120</ele>
        <time>2015-06-15T20:18:49.823Z</time>
      </trkpt>
      <trkpt lat="48.87831" lon="2.3225">
        <ele>120.2</ele>
        <time>2015-06-15T20:18:50.837Z</time>
      </trkpt>
      <trkpt lat="48.87826" lon="2.32252">
        <ele>120.3</ele>
        <time>2015-06-15T20:18:51.845Z</time>
      </trkpt>
      <trkpt lat="48.87821" lon="2.32254">
        <ele>120.8</ele>
        <time>2015-06-15T20:18:52.858Z</time>
      </trkpt>
      <trkpt lat="48.87817" lon="2.32258">
        <ele>121.5</ele>
        <time>2015-06-15T20:18:53.876Z</time>
      </trkpt>
      <trkpt lat="48.8781" lon="2.32263">
        <ele>122</ele>
        <time>2015-06-15T20:18:55.800Z</time>
      </trkpt>
      <trkpt lat="48.87806" lon="2.32265">
        <ele>121.8</ele>
        <time>2015-06-15T20:18:56.813Z</time>
      </trkpt>
      <trkpt lat="48.87803" lon="2.32269">
        <ele>121.3</ele>
        <time>2015-06-15T20:18:57.824Z</time>
      </trkpt>
      <trkpt lat="48.87797" lon="2.32272">
        <ele>121.1</ele>
        <time>2015-06-15T20:18:58.957Z</time>
      </trkpt>
      <trkpt lat="48.87792" lon="2.32274">
        <ele>121.1</ele>
        <time>2015-06-15T20:18:59.801Z</time>
      </trkpt>
      <trkpt lat="48.87788" lon="2.32275">
        <ele>120.8</ele>
        <time>2015-06-15T20:19:00.819Z</time>
      </trkpt>
      <trkpt lat="48.8778" lon="2.32279">
        <ele>120.8</ele>
        <time>2015-06-15T20:19:02.845Z</time>
      </trkpt>
      <trkpt lat="48.87775" lon="2.32281">
        <ele>121.1</ele>
        <time>2015-06-15T20:19:03.885Z</time>
      </trkpt>
      <trkpt lat="48.87771" lon="2.32283">
        <ele>121.6</ele>
        <time>2015-06-15T20:19:04.803Z</time>
      </trkpt>
      <trkpt lat="48.87767" lon="2.32286">
        <ele>121.9</ele>
        <time>2015-06-15T20:19:05.798Z</time>
      </trkpt>
      <trkpt lat="48.87763" lon="2.3229">
        <ele>122.4</ele>
        <time>2015-06-15T20:19:06.838Z</time>
      </trkpt>
      <trkpt lat="48.8776" lon="2.32295">
        <ele>122.6</ele>
        <time>2015-06-15T20:19:07.862Z</time>
      </trkpt>
      <trkpt lat="48.87756" lon="2.32299">
        <ele>122.9</ele>
        <time>2015-06-15T20:19:08.890Z</time>
      </trkpt>
      <trkpt lat="48.87752" lon="2.32303">
        <ele>123</ele>
        <time>2015-06-15T20:19:09.764Z</time>
      </trkpt>
      <trkpt lat="48.87748" lon="2.32308">
        <ele>122.2</ele>
        <time>2015-06-15T20:19:10.790Z</time>
      </trkpt>
      <trkpt lat="48.87744" lon="2.32312">
        <ele>122</ele>
        <time>2015-06-15T20:19:11.799Z</time>
      </trkpt>
      <trkpt lat="48.87739" lon="2.32316">
        <ele>121.8</ele>
        <time>2015-06-15T20:19:12.759Z</time>
      </trkpt>
      <trkpt lat="48.87734" lon="2.32321">
        <ele>122.1</ele>
        <time>2015-06-15T20:19:13.792Z</time>
      </trkpt>
      <trkpt lat="48.87729" lon="2.32325">
        <ele>121.8</ele>
        <time>2015-06-15T20:19:14.924Z</time>
      </trkpt>
      <trkpt lat="48.87724" lon="2.32328">
        <ele>121.9</ele>
        <time>2015-06-15T20:19:15.795Z</time>
      </trkpt>
      <trkpt lat="48.87719" lon="2.32332">
        <ele>121.9</ele>
        <time>2015-06-15T20:19:16.848Z</time>
      </trkpt>
      <trkpt lat="48.87714" lon="2.32334">
        <ele>121.8</ele>
        <time>2015-06-15T20:19:17.880Z</time>
      </trkpt>
      <trkpt lat="48.8771" lon="2.32337">
        <ele>121.1</ele>
        <time>2015-06-15T20:19:18.800Z</time>
      </trkpt>
      <trkpt lat="48.87706" lon="2.3234">
        <ele>121.2</ele>
        <time>2015-06-15T20:19:19.798Z</time>
      </trkpt>
      <trkpt lat="48.87701" lon="2.32341">
        <ele>121.1</ele>
        <time>2015-06-15T20:19:20.879Z</time>
      </trkpt>
      <trkpt lat="48.87696" lon="2.32342">
        <ele>121.4</ele>
        <time>2015-06-15T20:19:21.885Z</time>
      </trkpt>
      <trkpt lat="48.87691" lon="2.32345">
        <ele>121.7</ele>
        <time>2015-06-15T20:19:22.797Z</time>
      </trkpt>
      <trkpt lat="48.87685" lon="2.32347">
        <ele>122</ele>
        <time>2015-06-15T20:19:23.825Z</time>
      </trkpt>
      <trkpt lat="48.8768" lon="2.3235">
        <ele>122.2</ele>
        <time>2015-06-15T20:19:24.844Z</time>
      </trkpt>
      <trkpt lat="48.87676" lon="2.32352">
        <ele>122.1</ele>
        <time>2015-06-15T20:19:25.848Z</time>
      </trkpt>
      <trkpt lat="48.8767" lon="2.32354">
        <ele>122.1</ele>
        <time>2015-06-15T20:19:26.862Z</time>
      </trkpt>
      <trkpt lat="48.87665" lon="2.32357">
        <ele>122.1</ele>
        <time>2015-06-15T20:19:27.872Z</time>
      </trkpt>
      <trkpt lat="48.8766" lon="2.32359">
        <ele>122</ele>
        <time>2015-06-15T20:19:28.792Z</time>
      </trkpt>
      <trkpt lat="48.87655" lon="2.3236">
        <ele>122.2</ele>
        <time>2015-06-15T20:19:29.801Z</time>
      </trkpt>
      <trkpt lat="48.8765" lon="2.32361">
        <ele>122.4</ele>
        <time>2015-06-15T20:19:30.902Z</time>
      </trkpt>
      <trkpt lat="48.87646" lon="2.32363">
        <ele>122.5</ele>
        <time>2015-06-15T20:19:31.801Z</time>
      </trkpt>
      <trkpt lat="48.87638" lon="2.32366">
        <ele>122.6</ele>
        <time>2015-06-15T20:19:33.857Z</time>
      </trkpt>
      <trkpt lat="48.87634" lon="2.32369">
        <ele>122.5</ele>
        <time>2015-06-15T20:19:34.833Z</time>
      </trkpt>
      <trkpt lat="48.87627" lon="2.32373">
        <ele>122.2</ele>
        <time>2015-06-15T20:19:36.832Z</time>
      </trkpt>
      <trkpt lat="48.87623" lon="2.32375">
        <ele>122.1</ele>
        <time>2015-06-15T20:19:37.913Z</time>
      </trkpt>
      <trkpt lat="48.87615" lon="2.32379">
        <ele>122.1</ele>
        <time>2015-06-15T20:19:39.801Z</time>
      </trkpt>
      <trkpt lat="48.8761" lon="2.32381">
        <ele>121.9</ele>
        <time>2015-06-15T20:19:40.926Z</time>
      </trkpt>
      <trkpt lat="48.87605" lon="2.32383">
        <ele>121.7</ele>
        <time>2015-06-15T20:19:41.916Z</time>
      </trkpt>
      <trkpt lat="48.876" lon="2.32386">
        <ele>121.2</ele>
        <time>2015-06-15T20:19:42.799Z</time>
      </trkpt>
      <trkpt lat="48.87596" lon="2.32389">
        <ele>120.9</ele>
        <time>2015-06-15T20:19:43.806Z</time>
      </trkpt>
      <trkpt lat="48.87592" lon="2.32393">
        <ele>121.1</ele>
        <time>2015-06-15T20:19:44.861Z</time>
      </trkpt>
      <trkpt lat="48.87588" lon="2.32397">
        <ele>120.7</ele>
        <time>2015-06-15T20:19:45.857Z</time>
      </trkpt>
      <trkpt lat="48.87583" lon="2.32401">
        <ele>120.5</ele>
        <time>2015-06-15T20:19:46.862Z</time>
      </trkpt>
      <trkpt lat="48.87576" lon="2.32404">
        <ele>119.8</ele>
        <time>2015-06-15T20:19:47.787Z</time>
      </trkpt>
      <trkpt lat="48.87569" lon="2.32406">
        <ele>118.9</ele>
        <time>2015-06-15T20:19:48.801Z</time>
      </trkpt>
      <trkpt lat="48.87562" lon="2.32408">
        <ele>118.2</ele>
        <time>2015-06-15T20:19:49.797Z</time>
      </trkpt>
      <trkpt lat="48.87556" lon="2.32408">
        <ele>117.2</ele>
        <time>2015-06-15T20:19:50.856Z</time>
      </trkpt>
      <trkpt lat="48.87549" lon="2.32407">
        <ele>116.4</ele>
        <time>2015-06-15T20:19:51.865Z</time>
      </trkpt>
      <trkpt lat="48.87543" lon="2.32407">
        <ele>116.1</ele>
        <time>2015-06-15T20:19:52.869Z</time>
      </trkpt>
      <trkpt lat="48.87536" lon="2.32405">
        <ele>114.6</ele>
        <time>2015-06-15T20:19:53.798Z</time>
      </trkpt>
      <trkpt lat="48.8753" lon="2.32404">
        <ele>113.7</ele>
        <time>2015-06-15T20:19:54.812Z</time>
      </trkpt>
      <trkpt lat="48.87525" lon="2.32404">
        <ele>113.1</ele>
        <time>2015-06-15T20:19:55.809Z</time>
      </trkpt>
      <trkpt lat="48.87519" lon="2.32404">
        <ele>112.7</ele>
        <time>2015-06-15T20:19:56.862Z</time>
      </trkpt>
      <trkpt lat="48.87514" lon="2.32403">
        <ele>112.7</ele>
        <time>2015-06-15T20:19:57.868Z</time>
      </trkpt>
      <trkpt lat="48.8751" lon="2.32401">
        <ele>112.1</ele>
        <time>2015-06-15T20:19:58.884Z</time>
      </trkpt>
      <trkpt lat="48.87502" lon="2.32397">
        <ele>111.4</ele>
        <time>2015-06-15T20:20:00.809Z</time>
      </trkpt>
      <trkpt lat="48.87497" lon="2.32396">
        <ele>111</ele>
        <time>2015-06-15T20:20:01.851Z</time>
      </trkpt>
      <trkpt lat="48.87492" lon="2.32397">
        <ele>111</ele>
        <time>2015-06-15T20:20:02.879Z</time>
      </trkpt>
      <trkpt lat="48.87487" lon="2.32397">
        <ele>110.6</ele>
        <time>2015-06-15T20:20:03.790Z</time>
      </trkpt>
      <trkpt lat="48.87482" lon="2.32397">
        <ele>110.3</ele>
        <time>2015-06-15T20:20:04.792Z</time>
      </trkpt>
      <trkpt lat="48.87477" lon="2.32395">
        <ele>110.3</ele>
        <time>2015-06-15T20:20:05.804Z</time>
      </trkpt>
      <trkpt lat="48.87471" lon="2.32393">
        <ele>110</ele>
        <time>2015-06-15T20:20:06.811Z</time>
      </trkpt>
      <trkpt lat="48.87467" lon="2.32392">
        <ele>109.9</ele>
        <time>2015-06-15T20:20:07.824Z</time>
      </trkpt>
      <trkpt lat="48.87463" lon="2.32392">
        <ele>110</ele>
        <time>2015-06-15T20:20:08.856Z</time>
      </trkpt>
      <trkpt lat="48.87457" lon="2.3239">
        <ele>109.8</ele>
        <time>2015-06-15T20:20:09.867Z</time>
      </trkpt>
      <trkpt lat="48.87452" lon="2.3239">
        <ele>109.9</ele>
        <time>2015-06-15T20:20:10.780Z</time>
      </trkpt>
      <trkpt lat="48.87446" lon="2.32391">
        <ele>109.9</ele>
        <time>2015-06-15T20:20:11.784Z</time>
      </trkpt>
      <trkpt lat="48.87438" lon="2.32393">
        <ele>109.9</ele>
        <time>2015-06-15T20:20:12.777Z</time>
      </trkpt>
      <trkpt lat="48.87431" lon="2.32393">
        <ele>109.9</ele>
        <time>2015-06-15T20:20:13.786Z</time>
      </trkpt>
      <trkpt lat="48.87424" lon="2.32394">
        <ele>109.6</ele>
        <time>2015-06-15T20:20:14.830Z</time>
      </trkpt>
      <trkpt lat="48.87418" lon="2.32394">
        <ele>109.5</ele>
        <time>2015-06-15T20:20:15.833Z</time>
      </trkpt>
      <trkpt lat="48.87412" lon="2.32392">
        <ele>109</ele>
        <time>2015-06-15T20:20:16.860Z</time>
      </trkpt>
      <trkpt lat="48.87407" lon="2.32391">
        <ele>108.4</ele>
        <time>2015-06-15T20:20:17.787Z</time>
      </trkpt>
      <trkpt lat="48.87401" lon="2.32385">
        <ele>107.8</ele>
        <time>2015-06-15T20:20:19.795Z</time>
      </trkpt>
      <trkpt lat="48.87395" lon="2.32382">
        <ele>107.8</ele>
        <time>2015-06-15T20:20:20.929Z</time>
      </trkpt>
      <trkpt lat="48.8739" lon="2.32379">
        <ele>107.6</ele>
        <time>2015-06-15T20:20:21.787Z</time>
      </trkpt>
      <trkpt lat="48.87385" lon="2.32378">
        <ele>107.8</ele>
        <time>2015-06-15T20:20:22.799Z</time>
      </trkpt>
      <trkpt lat="48.8738" lon="2.32376">
        <ele>107.5</ele>
        <time>2015-06-15T20:20:23.832Z</time>
      </trkpt>
      <trkpt lat="48.87374" lon="2.32375">
        <ele>107.1</ele>
        <time>2015-06-15T20:20:24.831Z</time>
      </trkpt>
      <trkpt lat="48.8737" lon="2.32372">
        <ele>106.9</ele>
        <time>2015-06-15T20:20:25.779Z</time>
      </trkpt>
      <trkpt lat="48.87364" lon="2.3237">
        <ele>106.8</ele>
        <time>2015-06-15T20:20:26.819Z</time>
      </trkpt>
      <trkpt lat="48.87359" lon="2.32368">
        <ele>107</ele>
        <time>2015-06-15T20:20:27.823Z</time>
      </trkpt>
      <trkpt lat="48.87354" lon="2.32368">
        <ele>107.4</ele>
        <time>2015-06-15T20:20:28.822Z</time>
      </trkpt>
      <trkpt lat="48.87346" lon="2.32365">
        <ele>107.8</ele>
        <time>2015-06-15T20:20:30.787Z</time>
      </trkpt>
      <trkpt lat="48.87341" lon="2.32366">
        <ele>107.6</ele>
        <time>2015-06-15T20:20:31.861Z</time>
      </trkpt>
      <trkpt lat="48.87335" lon="2.32372">
        <ele>105.7</ele>
        <time>2015-06-15T20:20:33.867Z</time>
      </trkpt>
      <trkpt lat="48.87333" lon="2.32378">
        <ele>103.4</ele>
        <time>2015-06-15T20:20:34.897Z</time>
      </trkpt>
      <trkpt lat="48.87332" lon="2.32388">
        <ele>100.3</ele>
        <time>2015-06-15T20:20:36.796Z</time>
      </trkpt>
      <trkpt lat="48.87331" lon="2.32393">
        <ele>99.3</ele>
        <time>2015-06-15T20:20:37.838Z</time>
      </trkpt>
      <trkpt lat="48.87331" lon="2.32406">
        <ele>97.7</ele>
        <time>2015-06-15T20:20:40.809Z</time>
      </trkpt>
      <trkpt lat="48.87332" lon="2.32411">
        <ele>97.6</ele>
        <time>2015-06-15T20:20:41.808Z</time>
      </trkpt>
      <trkpt lat="48.87334" lon="2.32421">
        <ele>97.1</ele>
        <time>2015-06-15T20:20:43.800Z</time>
      </trkpt>
      <trkpt lat="48.87336" lon="2.32425">
        <ele>96.7</ele>
        <time>2015-06-15T20:20:44.884Z</time>
      </trkpt>
      <trkpt lat="48.87337" lon="2.32435">
        <ele>96.4</ele>
        <time>2015-06-15T20:20:46.774Z</time>
      </trkpt>
      <trkpt lat="48.87337" lon="2.3244">
        <ele>96.5</ele>
        <time>2015-06-15T20:20:47.842Z</time>
      </trkpt>
      <trkpt lat="48.87338" lon="2.32449">
        <ele>96</ele>
        <time>2015-06-15T20:20:49.776Z</time>
      </trkpt>
      <trkpt lat="48.87338" lon="2.32455">
        <ele>96</ele>
        <time>2015-06-15T20:20:50.835Z</time>
      </trkpt>
      <trkpt lat="48.87337" lon="2.32467">
        <ele>95.3</ele>
        <time>2015-06-15T20:20:52.766Z</time>
      </trkpt>
      <trkpt lat="48.87336" lon="2.32472">
        <ele>94.7</ele>
        <time>2015-06-15T20:20:53.810Z</time>
      </trkpt>
      <trkpt lat="48.87336" lon="2.32483">
        <ele>94.6</ele>
        <time>2015-06-15T20:20:55.861Z</time>
      </trkpt>
      <trkpt lat="48.87334" lon="2.32489">
        <ele>94.8</ele>
        <time>2015-06-15T20:20:56.901Z</time>
      </trkpt>
      <trkpt lat="48.87335" lon="2.325">
        <ele>93.9</ele>
        <time>2015-06-15T20:20:58.843Z</time>
      </trkpt>
      <trkpt lat="48.87333" lon="2.32505">
        <ele>93.5</ele>
        <time>2015-06-15T20:20:59.771Z</time>
      </trkpt>
      <trkpt lat="48.87329" lon="2.32516">
        <ele>93.6</ele>
        <time>2015-06-15T20:21:01.784Z</time>
      </trkpt>
      <trkpt lat="48.8733" lon="2.32522">
        <ele>93.8</ele>
        <time>2015-06-15T20:21:02.805Z</time>
      </trkpt>
      <trkpt lat="48.87331" lon="2.32532">
        <ele>94</ele>
        <time>2015-06-15T20:21:04.773Z</time>
      </trkpt>
      <trkpt lat="48.87331" lon="2.32537">
        <ele>93.9</ele>
        <time>2015-06-15T20:21:05.810Z</time>
      </trkpt>
      <trkpt lat="48.87329" lon="2.3255">
        <ele>93.2</ele>
        <time>2015-06-15T20:21:08.850Z</time>
      </trkpt>
      <trkpt lat="48.87328" lon="2.32555">
        <ele>93</ele>
        <time>2015-06-15T20:21:09.785Z</time>
      </trkpt>
      <trkpt lat="48.87327" lon="2.32566">
        <ele>92.7</ele>
        <time>2015-06-15T20:21:11.794Z</time>
      </trkpt>
      <trkpt lat="48.87327" lon="2.32571">
        <ele>92.2</ele>
        <time>2015-06-15T20:21:12.812Z</time>
      </trkpt>
      <trkpt lat="48.87326" lon="2.32583">
        <ele>92.3</ele>
        <time>2015-06-15T20:21:14.832Z</time>
      </trkpt>
      <trkpt lat="48.87325" lon="2.32589">
        <ele>92.2</ele>
        <time>2015-06-15T20:21:15.855Z</time>
      </trkpt>
      <trkpt lat="48.87325" lon="2.326">
        <ele>91.5</ele>
        <time>2015-06-15T20:21:17.782Z</time>
      </trkpt>
      <trkpt lat="48.87325" lon="2.32606">
        <ele>91.3</ele>
        <time>2015-06-15T20:21:18.792Z</time>
      </trkpt>
      <trkpt lat="48.87324" lon="2.32619">
        <ele>90.1</ele>
        <time>2015-06-15T20:21:20.835Z</time>
      </trkpt>
      <trkpt lat="48.87323" lon="2.32624">
        <ele>89.7</ele>
        <time>2015-06-15T20:21:21.777Z</time>
      </trkpt>
      <trkpt lat="48.87319" lon="2.32636">
        <ele>88.9</ele>
        <time>2015-06-15T20:21:24.816Z</time>
      </trkpt>
      <trkpt lat="48.87318" lon="2.32639">
        <ele>89</ele>
        <time>2015-06-15T20:21:25.863Z</time>
      </trkpt>
      <trkpt lat="48.87318" lon="2.32651">
        <ele>89.1</ele>
        <time>2015-06-15T20:21:28.765Z</time>
      </trkpt>
      <trkpt lat="48.87317" lon="2.32654">
        <ele>89.4</ele>
        <time>2015-06-15T20:21:29.797Z</time>
      </trkpt>
      <trkpt lat="48.87314" lon="2.32666">
        <ele>90.1</ele>
        <time>2015-06-15T20:21:54.757Z</time>
      </trkpt>
      <trkpt lat="48.87314" lon="2.3267">
        <ele>90.2</ele>
        <time>2015-06-15T20:21:55.756Z</time>
      </trkpt>
      <trkpt lat="48.87315" lon="2.32682">
        <ele>90.8</ele>
        <time>2015-06-15T20:21:58.818Z</time>
      </trkpt>
      <trkpt lat="48.87315" lon="2.32686">
        <ele>90.8</ele>
        <time>2015-06-15T20:21:59.825Z</time>
      </trkpt>
      <trkpt lat="48.87316" lon="2.32699">
        <ele>90.7</ele>
        <time>2015-06-15T20:22:02.927Z</time>
      </trkpt>
      <trkpt lat="48.87316" lon="2.32704">
        <ele>90.3</ele>
        <time>2015-06-15T20:22:03.790Z</time>
      </trkpt>
      <trkpt lat="48.87314" lon="2.32714">
        <ele>90.1</ele>
        <time>2015-06-15T20:22:05.792Z</time>
      </trkpt>
      <trkpt lat="48.87312" lon="2.32718">
        <ele>90.2</ele>
        <time>2015-06-15T20:22:06.797Z</time>
      </trkpt>
      <trkpt lat="48.87308" lon="2.32728">
        <ele>90.6</ele>
        <time>2015-06-15T20:22:08.860Z</time>
      </trkpt>
      <trkpt lat="48.87306" lon="2.32732">
        <ele>90.8</ele>
        <time>2015-06-15T20:22:09.743Z</time>
      </trkpt>
      <trkpt lat="48.87303" lon="2.32744">
        <ele>91</ele>
        <time>2015-06-15T20:22:13.448Z</time>
      </trkpt>
      <trkpt lat="48.87302" lon="2.3275">
        <ele>91.2</ele>
        <time>2015-06-15T20:22:13.871Z</time>
      </trkpt>
      <trkpt lat="48.87303" lon="2.32756">
        <ele>91.3</ele>
        <time>2015-06-15T20:22:14.887Z</time>
      </trkpt>
      <trkpt lat="48.87306" lon="2.32763">
        <ele>91.9</ele>
        <time>2015-06-15T20:22:15.797Z</time>
      </trkpt>
      <trkpt lat="48.87308" lon="2.32771">
        <ele>92</ele>
        <time>2015-06-15T20:22:16.796Z</time>
      </trkpt>
      <trkpt lat="48.87308" lon="2.32778">
        <ele>92</ele>
        <time>2015-06-15T20:22:17.801Z</time>
      </trkpt>
      <trkpt lat="48.87309" lon="2.32787">
        <ele>90.9</ele>
        <time>2015-06-15T20:22:18.816Z</time>
      </trkpt>
      <trkpt lat="48.87309" lon="2.32794">
        <ele>90.6</ele>
        <time>2015-06-15T20:22:19.814Z</time>
      </trkpt>
      <trkpt lat="48.87308" lon="2.32801">
        <ele>89.6</ele>
        <time>2015-06-15T20:22:20.911Z</time>
      </trkpt>
      <trkpt lat="48.87309" lon="2.32808">
        <ele>89.5</ele>
        <time>2015-06-15T20:22:21.836Z</time>
      </trkpt>
      <trkpt lat="48.87312" lon="2.32814">
        <ele>89.4</ele>
        <time>2015-06-15T20:22:23.542Z</time>
      </trkpt>
      <trkpt lat="48.87315" lon="2.3282">
        <ele>89.5</ele>
        <time>2015-06-15T20:22:23.749Z</time>
      </trkpt>
      <trkpt lat="48.87315" lon="2.32831">
        <ele>89.5</ele>
        <time>2015-06-15T20:22:25.801Z</time>
      </trkpt>
      <trkpt lat="48.87314" lon="2.32837">
        <ele>89</ele>
        <time>2015-06-15T20:22:26.847Z</time>
      </trkpt>
      <trkpt lat="48.87308" lon="2.32847">
        <ele>90.5</ele>
        <time>2015-06-15T20:22:28.769Z</time>
      </trkpt>
      <trkpt lat="48.87306" lon="2.32853">
        <ele>92</ele>
        <time>2015-06-15T20:22:29.795Z</time>
      </trkpt>
      <trkpt lat="48.87301" lon="2.32864">
        <ele>92.6</ele>
        <time>2015-06-15T20:22:31.765Z</time>
      </trkpt>
      <trkpt lat="48.87297" lon="2.32868">
        <ele>92.8</ele>
        <time>2015-06-15T20:22:32.904Z</time>
      </trkpt>
      <trkpt lat="48.8729" lon="2.32874">
        <ele>93.2</ele>
        <time>2015-06-15T20:22:34.833Z</time>
      </trkpt>
      <trkpt lat="48.87286" lon="2.32876">
        <ele>93.4</ele>
        <time>2015-06-15T20:22:35.837Z</time>
      </trkpt>
      <trkpt lat="48.87279" lon="2.32882">
        <ele>94</ele>
        <time>2015-06-15T20:22:37.792Z</time>
      </trkpt>
      <trkpt lat="48.87275" lon="2.32886">
        <ele>94.3</ele>
        <time>2015-06-15T20:22:38.844Z</time>
      </trkpt>
      <trkpt lat="48.87271" lon="2.32889">
        <ele>94.5</ele>
        <time>2015-06-15T20:22:39.856Z</time>
      </trkpt>
      <trkpt lat="48.87268" lon="2.32894">
        <ele>94.8</ele>
        <time>2015-06-15T20:22:40.798Z</time>
      </trkpt>
      <trkpt lat="48.87265" lon="2.32901">
        <ele>95.3</ele>
        <time>2015-06-15T20:22:41.859Z</time>
      </trkpt>
      <trkpt lat="48.87263" lon="2.32909">
        <ele>95.5</ele>
        <time>2015-06-15T20:22:42.869Z</time>
      </trkpt>
      <trkpt lat="48.87261" lon="2.32916">
        <ele>95.9</ele>
        <time>2015-06-15T20:22:43.775Z</time>
      </trkpt>
      <trkpt lat="48.87258" lon="2.32924">
        <ele>96.1</ele>
        <time>2015-06-15T20:22:44.809Z</time>
      </trkpt>
      <trkpt lat="48.87257" lon="2.32931">
        <ele>96.4</ele>
        <time>2015-06-15T20:22:45.858Z</time>
      </trkpt>
      <trkpt lat="48.87253" lon="2.32938">
        <ele>96.6</ele>
        <time>2015-06-15T20:22:46.882Z</time>
      </trkpt>
      <trkpt lat="48.8725" lon="2.32943">
        <ele>97</ele>
        <time>2015-06-15T20:22:47.804Z</time>
      </trkpt>
      <trkpt lat="48.87246" lon="2.32948">
        <ele>97.4</ele>
        <time>2015-06-15T20:22:48.814Z</time>
      </trkpt>
      <trkpt lat="48.87243" lon="2.32954">
        <ele>97.9</ele>
        <time>2015-06-15T20:22:49.820Z</time>
      </trkpt>
      <trkpt lat="48.87239" lon="2.32959">
        <ele>98.5</ele>
        <time>2015-06-15T20:22:50.838Z</time>
      </trkpt>
      <trkpt lat="48.87237" lon="2.32965">
        <ele>98.8</ele>
        <time>2015-06-15T20:22:51.849Z</time>
      </trkpt>
      <trkpt lat="48.87235" lon="2.32972">
        <ele>99.1</ele>
        <time>2015-06-15T20:22:52.793Z</time>
      </trkpt>
      <trkpt lat="48.87231" lon="2.32983">
        <ele>99.5</ele>
        <time>2015-06-15T20:22:54.824Z</time>
      </trkpt>
      <trkpt lat="48.8723" lon="2.3299">
        <ele>99.7</ele>
        <time>2015-06-15T20:22:55.838Z</time>
      </trkpt>
      <trkpt lat="48.87227" lon="2.33002">
        <ele>100.2</ele>
        <time>2015-06-15T20:22:58.209Z</time>
      </trkpt>
      <trkpt lat="48.87226" lon="2.33007">
        <ele>100.4</ele>
        <time>2015-06-15T20:22:58.794Z</time>
      </trkpt>
      <trkpt lat="48.87222" lon="2.33017">
        <ele>100.7</ele>
        <time>2015-06-15T20:23:00.803Z</time>
      </trkpt>
      <trkpt lat="48.87219" lon="2.33022">
        <ele>100.5</ele>
        <time>2015-06-15T20:23:01.812Z</time>
      </trkpt>
      <trkpt lat="48.87214" lon="2.33032">
        <ele>100.9</ele>
        <time>2015-06-15T20:23:03.865Z</time>
      </trkpt>
      <trkpt lat="48.87212" lon="2.33038">
        <ele>101.4</ele>
        <time>2015-06-15T20:23:04.786Z</time>
      </trkpt>
      <trkpt lat="48.87209" lon="2.33042">
        <ele>101.5</ele>
        <time>2015-06-15T20:23:05.782Z</time>
      </trkpt>
      <trkpt lat="48.87204" lon="2.33047">
        <ele>101.4</ele>
        <time>2015-06-15T20:23:06.764Z</time>
      </trkpt>
      <trkpt lat="48.87201" lon="2.33052">
        <ele>101.2</ele>
        <time>2015-06-15T20:23:08.301Z</time>
      </trkpt>
      <trkpt lat="48.87197" lon="2.33058">
        <ele>101.5</ele>
        <time>2015-06-15T20:23:08.895Z</time>
      </trkpt>
      <trkpt lat="48.87194" lon="2.33063">
        <ele>101.5</ele>
        <time>2015-06-15T20:23:09.839Z</time>
      </trkpt>
      <trkpt lat="48.87188" lon="2.33067">
        <ele>101.3</ele>
        <time>2015-06-15T20:23:10.843Z</time>
      </trkpt>
      <trkpt lat="48.87185" lon="2.33072">
        <ele>101.3</ele>
        <time>2015-06-15T20:23:11.871Z</time>
      </trkpt>
      <trkpt lat="48.87181" lon="2.33077">
        <ele>101.1</ele>
        <time>2015-06-15T20:23:12.871Z</time>
      </trkpt>
      <trkpt lat="48.87177" lon="2.33081">
        <ele>101.1</ele>
        <time>2015-06-15T20:23:13.810Z</time>
      </trkpt>
      <trkpt lat="48.87174" lon="2.33086">
        <ele>101.5</ele>
        <time>2015-06-15T20:23:14.826Z</time>
      </trkpt>
      <trkpt lat="48.87168" lon="2.33096">
        <ele>102.4</ele>
        <time>2015-06-15T20:23:16.827Z</time>
      </trkpt>
      <trkpt lat="48.87166" lon="2.33101">
        <ele>102.7</ele>
        <time>2015-06-15T20:23:17.766Z</time>
      </trkpt>
      <trkpt lat="48.87159" lon="2.33111">
        <ele>102.8</ele>
        <time>2015-06-15T20:23:19.815Z</time>
      </trkpt>
      <trkpt lat="48.87156" lon="2.33116">
        <ele>103.2</ele>
        <time>2015-06-15T20:23:20.857Z</time>
      </trkpt>
      <trkpt lat="48.87152" lon="2.3312">
        <ele>103.7</ele>
        <time>2015-06-15T20:23:21.871Z</time>
      </trkpt>
      <trkpt lat="48.87149" lon="2.33126">
        <ele>103.9</ele>
        <time>2015-06-15T20:23:22.809Z</time>
      </trkpt>
      <trkpt lat="48.87145" lon="2.33131">
        <ele>104.3</ele>
        <time>2015-06-15T20:23:23.865Z</time>
      </trkpt>
      <trkpt lat="48.87142" lon="2.33136">
        <ele>104.7</ele>
        <time>2015-06-15T20:23:24.870Z</time>
      </trkpt>
      <trkpt lat="48.87138" lon="2.33142">
        <ele>104.3</ele>
        <time>2015-06-15T20:23:25.795Z</time>
      </trkpt>
      <trkpt lat="48.87135" lon="2.33147">
        <ele>104.2</ele>
        <time>2015-06-15T20:23:26.830Z</time>
      </trkpt>
      <trkpt lat="48.87132" lon="2.33153">
        <ele>104.1</ele>
        <time>2015-06-15T20:23:27.836Z</time>
      </trkpt>
      <trkpt lat="48.87129" lon="2.33159">
        <ele>104.1</ele>
        <time>2015-06-15T20:23:28.850Z</time>
      </trkpt>
      <trkpt lat="48.87126" lon="2.33164">
        <ele>104.3</ele>
        <time>2015-06-15T20:23:28.496Z</time>
      </trkpt>
      <trkpt lat="48.87122" lon="2.33169">
        <ele>104.4</ele>
        <time>2015-06-15T20:23:30.793Z</time>
      </trkpt>
      <trkpt lat="48.87118" lon="2.33174">
        <ele>104.3</ele>
        <time>2015-06-15T20:23:31.845Z</time>
      </trkpt>
      <trkpt lat="48.87115" lon="2.33179">
        <ele>104.1</ele>
        <time>2015-06-15T20:23:32.834Z</time>
      </trkpt>
      <trkpt lat="48.87111" lon="2.33185">
        <ele>104.2</ele>
        <time>2015-06-15T20:23:33.816Z</time>
      </trkpt>
      <trkpt lat="48.87107" lon="2.3319">
        <ele>104.2</ele>
        <time>2015-06-15T20:23:34.822Z</time>
      </trkpt>
      <trkpt lat="48.87104" lon="2.33196">
        <ele>104</ele>
        <time>2015-06-15T20:23:35.833Z</time>
      </trkpt>
      <trkpt lat="48.871" lon="2.33201">
        <ele>104</ele>
        <time>2015-06-15T20:23:36.838Z</time>
      </trkpt>
      <trkpt lat="48.87096" lon="2.33204">
        <ele>103.6</ele>
        <time>2015-06-15T20:23:37.892Z</time>
      </trkpt>
      <trkpt lat="48.87092" lon="2.33208">
        <ele>104.3</ele>
        <time>2015-06-15T20:23:38.807Z</time>
      </trkpt>
      <trkpt lat="48.87086" lon="2.33213">
        <ele>105.8</ele>
        <time>2015-06-15T20:23:40.798Z</time>
      </trkpt>
      <trkpt lat="48.87082" lon="2.33214">
        <ele>106.2</ele>
        <time>2015-06-15T20:23:41.827Z</time>
      </trkpt>
      <trkpt lat="48.87075" lon="2.33218">
        <ele>106.5</ele>
        <time>2015-06-15T20:23:43.785Z</time>
      </trkpt>
      <trkpt lat="48.87073" lon="2.33219">
        <ele>106.5</ele>
        <time>2015-06-15T20:23:44.877Z</time>
      </trkpt>
      <trkpt lat="48.87068" lon="2.33222">
        <ele>106.6</ele>
        <time>2015-06-15T20:24:12.818Z</time>
      </trkpt>
      <trkpt lat="48.87061" lon="2.33221">
        <ele>107.5</ele>
        <time>2015-06-15T20:24:13.882Z</time>
      </trkpt>
      <trkpt lat="48.87052" lon="2.33225">
        <ele>107.3</ele>
        <time>2015-06-15T20:24:17.806Z</time>
      </trkpt>
      <trkpt lat="48.8705" lon="2.33226">
        <ele>106.9</ele>
        <time>2015-06-15T20:24:18.818Z</time>
      </trkpt>
      <trkpt lat="48.87042" lon="2.33229">
        <ele>106</ele>
        <time>2015-06-15T20:24:21.837Z</time>
      </trkpt>
      <trkpt lat="48.8704" lon="2.33231">
        <ele>105.9</ele>
        <time>2015-06-15T20:24:22.842Z</time>
      </trkpt>
      <trkpt lat="48.87033" lon="2.33235">
        <ele>105.3</ele>
        <time>2015-06-15T20:24:24.783Z</time>
      </trkpt>
      <trkpt lat="48.8703" lon="2.33238">
        <ele>105.5</ele>
        <time>2015-06-15T20:24:25.806Z</time>
      </trkpt>
      <trkpt lat="48.87027" lon="2.33246">
        <ele>105.2</ele>
        <time>2015-06-15T20:24:27.844Z</time>
      </trkpt>
      <trkpt lat="48.87026" lon="2.33251">
        <ele>105.2</ele>
        <time>2015-06-15T20:24:28.875Z</time>
      </trkpt>
      <trkpt lat="48.87025" lon="2.33263">
        <ele>105.4</ele>
        <time>2015-06-15T20:24:32.871Z</time>
      </trkpt>
      <trkpt lat="48.87025" lon="2.33265">
        <ele>105.8</ele>
        <time>2015-06-15T20:24:33.819Z</time>
      </trkpt>
      <trkpt lat="48.87025" lon="2.33277">
        <ele>106.4</ele>
        <time>2015-06-15T20:24:41.820Z</time>
      </trkpt>
      <trkpt lat="48.87024" lon="2.3328">
        <ele>106.1</ele>
        <time>2015-06-15T20:24:42.829Z</time>
      </trkpt>
      <trkpt lat="48.87023" lon="2.33292">
        <ele>104.5</ele>
        <time>2015-06-15T20:24:45.783Z</time>
      </trkpt>
      <trkpt lat="48.87023" lon="2.33297">
        <ele>103.6</ele>
        <time>2015-06-15T20:24:46.793Z</time>
      </trkpt>
      <trkpt lat="48.87021" lon="2.33307">
        <ele>102.8</ele>
        <time>2015-06-15T20:24:48.789Z</time>
      </trkpt>
      <trkpt lat="48.8702" lon="2.33313">
        <ele>102.2</ele>
        <time>2015-06-15T20:24:49.792Z</time>
      </trkpt>
      <trkpt lat="48.87019" lon="2.33326">
        <ele>100.8</ele>
        <time>2015-06-15T20:24:51.825Z</time>
      </trkpt>
      <trkpt lat="48.87018" lon="2.33332">
        <ele>100.4</ele>
        <time>2015-06-15T20:24:52.853Z</time>
      </trkpt>
      <trkpt lat="48.87017" lon="2.33339">
        <ele>100.1</ele>
        <time>2015-06-15T20:24:53.877Z</time>
      </trkpt>
      <trkpt lat="48.87016" lon="2.33346">
        <ele>99.7</ele>
        <time>2015-06-15T20:24:54.758Z</time>
      </trkpt>
      <trkpt lat="48.87016" lon="2.33352">
        <ele>99.4</ele>
        <time>2015-06-15T20:24:55.830Z</time>
      </trkpt>
      <trkpt lat="48.87016" lon="2.33359">
        <ele>98.9</ele>
        <time>2015-06-15T20:24:56.840Z</time>
      </trkpt>
      <trkpt lat="48.87015" lon="2.33366">
        <ele>97.9</ele>
        <time>2015-06-15T20:24:57.849Z</time>
      </trkpt>
      <trkpt lat="48.87015" lon="2.33374">
        <ele>97.7</ele>
        <time>2015-06-15T20:24:58.770Z</time>
      </trkpt>
      <trkpt lat="48.87014" lon="2.33381">
        <ele>97.3</ele>
        <time>2015-06-15T20:24:59.810Z</time>
      </trkpt>
      <trkpt lat="48.87013" lon="2.33388">
        <ele>97.1</ele>
        <time>2015-06-15T20:25:00.849Z</time>
      </trkpt>
      <trkpt lat="48.87012" lon="2.33396">
        <ele>97.1</ele>
        <time>2015-06-15T20:25:01.776Z</time>
      </trkpt>
      <trkpt lat="48.87011" lon="2.33403">
        <ele>96.9</ele>
        <time>2015-06-15T20:25:02.881Z</time>
      </trkpt>
      <trkpt lat="48.87011" lon="2.3341">
        <ele>96.6</ele>
        <time>2015-06-15T20:25:03.772Z</time>
      </trkpt>
      <trkpt lat="48.87009" lon="2.33417">
        <ele>96.6</ele>
        <time>2015-06-15T20:25:04.776Z</time>
      </trkpt>
      <trkpt lat="48.87008" lon="2.33424">
        <ele>96.5</ele>
        <time>2015-06-15T20:25:05.796Z</time>
      </trkpt>
      <trkpt lat="48.87007" lon="2.33431">
        <ele>96.4</ele>
        <time>2015-06-15T20:25:06.800Z</time>
      </trkpt>
      <trkpt lat="48.87004" lon="2.33443">
        <ele>96.3</ele>
        <time>2015-06-15T20:25:08.833Z</time>
      </trkpt>
      <trkpt lat="48.87003" lon="2.3345">
        <ele>96.1</ele>
        <time>2015-06-15T20:25:09.849Z</time>
      </trkpt>
      <trkpt lat="48.87002" lon="2.33463">
        <ele>95.5</ele>
        <time>2015-06-15T20:25:11.763Z</time>
      </trkpt>
      <trkpt lat="48.87001" lon="2.33469">
        <ele>95.3</ele>
        <time>2015-06-15T20:25:12.791Z</time>
      </trkpt>
      <trkpt lat="48.86998" lon="2.33476">
        <ele>95.5</ele>
        <time>2015-06-15T20:25:13.820Z</time>
      </trkpt>
      <trkpt lat="48.86997" lon="2.33483">
        <ele>95.3</ele>
        <time>2015-06-15T20:25:14.823Z</time>
      </trkpt>
      <trkpt lat="48.86996" lon="2.3349">
        <ele>95.4</ele>
        <time>2015-06-15T20:25:15.765Z</time>
      </trkpt>
      <trkpt lat="48.86995" lon="2.33497">
        <ele>95.1</ele>
        <time>2015-06-15T20:25:16.770Z</time>
      </trkpt>
      <trkpt lat="48.86994" lon="2.33505">
        <ele>94.5</ele>
        <time>2015-06-15T20:25:17.778Z</time>
      </trkpt>
      <trkpt lat="48.86993" lon="2.33513">
        <ele>94.1</ele>
        <time>2015-06-15T20:25:18.782Z</time>
      </trkpt>
      <trkpt lat="48.86993" lon="2.33521">
        <ele>93.8</ele>
        <time>2015-06-15T20:25:19.803Z</time>
      </trkpt>
      <trkpt lat="48.86993" lon="2.3353">
        <ele>93.4</ele>
        <time>2015-06-15T20:25:20.812Z</time>
      </trkpt>
      <trkpt lat="48.86992" lon="2.33539">
        <ele>92.8</ele>
        <time>2015-06-15T20:25:21.821Z</time>
      </trkpt>
      <trkpt lat="48.8699" lon="2.33548">
        <ele>92.6</ele>
        <time>2015-06-15T20:25:22.823Z</time>
      </trkpt>
      <trkpt lat="48.86989" lon="2.33557">
        <ele>92.4</ele>
        <time>2015-06-15T20:25:23.827Z</time>
      </trkpt>
      <trkpt lat="48.86988" lon="2.33567">
        <ele>92.1</ele>
        <time>2015-06-15T20:25:24.834Z</time>
      </trkpt>
      <trkpt lat="48.86986" lon="2.33576">
        <ele>92.1</ele>
        <time>2015-06-15T20:25:25.763Z</time>
      </trkpt>
      <trkpt lat="48.86983" lon="2.33585">
        <ele>92.3</ele>
        <time>2015-06-15T20:25:26.801Z</time>
      </trkpt>
      <trkpt lat="48.86982" lon="2.33594">
        <ele>91.9</ele>
        <time>2015-06-15T20:25:27.805Z</time>
      </trkpt>
      <trkpt lat="48.86981" lon="2.33603">
        <ele>92.1</ele>
        <time>2015-06-15T20:25:28.804Z</time>
      </trkpt>
      <trkpt lat="48.86979" lon="2.33612">
        <ele>92.3</ele>
        <time>2015-06-15T20:25:29.814Z</time>
      </trkpt>
      <trkpt lat="48.86978" lon="2.33621">
        <ele>92.4</ele>
        <time>2015-06-15T20:25:30.820Z</time>
      </trkpt>
      <trkpt lat="48.86977" lon="2.3363">
        <ele>92.1</ele>
        <time>2015-06-15T20:25:31.836Z</time>
      </trkpt>
      <trkpt lat="48.86975" lon="2.33638">
        <ele>91.8</ele>
        <time>2015-06-15T20:25:32.852Z</time>
      </trkpt>
      <trkpt lat="48.86975" lon="2.33647">
        <ele>91.5</ele>
        <time>2015-06-15T20:25:33.764Z</time>
      </trkpt>
      <trkpt lat="48.86974" lon="2.33656">
        <ele>91.4</ele>
        <time>2015-06-15T20:25:34.770Z</time>
      </trkpt>
      <trkpt lat="48.86971" lon="2.33664">
        <ele>91.2</ele>
        <time>2015-06-15T20:25:35.786Z</time>
      </trkpt>
      <trkpt lat="48.8697" lon="2.33672">
        <ele>91.3</ele>
        <time>2015-06-15T20:25:36.792Z</time>
      </trkpt>
      <trkpt lat="48.86967" lon="2.3368">
        <ele>91.6</ele>
        <time>2015-06-15T20:25:37.806Z</time>
      </trkpt>
      <trkpt lat="48.86965" lon="2.33687">
        <ele>91.8</ele>
        <time>2015-06-15T20:25:38.815Z</time>
      </trkpt>
      <trkpt lat="48.86962" lon="2.33694">
        <ele>92.1</ele>
        <time>2015-06-15T20:25:39.829Z</time>
      </trkpt>
      <trkpt lat="48.8696" lon="2.33701">
        <ele>92</ele>
        <time>2015-06-15T20:25:40.831Z</time>
      </trkpt>
      <trkpt lat="48.86959" lon="2.33708">
        <ele>91.9</ele>
        <time>2015-06-15T20:25:41.733Z</time>
      </trkpt>
      <trkpt lat="48.86959" lon="2.33715">
        <ele>91.6</ele>
        <time>2015-06-15T20:25:42.772Z</time>
      </trkpt>
      <trkpt lat="48.86957" lon="2.33727">
        <ele>91.7</ele>
        <time>2015-06-15T20:25:44.800Z</time>
      </trkpt>
      <trkpt lat="48.86955" lon="2.33733">
        <ele>91.5</ele>
        <time>2015-06-15T20:25:45.793Z</time>
      </trkpt>
      <trkpt lat="48.86953" lon="2.33746">
        <ele>91.4</ele>
        <time>2015-06-15T20:25:47.791Z</time>
      </trkpt>
      <trkpt lat="48.86953" lon="2.33753">
        <ele>91.1</ele>
        <time>2015-06-15T20:25:48.809Z</time>
      </trkpt>
      <trkpt lat="48.86951" lon="2.33766">
        <ele>90.6</ele>
        <time>2015-06-15T20:25:50.846Z</time>
      </trkpt>
      <trkpt lat="48.8695" lon="2.33772">
        <ele>90.3</ele>
        <time>2015-06-15T20:25:51.750Z</time>
      </trkpt>
      <trkpt lat="48.86947" lon="2.33785">
        <ele>89.5</ele>
        <time>2015-06-15T20:25:53.815Z</time>
      </trkpt>
      <trkpt lat="48.86946" lon="2.33793">
        <ele>89.7</ele>
        <time>2015-06-15T20:25:54.878Z</time>
      </trkpt>
      <trkpt lat="48.86945" lon="2.338">
        <ele>89.7</ele>
        <time>2015-06-15T20:25:55.784Z</time>
      </trkpt>
      <trkpt lat="48.86944" lon="2.33808">
        <ele>89.5</ele>
        <time>2015-06-15T20:25:56.822Z</time>
      </trkpt>
      <trkpt lat="48.86943" lon="2.33815">
        <ele>89.5</ele>
        <time>2015-06-15T20:25:57.828Z</time>
      </trkpt>
      <trkpt lat="48.86941" lon="2.33822">
        <ele>89.7</ele>
        <time>2015-06-15T20:25:58.841Z</time>
      </trkpt>
      <trkpt lat="48.86939" lon="2.33828">
        <ele>89.6</ele>
        <time>2015-06-15T20:25:59.855Z</time>
      </trkpt>
      <trkpt lat="48.86937" lon="2.33834">
        <ele>89.3</ele>
        <time>2015-06-15T20:26:00.781Z</time>
      </trkpt>
      <trkpt lat="48.86934" lon="2.33841">
        <ele>89.5</ele>
        <time>2015-06-15T20:26:01.780Z</time>
      </trkpt>
      <trkpt lat="48.86933" lon="2.33848">
        <ele>89.6</ele>
        <time>2015-06-15T20:26:02.801Z</time>
      </trkpt>
      <trkpt lat="48.86929" lon="2.33861">
        <ele>89.8</ele>
        <time>2015-06-15T20:26:04.853Z</time>
      </trkpt>
      <trkpt lat="48.86928" lon="2.33867">
        <ele>90.1</ele>
        <time>2015-06-15T20:26:05.864Z</time>
      </trkpt>
      <trkpt lat="48.86924" lon="2.33879">
        <ele>89.8</ele>
        <time>2015-06-15T20:26:07.826Z</time>
      </trkpt>
      <trkpt lat="48.86922" lon="2.33885">
        <ele>89.5</ele>
        <time>2015-06-15T20:26:08.853Z</time>
      </trkpt>
      <trkpt lat="48.86919" lon="2.33897">
        <ele>89.8</ele>
        <time>2015-06-15T20:26:10.813Z</time>
      </trkpt>
      <trkpt lat="48.86918" lon="2.33902">
        <ele>89.6</ele>
        <time>2015-06-15T20:26:11.826Z</time>
      </trkpt>
      <trkpt lat="48.86916" lon="2.33914">
        <ele>89.4</ele>
        <time>2015-06-15T20:26:13.819Z</time>
      </trkpt>
      <trkpt lat="48.86916" lon="2.3392">
        <ele>89.9</ele>
        <time>2015-06-15T20:26:14.946Z</time>
      </trkpt>
      <trkpt lat="48.86912" lon="2.33932">
        <ele>91</ele>
        <time>2015-06-15T20:26:16.799Z</time>
      </trkpt>
      <trkpt lat="48.8691" lon="2.33937">
        <ele>90.9</ele>
        <time>2015-06-15T20:26:17.810Z</time>
      </trkpt>
      <trkpt lat="48.86908" lon="2.33943">
        <ele>91.6</ele>
        <time>2015-06-15T20:26:18.796Z</time>
      </trkpt>
      <trkpt lat="48.86906" lon="2.3395">
        <ele>92.4</ele>
        <time>2015-06-15T20:26:19.801Z</time>
      </trkpt>
      <trkpt lat="48.86903" lon="2.33962">
        <ele>93.4</ele>
        <time>2015-06-15T20:26:21.850Z</time>
      </trkpt>
      <trkpt lat="48.86901" lon="2.33968">
        <ele>93.4</ele>
        <time>2015-06-15T20:26:22.823Z</time>
      </trkpt>
      <trkpt lat="48.86898" lon="2.33978">
        <ele>93.4</ele>
        <time>2015-06-15T20:26:24.811Z</time>
      </trkpt>
      <trkpt lat="48.86897" lon="2.33984">
        <ele>93.4</ele>
        <time>2015-06-15T20:26:25.824Z</time>
      </trkpt>
      <trkpt lat="48.86895" lon="2.33996">
        <ele>93.3</ele>
        <time>2015-06-15T20:26:27.847Z</time>
      </trkpt>
      <trkpt lat="48.86894" lon="2.34002">
        <ele>93.3</ele>
        <time>2015-06-15T20:26:28.854Z</time>
      </trkpt>
      <trkpt lat="48.86892" lon="2.34015">
        <ele>94.1</ele>
        <time>2015-06-15T20:26:30.840Z</time>
      </trkpt>
      <trkpt lat="48.86891" lon="2.34021">
        <ele>94.1</ele>
        <time>2015-06-15T20:26:31.886Z</time>
      </trkpt>
      <trkpt lat="48.86889" lon="2.34033">
        <ele>93.4</ele>
        <time>2015-06-15T20:26:33.853Z</time>
      </trkpt>
      <trkpt lat="48.86888" lon="2.34039">
        <ele>93</ele>
        <time>2015-06-15T20:26:34.819Z</time>
      </trkpt>
      <trkpt lat="48.86885" lon="2.34051">
        <ele>93</ele>
        <time>2015-06-15T20:26:36.796Z</time>
      </trkpt>
      <trkpt lat="48.86883" lon="2.34057">
        <ele>93.2</ele>
        <time>2015-06-15T20:26:37.832Z</time>
      </trkpt>
      <trkpt lat="48.86881" lon="2.34068">
        <ele>92.9</ele>
        <time>2015-06-15T20:26:39.884Z</time>
      </trkpt>
      <trkpt lat="48.8688" lon="2.34074">
        <ele>92.3</ele>
        <time>2015-06-15T20:26:40.783Z</time>
      </trkpt>
      <trkpt lat="48.86878" lon="2.34086">
        <ele>92.1</ele>
        <time>2015-06-15T20:26:42.822Z</time>
      </trkpt>
      <trkpt lat="48.86877" lon="2.34092">
        <ele>92.1</ele>
        <time>2015-06-15T20:26:43.888Z</time>
      </trkpt>
      <trkpt lat="48.86875" lon="2.34104">
        <ele>91.9</ele>
        <time>2015-06-15T20:26:45.789Z</time>
      </trkpt>
      <trkpt lat="48.86873" lon="2.3411">
        <ele>91.9</ele>
        <time>2015-06-15T20:26:46.792Z</time>
      </trkpt>
      <trkpt lat="48.86868" lon="2.34121">
        <ele>92.9</ele>
        <time>2015-06-15T20:26:48.822Z</time>
      </trkpt>
      <trkpt lat="48.86867" lon="2.34126">
        <ele>93.4</ele>
        <time>2015-06-15T20:26:49.994Z</time>
      </trkpt>
      <trkpt lat="48.86865" lon="2.34137">
        <ele>93.8</ele>
        <time>2015-06-15T20:26:51.927Z</time>
      </trkpt>
      <trkpt lat="48.86864" lon="2.34143">
        <ele>93.9</ele>
        <time>2015-06-15T20:26:52.798Z</time>
      </trkpt>
      <trkpt lat="48.86862" lon="2.34152">
        <ele>94.3</ele>
        <time>2015-06-15T20:26:54.825Z</time>
      </trkpt>
      <trkpt lat="48.86861" lon="2.34157">
        <ele>94.1</ele>
        <time>2015-06-15T20:26:55.847Z</time>
      </trkpt>
      <trkpt lat="48.8686" lon="2.34167">
        <ele>93.6</ele>
        <time>2015-06-15T20:26:57.781Z</time>
      </trkpt>
      <trkpt lat="48.86859" lon="2.34171">
        <ele>93.2</ele>
        <time>2015-06-15T20:26:58.824Z</time>
      </trkpt>
      <trkpt lat="48.86856" lon="2.34184">
        <ele>93.2</ele>
        <time>2015-06-15T20:27:01.823Z</time>
      </trkpt>
      <trkpt lat="48.86855" lon="2.34188">
        <ele>93.5</ele>
        <time>2015-06-15T20:27:02.861Z</time>
      </trkpt>
      <trkpt lat="48.86848" lon="2.34192">
        <ele>93.9</ele>
        <time>2015-06-15T20:27:04.817Z</time>
      </trkpt>
      <trkpt lat="48.86845" lon="2.34191">
        <ele>93.9</ele>
        <time>2015-06-15T20:27:05.861Z</time>
      </trkpt>
      <trkpt lat="48.86838" lon="2.34188">
        <ele>94.4</ele>
        <time>2015-06-15T20:27:07.786Z</time>
      </trkpt>
      <trkpt lat="48.86834" lon="2.34187">
        <ele>94.6</ele>
        <time>2015-06-15T20:27:08.813Z</time>
      </trkpt>
      <trkpt lat="48.86827" lon="2.34184">
        <ele>94.9</ele>
        <time>2015-06-15T20:27:10.874Z</time>
      </trkpt>
      <trkpt lat="48.86823" lon="2.34183">
        <ele>95.2</ele>
        <time>2015-06-15T20:27:11.766Z</time>
      </trkpt>
      <trkpt lat="48.86816" lon="2.3418">
        <ele>95.4</ele>
        <time>2015-06-15T20:27:13.785Z</time>
      </trkpt>
      <trkpt lat="48.86812" lon="2.34178">
        <ele>95.6</ele>
        <time>2015-06-15T20:27:14.938Z</time>
      </trkpt>
      <trkpt lat="48.86804" lon="2.34174">
        <ele>96</ele>
        <time>2015-06-15T20:27:16.811Z</time>
      </trkpt>
      <trkpt lat="48.868" lon="2.34173">
        <ele>96.1</ele>
        <time>2015-06-15T20:27:17.824Z</time>
      </trkpt>
      <trkpt lat="48.86791" lon="2.34169">
        <ele>96.3</ele>
        <time>2015-06-15T20:27:19.763Z</time>
      </trkpt>
      <trkpt lat="48.86787" lon="2.34168">
        <ele>96.3</ele>
        <time>2015-06-15T20:27:20.816Z</time>
      </trkpt>
      <trkpt lat="48.86778" lon="2.34165">
        <ele>96.6</ele>
        <time>2015-06-15T20:27:22.767Z</time>
      </trkpt>
      <trkpt lat="48.86774" lon="2.34163">
        <ele>96.6</ele>
        <time>2015-06-15T20:27:23.974Z</time>
      </trkpt>
      <trkpt lat="48.86766" lon="2.3416">
        <ele>96.9</ele>
        <time>2015-06-15T20:27:25.785Z</time>
      </trkpt>
      <trkpt lat="48.86763" lon="2.34158">
        <ele>96.9</ele>
        <time>2015-06-15T20:27:26.817Z</time>
      </trkpt>
      <trkpt lat="48.86756" lon="2.34154">
        <ele>97.2</ele>
        <time>2015-06-15T20:27:28.769Z</time>
      </trkpt>
      <trkpt lat="48.86753" lon="2.34154">
        <ele>96.6</ele>
        <time>2015-06-15T20:27:29.794Z</time>
      </trkpt>
      <trkpt lat="48.86746" lon="2.34152">
        <ele>95.2</ele>
        <time>2015-06-15T20:27:31.755Z</time>
      </trkpt>
      <trkpt lat="48.86743" lon="2.3415">
        <ele>95</ele>
        <time>2015-06-15T20:27:32.800Z</time>
      </trkpt>
      <trkpt lat="48.86735" lon="2.34147">
        <ele>95.2</ele>
        <time>2015-06-15T20:27:34.815Z</time>
      </trkpt>
      <trkpt lat="48.86731" lon="2.34146">
        <ele>95.2</ele>
        <time>2015-06-15T20:27:35.839Z</time>
      </trkpt>
      <trkpt lat="48.86723" lon="2.34144">
        <ele>95.5</ele>
        <time>2015-06-15T20:27:37.791Z</time>
      </trkpt>
      <trkpt lat="48.8672" lon="2.34143">
        <ele>95.5</ele>
        <time>2015-06-15T20:27:38.828Z</time>
      </trkpt>
      <trkpt lat="48.86714" lon="2.34138">
        <ele>95.2</ele>
        <time>2015-06-15T20:27:40.780Z</time>
      </trkpt>
      <trkpt lat="48.8671" lon="2.34136">
        <ele>95.2</ele>
        <time>2015-06-15T20:27:41.785Z</time>
      </trkpt>
      <trkpt lat="48.86703" lon="2.3413">
        <ele>95.1</ele>
        <time>2015-06-15T20:27:43.807Z</time>
      </trkpt>
      <trkpt lat="48.867" lon="2.34128">
        <ele>95.2</ele>
        <time>2015-06-15T20:27:44.818Z</time>
      </trkpt>
      <trkpt lat="48.86691" lon="2.34125">
        <ele>95.3</ele>
        <time>2015-06-15T20:27:46.740Z</time>
      </trkpt>
      <trkpt lat="48.86687" lon="2.34123">
        <ele>95.4</ele>
        <time>2015-06-15T20:27:47.756Z</time>
      </trkpt>
      <trkpt lat="48.86679" lon="2.3412">
        <ele>95.3</ele>
        <time>2015-06-15T20:27:49.798Z</time>
      </trkpt>
      <trkpt lat="48.86676" lon="2.34118">
        <ele>95.3</ele>
        <time>2015-06-15T20:27:50.812Z</time>
      </trkpt>
      <trkpt lat="48.86669" lon="2.34114">
        <ele>95.2</ele>
        <time>2015-06-15T20:27:52.784Z</time>
      </trkpt>
      <trkpt lat="48.86666" lon="2.34112">
        <ele>95.2</ele>
        <time>2015-06-15T20:27:53.788Z</time>
      </trkpt>
      <trkpt lat="48.86659" lon="2.34105">
        <ele>95.1</ele>
        <time>2015-06-15T20:27:55.753Z</time>
      </trkpt>
      <trkpt lat="48.86655" lon="2.34104">
        <ele>94.9</ele>
        <time>2015-06-15T20:27:56.796Z</time>
      </trkpt>
      <trkpt lat="48.86649" lon="2.34101">
        <ele>94.7</ele>
        <time>2015-06-15T20:27:58.779Z</time>
      </trkpt>
      <trkpt lat="48.86646" lon="2.341">
        <ele>94.8</ele>
        <time>2015-06-15T20:27:59.792Z</time>
      </trkpt>
      <trkpt lat="48.86638" lon="2.34099">
        <ele>94.9</ele>
        <time>2015-06-15T20:28:02.834Z</time>
      </trkpt>
      <trkpt lat="48.86636" lon="2.341">
        <ele>94.9</ele>
        <time>2015-06-15T20:28:03.797Z</time>
      </trkpt>
      <trkpt lat="48.86632" lon="2.3411">
        <ele>95.4</ele>
        <time>2015-06-15T20:28:07.796Z</time>
      </trkpt>
      <trkpt lat="48.86632" lon="2.34114">
        <ele>94.3</ele>
        <time>2015-06-15T20:28:08.817Z</time>
      </trkpt>
      <trkpt lat="48.86631" lon="2.34125">
        <ele>92.1</ele>
        <time>2015-06-15T20:28:10.840Z</time>
      </trkpt>
      <trkpt lat="48.86628" lon="2.34127">
        <ele>92.1</ele>
        <time>2015-06-15T20:28:11.921Z</time>
      </trkpt>
      <trkpt lat="48.8662" lon="2.34133">
        <ele>92.3</ele>
        <time>2015-06-15T20:28:14.804Z</time>
      </trkpt>
      <trkpt lat="48.86618" lon="2.34135">
        <ele>92.8</ele>
        <time>2015-06-15T20:28:15.819Z</time>
      </trkpt>
      <trkpt lat="48.86613" lon="2.34144">
        <ele>93.7</ele>
        <time>2015-06-15T20:28:18.914Z</time>
      </trkpt>
      <trkpt lat="48.8661" lon="2.34145">
        <ele>94</ele>
        <time>2015-06-15T20:28:19.820Z</time>
      </trkpt>
      <trkpt lat="48.86604" lon="2.34146">
        <ele>94.3</ele>
        <time>2015-06-15T20:28:21.792Z</time>
      </trkpt>
      <trkpt lat="48.86601" lon="2.34146">
        <ele>94.1</ele>
        <time>2015-06-15T20:28:22.811Z</time>
      </trkpt>
      <trkpt lat="48.86594" lon="2.34138">
        <ele>92.7</ele>
        <time>2015-06-15T20:28:25.804Z</time>
      </trkpt>
      <trkpt lat="48.86593" lon="2.34133">
        <ele>92.5</ele>
        <time>2015-06-15T20:28:26.805Z</time>
      </trkpt>
      <trkpt lat="48.8659" lon="2.3412">
        <ele>91.8</ele>
        <time>2015-06-15T20:28:29.825Z</time>
      </trkpt>
      <trkpt lat="48.86588" lon="2.34116">
        <ele>91.5</ele>
        <time>2015-06-15T20:28:30.846Z</time>
      </trkpt>
      <trkpt lat="48.86585" lon="2.34108">
        <ele>91.1</ele>
        <time>2015-06-15T20:28:32.891Z</time>
      </trkpt>
      <trkpt lat="48.86583" lon="2.34104">
        <ele>90.8</ele>
        <time>2015-06-15T20:28:33.753Z</time>
      </trkpt>
      <trkpt lat="48.86577" lon="2.34098">
        <ele>91.9</ele>
        <time>2015-06-15T20:28:35.761Z</time>
      </trkpt>
      <trkpt lat="48.86573" lon="2.34094">
        <ele>92.5</ele>
        <time>2015-06-15T20:28:36.770Z</time>
      </trkpt>
      <trkpt lat="48.86566" lon="2.34088">
        <ele>93.7</ele>
        <time>2015-06-15T20:28:39.705Z</time>
      </trkpt>
      <trkpt lat="48.86563" lon="2.34086">
        <ele>93.6</ele>
        <time>2015-06-15T20:28:39.837Z</time>
      </trkpt>
      <trkpt lat="48.86558" lon="2.34077">
        <ele>93.5</ele>
        <time>2015-06-15T20:28:42.819Z</time>
      </trkpt>
      <trkpt lat="48.86556" lon="2.34074">
        <ele>93.6</ele>
        <time>2015-06-15T20:28:43.835Z</time>
      </trkpt>
      <trkpt lat="48.86552" lon="2.34062">
        <ele>93.5</ele>
        <time>2015-06-15T20:28:47.007Z</time>
      </trkpt>
      <trkpt lat="48.86551" lon="2.34059">
        <ele>93.5</ele>
        <time>2015-06-15T20:28:47.801Z</time>
      </trkpt>
      <trkpt lat="48.86547" lon="2.34049">
        <ele>93.5</ele>
        <time>2015-06-15T20:28:50.827Z</time>
      </trkpt>
      <trkpt lat="48.86545" lon="2.34047">
        <ele>93.5</ele>
        <time>2015-06-15T20:28:51.791Z</time>
      </trkpt>
      <trkpt lat="48.86537" lon="2.34045">
        <ele>93.9</ele>
        <time>2015-06-15T20:28:55.856Z</time>
      </trkpt>
      <trkpt lat="48.86534" lon="2.34046">
        <ele>93.9</ele>
        <time>2015-06-15T20:28:56.876Z</time>
      </trkpt>
      <trkpt lat="48.86526" lon="2.34051">
        <ele>94.2</ele>
        <time>2015-06-15T20:28:58.762Z</time>
      </trkpt>
      <trkpt lat="48.86521" lon="2.34054">
        <ele>94.4</ele>
        <time>2015-06-15T20:28:59.813Z</time>
      </trkpt>
      <trkpt lat="48.86516" lon="2.34057">
        <ele>94.7</ele>
        <time>2015-06-15T20:29:00.843Z</time>
      </trkpt>
      <trkpt lat="48.86512" lon="2.34061">
        <ele>95.1</ele>
        <time>2015-06-15T20:29:01.750Z</time>
      </trkpt>
      <trkpt lat="48.86505" lon="2.34067">
        <ele>95.1</ele>
        <time>2015-06-15T20:29:03.833Z</time>
      </trkpt>
      <trkpt lat="48.865" lon="2.34065">
        <ele>95.1</ele>
        <time>2015-06-15T20:29:04.746Z</time>
      </trkpt>
      <trkpt lat="48.86496" lon="2.34063">
        <ele>94.9</ele>
        <time>2015-06-15T20:29:05.797Z</time>
      </trkpt>
      <trkpt lat="48.86492" lon="2.3406">
        <ele>94.7</ele>
        <time>2015-06-15T20:29:06.822Z</time>
      </trkpt>
      <trkpt lat="48.86487" lon="2.34058">
        <ele>94.9</ele>
        <time>2015-06-15T20:29:08.406Z</time>
      </trkpt>
      <trkpt lat="48.86482" lon="2.34056">
        <ele>95.1</ele>
        <time>2015-06-15T20:29:08.798Z</time>
      </trkpt>
      <trkpt lat="48.86474" lon="2.34053">
        <ele>95.3</ele>
        <time>2015-06-15T20:29:10.811Z</time>
      </trkpt>
      <trkpt lat="48.86471" lon="2.34054">
        <ele>95.1</ele>
        <time>2015-06-15T20:29:11.837Z</time>
      </trkpt>
      <trkpt lat="48.86465" lon="2.34058">
        <ele>94.6</ele>
        <time>2015-06-15T20:29:13.815Z</time>
      </trkpt>
      <trkpt lat="48.86462" lon="2.34061">
        <ele>94.6</ele>
        <time>2015-06-15T20:29:14.826Z</time>
      </trkpt>
      <trkpt lat="48.86457" lon="2.34071">
        <ele>94.9</ele>
        <time>2015-06-15T20:29:16.744Z</time>
      </trkpt>
      <trkpt lat="48.86455" lon="2.34077">
        <ele>94.6</ele>
        <time>2015-06-15T20:29:17.762Z</time>
      </trkpt>
      <trkpt lat="48.8645" lon="2.34087">
        <ele>94.5</ele>
        <time>2015-06-15T20:29:19.792Z</time>
      </trkpt>
      <trkpt lat="48.86448" lon="2.34093">
        <ele>94.6</ele>
        <time>2015-06-15T20:29:20.806Z</time>
      </trkpt>
      <trkpt lat="48.86442" lon="2.34101">
        <ele>94.7</ele>
        <time>2015-06-15T20:29:22.844Z</time>
      </trkpt>
      <trkpt lat="48.86439" lon="2.34106">
        <ele>94.9</ele>
        <time>2015-06-15T20:29:23.818Z</time>
      </trkpt>
      <trkpt lat="48.86433" lon="2.34115">
        <ele>95.1</ele>
        <time>2015-06-15T20:29:25.776Z</time>
      </trkpt>
      <trkpt lat="48.86431" lon="2.3412">
        <ele>95.1</ele>
        <time>2015-06-15T20:29:26.906Z</time>
      </trkpt>
      <trkpt lat="48.86427" lon="2.3413">
        <ele>95.2</ele>
        <time>2015-06-15T20:29:28.833Z</time>
      </trkpt>
      <trkpt lat="48.86426" lon="2.34136">
        <ele>95.4</ele>
        <time>2015-06-15T20:29:29.805Z</time>
      </trkpt>
      <trkpt lat="48.86423" lon="2.34147">
        <ele>94.9</ele>
        <time>2015-06-15T20:29:31.829Z</time>
      </trkpt>
      <trkpt lat="48.86421" lon="2.34152">
        <ele>94.6</ele>
        <time>2015-06-15T20:29:32.834Z</time>
      </trkpt>
      <trkpt lat="48.86419" lon="2.34162">
        <ele>93.7</ele>
        <time>2015-06-15T20:29:34.829Z</time>
      </trkpt>
      <trkpt lat="48.86418" lon="2.34165">
        <ele>93.5</ele>
        <time>2015-06-15T20:29:35.839Z</time>
      </trkpt>
      <trkpt lat="48.86416" lon="2.34174">
        <ele>93.3</ele>
        <time>2015-06-15T20:29:37.798Z</time>
      </trkpt>
      <trkpt lat="48.86414" lon="2.34178">
        <ele>93.2</ele>
        <time>2015-06-15T20:29:38.864Z</time>
      </trkpt>
      <trkpt lat="48.86415" lon="2.34186">
        <ele>92.8</ele>
        <time>2015-06-15T20:29:39.739Z</time>
      </trkpt>
      <trkpt lat="48.86412" lon="2.34194">
        <ele>93.7</ele>
        <time>2015-06-15T20:29:40.784Z</time>
      </trkpt>
      <trkpt lat="48.86409" lon="2.342">
        <ele>93.8</ele>
        <time>2015-06-15T20:29:41.825Z</time>
      </trkpt>
      <trkpt lat="48.86407" lon="2.34205">
        <ele>94.3</ele>
        <time>2015-06-15T20:29:42.820Z</time>
      </trkpt>
      <trkpt lat="48.86403" lon="2.34214">
        <ele>95</ele>
        <time>2015-06-15T20:29:44.840Z</time>
      </trkpt>
      <trkpt lat="48.86402" lon="2.34217">
        <ele>95.4</ele>
        <time>2015-06-15T20:29:45.853Z</time>
      </trkpt>
      <trkpt lat="48.86397" lon="2.34227">
        <ele>95.7</ele>
        <time>2015-06-15T20:29:48.789Z</time>
      </trkpt>
      <trkpt lat="48.86395" lon="2.3423">
        <ele>95.9</ele>
        <time>2015-06-15T20:29:49.802Z</time>
      </trkpt>
      <trkpt lat="48.86391" lon="2.34235">
        <ele>95.7</ele>
        <time>2015-06-15T20:30:02.811Z</time>
      </trkpt>
      <trkpt lat="48.86386" lon="2.3424">
        <ele>97.8</ele>
        <time>2015-06-15T20:30:03.865Z</time>
      </trkpt>
      <trkpt lat="48.86381" lon="2.34249">
        <ele>98.8</ele>
        <time>2015-06-15T20:30:06.791Z</time>
      </trkpt>
      <trkpt lat="48.86381" lon="2.34252">
        <ele>98.9</ele>
        <time>2015-06-15T20:30:07.753Z</time>
      </trkpt>
      <trkpt lat="48.86379" lon="2.34262">
        <ele>99.2</ele>
        <time>2015-06-15T20:30:10.831Z</time>
      </trkpt>
      <trkpt lat="48.86377" lon="2.34266">
        <ele>99</ele>
        <time>2015-06-15T20:30:11.850Z</time>
      </trkpt>
      <trkpt lat="48.86369" lon="2.34264">
        <ele>97.5</ele>
        <time>2015-06-15T20:30:17.799Z</time>
      </trkpt>
      <trkpt lat="48.86368" lon="2.34263">
        <ele>97.6</ele>
        <time>2015-06-15T20:30:18.803Z</time>
      </trkpt>
      <trkpt lat="48.86365" lon="2.34276">
        <ele>98.3</ele>
        <time>2015-06-15T20:30:26.434Z</time>
      </trkpt>
      <trkpt lat="48.86365" lon="2.34279">
        <ele>97.8</ele>
        <time>2015-06-15T20:30:26.835Z</time>
      </trkpt>
      <trkpt lat="48.86363" lon="2.34289">
        <ele>96.4</ele>
        <time>2015-06-15T20:30:29.780Z</time>
      </trkpt>
      <trkpt lat="48.86362" lon="2.34292">
        <ele>95.4</ele>
        <time>2015-06-15T20:30:30.790Z</time>
      </trkpt>
      <trkpt lat="48.86358" lon="2.34295">
        <ele>94.6</ele>
        <time>2015-06-15T20:30:32.815Z</time>
      </trkpt>
      <trkpt lat="48.86352" lon="2.34296">
        <ele>94.4</ele>
        <time>2015-06-15T20:30:33.822Z</time>
      </trkpt>
      <trkpt lat="48.86347" lon="2.34296">
        <ele>94.1</ele>
        <time>2015-06-15T20:30:34.841Z</time>
      </trkpt>
      <trkpt lat="48.86341" lon="2.34296">
        <ele>94.1</ele>
        <time>2015-06-15T20:30:35.842Z</time>
      </trkpt>
      <trkpt lat="48.86332" lon="2.34296">
        <ele>94.3</ele>
        <time>2015-06-15T20:30:37.852Z</time>
      </trkpt>
      <trkpt lat="48.86328" lon="2.34296">
        <ele>94.6</ele>
        <time>2015-06-15T20:30:38.868Z</time>
      </trkpt>
      <trkpt lat="48.8632" lon="2.34298">
        <ele>94.4</ele>
        <time>2015-06-15T20:30:40.808Z</time>
      </trkpt>
      <trkpt lat="48.86317" lon="2.343">
        <ele>94.2</ele>
        <time>2015-06-15T20:30:41.820Z</time>
      </trkpt>
      <trkpt lat="48.86312" lon="2.34311">
        <ele>93.4</ele>
        <time>2015-06-15T20:30:44.800Z</time>
      </trkpt>
      <trkpt lat="48.8631" lon="2.34316">
        <ele>93.3</ele>
        <time>2015-06-15T20:30:45.833Z</time>
      </trkpt>
      <trkpt lat="48.86306" lon="2.34325">
        <ele>92.8</ele>
        <time>2015-06-15T20:30:47.783Z</time>
      </trkpt>
      <trkpt lat="48.86305" lon="2.34329">
        <ele>93</ele>
        <time>2015-06-15T20:30:48.782Z</time>
      </trkpt>
      <trkpt lat="48.86299" lon="2.34334">
        <ele>92.9</ele>
        <time>2015-06-15T20:30:50.934Z</time>
      </trkpt>
      <trkpt lat="48.86297" lon="2.34336">
        <ele>92.9</ele>
        <time>2015-06-15T20:30:51.737Z</time>
      </trkpt>
      <trkpt lat="48.86288" lon="2.34341">
        <ele>93.3</ele>
        <time>2015-06-15T20:30:54.809Z</time>
      </trkpt>
      <trkpt lat="48.86286" lon="2.34341">
        <ele>93.3</ele>
        <time>2015-06-15T20:30:55.819Z</time>
      </trkpt>
      <trkpt lat="48.86277" lon="2.3434">
        <ele>92.1</ele>
        <time>2015-06-15T20:30:58.767Z</time>
      </trkpt>
      <trkpt lat="48.86274" lon="2.3434">
        <ele>91.9</ele>
        <time>2015-06-15T20:30:59.792Z</time>
      </trkpt>
      <trkpt lat="48.86268" lon="2.34348">
        <ele>92.5</ele>
        <time>2015-06-15T20:31:03.797Z</time>
      </trkpt>
      <trkpt lat="48.86267" lon="2.34351">
        <ele>92.4</ele>
        <time>2015-06-15T20:31:04.853Z</time>
      </trkpt>
      <trkpt lat="48.86264" lon="2.34361">
        <ele>92.3</ele>
        <time>2015-06-15T20:31:07.805Z</time>
      </trkpt>
      <trkpt lat="48.86263" lon="2.34366">
        <ele>92.6</ele>
        <time>2015-06-15T20:31:08.923Z</time>
      </trkpt>
      <trkpt lat="48.8626" lon="2.34376">
        <ele>93.8</ele>
        <time>2015-06-15T20:31:11.808Z</time>
      </trkpt>
      <trkpt lat="48.8626" lon="2.34379">
        <ele>94.2</ele>
        <time>2015-06-15T20:31:12.830Z</time>
      </trkpt>
      <trkpt lat="48.86258" lon="2.34389">
        <ele>93.5</ele>
        <time>2015-06-15T20:31:15.817Z</time>
      </trkpt>
      <trkpt lat="48.86256" lon="2.34393">
        <ele>93.2</ele>
        <time>2015-06-15T20:31:16.858Z</time>
      </trkpt>
      <trkpt lat="48.86253" lon="2.34405">
        <ele>93.2</ele>
        <time>2015-06-15T20:31:19.887Z</time>
      </trkpt>
      <trkpt lat="48.86252" lon="2.34409">
        <ele>92.6</ele>
        <time>2015-06-15T20:31:20.816Z</time>
      </trkpt>
      <trkpt lat="48.86248" lon="2.34421">
        <ele>92.4</ele>
        <time>2015-06-15T20:31:23.827Z</time>
      </trkpt>
      <trkpt lat="48.86247" lon="2.34425">
        <ele>91.9</ele>
        <time>2015-06-15T20:31:24.833Z</time>
      </trkpt>
      <trkpt lat="48.86244" lon="2.34435">
        <ele>91.7</ele>
        <time>2015-06-15T20:31:27.819Z</time>
      </trkpt>
      <trkpt lat="48.86243" lon="2.34439">
        <ele>91.6</ele>
        <time>2015-06-15T20:31:28.817Z</time>
      </trkpt>
      <trkpt lat="48.86241" lon="2.3445">
        <ele>91.2</ele>
        <time>2015-06-15T20:31:32.886Z</time>
      </trkpt>
      <trkpt lat="48.86239" lon="2.34452">
        <ele>91.5</ele>
        <time>2015-06-15T20:31:33.790Z</time>
      </trkpt>
      <trkpt lat="48.86233" lon="2.34457">
        <ele>91.9</ele>
        <time>2015-06-15T20:31:37.796Z</time>
      </trkpt>
      <trkpt lat="48.86231" lon="2.34458">
        <ele>91.7</ele>
        <time>2015-06-15T20:31:38.848Z</time>
      </trkpt>
      <trkpt lat="48.86222" lon="2.34457">
        <ele>91.6</ele>
        <time>2015-06-15T20:31:42.821Z</time>
      </trkpt>
      <trkpt lat="48.8622" lon="2.34456">
        <ele>91.8</ele>
        <time>2015-06-15T20:31:43.832Z</time>
      </trkpt>
      <trkpt lat="48.86212" lon="2.34454">
        <ele>92.1</ele>
        <time>2015-06-15T20:31:46.829Z</time>
      </trkpt>
      <trkpt lat="48.8621" lon="2.34453">
        <ele>91.9</ele>
        <time>2015-06-15T20:31:47.839Z</time>
      </trkpt>
      <trkpt lat="48.86203" lon="2.34449">
        <ele>91.6</ele>
        <time>2015-06-15T20:31:50.827Z</time>
      </trkpt>
      <trkpt lat="48.86201" lon="2.34448">
        <ele>91.4</ele>
        <time>2015-06-15T20:31:51.822Z</time>
      </trkpt>
      <trkpt lat="48.86194" lon="2.34442">
        <ele>92</ele>
        <time>2015-06-15T20:31:54.778Z</time>
      </trkpt>
      <trkpt lat="48.86191" lon="2.3444">
        <ele>92.1</ele>
        <time>2015-06-15T20:31:55.778Z</time>
      </trkpt>
      <trkpt lat="48.86183" lon="2.34437">
        <ele>93.4</ele>
        <time>2015-06-15T20:31:58.864Z</time>
      </trkpt>
      <trkpt lat="48.86182" lon="2.34434">
        <ele>93.5</ele>
        <time>2015-06-15T20:31:59.782Z</time>
      </trkpt>
      <trkpt lat="48.86183" lon="2.34423">
        <ele>92.7</ele>
        <time>2015-06-15T20:32:02.851Z</time>
      </trkpt>
      <trkpt lat="48.86183" lon="2.3442">
        <ele>92.7</ele>
        <time>2015-06-15T20:32:03.823Z</time>
      </trkpt>
      <trkpt lat="48.86177" lon="2.34431">
        <ele>92.9</ele>
        <time>2015-06-15T20:32:16.780Z</time>
      </trkpt>
      <trkpt lat="48.86176" lon="2.34431">
        <ele>93</ele>
        <time>2015-06-15T20:32:17.782Z</time>
      </trkpt>
      <trkpt lat="48.86168" lon="2.34428">
        <ele>93</ele>
        <time>2015-06-15T20:32:21.817Z</time>
      </trkpt>
      <trkpt lat="48.86166" lon="2.34427">
        <ele>93.1</ele>
        <time>2015-06-15T20:32:22.834Z</time>
      </trkpt>
      <trkpt lat="48.8616" lon="2.34424">
        <ele>92.6</ele>
        <time>2015-06-15T20:32:24.776Z</time>
      </trkpt>
      <trkpt lat="48.86157" lon="2.34422">
        <ele>92.6</ele>
        <time>2015-06-15T20:32:25.805Z</time>
      </trkpt>
      <trkpt lat="48.8615" lon="2.34419">
        <ele>92.7</ele>
        <time>2015-06-15T20:32:27.851Z</time>
      </trkpt>
      <trkpt lat="48.86146" lon="2.34417">
        <ele>92.6</ele>
        <time>2015-06-15T20:32:28.801Z</time>
      </trkpt>
      <trkpt lat="48.8614" lon="2.34415">
        <ele>93</ele>
        <time>2015-06-15T20:32:30.785Z</time>
      </trkpt>
      <trkpt lat="48.86137" lon="2.34414">
        <ele>93.3</ele>
        <time>2015-06-15T20:32:31.822Z</time>
      </trkpt>
      <trkpt lat="48.8613" lon="2.34412">
        <ele>93.4</ele>
        <time>2015-06-15T20:32:33.780Z</time>
      </trkpt>
      <trkpt lat="48.86126" lon="2.34412">
        <ele>93.2</ele>
        <time>2015-06-15T20:32:34.811Z</time>
      </trkpt>
      <trkpt lat="48.86118" lon="2.34406">
        <ele>93.2</ele>
        <time>2015-06-15T20:32:37.775Z</time>
      </trkpt>
      <trkpt lat="48.86117" lon="2.34408">
        <ele>92.8</ele>
        <time>2015-06-15T20:32:38.800Z</time>
      </trkpt>
      <trkpt lat="48.86115" lon="2.3442">
        <ele>91.3</ele>
        <time>2015-06-15T20:32:41.787Z</time>
      </trkpt>
      <trkpt lat="48.86114" lon="2.34426">
        <ele>91.1</ele>
        <time>2015-06-15T20:32:42.783Z</time>
      </trkpt>
      <trkpt lat="48.8611" lon="2.34436">
        <ele>90.9</ele>
        <time>2015-06-15T20:32:44.810Z</time>
      </trkpt>
      <trkpt lat="48.86109" lon="2.34442">
        <ele>90.5</ele>
        <time>2015-06-15T20:32:45.823Z</time>
      </trkpt>
      <trkpt lat="48.86109" lon="2.34453">
        <ele>90</ele>
        <time>2015-06-15T20:32:47.767Z</time>
      </trkpt>
      <trkpt lat="48.86109" lon="2.34459">
        <ele>89.9</ele>
        <time>2015-06-15T20:32:48.845Z</time>
      </trkpt>
      <trkpt lat="48.86109" lon="2.34471">
        <ele>89.3</ele>
        <time>2015-06-15T20:32:50.810Z</time>
      </trkpt>
      <trkpt lat="48.8611" lon="2.34477">
        <ele>88.9</ele>
        <time>2015-06-15T20:32:51.771Z</time>
      </trkpt>
      <trkpt lat="48.86107" lon="2.3449">
        <ele>89.2</ele>
        <time>2015-06-15T20:32:54.823Z</time>
      </trkpt>
      <trkpt lat="48.86107" lon="2.34491">
        <ele>88.9</ele>
        <time>2015-06-15T20:32:55.839Z</time>
      </trkpt>
      <trkpt lat="48.86102" lon="2.34502">
        <ele>90.2</ele>
        <time>2015-06-15T20:32:59.807Z</time>
      </trkpt>
      <trkpt lat="48.86101" lon="2.34505">
        <ele>90.4</ele>
        <time>2015-06-15T20:33:00.830Z</time>
      </trkpt>
      <trkpt lat="48.86096" lon="2.34512">
        <ele>91</ele>
        <time>2015-06-15T20:33:02.811Z</time>
      </trkpt>
      <trkpt lat="48.86094" lon="2.34516">
        <ele>91.4</ele>
        <time>2015-06-15T20:33:03.742Z</time>
      </trkpt>
      <trkpt lat="48.86094" lon="2.34525">
        <ele>91.8</ele>
        <time>2015-06-15T20:33:05.800Z</time>
      </trkpt>
      <trkpt lat="48.86091" lon="2.3453">
        <ele>91.9</ele>
        <time>2015-06-15T20:33:06.823Z</time>
      </trkpt>
      <trkpt lat="48.86089" lon="2.34542">
        <ele>91.5</ele>
        <time>2015-06-15T20:33:08.876Z</time>
      </trkpt>
      <trkpt lat="48.86087" lon="2.34549">
        <ele>91.5</ele>
        <time>2015-06-15T20:33:09.921Z</time>
      </trkpt>
      <trkpt lat="48.86084" lon="2.34555">
        <ele>91.3</ele>
        <time>2015-06-15T20:33:10.801Z</time>
      </trkpt>
      <trkpt lat="48.86081" lon="2.34561">
        <ele>91.3</ele>
        <time>2015-06-15T20:33:11.859Z</time>
      </trkpt>
      <trkpt lat="48.86077" lon="2.34568">
        <ele>91.1</ele>
        <time>2015-06-15T20:33:12.780Z</time>
      </trkpt>
      <trkpt lat="48.86074" lon="2.34573">
        <ele>91.2</ele>
        <time>2015-06-15T20:33:13.770Z</time>
      </trkpt>
      <trkpt lat="48.86069" lon="2.34584">
        <ele>91.6</ele>
        <time>2015-06-15T20:33:15.813Z</time>
      </trkpt>
      <trkpt lat="48.86067" lon="2.34589">
        <ele>91.8</ele>
        <time>2015-06-15T20:33:16.828Z</time>
      </trkpt>
      <trkpt lat="48.86061" lon="2.34596">
        <ele>91.7</ele>
        <time>2015-06-15T20:33:18.779Z</time>
      </trkpt>
      <trkpt lat="48.86057" lon="2.346">
        <ele>91.7</ele>
        <time>2015-06-15T20:33:19.796Z</time>
      </trkpt>
      <trkpt lat="48.86049" lon="2.34607">
        <ele>92.5</ele>
        <time>2015-06-15T20:33:21.797Z</time>
      </trkpt>
      <trkpt lat="48.86047" lon="2.3461">
        <ele>93.1</ele>
        <time>2015-06-15T20:33:22.815Z</time>
      </trkpt>
      <trkpt lat="48.8604" lon="2.34617">
        <ele>94.1</ele>
        <time>2015-06-15T20:33:24.854Z</time>
      </trkpt>
      <trkpt lat="48.86037" lon="2.34621">
        <ele>94.4</ele>
        <time>2015-06-15T20:33:25.740Z</time>
      </trkpt>
      <trkpt lat="48.86032" lon="2.34629">
        <ele>95.2</ele>
        <time>2015-06-15T20:33:27.819Z</time>
      </trkpt>
      <trkpt lat="48.86028" lon="2.34632">
        <ele>95.4</ele>
        <time>2015-06-15T20:33:28.881Z</time>
      </trkpt>
      <trkpt lat="48.86022" lon="2.34639">
        <ele>95.9</ele>
        <time>2015-06-15T20:33:30.790Z</time>
      </trkpt>
      <trkpt lat="48.8602" lon="2.34641">
        <ele>96</ele>
        <time>2015-06-15T20:33:31.807Z</time>
      </trkpt>
      <trkpt lat="48.86015" lon="2.34649">
        <ele>96.9</ele>
        <time>2015-06-15T20:33:33.744Z</time>
      </trkpt>
      <trkpt lat="48.86012" lon="2.34651">
        <ele>97.4</ele>
        <time>2015-06-15T20:33:34.800Z</time>
      </trkpt>
      <trkpt lat="48.86007" lon="2.34655">
        <ele>97.5</ele>
        <time>2015-06-15T20:33:36.826Z</time>
      </trkpt>
      <trkpt lat="48.86003" lon="2.34657">
        <ele>97.3</ele>
        <time>2015-06-15T20:33:37.862Z</time>
      </trkpt>
      <trkpt lat="48.85998" lon="2.34668">
        <ele>98.7</ele>
        <time>2015-06-15T20:33:40.834Z</time>
      </trkpt>
      <trkpt lat="48.85996" lon="2.34669">
        <ele>98.9</ele>
        <time>2015-06-15T20:33:41.742Z</time>
      </trkpt>
      <trkpt lat="48.8599" lon="2.34677">
        <ele>100.3</ele>
        <time>2015-06-15T20:33:44.799Z</time>
      </trkpt>
      <trkpt lat="48.85988" lon="2.3468">
        <ele>101</ele>
        <time>2015-06-15T20:33:45.821Z</time>
      </trkpt>
      <trkpt lat="48.85986" lon="2.34689">
        <ele>102.2</ele>
        <time>2015-06-15T20:33:47.772Z</time>
      </trkpt>
      <trkpt lat="48.85982" lon="2.34691">
        <ele>102.5</ele>
        <time>2015-06-15T20:33:48.789Z</time>
      </trkpt>
      <trkpt lat="48.85974" lon="2.34694">
        <ele>103.7</ele>
        <time>2015-06-15T20:33:51.796Z</time>
      </trkpt>
      <trkpt lat="48.85971" lon="2.34695">
        <ele>104.1</ele>
        <time>2015-06-15T20:33:52.800Z</time>
      </trkpt>
      <trkpt lat="48.85963" lon="2.34699">
        <ele>104.7</ele>
        <time>2015-06-15T20:33:55.824Z</time>
      </trkpt>
      <trkpt lat="48.85962" lon="2.347">
        <ele>104.7</ele>
        <time>2015-06-15T20:33:56.839Z</time>
      </trkpt>
      <trkpt lat="48.85959" lon="2.34702">
        <ele>104.6</ele>
        <time>2015-06-15T20:35:56.418Z</time>
      </trkpt>
    </trkseg>
  </trk>
  <trk>
    <name><![CDATA[Paris]]></name>
    <extensions>
      <line xmlns="http://www.topografix.com/GPX/gpx_style/0/2">
        <color>000000</color>
      </line>
    </extensions>
    <trkseg>
      <trkpt lat="48.83645" lon="2.33449">
        <ele>89.400001525879</ele>
        <time>2015-06-01T18:33:00Z</time>
      </trkpt>
      <trkpt lat="48.83629" lon="2.33433">
        <ele>88.599998474121</ele>
        <time>2015-06-01T18:33:04Z</time>
      </trkpt>
      <trkpt lat="48.83625" lon="2.33429">
        <ele>88.400001525879</ele>
        <time>2015-06-01T18:33:05Z</time>
      </trkpt>
      <trkpt lat="48.83605" lon="2.33408">
        <ele>88</ele>
        <time>2015-06-01T18:33:10Z</time>
      </trkpt>
      <trkpt lat="48.83588" lon="2.33392">
        <ele>87.599998474121</ele>
        <time>2015-06-01T18:33:14Z</time>
      </trkpt>
      <trkpt lat="48.83585" lon="2.33388">
        <ele>87.599998474121</ele>
        <time>2015-06-01T18:33:15Z</time>
      </trkpt>
      <trkpt lat="48.83563" lon="2.33369">
        <ele>87.400001525879</ele>
        <time>2015-06-01T18:33:20Z</time>
      </trkpt>
      <trkpt lat="48.83547" lon="2.33353">
        <ele>87.199996948242</ele>
        <time>2015-06-01T18:33:24Z</time>
      </trkpt>
      <trkpt lat="48.83531" lon="2.33338">
        <ele>87.199996948242</ele>
        <time>2015-06-01T18:33:28Z</time>
      </trkpt>
      <trkpt lat="48.83515" lon="2.33325">
        <ele>87.199996948242</ele>
        <time>2015-06-01T18:33:32Z</time>
      </trkpt>
      <trkpt lat="48.83496" lon="2.33309">
        <ele>87.599998474121</ele>
        <time>2015-06-01T18:33:37Z</time>
      </trkpt>
      <trkpt lat="48.83493" lon="2.33306">
        <ele>87.599998474121</ele>
        <time>2015-06-01T18:33:38Z</time>
      </trkpt>
      <trkpt lat="48.83466" lon="2.33283">
        <ele>88.599998474121</ele>
        <time>2015-06-01T18:33:48Z</time>
      </trkpt>
      <trkpt lat="48.83465" lon="2.33286">
        <ele>88.800003051758</ele>
        <time>2015-06-01T18:33:52Z</time>
      </trkpt>
      <trkpt lat="48.83467" lon="2.33285">
        <ele>89</ele>
        <time>2015-06-01T18:34:00Z</time>
      </trkpt>
      <trkpt lat="48.83467" lon="2.33284">
        <ele>89</ele>
        <time>2015-06-01T18:34:03Z</time>
      </trkpt>
      <trkpt lat="48.83464" lon="2.33294">
        <ele>88.199996948242</ele>
        <time>2015-06-01T18:34:08Z</time>
      </trkpt>
      <trkpt lat="48.83456" lon="2.33302">
        <ele>87.599998474121</ele>
        <time>2015-06-01T18:34:12Z</time>
      </trkpt>
      <trkpt lat="48.83452" lon="2.33304">
        <ele>87</ele>
        <time>2015-06-01T18:34:14Z</time>
      </trkpt>
      <trkpt lat="48.83448" lon="2.33301">
        <ele>86.400001525879</ele>
        <time>2015-06-01T18:34:17Z</time>
      </trkpt>
      <trkpt lat="48.83448" lon="2.33299">
        <ele>86.199996948242</ele>
        <time>2015-06-01T18:34:19Z</time>
      </trkpt>
      <trkpt lat="48.83444" lon="2.33298">
        <ele>84.599998474121</ele>
        <time>2015-06-01T18:34:25Z</time>
      </trkpt>
      <trkpt lat="48.83443" lon="2.33299">
        <ele>84.400001525879</ele>
        <time>2015-06-01T18:34:26Z</time>
      </trkpt>
      <trkpt lat="48.83437" lon="2.33303">
        <ele>83.400001525879</ele>
        <time>2015-06-01T18:34:29Z</time>
      </trkpt>
      <trkpt lat="48.83433" lon="2.33304">
        <ele>82.400001525879</ele>
        <time>2015-06-01T18:34:34Z</time>
      </trkpt>
      <trkpt lat="48.83433" lon="2.33307">
        <ele>78.599998474121</ele>
        <time>2015-06-01T18:34:50Z</time>
      </trkpt>
      <trkpt lat="48.8344" lon="2.3331">
        <ele>76.599998474121</ele>
        <time>2015-06-01T18:35:40Z</time>
      </trkpt>
      <trkpt lat="48.83439" lon="2.33313">
        <ele>72.599998474121</ele>
        <time>2015-06-01T18:36:36Z</time>
      </trkpt>
      <trkpt lat="48.83452" lon="2.33308">
        <ele>74.400001525879</ele>
        <time>2015-06-01T18:37:29Z</time>
      </trkpt>
      <trkpt lat="48.83459" lon="2.33304">
        <ele>74.400001525879</ele>
        <time>2015-06-01T18:37:34Z</time>
      </trkpt>
      <trkpt lat="48.83461" lon="2.33303">
        <ele>74.400001525879</ele>
        <time>2015-06-01T18:37:36Z</time>
      </trkpt>
      <trkpt lat="48.83465" lon="2.33304">
        <ele>74.400001525879</ele>
        <time>2015-06-01T18:37:43Z</time>
      </trkpt>
      <trkpt lat="48.83464" lon="2.33304">
        <ele>74.400001525879</ele>
        <time>2015-06-01T18:37:44Z</time>
      </trkpt>
      <trkpt lat="48.83461" lon="2.33302">
        <ele>74.400001525879</ele>
        <time>2015-06-01T18:37:53Z</time>
      </trkpt>
      <trkpt lat="48.83456" lon="2.33299">
        <ele>74.400001525879</ele>
        <time>2015-06-01T18:38:10Z</time>
      </trkpt>
      <trkpt lat="48.83455" lon="2.33298">
        <ele>74.400001525879</ele>
        <time>2015-06-01T18:38:15Z</time>
      </trkpt>
      <trkpt lat="48.83456" lon="2.33297">
        <ele>74.400001525879</ele>
        <time>2015-06-01T18:38:18Z</time>
      </trkpt>
      <trkpt lat="48.8346" lon="2.33293">
        <ele>74.400001525879</ele>
        <time>2015-06-01T18:38:23Z</time>
      </trkpt>
      <trkpt lat="48.83459" lon="2.3329">
        <ele>74.400001525879</ele>
        <time>2015-06-01T18:38:26Z</time>
      </trkpt>
      <trkpt lat="48.83457" lon="2.33285">
        <ele>74.400001525879</ele>
        <time>2015-06-01T18:38:29Z</time>
      </trkpt>
      <trkpt lat="48.83457" lon="2.33288">
        <ele>74.400001525879</ele>
        <time>2015-06-01T18:38:34Z</time>
      </trkpt>
      <trkpt lat="48.83455" lon="2.33283">
        <ele>74.400001525879</ele>
        <time>2015-06-01T18:38:38Z</time>
      </trkpt>
      <trkpt lat="48.83455" lon="2.3328">
        <ele>74.400001525879</ele>
        <time>2015-06-01T18:38:42Z</time>
      </trkpt>
      <trkpt lat="48.83458" lon="2.33291">
        <ele>74.400001525879</ele>
        <time>2015-06-01T18:39:20Z</time>
      </trkpt>
      <trkpt lat="48.83454" lon="2.33289">
        <ele>74.400001525879</ele>
        <time>2015-06-01T18:39:25Z</time>
      </trkpt>
      <trkpt lat="48.83453" lon="2.33288">
        <ele>74.400001525879</ele>
        <time>2015-06-01T18:39:33Z</time>
      </trkpt>
      <trkpt lat="48.83453" lon="2.33287">
        <ele>74.400001525879</ele>
        <time>2015-06-01T18:39:48Z</time>
      </trkpt>
      <trkpt lat="48.83452" lon="2.33284">
        <ele>74.400001525879</ele>
        <time>2015-06-01T18:40:18Z</time>
      </trkpt>
      <trkpt lat="48.83451" lon="2.33283">
        <ele>74.400001525879</ele>
        <time>2015-06-01T18:40:37Z</time>
      </trkpt>
      <trkpt lat="48.83456" lon="2.33286">
        <ele>74.400001525879</ele>
        <time>2015-06-01T18:40:43Z</time>
      </trkpt>
      <trkpt lat="48.83454" lon="2.33285">
        <ele>74.400001525879</ele>
        <time>2015-06-01T18:40:53Z</time>
      </trkpt>
      <trkpt lat="48.83455" lon="2.33286">
        <ele>74.400001525879</ele>
        <time>2015-06-01T18:41:31Z</time>
      </trkpt>
      <trkpt lat="48.83457" lon="2.33283">
        <ele>74.400001525879</ele>
        <time>2015-06-01T18:41:37Z</time>
      </trkpt>
      <trkpt lat="48.83458" lon="2.33282">
        <ele>74.400001525879</ele>
        <time>2015-06-01T18:41:38Z</time>
      </trkpt>
      <trkpt lat="48.83466" lon="2.33285">
        <ele>74.400001525879</ele>
        <time>2015-06-01T18:41:43Z</time>
      </trkpt>
      <trkpt lat="48.83477" lon="2.33292">
        <ele>74.400001525879</ele>
        <time>2015-06-01T18:41:49Z</time>
      </trkpt>
      <trkpt lat="48.83493" lon="2.33306">
        <ele>74.400001525879</ele>
        <time>2015-06-01T18:41:56Z</time>
      </trkpt>
      <trkpt lat="48.83499" lon="2.3331">
        <ele>74.400001525879</ele>
        <time>2015-06-01T18:41:58Z</time>
      </trkpt>
      <trkpt lat="48.8351" lon="2.33319">
        <ele>74.400001525879</ele>
        <time>2015-06-01T18:42:02Z</time>
      </trkpt>
      <trkpt lat="48.83528" lon="2.33335">
        <ele>75.199996948242</ele>
        <time>2015-06-01T18:42:08Z</time>
      </trkpt>
      <trkpt lat="48.83544" lon="2.33347">
        <ele>76</ele>
        <time>2015-06-01T18:42:13Z</time>
      </trkpt>
      <trkpt lat="48.83563" lon="2.33365">
        <ele>77.199996948242</ele>
        <time>2015-06-01T18:42:18Z</time>
      </trkpt>
      <trkpt lat="48.83582" lon="2.33384">
        <ele>77.599998474121</ele>
        <time>2015-06-01T18:42:22Z</time>
      </trkpt>
      <trkpt lat="48.83588" lon="2.33389">
        <ele>77.800003051758</ele>
        <time>2015-06-01T18:42:23Z</time>
      </trkpt>
      <trkpt lat="48.83604" lon="2.33405">
        <ele>78</ele>
        <time>2015-06-01T18:42:26Z</time>
      </trkpt>
      <trkpt lat="48.8361" lon="2.3341">
        <ele>78.199996948242</ele>
        <time>2015-06-01T18:42:27Z</time>
      </trkpt>
      <trkpt lat="48.83636" lon="2.33437">
        <ele>78.400001525879</ele>
        <time>2015-06-01T18:42:31Z</time>
      </trkpt>
      <trkpt lat="48.83656" lon="2.33458">
        <ele>78.400001525879</ele>
        <time>2015-06-01T18:42:34Z</time>
      </trkpt>
      <trkpt lat="48.83676" lon="2.33477">
        <ele>78.599998474121</ele>
        <time>2015-06-01T18:42:37Z</time>
      </trkpt>
      <trkpt lat="48.83696" lon="2.33499">
        <ele>78.599998474121</ele>
        <time>2015-06-01T18:42:40Z</time>
      </trkpt>
      <trkpt lat="48.83716" lon="2.33517">
        <ele>78.599998474121</ele>
        <time>2015-06-01T18:42:43Z</time>
      </trkpt>
      <trkpt lat="48.83735" lon="2.33535">
        <ele>78.400001525879</ele>
        <time>2015-06-01T18:42:46Z</time>
      </trkpt>
      <trkpt lat="48.83744" lon="2.3354">
        <ele>78.400001525879</ele>
        <time>2015-06-01T18:42:47Z</time>
      </trkpt>
      <trkpt lat="48.83763" lon="2.33559">
        <ele>77.800003051758</ele>
        <time>2015-06-01T18:42:50Z</time>
      </trkpt>
      <trkpt lat="48.83782" lon="2.33579">
        <ele>77.199996948242</ele>
        <time>2015-06-01T18:42:53Z</time>
      </trkpt>
      <trkpt lat="48.83801" lon="2.33599">
        <ele>76.400001525879</ele>
        <time>2015-06-01T18:42:56Z</time>
      </trkpt>
      <trkpt lat="48.83819" lon="2.33618">
        <ele>75.400001525879</ele>
        <time>2015-06-01T18:42:59Z</time>
      </trkpt>
      <trkpt lat="48.83836" lon="2.33638">
        <ele>74.599998474121</ele>
        <time>2015-06-01T18:43:02Z</time>
      </trkpt>
      <trkpt lat="48.83841" lon="2.33645">
        <ele>74.400001525879</ele>
        <time>2015-06-01T18:43:03Z</time>
      </trkpt>
      <trkpt lat="48.83865" lon="2.33664">
        <ele>73.199996948242</ele>
        <time>2015-06-01T18:43:07Z</time>
      </trkpt>
      <trkpt lat="48.83872" lon="2.33667">
        <ele>72.800003051758</ele>
        <time>2015-06-01T18:43:08Z</time>
      </trkpt>
      <trkpt lat="48.83886" lon="2.33673">
        <ele>72.199996948242</ele>
        <time>2015-06-01T18:43:10Z</time>
      </trkpt>
      <trkpt lat="48.83912" lon="2.33675">
        <ele>71.400001525879</ele>
        <time>2015-06-01T18:43:14Z</time>
      </trkpt>
      <trkpt lat="48.83917" lon="2.33676">
        <ele>71.400001525879</ele>
        <time>2015-06-01T18:43:15Z</time>
      </trkpt>
      <trkpt lat="48.83932" lon="2.33679">
        <ele>71</ele>
        <time>2015-06-01T18:43:18Z</time>
      </trkpt>
      <trkpt lat="48.83939" lon="2.33681">
        <ele>70.800003051758</ele>
        <time>2015-06-01T18:43:20Z</time>
      </trkpt>
      <trkpt lat="48.83952" lon="2.33684">
        <ele>70.400001525879</ele>
        <time>2015-06-01T18:43:24Z</time>
      </trkpt>
      <trkpt lat="48.83962" lon="2.3369">
        <ele>70.199996948242</ele>
        <time>2015-06-01T18:43:29Z</time>
      </trkpt>
      <trkpt lat="48.83963" lon="2.33692">
        <ele>70.199996948242</ele>
        <time>2015-06-01T18:43:30Z</time>
      </trkpt>
      <trkpt lat="48.83964" lon="2.33692">
        <ele>70.199996948242</ele>
        <time>2015-06-01T18:43:31Z</time>
      </trkpt>
      <trkpt lat="48.83967" lon="2.3369">
        <ele>70.199996948242</ele>
        <time>2015-06-01T18:43:34Z</time>
      </trkpt>
      <trkpt lat="48.83965" lon="2.33682">
        <ele>70</ele>
        <time>2015-06-01T18:44:07Z</time>
      </trkpt>
      <trkpt lat="48.8397" lon="2.33681">
        <ele>70</ele>
        <time>2015-06-01T18:44:28Z</time>
      </trkpt>
      <trkpt lat="48.83972" lon="2.33679">
        <ele>70</ele>
        <time>2015-06-01T18:44:29Z</time>
      </trkpt>
      <trkpt lat="48.83982" lon="2.33671">
        <ele>70</ele>
        <time>2015-06-01T18:44:33Z</time>
      </trkpt>
      <trkpt lat="48.83985" lon="2.33663">
        <ele>70</ele>
        <time>2015-06-01T18:44:36Z</time>
      </trkpt>
      <trkpt lat="48.83986" lon="2.33663">
        <ele>70</ele>
        <time>2015-06-01T18:44:37Z</time>
      </trkpt>
      <trkpt lat="48.83994" lon="2.33668">
        <ele>68.599998474121</ele>
        <time>2015-06-01T18:45:04Z</time>
      </trkpt>
      <trkpt lat="48.83996" lon="2.33669">
        <ele>68.400001525879</ele>
        <time>2015-06-01T18:45:05Z</time>
      </trkpt>
      <trkpt lat="48.84006" lon="2.33674">
        <ele>68.199996948242</ele>
        <time>2015-06-01T18:45:09Z</time>
      </trkpt>
      <trkpt lat="48.84008" lon="2.33678">
        <ele>68.199996948242</ele>
        <time>2015-06-01T18:45:10Z</time>
      </trkpt>
      <trkpt lat="48.84025" lon="2.33696">
        <ele>68</ele>
        <time>2015-06-01T18:45:15Z</time>
      </trkpt>
      <trkpt lat="48.84039" lon="2.33704">
        <ele>68</ele>
        <time>2015-06-01T18:45:18Z</time>
      </trkpt>
      <trkpt lat="48.84055" lon="2.3372">
        <ele>68</ele>
        <time>2015-06-01T18:45:22Z</time>
      </trkpt>
      <trkpt lat="48.84079" lon="2.33732">
        <ele>68</ele>
        <time>2015-06-01T18:45:27Z</time>
      </trkpt>
      <trkpt lat="48.84102" lon="2.33742">
        <ele>68</ele>
        <time>2015-06-01T18:45:31Z</time>
      </trkpt>
      <trkpt lat="48.8412" lon="2.33749">
        <ele>68</ele>
        <time>2015-06-01T18:45:34Z</time>
      </trkpt>
      <trkpt lat="48.84141" lon="2.33756">
        <ele>68</ele>
        <time>2015-06-01T18:45:37Z</time>
      </trkpt>
      <trkpt lat="48.84149" lon="2.33758">
        <ele>68</ele>
        <time>2015-06-01T18:45:38Z</time>
      </trkpt>
      <trkpt lat="48.84172" lon="2.33771">
        <ele>68</ele>
        <time>2015-06-01T18:45:41Z</time>
      </trkpt>
      <trkpt lat="48.8418" lon="2.33776">
        <ele>68</ele>
        <time>2015-06-01T18:45:42Z</time>
      </trkpt>
      <trkpt lat="48.84186" lon="2.33782">
        <ele>68</ele>
        <time>2015-06-01T18:45:43Z</time>
      </trkpt>
      <trkpt lat="48.84215" lon="2.33798">
        <ele>68</ele>
        <time>2015-06-01T18:45:47Z</time>
      </trkpt>
      <trkpt lat="48.84223" lon="2.33803">
        <ele>68</ele>
        <time>2015-06-01T18:45:48Z</time>
      </trkpt>
      <trkpt lat="48.8424" lon="2.33813">
        <ele>68</ele>
        <time>2015-06-01T18:45:50Z</time>
      </trkpt>
      <trkpt lat="48.84248" lon="2.33817">
        <ele>68</ele>
        <time>2015-06-01T18:45:51Z</time>
      </trkpt>
      <trkpt lat="48.84272" lon="2.3383">
        <ele>67.800003051758</ele>
        <time>2015-06-01T18:45:54Z</time>
      </trkpt>
      <trkpt lat="48.84293" lon="2.33841">
        <ele>67.599998474121</ele>
        <time>2015-06-01T18:45:57Z</time>
      </trkpt>
      <trkpt lat="48.84315" lon="2.33854">
        <ele>67.199996948242</ele>
        <time>2015-06-01T18:46:00Z</time>
      </trkpt>
      <trkpt lat="48.84332" lon="2.33868">
        <ele>66.800003051758</ele>
        <time>2015-06-01T18:46:03Z</time>
      </trkpt>
      <trkpt lat="48.84349" lon="2.3388">
        <ele>66.599998474121</ele>
        <time>2015-06-01T18:46:05Z</time>
      </trkpt>
      <trkpt lat="48.84365" lon="2.33894">
        <ele>66.400001525879</ele>
        <time>2015-06-01T18:46:07Z</time>
      </trkpt>
      <trkpt lat="48.84386" lon="2.33907">
        <ele>66.400001525879</ele>
        <time>2015-06-01T18:46:10Z</time>
      </trkpt>
      <trkpt lat="48.84393" lon="2.33909">
        <ele>66.199996948242</ele>
        <time>2015-06-01T18:46:11Z</time>
      </trkpt>
      <trkpt lat="48.84412" lon="2.33916">
        <ele>66.199996948242</ele>
        <time>2015-06-01T18:46:14Z</time>
      </trkpt>
      <trkpt lat="48.84423" lon="2.3392">
        <ele>66.199996948242</ele>
        <time>2015-06-01T18:46:16Z</time>
      </trkpt>
      <trkpt lat="48.84448" lon="2.33934">
        <ele>65.400001525879</ele>
        <time>2015-06-01T18:46:20Z</time>
      </trkpt>
      <trkpt lat="48.84469" lon="2.3395">
        <ele>65</ele>
        <time>2015-06-01T18:46:23Z</time>
      </trkpt>
      <trkpt lat="48.8449" lon="2.33965">
        <ele>64.599998474121</ele>
        <time>2015-06-01T18:46:26Z</time>
      </trkpt>
      <trkpt lat="48.84495" lon="2.33964">
        <ele>64.599998474121</ele>
        <time>2015-06-01T18:46:27Z</time>
      </trkpt>
      <trkpt lat="48.84516" lon="2.33966">
        <ele>64.199996948242</ele>
        <time>2015-06-01T18:46:31Z</time>
      </trkpt>
      <trkpt lat="48.84537" lon="2.33973">
        <ele>64.199996948242</ele>
        <time>2015-06-01T18:46:35Z</time>
      </trkpt>
      <trkpt lat="48.8455" lon="2.33977">
        <ele>64</ele>
        <time>2015-06-01T18:46:37Z</time>
      </trkpt>
      <trkpt lat="48.84573" lon="2.33996">
        <ele>64</ele>
        <time>2015-06-01T18:46:41Z</time>
      </trkpt>
      <trkpt lat="48.84579" lon="2.34001">
        <ele>64</ele>
        <time>2015-06-01T18:46:42Z</time>
      </trkpt>
      <trkpt lat="48.84596" lon="2.34009">
        <ele>64</ele>
        <time>2015-06-01T18:46:45Z</time>
      </trkpt>
      <trkpt lat="48.84617" lon="2.34021">
        <ele>64.400001525879</ele>
        <time>2015-06-01T18:46:49Z</time>
      </trkpt>
      <trkpt lat="48.84622" lon="2.34026">
        <ele>64.599998474121</ele>
        <time>2015-06-01T18:46:50Z</time>
      </trkpt>
      <trkpt lat="48.84626" lon="2.3403">
        <ele>64.800003051758</ele>
        <time>2015-06-01T18:46:51Z</time>
      </trkpt>
      <trkpt lat="48.84649" lon="2.34046">
        <ele>65.199996948242</ele>
        <time>2015-06-01T18:46:56Z</time>
      </trkpt>
      <trkpt lat="48.84652" lon="2.34047">
        <ele>65.199996948242</ele>
        <time>2015-06-01T18:46:57Z</time>
      </trkpt>
      <trkpt lat="48.84664" lon="2.34055">
        <ele>65.400001525879</ele>
        <time>2015-06-01T18:47:01Z</time>
      </trkpt>
      <trkpt lat="48.84672" lon="2.3406">
        <ele>65.599998474121</ele>
        <time>2015-06-01T18:47:05Z</time>
      </trkpt>
      <trkpt lat="48.84675" lon="2.34058">
        <ele>65.800003051758</ele>
        <time>2015-06-01T18:47:10Z</time>
      </trkpt>
      <trkpt lat="48.84678" lon="2.34057">
        <ele>65.800003051758</ele>
        <time>2015-06-01T18:47:22Z</time>
      </trkpt>
      <trkpt lat="48.84682" lon="2.3406">
        <ele>65.800003051758</ele>
        <time>2015-06-01T18:47:29Z</time>
      </trkpt>
      <trkpt lat="48.84685" lon="2.34061">
        <ele>65.800003051758</ele>
        <time>2015-06-01T18:47:41Z</time>
      </trkpt>
      <trkpt lat="48.84692" lon="2.34069">
        <ele>65.800003051758</ele>
        <time>2015-06-01T18:47:45Z</time>
      </trkpt>
      <trkpt lat="48.84704" lon="2.34075">
        <ele>65.800003051758</ele>
        <time>2015-06-01T18:47:49Z</time>
      </trkpt>
      <trkpt lat="48.84718" lon="2.34084">
        <ele>65.800003051758</ele>
        <time>2015-06-01T18:47:54Z</time>
      </trkpt>
      <trkpt lat="48.84722" lon="2.34086">
        <ele>65.800003051758</ele>
        <time>2015-06-01T18:47:59Z</time>
      </trkpt>
      <trkpt lat="48.84729" lon="2.34083">
        <ele>65.800003051758</ele>
        <time>2015-06-01T18:48:11Z</time>
      </trkpt>
      <trkpt lat="48.84739" lon="2.34079">
        <ele>65.800003051758</ele>
        <time>2015-06-01T18:48:32Z</time>
      </trkpt>
      <trkpt lat="48.84745" lon="2.34078">
        <ele>66.199996948242</ele>
        <time>2015-06-01T18:48:41Z</time>
      </trkpt>
      <trkpt lat="48.84757" lon="2.34087">
        <ele>66.800003051758</ele>
        <time>2015-06-01T18:48:45Z</time>
      </trkpt>
      <trkpt lat="48.84777" lon="2.34104">
        <ele>67.199996948242</ele>
        <time>2015-06-01T18:48:49Z</time>
      </trkpt>
      <trkpt lat="48.84798" lon="2.34119">
        <ele>67.400001525879</ele>
        <time>2015-06-01T18:48:52Z</time>
      </trkpt>
      <trkpt lat="48.8482" lon="2.34133">
        <ele>67.599998474121</ele>
        <time>2015-06-01T18:48:55Z</time>
      </trkpt>
      <trkpt lat="48.84838" lon="2.34144">
        <ele>67.599998474121</ele>
        <time>2015-06-01T18:48:57Z</time>
      </trkpt>
      <trkpt lat="48.84853" lon="2.34155">
        <ele>67.599998474121</ele>
        <time>2015-06-01T18:48:59Z</time>
      </trkpt>
      <trkpt lat="48.84878" lon="2.3417">
        <ele>67.800003051758</ele>
        <time>2015-06-01T18:49:02Z</time>
      </trkpt>
      <trkpt lat="48.84895" lon="2.34181">
        <ele>67.800003051758</ele>
        <time>2015-06-01T18:49:04Z</time>
      </trkpt>
      <trkpt lat="48.84918" lon="2.34192">
        <ele>67.800003051758</ele>
        <time>2015-06-01T18:49:07Z</time>
      </trkpt>
      <trkpt lat="48.84941" lon="2.342">
        <ele>67.800003051758</ele>
        <time>2015-06-01T18:49:10Z</time>
      </trkpt>
      <trkpt lat="48.84966" lon="2.34206">
        <ele>67.800003051758</ele>
        <time>2015-06-01T18:49:13Z</time>
      </trkpt>
      <trkpt lat="48.84974" lon="2.34211">
        <ele>67.800003051758</ele>
        <time>2015-06-01T18:49:14Z</time>
      </trkpt>
      <trkpt lat="48.84997" lon="2.34229">
        <ele>67.800003051758</ele>
        <time>2015-06-01T18:49:17Z</time>
      </trkpt>
      <trkpt lat="48.85006" lon="2.34238">
        <ele>68</ele>
        <time>2015-06-01T18:49:18Z</time>
      </trkpt>
      <trkpt lat="48.85039" lon="2.34257">
        <ele>68</ele>
        <time>2015-06-01T18:49:22Z</time>
      </trkpt>
      <trkpt lat="48.85046" lon="2.34262">
        <ele>68</ele>
        <time>2015-06-01T18:49:23Z</time>
      </trkpt>
      <trkpt lat="48.8506" lon="2.34271">
        <ele>68</ele>
        <time>2015-06-01T18:49:25Z</time>
      </trkpt>
      <trkpt lat="48.85089" lon="2.34283">
        <ele>68</ele>
        <time>2015-06-01T18:49:29Z</time>
      </trkpt>
      <trkpt lat="48.85097" lon="2.34287">
        <ele>68</ele>
        <time>2015-06-01T18:49:30Z</time>
      </trkpt>
      <trkpt lat="48.85104" lon="2.34293">
        <ele>68</ele>
        <time>2015-06-01T18:49:31Z</time>
      </trkpt>
      <trkpt lat="48.85129" lon="2.3431">
        <ele>67.199996948242</ele>
        <time>2015-06-01T18:49:35Z</time>
      </trkpt>
      <trkpt lat="48.85136" lon="2.34323">
        <ele>67</ele>
        <time>2015-06-01T18:49:37Z</time>
      </trkpt>
      <trkpt lat="48.85136" lon="2.34332">
        <ele>66.800003051758</ele>
        <time>2015-06-01T18:49:38Z</time>
      </trkpt>
      <trkpt lat="48.85134" lon="2.3434">
        <ele>66.800003051758</ele>
        <time>2015-06-01T18:49:39Z</time>
      </trkpt>
      <trkpt lat="48.85131" lon="2.34353">
        <ele>66.199996948242</ele>
        <time>2015-06-01T18:49:41Z</time>
      </trkpt>
      <trkpt lat="48.85122" lon="2.34371">
        <ele>65</ele>
        <time>2015-06-01T18:49:45Z</time>
      </trkpt>
      <trkpt lat="48.85129" lon="2.34357">
        <ele>63.599998474121</ele>
        <time>2015-06-01T18:49:49Z</time>
      </trkpt>
      <trkpt lat="48.85137" lon="2.34336">
        <ele>62.400001525879</ele>
        <time>2015-06-01T18:49:52Z</time>
      </trkpt>
      <trkpt lat="48.85155" lon="2.34328">
        <ele>60.599998474121</ele>
        <time>2015-06-01T18:49:56Z</time>
      </trkpt>
      <trkpt lat="48.85168" lon="2.34334">
        <ele>59.79999923706</ele>
        <time>2015-06-01T18:49:58Z</time>
      </trkpt>
      <trkpt lat="48.85181" lon="2.34342">
        <ele>59.400001525879</ele>
        <time>2015-06-01T18:50:00Z</time>
      </trkpt>
      <trkpt lat="48.85187" lon="2.34346">
        <ele>59</ele>
        <time>2015-06-01T18:50:01Z</time>
      </trkpt>
      <trkpt lat="48.85213" lon="2.34359">
        <ele>57.400001525879</ele>
        <time>2015-06-01T18:50:06Z</time>
      </trkpt>
      <trkpt lat="48.8523" lon="2.34371">
        <ele>56.79999923706</ele>
        <time>2015-06-01T18:50:09Z</time>
      </trkpt>
      <trkpt lat="48.85236" lon="2.34377">
        <ele>56.599998474121</ele>
        <time>2015-06-01T18:50:10Z</time>
      </trkpt>
      <trkpt lat="48.8526" lon="2.34388">
        <ele>56</ele>
        <time>2015-06-01T18:50:15Z</time>
      </trkpt>
      <trkpt lat="48.85265" lon="2.34389">
        <ele>55.79999923706</ele>
        <time>2015-06-01T18:50:16Z</time>
      </trkpt>
      <trkpt lat="48.85284" lon="2.34397">
        <ele>56.20000076294</ele>
        <time>2015-06-01T18:50:20Z</time>
      </trkpt>
      <trkpt lat="48.85296" lon="2.34402">
        <ele>56.400001525879</ele>
        <time>2015-06-01T18:50:23Z</time>
      </trkpt>
      <trkpt lat="48.85321" lon="2.34413">
        <ele>56.79999923706</ele>
        <time>2015-06-01T18:50:29Z</time>
      </trkpt>
      <trkpt lat="48.85325" lon="2.34415">
        <ele>56.79999923706</ele>
        <time>2015-06-01T18:50:30Z</time>
      </trkpt>
      <trkpt lat="48.85329" lon="2.34417">
        <ele>57</ele>
        <time>2015-06-01T18:50:33Z</time>
      </trkpt>
      <trkpt lat="48.85331" lon="2.34415">
        <ele>57.20000076294</ele>
        <time>2015-06-01T18:50:39Z</time>
      </trkpt>
      <trkpt lat="48.8533" lon="2.34412">
        <ele>57.20000076294</ele>
        <time>2015-06-01T18:50:41Z</time>
      </trkpt>
      <trkpt lat="48.85335" lon="2.34414">
        <ele>57.20000076294</ele>
        <time>2015-06-01T18:50:45Z</time>
      </trkpt>
      <trkpt lat="48.85346" lon="2.34421">
        <ele>57.20000076294</ele>
        <time>2015-06-01T18:50:49Z</time>
      </trkpt>
      <trkpt lat="48.85363" lon="2.34434">
        <ele>57.20000076294</ele>
        <time>2015-06-01T18:50:54Z</time>
      </trkpt>
      <trkpt lat="48.8537" lon="2.34439">
        <ele>57.20000076294</ele>
        <time>2015-06-01T18:50:57Z</time>
      </trkpt>
      <trkpt lat="48.85378" lon="2.34441">
        <ele>56</ele>
        <time>2015-06-01T18:51:19Z</time>
      </trkpt>
      <trkpt lat="48.8539" lon="2.34449">
        <ele>55.79999923706</ele>
        <time>2015-06-01T18:51:23Z</time>
      </trkpt>
      <trkpt lat="48.85406" lon="2.34465">
        <ele>55.400001525879</ele>
        <time>2015-06-01T18:51:28Z</time>
      </trkpt>
      <trkpt lat="48.85418" lon="2.34478">
        <ele>54.599998474121</ele>
        <time>2015-06-01T18:51:32Z</time>
      </trkpt>
      <trkpt lat="48.85435" lon="2.34496">
        <ele>54</ele>
        <time>2015-06-01T18:51:37Z</time>
      </trkpt>
      <trkpt lat="48.85439" lon="2.345">
        <ele>53.79999923706</ele>
        <time>2015-06-01T18:51:38Z</time>
      </trkpt>
      <trkpt lat="48.85452" lon="2.34518">
        <ele>52.599998474121</ele>
        <time>2015-06-01T18:51:43Z</time>
      </trkpt>
      <trkpt lat="48.85464" lon="2.34536">
        <ele>52</ele>
        <time>2015-06-01T18:51:47Z</time>
      </trkpt>
      <trkpt lat="48.8547" lon="2.34545">
        <ele>51.79999923706</ele>
        <time>2015-06-01T18:51:49Z</time>
      </trkpt>
      <trkpt lat="48.85476" lon="2.34553">
        <ele>51.599998474121</ele>
        <time>2015-06-01T18:51:51Z</time>
      </trkpt>
      <trkpt lat="48.85487" lon="2.34575">
        <ele>51.20000076294</ele>
        <time>2015-06-01T18:51:56Z</time>
      </trkpt>
      <trkpt lat="48.85505" lon="2.34591">
        <ele>51.20000076294</ele>
        <time>2015-06-01T18:52:00Z</time>
      </trkpt>
      <trkpt lat="48.85523" lon="2.34602">
        <ele>51</ele>
        <time>2015-06-01T18:52:03Z</time>
      </trkpt>
      <trkpt lat="48.85544" lon="2.34614">
        <ele>51</ele>
        <time>2015-06-01T18:52:07Z</time>
      </trkpt>
      <trkpt lat="48.85548" lon="2.34617">
        <ele>51</ele>
        <time>2015-06-01T18:52:08Z</time>
      </trkpt>
      <trkpt lat="48.85559" lon="2.3462">
        <ele>50.79999923706</ele>
        <time>2015-06-01T18:52:12Z</time>
      </trkpt>
      <trkpt lat="48.85571" lon="2.34626">
        <ele>50.79999923706</ele>
        <time>2015-06-01T18:52:16Z</time>
      </trkpt>
      <trkpt lat="48.85592" lon="2.34645">
        <ele>50.79999923706</ele>
        <time>2015-06-01T18:52:20Z</time>
      </trkpt>
      <trkpt lat="48.85599" lon="2.34651">
        <ele>50.79999923706</ele>
        <time>2015-06-01T18:52:21Z</time>
      </trkpt>
      <trkpt lat="48.85614" lon="2.34662">
        <ele>50.79999923706</ele>
        <time>2015-06-01T18:52:23Z</time>
      </trkpt>
      <trkpt lat="48.85627" lon="2.34672">
        <ele>50.400001525879</ele>
        <time>2015-06-01T18:52:25Z</time>
      </trkpt>
      <trkpt lat="48.85653" lon="2.34686">
        <ele>49.599998474121</ele>
        <time>2015-06-01T18:52:30Z</time>
      </trkpt>
      <trkpt lat="48.85657" lon="2.34688">
        <ele>49.400001525879</ele>
        <time>2015-06-01T18:52:31Z</time>
      </trkpt>
      <trkpt lat="48.8568" lon="2.34703">
        <ele>48</ele>
        <time>2015-06-01T18:52:37Z</time>
      </trkpt>
      <trkpt lat="48.85689" lon="2.34708">
        <ele>47.400001525879</ele>
        <time>2015-06-01T18:52:40Z</time>
      </trkpt>
      <trkpt lat="48.85702" lon="2.34717">
        <ele>46</ele>
        <time>2015-06-01T18:52:45Z</time>
      </trkpt>
      <trkpt lat="48.85703" lon="2.34718">
        <ele>46</ele>
        <time>2015-06-01T18:52:46Z</time>
      </trkpt>
      <trkpt lat="48.85704" lon="2.34725">
        <ele>45.400001525879</ele>
        <time>2015-06-01T18:52:50Z</time>
      </trkpt>
      <trkpt lat="48.85705" lon="2.34726">
        <ele>44.599998474121</ele>
        <time>2015-06-01T18:52:54Z</time>
      </trkpt>
      <trkpt lat="48.85711" lon="2.34734">
        <ele>43.79999923706</ele>
        <time>2015-06-01T18:52:58Z</time>
      </trkpt>
      <trkpt lat="48.85719" lon="2.34747">
        <ele>43.20000076294</ele>
        <time>2015-06-01T18:53:02Z</time>
      </trkpt>
      <trkpt lat="48.85735" lon="2.34764">
        <ele>42.79999923706</ele>
        <time>2015-06-01T18:53:08Z</time>
      </trkpt>
      <trkpt lat="48.85754" lon="2.34775">
        <ele>42.599998474121</ele>
        <time>2015-06-01T18:53:13Z</time>
      </trkpt>
      <trkpt lat="48.85767" lon="2.34787">
        <ele>42.400001525879</ele>
        <time>2015-06-01T18:53:17Z</time>
      </trkpt>
      <trkpt lat="48.85791" lon="2.34793">
        <ele>42.400001525879</ele>
        <time>2015-06-01T18:53:23Z</time>
      </trkpt>
      <trkpt lat="48.85807" lon="2.34803">
        <ele>42.20000076294</ele>
        <time>2015-06-01T18:53:27Z</time>
      </trkpt>
      <trkpt lat="48.85811" lon="2.34806">
        <ele>42.20000076294</ele>
        <time>2015-06-01T18:53:28Z</time>
      </trkpt>
      <trkpt lat="48.85815" lon="2.34809">
        <ele>42.20000076294</ele>
        <time>2015-06-01T18:53:29Z</time>
      </trkpt>
      <trkpt lat="48.8583" lon="2.34814">
        <ele>42.20000076294</ele>
        <time>2015-06-01T18:53:33Z</time>
      </trkpt>
      <trkpt lat="48.85834" lon="2.34815">
        <ele>42.20000076294</ele>
        <time>2015-06-01T18:53:34Z</time>
      </trkpt>
      <trkpt lat="48.85846" lon="2.34821">
        <ele>42.20000076294</ele>
        <time>2015-06-01T18:53:38Z</time>
      </trkpt>
      <trkpt lat="48.85847" lon="2.34825">
        <ele>42.20000076294</ele>
        <time>2015-06-01T18:53:43Z</time>
      </trkpt>
      <trkpt lat="48.85847" lon="2.34824">
        <ele>42.20000076294</ele>
        <time>2015-06-01T18:53:58Z</time>
      </trkpt>
      <trkpt lat="48.85857" lon="2.3483">
        <ele>42.20000076294</ele>
        <time>2015-06-01T18:54:03Z</time>
      </trkpt>
      <trkpt lat="48.8586" lon="2.34832">
        <ele>42.20000076294</ele>
        <time>2015-06-01T18:54:04Z</time>
      </trkpt>
      <trkpt lat="48.85872" lon="2.34841">
        <ele>42.20000076294</ele>
        <time>2015-06-01T18:54:08Z</time>
      </trkpt>
      <trkpt lat="48.85875" lon="2.34843">
        <ele>42.20000076294</ele>
        <time>2015-06-01T18:54:09Z</time>
      </trkpt>
      <trkpt lat="48.85885" lon="2.34848">
        <ele>42.20000076294</ele>
        <time>2015-06-01T18:54:12Z</time>
      </trkpt>
      <trkpt lat="48.85903" lon="2.3486">
        <ele>43</ele>
        <time>2015-06-01T18:54:17Z</time>
      </trkpt>
      <trkpt lat="48.85912" lon="2.34865">
        <ele>43.400001525879</ele>
        <time>2015-06-01T18:54:21Z</time>
      </trkpt>
      <trkpt lat="48.85916" lon="2.34867">
        <ele>43.599998474121</ele>
        <time>2015-06-01T18:54:22Z</time>
      </trkpt>
      <trkpt lat="48.85932" lon="2.34874">
        <ele>44.599998474121</ele>
        <time>2015-06-01T18:54:26Z</time>
      </trkpt>
      <trkpt lat="48.85936" lon="2.34876">
        <ele>44.599998474121</ele>
        <time>2015-06-01T18:54:27Z</time>
      </trkpt>
      <trkpt lat="48.85949" lon="2.34882">
        <ele>45.20000076294</ele>
        <time>2015-06-01T18:54:31Z</time>
      </trkpt>
      <trkpt lat="48.8597" lon="2.34895">
        <ele>46.400001525879</ele>
        <time>2015-06-01T18:54:36Z</time>
      </trkpt>
      <trkpt lat="48.85989" lon="2.34909">
        <ele>47.20000076294</ele>
        <time>2015-06-01T18:54:40Z</time>
      </trkpt>
      <trkpt lat="48.86006" lon="2.34917">
        <ele>47.79999923706</ele>
        <time>2015-06-01T18:54:44Z</time>
      </trkpt>
      <trkpt lat="48.8601" lon="2.3492">
        <ele>48.20000076294</ele>
        <time>2015-06-01T18:54:45Z</time>
      </trkpt>
      <trkpt lat="48.86013" lon="2.34922">
        <ele>48.400001525879</ele>
        <time>2015-06-01T18:54:46Z</time>
      </trkpt>
      <trkpt lat="48.86031" lon="2.34929">
        <ele>49.400001525879</ele>
        <time>2015-06-01T18:54:51Z</time>
      </trkpt>
      <trkpt lat="48.8604" lon="2.34934">
        <ele>50</ele>
        <time>2015-06-01T18:54:53Z</time>
      </trkpt>
      <trkpt lat="48.86057" lon="2.34939">
        <ele>51</ele>
        <time>2015-06-01T18:54:57Z</time>
      </trkpt>
      <trkpt lat="48.86066" lon="2.34942">
        <ele>51.20000076294</ele>
        <time>2015-06-01T18:54:59Z</time>
      </trkpt>
      <trkpt lat="48.86089" lon="2.34956">
        <ele>52.20000076294</ele>
        <time>2015-06-01T18:55:04Z</time>
      </trkpt>
      <trkpt lat="48.86096" lon="2.34961">
        <ele>52.79999923706</ele>
        <time>2015-06-01T18:55:05Z</time>
      </trkpt>
      <trkpt lat="48.86124" lon="2.34973">
        <ele>53.599998474121</ele>
        <time>2015-06-01T18:55:10Z</time>
      </trkpt>
      <trkpt lat="48.86129" lon="2.34977">
        <ele>53.79999923706</ele>
        <time>2015-06-01T18:55:11Z</time>
      </trkpt>
      <trkpt lat="48.86146" lon="2.3499">
        <ele>54.400001525879</ele>
        <time>2015-06-01T18:55:14Z</time>
      </trkpt>
      <trkpt lat="48.8615" lon="2.34995">
        <ele>54.599998474121</ele>
        <time>2015-06-01T18:55:15Z</time>
      </trkpt>
      <trkpt lat="48.86164" lon="2.35003">
        <ele>55.20000076294</ele>
        <time>2015-06-01T18:55:18Z</time>
      </trkpt>
      <trkpt lat="48.8618" lon="2.35016">
        <ele>55.79999923706</ele>
        <time>2015-06-01T18:55:21Z</time>
      </trkpt>
      <trkpt lat="48.86197" lon="2.35024">
        <ele>56.20000076294</ele>
        <time>2015-06-01T18:55:25Z</time>
      </trkpt>
      <trkpt lat="48.86204" lon="2.35024">
        <ele>56.599998474121</ele>
        <time>2015-06-01T18:55:27Z</time>
      </trkpt>
      <trkpt lat="48.86213" lon="2.35031">
        <ele>57.400001525879</ele>
        <time>2015-06-01T18:55:31Z</time>
      </trkpt>
      <trkpt lat="48.86226" lon="2.3504">
        <ele>58</ele>
        <time>2015-06-01T18:55:35Z</time>
      </trkpt>
      <trkpt lat="48.8624" lon="2.35046">
        <ele>58.20000076294</ele>
        <time>2015-06-01T18:55:38Z</time>
      </trkpt>
      <trkpt lat="48.86249" lon="2.3505">
        <ele>58.599998474121</ele>
        <time>2015-06-01T18:55:40Z</time>
      </trkpt>
      <trkpt lat="48.86268" lon="2.35067">
        <ele>59.599998474121</ele>
        <time>2015-06-01T18:55:45Z</time>
      </trkpt>
      <trkpt lat="48.86303" lon="2.35085">
        <ele>60.400001525879</ele>
        <time>2015-06-01T18:55:52Z</time>
      </trkpt>
      <trkpt lat="48.86314" lon="2.35096">
        <ele>60.79999923706</ele>
        <time>2015-06-01T18:55:56Z</time>
      </trkpt>
      <trkpt lat="48.86331" lon="2.35101">
        <ele>61</ele>
        <time>2015-06-01T18:56:02Z</time>
      </trkpt>
      <trkpt lat="48.86332" lon="2.351">
        <ele>61</ele>
        <time>2015-06-01T18:56:03Z</time>
      </trkpt>
      <trkpt lat="48.86332" lon="2.35097">
        <ele>61</ele>
        <time>2015-06-01T18:56:05Z</time>
      </trkpt>
      <trkpt lat="48.86339" lon="2.35098">
        <ele>61</ele>
        <time>2015-06-01T18:56:09Z</time>
      </trkpt>
      <trkpt lat="48.8636" lon="2.35109">
        <ele>61.20000076294</ele>
        <time>2015-06-01T18:56:14Z</time>
      </trkpt>
      <trkpt lat="48.86377" lon="2.35123">
        <ele>61.599998474121</ele>
        <time>2015-06-01T18:56:18Z</time>
      </trkpt>
      <trkpt lat="48.86397" lon="2.35133">
        <ele>62</ele>
        <time>2015-06-01T18:56:22Z</time>
      </trkpt>
      <trkpt lat="48.86416" lon="2.35144">
        <ele>62.400001525879</ele>
        <time>2015-06-01T18:56:26Z</time>
      </trkpt>
      <trkpt lat="48.8642" lon="2.35146">
        <ele>62.599998474121</ele>
        <time>2015-06-01T18:56:27Z</time>
      </trkpt>
      <trkpt lat="48.86437" lon="2.35155">
        <ele>63.400001525879</ele>
        <time>2015-06-01T18:56:31Z</time>
      </trkpt>
      <trkpt lat="48.86448" lon="2.35168">
        <ele>63.79999923706</ele>
        <time>2015-06-01T18:56:34Z</time>
      </trkpt>
      <trkpt lat="48.86453" lon="2.35172">
        <ele>64.199996948242</ele>
        <time>2015-06-01T18:56:36Z</time>
      </trkpt>
      <trkpt lat="48.86455" lon="2.35174">
        <ele>64.599998474121</ele>
        <time>2015-06-01T18:56:40Z</time>
      </trkpt>
      <trkpt lat="48.86456" lon="2.35173">
        <ele>65.199996948242</ele>
        <time>2015-06-01T18:56:44Z</time>
      </trkpt>
      <trkpt lat="48.86457" lon="2.35173">
        <ele>65.400001525879</ele>
        <time>2015-06-01T18:56:45Z</time>
      </trkpt>
      <trkpt lat="48.865" lon="2.35189">
        <ele>68.199996948242</ele>
        <time>2015-06-01T18:56:56Z</time>
      </trkpt>
      <trkpt lat="48.86506" lon="2.35194">
        <ele>68.599998474121</ele>
        <time>2015-06-01T18:56:57Z</time>
      </trkpt>
      <trkpt lat="48.86519" lon="2.35202">
        <ele>69.199996948242</ele>
        <time>2015-06-01T18:56:59Z</time>
      </trkpt>
      <trkpt lat="48.86531" lon="2.35208">
        <ele>69.800003051758</ele>
        <time>2015-06-01T18:57:01Z</time>
      </trkpt>
      <trkpt lat="48.86549" lon="2.35214">
        <ele>70.400001525879</ele>
        <time>2015-06-01T18:57:04Z</time>
      </trkpt>
      <trkpt lat="48.86576" lon="2.3523">
        <ele>71</ele>
        <time>2015-06-01T18:57:09Z</time>
      </trkpt>
      <trkpt lat="48.86595" lon="2.35245">
        <ele>71.599998474121</ele>
        <time>2015-06-01T18:57:13Z</time>
      </trkpt>
      <trkpt lat="48.86607" lon="2.35254">
        <ele>72.199996948242</ele>
        <time>2015-06-01T18:57:16Z</time>
      </trkpt>
      <trkpt lat="48.86618" lon="2.35262">
        <ele>72.800003051758</ele>
        <time>2015-06-01T18:57:20Z</time>
      </trkpt>
      <trkpt lat="48.8662" lon="2.35264">
        <ele>73</ele>
        <time>2015-06-01T18:57:21Z</time>
      </trkpt>
      <trkpt lat="48.86621" lon="2.35267">
        <ele>73</ele>
        <time>2015-06-01T18:57:22Z</time>
      </trkpt>
      <trkpt lat="48.8662" lon="2.35265">
        <ele>73.400001525879</ele>
        <time>2015-06-01T18:57:27Z</time>
      </trkpt>
      <trkpt lat="48.8662" lon="2.35262">
        <ele>73.599998474121</ele>
        <time>2015-06-01T18:57:31Z</time>
      </trkpt>
      <trkpt lat="48.8663" lon="2.35264">
        <ele>73.800003051758</ele>
        <time>2015-06-01T18:57:36Z</time>
      </trkpt>
      <trkpt lat="48.86641" lon="2.35272">
        <ele>73.599998474121</ele>
        <time>2015-06-01T18:57:40Z</time>
      </trkpt>
      <trkpt lat="48.86656" lon="2.35278">
        <ele>73</ele>
        <time>2015-06-01T18:57:44Z</time>
      </trkpt>
      <trkpt lat="48.86674" lon="2.35288">
        <ele>72.599998474121</ele>
        <time>2015-06-01T18:57:48Z</time>
      </trkpt>
      <trkpt lat="48.86688" lon="2.35297">
        <ele>72.400001525879</ele>
        <time>2015-06-01T18:57:52Z</time>
      </trkpt>
      <trkpt lat="48.86703" lon="2.35305">
        <ele>72.400001525879</ele>
        <time>2015-06-01T18:57:54Z</time>
      </trkpt>
      <trkpt lat="48.86738" lon="2.35328">
        <ele>72.199996948242</ele>
        <time>2015-06-01T18:58:01Z</time>
      </trkpt>
      <trkpt lat="48.86757" lon="2.35341">
        <ele>72.199996948242</ele>
        <time>2015-06-01T18:58:05Z</time>
      </trkpt>
      <trkpt lat="48.86761" lon="2.35344">
        <ele>72.199996948242</ele>
        <time>2015-06-01T18:58:06Z</time>
      </trkpt>
      <trkpt lat="48.86779" lon="2.35356">
        <ele>72</ele>
        <time>2015-06-01T18:58:11Z</time>
      </trkpt>
      <trkpt lat="48.86786" lon="2.35361">
        <ele>72.400001525879</ele>
        <time>2015-06-01T18:58:13Z</time>
      </trkpt>
      <trkpt lat="48.86793" lon="2.35363">
        <ele>72.800003051758</ele>
        <time>2015-06-01T18:58:15Z</time>
      </trkpt>
      <trkpt lat="48.86806" lon="2.35368">
        <ele>73.199996948242</ele>
        <time>2015-06-01T18:58:18Z</time>
      </trkpt>
      <trkpt lat="48.86816" lon="2.35376">
        <ele>73.199996948242</ele>
        <time>2015-06-01T18:58:20Z</time>
      </trkpt>
      <trkpt lat="48.86835" lon="2.35387">
        <ele>73.599998474121</ele>
        <time>2015-06-01T18:58:24Z</time>
      </trkpt>
      <trkpt lat="48.86855" lon="2.35392">
        <ele>73.800003051758</ele>
        <time>2015-06-01T18:58:29Z</time>
      </trkpt>
      <trkpt lat="48.86868" lon="2.35396">
        <ele>73.800003051758</ele>
        <time>2015-06-01T18:58:33Z</time>
      </trkpt>
      <trkpt lat="48.86871" lon="2.35397">
        <ele>73.800003051758</ele>
        <time>2015-06-01T18:58:34Z</time>
      </trkpt>
      <trkpt lat="48.86895" lon="2.35404">
        <ele>74</ele>
        <time>2015-06-01T18:58:41Z</time>
      </trkpt>
      <trkpt lat="48.86911" lon="2.35417">
        <ele>74</ele>
        <time>2015-06-01T18:58:47Z</time>
      </trkpt>
      <trkpt lat="48.86914" lon="2.35418">
        <ele>74</ele>
        <time>2015-06-01T18:58:51Z</time>
      </trkpt>
      <trkpt lat="48.86911" lon="2.35416">
        <ele>74</ele>
        <time>2015-06-01T18:58:54Z</time>
      </trkpt>
      <trkpt lat="48.86905" lon="2.35412">
        <ele>74</ele>
        <time>2015-06-01T18:59:00Z</time>
      </trkpt>
      <trkpt lat="48.86904" lon="2.3541">
        <ele>73.800003051758</ele>
        <time>2015-06-01T18:59:02Z</time>
      </trkpt>
      <trkpt lat="48.86901" lon="2.35397">
        <ele>73.400001525879</ele>
        <time>2015-06-01T18:59:05Z</time>
      </trkpt>
      <trkpt lat="48.86904" lon="2.35364">
        <ele>72.599998474121</ele>
        <time>2015-06-01T18:59:12Z</time>
      </trkpt>
      <trkpt lat="48.86907" lon="2.35337">
        <ele>72</ele>
        <time>2015-06-01T18:59:17Z</time>
      </trkpt>
      <trkpt lat="48.86912" lon="2.35323">
        <ele>71.400001525879</ele>
        <time>2015-06-01T18:59:20Z</time>
      </trkpt>
      <trkpt lat="48.8691" lon="2.35296">
        <ele>70.599998474121</ele>
        <time>2015-06-01T18:59:25Z</time>
      </trkpt>
      <trkpt lat="48.86911" lon="2.35274">
        <ele>69.599998474121</ele>
        <time>2015-06-01T18:59:29Z</time>
      </trkpt>
      <trkpt lat="48.86916" lon="2.35247">
        <ele>68</ele>
        <time>2015-06-01T18:59:35Z</time>
      </trkpt>
      <trkpt lat="48.86927" lon="2.3524">
        <ele>67.199996948242</ele>
        <time>2015-06-01T18:59:39Z</time>
      </trkpt>
      <trkpt lat="48.86929" lon="2.35241">
        <ele>67</ele>
        <time>2015-06-01T18:59:40Z</time>
      </trkpt>
      <trkpt lat="48.86929" lon="2.35231">
        <ele>66.599998474121</ele>
        <time>2015-06-01T18:59:44Z</time>
      </trkpt>
      <trkpt lat="48.86928" lon="2.35228">
        <ele>66.400001525879</ele>
        <time>2015-06-01T18:59:45Z</time>
      </trkpt>
      <trkpt lat="48.86922" lon="2.35213">
        <ele>66</ele>
        <time>2015-06-01T18:59:51Z</time>
      </trkpt>
      <trkpt lat="48.86918" lon="2.35201">
        <ele>66.199996948242</ele>
        <time>2015-06-01T18:59:55Z</time>
      </trkpt>
      <trkpt lat="48.86912" lon="2.3518">
        <ele>67</ele>
        <time>2015-06-01T19:00:01Z</time>
      </trkpt>
      <trkpt lat="48.86909" lon="2.35174">
        <ele>67.400001525879</ele>
        <time>2015-06-01T19:00:03Z</time>
      </trkpt>
      <trkpt lat="48.8691" lon="2.35172">
        <ele>68.400001525879</ele>
        <time>2015-06-01T19:00:08Z</time>
      </trkpt>
      <trkpt lat="48.86919" lon="2.35161">
        <ele>69</ele>
        <time>2015-06-01T19:00:15Z</time>
      </trkpt>
      <trkpt lat="48.86926" lon="2.35154">
        <ele>69.199996948242</ele>
        <time>2015-06-01T19:00:19Z</time>
      </trkpt>
      <trkpt lat="48.86927" lon="2.35152">
        <ele>69.400001525879</ele>
        <time>2015-06-01T19:00:20Z</time>
      </trkpt>
      <trkpt lat="48.86935" lon="2.35148">
        <ele>69.599998474121</ele>
        <time>2015-06-01T19:00:26Z</time>
      </trkpt>
      <trkpt lat="48.86947" lon="2.35143">
        <ele>69.599998474121</ele>
        <time>2015-06-01T19:00:31Z</time>
      </trkpt>
      <trkpt lat="48.86949" lon="2.35141">
        <ele>69.599998474121</ele>
        <time>2015-06-01T19:00:32Z</time>
      </trkpt>
      <trkpt lat="48.86949" lon="2.35137">
        <ele>69.599998474121</ele>
        <time>2015-06-01T19:00:33Z</time>
      </trkpt>
      <trkpt lat="48.86951" lon="2.35134">
        <ele>69.599998474121</ele>
        <time>2015-06-01T19:00:34Z</time>
      </trkpt>
      <trkpt lat="48.86951" lon="2.35116">
        <ele>69.599998474121</ele>
        <time>2015-06-01T19:00:40Z</time>
      </trkpt>
      <trkpt lat="48.86951" lon="2.35105">
        <ele>69.800003051758</ele>
        <time>2015-06-01T19:00:44Z</time>
      </trkpt>
      <trkpt lat="48.86951" lon="2.35098">
        <ele>69.800003051758</ele>
        <time>2015-06-01T19:00:47Z</time>
      </trkpt>
      <trkpt lat="48.8695" lon="2.35095">
        <ele>69.800003051758</ele>
        <time>2015-06-01T19:00:49Z</time>
      </trkpt>
      <trkpt lat="48.86948" lon="2.35075">
        <ele>69.800003051758</ele>
        <time>2015-06-01T19:00:54Z</time>
      </trkpt>
      <trkpt lat="48.86946" lon="2.35071">
        <ele>69.800003051758</ele>
        <time>2015-06-01T19:00:55Z</time>
      </trkpt>
      <trkpt lat="48.86941" lon="2.35046">
        <ele>69.599998474121</ele>
        <time>2015-06-01T19:01:00Z</time>
      </trkpt>
      <trkpt lat="48.86941" lon="2.35044">
        <ele>69.400001525879</ele>
        <time>2015-06-01T19:01:01Z</time>
      </trkpt>
      <trkpt lat="48.86938" lon="2.35028">
        <ele>68.599998474121</ele>
        <time>2015-06-01T19:01:07Z</time>
      </trkpt>
      <trkpt lat="48.86936" lon="2.35021">
        <ele>68.400001525879</ele>
        <time>2015-06-01T19:01:09Z</time>
      </trkpt>
      <trkpt lat="48.86934" lon="2.35007">
        <ele>68.199996948242</ele>
        <time>2015-06-01T19:01:12Z</time>
      </trkpt>
      <trkpt lat="48.86932" lon="2.35">
        <ele>67.800003051758</ele>
        <time>2015-06-01T19:01:14Z</time>
      </trkpt>
      <trkpt lat="48.86936" lon="2.34997">
        <ele>67</ele>
        <time>2015-06-01T19:01:18Z</time>
      </trkpt>
      <trkpt lat="48.86937" lon="2.34997">
        <ele>66.800003051758</ele>
        <time>2015-06-01T19:01:19Z</time>
      </trkpt>
      <trkpt lat="48.86939" lon="2.34997">
        <ele>66.599998474121</ele>
        <time>2015-06-01T19:01:20Z</time>
      </trkpt>
      <trkpt lat="48.86949" lon="2.34999">
        <ele>66</ele>
        <time>2015-06-01T19:01:26Z</time>
      </trkpt>
      <trkpt lat="48.86957" lon="2.34998">
        <ele>65.800003051758</ele>
        <time>2015-06-01T19:01:29Z</time>
      </trkpt>
      <trkpt lat="48.86964" lon="2.34997">
        <ele>65.800003051758</ele>
        <time>2015-06-01T19:01:31Z</time>
      </trkpt>
      <trkpt lat="48.86972" lon="2.35004">
        <ele>65.599998474121</ele>
        <time>2015-06-01T19:01:35Z</time>
      </trkpt>
      <trkpt lat="48.86973" lon="2.35005">
        <ele>65.599998474121</ele>
        <time>2015-06-01T19:01:36Z</time>
      </trkpt>
      <trkpt lat="48.86974" lon="2.35008">
        <ele>65.400001525879</ele>
        <time>2015-06-01T19:01:42Z</time>
      </trkpt>
      <trkpt lat="48.86975" lon="2.35008">
        <ele>65.400001525879</ele>
        <time>2015-06-01T19:01:43Z</time>
      </trkpt>
      <trkpt lat="48.86978" lon="2.35008">
        <ele>65.400001525879</ele>
        <time>2015-06-01T19:01:48Z</time>
      </trkpt>
      <trkpt lat="48.86979" lon="2.35002">
        <ele>65.400001525879</ele>
        <time>2015-06-01T19:01:58Z</time>
      </trkpt>
      <trkpt lat="48.86979" lon="2.34998">
        <ele>65.400001525879</ele>
        <time>2015-06-01T19:02:07Z</time>
      </trkpt>
      <trkpt lat="48.86981" lon="2.34997">
        <ele>65.400001525879</ele>
        <time>2015-06-01T19:02:17Z</time>
      </trkpt>
      <trkpt lat="48.8698" lon="2.34995">
        <ele>65.400001525879</ele>
        <time>2015-06-01T19:02:30Z</time>
      </trkpt>
      <trkpt lat="48.8698" lon="2.34995">
        <ele>65.400001525879</ele>
        <time>2015-06-01T19:02:32Z</time>
      </trkpt>
      <trkpt lat="48.86982" lon="2.34995">
        <ele>65.400001525879</ele>
        <time>2015-06-01T19:02:38Z</time>
      </trkpt>
      <trkpt lat="48.86987" lon="2.35">
        <ele>67.400001525879</ele>
        <time>2015-06-01T19:03:33Z</time>
      </trkpt>
      <trkpt lat="48.86984" lon="2.34998">
        <ele>67.400001525879</ele>
        <time>2015-06-01T19:03:40Z</time>
      </trkpt>
      <trkpt lat="48.86981" lon="2.34998">
        <ele>67.400001525879</ele>
        <time>2015-06-01T19:04:01Z</time>
      </trkpt>
      <trkpt lat="48.86981" lon="2.34996">
        <ele>65.599998474121</ele>
        <time>2015-06-01T19:04:39Z</time>
      </trkpt>
      <trkpt lat="48.86979" lon="2.34995">
        <ele>65.400001525879</ele>
        <time>2015-06-01T19:04:52Z</time>
      </trkpt>
      <trkpt lat="48.86979" lon="2.34998">
        <ele>65.199996948242</ele>
        <time>2015-06-01T19:05:13Z</time>
      </trkpt>
      <trkpt lat="48.86976" lon="2.34993">
        <ele>65.199996948242</ele>
        <time>2015-06-01T19:05:22Z</time>
      </trkpt>
      <trkpt lat="48.86975" lon="2.34994">
        <ele>65.199996948242</ele>
        <time>2015-06-01T19:05:29Z</time>
      </trkpt>
      <trkpt lat="48.86978" lon="2.34997">
        <ele>65.199996948242</ele>
        <time>2015-06-01T19:05:47Z</time>
      </trkpt>
      <trkpt lat="48.86976" lon="2.34999">
        <ele>65.199996948242</ele>
        <time>2015-06-01T19:06:04Z</time>
      </trkpt>
      <trkpt lat="48.86976" lon="2.34994">
        <ele>65.199996948242</ele>
        <time>2015-06-01T19:06:12Z</time>
      </trkpt>
      <trkpt lat="48.86978" lon="2.34998">
        <ele>65.199996948242</ele>
        <time>2015-06-01T19:06:35Z</time>
      </trkpt>
      <trkpt lat="48.86977" lon="2.34998">
        <ele>66</ele>
        <time>2015-06-01T19:06:53Z</time>
      </trkpt>
      <trkpt lat="48.86974" lon="2.34996">
        <ele>71.400001525879</ele>
        <time>2015-06-01T19:08:04Z</time>
      </trkpt>
      <trkpt lat="48.86978" lon="2.34997">
        <ele>69.599998474121</ele>
        <time>2015-06-01T19:09:04Z</time>
      </trkpt>
      <trkpt lat="48.86979" lon="2.34997">
        <ele>69.599998474121</ele>
        <time>2015-06-01T19:09:14Z</time>
      </trkpt>
      <trkpt lat="48.86979" lon="2.34996">
        <ele>69.400001525879</ele>
        <time>2015-06-01T19:09:30Z</time>
      </trkpt>
      <trkpt lat="48.86976" lon="2.34997">
        <ele>71.199996948242</ele>
        <time>2015-06-01T19:09:54Z</time>
      </trkpt>
      <trkpt lat="48.86977" lon="2.34997">
        <ele>71.400001525879</ele>
        <time>2015-06-01T19:10:02Z</time>
      </trkpt>
      <trkpt lat="48.86975" lon="2.34997">
        <ele>73.199996948242</ele>
        <time>2015-06-01T19:10:26Z</time>
      </trkpt>
      <trkpt lat="48.86975" lon="2.34999">
        <ele>73.400001525879</ele>
        <time>2015-06-01T19:10:34Z</time>
      </trkpt>
      <trkpt lat="48.86977" lon="2.35002">
        <ele>75.199996948242</ele>
        <time>2015-06-01T19:10:52Z</time>
      </trkpt>
      <trkpt lat="48.86973" lon="2.35002">
        <ele>75.400001525879</ele>
        <time>2015-06-01T19:11:02Z</time>
      </trkpt>
      <trkpt lat="48.86975" lon="2.35004">
        <ele>75.400001525879</ele>
        <time>2015-06-01T19:11:08Z</time>
      </trkpt>
      <trkpt lat="48.8698" lon="2.35011">
        <ele>75.400001525879</ele>
        <time>2015-06-01T19:11:13Z</time>
      </trkpt>
      <trkpt lat="48.86983" lon="2.35009">
        <ele>75.400001525879</ele>
        <time>2015-06-01T19:11:19Z</time>
      </trkpt>
      <trkpt lat="48.86984" lon="2.35009">
        <ele>75.400001525879</ele>
        <time>2015-06-01T19:11:20Z</time>
      </trkpt>
      <trkpt lat="48.86989" lon="2.35008">
        <ele>75.400001525879</ele>
        <time>2015-06-01T19:11:25Z</time>
      </trkpt>
      <trkpt lat="48.86991" lon="2.35008">
        <ele>75.400001525879</ele>
        <time>2015-06-01T19:11:26Z</time>
      </trkpt>
      <trkpt lat="48.86998" lon="2.35001">
        <ele>75.400001525879</ele>
        <time>2015-06-01T19:11:32Z</time>
      </trkpt>
      <trkpt lat="48.86998" lon="2.34998">
        <ele>75.400001525879</ele>
        <time>2015-06-01T19:11:34Z</time>
      </trkpt>
      <trkpt lat="48.87" lon="2.34997">
        <ele>75.400001525879</ele>
        <time>2015-06-01T19:11:35Z</time>
      </trkpt>
      <trkpt lat="48.87003" lon="2.34994">
        <ele>75.400001525879</ele>
        <time>2015-06-01T19:11:37Z</time>
      </trkpt>
      <trkpt lat="48.87008" lon="2.34993">
        <ele>75.599998474121</ele>
        <time>2015-06-01T19:11:44Z</time>
      </trkpt>
      <trkpt lat="48.87005" lon="2.34991">
        <ele>76.599998474121</ele>
        <time>2015-06-01T19:11:50Z</time>
      </trkpt>
      <trkpt lat="48.87004" lon="2.34992">
        <ele>77.199996948242</ele>
        <time>2015-06-01T19:12:03Z</time>
      </trkpt>
      <trkpt lat="48.87009" lon="2.34994">
        <ele>77.400001525879</ele>
        <time>2015-06-01T19:12:08Z</time>
      </trkpt>
      <trkpt lat="48.87007" lon="2.34992">
        <ele>77.400001525879</ele>
        <time>2015-06-01T19:12:09Z</time>
      </trkpt>
      <trkpt lat="48.87004" lon="2.3499">
        <ele>77.400001525879</ele>
        <time>2015-06-01T19:12:13Z</time>
      </trkpt>
      <trkpt lat="48.87002" lon="2.34982">
        <ele>77.400001525879</ele>
        <time>2015-06-01T19:12:28Z</time>
      </trkpt>
      <trkpt lat="48.86998" lon="2.34975">
        <ele>77.400001525879</ele>
        <time>2015-06-01T19:12:32Z</time>
      </trkpt>
      <trkpt lat="48.86996" lon="2.34973">
        <ele>77.400001525879</ele>
        <time>2015-06-01T19:12:34Z</time>
      </trkpt>
      <trkpt lat="48.86993" lon="2.34977">
        <ele>76.400001525879</ele>
        <time>2015-06-01T19:12:43Z</time>
      </trkpt>
      <trkpt lat="48.86993" lon="2.34979">
        <ele>76</ele>
        <time>2015-06-01T19:12:49Z</time>
      </trkpt>
      <trkpt lat="48.86995" lon="2.34981">
        <ele>75.800003051758</ele>
        <time>2015-06-01T19:12:52Z</time>
      </trkpt>
      <trkpt lat="48.86996" lon="2.34985">
        <ele>74.800003051758</ele>
        <time>2015-06-01T19:12:59Z</time>
      </trkpt>
      <trkpt lat="48.87006" lon="2.34986">
        <ele>73.800003051758</ele>
        <time>2015-06-01T19:13:11Z</time>
      </trkpt>
      <trkpt lat="48.87007" lon="2.34986">
        <ele>73.800003051758</ele>
        <time>2015-06-01T19:13:12Z</time>
      </trkpt>
      <trkpt lat="48.87008" lon="2.34985">
        <ele>73.599998474121</ele>
        <time>2015-06-01T19:13:17Z</time>
      </trkpt>
      <trkpt lat="48.86998" lon="2.34982">
        <ele>73.599998474121</ele>
        <time>2015-06-01T19:13:26Z</time>
      </trkpt>
      <trkpt lat="48.86993" lon="2.34979">
        <ele>73.599998474121</ele>
        <time>2015-06-01T19:13:29Z</time>
      </trkpt>
      <trkpt lat="48.86987" lon="2.34977">
        <ele>73.599998474121</ele>
        <time>2015-06-01T19:13:35Z</time>
      </trkpt>
      <trkpt lat="48.86986" lon="2.34978">
        <ele>73.599998474121</ele>
        <time>2015-06-01T19:13:36Z</time>
      </trkpt>
      <trkpt lat="48.86983" lon="2.3498">
        <ele>73.400001525879</ele>
        <time>2015-06-01T19:13:40Z</time>
      </trkpt>
      <trkpt lat="48.8698" lon="2.34978">
        <ele>74.400001525879</ele>
        <time>2015-06-01T19:13:46Z</time>
      </trkpt>
      <trkpt lat="48.86982" lon="2.34977">
        <ele>74.800003051758</ele>
        <time>2015-06-01T19:13:50Z</time>
      </trkpt>
      <trkpt lat="48.86986" lon="2.34975">
        <ele>75</ele>
        <time>2015-06-01T19:13:54Z</time>
      </trkpt>
      <trkpt lat="48.86987" lon="2.34977">
        <ele>75</ele>
        <time>2015-06-01T19:13:55Z</time>
      </trkpt>
      <trkpt lat="48.86988" lon="2.34977">
        <ele>75</ele>
        <time>2015-06-01T19:13:56Z</time>
      </trkpt>
      <trkpt lat="48.86986" lon="2.34979">
        <ele>75.199996948242</ele>
        <time>2015-06-01T19:13:59Z</time>
      </trkpt>
      <trkpt lat="48.86986" lon="2.34998">
        <ele>75.400001525879</ele>
        <time>2015-06-01T19:14:13Z</time>
      </trkpt>
      <trkpt lat="48.86986" lon="2.35004">
        <ele>75.400001525879</ele>
        <time>2015-06-01T19:14:18Z</time>
      </trkpt>
      <trkpt lat="48.86982" lon="2.35005">
        <ele>76.800003051758</ele>
        <time>2015-06-01T19:14:27Z</time>
      </trkpt>
      <trkpt lat="48.86979" lon="2.35004">
        <ele>77</ele>
        <time>2015-06-01T19:14:31Z</time>
      </trkpt>
      <trkpt lat="48.86978" lon="2.35005">
        <ele>77.199996948242</ele>
        <time>2015-06-01T19:14:36Z</time>
      </trkpt>
      <trkpt lat="48.86978" lon="2.35008">
        <ele>77.400001525879</ele>
        <time>2015-06-01T19:14:37Z</time>
      </trkpt>
      <trkpt lat="48.86976" lon="2.35024">
        <ele>77.400001525879</ele>
        <time>2015-06-01T19:14:43Z</time>
      </trkpt>
      <trkpt lat="48.86977" lon="2.35048">
        <ele>77.599998474121</ele>
        <time>2015-06-01T19:14:50Z</time>
      </trkpt>
      <trkpt lat="48.86979" lon="2.35077">
        <ele>77.599998474121</ele>
        <time>2015-06-01T19:14:56Z</time>
      </trkpt>
      <trkpt lat="48.86981" lon="2.35107">
        <ele>76.800003051758</ele>
        <time>2015-06-01T19:15:01Z</time>
      </trkpt>
      <trkpt lat="48.86982" lon="2.35119">
        <ele>76.400001525879</ele>
        <time>2015-06-01T19:15:04Z</time>
      </trkpt>
      <trkpt lat="48.86982" lon="2.35125">
        <ele>76.199996948242</ele>
        <time>2015-06-01T19:15:06Z</time>
      </trkpt>
      <trkpt lat="48.8699" lon="2.35148">
        <ele>76</ele>
        <time>2015-06-01T19:15:11Z</time>
      </trkpt>
      <trkpt lat="48.86999" lon="2.35161">
        <ele>75.199996948242</ele>
        <time>2015-06-01T19:15:15Z</time>
      </trkpt>
      <trkpt lat="48.87" lon="2.35165">
        <ele>75</ele>
        <time>2015-06-01T19:15:16Z</time>
      </trkpt>
      <trkpt lat="48.87" lon="2.35189">
        <ele>74</ele>
        <time>2015-06-01T19:15:21Z</time>
      </trkpt>
      <trkpt lat="48.86994" lon="2.35217">
        <ele>72.599998474121</ele>
        <time>2015-06-01T19:15:27Z</time>
      </trkpt>
      <trkpt lat="48.86992" lon="2.35239">
        <ele>71.199996948242</ele>
        <time>2015-06-01T19:15:32Z</time>
      </trkpt>
      <trkpt lat="48.86991" lon="2.35243">
        <ele>69.199996948242</ele>
        <time>2015-06-01T19:15:38Z</time>
      </trkpt>
      <trkpt lat="48.86987" lon="2.35248">
        <ele>68.199996948242</ele>
        <time>2015-06-01T19:15:41Z</time>
      </trkpt>
      <trkpt lat="48.8697" lon="2.35253">
        <ele>65.800003051758</ele>
        <time>2015-06-01T19:15:47Z</time>
      </trkpt>
      <trkpt lat="48.86952" lon="2.35244">
        <ele>63.79999923706</ele>
        <time>2015-06-01T19:15:52Z</time>
      </trkpt>
      <trkpt lat="48.86934" lon="2.35265">
        <ele>59.20000076294</ele>
        <time>2015-06-01T19:16:03Z</time>
      </trkpt>
      <trkpt lat="48.86929" lon="2.35285">
        <ele>58.20000076294</ele>
        <time>2015-06-01T19:16:07Z</time>
      </trkpt>
      <trkpt lat="48.86924" lon="2.35303">
        <ele>57.20000076294</ele>
        <time>2015-06-01T19:16:11Z</time>
      </trkpt>
      <trkpt lat="48.8692" lon="2.35326">
        <ele>56</ele>
        <time>2015-06-01T19:16:16Z</time>
      </trkpt>
      <trkpt lat="48.86916" lon="2.35349">
        <ele>55.20000076294</ele>
        <time>2015-06-01T19:16:21Z</time>
      </trkpt>
      <trkpt lat="48.86908" lon="2.35375">
        <ele>54.599998474121</ele>
        <time>2015-06-01T19:16:27Z</time>
      </trkpt>
      <trkpt lat="48.86902" lon="2.35392">
        <ele>53.599998474121</ele>
        <time>2015-06-01T19:16:33Z</time>
      </trkpt>
      <trkpt lat="48.86899" lon="2.35397">
        <ele>53.20000076294</ele>
        <time>2015-06-01T19:16:36Z</time>
      </trkpt>
      <trkpt lat="48.86896" lon="2.35404">
        <ele>52.79999923706</ele>
        <time>2015-06-01T19:16:39Z</time>
      </trkpt>
      <trkpt lat="48.86887" lon="2.35415">
        <ele>52.400001525879</ele>
        <time>2015-06-01T19:16:45Z</time>
      </trkpt>
      <trkpt lat="48.86888" lon="2.35417">
        <ele>52.400001525879</ele>
        <time>2015-06-01T19:16:46Z</time>
      </trkpt>
      <trkpt lat="48.8689" lon="2.35438">
        <ele>52.20000076294</ele>
        <time>2015-06-01T19:16:53Z</time>
      </trkpt>
      <trkpt lat="48.8689" lon="2.35442">
        <ele>52</ele>
        <time>2015-06-01T19:16:54Z</time>
      </trkpt>
      <trkpt lat="48.86889" lon="2.3545">
        <ele>52</ele>
        <time>2015-06-01T19:16:57Z</time>
      </trkpt>
      <trkpt lat="48.86889" lon="2.35474">
        <ele>52</ele>
        <time>2015-06-01T19:17:03Z</time>
      </trkpt>
      <trkpt lat="48.86887" lon="2.35486">
        <ele>52</ele>
        <time>2015-06-01T19:17:06Z</time>
      </trkpt>
      <trkpt lat="48.8688" lon="2.35512">
        <ele>52</ele>
        <time>2015-06-01T19:17:12Z</time>
      </trkpt>
      <trkpt lat="48.86875" lon="2.35529">
        <ele>52</ele>
        <time>2015-06-01T19:17:17Z</time>
      </trkpt>
      <trkpt lat="48.86875" lon="2.35532">
        <ele>52</ele>
        <time>2015-06-01T19:17:18Z</time>
      </trkpt>
      <trkpt lat="48.86872" lon="2.3554">
        <ele>52</ele>
        <time>2015-06-01T19:17:23Z</time>
      </trkpt>
      <trkpt lat="48.86872" lon="2.3554">
        <ele>52</ele>
        <time>2015-06-01T19:17:24Z</time>
      </trkpt>
      <trkpt lat="48.86864" lon="2.35541">
        <ele>53.400001525879</ele>
        <time>2015-06-01T19:17:37Z</time>
      </trkpt>
      <trkpt lat="48.86851" lon="2.35534">
        <ele>54.20000076294</ele>
        <time>2015-06-01T19:17:44Z</time>
      </trkpt>
      <trkpt lat="48.86822" lon="2.35518">
        <ele>56</ele>
        <time>2015-06-01T19:17:54Z</time>
      </trkpt>
      <trkpt lat="48.86802" lon="2.35509">
        <ele>57</ele>
        <time>2015-06-01T19:18:00Z</time>
      </trkpt>
      <trkpt lat="48.86784" lon="2.355">
        <ele>58</ele>
        <time>2015-06-01T19:18:05Z</time>
      </trkpt>
      <trkpt lat="48.86765" lon="2.35488">
        <ele>58.79999923706</ele>
        <time>2015-06-01T19:18:10Z</time>
      </trkpt>
      <trkpt lat="48.86746" lon="2.35475">
        <ele>59.400001525879</ele>
        <time>2015-06-01T19:18:15Z</time>
      </trkpt>
      <trkpt lat="48.86728" lon="2.35462">
        <ele>59.599998474121</ele>
        <time>2015-06-01T19:18:20Z</time>
      </trkpt>
      <trkpt lat="48.86709" lon="2.35448">
        <ele>59.79999923706</ele>
        <time>2015-06-01T19:18:25Z</time>
      </trkpt>
      <trkpt lat="48.86691" lon="2.35436">
        <ele>60</ele>
        <time>2015-06-01T19:18:30Z</time>
      </trkpt>
      <trkpt lat="48.8667" lon="2.35424">
        <ele>59</ele>
        <time>2015-06-01T19:18:36Z</time>
      </trkpt>
      <trkpt lat="48.86653" lon="2.35413">
        <ele>58.20000076294</ele>
        <time>2015-06-01T19:18:40Z</time>
      </trkpt>
      <trkpt lat="48.86635" lon="2.35402">
        <ele>57.20000076294</ele>
        <time>2015-06-01T19:18:46Z</time>
      </trkpt>
      <trkpt lat="48.86618" lon="2.35393">
        <ele>56</ele>
        <time>2015-06-01T19:18:51Z</time>
      </trkpt>
      <trkpt lat="48.86614" lon="2.35391">
        <ele>55.400001525879</ele>
        <time>2015-06-01T19:18:54Z</time>
      </trkpt>
      <trkpt lat="48.86608" lon="2.35391">
        <ele>54.400001525879</ele>
        <time>2015-06-01T19:19:01Z</time>
      </trkpt>
      <trkpt lat="48.86605" lon="2.35391">
        <ele>54.400001525879</ele>
        <time>2015-06-01T19:19:05Z</time>
      </trkpt>
      <trkpt lat="48.86599" lon="2.35394">
        <ele>55</ele>
        <time>2015-06-01T19:19:11Z</time>
      </trkpt>
      <trkpt lat="48.86591" lon="2.35397">
        <ele>55.79999923706</ele>
        <time>2015-06-01T19:19:15Z</time>
      </trkpt>
      <trkpt lat="48.86588" lon="2.35405">
        <ele>56.20000076294</ele>
        <time>2015-06-01T19:19:17Z</time>
      </trkpt>
      <trkpt lat="48.86591" lon="2.35418">
        <ele>56.79999923706</ele>
        <time>2015-06-01T19:19:20Z</time>
      </trkpt>
      <trkpt lat="48.86589" lon="2.35436">
        <ele>57.20000076294</ele>
        <time>2015-06-01T19:19:24Z</time>
      </trkpt>
      <trkpt lat="48.86584" lon="2.35459">
        <ele>58.20000076294</ele>
        <time>2015-06-01T19:19:29Z</time>
      </trkpt>
      <trkpt lat="48.86584" lon="2.35466">
        <ele>58.599998474121</ele>
        <time>2015-06-01T19:19:31Z</time>
      </trkpt>
      <trkpt lat="48.86587" lon="2.35488">
        <ele>59.20000076294</ele>
        <time>2015-06-01T19:19:36Z</time>
      </trkpt>
      <trkpt lat="48.86585" lon="2.3551">
        <ele>59.400001525879</ele>
        <time>2015-06-01T19:19:41Z</time>
      </trkpt>
      <trkpt lat="48.86585" lon="2.35534">
        <ele>59.599998474121</ele>
        <time>2015-06-01T19:19:46Z</time>
      </trkpt>
      <trkpt lat="48.86576" lon="2.35561">
        <ele>59.599998474121</ele>
        <time>2015-06-01T19:19:52Z</time>
      </trkpt>
      <trkpt lat="48.86566" lon="2.35583">
        <ele>58.79999923706</ele>
        <time>2015-06-01T19:19:58Z</time>
      </trkpt>
      <trkpt lat="48.86559" lon="2.35607">
        <ele>57.400001525879</ele>
        <time>2015-06-01T19:20:04Z</time>
      </trkpt>
      <trkpt lat="48.86554" lon="2.3563">
        <ele>56.400001525879</ele>
        <time>2015-06-01T19:20:09Z</time>
      </trkpt>
      <trkpt lat="48.86552" lon="2.35651">
        <ele>55.400001525879</ele>
        <time>2015-06-01T19:20:13Z</time>
      </trkpt>
      <trkpt lat="48.86548" lon="2.35672">
        <ele>54.79999923706</ele>
        <time>2015-06-01T19:20:17Z</time>
      </trkpt>
      <trkpt lat="48.86548" lon="2.35693">
        <ele>54.400001525879</ele>
        <time>2015-06-01T19:20:21Z</time>
      </trkpt>
      <trkpt lat="48.86543" lon="2.35716">
        <ele>54.20000076294</ele>
        <time>2015-06-01T19:20:25Z</time>
      </trkpt>
      <trkpt lat="48.86535" lon="2.35744">
        <ele>53.79999923706</ele>
        <time>2015-06-01T19:20:30Z</time>
      </trkpt>
      <trkpt lat="48.86531" lon="2.35772">
        <ele>52.79999923706</ele>
        <time>2015-06-01T19:20:35Z</time>
      </trkpt>
      <trkpt lat="48.86527" lon="2.358">
        <ele>52.400001525879</ele>
        <time>2015-06-01T19:20:40Z</time>
      </trkpt>
      <trkpt lat="48.8652" lon="2.35826">
        <ele>52</ele>
        <time>2015-06-01T19:20:45Z</time>
      </trkpt>
      <trkpt lat="48.86515" lon="2.35855">
        <ele>51.79999923706</ele>
        <time>2015-06-01T19:20:51Z</time>
      </trkpt>
      <trkpt lat="48.86509" lon="2.35882">
        <ele>51.79999923706</ele>
        <time>2015-06-01T19:20:56Z</time>
      </trkpt>
      <trkpt lat="48.86499" lon="2.35911">
        <ele>51.599998474121</ele>
        <time>2015-06-01T19:21:01Z</time>
      </trkpt>
      <trkpt lat="48.86491" lon="2.35936">
        <ele>51.599998474121</ele>
        <time>2015-06-01T19:21:05Z</time>
      </trkpt>
      <trkpt lat="48.86488" lon="2.35943">
        <ele>51.599998474121</ele>
        <time>2015-06-01T19:21:06Z</time>
      </trkpt>
      <trkpt lat="48.86494" lon="2.35981">
        <ele>51.599998474121</ele>
        <time>2015-06-01T19:21:11Z</time>
      </trkpt>
      <trkpt lat="48.86502" lon="2.35992">
        <ele>51.599998474121</ele>
        <time>2015-06-01T19:21:13Z</time>
      </trkpt>
      <trkpt lat="48.86515" lon="2.36005">
        <ele>51.20000076294</ele>
        <time>2015-06-01T19:21:16Z</time>
      </trkpt>
      <trkpt lat="48.86537" lon="2.36029">
        <ele>50.599998474121</ele>
        <time>2015-06-01T19:21:20Z</time>
      </trkpt>
      <trkpt lat="48.86557" lon="2.36048">
        <ele>50.400001525879</ele>
        <time>2015-06-01T19:21:23Z</time>
      </trkpt>
      <trkpt lat="48.8657" lon="2.36062">
        <ele>50</ele>
        <time>2015-06-01T19:21:25Z</time>
      </trkpt>
      <trkpt lat="48.86589" lon="2.36086">
        <ele>49.20000076294</ele>
        <time>2015-06-01T19:21:28Z</time>
      </trkpt>
      <trkpt lat="48.86618" lon="2.36116">
        <ele>48.599998474121</ele>
        <time>2015-06-01T19:21:32Z</time>
      </trkpt>
      <trkpt lat="48.86638" lon="2.36138">
        <ele>47.79999923706</ele>
        <time>2015-06-01T19:21:35Z</time>
      </trkpt>
      <trkpt lat="48.86644" lon="2.36145">
        <ele>47.400001525879</ele>
        <time>2015-06-01T19:21:36Z</time>
      </trkpt>
      <trkpt lat="48.86664" lon="2.3617">
        <ele>46.79999923706</ele>
        <time>2015-06-01T19:21:39Z</time>
      </trkpt>
      <trkpt lat="48.8667" lon="2.36179">
        <ele>46.79999923706</ele>
        <time>2015-06-01T19:21:40Z</time>
      </trkpt>
      <trkpt lat="48.86686" lon="2.36215">
        <ele>46.20000076294</ele>
        <time>2015-06-01T19:21:44Z</time>
      </trkpt>
      <trkpt lat="48.86696" lon="2.36239">
        <ele>46</ele>
        <time>2015-06-01T19:21:47Z</time>
      </trkpt>
      <trkpt lat="48.86706" lon="2.36262">
        <ele>45.79999923706</ele>
        <time>2015-06-01T19:21:50Z</time>
      </trkpt>
      <trkpt lat="48.86709" lon="2.36269">
        <ele>45.79999923706</ele>
        <time>2015-06-01T19:21:51Z</time>
      </trkpt>
      <trkpt lat="48.86717" lon="2.36286">
        <ele>45.599998474121</ele>
        <time>2015-06-01T19:21:54Z</time>
      </trkpt>
      <trkpt lat="48.86724" lon="2.36309">
        <ele>45.400001525879</ele>
        <time>2015-06-01T19:21:58Z</time>
      </trkpt>
      <trkpt lat="48.86725" lon="2.36321">
        <ele>45.400001525879</ele>
        <time>2015-06-01T19:22:02Z</time>
      </trkpt>
      <trkpt lat="48.86729" lon="2.36333">
        <ele>45.400001525879</ele>
        <time>2015-06-01T19:22:08Z</time>
      </trkpt>
      <trkpt lat="48.86728" lon="2.36334">
        <ele>45.20000076294</ele>
        <time>2015-06-01T19:22:18Z</time>
      </trkpt>
      <trkpt lat="48.86729" lon="2.3634">
        <ele>47.20000076294</ele>
        <time>2015-06-01T19:22:49Z</time>
      </trkpt>
      <trkpt lat="48.86731" lon="2.36341">
        <ele>47.20000076294</ele>
        <time>2015-06-01T19:22:50Z</time>
      </trkpt>
      <trkpt lat="48.86732" lon="2.36349">
        <ele>47.20000076294</ele>
        <time>2015-06-01T19:22:53Z</time>
      </trkpt>
      <trkpt lat="48.86734" lon="2.36355">
        <ele>47.20000076294</ele>
        <time>2015-06-01T19:22:55Z</time>
      </trkpt>
      <trkpt lat="48.86736" lon="2.3636">
        <ele>47.20000076294</ele>
        <time>2015-06-01T19:22:57Z</time>
      </trkpt>
      <trkpt lat="48.86742" lon="2.36364">
        <ele>47.20000076294</ele>
        <time>2015-06-01T19:23:01Z</time>
      </trkpt>
      <trkpt lat="48.86749" lon="2.36364">
        <ele>47.20000076294</ele>
        <time>2015-06-01T19:23:05Z</time>
      </trkpt>
      <trkpt lat="48.86758" lon="2.36358">
        <ele>47.400001525879</ele>
        <time>2015-06-01T19:23:10Z</time>
      </trkpt>
      <trkpt lat="48.86767" lon="2.36356">
        <ele>47.400001525879</ele>
        <time>2015-06-01T19:23:15Z</time>
      </trkpt>
      <trkpt lat="48.86769" lon="2.36355">
        <ele>47.400001525879</ele>
        <time>2015-06-01T19:23:16Z</time>
      </trkpt>
      <trkpt lat="48.86771" lon="2.36353">
        <ele>47.400001525879</ele>
        <time>2015-06-01T19:23:17Z</time>
      </trkpt>
      <trkpt lat="48.86779" lon="2.36343">
        <ele>46.599998474121</ele>
        <time>2015-06-01T19:23:23Z</time>
      </trkpt>
      <trkpt lat="48.86784" lon="2.36329">
        <ele>46</ele>
        <time>2015-06-01T19:23:28Z</time>
      </trkpt>
      <trkpt lat="48.86791" lon="2.36325">
        <ele>45.79999923706</ele>
        <time>2015-06-01T19:23:32Z</time>
      </trkpt>
      <trkpt lat="48.86797" lon="2.36324">
        <ele>45.599998474121</ele>
        <time>2015-06-01T19:23:35Z</time>
      </trkpt>
      <trkpt lat="48.86807" lon="2.3631">
        <ele>45.400001525879</ele>
        <time>2015-06-01T19:23:41Z</time>
      </trkpt>
      <trkpt lat="48.86813" lon="2.36301">
        <ele>45.400001525879</ele>
        <time>2015-06-01T19:23:45Z</time>
      </trkpt>
      <trkpt lat="48.86815" lon="2.36301">
        <ele>45.400001525879</ele>
        <time>2015-06-01T19:23:46Z</time>
      </trkpt>
      <trkpt lat="48.86818" lon="2.363">
        <ele>45.20000076294</ele>
        <time>2015-06-01T19:23:48Z</time>
      </trkpt>
      <trkpt lat="48.86827" lon="2.36307">
        <ele>44.20000076294</ele>
        <time>2015-06-01T19:23:56Z</time>
      </trkpt>
      <trkpt lat="48.86842" lon="2.36312">
        <ele>43.599998474121</ele>
        <time>2015-06-01T19:24:04Z</time>
      </trkpt>
      <trkpt lat="48.86851" lon="2.36307">
        <ele>43.400001525879</ele>
        <time>2015-06-01T19:24:09Z</time>
      </trkpt>
      <trkpt lat="48.86853" lon="2.36305">
        <ele>43.400001525879</ele>
        <time>2015-06-01T19:24:10Z</time>
      </trkpt>
      <trkpt lat="48.86865" lon="2.36305">
        <ele>43.400001525879</ele>
        <time>2015-06-01T19:24:15Z</time>
      </trkpt>
      <trkpt lat="48.86869" lon="2.36307">
        <ele>43.400001525879</ele>
        <time>2015-06-01T19:24:17Z</time>
      </trkpt>
      <trkpt lat="48.86881" lon="2.36311">
        <ele>43.400001525879</ele>
        <time>2015-06-01T19:24:22Z</time>
      </trkpt>
      <trkpt lat="48.86894" lon="2.36317">
        <ele>43.400001525879</ele>
        <time>2015-06-01T19:24:26Z</time>
      </trkpt>
      <trkpt lat="48.86913" lon="2.36329">
        <ele>43.400001525879</ele>
        <time>2015-06-01T19:24:31Z</time>
      </trkpt>
      <trkpt lat="48.86929" lon="2.36335">
        <ele>43.20000076294</ele>
        <time>2015-06-01T19:24:35Z</time>
      </trkpt>
      <trkpt lat="48.86947" lon="2.36341">
        <ele>43.20000076294</ele>
        <time>2015-06-01T19:24:40Z</time>
      </trkpt>
      <trkpt lat="48.86967" lon="2.36351">
        <ele>43.20000076294</ele>
        <time>2015-06-01T19:24:45Z</time>
      </trkpt>
      <trkpt lat="48.86982" lon="2.36363">
        <ele>43.20000076294</ele>
        <time>2015-06-01T19:24:49Z</time>
      </trkpt>
      <trkpt lat="48.86985" lon="2.36366">
        <ele>43.20000076294</ele>
        <time>2015-06-01T19:24:50Z</time>
      </trkpt>
      <trkpt lat="48.86992" lon="2.3638">
        <ele>43.20000076294</ele>
        <time>2015-06-01T19:24:53Z</time>
      </trkpt>
      <trkpt lat="48.86996" lon="2.36388">
        <ele>43.20000076294</ele>
        <time>2015-06-01T19:24:55Z</time>
      </trkpt>
      <trkpt lat="48.87" lon="2.36401">
        <ele>43.20000076294</ele>
        <time>2015-06-01T19:25:00Z</time>
      </trkpt>
      <trkpt lat="48.87008" lon="2.36415">
        <ele>43.20000076294</ele>
        <time>2015-06-01T19:25:04Z</time>
      </trkpt>
      <trkpt lat="48.87014" lon="2.36431">
        <ele>43.20000076294</ele>
        <time>2015-06-01T19:25:08Z</time>
      </trkpt>
      <trkpt lat="48.87022" lon="2.36447">
        <ele>43.20000076294</ele>
        <time>2015-06-01T19:25:12Z</time>
      </trkpt>
      <trkpt lat="48.87031" lon="2.36468">
        <ele>43.20000076294</ele>
        <time>2015-06-01T19:25:17Z</time>
      </trkpt>
      <trkpt lat="48.87041" lon="2.3649">
        <ele>43.20000076294</ele>
        <time>2015-06-01T19:25:22Z</time>
      </trkpt>
      <trkpt lat="48.87052" lon="2.36511">
        <ele>43.20000076294</ele>
        <time>2015-06-01T19:25:26Z</time>
      </trkpt>
      <trkpt lat="48.87062" lon="2.36527">
        <ele>42.79999923706</ele>
        <time>2015-06-01T19:25:30Z</time>
      </trkpt>
      <trkpt lat="48.87064" lon="2.3653">
        <ele>42.599998474121</ele>
        <time>2015-06-01T19:25:31Z</time>
      </trkpt>
      <trkpt lat="48.87068" lon="2.36537">
        <ele>42.20000076294</ele>
        <time>2015-06-01T19:25:34Z</time>
      </trkpt>
      <trkpt lat="48.87073" lon="2.36545">
        <ele>41.400001525879</ele>
        <time>2015-06-01T19:25:41Z</time>
      </trkpt>
      <trkpt lat="48.87074" lon="2.36546">
        <ele>41.20000076294</ele>
        <time>2015-06-01T19:25:42Z</time>
      </trkpt>
      <trkpt lat="48.8708" lon="2.36551">
        <ele>40.20000076294</ele>
        <time>2015-06-01T19:25:48Z</time>
      </trkpt>
      <trkpt lat="48.87082" lon="2.36556">
        <ele>46.79999923706</ele>
        <time>2015-06-01T19:26:33Z</time>
      </trkpt>
      <trkpt lat="48.87083" lon="2.36558">
        <ele>47.20000076294</ele>
        <time>2015-06-01T19:26:34Z</time>
      </trkpt>
      <trkpt lat="48.87089" lon="2.36572">
        <ele>48.599998474121</ele>
        <time>2015-06-01T19:26:41Z</time>
      </trkpt>
      <trkpt lat="48.8709" lon="2.36575">
        <ele>49.599998474121</ele>
        <time>2015-06-01T19:26:46Z</time>
      </trkpt>
      <trkpt lat="48.87094" lon="2.36586">
        <ele>51.79999923706</ele>
        <time>2015-06-01T19:27:10Z</time>
      </trkpt>
      <trkpt lat="48.87105" lon="2.36582">
        <ele>51.79999923706</ele>
        <time>2015-06-01T19:27:14Z</time>
      </trkpt>
      <trkpt lat="48.87125" lon="2.36566">
        <ele>51</ele>
        <time>2015-06-01T19:27:20Z</time>
      </trkpt>
      <trkpt lat="48.87137" lon="2.36553">
        <ele>50.20000076294</ele>
        <time>2015-06-01T19:27:23Z</time>
      </trkpt>
      <trkpt lat="48.87149" lon="2.36536">
        <ele>48.79999923706</ele>
        <time>2015-06-01T19:27:28Z</time>
      </trkpt>
      <trkpt lat="48.87154" lon="2.36531">
        <ele>48</ele>
        <time>2015-06-01T19:27:30Z</time>
      </trkpt>
      <trkpt lat="48.87168" lon="2.36518">
        <ele>46.79999923706</ele>
        <time>2015-06-01T19:27:34Z</time>
      </trkpt>
      <trkpt lat="48.87182" lon="2.36511">
        <ele>45.20000076294</ele>
        <time>2015-06-01T19:27:39Z</time>
      </trkpt>
      <trkpt lat="48.87192" lon="2.36502">
        <ele>44.400001525879</ele>
        <time>2015-06-01T19:27:44Z</time>
      </trkpt>
      <trkpt lat="48.87202" lon="2.36492">
        <ele>43</ele>
        <time>2015-06-01T19:27:47Z</time>
      </trkpt>
      <trkpt lat="48.87217" lon="2.36481">
        <ele>42</ele>
        <time>2015-06-01T19:27:54Z</time>
      </trkpt>
      <trkpt lat="48.87227" lon="2.36471">
        <ele>41.20000076294</ele>
        <time>2015-06-01T19:27:58Z</time>
      </trkpt>
      <trkpt lat="48.87242" lon="2.36457">
        <ele>40.20000076294</ele>
        <time>2015-06-01T19:28:04Z</time>
      </trkpt>
      <trkpt lat="48.8725" lon="2.3645">
        <ele>39.79999923706</ele>
        <time>2015-06-01T19:28:06Z</time>
      </trkpt>
      <trkpt lat="48.87263" lon="2.36432">
        <ele>39.20000076294</ele>
        <time>2015-06-01T19:28:13Z</time>
      </trkpt>
      <trkpt lat="48.87268" lon="2.36425">
        <ele>39</ele>
        <time>2015-06-01T19:28:15Z</time>
      </trkpt>
      <trkpt lat="48.8728" lon="2.36414">
        <ele>39.20000076294</ele>
        <time>2015-06-01T19:28:21Z</time>
      </trkpt>
      <trkpt lat="48.87285" lon="2.36408">
        <ele>39.400001525879</ele>
        <time>2015-06-01T19:28:23Z</time>
      </trkpt>
      <trkpt lat="48.87291" lon="2.36404">
        <ele>39.79999923706</ele>
        <time>2015-06-01T19:28:27Z</time>
      </trkpt>
      <trkpt lat="48.87295" lon="2.36401">
        <ele>40.79999923706</ele>
        <time>2015-06-01T19:28:31Z</time>
      </trkpt>
      <trkpt lat="48.87304" lon="2.36401">
        <ele>43.400001525879</ele>
        <time>2015-06-01T19:28:51Z</time>
      </trkpt>
      <trkpt lat="48.87305" lon="2.36399">
        <ele>43.599998474121</ele>
        <time>2015-06-01T19:28:52Z</time>
      </trkpt>
      <trkpt lat="48.87318" lon="2.36395">
        <ele>44.20000076294</ele>
        <time>2015-06-01T19:28:58Z</time>
      </trkpt>
      <trkpt lat="48.87331" lon="2.3639">
        <ele>44.400001525879</ele>
        <time>2015-06-01T19:29:05Z</time>
      </trkpt>
      <trkpt lat="48.87337" lon="2.36381">
        <ele>44.599998474121</ele>
        <time>2015-06-01T19:29:08Z</time>
      </trkpt>
      <trkpt lat="48.87349" lon="2.36372">
        <ele>44.599998474121</ele>
        <time>2015-06-01T19:29:13Z</time>
      </trkpt>
      <trkpt lat="48.87362" lon="2.36364">
        <ele>44.400001525879</ele>
        <time>2015-06-01T19:29:19Z</time>
      </trkpt>
      <trkpt lat="48.87377" lon="2.36361">
        <ele>43.79999923706</ele>
        <time>2015-06-01T19:29:23Z</time>
      </trkpt>
      <trkpt lat="48.87392" lon="2.36353">
        <ele>43.20000076294</ele>
        <time>2015-06-01T19:29:27Z</time>
      </trkpt>
      <trkpt lat="48.8741" lon="2.3634">
        <ele>42.400001525879</ele>
        <time>2015-06-01T19:29:31Z</time>
      </trkpt>
      <trkpt lat="48.87415" lon="2.36339">
        <ele>42.20000076294</ele>
        <time>2015-06-01T19:29:32Z</time>
      </trkpt>
      <trkpt lat="48.87436" lon="2.36336">
        <ele>41.599998474121</ele>
        <time>2015-06-01T19:29:36Z</time>
      </trkpt>
      <trkpt lat="48.87441" lon="2.36336">
        <ele>41.599998474121</ele>
        <time>2015-06-01T19:29:38Z</time>
      </trkpt>
      <trkpt lat="48.87456" lon="2.36341">
        <ele>41</ele>
        <time>2015-06-01T19:29:41Z</time>
      </trkpt>
      <trkpt lat="48.87465" lon="2.36346">
        <ele>40.599998474121</ele>
        <time>2015-06-01T19:29:43Z</time>
      </trkpt>
      <trkpt lat="48.87476" lon="2.36354">
        <ele>40</ele>
        <time>2015-06-01T19:29:46Z</time>
      </trkpt>
      <trkpt lat="48.8749" lon="2.36366">
        <ele>39.599998474121</ele>
        <time>2015-06-01T19:29:49Z</time>
      </trkpt>
      <trkpt lat="48.87499" lon="2.36375">
        <ele>39.20000076294</ele>
        <time>2015-06-01T19:29:52Z</time>
      </trkpt>
      <trkpt lat="48.87514" lon="2.36388">
        <ele>39</ele>
        <time>2015-06-01T19:29:56Z</time>
      </trkpt>
      <trkpt lat="48.87535" lon="2.36407">
        <ele>38.79999923706</ele>
        <time>2015-06-01T19:30:02Z</time>
      </trkpt>
      <trkpt lat="48.87554" lon="2.36425">
        <ele>38.599998474121</ele>
        <time>2015-06-01T19:30:08Z</time>
      </trkpt>
      <trkpt lat="48.87567" lon="2.36437">
        <ele>38.599998474121</ele>
        <time>2015-06-01T19:30:12Z</time>
      </trkpt>
      <trkpt lat="48.87588" lon="2.36451">
        <ele>38.599998474121</ele>
        <time>2015-06-01T19:30:18Z</time>
      </trkpt>
      <trkpt lat="48.87606" lon="2.36465">
        <ele>38.599998474121</ele>
        <time>2015-06-01T19:30:24Z</time>
      </trkpt>
      <trkpt lat="48.87626" lon="2.36481">
        <ele>39.400001525879</ele>
        <time>2015-06-01T19:30:29Z</time>
      </trkpt>
      <trkpt lat="48.87637" lon="2.36491">
        <ele>39.599998474121</ele>
        <time>2015-06-01T19:30:32Z</time>
      </trkpt>
      <trkpt lat="48.87654" lon="2.36506">
        <ele>40.20000076294</ele>
        <time>2015-06-01T19:30:37Z</time>
      </trkpt>
      <trkpt lat="48.87674" lon="2.36522">
        <ele>41.599998474121</ele>
        <time>2015-06-01T19:30:44Z</time>
      </trkpt>
      <trkpt lat="48.87688" lon="2.36535">
        <ele>42.79999923706</ele>
        <time>2015-06-01T19:30:49Z</time>
      </trkpt>
      <trkpt lat="48.87698" lon="2.36544">
        <ele>43.400001525879</ele>
        <time>2015-06-01T19:30:53Z</time>
      </trkpt>
      <trkpt lat="48.87711" lon="2.36556">
        <ele>44.400001525879</ele>
        <time>2015-06-01T19:30:58Z</time>
      </trkpt>
      <trkpt lat="48.87719" lon="2.36564">
        <ele>45.20000076294</ele>
        <time>2015-06-01T19:31:02Z</time>
      </trkpt>
      <trkpt lat="48.87723" lon="2.36571">
        <ele>45.79999923706</ele>
        <time>2015-06-01T19:31:07Z</time>
      </trkpt>
      <trkpt lat="48.87724" lon="2.36572">
        <ele>46</ele>
        <time>2015-06-01T19:31:08Z</time>
      </trkpt>
      <trkpt lat="48.87726" lon="2.36575">
        <ele>46.599998474121</ele>
        <time>2015-06-01T19:31:20Z</time>
      </trkpt>
      <trkpt lat="48.87731" lon="2.3658">
        <ele>48.599998474121</ele>
        <time>2015-06-01T19:31:39Z</time>
      </trkpt>
      <trkpt lat="48.87738" lon="2.36585">
        <ele>48.599998474121</ele>
        <time>2015-06-01T19:31:44Z</time>
      </trkpt>
      <trkpt lat="48.87748" lon="2.36594">
        <ele>48.79999923706</ele>
        <time>2015-06-01T19:31:49Z</time>
      </trkpt>
      <trkpt lat="48.87761" lon="2.36602">
        <ele>48.79999923706</ele>
        <time>2015-06-01T19:31:54Z</time>
      </trkpt>
      <trkpt lat="48.87774" lon="2.36615">
        <ele>48.79999923706</ele>
        <time>2015-06-01T19:32:01Z</time>
      </trkpt>
      <trkpt lat="48.87786" lon="2.36626">
        <ele>48.79999923706</ele>
        <time>2015-06-01T19:32:06Z</time>
      </trkpt>
      <trkpt lat="48.87799" lon="2.36635">
        <ele>49</ele>
        <time>2015-06-01T19:32:11Z</time>
      </trkpt>
      <trkpt lat="48.87807" lon="2.36643">
        <ele>49</ele>
        <time>2015-06-01T19:32:14Z</time>
      </trkpt>
      <trkpt lat="48.87819" lon="2.36652">
        <ele>49</ele>
        <time>2015-06-01T19:32:19Z</time>
      </trkpt>
      <trkpt lat="48.87828" lon="2.3666">
        <ele>49</ele>
        <time>2015-06-01T19:32:22Z</time>
      </trkpt>
      <trkpt lat="48.87837" lon="2.36667">
        <ele>49</ele>
        <time>2015-06-01T19:32:25Z</time>
      </trkpt>
      <trkpt lat="48.8784" lon="2.36669">
        <ele>49</ele>
        <time>2015-06-01T19:32:26Z</time>
      </trkpt>
      <trkpt lat="48.87852" lon="2.36679">
        <ele>49</ele>
        <time>2015-06-01T19:32:31Z</time>
      </trkpt>
      <trkpt lat="48.87864" lon="2.36688">
        <ele>49.20000076294</ele>
        <time>2015-06-01T19:32:36Z</time>
      </trkpt>
      <trkpt lat="48.87877" lon="2.36698">
        <ele>50</ele>
        <time>2015-06-01T19:32:41Z</time>
      </trkpt>
      <trkpt lat="48.87886" lon="2.36711">
        <ele>51</ele>
        <time>2015-06-01T19:32:45Z</time>
      </trkpt>
      <trkpt lat="48.87899" lon="2.36721">
        <ele>52</ele>
        <time>2015-06-01T19:32:49Z</time>
      </trkpt>
      <trkpt lat="48.87918" lon="2.36733">
        <ele>53</ele>
        <time>2015-06-01T19:32:53Z</time>
      </trkpt>
      <trkpt lat="48.87929" lon="2.36751">
        <ele>55</ele>
        <time>2015-06-01T19:32:59Z</time>
      </trkpt>
      <trkpt lat="48.87934" lon="2.36761">
        <ele>56.20000076294</ele>
        <time>2015-06-01T19:33:02Z</time>
      </trkpt>
      <trkpt lat="48.87945" lon="2.36776">
        <ele>67.199996948242</ele>
        <time>2015-06-01T19:33:50Z</time>
      </trkpt>
      <trkpt lat="48.87946" lon="2.36787">
        <ele>67.599998474121</ele>
        <time>2015-06-01T19:33:54Z</time>
      </trkpt>
      <trkpt lat="48.87947" lon="2.3679">
        <ele>67.599998474121</ele>
        <time>2015-06-01T19:33:56Z</time>
      </trkpt>
      <trkpt lat="48.87956" lon="2.36799">
        <ele>67.800003051758</ele>
        <time>2015-06-01T19:34:01Z</time>
      </trkpt>
      <trkpt lat="48.87958" lon="2.36801">
        <ele>68</ele>
        <time>2015-06-01T19:34:02Z</time>
      </trkpt>
      <trkpt lat="48.87965" lon="2.36806">
        <ele>68</ele>
        <time>2015-06-01T19:34:05Z</time>
      </trkpt>
      <trkpt lat="48.87972" lon="2.3681">
        <ele>68</ele>
        <time>2015-06-01T19:34:09Z</time>
      </trkpt>
      <trkpt lat="48.87977" lon="2.36813">
        <ele>68.199996948242</ele>
        <time>2015-06-01T19:34:11Z</time>
      </trkpt>
      <trkpt lat="48.87991" lon="2.36824">
        <ele>69</ele>
        <time>2015-06-01T19:34:16Z</time>
      </trkpt>
      <trkpt lat="48.88007" lon="2.36837">
        <ele>69.599998474121</ele>
        <time>2015-06-01T19:34:21Z</time>
      </trkpt>
      <trkpt lat="48.8802" lon="2.36848">
        <ele>69.800003051758</ele>
        <time>2015-06-01T19:34:26Z</time>
      </trkpt>
      <trkpt lat="48.88032" lon="2.36859">
        <ele>70</ele>
        <time>2015-06-01T19:34:29Z</time>
      </trkpt>
      <trkpt lat="48.88044" lon="2.36871">
        <ele>70</ele>
        <time>2015-06-01T19:34:33Z</time>
      </trkpt>
      <trkpt lat="48.88062" lon="2.36885">
        <ele>70.199996948242</ele>
        <time>2015-06-01T19:34:40Z</time>
      </trkpt>
      <trkpt lat="48.88077" lon="2.36897">
        <ele>70.199996948242</ele>
        <time>2015-06-01T19:34:45Z</time>
      </trkpt>
      <trkpt lat="48.8809" lon="2.36908">
        <ele>70.199996948242</ele>
        <time>2015-06-01T19:34:49Z</time>
      </trkpt>
      <trkpt lat="48.88107" lon="2.36923">
        <ele>70.199996948242</ele>
        <time>2015-06-01T19:34:55Z</time>
      </trkpt>
      <trkpt lat="48.88121" lon="2.36935">
        <ele>70.199996948242</ele>
        <time>2015-06-01T19:35:00Z</time>
      </trkpt>
      <trkpt lat="48.88137" lon="2.36954">
        <ele>70.199996948242</ele>
        <time>2015-06-01T19:35:05Z</time>
      </trkpt>
      <trkpt lat="48.88148" lon="2.36972">
        <ele>69.400001525879</ele>
        <time>2015-06-01T19:35:09Z</time>
      </trkpt>
      <trkpt lat="48.88149" lon="2.36975">
        <ele>68.599998474121</ele>
        <time>2015-06-01T19:35:11Z</time>
      </trkpt>
      <trkpt lat="48.8815" lon="2.3698">
        <ele>66.400001525879</ele>
        <time>2015-06-01T19:35:19Z</time>
      </trkpt>
      <trkpt lat="48.88151" lon="2.36982">
        <ele>65</ele>
        <time>2015-06-01T19:35:24Z</time>
      </trkpt>
      <trkpt lat="48.88152" lon="2.36996">
        <ele>63.79999923706</ele>
        <time>2015-06-01T19:35:30Z</time>
      </trkpt>
      <trkpt lat="48.8815" lon="2.3701">
        <ele>62.79999923706</ele>
        <time>2015-06-01T19:35:33Z</time>
      </trkpt>
      <trkpt lat="48.8815" lon="2.37014">
        <ele>62.599998474121</ele>
        <time>2015-06-01T19:35:34Z</time>
      </trkpt>
      <trkpt lat="48.8815" lon="2.37016">
        <ele>62.599998474121</ele>
        <time>2015-06-01T19:35:35Z</time>
      </trkpt>
      <trkpt lat="48.88156" lon="2.37025">
        <ele>62</ele>
        <time>2015-06-01T19:35:40Z</time>
      </trkpt>
      <trkpt lat="48.88176" lon="2.3703">
        <ele>61.599998474121</ele>
        <time>2015-06-01T19:35:46Z</time>
      </trkpt>
      <trkpt lat="48.88196" lon="2.37031">
        <ele>61.400001525879</ele>
        <time>2015-06-01T19:35:53Z</time>
      </trkpt>
      <trkpt lat="48.88208" lon="2.37032">
        <ele>61.20000076294</ele>
        <time>2015-06-01T19:35:56Z</time>
      </trkpt>
      <trkpt lat="48.88226" lon="2.37034">
        <ele>61.20000076294</ele>
        <time>2015-06-01T19:36:02Z</time>
      </trkpt>
      <trkpt lat="48.88241" lon="2.37033">
        <ele>61.20000076294</ele>
        <time>2015-06-01T19:36:08Z</time>
      </trkpt>
      <trkpt lat="48.88261" lon="2.37029">
        <ele>61.20000076294</ele>
        <time>2015-06-01T19:36:15Z</time>
      </trkpt>
      <trkpt lat="48.88274" lon="2.3703">
        <ele>61.20000076294</ele>
        <time>2015-06-01T19:36:20Z</time>
      </trkpt>
      <trkpt lat="48.88285" lon="2.37036">
        <ele>61.20000076294</ele>
        <time>2015-06-01T19:36:25Z</time>
      </trkpt>
      <trkpt lat="48.88286" lon="2.37037">
        <ele>61.20000076294</ele>
        <time>2015-06-01T19:36:26Z</time>
      </trkpt>
      <trkpt lat="48.88291" lon="2.37036">
        <ele>61.20000076294</ele>
        <time>2015-06-01T19:36:32Z</time>
      </trkpt>
      <trkpt lat="48.88292" lon="2.37035">
        <ele>61.20000076294</ele>
        <time>2015-06-01T19:36:33Z</time>
      </trkpt>
      <trkpt lat="48.88297" lon="2.37029">
        <ele>61.20000076294</ele>
        <time>2015-06-01T19:37:16Z</time>
      </trkpt>
      <trkpt lat="48.88299" lon="2.37025">
        <ele>61.20000076294</ele>
        <time>2015-06-01T19:37:20Z</time>
      </trkpt>
      <trkpt lat="48.88307" lon="2.37014">
        <ele>61.20000076294</ele>
        <time>2015-06-01T19:37:28Z</time>
      </trkpt>
      <trkpt lat="48.88314" lon="2.37003">
        <ele>61.20000076294</ele>
        <time>2015-06-01T19:37:35Z</time>
      </trkpt>
      <trkpt lat="48.88315" lon="2.37002">
        <ele>61.20000076294</ele>
        <time>2015-06-01T19:37:36Z</time>
      </trkpt>
      <trkpt lat="48.88325" lon="2.36995">
        <ele>61.20000076294</ele>
        <time>2015-06-01T19:37:43Z</time>
      </trkpt>
      <trkpt lat="48.88339" lon="2.36992">
        <ele>61.20000076294</ele>
        <time>2015-06-01T19:37:49Z</time>
      </trkpt>
      <trkpt lat="48.88349" lon="2.36989">
        <ele>61.20000076294</ele>
        <time>2015-06-01T19:37:53Z</time>
      </trkpt>
      <trkpt lat="48.88364" lon="2.36979">
        <ele>61.20000076294</ele>
        <time>2015-06-01T19:38:00Z</time>
      </trkpt>
      <trkpt lat="48.88371" lon="2.36962">
        <ele>61.20000076294</ele>
        <time>2015-06-01T19:38:05Z</time>
      </trkpt>
      <trkpt lat="48.88378" lon="2.36943">
        <ele>60.79999923706</ele>
        <time>2015-06-01T19:38:10Z</time>
      </trkpt>
      <trkpt lat="48.88386" lon="2.36924">
        <ele>60</ele>
        <time>2015-06-01T19:38:15Z</time>
      </trkpt>
      <trkpt lat="48.88399" lon="2.36913">
        <ele>59.599998474121</ele>
        <time>2015-06-01T19:38:20Z</time>
      </trkpt>
      <trkpt lat="48.88413" lon="2.36914">
        <ele>59.400001525879</ele>
        <time>2015-06-01T19:38:25Z</time>
      </trkpt>
      <trkpt lat="48.88418" lon="2.36918">
        <ele>59.400001525879</ele>
        <time>2015-06-01T19:38:27Z</time>
      </trkpt>
      <trkpt lat="48.88422" lon="2.36946">
        <ele>59.20000076294</ele>
        <time>2015-06-01T19:38:33Z</time>
      </trkpt>
      <trkpt lat="48.88422" lon="2.36951">
        <ele>59.20000076294</ele>
        <time>2015-06-01T19:38:34Z</time>
      </trkpt>
      <trkpt lat="48.88426" lon="2.3698">
        <ele>59.20000076294</ele>
        <time>2015-06-01T19:38:40Z</time>
      </trkpt>
      <trkpt lat="48.88434" lon="2.37009">
        <ele>59</ele>
        <time>2015-06-01T19:38:46Z</time>
      </trkpt>
      <trkpt lat="48.88443" lon="2.37031">
        <ele>59</ele>
        <time>2015-06-01T19:38:51Z</time>
      </trkpt>
      <trkpt lat="48.88452" lon="2.37046">
        <ele>59</ele>
        <time>2015-06-01T19:38:56Z</time>
      </trkpt>
      <trkpt lat="48.88461" lon="2.3706">
        <ele>59</ele>
        <time>2015-06-01T19:39:01Z</time>
      </trkpt>
      <trkpt lat="48.88473" lon="2.37081">
        <ele>59</ele>
        <time>2015-06-01T19:39:06Z</time>
      </trkpt>
      <trkpt lat="48.88486" lon="2.37102">
        <ele>59</ele>
        <time>2015-06-01T19:39:11Z</time>
      </trkpt>
      <trkpt lat="48.88495" lon="2.3712">
        <ele>58.599998474121</ele>
        <time>2015-06-01T19:39:14Z</time>
      </trkpt>
      <trkpt lat="48.88506" lon="2.37133">
        <ele>58</ele>
        <time>2015-06-01T19:39:19Z</time>
      </trkpt>
      <trkpt lat="48.88517" lon="2.37156">
        <ele>57.599998474121</ele>
        <time>2015-06-01T19:39:25Z</time>
      </trkpt>
      <trkpt lat="48.88525" lon="2.3717">
        <ele>57.400001525879</ele>
        <time>2015-06-01T19:39:29Z</time>
      </trkpt>
      <trkpt lat="48.88528" lon="2.37176">
        <ele>57.20000076294</ele>
        <time>2015-06-01T19:39:31Z</time>
      </trkpt>
      <trkpt lat="48.88537" lon="2.37199">
        <ele>57.20000076294</ele>
        <time>2015-06-01T19:39:36Z</time>
      </trkpt>
      <trkpt lat="48.88547" lon="2.37221">
        <ele>56.400001525879</ele>
        <time>2015-06-01T19:39:42Z</time>
      </trkpt>
      <trkpt lat="48.88557" lon="2.37242">
        <ele>55.79999923706</ele>
        <time>2015-06-01T19:39:47Z</time>
      </trkpt>
      <trkpt lat="48.88567" lon="2.37261">
        <ele>55.400001525879</ele>
        <time>2015-06-01T19:39:51Z</time>
      </trkpt>
      <trkpt lat="48.88579" lon="2.37282">
        <ele>55.20000076294</ele>
        <time>2015-06-01T19:39:57Z</time>
      </trkpt>
      <trkpt lat="48.88591" lon="2.37304">
        <ele>55.20000076294</ele>
        <time>2015-06-01T19:40:02Z</time>
      </trkpt>
      <trkpt lat="48.88601" lon="2.3732">
        <ele>54.79999923706</ele>
        <time>2015-06-01T19:40:06Z</time>
      </trkpt>
      <trkpt lat="48.8861" lon="2.37337">
        <ele>54.20000076294</ele>
        <time>2015-06-01T19:40:10Z</time>
      </trkpt>
      <trkpt lat="48.88621" lon="2.3736">
        <ele>53.599998474121</ele>
        <time>2015-06-01T19:40:15Z</time>
      </trkpt>
      <trkpt lat="48.88629" lon="2.3738">
        <ele>53.400001525879</ele>
        <time>2015-06-01T19:40:19Z</time>
      </trkpt>
      <trkpt lat="48.88641" lon="2.37404">
        <ele>53.20000076294</ele>
        <time>2015-06-01T19:40:25Z</time>
      </trkpt>
      <trkpt lat="48.88654" lon="2.37428">
        <ele>53.20000076294</ele>
        <time>2015-06-01T19:40:30Z</time>
      </trkpt>
      <trkpt lat="48.88665" lon="2.37452">
        <ele>53</ele>
        <time>2015-06-01T19:40:35Z</time>
      </trkpt>
      <trkpt lat="48.88677" lon="2.37476">
        <ele>53</ele>
        <time>2015-06-01T19:40:40Z</time>
      </trkpt>
      <trkpt lat="48.8869" lon="2.37501">
        <ele>53</ele>
        <time>2015-06-01T19:40:45Z</time>
      </trkpt>
      <trkpt lat="48.887" lon="2.37519">
        <ele>53</ele>
        <time>2015-06-01T19:40:48Z</time>
      </trkpt>
      <trkpt lat="48.8871" lon="2.37542">
        <ele>53</ele>
        <time>2015-06-01T19:40:53Z</time>
      </trkpt>
      <trkpt lat="48.88715" lon="2.37552">
        <ele>53</ele>
        <time>2015-06-01T19:40:55Z</time>
      </trkpt>
      <trkpt lat="48.88718" lon="2.37559">
        <ele>53</ele>
        <time>2015-06-01T19:40:56Z</time>
      </trkpt>
      <trkpt lat="48.88734" lon="2.37587">
        <ele>53</ele>
        <time>2015-06-01T19:41:01Z</time>
      </trkpt>
      <trkpt lat="48.88736" lon="2.37592">
        <ele>53</ele>
        <time>2015-06-01T19:41:03Z</time>
      </trkpt>
      <trkpt lat="48.88745" lon="2.37613">
        <ele>53.599998474121</ele>
        <time>2015-06-01T19:41:07Z</time>
      </trkpt>
      <trkpt lat="48.88756" lon="2.37637">
        <ele>54.20000076294</ele>
        <time>2015-06-01T19:41:11Z</time>
      </trkpt>
      <trkpt lat="48.88762" lon="2.37647">
        <ele>54.400001525879</ele>
        <time>2015-06-01T19:41:13Z</time>
      </trkpt>
      <trkpt lat="48.8877" lon="2.37663">
        <ele>54.599998474121</ele>
        <time>2015-06-01T19:41:16Z</time>
      </trkpt>
      <trkpt lat="48.8878" lon="2.37684">
        <ele>54.79999923706</ele>
        <time>2015-06-01T19:41:20Z</time>
      </trkpt>
      <trkpt lat="48.88785" lon="2.37694">
        <ele>54.79999923706</ele>
        <time>2015-06-01T19:41:21Z</time>
      </trkpt>
      <trkpt lat="48.88794" lon="2.3772">
        <ele>55</ele>
        <time>2015-06-01T19:41:26Z</time>
      </trkpt>
      <trkpt lat="48.88796" lon="2.37725">
        <ele>55</ele>
        <time>2015-06-01T19:41:27Z</time>
      </trkpt>
      <trkpt lat="48.88804" lon="2.37744">
        <ele>55</ele>
        <time>2015-06-01T19:41:31Z</time>
      </trkpt>
      <trkpt lat="48.88818" lon="2.37771">
        <ele>55</ele>
        <time>2015-06-01T19:41:37Z</time>
      </trkpt>
      <trkpt lat="48.88831" lon="2.37793">
        <ele>55</ele>
        <time>2015-06-01T19:41:42Z</time>
      </trkpt>
      <trkpt lat="48.88843" lon="2.37816">
        <ele>55</ele>
        <time>2015-06-01T19:41:47Z</time>
      </trkpt>
      <trkpt lat="48.88852" lon="2.37837">
        <ele>55</ele>
        <time>2015-06-01T19:41:52Z</time>
      </trkpt>
      <trkpt lat="48.88865" lon="2.37863">
        <ele>55</ele>
        <time>2015-06-01T19:41:58Z</time>
      </trkpt>
      <trkpt lat="48.88869" lon="2.37869">
        <ele>54.599998474121</ele>
        <time>2015-06-01T19:42:00Z</time>
      </trkpt>
      <trkpt lat="48.88874" lon="2.37879">
        <ele>54.20000076294</ele>
        <time>2015-06-01T19:42:04Z</time>
      </trkpt>
      <trkpt lat="48.88876" lon="2.37878">
        <ele>53.400001525879</ele>
        <time>2015-06-01T19:42:14Z</time>
      </trkpt>
      <trkpt lat="48.88878" lon="2.37879">
        <ele>53.20000076294</ele>
        <time>2015-06-01T19:42:21Z</time>
      </trkpt>
      <trkpt lat="48.88881" lon="2.37883">
        <ele>57</ele>
        <time>2015-06-01T19:42:43Z</time>
      </trkpt>
      <trkpt lat="48.88882" lon="2.37883">
        <ele>59</ele>
        <time>2015-06-01T19:42:49Z</time>
      </trkpt>
      <trkpt lat="48.88885" lon="2.37902">
        <ele>60.599998474121</ele>
        <time>2015-06-01T19:42:56Z</time>
      </trkpt>
      <trkpt lat="48.88885" lon="2.37905">
        <ele>61</ele>
        <time>2015-06-01T19:42:57Z</time>
      </trkpt>
      <trkpt lat="48.8888" lon="2.37915">
        <ele>62</ele>
        <time>2015-06-01T19:43:02Z</time>
      </trkpt>
      <trkpt lat="48.88872" lon="2.37922">
        <ele>62.599998474121</ele>
        <time>2015-06-01T19:43:07Z</time>
      </trkpt>
      <trkpt lat="48.88866" lon="2.37932">
        <ele>63.20000076294</ele>
        <time>2015-06-01T19:43:13Z</time>
      </trkpt>
      <trkpt lat="48.88864" lon="2.37933">
        <ele>63.20000076294</ele>
        <time>2015-06-01T19:43:14Z</time>
      </trkpt>
      <trkpt lat="48.88858" lon="2.37936">
        <ele>63.400001525879</ele>
        <time>2015-06-01T19:43:19Z</time>
      </trkpt>
      <trkpt lat="48.88857" lon="2.37936">
        <ele>63.400001525879</ele>
        <time>2015-06-01T19:43:20Z</time>
      </trkpt>
      <trkpt lat="48.88854" lon="2.37937">
        <ele>63.400001525879</ele>
        <time>2015-06-01T19:43:22Z</time>
      </trkpt>
      <trkpt lat="48.8885" lon="2.37937">
        <ele>63.599998474121</ele>
        <time>2015-06-01T19:43:26Z</time>
      </trkpt>
      <trkpt lat="48.88848" lon="2.37937">
        <ele>63.599998474121</ele>
        <time>2015-06-01T19:43:29Z</time>
      </trkpt>
      <trkpt lat="48.88844" lon="2.37942">
        <ele>63.599998474121</ele>
        <time>2015-06-01T19:43:35Z</time>
      </trkpt>
      <trkpt lat="48.88834" lon="2.37954">
        <ele>63.599998474121</ele>
        <time>2015-06-01T19:43:42Z</time>
      </trkpt>
      <trkpt lat="48.88832" lon="2.37957">
        <ele>63.599998474121</ele>
        <time>2015-06-01T19:43:46Z</time>
      </trkpt>
      <trkpt lat="48.88832" lon="2.37958">
        <ele>63.599998474121</ele>
        <time>2015-06-01T19:43:51Z</time>
      </trkpt>
      <trkpt lat="48.88832" lon="2.37957">
        <ele>63.599998474121</ele>
        <time>2015-06-01T19:43:58Z</time>
      </trkpt>
      <trkpt lat="48.88831" lon="2.37964">
        <ele>63.599998474121</ele>
        <time>2015-06-01T19:44:19Z</time>
      </trkpt>
      <trkpt lat="48.88835" lon="2.37981">
        <ele>63.599998474121</ele>
        <time>2015-06-01T19:44:25Z</time>
      </trkpt>
      <trkpt lat="48.88842" lon="2.37997">
        <ele>63.599998474121</ele>
        <time>2015-06-01T19:44:31Z</time>
      </trkpt>
      <trkpt lat="48.8885" lon="2.38011">
        <ele>63.599998474121</ele>
        <time>2015-06-01T19:44:36Z</time>
      </trkpt>
      <trkpt lat="48.88858" lon="2.38029">
        <ele>63</ele>
        <time>2015-06-01T19:44:42Z</time>
      </trkpt>
      <trkpt lat="48.88868" lon="2.38049">
        <ele>62.400001525879</ele>
        <time>2015-06-01T19:44:48Z</time>
      </trkpt>
      <trkpt lat="48.88883" lon="2.38067">
        <ele>62</ele>
        <time>2015-06-01T19:44:55Z</time>
      </trkpt>
      <trkpt lat="48.88896" lon="2.38088">
        <ele>61.79999923706</ele>
        <time>2015-06-01T19:45:02Z</time>
      </trkpt>
      <trkpt lat="48.88904" lon="2.38104">
        <ele>61.599998474121</ele>
        <time>2015-06-01T19:45:07Z</time>
      </trkpt>
      <trkpt lat="48.88917" lon="2.38128">
        <ele>61.599998474121</ele>
        <time>2015-06-01T19:45:14Z</time>
      </trkpt>
      <trkpt lat="48.8893" lon="2.3815">
        <ele>61.599998474121</ele>
        <time>2015-06-01T19:45:20Z</time>
      </trkpt>
      <trkpt lat="48.8894" lon="2.38171">
        <ele>61.599998474121</ele>
        <time>2015-06-01T19:45:25Z</time>
      </trkpt>
      <trkpt lat="48.88954" lon="2.38195">
        <ele>61.599998474121</ele>
        <time>2015-06-01T19:45:31Z</time>
      </trkpt>
      <trkpt lat="48.88964" lon="2.38215">
        <ele>61.599998474121</ele>
        <time>2015-06-01T19:45:36Z</time>
      </trkpt>
      <trkpt lat="48.88966" lon="2.38219">
        <ele>61.599998474121</ele>
        <time>2015-06-01T19:45:37Z</time>
      </trkpt>
      <trkpt lat="48.8898" lon="2.38243">
        <ele>61.599998474121</ele>
        <time>2015-06-01T19:45:43Z</time>
      </trkpt>
      <trkpt lat="48.88998" lon="2.38283">
        <ele>61.599998474121</ele>
        <time>2015-06-01T19:45:55Z</time>
      </trkpt>
      <trkpt lat="48.88998" lon="2.38285">
        <ele>61.599998474121</ele>
        <time>2015-06-01T19:45:56Z</time>
      </trkpt>
      <trkpt lat="48.89001" lon="2.38295">
        <ele>61.599998474121</ele>
        <time>2015-06-01T19:46:01Z</time>
      </trkpt>
      <trkpt lat="48.89001" lon="2.38298">
        <ele>61.599998474121</ele>
        <time>2015-06-01T19:46:02Z</time>
      </trkpt>
      <trkpt lat="48.89007" lon="2.3832">
        <ele>61.599998474121</ele>
        <time>2015-06-01T19:46:08Z</time>
      </trkpt>
      <trkpt lat="48.89013" lon="2.38335">
        <ele>61.599998474121</ele>
        <time>2015-06-01T19:46:12Z</time>
      </trkpt>
      <trkpt lat="48.89021" lon="2.38353">
        <ele>61.599998474121</ele>
        <time>2015-06-01T19:46:17Z</time>
      </trkpt>
      <trkpt lat="48.8903" lon="2.38368">
        <ele>61.599998474121</ele>
        <time>2015-06-01T19:46:22Z</time>
      </trkpt>
      <trkpt lat="48.89041" lon="2.38389">
        <ele>61.599998474121</ele>
        <time>2015-06-01T19:46:29Z</time>
      </trkpt>
      <trkpt lat="48.89053" lon="2.38411">
        <ele>61.599998474121</ele>
        <time>2015-06-01T19:46:36Z</time>
      </trkpt>
      <trkpt lat="48.89062" lon="2.38435">
        <ele>60.79999923706</ele>
        <time>2015-06-01T19:46:42Z</time>
      </trkpt>
      <trkpt lat="48.89072" lon="2.3846">
        <ele>60.20000076294</ele>
        <time>2015-06-01T19:46:48Z</time>
      </trkpt>
      <trkpt lat="48.89078" lon="2.38477">
        <ele>60</ele>
        <time>2015-06-01T19:46:52Z</time>
      </trkpt>
      <trkpt lat="48.89091" lon="2.38503">
        <ele>59.79999923706</ele>
        <time>2015-06-01T19:46:57Z</time>
      </trkpt>
      <trkpt lat="48.89096" lon="2.38513">
        <ele>59.79999923706</ele>
        <time>2015-06-01T19:46:59Z</time>
      </trkpt>
      <trkpt lat="48.89112" lon="2.38545">
        <ele>59.599998474121</ele>
        <time>2015-06-01T19:47:06Z</time>
      </trkpt>
      <trkpt lat="48.89124" lon="2.38569">
        <ele>59.599998474121</ele>
        <time>2015-06-01T19:47:10Z</time>
      </trkpt>
      <trkpt lat="48.89136" lon="2.38591">
        <ele>59.599998474121</ele>
        <time>2015-06-01T19:47:16Z</time>
      </trkpt>
      <trkpt lat="48.89148" lon="2.38615">
        <ele>59.599998474121</ele>
        <time>2015-06-01T19:47:21Z</time>
      </trkpt>
      <trkpt lat="48.89159" lon="2.38634">
        <ele>59.599998474121</ele>
        <time>2015-06-01T19:47:27Z</time>
      </trkpt>
      <trkpt lat="48.89168" lon="2.38655">
        <ele>59.599998474121</ele>
        <time>2015-06-01T19:47:33Z</time>
      </trkpt>
      <trkpt lat="48.89177" lon="2.38671">
        <ele>59.599998474121</ele>
        <time>2015-06-01T19:47:39Z</time>
      </trkpt>
      <trkpt lat="48.89184" lon="2.38671">
        <ele>59.599998474121</ele>
        <time>2015-06-01T19:47:42Z</time>
      </trkpt>
      <trkpt lat="48.89192" lon="2.38681">
        <ele>59.599998474121</ele>
        <time>2015-06-01T19:47:47Z</time>
      </trkpt>
      <trkpt lat="48.89195" lon="2.38684">
        <ele>59.599998474121</ele>
        <time>2015-06-01T19:47:48Z</time>
      </trkpt>
      <trkpt lat="48.89206" lon="2.38699">
        <ele>59</ele>
        <time>2015-06-01T19:47:53Z</time>
      </trkpt>
      <trkpt lat="48.89214" lon="2.38723">
        <ele>58.400001525879</ele>
        <time>2015-06-01T19:48:00Z</time>
      </trkpt>
      <trkpt lat="48.89221" lon="2.38739">
        <ele>58.20000076294</ele>
        <time>2015-06-01T19:48:03Z</time>
      </trkpt>
      <trkpt lat="48.89231" lon="2.38759">
        <ele>57.79999923706</ele>
        <time>2015-06-01T19:48:09Z</time>
      </trkpt>
      <trkpt lat="48.89241" lon="2.38777">
        <ele>57.599998474121</ele>
        <time>2015-06-01T19:48:14Z</time>
      </trkpt>
      <trkpt lat="48.89245" lon="2.3879">
        <ele>57.599998474121</ele>
        <time>2015-06-01T19:48:19Z</time>
      </trkpt>
      <trkpt lat="48.89247" lon="2.38796">
        <ele>57.599998474121</ele>
        <time>2015-06-01T19:48:23Z</time>
      </trkpt>
      <trkpt lat="48.89247" lon="2.38807">
        <ele>57.599998474121</ele>
        <time>2015-06-01T19:48:29Z</time>
      </trkpt>
      <trkpt lat="48.89241" lon="2.38816">
        <ele>57.400001525879</ele>
        <time>2015-06-01T19:48:35Z</time>
      </trkpt>
      <trkpt lat="48.89231" lon="2.38825">
        <ele>56.79999923706</ele>
        <time>2015-06-01T19:48:40Z</time>
      </trkpt>
      <trkpt lat="48.89229" lon="2.38827">
        <ele>56.599998474121</ele>
        <time>2015-06-01T19:48:41Z</time>
      </trkpt>
      <trkpt lat="48.89227" lon="2.38831">
        <ele>56.400001525879</ele>
        <time>2015-06-01T19:48:43Z</time>
      </trkpt>
      <trkpt lat="48.89222" lon="2.38842">
        <ele>55.400001525879</ele>
        <time>2015-06-01T19:48:48Z</time>
      </trkpt>
      <trkpt lat="48.89221" lon="2.38843">
        <ele>55.20000076294</ele>
        <time>2015-06-01T19:48:49Z</time>
      </trkpt>
      <trkpt lat="48.8922" lon="2.38847">
        <ele>54.400001525879</ele>
        <time>2015-06-01T19:48:55Z</time>
      </trkpt>
      <trkpt lat="48.89215" lon="2.38855">
        <ele>53.79999923706</ele>
        <time>2015-06-01T19:49:02Z</time>
      </trkpt>
      <trkpt lat="48.89207" lon="2.38866">
        <ele>53.599998474121</ele>
        <time>2015-06-01T19:49:08Z</time>
      </trkpt>
      <trkpt lat="48.89196" lon="2.38879">
        <ele>53.400001525879</ele>
        <time>2015-06-01T19:49:14Z</time>
      </trkpt>
      <trkpt lat="48.89187" lon="2.38893">
        <ele>53.400001525879</ele>
        <time>2015-06-01T19:49:19Z</time>
      </trkpt>
      <trkpt lat="48.89179" lon="2.38904">
        <ele>53.400001525879</ele>
        <time>2015-06-01T19:49:23Z</time>
      </trkpt>
      <trkpt lat="48.89166" lon="2.38923">
        <ele>54</ele>
        <time>2015-06-01T19:49:28Z</time>
      </trkpt>
      <trkpt lat="48.8915" lon="2.38941">
        <ele>54.400001525879</ele>
        <time>2015-06-01T19:49:33Z</time>
      </trkpt>
      <trkpt lat="48.89142" lon="2.38949">
        <ele>54.599998474121</ele>
        <time>2015-06-01T19:49:35Z</time>
      </trkpt>
      <trkpt lat="48.89132" lon="2.38959">
        <ele>54.79999923706</ele>
        <time>2015-06-01T19:49:39Z</time>
      </trkpt>
      <trkpt lat="48.89114" lon="2.38969">
        <ele>55.79999923706</ele>
        <time>2015-06-01T19:49:46Z</time>
      </trkpt>
      <trkpt lat="48.891" lon="2.38983">
        <ele>56.599998474121</ele>
        <time>2015-06-01T19:49:51Z</time>
      </trkpt>
      <trkpt lat="48.89089" lon="2.38989">
        <ele>57.20000076294</ele>
        <time>2015-06-01T19:49:54Z</time>
      </trkpt>
      <trkpt lat="48.89075" lon="2.39001">
        <ele>58.400001525879</ele>
        <time>2015-06-01T19:50:01Z</time>
      </trkpt>
      <trkpt lat="48.89061" lon="2.39014">
        <ele>58.79999923706</ele>
        <time>2015-06-01T19:50:06Z</time>
      </trkpt>
      <trkpt lat="48.8905" lon="2.39027">
        <ele>59</ele>
        <time>2015-06-01T19:50:09Z</time>
      </trkpt>
      <trkpt lat="48.89035" lon="2.39049">
        <ele>59.20000076294</ele>
        <time>2015-06-01T19:50:15Z</time>
      </trkpt>
      <trkpt lat="48.89018" lon="2.39069">
        <ele>59.400001525879</ele>
        <time>2015-06-01T19:50:19Z</time>
      </trkpt>
      <trkpt lat="48.89002" lon="2.39087">
        <ele>59.400001525879</ele>
        <time>2015-06-01T19:50:23Z</time>
      </trkpt>
      <trkpt lat="48.88998" lon="2.39091">
        <ele>59.400001525879</ele>
        <time>2015-06-01T19:50:24Z</time>
      </trkpt>
      <trkpt lat="48.88978" lon="2.39117">
        <ele>60.400001525879</ele>
        <time>2015-06-01T19:50:30Z</time>
      </trkpt>
      <trkpt lat="48.88969" lon="2.39128">
        <ele>60.79999923706</ele>
        <time>2015-06-01T19:50:33Z</time>
      </trkpt>
      <trkpt lat="48.88958" lon="2.3914">
        <ele>61</ele>
        <time>2015-06-01T19:50:38Z</time>
      </trkpt>
      <trkpt lat="48.88958" lon="2.3914">
        <ele>61.20000076294</ele>
        <time>2015-06-01T19:50:39Z</time>
      </trkpt>
      <trkpt lat="48.88947" lon="2.39147">
        <ele>61.20000076294</ele>
        <time>2015-06-01T19:50:42Z</time>
      </trkpt>
      <trkpt lat="48.88943" lon="2.3915">
        <ele>61.20000076294</ele>
        <time>2015-06-01T19:50:43Z</time>
      </trkpt>
      <trkpt lat="48.88927" lon="2.39163">
        <ele>61.400001525879</ele>
        <time>2015-06-01T19:50:46Z</time>
      </trkpt>
      <trkpt lat="48.88923" lon="2.39166">
        <ele>61.400001525879</ele>
        <time>2015-06-01T19:50:48Z</time>
      </trkpt>
      <trkpt lat="48.88912" lon="2.39171">
        <ele>61.400001525879</ele>
        <time>2015-06-01T19:50:51Z</time>
      </trkpt>
      <trkpt lat="48.88899" lon="2.3919">
        <ele>61</ele>
        <time>2015-06-01T19:50:56Z</time>
      </trkpt>
      <trkpt lat="48.88886" lon="2.39212">
        <ele>60.400001525879</ele>
        <time>2015-06-01T19:51:01Z</time>
      </trkpt>
      <trkpt lat="48.88881" lon="2.39225">
        <ele>60</ele>
        <time>2015-06-01T19:51:06Z</time>
      </trkpt>
      <trkpt lat="48.88878" lon="2.39227">
        <ele>59.599998474121</ele>
        <time>2015-06-01T19:51:21Z</time>
      </trkpt>
      <trkpt lat="48.88877" lon="2.39231">
        <ele>62</ele>
        <time>2015-06-01T19:51:52Z</time>
      </trkpt>
      <trkpt lat="48.88885" lon="2.39261">
        <ele>63.20000076294</ele>
        <time>2015-06-01T19:52:07Z</time>
      </trkpt>
      <trkpt lat="48.88888" lon="2.39279">
        <ele>63.400001525879</ele>
        <time>2015-06-01T19:52:11Z</time>
      </trkpt>
      <trkpt lat="48.88895" lon="2.39294">
        <ele>63.400001525879</ele>
        <time>2015-06-01T19:52:15Z</time>
      </trkpt>
      <trkpt lat="48.88903" lon="2.39312">
        <ele>62.599998474121</ele>
        <time>2015-06-01T19:52:21Z</time>
      </trkpt>
      <trkpt lat="48.88906" lon="2.3933">
        <ele>62.20000076294</ele>
        <time>2015-06-01T19:52:25Z</time>
      </trkpt>
      <trkpt lat="48.8891" lon="2.39356">
        <ele>62</ele>
        <time>2015-06-01T19:52:31Z</time>
      </trkpt>
      <trkpt lat="48.88916" lon="2.39381">
        <ele>61.79999923706</ele>
        <time>2015-06-01T19:52:36Z</time>
      </trkpt>
      <trkpt lat="48.88923" lon="2.39405">
        <ele>61.599998474121</ele>
        <time>2015-06-01T19:52:41Z</time>
      </trkpt>
      <trkpt lat="48.88928" lon="2.39433">
        <ele>61.599998474121</ele>
        <time>2015-06-01T19:52:46Z</time>
      </trkpt>
      <trkpt lat="48.88934" lon="2.3946">
        <ele>61.599998474121</ele>
        <time>2015-06-01T19:52:51Z</time>
      </trkpt>
      <trkpt lat="48.88941" lon="2.395">
        <ele>62.400001525879</ele>
        <time>2015-06-01T19:53:01Z</time>
      </trkpt>
      <trkpt lat="48.88955" lon="2.3953">
        <ele>63.79999923706</ele>
        <time>2015-06-01T19:53:09Z</time>
      </trkpt>
      <trkpt lat="48.8897" lon="2.39535">
        <ele>64.400001525879</ele>
        <time>2015-06-01T19:53:14Z</time>
      </trkpt>
      <trkpt lat="48.88985" lon="2.39534">
        <ele>65</ele>
        <time>2015-06-01T19:53:19Z</time>
      </trkpt>
      <trkpt lat="48.88998" lon="2.39525">
        <ele>65.199996948242</ele>
        <time>2015-06-01T19:53:24Z</time>
      </trkpt>
      <trkpt lat="48.89014" lon="2.39516">
        <ele>65.400001525879</ele>
        <time>2015-06-01T19:53:30Z</time>
      </trkpt>
      <trkpt lat="48.89026" lon="2.39511">
        <ele>65.599998474121</ele>
        <time>2015-06-01T19:53:33Z</time>
      </trkpt>
      <trkpt lat="48.89038" lon="2.3951">
        <ele>65.599998474121</ele>
        <time>2015-06-01T19:53:39Z</time>
      </trkpt>
      <trkpt lat="48.89049" lon="2.39504">
        <ele>65.599998474121</ele>
        <time>2015-06-01T19:53:44Z</time>
      </trkpt>
      <trkpt lat="48.89052" lon="2.39503">
        <ele>65.599998474121</ele>
        <time>2015-06-01T19:53:45Z</time>
      </trkpt>
      <trkpt lat="48.89054" lon="2.39504">
        <ele>65.599998474121</ele>
        <time>2015-06-01T19:53:48Z</time>
      </trkpt>
      <trkpt lat="48.89062" lon="2.39498">
        <ele>65.599998474121</ele>
        <time>2015-06-01T19:53:54Z</time>
      </trkpt>
      <trkpt lat="48.89071" lon="2.39492">
        <ele>65.800003051758</ele>
        <time>2015-06-01T19:53:58Z</time>
      </trkpt>
      <trkpt lat="48.89081" lon="2.3949">
        <ele>65.800003051758</ele>
        <time>2015-06-01T19:54:04Z</time>
      </trkpt>
      <trkpt lat="48.89091" lon="2.39487">
        <ele>65.800003051758</ele>
        <time>2015-06-01T19:54:09Z</time>
      </trkpt>
      <trkpt lat="48.89103" lon="2.39483">
        <ele>66.400001525879</ele>
        <time>2015-06-01T19:54:14Z</time>
      </trkpt>
      <trkpt lat="48.89111" lon="2.39481">
        <ele>66.800003051758</ele>
        <time>2015-06-01T19:54:18Z</time>
      </trkpt>
      <trkpt lat="48.89113" lon="2.39481">
        <ele>67</ele>
        <time>2015-06-01T19:54:19Z</time>
      </trkpt>
      <trkpt lat="48.89119" lon="2.39468">
        <ele>67.199996948242</ele>
        <time>2015-06-01T19:54:23Z</time>
      </trkpt>
      <trkpt lat="48.89119" lon="2.39464">
        <ele>67.400001525879</ele>
        <time>2015-06-01T19:54:24Z</time>
      </trkpt>
      <trkpt lat="48.89116" lon="2.39442">
        <ele>67.599998474121</ele>
        <time>2015-06-01T19:54:29Z</time>
      </trkpt>
      <trkpt lat="48.89107" lon="2.39432">
        <ele>67.599998474121</ele>
        <time>2015-06-01T19:54:33Z</time>
      </trkpt>
      <trkpt lat="48.89102" lon="2.39427">
        <ele>67.599998474121</ele>
        <time>2015-06-01T19:54:36Z</time>
      </trkpt>
      <trkpt lat="48.89102" lon="2.39422">
        <ele>67.800003051758</ele>
        <time>2015-06-01T19:54:41Z</time>
      </trkpt>
      <trkpt lat="48.89107" lon="2.39425">
        <ele>67.800003051758</ele>
        <time>2015-06-01T19:55:09Z</time>
      </trkpt>
      <trkpt lat="48.89106" lon="2.39428">
        <ele>67.800003051758</ele>
        <time>2015-06-01T19:55:15Z</time>
      </trkpt>
      <trkpt lat="48.89104" lon="2.39428">
        <ele>67.800003051758</ele>
        <time>2015-06-01T19:55:23Z</time>
      </trkpt>
      <trkpt lat="48.89113" lon="2.39421">
        <ele>75</ele>
        <time>2015-06-01T19:57:39Z</time>
      </trkpt>
      <trkpt lat="48.89112" lon="2.3942">
        <ele>75.599998474121</ele>
        <time>2015-06-01T19:57:45Z</time>
      </trkpt>
      <trkpt lat="48.8912" lon="2.39416">
        <ele>82</ele>
        <time>2015-06-01T20:00:20Z</time>
      </trkpt>
      <trkpt lat="48.89123" lon="2.39423">
        <ele>82</ele>
        <time>2015-06-01T20:00:24Z</time>
      </trkpt>
      <trkpt lat="48.89125" lon="2.39427">
        <ele>82</ele>
        <time>2015-06-01T20:00:26Z</time>
      </trkpt>
      <trkpt lat="48.89124" lon="2.39445">
        <ele>81.800003051758</ele>
        <time>2015-06-01T20:00:31Z</time>
      </trkpt>
      <trkpt lat="48.89125" lon="2.39458">
        <ele>81.400001525879</ele>
        <time>2015-06-01T20:00:33Z</time>
      </trkpt>
      <trkpt lat="48.89111" lon="2.39472">
        <ele>80.400001525879</ele>
        <time>2015-06-01T20:00:37Z</time>
      </trkpt>
      <trkpt lat="48.89098" lon="2.39468">
        <ele>79.800003051758</ele>
        <time>2015-06-01T20:00:40Z</time>
      </trkpt>
      <trkpt lat="48.89084" lon="2.39478">
        <ele>78.599998474121</ele>
        <time>2015-06-01T20:00:43Z</time>
      </trkpt>
      <trkpt lat="48.89075" lon="2.39477">
        <ele>78</ele>
        <time>2015-06-01T20:00:45Z</time>
      </trkpt>
      <trkpt lat="48.89065" lon="2.39477">
        <ele>77</ele>
        <time>2015-06-01T20:00:47Z</time>
      </trkpt>
      <trkpt lat="48.89052" lon="2.39484">
        <ele>76</ele>
        <time>2015-06-01T20:00:50Z</time>
      </trkpt>
      <trkpt lat="48.8903" lon="2.39503">
        <ele>74.599998474121</ele>
        <time>2015-06-01T20:00:55Z</time>
      </trkpt>
      <trkpt lat="48.89025" lon="2.39506">
        <ele>74.199996948242</ele>
        <time>2015-06-01T20:00:56Z</time>
      </trkpt>
      <trkpt lat="48.89014" lon="2.39511">
        <ele>73</ele>
        <time>2015-06-01T20:00:59Z</time>
      </trkpt>
      <trkpt lat="48.89008" lon="2.39515">
        <ele>72.199996948242</ele>
        <time>2015-06-01T20:01:00Z</time>
      </trkpt>
      <trkpt lat="48.88995" lon="2.39531">
        <ele>70.800003051758</ele>
        <time>2015-06-01T20:01:05Z</time>
      </trkpt>
      <trkpt lat="48.88992" lon="2.39534">
        <ele>70.400001525879</ele>
        <time>2015-06-01T20:01:06Z</time>
      </trkpt>
      <trkpt lat="48.88974" lon="2.39545">
        <ele>68.599998474121</ele>
        <time>2015-06-01T20:01:12Z</time>
      </trkpt>
      <trkpt lat="48.88971" lon="2.39547">
        <ele>68.400001525879</ele>
        <time>2015-06-01T20:01:13Z</time>
      </trkpt>
      <trkpt lat="48.88966" lon="2.39544">
        <ele>67.400001525879</ele>
        <time>2015-06-01T20:01:16Z</time>
      </trkpt>
      <trkpt lat="48.88965" lon="2.39545">
        <ele>65</ele>
        <time>2015-06-01T20:01:36Z</time>
      </trkpt>
      <trkpt lat="48.88964" lon="2.39547">
        <ele>64.199996948242</ele>
        <time>2015-06-01T20:01:41Z</time>
      </trkpt>
      <trkpt lat="48.88962" lon="2.39547">
        <ele>64</ele>
        <time>2015-06-01T20:01:43Z</time>
      </trkpt>
      <trkpt lat="48.88959" lon="2.39544">
        <ele>63.400001525879</ele>
        <time>2015-06-01T20:01:47Z</time>
      </trkpt>
      <trkpt lat="48.88962" lon="2.39545">
        <ele>63.400001525879</ele>
        <time>2015-06-01T20:01:48Z</time>
      </trkpt>
      <trkpt lat="48.88964" lon="2.39545">
        <ele>63</ele>
        <time>2015-06-01T20:01:55Z</time>
      </trkpt>
      <trkpt lat="48.88963" lon="2.39546">
        <ele>62.79999923706</ele>
        <time>2015-06-01T20:02:01Z</time>
      </trkpt>
      <trkpt lat="48.88959" lon="2.39544">
        <ele>62.79999923706</ele>
        <time>2015-06-01T20:02:05Z</time>
      </trkpt>
      <trkpt lat="48.88952" lon="2.3954">
        <ele>62.599998474121</ele>
        <time>2015-06-01T20:02:13Z</time>
      </trkpt>
      <trkpt lat="48.88952" lon="2.3954">
        <ele>62.599998474121</ele>
        <time>2015-06-01T20:02:21Z</time>
      </trkpt>
      <trkpt lat="48.88953" lon="2.39542">
        <ele>62.599998474121</ele>
        <time>2015-06-01T20:02:25Z</time>
      </trkpt>
      <trkpt lat="48.8896" lon="2.39539">
        <ele>62.599998474121</ele>
        <time>2015-06-01T20:02:30Z</time>
      </trkpt>
      <trkpt lat="48.88961" lon="2.39533">
        <ele>62.599998474121</ele>
        <time>2015-06-01T20:02:31Z</time>
      </trkpt>
      <trkpt lat="48.88961" lon="2.39523">
        <ele>62.599998474121</ele>
        <time>2015-06-01T20:02:35Z</time>
      </trkpt>
      <trkpt lat="48.8895" lon="2.39525">
        <ele>62.599998474121</ele>
        <time>2015-06-01T20:02:40Z</time>
      </trkpt>
      <trkpt lat="48.88939" lon="2.39525">
        <ele>62.599998474121</ele>
        <time>2015-06-01T20:02:44Z</time>
      </trkpt>
      <trkpt lat="48.88937" lon="2.39529">
        <ele>62.599998474121</ele>
        <time>2015-06-01T20:02:46Z</time>
      </trkpt>
      <trkpt lat="48.88936" lon="2.3953">
        <ele>62.599998474121</ele>
        <time>2015-06-01T20:02:48Z</time>
      </trkpt>
      <trkpt lat="48.8893" lon="2.39534">
        <ele>61.79999923706</ele>
        <time>2015-06-01T20:03:03Z</time>
      </trkpt>
      <trkpt lat="48.88926" lon="2.39526">
        <ele>61.400001525879</ele>
        <time>2015-06-01T20:03:08Z</time>
      </trkpt>
      <trkpt lat="48.88922" lon="2.39513">
        <ele>61</ele>
        <time>2015-06-01T20:03:13Z</time>
      </trkpt>
      <trkpt lat="48.88912" lon="2.39485">
        <ele>60.79999923706</ele>
        <time>2015-06-01T20:03:21Z</time>
      </trkpt>
      <trkpt lat="48.88902" lon="2.3946">
        <ele>60.599998474121</ele>
        <time>2015-06-01T20:03:27Z</time>
      </trkpt>
      <trkpt lat="48.88898" lon="2.3944">
        <ele>60.599998474121</ele>
        <time>2015-06-01T20:03:31Z</time>
      </trkpt>
      <trkpt lat="48.88897" lon="2.39435">
        <ele>60.599998474121</ele>
        <time>2015-06-01T20:03:32Z</time>
      </trkpt>
      <trkpt lat="48.88896" lon="2.39413">
        <ele>60.599998474121</ele>
        <time>2015-06-01T20:03:36Z</time>
      </trkpt>
      <trkpt lat="48.88892" lon="2.39402">
        <ele>60.599998474121</ele>
        <time>2015-06-01T20:03:38Z</time>
      </trkpt>
      <trkpt lat="48.88886" lon="2.39379">
        <ele>60.599998474121</ele>
        <time>2015-06-01T20:03:42Z</time>
      </trkpt>
      <trkpt lat="48.88879" lon="2.39352">
        <ele>59.79999923706</ele>
        <time>2015-06-01T20:03:46Z</time>
      </trkpt>
      <trkpt lat="48.88871" lon="2.3932">
        <ele>59.20000076294</ele>
        <time>2015-06-01T20:03:51Z</time>
      </trkpt>
      <trkpt lat="48.88866" lon="2.39317">
        <ele>59.20000076294</ele>
        <time>2015-06-01T20:03:54Z</time>
      </trkpt>
      <trkpt lat="48.88854" lon="2.39319">
        <ele>58</ele>
        <time>2015-06-01T20:04:01Z</time>
      </trkpt>
      <trkpt lat="48.88853" lon="2.3932">
        <ele>57.79999923706</ele>
        <time>2015-06-01T20:04:02Z</time>
      </trkpt>
      <trkpt lat="48.88854" lon="2.39323">
        <ele>57.20000076294</ele>
        <time>2015-06-01T20:04:08Z</time>
      </trkpt>
      <trkpt lat="48.88854" lon="2.39327">
        <ele>56.79999923706</ele>
        <time>2015-06-01T20:04:13Z</time>
      </trkpt>
      <trkpt lat="48.88852" lon="2.39329">
        <ele>56.599998474121</ele>
        <time>2015-06-01T20:04:15Z</time>
      </trkpt>
      <trkpt lat="48.88832" lon="2.39333">
        <ele>56.599998474121</ele>
        <time>2015-06-01T20:04:21Z</time>
      </trkpt>
      <trkpt lat="48.88812" lon="2.39342">
        <ele>56.400001525879</ele>
        <time>2015-06-01T20:04:26Z</time>
      </trkpt>
      <trkpt lat="48.88803" lon="2.39348">
        <ele>56.79999923706</ele>
        <time>2015-06-01T20:04:28Z</time>
      </trkpt>
      <trkpt lat="48.88781" lon="2.39356">
        <ele>57.400001525879</ele>
        <time>2015-06-01T20:04:32Z</time>
      </trkpt>
      <trkpt lat="48.88767" lon="2.39364">
        <ele>57.599998474121</ele>
        <time>2015-06-01T20:04:36Z</time>
      </trkpt>
      <trkpt lat="48.8875" lon="2.39368">
        <ele>58</ele>
        <time>2015-06-01T20:04:41Z</time>
      </trkpt>
      <trkpt lat="48.8874" lon="2.39376">
        <ele>58</ele>
        <time>2015-06-01T20:04:45Z</time>
      </trkpt>
      <trkpt lat="48.88737" lon="2.39375">
        <ele>58</ele>
        <time>2015-06-01T20:04:46Z</time>
      </trkpt>
      <trkpt lat="48.8872" lon="2.39379">
        <ele>59</ele>
        <time>2015-06-01T20:04:52Z</time>
      </trkpt>
      <trkpt lat="48.88705" lon="2.39384">
        <ele>59.599998474121</ele>
        <time>2015-06-01T20:04:58Z</time>
      </trkpt>
      <trkpt lat="48.88702" lon="2.39384">
        <ele>59.599998474121</ele>
        <time>2015-06-01T20:04:59Z</time>
      </trkpt>
      <trkpt lat="48.88691" lon="2.39388">
        <ele>60</ele>
        <time>2015-06-01T20:05:03Z</time>
      </trkpt>
      <trkpt lat="48.88675" lon="2.39388">
        <ele>60</ele>
        <time>2015-06-01T20:05:07Z</time>
      </trkpt>
      <trkpt lat="48.88663" lon="2.39392">
        <ele>60.79999923706</ele>
        <time>2015-06-01T20:05:12Z</time>
      </trkpt>
      <trkpt lat="48.88658" lon="2.39397">
        <ele>61.599998474121</ele>
        <time>2015-06-01T20:05:18Z</time>
      </trkpt>
      <trkpt lat="48.88646" lon="2.39403">
        <ele>70.199996948242</ele>
        <time>2015-06-01T20:05:44Z</time>
      </trkpt>
      <trkpt lat="48.88639" lon="2.39397">
        <ele>72</ele>
        <time>2015-06-01T20:05:48Z</time>
      </trkpt>
      <trkpt lat="48.88636" lon="2.39396">
        <ele>72.800003051758</ele>
        <time>2015-06-01T20:05:49Z</time>
      </trkpt>
      <trkpt lat="48.88628" lon="2.39401">
        <ele>74.800003051758</ele>
        <time>2015-06-01T20:05:54Z</time>
      </trkpt>
      <trkpt lat="48.88625" lon="2.39399">
        <ele>75.400001525879</ele>
        <time>2015-06-01T20:05:56Z</time>
      </trkpt>
      <trkpt lat="48.88601" lon="2.39389">
        <ele>79</ele>
        <time>2015-06-01T20:06:07Z</time>
      </trkpt>
      <trkpt lat="48.88587" lon="2.39382">
        <ele>79.800003051758</ele>
        <time>2015-06-01T20:06:13Z</time>
      </trkpt>
      <trkpt lat="48.88571" lon="2.39372">
        <ele>80.199996948242</ele>
        <time>2015-06-01T20:06:20Z</time>
      </trkpt>
      <trkpt lat="48.88564" lon="2.39364">
        <ele>80.199996948242</ele>
        <time>2015-06-01T20:06:23Z</time>
      </trkpt>
      <trkpt lat="48.88553" lon="2.39345">
        <ele>80.400001525879</ele>
        <time>2015-06-01T20:06:27Z</time>
      </trkpt>
      <trkpt lat="48.88541" lon="2.39327">
        <ele>80.400001525879</ele>
        <time>2015-06-01T20:06:30Z</time>
      </trkpt>
      <trkpt lat="48.88531" lon="2.39311">
        <ele>80.400001525879</ele>
        <time>2015-06-01T20:06:33Z</time>
      </trkpt>
      <trkpt lat="48.88511" lon="2.39281">
        <ele>79.800003051758</ele>
        <time>2015-06-01T20:06:38Z</time>
      </trkpt>
      <trkpt lat="48.88498" lon="2.39262">
        <ele>79.400001525879</ele>
        <time>2015-06-01T20:06:42Z</time>
      </trkpt>
      <trkpt lat="48.88495" lon="2.39257">
        <ele>79.199996948242</ele>
        <time>2015-06-01T20:06:43Z</time>
      </trkpt>
      <trkpt lat="48.8849" lon="2.3925">
        <ele>79.199996948242</ele>
        <time>2015-06-01T20:06:45Z</time>
      </trkpt>
      <trkpt lat="48.88475" lon="2.39225">
        <ele>78.800003051758</ele>
        <time>2015-06-01T20:06:49Z</time>
      </trkpt>
      <trkpt lat="48.88465" lon="2.392">
        <ele>78.400001525879</ele>
        <time>2015-06-01T20:06:52Z</time>
      </trkpt>
      <trkpt lat="48.88455" lon="2.39174">
        <ele>77.800003051758</ele>
        <time>2015-06-01T20:06:55Z</time>
      </trkpt>
      <trkpt lat="48.88452" lon="2.39166">
        <ele>77.599998474121</ele>
        <time>2015-06-01T20:06:56Z</time>
      </trkpt>
      <trkpt lat="48.88442" lon="2.3914">
        <ele>77.400001525879</ele>
        <time>2015-06-01T20:06:59Z</time>
      </trkpt>
      <trkpt lat="48.88428" lon="2.39111">
        <ele>77</ele>
        <time>2015-06-01T20:07:02Z</time>
      </trkpt>
      <trkpt lat="48.88425" lon="2.39105">
        <ele>77</ele>
        <time>2015-06-01T20:07:03Z</time>
      </trkpt>
      <trkpt lat="48.8841" lon="2.39067">
        <ele>76.800003051758</ele>
        <time>2015-06-01T20:07:07Z</time>
      </trkpt>
      <trkpt lat="48.88406" lon="2.39057">
        <ele>76.800003051758</ele>
        <time>2015-06-01T20:07:08Z</time>
      </trkpt>
      <trkpt lat="48.88401" lon="2.39042">
        <ele>76.599998474121</ele>
        <time>2015-06-01T20:07:10Z</time>
      </trkpt>
      <trkpt lat="48.88388" lon="2.39011">
        <ele>76</ele>
        <time>2015-06-01T20:07:14Z</time>
      </trkpt>
      <trkpt lat="48.88387" lon="2.39007">
        <ele>75.800003051758</ele>
        <time>2015-06-01T20:07:15Z</time>
      </trkpt>
      <trkpt lat="48.88378" lon="2.38984">
        <ele>75.400001525879</ele>
        <time>2015-06-01T20:07:18Z</time>
      </trkpt>
      <trkpt lat="48.88372" lon="2.38963">
        <ele>75.199996948242</ele>
        <time>2015-06-01T20:07:21Z</time>
      </trkpt>
      <trkpt lat="48.88363" lon="2.38938">
        <ele>75</ele>
        <time>2015-06-01T20:07:24Z</time>
      </trkpt>
      <trkpt lat="48.88358" lon="2.38915">
        <ele>74.800003051758</ele>
        <time>2015-06-01T20:07:27Z</time>
      </trkpt>
      <trkpt lat="48.88347" lon="2.38879">
        <ele>74.599998474121</ele>
        <time>2015-06-01T20:07:31Z</time>
      </trkpt>
      <trkpt lat="48.88343" lon="2.38865">
        <ele>74.599998474121</ele>
        <time>2015-06-01T20:07:33Z</time>
      </trkpt>
      <trkpt lat="48.88336" lon="2.38823">
        <ele>74.400001525879</ele>
        <time>2015-06-01T20:07:38Z</time>
      </trkpt>
      <trkpt lat="48.88335" lon="2.38818">
        <ele>74.400001525879</ele>
        <time>2015-06-01T20:07:39Z</time>
      </trkpt>
      <trkpt lat="48.88332" lon="2.38792">
        <ele>74.400001525879</ele>
        <time>2015-06-01T20:07:43Z</time>
      </trkpt>
      <trkpt lat="48.8833" lon="2.3879">
        <ele>74.400001525879</ele>
        <time>2015-06-01T20:07:49Z</time>
      </trkpt>
      <trkpt lat="48.88328" lon="2.38791">
        <ele>74.400001525879</ele>
        <time>2015-06-01T20:07:57Z</time>
      </trkpt>
      <trkpt lat="48.8832" lon="2.38792">
        <ele>77.400001525879</ele>
        <time>2015-06-01T20:08:21Z</time>
      </trkpt>
      <trkpt lat="48.88322" lon="2.38775">
        <ele>78.199996948242</ele>
        <time>2015-06-01T20:08:25Z</time>
      </trkpt>
      <trkpt lat="48.88322" lon="2.3877">
        <ele>78.400001525879</ele>
        <time>2015-06-01T20:08:26Z</time>
      </trkpt>
      <trkpt lat="48.88322" lon="2.38741">
        <ele>79</ele>
        <time>2015-06-01T20:08:29Z</time>
      </trkpt>
      <trkpt lat="48.8832" lon="2.3871">
        <ele>79.599998474121</ele>
        <time>2015-06-01T20:08:33Z</time>
      </trkpt>
      <trkpt lat="48.88319" lon="2.38701">
        <ele>79.800003051758</ele>
        <time>2015-06-01T20:08:34Z</time>
      </trkpt>
      <trkpt lat="48.88319" lon="2.38695">
        <ele>79.800003051758</ele>
        <time>2015-06-01T20:08:35Z</time>
      </trkpt>
      <trkpt lat="48.8832" lon="2.38684">
        <ele>80</ele>
        <time>2015-06-01T20:08:37Z</time>
      </trkpt>
      <trkpt lat="48.88317" lon="2.38654">
        <ele>80.400001525879</ele>
        <time>2015-06-01T20:08:43Z</time>
      </trkpt>
      <trkpt lat="48.88318" lon="2.38641">
        <ele>80.400001525879</ele>
        <time>2015-06-01T20:08:45Z</time>
      </trkpt>
      <trkpt lat="48.88316" lon="2.38606">
        <ele>79.800003051758</ele>
        <time>2015-06-01T20:08:51Z</time>
      </trkpt>
      <trkpt lat="48.8831" lon="2.38581">
        <ele>79.400001525879</ele>
        <time>2015-06-01T20:08:56Z</time>
      </trkpt>
      <trkpt lat="48.88305" lon="2.38552">
        <ele>79</ele>
        <time>2015-06-01T20:09:01Z</time>
      </trkpt>
      <trkpt lat="48.883" lon="2.38531">
        <ele>78.599998474121</ele>
        <time>2015-06-01T20:09:04Z</time>
      </trkpt>
      <trkpt lat="48.88297" lon="2.38497">
        <ele>77.800003051758</ele>
        <time>2015-06-01T20:09:08Z</time>
      </trkpt>
      <trkpt lat="48.88295" lon="2.3848">
        <ele>77.599998474121</ele>
        <time>2015-06-01T20:09:10Z</time>
      </trkpt>
      <trkpt lat="48.88293" lon="2.3847">
        <ele>77.599998474121</ele>
        <time>2015-06-01T20:09:11Z</time>
      </trkpt>
      <trkpt lat="48.88288" lon="2.38433">
        <ele>77.199996948242</ele>
        <time>2015-06-01T20:09:15Z</time>
      </trkpt>
      <trkpt lat="48.88286" lon="2.38424">
        <ele>77.199996948242</ele>
        <time>2015-06-01T20:09:16Z</time>
      </trkpt>
      <trkpt lat="48.88279" lon="2.38395">
        <ele>77</ele>
        <time>2015-06-01T20:09:19Z</time>
      </trkpt>
      <trkpt lat="48.88273" lon="2.38363">
        <ele>76.800003051758</ele>
        <time>2015-06-01T20:09:22Z</time>
      </trkpt>
      <trkpt lat="48.88265" lon="2.3833">
        <ele>76.400001525879</ele>
        <time>2015-06-01T20:09:25Z</time>
      </trkpt>
      <trkpt lat="48.88257" lon="2.38301">
        <ele>75.800003051758</ele>
        <time>2015-06-01T20:09:28Z</time>
      </trkpt>
      <trkpt lat="48.88252" lon="2.38283">
        <ele>75.599998474121</ele>
        <time>2015-06-01T20:09:30Z</time>
      </trkpt>
      <trkpt lat="48.88246" lon="2.38253">
        <ele>75.199996948242</ele>
        <time>2015-06-01T20:09:34Z</time>
      </trkpt>
      <trkpt lat="48.88237" lon="2.38229">
        <ele>74.199996948242</ele>
        <time>2015-06-01T20:09:38Z</time>
      </trkpt>
      <trkpt lat="48.88231" lon="2.38218">
        <ele>74</ele>
        <time>2015-06-01T20:09:40Z</time>
      </trkpt>
      <trkpt lat="48.88225" lon="2.38201">
        <ele>73.599998474121</ele>
        <time>2015-06-01T20:09:43Z</time>
      </trkpt>
      <trkpt lat="48.88223" lon="2.38196">
        <ele>73.400001525879</ele>
        <time>2015-06-01T20:09:44Z</time>
      </trkpt>
      <trkpt lat="48.88222" lon="2.38192">
        <ele>73.400001525879</ele>
        <time>2015-06-01T20:09:45Z</time>
      </trkpt>
      <trkpt lat="48.88213" lon="2.38178">
        <ele>73</ele>
        <time>2015-06-01T20:09:49Z</time>
      </trkpt>
      <trkpt lat="48.88199" lon="2.38158">
        <ele>72</ele>
        <time>2015-06-01T20:09:54Z</time>
      </trkpt>
      <trkpt lat="48.88185" lon="2.3814">
        <ele>71.400001525879</ele>
        <time>2015-06-01T20:09:58Z</time>
      </trkpt>
      <trkpt lat="48.8818" lon="2.38134">
        <ele>71.400001525879</ele>
        <time>2015-06-01T20:09:59Z</time>
      </trkpt>
      <trkpt lat="48.88166" lon="2.38114">
        <ele>71</ele>
        <time>2015-06-01T20:10:03Z</time>
      </trkpt>
      <trkpt lat="48.88162" lon="2.3811">
        <ele>71</ele>
        <time>2015-06-01T20:10:04Z</time>
      </trkpt>
      <trkpt lat="48.88154" lon="2.381">
        <ele>70.800003051758</ele>
        <time>2015-06-01T20:10:07Z</time>
      </trkpt>
      <trkpt lat="48.8815" lon="2.38091">
        <ele>70.800003051758</ele>
        <time>2015-06-01T20:10:09Z</time>
      </trkpt>
      <trkpt lat="48.88141" lon="2.38076">
        <ele>70.599998474121</ele>
        <time>2015-06-01T20:10:13Z</time>
      </trkpt>
      <trkpt lat="48.88138" lon="2.38067">
        <ele>69.599998474121</ele>
        <time>2015-06-01T20:10:19Z</time>
      </trkpt>
      <trkpt lat="48.88139" lon="2.38067">
        <ele>69</ele>
        <time>2015-06-01T20:10:25Z</time>
      </trkpt>
      <trkpt lat="48.88136" lon="2.38065">
        <ele>66.400001525879</ele>
        <time>2015-06-01T20:10:52Z</time>
      </trkpt>
      <trkpt lat="48.88127" lon="2.38055">
        <ele>66.199996948242</ele>
        <time>2015-06-01T20:10:56Z</time>
      </trkpt>
      <trkpt lat="48.88111" lon="2.38039">
        <ele>66.199996948242</ele>
        <time>2015-06-01T20:11:01Z</time>
      </trkpt>
      <trkpt lat="48.88097" lon="2.38021">
        <ele>66.199996948242</ele>
        <time>2015-06-01T20:11:05Z</time>
      </trkpt>
      <trkpt lat="48.88093" lon="2.38016">
        <ele>66.199996948242</ele>
        <time>2015-06-01T20:11:06Z</time>
      </trkpt>
      <trkpt lat="48.88083" lon="2.38002">
        <ele>66.199996948242</ele>
        <time>2015-06-01T20:11:09Z</time>
      </trkpt>
      <trkpt lat="48.88064" lon="2.37982">
        <ele>66.199996948242</ele>
        <time>2015-06-01T20:11:14Z</time>
      </trkpt>
      <trkpt lat="48.88046" lon="2.37968">
        <ele>66.199996948242</ele>
        <time>2015-06-01T20:11:18Z</time>
      </trkpt>
      <trkpt lat="48.88031" lon="2.37954">
        <ele>66.199996948242</ele>
        <time>2015-06-01T20:11:21Z</time>
      </trkpt>
      <trkpt lat="48.88021" lon="2.37948">
        <ele>66.199996948242</ele>
        <time>2015-06-01T20:11:23Z</time>
      </trkpt>
      <trkpt lat="48.87998" lon="2.37925">
        <ele>66.199996948242</ele>
        <time>2015-06-01T20:11:28Z</time>
      </trkpt>
      <trkpt lat="48.87988" lon="2.37918">
        <ele>66.199996948242</ele>
        <time>2015-06-01T20:11:30Z</time>
      </trkpt>
      <trkpt lat="48.87978" lon="2.37913">
        <ele>66.199996948242</ele>
        <time>2015-06-01T20:11:32Z</time>
      </trkpt>
      <trkpt lat="48.87961" lon="2.37903">
        <ele>66.199996948242</ele>
        <time>2015-06-01T20:11:36Z</time>
      </trkpt>
      <trkpt lat="48.87938" lon="2.37891">
        <ele>66.199996948242</ele>
        <time>2015-06-01T20:11:41Z</time>
      </trkpt>
      <trkpt lat="48.87934" lon="2.37888">
        <ele>66.199996948242</ele>
        <time>2015-06-01T20:11:42Z</time>
      </trkpt>
      <trkpt lat="48.87927" lon="2.37883">
        <ele>66.199996948242</ele>
        <time>2015-06-01T20:11:44Z</time>
      </trkpt>
      <trkpt lat="48.8791" lon="2.37869">
        <ele>66.199996948242</ele>
        <time>2015-06-01T20:11:50Z</time>
      </trkpt>
      <trkpt lat="48.87895" lon="2.37859">
        <ele>66.199996948242</ele>
        <time>2015-06-01T20:11:56Z</time>
      </trkpt>
      <trkpt lat="48.87882" lon="2.37851">
        <ele>67</ele>
        <time>2015-06-01T20:12:01Z</time>
      </trkpt>
      <trkpt lat="48.87875" lon="2.37849">
        <ele>67.199996948242</ele>
        <time>2015-06-01T20:12:03Z</time>
      </trkpt>
      <trkpt lat="48.87858" lon="2.3784">
        <ele>67.599998474121</ele>
        <time>2015-06-01T20:12:09Z</time>
      </trkpt>
      <trkpt lat="48.87845" lon="2.37836">
        <ele>68.599998474121</ele>
        <time>2015-06-01T20:12:13Z</time>
      </trkpt>
      <trkpt lat="48.87824" lon="2.37832">
        <ele>69.400001525879</ele>
        <time>2015-06-01T20:12:19Z</time>
      </trkpt>
      <trkpt lat="48.87805" lon="2.37834">
        <ele>70</ele>
        <time>2015-06-01T20:12:24Z</time>
      </trkpt>
      <trkpt lat="48.87787" lon="2.37833">
        <ele>70.800003051758</ele>
        <time>2015-06-01T20:12:28Z</time>
      </trkpt>
      <trkpt lat="48.87765" lon="2.37842">
        <ele>71.599998474121</ele>
        <time>2015-06-01T20:12:34Z</time>
      </trkpt>
      <trkpt lat="48.87762" lon="2.37844">
        <ele>71.800003051758</ele>
        <time>2015-06-01T20:12:35Z</time>
      </trkpt>
      <trkpt lat="48.87751" lon="2.37849">
        <ele>72</ele>
        <time>2015-06-01T20:12:38Z</time>
      </trkpt>
      <trkpt lat="48.87742" lon="2.37856">
        <ele>72.599998474121</ele>
        <time>2015-06-01T20:12:41Z</time>
      </trkpt>
      <trkpt lat="48.87728" lon="2.37868">
        <ele>73.400001525879</ele>
        <time>2015-06-01T20:12:46Z</time>
      </trkpt>
      <trkpt lat="48.87716" lon="2.37881">
        <ele>74</ele>
        <time>2015-06-01T20:12:50Z</time>
      </trkpt>
      <trkpt lat="48.87707" lon="2.3789">
        <ele>74.599998474121</ele>
        <time>2015-06-01T20:12:53Z</time>
      </trkpt>
      <trkpt lat="48.87695" lon="2.37906">
        <ele>75.400001525879</ele>
        <time>2015-06-01T20:12:58Z</time>
      </trkpt>
      <trkpt lat="48.87681" lon="2.37923">
        <ele>76.599998474121</ele>
        <time>2015-06-01T20:13:03Z</time>
      </trkpt>
      <trkpt lat="48.87668" lon="2.37944">
        <ele>77.599998474121</ele>
        <time>2015-06-01T20:13:08Z</time>
      </trkpt>
      <trkpt lat="48.87655" lon="2.37963">
        <ele>79</ele>
        <time>2015-06-01T20:13:13Z</time>
      </trkpt>
      <trkpt lat="48.87642" lon="2.37985">
        <ele>79.800003051758</ele>
        <time>2015-06-01T20:13:19Z</time>
      </trkpt>
      <trkpt lat="48.87636" lon="2.37994">
        <ele>80.199996948242</ele>
        <time>2015-06-01T20:13:23Z</time>
      </trkpt>
      <trkpt lat="48.87634" lon="2.37991">
        <ele>80.599998474121</ele>
        <time>2015-06-01T20:13:31Z</time>
      </trkpt>
      <trkpt lat="48.87639" lon="2.37991">
        <ele>80.800003051758</ele>
        <time>2015-06-01T20:13:44Z</time>
      </trkpt>
      <trkpt lat="48.87642" lon="2.37994">
        <ele>80.800003051758</ele>
        <time>2015-06-01T20:13:49Z</time>
      </trkpt>
      <trkpt lat="48.87645" lon="2.37994">
        <ele>80.800003051758</ele>
        <time>2015-06-01T20:13:56Z</time>
      </trkpt>
      <trkpt lat="48.87645" lon="2.37998">
        <ele>81</ele>
        <time>2015-06-01T20:14:01Z</time>
      </trkpt>
      <trkpt lat="48.87645" lon="2.38">
        <ele>81</ele>
        <time>2015-06-01T20:14:02Z</time>
      </trkpt>
      <trkpt lat="48.87642" lon="2.38005">
        <ele>81</ele>
        <time>2015-06-01T20:14:06Z</time>
      </trkpt>
      <trkpt lat="48.8764" lon="2.38009">
        <ele>81</ele>
        <time>2015-06-01T20:14:08Z</time>
      </trkpt>
      <trkpt lat="48.87641" lon="2.38011">
        <ele>82</ele>
        <time>2015-06-01T20:14:16Z</time>
      </trkpt>
      <trkpt lat="48.87639" lon="2.38013">
        <ele>82.599998474121</ele>
        <time>2015-06-01T20:14:23Z</time>
      </trkpt>
      <trkpt lat="48.87635" lon="2.38019">
        <ele>83.199996948242</ele>
        <time>2015-06-01T20:14:28Z</time>
      </trkpt>
      <trkpt lat="48.87631" lon="2.3803">
        <ele>83.800003051758</ele>
        <time>2015-06-01T20:14:31Z</time>
      </trkpt>
      <trkpt lat="48.87626" lon="2.38038">
        <ele>84.199996948242</ele>
        <time>2015-06-01T20:14:34Z</time>
      </trkpt>
      <trkpt lat="48.87621" lon="2.3803">
        <ele>86</ele>
        <time>2015-06-01T20:15:27Z</time>
      </trkpt>
      <trkpt lat="48.87629" lon="2.38028">
        <ele>88.400001525879</ele>
        <time>2015-06-01T20:15:38Z</time>
      </trkpt>
      <trkpt lat="48.87631" lon="2.38026">
        <ele>89.400001525879</ele>
        <time>2015-06-01T20:15:43Z</time>
      </trkpt>
      <trkpt lat="48.87633" lon="2.38025">
        <ele>90.800003051758</ele>
        <time>2015-06-01T20:15:48Z</time>
      </trkpt>
      <trkpt lat="48.87638" lon="2.3802">
        <ele>91.400001525879</ele>
        <time>2015-06-01T20:15:52Z</time>
      </trkpt>
      <trkpt lat="48.8764" lon="2.3802">
        <ele>91.800003051758</ele>
        <time>2015-06-01T20:15:56Z</time>
      </trkpt>
      <trkpt lat="48.87641" lon="2.38023">
        <ele>92</ele>
        <time>2015-06-01T20:16:00Z</time>
      </trkpt>
      <trkpt lat="48.87636" lon="2.38022">
        <ele>92</ele>
        <time>2015-06-01T20:16:10Z</time>
      </trkpt>
      <trkpt lat="48.87635" lon="2.38022">
        <ele>91.199996948242</ele>
        <time>2015-06-01T20:16:17Z</time>
      </trkpt>
      <trkpt lat="48.87634" lon="2.3802">
        <ele>90.800003051758</ele>
        <time>2015-06-01T20:16:23Z</time>
      </trkpt>
      <trkpt lat="48.8763" lon="2.3802">
        <ele>91.800003051758</ele>
        <time>2015-06-01T20:16:45Z</time>
      </trkpt>
      <trkpt lat="48.87628" lon="2.38031">
        <ele>92.199996948242</ele>
        <time>2015-06-01T20:16:57Z</time>
      </trkpt>
      <trkpt lat="48.87625" lon="2.38049">
        <ele>92.400001525879</ele>
        <time>2015-06-01T20:17:04Z</time>
      </trkpt>
      <trkpt lat="48.87623" lon="2.38064">
        <ele>92.400001525879</ele>
        <time>2015-06-01T20:17:10Z</time>
      </trkpt>
      <trkpt lat="48.87618" lon="2.38075">
        <ele>92.400001525879</ele>
        <time>2015-06-01T20:17:15Z</time>
      </trkpt>
      <trkpt lat="48.87618" lon="2.38078">
        <ele>92.400001525879</ele>
        <time>2015-06-01T20:17:16Z</time>
      </trkpt>
      <trkpt lat="48.87616" lon="2.38087">
        <ele>92.400001525879</ele>
        <time>2015-06-01T20:17:20Z</time>
      </trkpt>
      <trkpt lat="48.87612" lon="2.38096">
        <ele>92.400001525879</ele>
        <time>2015-06-01T20:17:24Z</time>
      </trkpt>
      <trkpt lat="48.87601" lon="2.38114">
        <ele>92.400001525879</ele>
        <time>2015-06-01T20:17:28Z</time>
      </trkpt>
      <trkpt lat="48.8759" lon="2.3814">
        <ele>92.400001525879</ele>
        <time>2015-06-01T20:17:32Z</time>
      </trkpt>
      <trkpt lat="48.87587" lon="2.38145">
        <ele>92.400001525879</ele>
        <time>2015-06-01T20:17:33Z</time>
      </trkpt>
      <trkpt lat="48.87582" lon="2.38152">
        <ele>92.599998474121</ele>
        <time>2015-06-01T20:17:35Z</time>
      </trkpt>
      <trkpt lat="48.87578" lon="2.3816">
        <ele>93</ele>
        <time>2015-06-01T20:17:37Z</time>
      </trkpt>
      <trkpt lat="48.87562" lon="2.38186">
        <ele>93.599998474121</ele>
        <time>2015-06-01T20:17:43Z</time>
      </trkpt>
      <trkpt lat="48.87547" lon="2.38204">
        <ele>94</ele>
        <time>2015-06-01T20:17:49Z</time>
      </trkpt>
      <trkpt lat="48.87537" lon="2.38224">
        <ele>94.199996948242</ele>
        <time>2015-06-01T20:17:54Z</time>
      </trkpt>
      <trkpt lat="48.87526" lon="2.38238">
        <ele>94.400001525879</ele>
        <time>2015-06-01T20:17:59Z</time>
      </trkpt>
      <trkpt lat="48.87521" lon="2.3824">
        <ele>94.599998474121</ele>
        <time>2015-06-01T20:18:04Z</time>
      </trkpt>
      <trkpt lat="48.87518" lon="2.38242">
        <ele>98.199996948242</ele>
        <time>2015-06-01T20:18:26Z</time>
      </trkpt>
      <trkpt lat="48.87518" lon="2.38242">
        <ele>98.400001525879</ele>
        <time>2015-06-01T20:18:27Z</time>
      </trkpt>
      <trkpt lat="48.87519" lon="2.38243">
        <ele>98.800003051758</ele>
        <time>2015-06-01T20:18:29Z</time>
      </trkpt>
      <trkpt lat="48.87511" lon="2.38251">
        <ele>99.599998474121</ele>
        <time>2015-06-01T20:18:35Z</time>
      </trkpt>
      <trkpt lat="48.87507" lon="2.38257">
        <ele>100.19999694824</ele>
        <time>2015-06-01T20:18:39Z</time>
      </trkpt>
      <trkpt lat="48.87504" lon="2.38266">
        <ele>101</ele>
        <time>2015-06-01T20:18:42Z</time>
      </trkpt>
      <trkpt lat="48.87491" lon="2.38283">
        <ele>101.59999847412</ele>
        <time>2015-06-01T20:18:47Z</time>
      </trkpt>
      <trkpt lat="48.87477" lon="2.38305">
        <ele>102</ele>
        <time>2015-06-01T20:18:52Z</time>
      </trkpt>
      <trkpt lat="48.87474" lon="2.38311">
        <ele>102.19999694824</ele>
        <time>2015-06-01T20:18:53Z</time>
      </trkpt>
      <trkpt lat="48.87465" lon="2.38325">
        <ele>102.40000152588</ele>
        <time>2015-06-01T20:18:56Z</time>
      </trkpt>
      <trkpt lat="48.87457" lon="2.38334">
        <ele>102.40000152588</ele>
        <time>2015-06-01T20:18:58Z</time>
      </trkpt>
      <trkpt lat="48.87442" lon="2.38356">
        <ele>102.59999847412</ele>
        <time>2015-06-01T20:19:02Z</time>
      </trkpt>
      <trkpt lat="48.87439" lon="2.38363">
        <ele>102.59999847412</ele>
        <time>2015-06-01T20:19:03Z</time>
      </trkpt>
      <trkpt lat="48.87426" lon="2.38386">
        <ele>103</ele>
        <time>2015-06-01T20:19:07Z</time>
      </trkpt>
      <trkpt lat="48.87414" lon="2.38414">
        <ele>103.59999847412</ele>
        <time>2015-06-01T20:19:11Z</time>
      </trkpt>
      <trkpt lat="48.87412" lon="2.38422">
        <ele>103.80000305176</ele>
        <time>2015-06-01T20:19:12Z</time>
      </trkpt>
      <trkpt lat="48.87408" lon="2.38443">
        <ele>104</ele>
        <time>2015-06-01T20:19:15Z</time>
      </trkpt>
      <trkpt lat="48.87404" lon="2.38471">
        <ele>104.40000152588</ele>
        <time>2015-06-01T20:19:19Z</time>
      </trkpt>
      <trkpt lat="48.87402" lon="2.38488">
        <ele>104.40000152588</ele>
        <time>2015-06-01T20:19:22Z</time>
      </trkpt>
      <trkpt lat="48.874" lon="2.38509">
        <ele>104.59999847412</ele>
        <time>2015-06-01T20:19:28Z</time>
      </trkpt>
      <trkpt lat="48.874" lon="2.3851">
        <ele>104.59999847412</ele>
        <time>2015-06-01T20:19:29Z</time>
      </trkpt>
      <trkpt lat="48.874" lon="2.38511">
        <ele>104.59999847412</ele>
        <time>2015-06-01T20:19:33Z</time>
      </trkpt>
      <trkpt lat="48.87401" lon="2.38535">
        <ele>104.80000305176</ele>
        <time>2015-06-01T20:19:39Z</time>
      </trkpt>
      <trkpt lat="48.874" lon="2.38552">
        <ele>104.80000305176</ele>
        <time>2015-06-01T20:19:42Z</time>
      </trkpt>
      <trkpt lat="48.87395" lon="2.38615">
        <ele>104.80000305176</ele>
        <time>2015-06-01T20:19:51Z</time>
      </trkpt>
      <trkpt lat="48.87394" lon="2.38629">
        <ele>104.80000305176</ele>
        <time>2015-06-01T20:19:53Z</time>
      </trkpt>
      <trkpt lat="48.87389" lon="2.38656">
        <ele>104.80000305176</ele>
        <time>2015-06-01T20:19:57Z</time>
      </trkpt>
      <trkpt lat="48.87387" lon="2.38671">
        <ele>104.80000305176</ele>
        <time>2015-06-01T20:19:59Z</time>
      </trkpt>
      <trkpt lat="48.87388" lon="2.38713">
        <ele>104.80000305176</ele>
        <time>2015-06-01T20:20:04Z</time>
      </trkpt>
      <trkpt lat="48.87387" lon="2.3872">
        <ele>104.80000305176</ele>
        <time>2015-06-01T20:20:05Z</time>
      </trkpt>
      <trkpt lat="48.87386" lon="2.38736">
        <ele>104.80000305176</ele>
        <time>2015-06-01T20:20:07Z</time>
      </trkpt>
      <trkpt lat="48.87383" lon="2.38774">
        <ele>104.80000305176</ele>
        <time>2015-06-01T20:20:12Z</time>
      </trkpt>
      <trkpt lat="48.8738" lon="2.38798">
        <ele>104.80000305176</ele>
        <time>2015-06-01T20:20:15Z</time>
      </trkpt>
      <trkpt lat="48.87378" lon="2.38829">
        <ele>104.80000305176</ele>
        <time>2015-06-01T20:20:19Z</time>
      </trkpt>
      <trkpt lat="48.87376" lon="2.38868">
        <ele>104.80000305176</ele>
        <time>2015-06-01T20:20:24Z</time>
      </trkpt>
      <trkpt lat="48.87375" lon="2.38876">
        <ele>104.80000305176</ele>
        <time>2015-06-01T20:20:25Z</time>
      </trkpt>
      <trkpt lat="48.87373" lon="2.38892">
        <ele>104.80000305176</ele>
        <time>2015-06-01T20:20:27Z</time>
      </trkpt>
      <trkpt lat="48.87373" lon="2.38908">
        <ele>104.80000305176</ele>
        <time>2015-06-01T20:20:29Z</time>
      </trkpt>
      <trkpt lat="48.87372" lon="2.38938">
        <ele>104.40000152588</ele>
        <time>2015-06-01T20:20:33Z</time>
      </trkpt>
      <trkpt lat="48.87371" lon="2.38945">
        <ele>104.19999694824</ele>
        <time>2015-06-01T20:20:34Z</time>
      </trkpt>
      <trkpt lat="48.87369" lon="2.38951">
        <ele>104</ele>
        <time>2015-06-01T20:20:35Z</time>
      </trkpt>
      <trkpt lat="48.87368" lon="2.38958">
        <ele>104</ele>
        <time>2015-06-01T20:20:36Z</time>
      </trkpt>
      <trkpt lat="48.87357" lon="2.38981">
        <ele>103.40000152588</ele>
        <time>2015-06-01T20:20:40Z</time>
      </trkpt>
      <trkpt lat="48.87346" lon="2.38999">
        <ele>103.19999694824</ele>
        <time>2015-06-01T20:20:43Z</time>
      </trkpt>
      <trkpt lat="48.87325" lon="2.39025">
        <ele>103</ele>
        <time>2015-06-01T20:20:48Z</time>
      </trkpt>
      <trkpt lat="48.87313" lon="2.39038">
        <ele>102.80000305176</ele>
        <time>2015-06-01T20:20:51Z</time>
      </trkpt>
      <trkpt lat="48.873" lon="2.39061">
        <ele>102.80000305176</ele>
        <time>2015-06-01T20:20:56Z</time>
      </trkpt>
      <trkpt lat="48.87298" lon="2.39064">
        <ele>102.80000305176</ele>
        <time>2015-06-01T20:20:57Z</time>
      </trkpt>
      <trkpt lat="48.87283" lon="2.39081">
        <ele>102.80000305176</ele>
        <time>2015-06-01T20:21:01Z</time>
      </trkpt>
      <trkpt lat="48.87266" lon="2.39104">
        <ele>103.40000152588</ele>
        <time>2015-06-01T20:21:06Z</time>
      </trkpt>
      <trkpt lat="48.8726" lon="2.39113">
        <ele>103.59999847412</ele>
        <time>2015-06-01T20:21:08Z</time>
      </trkpt>
      <trkpt lat="48.87244" lon="2.39139">
        <ele>104.19999694824</ele>
        <time>2015-06-01T20:21:13Z</time>
      </trkpt>
      <trkpt lat="48.8724" lon="2.39143">
        <ele>104.19999694824</ele>
        <time>2015-06-01T20:21:14Z</time>
      </trkpt>
      <trkpt lat="48.87226" lon="2.39163">
        <ele>104.40000152588</ele>
        <time>2015-06-01T20:21:18Z</time>
      </trkpt>
      <trkpt lat="48.87219" lon="2.39176">
        <ele>104.80000305176</ele>
        <time>2015-06-01T20:21:20Z</time>
      </trkpt>
      <trkpt lat="48.87206" lon="2.39198">
        <ele>105.59999847412</ele>
        <time>2015-06-01T20:21:24Z</time>
      </trkpt>
      <trkpt lat="48.87191" lon="2.39221">
        <ele>106</ele>
        <time>2015-06-01T20:21:29Z</time>
      </trkpt>
      <trkpt lat="48.87179" lon="2.39235">
        <ele>106.80000305176</ele>
        <time>2015-06-01T20:21:33Z</time>
      </trkpt>
      <trkpt lat="48.87162" lon="2.39257">
        <ele>107.80000305176</ele>
        <time>2015-06-01T20:21:39Z</time>
      </trkpt>
      <trkpt lat="48.87154" lon="2.39268">
        <ele>108.59999847412</ele>
        <time>2015-06-01T20:21:42Z</time>
      </trkpt>
      <trkpt lat="48.87146" lon="2.39282">
        <ele>109.40000152588</ele>
        <time>2015-06-01T20:21:46Z</time>
      </trkpt>
      <trkpt lat="48.8713" lon="2.39301">
        <ele>110.80000305176</ele>
        <time>2015-06-01T20:21:51Z</time>
      </trkpt>
      <trkpt lat="48.8712" lon="2.39312">
        <ele>111.40000152588</ele>
        <time>2015-06-01T20:21:53Z</time>
      </trkpt>
      <trkpt lat="48.87107" lon="2.39326">
        <ele>112</ele>
        <time>2015-06-01T20:21:56Z</time>
      </trkpt>
      <trkpt lat="48.8709" lon="2.39347">
        <ele>112.40000152588</ele>
        <time>2015-06-01T20:22:00Z</time>
      </trkpt>
      <trkpt lat="48.87077" lon="2.3936">
        <ele>112.59999847412</ele>
        <time>2015-06-01T20:22:03Z</time>
      </trkpt>
      <trkpt lat="48.87054" lon="2.39382">
        <ele>113</ele>
        <time>2015-06-01T20:22:08Z</time>
      </trkpt>
      <trkpt lat="48.8705" lon="2.39387">
        <ele>113</ele>
        <time>2015-06-01T20:22:09Z</time>
      </trkpt>
      <trkpt lat="48.87036" lon="2.39407">
        <ele>113.19999694824</ele>
        <time>2015-06-01T20:22:13Z</time>
      </trkpt>
      <trkpt lat="48.8703" lon="2.39417">
        <ele>113.19999694824</ele>
        <time>2015-06-01T20:22:15Z</time>
      </trkpt>
      <trkpt lat="48.87013" lon="2.39437">
        <ele>113.19999694824</ele>
        <time>2015-06-01T20:22:20Z</time>
      </trkpt>
      <trkpt lat="48.87007" lon="2.39439">
        <ele>113.19999694824</ele>
        <time>2015-06-01T20:22:22Z</time>
      </trkpt>
      <trkpt lat="48.87005" lon="2.39438">
        <ele>114</ele>
        <time>2015-06-01T20:22:28Z</time>
      </trkpt>
      <trkpt lat="48.87005" lon="2.39436">
        <ele>114.59999847412</ele>
        <time>2015-06-01T20:22:32Z</time>
      </trkpt>
      <trkpt lat="48.87007" lon="2.39436">
        <ele>115.80000305176</ele>
        <time>2015-06-01T20:22:39Z</time>
      </trkpt>
      <trkpt lat="48.87005" lon="2.39436">
        <ele>116.80000305176</ele>
        <time>2015-06-01T20:22:44Z</time>
      </trkpt>
      <trkpt lat="48.87001" lon="2.39437">
        <ele>119.80000305176</ele>
        <time>2015-06-01T20:22:55Z</time>
      </trkpt>
      <trkpt lat="48.87002" lon="2.39437">
        <ele>122</ele>
        <time>2015-06-01T20:23:04Z</time>
      </trkpt>
      <trkpt lat="48.86996" lon="2.39442">
        <ele>123.40000152588</ele>
        <time>2015-06-01T20:23:09Z</time>
      </trkpt>
      <trkpt lat="48.86991" lon="2.39449">
        <ele>124.19999694824</ele>
        <time>2015-06-01T20:23:12Z</time>
      </trkpt>
      <trkpt lat="48.86987" lon="2.39454">
        <ele>125</ele>
        <time>2015-06-01T20:23:16Z</time>
      </trkpt>
      <trkpt lat="48.86989" lon="2.39457">
        <ele>125.80000305176</ele>
        <time>2015-06-01T20:23:25Z</time>
      </trkpt>
      <trkpt lat="48.86996" lon="2.39467">
        <ele>128</ele>
        <time>2015-06-01T20:24:01Z</time>
      </trkpt>
      <trkpt lat="48.86997" lon="2.39469">
        <ele>129.60000610352</ele>
        <time>2015-06-01T20:24:11Z</time>
      </trkpt>
      <trkpt lat="48.86991" lon="2.39477">
        <ele>129.80000305176</ele>
        <time>2015-06-01T20:24:16Z</time>
      </trkpt>
      <trkpt lat="48.8699" lon="2.39478">
        <ele>129.80000305176</ele>
        <time>2015-06-01T20:24:17Z</time>
      </trkpt>
      <trkpt lat="48.86979" lon="2.39485">
        <ele>130.60000610352</ele>
        <time>2015-06-01T20:24:22Z</time>
      </trkpt>
      <trkpt lat="48.86961" lon="2.39496">
        <ele>131.19999694824</ele>
        <time>2015-06-01T20:24:27Z</time>
      </trkpt>
      <trkpt lat="48.86943" lon="2.39508">
        <ele>131.60000610352</ele>
        <time>2015-06-01T20:24:31Z</time>
      </trkpt>
      <trkpt lat="48.86923" lon="2.39523">
        <ele>131.60000610352</ele>
        <time>2015-06-01T20:24:35Z</time>
      </trkpt>
      <trkpt lat="48.86916" lon="2.39527">
        <ele>131.39999389648</ele>
        <time>2015-06-01T20:24:36Z</time>
      </trkpt>
      <trkpt lat="48.86896" lon="2.39538">
        <ele>131.19999694824</ele>
        <time>2015-06-01T20:24:39Z</time>
      </trkpt>
      <trkpt lat="48.86874" lon="2.3955">
        <ele>130.80000305176</ele>
        <time>2015-06-01T20:24:42Z</time>
      </trkpt>
      <trkpt lat="48.86852" lon="2.39566">
        <ele>130.60000610352</ele>
        <time>2015-06-01T20:24:45Z</time>
      </trkpt>
      <trkpt lat="48.86837" lon="2.39577">
        <ele>130.60000610352</ele>
        <time>2015-06-01T20:24:47Z</time>
      </trkpt>
      <trkpt lat="48.86808" lon="2.39596">
        <ele>129.80000305176</ele>
        <time>2015-06-01T20:24:51Z</time>
      </trkpt>
      <trkpt lat="48.86801" lon="2.39601">
        <ele>129.60000610352</ele>
        <time>2015-06-01T20:24:52Z</time>
      </trkpt>
      <trkpt lat="48.86789" lon="2.39614">
        <ele>129.39999389648</ele>
        <time>2015-06-01T20:24:54Z</time>
      </trkpt>
      <trkpt lat="48.86774" lon="2.39625">
        <ele>129.19999694824</ele>
        <time>2015-06-01T20:24:56Z</time>
      </trkpt>
      <trkpt lat="48.86748" lon="2.39649">
        <ele>128.80000305176</ele>
        <time>2015-06-01T20:25:00Z</time>
      </trkpt>
      <trkpt lat="48.8674" lon="2.39655">
        <ele>128.60000610352</ele>
        <time>2015-06-01T20:25:01Z</time>
      </trkpt>
      <trkpt lat="48.86716" lon="2.39672">
        <ele>128.19999694824</ele>
        <time>2015-06-01T20:25:04Z</time>
      </trkpt>
      <trkpt lat="48.86692" lon="2.39689">
        <ele>127.59999847412</ele>
        <time>2015-06-01T20:25:07Z</time>
      </trkpt>
      <trkpt lat="48.86669" lon="2.39705">
        <ele>127.19999694824</ele>
        <time>2015-06-01T20:25:10Z</time>
      </trkpt>
      <trkpt lat="48.86649" lon="2.39719">
        <ele>126.40000152588</ele>
        <time>2015-06-01T20:25:13Z</time>
      </trkpt>
      <trkpt lat="48.86641" lon="2.39723">
        <ele>126.19999694824</ele>
        <time>2015-06-01T20:25:14Z</time>
      </trkpt>
      <trkpt lat="48.86629" lon="2.39729">
        <ele>125.59999847412</ele>
        <time>2015-06-01T20:25:16Z</time>
      </trkpt>
      <trkpt lat="48.86607" lon="2.39749">
        <ele>124.40000152588</ele>
        <time>2015-06-01T20:25:20Z</time>
      </trkpt>
      <trkpt lat="48.86601" lon="2.39754">
        <ele>124.19999694824</ele>
        <time>2015-06-01T20:25:21Z</time>
      </trkpt>
      <trkpt lat="48.86584" lon="2.39763">
        <ele>123.19999694824</ele>
        <time>2015-06-01T20:25:24Z</time>
      </trkpt>
      <trkpt lat="48.86579" lon="2.39766">
        <ele>122.80000305176</ele>
        <time>2015-06-01T20:25:25Z</time>
      </trkpt>
      <trkpt lat="48.86572" lon="2.39771">
        <ele>122.40000152588</ele>
        <time>2015-06-01T20:25:26Z</time>
      </trkpt>
      <trkpt lat="48.8656" lon="2.39784">
        <ele>121.80000305176</ele>
        <time>2015-06-01T20:25:28Z</time>
      </trkpt>
      <trkpt lat="48.86532" lon="2.39802">
        <ele>120.59999847412</ele>
        <time>2015-06-01T20:25:32Z</time>
      </trkpt>
      <trkpt lat="48.8652" lon="2.39808">
        <ele>119.80000305176</ele>
        <time>2015-06-01T20:25:34Z</time>
      </trkpt>
      <trkpt lat="48.86499" lon="2.39807">
        <ele>118.40000152588</ele>
        <time>2015-06-01T20:25:38Z</time>
      </trkpt>
      <trkpt lat="48.86491" lon="2.39802">
        <ele>116.59999847412</ele>
        <time>2015-06-01T20:25:42Z</time>
      </trkpt>
      <trkpt lat="48.86485" lon="2.39805">
        <ele>115.19999694824</ele>
        <time>2015-06-01T20:25:45Z</time>
      </trkpt>
      <trkpt lat="48.86483" lon="2.3981">
        <ele>114</ele>
        <time>2015-06-01T20:25:47Z</time>
      </trkpt>
      <trkpt lat="48.86483" lon="2.3981">
        <ele>110</ele>
        <time>2015-06-01T20:25:54Z</time>
      </trkpt>
      <trkpt lat="48.86486" lon="2.39806">
        <ele>106.19999694824</ele>
        <time>2015-06-01T20:26:00Z</time>
      </trkpt>
      <trkpt lat="48.86485" lon="2.3981">
        <ele>101.80000305176</ele>
        <time>2015-06-01T20:26:08Z</time>
      </trkpt>
      <trkpt lat="48.86489" lon="2.39813">
        <ele>98.800003051758</ele>
        <time>2015-06-01T20:26:14Z</time>
      </trkpt>
      <trkpt lat="48.86489" lon="2.39816">
        <ele>97.800003051758</ele>
        <time>2015-06-01T20:26:17Z</time>
      </trkpt>
      <trkpt lat="48.86489" lon="2.39817">
        <ele>94.800003051758</ele>
        <time>2015-06-01T20:26:26Z</time>
      </trkpt>
      <trkpt lat="48.86485" lon="2.39831">
        <ele>93.599998474121</ele>
        <time>2015-06-01T20:26:32Z</time>
      </trkpt>
      <trkpt lat="48.86479" lon="2.39846">
        <ele>92.599998474121</ele>
        <time>2015-06-01T20:26:37Z</time>
      </trkpt>
      <trkpt lat="48.86473" lon="2.39862">
        <ele>91.800003051758</ele>
        <time>2015-06-01T20:26:42Z</time>
      </trkpt>
      <trkpt lat="48.86473" lon="2.39866">
        <ele>91.800003051758</ele>
        <time>2015-06-01T20:26:43Z</time>
      </trkpt>
      <trkpt lat="48.86475" lon="2.39877">
        <ele>91.599998474121</ele>
        <time>2015-06-01T20:26:46Z</time>
      </trkpt>
      <trkpt lat="48.86476" lon="2.3988">
        <ele>91.400001525879</ele>
        <time>2015-06-01T20:26:47Z</time>
      </trkpt>
      <trkpt lat="48.86479" lon="2.39894">
        <ele>91.199996948242</ele>
        <time>2015-06-01T20:26:51Z</time>
      </trkpt>
      <trkpt lat="48.86479" lon="2.39909">
        <ele>91.199996948242</ele>
        <time>2015-06-01T20:26:55Z</time>
      </trkpt>
      <trkpt lat="48.86479" lon="2.39912">
        <ele>91</ele>
        <time>2015-06-01T20:26:56Z</time>
      </trkpt>
      <trkpt lat="48.86479" lon="2.39924">
        <ele>90.800003051758</ele>
        <time>2015-06-01T20:26:59Z</time>
      </trkpt>
      <trkpt lat="48.86477" lon="2.39944">
        <ele>90</ele>
        <time>2015-06-01T20:27:04Z</time>
      </trkpt>
      <trkpt lat="48.86475" lon="2.39953">
        <ele>89.800003051758</ele>
        <time>2015-06-01T20:27:06Z</time>
      </trkpt>
      <trkpt lat="48.86478" lon="2.39961">
        <ele>88.800003051758</ele>
        <time>2015-06-01T20:27:11Z</time>
      </trkpt>
      <trkpt lat="48.86475" lon="2.39973">
        <ele>88.199996948242</ele>
        <time>2015-06-01T20:27:15Z</time>
      </trkpt>
      <trkpt lat="48.86475" lon="2.39976">
        <ele>88</ele>
        <time>2015-06-01T20:27:16Z</time>
      </trkpt>
      <trkpt lat="48.8648" lon="2.39981">
        <ele>87.599998474121</ele>
        <time>2015-06-01T20:27:20Z</time>
      </trkpt>
      <trkpt lat="48.86481" lon="2.39982">
        <ele>87.599998474121</ele>
        <time>2015-06-01T20:27:21Z</time>
      </trkpt>
      <trkpt lat="48.86482" lon="2.39983">
        <ele>87.400001525879</ele>
        <time>2015-06-01T20:27:23Z</time>
      </trkpt>
      <trkpt lat="48.86484" lon="2.39985">
        <ele>87.199996948242</ele>
        <time>2015-06-01T20:27:28Z</time>
      </trkpt>
      <trkpt lat="48.86485" lon="2.39984">
        <ele>86.800003051758</ele>
        <time>2015-06-01T20:27:46Z</time>
      </trkpt>
      <trkpt lat="48.86484" lon="2.39986">
        <ele>86.800003051758</ele>
        <time>2015-06-01T20:27:47Z</time>
      </trkpt>
      <trkpt lat="48.86485" lon="2.39988">
        <ele>86.800003051758</ele>
        <time>2015-06-01T20:27:53Z</time>
      </trkpt>
      <trkpt lat="48.86484" lon="2.39987">
        <ele>86.800003051758</ele>
        <time>2015-06-01T20:28:01Z</time>
      </trkpt>
      <trkpt lat="48.86484" lon="2.39988">
        <ele>86.800003051758</ele>
        <time>2015-06-01T20:28:05Z</time>
      </trkpt>
      <trkpt lat="48.86485" lon="2.3999">
        <ele>88</ele>
        <time>2015-06-01T20:28:16Z</time>
      </trkpt>
      <trkpt lat="48.86487" lon="2.3999">
        <ele>89.599998474121</ele>
        <time>2015-06-01T20:28:27Z</time>
      </trkpt>
      <trkpt lat="48.8649" lon="2.3999">
        <ele>90.599998474121</ele>
        <time>2015-06-01T20:28:32Z</time>
      </trkpt>
      <trkpt lat="48.86495" lon="2.39989">
        <ele>91.599998474121</ele>
        <time>2015-06-01T20:28:38Z</time>
      </trkpt>
      <trkpt lat="48.86494" lon="2.39984">
        <ele>94.800003051758</ele>
        <time>2015-06-01T20:28:48Z</time>
      </trkpt>
      <trkpt lat="48.86494" lon="2.39977">
        <ele>95.599998474121</ele>
        <time>2015-06-01T20:28:52Z</time>
      </trkpt>
      <trkpt lat="48.86498" lon="2.39968">
        <ele>97.400001525879</ele>
        <time>2015-06-01T20:28:59Z</time>
      </trkpt>
      <trkpt lat="48.86498" lon="2.39967">
        <ele>97.599998474121</ele>
        <time>2015-06-01T20:29:00Z</time>
      </trkpt>
      <trkpt lat="48.86498" lon="2.39961">
        <ele>98</ele>
        <time>2015-06-01T20:29:03Z</time>
      </trkpt>
      <trkpt lat="48.86498" lon="2.39948">
        <ele>98.599998474121</ele>
        <time>2015-06-01T20:29:08Z</time>
      </trkpt>
      <trkpt lat="48.86501" lon="2.39926">
        <ele>98.599998474121</ele>
        <time>2015-06-01T20:29:14Z</time>
      </trkpt>
      <trkpt lat="48.86498" lon="2.39916">
        <ele>98.199996948242</ele>
        <time>2015-06-01T20:29:18Z</time>
      </trkpt>
      <trkpt lat="48.86497" lon="2.39912">
        <ele>98</ele>
        <time>2015-06-01T20:29:20Z</time>
      </trkpt>
      <trkpt lat="48.86498" lon="2.3991">
        <ele>98</ele>
        <time>2015-06-01T20:29:22Z</time>
      </trkpt>
      <trkpt lat="48.86499" lon="2.39908">
        <ele>97.800003051758</ele>
        <time>2015-06-01T20:29:24Z</time>
      </trkpt>
      <trkpt lat="48.86502" lon="2.39899">
        <ele>97.400001525879</ele>
        <time>2015-06-01T20:29:30Z</time>
      </trkpt>
      <trkpt lat="48.865" lon="2.3989">
        <ele>96.599998474121</ele>
        <time>2015-06-01T20:29:35Z</time>
      </trkpt>
      <trkpt lat="48.86497" lon="2.39883">
        <ele>96.199996948242</ele>
        <time>2015-06-01T20:29:38Z</time>
      </trkpt>
      <trkpt lat="48.86492" lon="2.3988">
        <ele>96.199996948242</ele>
        <time>2015-06-01T20:29:40Z</time>
      </trkpt>
      <trkpt lat="48.86486" lon="2.39873">
        <ele>95.800003051758</ele>
        <time>2015-06-01T20:29:44Z</time>
      </trkpt>
      <trkpt lat="48.86483" lon="2.39869">
        <ele>95.800003051758</ele>
        <time>2015-06-01T20:29:46Z</time>
      </trkpt>
      <trkpt lat="48.8648" lon="2.39866">
        <ele>95.800003051758</ele>
        <time>2015-06-01T20:29:48Z</time>
      </trkpt>
      <trkpt lat="48.86472" lon="2.39857">
        <ele>95.599998474121</ele>
        <time>2015-06-01T20:29:53Z</time>
      </trkpt>
      <trkpt lat="48.86471" lon="2.39857">
        <ele>95.599998474121</ele>
        <time>2015-06-01T20:29:57Z</time>
      </trkpt>
      <trkpt lat="48.86468" lon="2.3986">
        <ele>95.400001525879</ele>
        <time>2015-06-01T20:30:00Z</time>
      </trkpt>
      <trkpt lat="48.86458" lon="2.39869">
        <ele>95.400001525879</ele>
        <time>2015-06-01T20:30:05Z</time>
      </trkpt>
      <trkpt lat="48.86456" lon="2.3987">
        <ele>95.400001525879</ele>
        <time>2015-06-01T20:30:06Z</time>
      </trkpt>
      <trkpt lat="48.86438" lon="2.39882">
        <ele>95.400001525879</ele>
        <time>2015-06-01T20:30:12Z</time>
      </trkpt>
      <trkpt lat="48.8642" lon="2.39895">
        <ele>95.400001525879</ele>
        <time>2015-06-01T20:30:17Z</time>
      </trkpt>
      <trkpt lat="48.86404" lon="2.39911">
        <ele>95.400001525879</ele>
        <time>2015-06-01T20:30:22Z</time>
      </trkpt>
      <trkpt lat="48.86397" lon="2.39918">
        <ele>95.400001525879</ele>
        <time>2015-06-01T20:30:24Z</time>
      </trkpt>
      <trkpt lat="48.86382" lon="2.39932">
        <ele>95.400001525879</ele>
        <time>2015-06-01T20:30:28Z</time>
      </trkpt>
      <trkpt lat="48.86375" lon="2.3994">
        <ele>95.400001525879</ele>
        <time>2015-06-01T20:30:30Z</time>
      </trkpt>
      <trkpt lat="48.86356" lon="2.39959">
        <ele>95.400001525879</ele>
        <time>2015-06-01T20:30:35Z</time>
      </trkpt>
      <trkpt lat="48.86352" lon="2.39963">
        <ele>95.599998474121</ele>
        <time>2015-06-01T20:30:36Z</time>
      </trkpt>
      <trkpt lat="48.86339" lon="2.39974">
        <ele>96.199996948242</ele>
        <time>2015-06-01T20:30:39Z</time>
      </trkpt>
      <trkpt lat="48.86314" lon="2.39989">
        <ele>97.199996948242</ele>
        <time>2015-06-01T20:30:44Z</time>
      </trkpt>
      <trkpt lat="48.86308" lon="2.39992">
        <ele>97.599998474121</ele>
        <time>2015-06-01T20:30:45Z</time>
      </trkpt>
      <trkpt lat="48.86297" lon="2.39998">
        <ele>98</ele>
        <time>2015-06-01T20:30:47Z</time>
      </trkpt>
      <trkpt lat="48.86266" lon="2.40009">
        <ele>99.400001525879</ele>
        <time>2015-06-01T20:30:52Z</time>
      </trkpt>
      <trkpt lat="48.86259" lon="2.4001">
        <ele>99.599998474121</ele>
        <time>2015-06-01T20:30:53Z</time>
      </trkpt>
      <trkpt lat="48.86229" lon="2.40016">
        <ele>100.40000152588</ele>
        <time>2015-06-01T20:30:57Z</time>
      </trkpt>
      <trkpt lat="48.86208" lon="2.40019">
        <ele>100.80000305176</ele>
        <time>2015-06-01T20:31:00Z</time>
      </trkpt>
      <trkpt lat="48.86187" lon="2.40023">
        <ele>101</ele>
        <time>2015-06-01T20:31:03Z</time>
      </trkpt>
      <trkpt lat="48.86175" lon="2.40025">
        <ele>101.19999694824</ele>
        <time>2015-06-01T20:31:05Z</time>
      </trkpt>
      <trkpt lat="48.86164" lon="2.40028">
        <ele>101.40000152588</ele>
        <time>2015-06-01T20:31:07Z</time>
      </trkpt>
      <trkpt lat="48.86137" lon="2.40035">
        <ele>101.40000152588</ele>
        <time>2015-06-01T20:31:11Z</time>
      </trkpt>
      <trkpt lat="48.86123" lon="2.4004">
        <ele>101.19999694824</ele>
        <time>2015-06-01T20:31:13Z</time>
      </trkpt>
      <trkpt lat="48.86095" lon="2.40056">
        <ele>100.59999847412</ele>
        <time>2015-06-01T20:31:17Z</time>
      </trkpt>
      <trkpt lat="48.86079" lon="2.40066">
        <ele>100.40000152588</ele>
        <time>2015-06-01T20:31:19Z</time>
      </trkpt>
      <trkpt lat="48.86072" lon="2.40071">
        <ele>100</ele>
        <time>2015-06-01T20:31:20Z</time>
      </trkpt>
      <trkpt lat="48.86048" lon="2.40086">
        <ele>99.400001525879</ele>
        <time>2015-06-01T20:31:23Z</time>
      </trkpt>
      <trkpt lat="48.86039" lon="2.40091">
        <ele>99.199996948242</ele>
        <time>2015-06-01T20:31:24Z</time>
      </trkpt>
      <trkpt lat="48.86012" lon="2.40109">
        <ele>98.800003051758</ele>
        <time>2015-06-01T20:31:27Z</time>
      </trkpt>
      <trkpt lat="48.85994" lon="2.40124">
        <ele>98.599998474121</ele>
        <time>2015-06-01T20:31:29Z</time>
      </trkpt>
      <trkpt lat="48.85977" lon="2.4014">
        <ele>98.400001525879</ele>
        <time>2015-06-01T20:31:31Z</time>
      </trkpt>
      <trkpt lat="48.85962" lon="2.40157">
        <ele>98</ele>
        <time>2015-06-01T20:31:33Z</time>
      </trkpt>
      <trkpt lat="48.85955" lon="2.40165">
        <ele>97.800003051758</ele>
        <time>2015-06-01T20:31:34Z</time>
      </trkpt>
      <trkpt lat="48.85928" lon="2.40199">
        <ele>97</ele>
        <time>2015-06-01T20:31:38Z</time>
      </trkpt>
      <trkpt lat="48.8591" lon="2.40223">
        <ele>96.599998474121</ele>
        <time>2015-06-01T20:31:41Z</time>
      </trkpt>
      <trkpt lat="48.85903" lon="2.4023">
        <ele>96.400001525879</ele>
        <time>2015-06-01T20:31:42Z</time>
      </trkpt>
      <trkpt lat="48.85891" lon="2.40239">
        <ele>96.199996948242</ele>
        <time>2015-06-01T20:31:44Z</time>
      </trkpt>
      <trkpt lat="48.85879" lon="2.40252">
        <ele>96</ele>
        <time>2015-06-01T20:31:48Z</time>
      </trkpt>
      <trkpt lat="48.8588" lon="2.40251">
        <ele>95.800003051758</ele>
        <time>2015-06-01T20:31:49Z</time>
      </trkpt>
      <trkpt lat="48.85881" lon="2.40247">
        <ele>95.199996948242</ele>
        <time>2015-06-01T20:31:51Z</time>
      </trkpt>
      <trkpt lat="48.85889" lon="2.40227">
        <ele>94.400001525879</ele>
        <time>2015-06-01T20:31:57Z</time>
      </trkpt>
      <trkpt lat="48.85891" lon="2.40222">
        <ele>94.199996948242</ele>
        <time>2015-06-01T20:31:59Z</time>
      </trkpt>
      <trkpt lat="48.85897" lon="2.40206">
        <ele>93.800003051758</ele>
        <time>2015-06-01T20:32:05Z</time>
      </trkpt>
      <trkpt lat="48.85904" lon="2.4021">
        <ele>93.400001525879</ele>
        <time>2015-06-01T20:32:10Z</time>
      </trkpt>
      <trkpt lat="48.85912" lon="2.40222">
        <ele>87.800003051758</ele>
        <time>2015-06-01T20:32:35Z</time>
      </trkpt>
      <trkpt lat="48.85902" lon="2.40236">
        <ele>86.800003051758</ele>
        <time>2015-06-01T20:32:40Z</time>
      </trkpt>
      <trkpt lat="48.85885" lon="2.40258">
        <ele>86.199996948242</ele>
        <time>2015-06-01T20:32:44Z</time>
      </trkpt>
      <trkpt lat="48.8588" lon="2.40263">
        <ele>86</ele>
        <time>2015-06-01T20:32:45Z</time>
      </trkpt>
      <trkpt lat="48.85857" lon="2.40293">
        <ele>85.800003051758</ele>
        <time>2015-06-01T20:32:49Z</time>
      </trkpt>
      <trkpt lat="48.85848" lon="2.403">
        <ele>85.599998474121</ele>
        <time>2015-06-01T20:32:50Z</time>
      </trkpt>
      <trkpt lat="48.85824" lon="2.40322">
        <ele>85.599998474121</ele>
        <time>2015-06-01T20:32:53Z</time>
      </trkpt>
      <trkpt lat="48.85803" lon="2.40348">
        <ele>85.400001525879</ele>
        <time>2015-06-01T20:32:56Z</time>
      </trkpt>
      <trkpt lat="48.85789" lon="2.40367">
        <ele>85.400001525879</ele>
        <time>2015-06-01T20:32:58Z</time>
      </trkpt>
      <trkpt lat="48.85753" lon="2.40404">
        <ele>85.199996948242</ele>
        <time>2015-06-01T20:33:03Z</time>
      </trkpt>
      <trkpt lat="48.85729" lon="2.40422">
        <ele>85.199996948242</ele>
        <time>2015-06-01T20:33:06Z</time>
      </trkpt>
      <trkpt lat="48.85705" lon="2.4044">
        <ele>85.199996948242</ele>
        <time>2015-06-01T20:33:09Z</time>
      </trkpt>
      <trkpt lat="48.85697" lon="2.40445">
        <ele>85.199996948242</ele>
        <time>2015-06-01T20:33:10Z</time>
      </trkpt>
      <trkpt lat="48.85674" lon="2.40459">
        <ele>85.199996948242</ele>
        <time>2015-06-01T20:33:13Z</time>
      </trkpt>
      <trkpt lat="48.85652" lon="2.40474">
        <ele>85.199996948242</ele>
        <time>2015-06-01T20:33:16Z</time>
      </trkpt>
      <trkpt lat="48.85644" lon="2.40478">
        <ele>85.199996948242</ele>
        <time>2015-06-01T20:33:17Z</time>
      </trkpt>
      <trkpt lat="48.85622" lon="2.40487">
        <ele>85.199996948242</ele>
        <time>2015-06-01T20:33:20Z</time>
      </trkpt>
      <trkpt lat="48.85615" lon="2.40491">
        <ele>85.199996948242</ele>
        <time>2015-06-01T20:33:21Z</time>
      </trkpt>
      <trkpt lat="48.85596" lon="2.40503">
        <ele>85.199996948242</ele>
        <time>2015-06-01T20:33:24Z</time>
      </trkpt>
      <trkpt lat="48.85573" lon="2.40513">
        <ele>85.199996948242</ele>
        <time>2015-06-01T20:33:27Z</time>
      </trkpt>
      <trkpt lat="48.85566" lon="2.40517">
        <ele>85.199996948242</ele>
        <time>2015-06-01T20:33:28Z</time>
      </trkpt>
      <trkpt lat="48.85544" lon="2.40526">
        <ele>85.199996948242</ele>
        <time>2015-06-01T20:33:31Z</time>
      </trkpt>
      <trkpt lat="48.85537" lon="2.40529">
        <ele>85.199996948242</ele>
        <time>2015-06-01T20:33:32Z</time>
      </trkpt>
      <trkpt lat="48.85531" lon="2.40531">
        <ele>85.199996948242</ele>
        <time>2015-06-01T20:33:33Z</time>
      </trkpt>
      <trkpt lat="48.85503" lon="2.4054">
        <ele>84.800003051758</ele>
        <time>2015-06-01T20:33:37Z</time>
      </trkpt>
      <trkpt lat="48.85484" lon="2.40544">
        <ele>84.199996948242</ele>
        <time>2015-06-01T20:33:40Z</time>
      </trkpt>
      <trkpt lat="48.85472" lon="2.40548">
        <ele>84</ele>
        <time>2015-06-01T20:33:42Z</time>
      </trkpt>
      <trkpt lat="48.85448" lon="2.40554">
        <ele>83.400001525879</ele>
        <time>2015-06-01T20:33:46Z</time>
      </trkpt>
      <trkpt lat="48.85442" lon="2.40556">
        <ele>83</ele>
        <time>2015-06-01T20:33:47Z</time>
      </trkpt>
      <trkpt lat="48.85417" lon="2.40566">
        <ele>82.199996948242</ele>
        <time>2015-06-01T20:33:52Z</time>
      </trkpt>
      <trkpt lat="48.85398" lon="2.40574">
        <ele>81.599998474121</ele>
        <time>2015-06-01T20:33:55Z</time>
      </trkpt>
      <trkpt lat="48.85374" lon="2.40582">
        <ele>80.599998474121</ele>
        <time>2015-06-01T20:33:59Z</time>
      </trkpt>
      <trkpt lat="48.85371" lon="2.40583">
        <ele>80.599998474121</ele>
        <time>2015-06-01T20:34:00Z</time>
      </trkpt>
      <trkpt lat="48.85362" lon="2.40584">
        <ele>80</ele>
        <time>2015-06-01T20:34:02Z</time>
      </trkpt>
      <trkpt lat="48.85354" lon="2.40585">
        <ele>79.400001525879</ele>
        <time>2015-06-01T20:34:04Z</time>
      </trkpt>
      <trkpt lat="48.8535" lon="2.40586">
        <ele>79</ele>
        <time>2015-06-01T20:34:05Z</time>
      </trkpt>
      <trkpt lat="48.85344" lon="2.40585">
        <ele>78.599998474121</ele>
        <time>2015-06-01T20:34:07Z</time>
      </trkpt>
      <trkpt lat="48.85338" lon="2.40581">
        <ele>77.599998474121</ele>
        <time>2015-06-01T20:34:13Z</time>
      </trkpt>
      <trkpt lat="48.85331" lon="2.40578">
        <ele>80</ele>
        <time>2015-06-01T20:35:10Z</time>
      </trkpt>
      <trkpt lat="48.85321" lon="2.40586">
        <ele>80.800003051758</ele>
        <time>2015-06-01T20:35:15Z</time>
      </trkpt>
      <trkpt lat="48.85319" lon="2.40587">
        <ele>81</ele>
        <time>2015-06-01T20:35:16Z</time>
      </trkpt>
      <trkpt lat="48.85306" lon="2.40591">
        <ele>81.800003051758</ele>
        <time>2015-06-01T20:35:20Z</time>
      </trkpt>
      <trkpt lat="48.85295" lon="2.40595">
        <ele>82.199996948242</ele>
        <time>2015-06-01T20:35:25Z</time>
      </trkpt>
      <trkpt lat="48.8528" lon="2.40602">
        <ele>82.599998474121</ele>
        <time>2015-06-01T20:35:30Z</time>
      </trkpt>
      <trkpt lat="48.8526" lon="2.4061">
        <ele>82.800003051758</ele>
        <time>2015-06-01T20:35:35Z</time>
      </trkpt>
      <trkpt lat="48.85249" lon="2.40615">
        <ele>82.800003051758</ele>
        <time>2015-06-01T20:35:37Z</time>
      </trkpt>
      <trkpt lat="48.85225" lon="2.40617">
        <ele>82.800003051758</ele>
        <time>2015-06-01T20:35:41Z</time>
      </trkpt>
      <trkpt lat="48.85218" lon="2.40617">
        <ele>82.800003051758</ele>
        <time>2015-06-01T20:35:42Z</time>
      </trkpt>
      <trkpt lat="48.85211" lon="2.40617">
        <ele>83</ele>
        <time>2015-06-01T20:35:43Z</time>
      </trkpt>
      <trkpt lat="48.85184" lon="2.4062">
        <ele>82.800003051758</ele>
        <time>2015-06-01T20:35:47Z</time>
      </trkpt>
      <trkpt lat="48.85177" lon="2.40621">
        <ele>82.599998474121</ele>
        <time>2015-06-01T20:35:48Z</time>
      </trkpt>
      <trkpt lat="48.85151" lon="2.40627">
        <ele>82</ele>
        <time>2015-06-01T20:35:52Z</time>
      </trkpt>
      <trkpt lat="48.85146" lon="2.40628">
        <ele>82</ele>
        <time>2015-06-01T20:35:53Z</time>
      </trkpt>
      <trkpt lat="48.85132" lon="2.4063">
        <ele>81.400001525879</ele>
        <time>2015-06-01T20:35:56Z</time>
      </trkpt>
      <trkpt lat="48.85103" lon="2.40631">
        <ele>80.400001525879</ele>
        <time>2015-06-01T20:36:01Z</time>
      </trkpt>
      <trkpt lat="48.85081" lon="2.40632">
        <ele>79.199996948242</ele>
        <time>2015-06-01T20:36:05Z</time>
      </trkpt>
      <trkpt lat="48.85058" lon="2.40633">
        <ele>77.800003051758</ele>
        <time>2015-06-01T20:36:09Z</time>
      </trkpt>
      <trkpt lat="48.85052" lon="2.40633">
        <ele>77.400001525879</ele>
        <time>2015-06-01T20:36:10Z</time>
      </trkpt>
      <trkpt lat="48.8504" lon="2.40629">
        <ele>76.400001525879</ele>
        <time>2015-06-01T20:36:13Z</time>
      </trkpt>
      <trkpt lat="48.85039" lon="2.40629">
        <ele>73.599998474121</ele>
        <time>2015-06-01T20:36:23Z</time>
      </trkpt>
      <trkpt lat="48.8504" lon="2.40629">
        <ele>72.199996948242</ele>
        <time>2015-06-01T20:36:28Z</time>
      </trkpt>
      <trkpt lat="48.85035" lon="2.40636">
        <ele>67</ele>
        <time>2015-06-01T20:36:48Z</time>
      </trkpt>
      <trkpt lat="48.85021" lon="2.40637">
        <ele>66</ele>
        <time>2015-06-01T20:36:52Z</time>
      </trkpt>
      <trkpt lat="48.85006" lon="2.40641">
        <ele>65.199996948242</ele>
        <time>2015-06-01T20:36:56Z</time>
      </trkpt>
      <trkpt lat="48.84985" lon="2.40644">
        <ele>64.800003051758</ele>
        <time>2015-06-01T20:37:01Z</time>
      </trkpt>
      <trkpt lat="48.84963" lon="2.40649">
        <ele>64.400001525879</ele>
        <time>2015-06-01T20:37:06Z</time>
      </trkpt>
      <trkpt lat="48.84958" lon="2.40649">
        <ele>64.400001525879</ele>
        <time>2015-06-01T20:37:07Z</time>
      </trkpt>
      <trkpt lat="48.84939" lon="2.40651">
        <ele>64.199996948242</ele>
        <time>2015-06-01T20:37:11Z</time>
      </trkpt>
      <trkpt lat="48.84922" lon="2.40652">
        <ele>64.199996948242</ele>
        <time>2015-06-01T20:37:14Z</time>
      </trkpt>
      <trkpt lat="48.84907" lon="2.40656">
        <ele>64.199996948242</ele>
        <time>2015-06-01T20:37:17Z</time>
      </trkpt>
      <trkpt lat="48.84896" lon="2.40657">
        <ele>64.199996948242</ele>
        <time>2015-06-01T20:37:19Z</time>
      </trkpt>
      <trkpt lat="48.84883" lon="2.40658">
        <ele>64.199996948242</ele>
        <time>2015-06-01T20:37:21Z</time>
      </trkpt>
      <trkpt lat="48.84855" lon="2.40655">
        <ele>64</ele>
        <time>2015-06-01T20:37:26Z</time>
      </trkpt>
      <trkpt lat="48.84834" lon="2.4065">
        <ele>64</ele>
        <time>2015-06-01T20:37:30Z</time>
      </trkpt>
      <trkpt lat="48.84815" lon="2.40643">
        <ele>64</ele>
        <time>2015-06-01T20:37:34Z</time>
      </trkpt>
      <trkpt lat="48.84806" lon="2.4064">
        <ele>64</ele>
        <time>2015-06-01T20:37:36Z</time>
      </trkpt>
      <trkpt lat="48.84785" lon="2.40637">
        <ele>64</ele>
        <time>2015-06-01T20:37:41Z</time>
      </trkpt>
      <trkpt lat="48.84782" lon="2.40635">
        <ele>64</ele>
        <time>2015-06-01T20:37:42Z</time>
      </trkpt>
      <trkpt lat="48.84774" lon="2.40626">
        <ele>64</ele>
        <time>2015-06-01T20:37:48Z</time>
      </trkpt>
      <trkpt lat="48.84775" lon="2.40622">
        <ele>64</ele>
        <time>2015-06-01T20:37:53Z</time>
      </trkpt>
      <trkpt lat="48.84775" lon="2.40621">
        <ele>64</ele>
        <time>2015-06-01T20:37:54Z</time>
      </trkpt>
      <trkpt lat="48.84777" lon="2.40618">
        <ele>63.79999923706</ele>
        <time>2015-06-01T20:37:57Z</time>
      </trkpt>
      <trkpt lat="48.8478" lon="2.40621">
        <ele>63.400001525879</ele>
        <time>2015-06-01T20:38:01Z</time>
      </trkpt>
      <trkpt lat="48.84781" lon="2.40624">
        <ele>61.599998474121</ele>
        <time>2015-06-01T20:38:10Z</time>
      </trkpt>
      <trkpt lat="48.84781" lon="2.40629">
        <ele>60.20000076294</ele>
        <time>2015-06-01T20:38:30Z</time>
      </trkpt>
      <trkpt lat="48.84777" lon="2.40633">
        <ele>60</ele>
        <time>2015-06-01T20:39:14Z</time>
      </trkpt>
      <trkpt lat="48.84776" lon="2.40631">
        <ele>60</ele>
        <time>2015-06-01T20:39:15Z</time>
      </trkpt>
      <trkpt lat="48.84772" lon="2.40622">
        <ele>60</ele>
        <time>2015-06-01T20:39:19Z</time>
      </trkpt>
      <trkpt lat="48.84769" lon="2.40609">
        <ele>60</ele>
        <time>2015-06-01T20:39:25Z</time>
      </trkpt>
      <trkpt lat="48.84767" lon="2.40594">
        <ele>60</ele>
        <time>2015-06-01T20:39:30Z</time>
      </trkpt>
      <trkpt lat="48.84767" lon="2.40574">
        <ele>59.20000076294</ele>
        <time>2015-06-01T20:39:35Z</time>
      </trkpt>
      <trkpt lat="48.8477" lon="2.40547">
        <ele>58.599998474121</ele>
        <time>2015-06-01T20:39:41Z</time>
      </trkpt>
      <trkpt lat="48.84771" lon="2.40518">
        <ele>58.20000076294</ele>
        <time>2015-06-01T20:39:46Z</time>
      </trkpt>
      <trkpt lat="48.84774" lon="2.40483">
        <ele>57.400001525879</ele>
        <time>2015-06-01T20:39:52Z</time>
      </trkpt>
      <trkpt lat="48.84775" lon="2.40453">
        <ele>56.79999923706</ele>
        <time>2015-06-01T20:39:57Z</time>
      </trkpt>
      <trkpt lat="48.84776" lon="2.40447">
        <ele>56.599998474121</ele>
        <time>2015-06-01T20:39:58Z</time>
      </trkpt>
      <trkpt lat="48.84778" lon="2.40416">
        <ele>56.20000076294</ele>
        <time>2015-06-01T20:40:03Z</time>
      </trkpt>
      <trkpt lat="48.8478" lon="2.40392">
        <ele>56.20000076294</ele>
        <time>2015-06-01T20:40:07Z</time>
      </trkpt>
      <trkpt lat="48.84782" lon="2.40362">
        <ele>56</ele>
        <time>2015-06-01T20:40:12Z</time>
      </trkpt>
      <trkpt lat="48.84783" lon="2.40355">
        <ele>56</ele>
        <time>2015-06-01T20:40:13Z</time>
      </trkpt>
      <trkpt lat="48.84786" lon="2.40324">
        <ele>55.79999923706</ele>
        <time>2015-06-01T20:40:18Z</time>
      </trkpt>
      <trkpt lat="48.84786" lon="2.40317">
        <ele>55.79999923706</ele>
        <time>2015-06-01T20:40:19Z</time>
      </trkpt>
      <trkpt lat="48.84789" lon="2.40286">
        <ele>55.79999923706</ele>
        <time>2015-06-01T20:40:24Z</time>
      </trkpt>
      <trkpt lat="48.8479" lon="2.40252">
        <ele>55.79999923706</ele>
        <time>2015-06-01T20:40:29Z</time>
      </trkpt>
      <trkpt lat="48.8479" lon="2.40245">
        <ele>55.79999923706</ele>
        <time>2015-06-01T20:40:30Z</time>
      </trkpt>
      <trkpt lat="48.84792" lon="2.40224">
        <ele>55.79999923706</ele>
        <time>2015-06-01T20:40:33Z</time>
      </trkpt>
      <trkpt lat="48.84792" lon="2.40217">
        <ele>55.79999923706</ele>
        <time>2015-06-01T20:40:34Z</time>
      </trkpt>
      <trkpt lat="48.84793" lon="2.40195">
        <ele>55.79999923706</ele>
        <time>2015-06-01T20:40:37Z</time>
      </trkpt>
      <trkpt lat="48.84797" lon="2.40162">
        <ele>55.79999923706</ele>
        <time>2015-06-01T20:40:42Z</time>
      </trkpt>
      <trkpt lat="48.84796" lon="2.40139">
        <ele>55.79999923706</ele>
        <time>2015-06-01T20:40:46Z</time>
      </trkpt>
      <trkpt lat="48.84797" lon="2.40135">
        <ele>55.79999923706</ele>
        <time>2015-06-01T20:40:47Z</time>
      </trkpt>
      <trkpt lat="48.84798" lon="2.40129">
        <ele>55.79999923706</ele>
        <time>2015-06-01T20:40:48Z</time>
      </trkpt>
      <trkpt lat="48.84801" lon="2.40104">
        <ele>55.79999923706</ele>
        <time>2015-06-01T20:40:53Z</time>
      </trkpt>
      <trkpt lat="48.84803" lon="2.40078">
        <ele>55.79999923706</ele>
        <time>2015-06-01T20:40:58Z</time>
      </trkpt>
      <trkpt lat="48.84806" lon="2.40055">
        <ele>55.79999923706</ele>
        <time>2015-06-01T20:41:02Z</time>
      </trkpt>
      <trkpt lat="48.84808" lon="2.40037">
        <ele>55.79999923706</ele>
        <time>2015-06-01T20:41:05Z</time>
      </trkpt>
      <trkpt lat="48.84811" lon="2.40015">
        <ele>55.79999923706</ele>
        <time>2015-06-01T20:41:09Z</time>
      </trkpt>
      <trkpt lat="48.8481" lon="2.3999">
        <ele>55.79999923706</ele>
        <time>2015-06-01T20:41:14Z</time>
      </trkpt>
      <trkpt lat="48.8481" lon="2.39985">
        <ele>55.79999923706</ele>
        <time>2015-06-01T20:41:15Z</time>
      </trkpt>
      <trkpt lat="48.84811" lon="2.39979">
        <ele>55.79999923706</ele>
        <time>2015-06-01T20:41:18Z</time>
      </trkpt>
      <trkpt lat="48.84811" lon="2.39978">
        <ele>55.79999923706</ele>
        <time>2015-06-01T20:41:19Z</time>
      </trkpt>
      <trkpt lat="48.84812" lon="2.39981">
        <ele>55.79999923706</ele>
        <time>2015-06-01T20:41:30Z</time>
      </trkpt>
      <trkpt lat="48.84812" lon="2.39977">
        <ele>55.79999923706</ele>
        <time>2015-06-01T20:41:35Z</time>
      </trkpt>
      <trkpt lat="48.84814" lon="2.39956">
        <ele>54.599998474121</ele>
        <time>2015-06-01T20:41:42Z</time>
      </trkpt>
      <trkpt lat="48.84819" lon="2.39948">
        <ele>54.20000076294</ele>
        <time>2015-06-01T20:41:46Z</time>
      </trkpt>
      <trkpt lat="48.84822" lon="2.39942">
        <ele>54</ele>
        <time>2015-06-01T20:41:50Z</time>
      </trkpt>
      <trkpt lat="48.84825" lon="2.39933">
        <ele>53.79999923706</ele>
        <time>2015-06-01T20:41:56Z</time>
      </trkpt>
      <trkpt lat="48.84826" lon="2.39931">
        <ele>53.79999923706</ele>
        <time>2015-06-01T20:41:57Z</time>
      </trkpt>
      <trkpt lat="48.8483" lon="2.39924">
        <ele>53.79999923706</ele>
        <time>2015-06-01T20:42:00Z</time>
      </trkpt>
      <trkpt lat="48.8483" lon="2.39912">
        <ele>53.20000076294</ele>
        <time>2015-06-01T20:42:04Z</time>
      </trkpt>
      <trkpt lat="48.84828" lon="2.39909">
        <ele>52.79999923706</ele>
        <time>2015-06-01T20:42:06Z</time>
      </trkpt>
      <trkpt lat="48.84823" lon="2.39904">
        <ele>52.400001525879</ele>
        <time>2015-06-01T20:42:11Z</time>
      </trkpt>
      <trkpt lat="48.84823" lon="2.39902">
        <ele>52.20000076294</ele>
        <time>2015-06-01T20:42:12Z</time>
      </trkpt>
      <trkpt lat="48.84824" lon="2.399">
        <ele>52.20000076294</ele>
        <time>2015-06-01T20:42:13Z</time>
      </trkpt>
      <trkpt lat="48.84826" lon="2.39883">
        <ele>52</ele>
        <time>2015-06-01T20:42:19Z</time>
      </trkpt>
      <trkpt lat="48.84825" lon="2.39879">
        <ele>51.79999923706</ele>
        <time>2015-06-01T20:42:20Z</time>
      </trkpt>
      <trkpt lat="48.84822" lon="2.39858">
        <ele>51.79999923706</ele>
        <time>2015-06-01T20:42:24Z</time>
      </trkpt>
      <trkpt lat="48.84824" lon="2.3983">
        <ele>51.599998474121</ele>
        <time>2015-06-01T20:42:29Z</time>
      </trkpt>
      <trkpt lat="48.84827" lon="2.398">
        <ele>51.599998474121</ele>
        <time>2015-06-01T20:42:34Z</time>
      </trkpt>
      <trkpt lat="48.84829" lon="2.3977">
        <ele>51.599998474121</ele>
        <time>2015-06-01T20:42:40Z</time>
      </trkpt>
      <trkpt lat="48.84835" lon="2.3976">
        <ele>51.599998474121</ele>
        <time>2015-06-01T20:42:44Z</time>
      </trkpt>
      <trkpt lat="48.8484" lon="2.39756">
        <ele>51.599998474121</ele>
        <time>2015-06-01T20:42:48Z</time>
      </trkpt>
      <trkpt lat="48.84843" lon="2.39751">
        <ele>51.599998474121</ele>
        <time>2015-06-01T20:42:53Z</time>
      </trkpt>
      <trkpt lat="48.84844" lon="2.3975">
        <ele>51.599998474121</ele>
        <time>2015-06-01T20:42:59Z</time>
      </trkpt>
      <trkpt lat="48.84842" lon="2.3975">
        <ele>51.599998474121</ele>
        <time>2015-06-01T20:43:09Z</time>
      </trkpt>
      <trkpt lat="48.8484" lon="2.3975">
        <ele>51.599998474121</ele>
        <time>2015-06-01T20:43:15Z</time>
      </trkpt>
      <trkpt lat="48.84841" lon="2.39749">
        <ele>51.599998474121</ele>
        <time>2015-06-01T20:43:19Z</time>
      </trkpt>
      <trkpt lat="48.8484" lon="2.3975">
        <ele>51.599998474121</ele>
        <time>2015-06-01T20:43:25Z</time>
      </trkpt>
      <trkpt lat="48.84839" lon="2.39749">
        <ele>51.599998474121</ele>
        <time>2015-06-01T20:43:30Z</time>
      </trkpt>
      <trkpt lat="48.84846" lon="2.39745">
        <ele>51.599998474121</ele>
        <time>2015-06-01T20:44:21Z</time>
      </trkpt>
      <trkpt lat="48.84846" lon="2.39726">
        <ele>51.599998474121</ele>
        <time>2015-06-01T20:44:26Z</time>
      </trkpt>
      <trkpt lat="48.84845" lon="2.39699">
        <ele>51.599998474121</ele>
        <time>2015-06-01T20:44:32Z</time>
      </trkpt>
      <trkpt lat="48.84851" lon="2.39682">
        <ele>51.599998474121</ele>
        <time>2015-06-01T20:44:36Z</time>
      </trkpt>
      <trkpt lat="48.84865" lon="2.39664">
        <ele>51.599998474121</ele>
        <time>2015-06-01T20:44:41Z</time>
      </trkpt>
      <trkpt lat="48.84877" lon="2.39643">
        <ele>51.599998474121</ele>
        <time>2015-06-01T20:44:46Z</time>
      </trkpt>
      <trkpt lat="48.84887" lon="2.39615">
        <ele>51.599998474121</ele>
        <time>2015-06-01T20:44:51Z</time>
      </trkpt>
      <trkpt lat="48.84888" lon="2.39608">
        <ele>51.599998474121</ele>
        <time>2015-06-01T20:44:52Z</time>
      </trkpt>
      <trkpt lat="48.84889" lon="2.39576">
        <ele>51.599998474121</ele>
        <time>2015-06-01T20:44:57Z</time>
      </trkpt>
      <trkpt lat="48.84884" lon="2.39552">
        <ele>51.599998474121</ele>
        <time>2015-06-01T20:45:01Z</time>
      </trkpt>
      <trkpt lat="48.8487" lon="2.39527">
        <ele>51.599998474121</ele>
        <time>2015-06-01T20:45:07Z</time>
      </trkpt>
      <trkpt lat="48.84857" lon="2.3951">
        <ele>51.599998474121</ele>
        <time>2015-06-01T20:45:12Z</time>
      </trkpt>
      <trkpt lat="48.84854" lon="2.39488">
        <ele>51.599998474121</ele>
        <time>2015-06-01T20:45:16Z</time>
      </trkpt>
      <trkpt lat="48.84858" lon="2.39456">
        <ele>51.599998474121</ele>
        <time>2015-06-01T20:45:21Z</time>
      </trkpt>
      <trkpt lat="48.84861" lon="2.39428">
        <ele>51.599998474121</ele>
        <time>2015-06-01T20:45:25Z</time>
      </trkpt>
      <trkpt lat="48.84865" lon="2.39397">
        <ele>51.599998474121</ele>
        <time>2015-06-01T20:45:29Z</time>
      </trkpt>
      <trkpt lat="48.8487" lon="2.39364">
        <ele>51.599998474121</ele>
        <time>2015-06-01T20:45:33Z</time>
      </trkpt>
      <trkpt lat="48.84874" lon="2.39329">
        <ele>51.599998474121</ele>
        <time>2015-06-01T20:45:37Z</time>
      </trkpt>
      <trkpt lat="48.84878" lon="2.39302">
        <ele>51.79999923706</ele>
        <time>2015-06-01T20:45:40Z</time>
      </trkpt>
      <trkpt lat="48.84882" lon="2.39274">
        <ele>52.20000076294</ele>
        <time>2015-06-01T20:45:43Z</time>
      </trkpt>
      <trkpt lat="48.84887" lon="2.39247">
        <ele>52.599998474121</ele>
        <time>2015-06-01T20:45:46Z</time>
      </trkpt>
      <trkpt lat="48.84888" lon="2.39238">
        <ele>52.79999923706</ele>
        <time>2015-06-01T20:45:47Z</time>
      </trkpt>
      <trkpt lat="48.84893" lon="2.39214">
        <ele>53</ele>
        <time>2015-06-01T20:45:50Z</time>
      </trkpt>
      <trkpt lat="48.84898" lon="2.39176">
        <ele>53.20000076294</ele>
        <time>2015-06-01T20:45:55Z</time>
      </trkpt>
      <trkpt lat="48.84899" lon="2.39169">
        <ele>53.20000076294</ele>
        <time>2015-06-01T20:45:56Z</time>
      </trkpt>
      <trkpt lat="48.84902" lon="2.39136">
        <ele>53.400001525879</ele>
        <time>2015-06-01T20:46:00Z</time>
      </trkpt>
      <trkpt lat="48.84906" lon="2.39111">
        <ele>53.400001525879</ele>
        <time>2015-06-01T20:46:03Z</time>
      </trkpt>
      <trkpt lat="48.84911" lon="2.39069">
        <ele>53.599998474121</ele>
        <time>2015-06-01T20:46:08Z</time>
      </trkpt>
      <trkpt lat="48.84914" lon="2.39043">
        <ele>53.599998474121</ele>
        <time>2015-06-01T20:46:11Z</time>
      </trkpt>
      <trkpt lat="48.84924" lon="2.39015">
        <ele>53.599998474121</ele>
        <time>2015-06-01T20:46:15Z</time>
      </trkpt>
      <trkpt lat="48.84926" lon="2.39007">
        <ele>53.599998474121</ele>
        <time>2015-06-01T20:46:16Z</time>
      </trkpt>
      <trkpt lat="48.84931" lon="2.38979">
        <ele>53.599998474121</ele>
        <time>2015-06-01T20:46:19Z</time>
      </trkpt>
      <trkpt lat="48.84933" lon="2.3897">
        <ele>53.599998474121</ele>
        <time>2015-06-01T20:46:20Z</time>
      </trkpt>
      <trkpt lat="48.84936" lon="2.38951">
        <ele>53.79999923706</ele>
        <time>2015-06-01T20:46:22Z</time>
      </trkpt>
      <trkpt lat="48.84942" lon="2.38922">
        <ele>54.20000076294</ele>
        <time>2015-06-01T20:46:25Z</time>
      </trkpt>
      <trkpt lat="48.84943" lon="2.38913">
        <ele>54.400001525879</ele>
        <time>2015-06-01T20:46:26Z</time>
      </trkpt>
      <trkpt lat="48.84948" lon="2.38883">
        <ele>54.79999923706</ele>
        <time>2015-06-01T20:46:29Z</time>
      </trkpt>
      <trkpt lat="48.84952" lon="2.38854">
        <ele>55</ele>
        <time>2015-06-01T20:46:32Z</time>
      </trkpt>
      <trkpt lat="48.84956" lon="2.38825">
        <ele>55.20000076294</ele>
        <time>2015-06-01T20:46:35Z</time>
      </trkpt>
      <trkpt lat="48.84961" lon="2.38798">
        <ele>55.400001525879</ele>
        <time>2015-06-01T20:46:38Z</time>
      </trkpt>
      <trkpt lat="48.84964" lon="2.38767">
        <ele>55.400001525879</ele>
        <time>2015-06-01T20:46:41Z</time>
      </trkpt>
      <trkpt lat="48.84966" lon="2.38737">
        <ele>55.400001525879</ele>
        <time>2015-06-01T20:46:44Z</time>
      </trkpt>
      <trkpt lat="48.8497" lon="2.38709">
        <ele>55.599998474121</ele>
        <time>2015-06-01T20:46:47Z</time>
      </trkpt>
      <trkpt lat="48.84974" lon="2.38681">
        <ele>55.599998474121</ele>
        <time>2015-06-01T20:46:50Z</time>
      </trkpt>
      <trkpt lat="48.84978" lon="2.38653">
        <ele>55.599998474121</ele>
        <time>2015-06-01T20:46:53Z</time>
      </trkpt>
      <trkpt lat="48.84981" lon="2.38626">
        <ele>55.599998474121</ele>
        <time>2015-06-01T20:46:56Z</time>
      </trkpt>
      <trkpt lat="48.84985" lon="2.38591">
        <ele>55.599998474121</ele>
        <time>2015-06-01T20:47:00Z</time>
      </trkpt>
      <trkpt lat="48.84991" lon="2.38557">
        <ele>55.599998474121</ele>
        <time>2015-06-01T20:47:04Z</time>
      </trkpt>
      <trkpt lat="48.84998" lon="2.38523">
        <ele>55.599998474121</ele>
        <time>2015-06-01T20:47:08Z</time>
      </trkpt>
      <trkpt lat="48.85002" lon="2.38489">
        <ele>55.599998474121</ele>
        <time>2015-06-01T20:47:12Z</time>
      </trkpt>
      <trkpt lat="48.85001" lon="2.38481">
        <ele>55.599998474121</ele>
        <time>2015-06-01T20:47:13Z</time>
      </trkpt>
      <trkpt lat="48.85" lon="2.38468">
        <ele>55.599998474121</ele>
        <time>2015-06-01T20:47:15Z</time>
      </trkpt>
      <trkpt lat="48.85001" lon="2.38462">
        <ele>55.599998474121</ele>
        <time>2015-06-01T20:47:19Z</time>
      </trkpt>
      <trkpt lat="48.85003" lon="2.38459">
        <ele>55.599998474121</ele>
        <time>2015-06-01T20:47:23Z</time>
      </trkpt>
      <trkpt lat="48.85006" lon="2.38444">
        <ele>56</ele>
        <time>2015-06-01T20:47:27Z</time>
      </trkpt>
      <trkpt lat="48.85011" lon="2.38414">
        <ele>56.599998474121</ele>
        <time>2015-06-01T20:47:31Z</time>
      </trkpt>
      <trkpt lat="48.85014" lon="2.38388">
        <ele>56.79999923706</ele>
        <time>2015-06-01T20:47:34Z</time>
      </trkpt>
      <trkpt lat="48.85015" lon="2.3836">
        <ele>57.20000076294</ele>
        <time>2015-06-01T20:47:37Z</time>
      </trkpt>
      <trkpt lat="48.85019" lon="2.38316">
        <ele>57.400001525879</ele>
        <time>2015-06-01T20:47:41Z</time>
      </trkpt>
      <trkpt lat="48.85022" lon="2.38281">
        <ele>57.400001525879</ele>
        <time>2015-06-01T20:47:44Z</time>
      </trkpt>
      <trkpt lat="48.85026" lon="2.38246">
        <ele>57.400001525879</ele>
        <time>2015-06-01T20:47:47Z</time>
      </trkpt>
      <trkpt lat="48.85029" lon="2.38211">
        <ele>57.599998474121</ele>
        <time>2015-06-01T20:47:50Z</time>
      </trkpt>
      <trkpt lat="48.85032" lon="2.38191">
        <ele>57.400001525879</ele>
        <time>2015-06-01T20:47:52Z</time>
      </trkpt>
      <trkpt lat="48.85035" lon="2.38173">
        <ele>57</ele>
        <time>2015-06-01T20:47:54Z</time>
      </trkpt>
      <trkpt lat="48.85044" lon="2.38097">
        <ele>56.20000076294</ele>
        <time>2015-06-01T20:48:03Z</time>
      </trkpt>
      <trkpt lat="48.85046" lon="2.38065">
        <ele>56</ele>
        <time>2015-06-01T20:48:07Z</time>
      </trkpt>
      <trkpt lat="48.85046" lon="2.38058">
        <ele>56</ele>
        <time>2015-06-01T20:48:08Z</time>
      </trkpt>
      <trkpt lat="48.85046" lon="2.38051">
        <ele>55.79999923706</ele>
        <time>2015-06-01T20:48:09Z</time>
      </trkpt>
      <trkpt lat="48.85048" lon="2.38012">
        <ele>55.79999923706</ele>
        <time>2015-06-01T20:48:14Z</time>
      </trkpt>
      <trkpt lat="48.85049" lon="2.38004">
        <ele>55.79999923706</ele>
        <time>2015-06-01T20:48:15Z</time>
      </trkpt>
      <trkpt lat="48.85054" lon="2.37973">
        <ele>55.79999923706</ele>
        <time>2015-06-01T20:48:19Z</time>
      </trkpt>
      <trkpt lat="48.85055" lon="2.37965">
        <ele>55.599998474121</ele>
        <time>2015-06-01T20:48:20Z</time>
      </trkpt>
      <trkpt lat="48.8506" lon="2.37936">
        <ele>55.599998474121</ele>
        <time>2015-06-01T20:48:24Z</time>
      </trkpt>
      <trkpt lat="48.85062" lon="2.37921">
        <ele>55.599998474121</ele>
        <time>2015-06-01T20:48:26Z</time>
      </trkpt>
      <trkpt lat="48.85065" lon="2.37885">
        <ele>55.599998474121</ele>
        <time>2015-06-01T20:48:31Z</time>
      </trkpt>
      <trkpt lat="48.85066" lon="2.37878">
        <ele>55.599998474121</ele>
        <time>2015-06-01T20:48:32Z</time>
      </trkpt>
      <trkpt lat="48.85073" lon="2.3784">
        <ele>55.599998474121</ele>
        <time>2015-06-01T20:48:38Z</time>
      </trkpt>
      <trkpt lat="48.85074" lon="2.37835">
        <ele>55.599998474121</ele>
        <time>2015-06-01T20:48:39Z</time>
      </trkpt>
      <trkpt lat="48.85084" lon="2.37799">
        <ele>54.79999923706</ele>
        <time>2015-06-01T20:48:45Z</time>
      </trkpt>
      <trkpt lat="48.8509" lon="2.37773">
        <ele>54.400001525879</ele>
        <time>2015-06-01T20:48:49Z</time>
      </trkpt>
      <trkpt lat="48.85099" lon="2.37722">
        <ele>53.79999923706</ele>
        <time>2015-06-01T20:48:57Z</time>
      </trkpt>
      <trkpt lat="48.85101" lon="2.37711">
        <ele>53.79999923706</ele>
        <time>2015-06-01T20:48:59Z</time>
      </trkpt>
      <trkpt lat="48.85112" lon="2.37673">
        <ele>53.599998474121</ele>
        <time>2015-06-01T20:49:05Z</time>
      </trkpt>
      <trkpt lat="48.85117" lon="2.3766">
        <ele>53.599998474121</ele>
        <time>2015-06-01T20:49:07Z</time>
      </trkpt>
      <trkpt lat="48.85123" lon="2.37641">
        <ele>53.599998474121</ele>
        <time>2015-06-01T20:49:10Z</time>
      </trkpt>
      <trkpt lat="48.85125" lon="2.37635">
        <ele>53.599998474121</ele>
        <time>2015-06-01T20:49:11Z</time>
      </trkpt>
      <trkpt lat="48.8513" lon="2.37624">
        <ele>53.599998474121</ele>
        <time>2015-06-01T20:49:13Z</time>
      </trkpt>
      <trkpt lat="48.85138" lon="2.37592">
        <ele>53.599998474121</ele>
        <time>2015-06-01T20:49:19Z</time>
      </trkpt>
      <trkpt lat="48.85145" lon="2.37564">
        <ele>52.79999923706</ele>
        <time>2015-06-01T20:49:24Z</time>
      </trkpt>
      <trkpt lat="48.85151" lon="2.37538">
        <ele>52.400001525879</ele>
        <time>2015-06-01T20:49:28Z</time>
      </trkpt>
      <trkpt lat="48.85159" lon="2.37505">
        <ele>52</ele>
        <time>2015-06-01T20:49:32Z</time>
      </trkpt>
      <trkpt lat="48.85162" lon="2.37497">
        <ele>52</ele>
        <time>2015-06-01T20:49:33Z</time>
      </trkpt>
      <trkpt lat="48.8517" lon="2.37461">
        <ele>51.79999923706</ele>
        <time>2015-06-01T20:49:37Z</time>
      </trkpt>
      <trkpt lat="48.85173" lon="2.37451">
        <ele>51.79999923706</ele>
        <time>2015-06-01T20:49:38Z</time>
      </trkpt>
      <trkpt lat="48.85182" lon="2.37416">
        <ele>51.20000076294</ele>
        <time>2015-06-01T20:49:42Z</time>
      </trkpt>
      <trkpt lat="48.85187" lon="2.374">
        <ele>50.79999923706</ele>
        <time>2015-06-01T20:49:44Z</time>
      </trkpt>
      <trkpt lat="48.85198" lon="2.37362">
        <ele>50.20000076294</ele>
        <time>2015-06-01T20:49:49Z</time>
      </trkpt>
      <trkpt lat="48.85203" lon="2.37336">
        <ele>50</ele>
        <time>2015-06-01T20:49:52Z</time>
      </trkpt>
      <trkpt lat="48.85212" lon="2.37302">
        <ele>49.79999923706</ele>
        <time>2015-06-01T20:49:56Z</time>
      </trkpt>
      <trkpt lat="48.85215" lon="2.37292">
        <ele>49.79999923706</ele>
        <time>2015-06-01T20:49:57Z</time>
      </trkpt>
      <trkpt lat="48.85227" lon="2.37256">
        <ele>49.400001525879</ele>
        <time>2015-06-01T20:50:01Z</time>
      </trkpt>
      <trkpt lat="48.8523" lon="2.37247">
        <ele>49.20000076294</ele>
        <time>2015-06-01T20:50:02Z</time>
      </trkpt>
      <trkpt lat="48.85239" lon="2.3722">
        <ele>48.599998474121</ele>
        <time>2015-06-01T20:50:05Z</time>
      </trkpt>
      <trkpt lat="48.85248" lon="2.37195">
        <ele>48.20000076294</ele>
        <time>2015-06-01T20:50:08Z</time>
      </trkpt>
      <trkpt lat="48.85259" lon="2.37166">
        <ele>48</ele>
        <time>2015-06-01T20:50:12Z</time>
      </trkpt>
      <trkpt lat="48.85269" lon="2.37142">
        <ele>47.79999923706</ele>
        <time>2015-06-01T20:50:16Z</time>
      </trkpt>
      <trkpt lat="48.85281" lon="2.37118">
        <ele>47.599998474121</ele>
        <time>2015-06-01T20:50:20Z</time>
      </trkpt>
      <trkpt lat="48.85285" lon="2.37107">
        <ele>47.400001525879</ele>
        <time>2015-06-01T20:50:22Z</time>
      </trkpt>
      <trkpt lat="48.85296" lon="2.37082">
        <ele>47.400001525879</ele>
        <time>2015-06-01T20:50:27Z</time>
      </trkpt>
      <trkpt lat="48.85305" lon="2.37068">
        <ele>47.400001525879</ele>
        <time>2015-06-01T20:50:30Z</time>
      </trkpt>
      <trkpt lat="48.85315" lon="2.37051">
        <ele>47.400001525879</ele>
        <time>2015-06-01T20:50:34Z</time>
      </trkpt>
      <trkpt lat="48.85324" lon="2.37039">
        <ele>47.400001525879</ele>
        <time>2015-06-01T20:50:37Z</time>
      </trkpt>
      <trkpt lat="48.85337" lon="2.37027">
        <ele>47.20000076294</ele>
        <time>2015-06-01T20:50:42Z</time>
      </trkpt>
      <trkpt lat="48.85336" lon="2.37027">
        <ele>47.20000076294</ele>
        <time>2015-06-01T20:50:47Z</time>
      </trkpt>
      <trkpt lat="48.85339" lon="2.37028">
        <ele>47.20000076294</ele>
        <time>2015-06-01T20:51:00Z</time>
      </trkpt>
      <trkpt lat="48.85339" lon="2.37027">
        <ele>47.20000076294</ele>
        <time>2015-06-01T20:51:01Z</time>
      </trkpt>
      <trkpt lat="48.8534" lon="2.37006">
        <ele>47.20000076294</ele>
        <time>2015-06-01T20:51:07Z</time>
      </trkpt>
      <trkpt lat="48.85341" lon="2.37003">
        <ele>47.20000076294</ele>
        <time>2015-06-01T20:51:08Z</time>
      </trkpt>
      <trkpt lat="48.85345" lon="2.36992">
        <ele>47.20000076294</ele>
        <time>2015-06-01T20:51:13Z</time>
      </trkpt>
      <trkpt lat="48.85345" lon="2.3699">
        <ele>47.20000076294</ele>
        <time>2015-06-01T20:51:14Z</time>
      </trkpt>
      <trkpt lat="48.85345" lon="2.36988">
        <ele>47.20000076294</ele>
        <time>2015-06-01T20:51:15Z</time>
      </trkpt>
      <trkpt lat="48.85348" lon="2.36985">
        <ele>47.20000076294</ele>
        <time>2015-06-01T20:51:19Z</time>
      </trkpt>
      <trkpt lat="48.85352" lon="2.36985">
        <ele>47.20000076294</ele>
        <time>2015-06-01T20:51:24Z</time>
      </trkpt>
      <trkpt lat="48.85356" lon="2.36974">
        <ele>47.20000076294</ele>
        <time>2015-06-01T20:51:29Z</time>
      </trkpt>
      <trkpt lat="48.85358" lon="2.36974">
        <ele>47</ele>
        <time>2015-06-01T20:51:31Z</time>
      </trkpt>
      <trkpt lat="48.85358" lon="2.36975">
        <ele>46.20000076294</ele>
        <time>2015-06-01T20:51:36Z</time>
      </trkpt>
      <trkpt lat="48.85358" lon="2.36968">
        <ele>45.400001525879</ele>
        <time>2015-06-01T20:51:47Z</time>
      </trkpt>
      <trkpt lat="48.85354" lon="2.36966">
        <ele>45.400001525879</ele>
        <time>2015-06-01T20:51:54Z</time>
      </trkpt>
      <trkpt lat="48.85353" lon="2.36964">
        <ele>52.599998474121</ele>
        <time>2015-06-01T20:52:37Z</time>
      </trkpt>
      <trkpt lat="48.85355" lon="2.36956">
        <ele>53.599998474121</ele>
        <time>2015-06-01T20:52:41Z</time>
      </trkpt>
      <trkpt lat="48.85358" lon="2.36943">
        <ele>54.400001525879</ele>
        <time>2015-06-01T20:52:46Z</time>
      </trkpt>
      <trkpt lat="48.85359" lon="2.36935">
        <ele>54.599998474121</ele>
        <time>2015-06-01T20:52:49Z</time>
      </trkpt>
      <trkpt lat="48.8536" lon="2.3692">
        <ele>55</ele>
        <time>2015-06-01T20:52:55Z</time>
      </trkpt>
      <trkpt lat="48.85361" lon="2.36917">
        <ele>55.20000076294</ele>
        <time>2015-06-01T20:53:00Z</time>
      </trkpt>
      <trkpt lat="48.85361" lon="2.36915">
        <ele>55.400001525879</ele>
        <time>2015-06-01T20:53:01Z</time>
      </trkpt>
      <trkpt lat="48.85362" lon="2.36914">
        <ele>55.400001525879</ele>
        <time>2015-06-01T20:53:09Z</time>
      </trkpt>
      <trkpt lat="48.85363" lon="2.36905">
        <ele>55.599998474121</ele>
        <time>2015-06-01T20:53:20Z</time>
      </trkpt>
      <trkpt lat="48.85362" lon="2.36901">
        <ele>55.599998474121</ele>
        <time>2015-06-01T20:53:22Z</time>
      </trkpt>
      <trkpt lat="48.85362" lon="2.36895">
        <ele>55.599998474121</ele>
        <time>2015-06-01T20:53:26Z</time>
      </trkpt>
      <trkpt lat="48.85365" lon="2.3689">
        <ele>55.599998474121</ele>
        <time>2015-06-01T20:53:30Z</time>
      </trkpt>
      <trkpt lat="48.85365" lon="2.36891">
        <ele>55.599998474121</ele>
        <time>2015-06-01T20:53:31Z</time>
      </trkpt>
      <trkpt lat="48.85365" lon="2.3689">
        <ele>55.599998474121</ele>
        <time>2015-06-01T20:53:39Z</time>
      </trkpt>
      <trkpt lat="48.85364" lon="2.36886">
        <ele>55.599998474121</ele>
        <time>2015-06-01T20:53:54Z</time>
      </trkpt>
      <trkpt lat="48.85367" lon="2.36873">
        <ele>55.599998474121</ele>
        <time>2015-06-01T20:53:58Z</time>
      </trkpt>
      <trkpt lat="48.85371" lon="2.36849">
        <ele>55.599998474121</ele>
        <time>2015-06-01T20:54:03Z</time>
      </trkpt>
      <trkpt lat="48.85377" lon="2.36822">
        <ele>54.79999923706</ele>
        <time>2015-06-01T20:54:08Z</time>
      </trkpt>
      <trkpt lat="48.85378" lon="2.36799">
        <ele>54.20000076294</ele>
        <time>2015-06-01T20:54:12Z</time>
      </trkpt>
      <trkpt lat="48.85381" lon="2.36772">
        <ele>53</ele>
        <time>2015-06-01T20:54:17Z</time>
      </trkpt>
      <trkpt lat="48.85381" lon="2.36745">
        <ele>52.400001525879</ele>
        <time>2015-06-01T20:54:22Z</time>
      </trkpt>
      <trkpt lat="48.8537" lon="2.36732">
        <ele>51.599998474121</ele>
        <time>2015-06-01T20:54:26Z</time>
      </trkpt>
      <trkpt lat="48.85356" lon="2.36722">
        <ele>50.79999923706</ele>
        <time>2015-06-01T20:54:31Z</time>
      </trkpt>
      <trkpt lat="48.85351" lon="2.36716">
        <ele>50.400001525879</ele>
        <time>2015-06-01T20:54:33Z</time>
      </trkpt>
      <trkpt lat="48.85348" lon="2.36692">
        <ele>50.20000076294</ele>
        <time>2015-06-01T20:54:37Z</time>
      </trkpt>
      <trkpt lat="48.85349" lon="2.36686">
        <ele>50</ele>
        <time>2015-06-01T20:54:38Z</time>
      </trkpt>
      <trkpt lat="48.85352" lon="2.36652">
        <ele>49.79999923706</ele>
        <time>2015-06-01T20:54:44Z</time>
      </trkpt>
      <trkpt lat="48.85363" lon="2.36608">
        <ele>49.599998474121</ele>
        <time>2015-06-01T20:54:53Z</time>
      </trkpt>
      <trkpt lat="48.85369" lon="2.36585">
        <ele>49.400001525879</ele>
        <time>2015-06-01T20:54:57Z</time>
      </trkpt>
      <trkpt lat="48.85373" lon="2.36567">
        <ele>49.400001525879</ele>
        <time>2015-06-01T20:55:00Z</time>
      </trkpt>
      <trkpt lat="48.85383" lon="2.3653">
        <ele>49.400001525879</ele>
        <time>2015-06-01T20:55:06Z</time>
      </trkpt>
      <trkpt lat="48.8539" lon="2.36504">
        <ele>49.400001525879</ele>
        <time>2015-06-01T20:55:10Z</time>
      </trkpt>
      <trkpt lat="48.85398" lon="2.36477">
        <ele>49.400001525879</ele>
        <time>2015-06-01T20:55:14Z</time>
      </trkpt>
      <trkpt lat="48.85404" lon="2.36449">
        <ele>49.400001525879</ele>
        <time>2015-06-01T20:55:18Z</time>
      </trkpt>
      <trkpt lat="48.85413" lon="2.3642">
        <ele>49.400001525879</ele>
        <time>2015-06-01T20:55:22Z</time>
      </trkpt>
      <trkpt lat="48.85418" lon="2.36399">
        <ele>49.400001525879</ele>
        <time>2015-06-01T20:55:25Z</time>
      </trkpt>
      <trkpt lat="48.8543" lon="2.36364">
        <ele>49.400001525879</ele>
        <time>2015-06-01T20:55:30Z</time>
      </trkpt>
      <trkpt lat="48.8544" lon="2.36337">
        <ele>49.400001525879</ele>
        <time>2015-06-01T20:55:34Z</time>
      </trkpt>
      <trkpt lat="48.85449" lon="2.3631">
        <ele>49.400001525879</ele>
        <time>2015-06-01T20:55:38Z</time>
      </trkpt>
      <trkpt lat="48.85452" lon="2.36304">
        <ele>49.400001525879</ele>
        <time>2015-06-01T20:55:39Z</time>
      </trkpt>
      <trkpt lat="48.85461" lon="2.36289">
        <ele>49.400001525879</ele>
        <time>2015-06-01T20:55:43Z</time>
      </trkpt>
      <trkpt lat="48.85464" lon="2.3628">
        <ele>49.400001525879</ele>
        <time>2015-06-01T20:55:47Z</time>
      </trkpt>
      <trkpt lat="48.85472" lon="2.36255">
        <ele>49.400001525879</ele>
        <time>2015-06-01T20:55:51Z</time>
      </trkpt>
      <trkpt lat="48.85481" lon="2.36229">
        <ele>49.400001525879</ele>
        <time>2015-06-01T20:55:55Z</time>
      </trkpt>
      <trkpt lat="48.85494" lon="2.36197">
        <ele>49.400001525879</ele>
        <time>2015-06-01T20:56:00Z</time>
      </trkpt>
      <trkpt lat="48.85504" lon="2.36169">
        <ele>49.400001525879</ele>
        <time>2015-06-01T20:56:04Z</time>
      </trkpt>
      <trkpt lat="48.85508" lon="2.36155">
        <ele>49.79999923706</ele>
        <time>2015-06-01T20:56:06Z</time>
      </trkpt>
      <trkpt lat="48.85511" lon="2.36134">
        <ele>50.20000076294</ele>
        <time>2015-06-01T20:56:09Z</time>
      </trkpt>
      <trkpt lat="48.85518" lon="2.36091">
        <ele>50.79999923706</ele>
        <time>2015-06-01T20:56:14Z</time>
      </trkpt>
      <trkpt lat="48.8552" lon="2.36083">
        <ele>50.79999923706</ele>
        <time>2015-06-01T20:56:15Z</time>
      </trkpt>
      <trkpt lat="48.85527" lon="2.36057">
        <ele>51</ele>
        <time>2015-06-01T20:56:18Z</time>
      </trkpt>
      <trkpt lat="48.85529" lon="2.36048">
        <ele>51</ele>
        <time>2015-06-01T20:56:19Z</time>
      </trkpt>
      <trkpt lat="48.85533" lon="2.36034">
        <ele>51.20000076294</ele>
        <time>2015-06-01T20:56:21Z</time>
      </trkpt>
      <trkpt lat="48.85537" lon="2.36016">
        <ele>51.20000076294</ele>
        <time>2015-06-01T20:56:25Z</time>
      </trkpt>
      <trkpt lat="48.85543" lon="2.35995">
        <ele>51.400001525879</ele>
        <time>2015-06-01T20:56:31Z</time>
      </trkpt>
      <trkpt lat="48.85549" lon="2.35974">
        <ele>51.400001525879</ele>
        <time>2015-06-01T20:56:35Z</time>
      </trkpt>
      <trkpt lat="48.85555" lon="2.35947">
        <ele>51.400001525879</ele>
        <time>2015-06-01T20:56:39Z</time>
      </trkpt>
      <trkpt lat="48.85556" lon="2.3594">
        <ele>51.599998474121</ele>
        <time>2015-06-01T20:56:40Z</time>
      </trkpt>
      <trkpt lat="48.8556" lon="2.35927">
        <ele>52</ele>
        <time>2015-06-01T20:56:42Z</time>
      </trkpt>
      <trkpt lat="48.85567" lon="2.35904">
        <ele>52.400001525879</ele>
        <time>2015-06-01T20:56:45Z</time>
      </trkpt>
      <trkpt lat="48.85572" lon="2.35888">
        <ele>52.599998474121</ele>
        <time>2015-06-01T20:56:47Z</time>
      </trkpt>
      <trkpt lat="48.85581" lon="2.35862">
        <ele>52.79999923706</ele>
        <time>2015-06-01T20:56:50Z</time>
      </trkpt>
      <trkpt lat="48.85593" lon="2.35826">
        <ele>53</ele>
        <time>2015-06-01T20:56:54Z</time>
      </trkpt>
      <trkpt lat="48.85601" lon="2.35802">
        <ele>53.20000076294</ele>
        <time>2015-06-01T20:56:57Z</time>
      </trkpt>
      <trkpt lat="48.85602" lon="2.35791">
        <ele>53.20000076294</ele>
        <time>2015-06-01T20:56:58Z</time>
      </trkpt>
      <trkpt lat="48.85606" lon="2.35772">
        <ele>53.20000076294</ele>
        <time>2015-06-01T20:57:00Z</time>
      </trkpt>
      <trkpt lat="48.85615" lon="2.35733">
        <ele>53.400001525879</ele>
        <time>2015-06-01T20:57:04Z</time>
      </trkpt>
      <trkpt lat="48.85619" lon="2.35714">
        <ele>53.400001525879</ele>
        <time>2015-06-01T20:57:06Z</time>
      </trkpt>
      <trkpt lat="48.85625" lon="2.35694">
        <ele>53.400001525879</ele>
        <time>2015-06-01T20:57:08Z</time>
      </trkpt>
      <trkpt lat="48.85628" lon="2.35676">
        <ele>53.400001525879</ele>
        <time>2015-06-01T20:57:10Z</time>
      </trkpt>
      <trkpt lat="48.85636" lon="2.35638">
        <ele>52.599998474121</ele>
        <time>2015-06-01T20:57:15Z</time>
      </trkpt>
      <trkpt lat="48.85638" lon="2.35624">
        <ele>52.400001525879</ele>
        <time>2015-06-01T20:57:17Z</time>
      </trkpt>
      <trkpt lat="48.85641" lon="2.35611">
        <ele>52.20000076294</ele>
        <time>2015-06-01T20:57:19Z</time>
      </trkpt>
      <trkpt lat="48.85645" lon="2.35598">
        <ele>52</ele>
        <time>2015-06-01T20:57:21Z</time>
      </trkpt>
      <trkpt lat="48.85653" lon="2.35561">
        <ele>51.79999923706</ele>
        <time>2015-06-01T20:57:27Z</time>
      </trkpt>
      <trkpt lat="48.85654" lon="2.35555">
        <ele>51.79999923706</ele>
        <time>2015-06-01T20:57:28Z</time>
      </trkpt>
      <trkpt lat="48.8566" lon="2.3553">
        <ele>51.599998474121</ele>
        <time>2015-06-01T20:57:32Z</time>
      </trkpt>
      <trkpt lat="48.85666" lon="2.35503">
        <ele>51</ele>
        <time>2015-06-01T20:57:36Z</time>
      </trkpt>
      <trkpt lat="48.85672" lon="2.35485">
        <ele>50.599998474121</ele>
        <time>2015-06-01T20:57:39Z</time>
      </trkpt>
      <trkpt lat="48.85678" lon="2.35459">
        <ele>50.20000076294</ele>
        <time>2015-06-01T20:57:43Z</time>
      </trkpt>
      <trkpt lat="48.85681" lon="2.35448">
        <ele>50</ele>
        <time>2015-06-01T20:57:45Z</time>
      </trkpt>
      <trkpt lat="48.85692" lon="2.35413">
        <ele>49.79999923706</ele>
        <time>2015-06-01T20:57:51Z</time>
      </trkpt>
      <trkpt lat="48.85698" lon="2.35385">
        <ele>49.599998474121</ele>
        <time>2015-06-01T20:57:56Z</time>
      </trkpt>
      <trkpt lat="48.85704" lon="2.35356">
        <ele>49.599998474121</ele>
        <time>2015-06-01T20:58:01Z</time>
      </trkpt>
      <trkpt lat="48.85709" lon="2.35329">
        <ele>49.599998474121</ele>
        <time>2015-06-01T20:58:05Z</time>
      </trkpt>
      <trkpt lat="48.85711" lon="2.35314">
        <ele>49.400001525879</ele>
        <time>2015-06-01T20:58:07Z</time>
      </trkpt>
      <trkpt lat="48.85719" lon="2.35278">
        <ele>49.400001525879</ele>
        <time>2015-06-01T20:58:12Z</time>
      </trkpt>
      <trkpt lat="48.85721" lon="2.35272">
        <ele>49.400001525879</ele>
        <time>2015-06-01T20:58:13Z</time>
      </trkpt>
      <trkpt lat="48.85723" lon="2.35258">
        <ele>49.400001525879</ele>
        <time>2015-06-01T20:58:15Z</time>
      </trkpt>
      <trkpt lat="48.85732" lon="2.35221">
        <ele>49.400001525879</ele>
        <time>2015-06-01T20:58:20Z</time>
      </trkpt>
      <trkpt lat="48.85737" lon="2.35191">
        <ele>49.400001525879</ele>
        <time>2015-06-01T20:58:24Z</time>
      </trkpt>
      <trkpt lat="48.85742" lon="2.35164">
        <ele>49.400001525879</ele>
        <time>2015-06-01T20:58:28Z</time>
      </trkpt>
      <trkpt lat="48.85748" lon="2.35141">
        <ele>49.400001525879</ele>
        <time>2015-06-01T20:58:32Z</time>
      </trkpt>
      <trkpt lat="48.8575" lon="2.35136">
        <ele>49.400001525879</ele>
        <time>2015-06-01T20:58:33Z</time>
      </trkpt>
      <trkpt lat="48.85756" lon="2.35122">
        <ele>49.400001525879</ele>
        <time>2015-06-01T20:58:37Z</time>
      </trkpt>
      <trkpt lat="48.85764" lon="2.35093">
        <ele>49.400001525879</ele>
        <time>2015-06-01T20:58:42Z</time>
      </trkpt>
      <trkpt lat="48.8577" lon="2.35064">
        <ele>49.400001525879</ele>
        <time>2015-06-01T20:58:46Z</time>
      </trkpt>
      <trkpt lat="48.85773" lon="2.35056">
        <ele>49.400001525879</ele>
        <time>2015-06-01T20:58:47Z</time>
      </trkpt>
      <trkpt lat="48.85782" lon="2.35033">
        <ele>49.400001525879</ele>
        <time>2015-06-01T20:58:50Z</time>
      </trkpt>
      <trkpt lat="48.85792" lon="2.35">
        <ele>49.400001525879</ele>
        <time>2015-06-01T20:58:55Z</time>
      </trkpt>
      <trkpt lat="48.85795" lon="2.34994">
        <ele>49.400001525879</ele>
        <time>2015-06-01T20:58:56Z</time>
      </trkpt>
      <trkpt lat="48.85804" lon="2.34971">
        <ele>49.400001525879</ele>
        <time>2015-06-01T20:59:00Z</time>
      </trkpt>
      <trkpt lat="48.85815" lon="2.34936">
        <ele>49.599998474121</ele>
        <time>2015-06-01T20:59:06Z</time>
      </trkpt>
      <trkpt lat="48.8582" lon="2.34918">
        <ele>50.20000076294</ele>
        <time>2015-06-01T20:59:09Z</time>
      </trkpt>
      <trkpt lat="48.85828" lon="2.34893">
        <ele>50.599998474121</ele>
        <time>2015-06-01T20:59:13Z</time>
      </trkpt>
      <trkpt lat="48.85838" lon="2.34858">
        <ele>51</ele>
        <time>2015-06-01T20:59:19Z</time>
      </trkpt>
      <trkpt lat="48.8584" lon="2.34852">
        <ele>51</ele>
        <time>2015-06-01T20:59:20Z</time>
      </trkpt>
      <trkpt lat="48.8584" lon="2.34847">
        <ele>51</ele>
        <time>2015-06-01T20:59:21Z</time>
      </trkpt>
      <trkpt lat="48.85847" lon="2.34823">
        <ele>51.20000076294</ele>
        <time>2015-06-01T20:59:27Z</time>
      </trkpt>
      <trkpt lat="48.85847" lon="2.34821">
        <ele>51.20000076294</ele>
        <time>2015-06-01T20:59:28Z</time>
      </trkpt>
      <trkpt lat="48.85848" lon="2.34819">
        <ele>51.20000076294</ele>
        <time>2015-06-01T20:59:29Z</time>
      </trkpt>
      <trkpt lat="48.85853" lon="2.34811">
        <ele>51.400001525879</ele>
        <time>2015-06-01T20:59:33Z</time>
      </trkpt>
      <trkpt lat="48.8586" lon="2.34789">
        <ele>51.400001525879</ele>
        <time>2015-06-01T20:59:39Z</time>
      </trkpt>
      <trkpt lat="48.85867" lon="2.34772">
        <ele>51.400001525879</ele>
        <time>2015-06-01T20:59:43Z</time>
      </trkpt>
      <trkpt lat="48.85874" lon="2.3475">
        <ele>51.400001525879</ele>
        <time>2015-06-01T20:59:48Z</time>
      </trkpt>
      <trkpt lat="48.85875" lon="2.34746">
        <ele>51.400001525879</ele>
        <time>2015-06-01T20:59:49Z</time>
      </trkpt>
      <trkpt lat="48.85878" lon="2.34739">
        <ele>51.79999923706</ele>
        <time>2015-06-01T20:59:51Z</time>
      </trkpt>
      <trkpt lat="48.85896" lon="2.34729">
        <ele>52.79999923706</ele>
        <time>2015-06-01T20:59:57Z</time>
      </trkpt>
      <trkpt lat="48.85912" lon="2.34714">
        <ele>54</ele>
        <time>2015-06-01T21:00:02Z</time>
      </trkpt>
      <trkpt lat="48.85926" lon="2.34702">
        <ele>55.599998474121</ele>
        <time>2015-06-01T21:00:08Z</time>
      </trkpt>
      <trkpt lat="48.85936" lon="2.34702">
        <ele>56.400001525879</ele>
        <time>2015-06-01T21:00:12Z</time>
      </trkpt>
      <trkpt lat="48.85938" lon="2.34703">
        <ele>56.79999923706</ele>
        <time>2015-06-01T21:00:13Z</time>
      </trkpt>
      <trkpt lat="48.85944" lon="2.34713">
        <ele>58.20000076294</ele>
        <time>2015-06-01T21:00:19Z</time>
      </trkpt>
      <trkpt lat="48.85944" lon="2.34715">
        <ele>58.400001525879</ele>
        <time>2015-06-01T21:00:20Z</time>
      </trkpt>
      <trkpt lat="48.85944" lon="2.34716">
        <ele>58.79999923706</ele>
        <time>2015-06-01T21:00:21Z</time>
      </trkpt>
      <trkpt lat="48.85947" lon="2.34716">
        <ele>60</ele>
        <time>2015-06-01T21:00:25Z</time>
      </trkpt>
      <trkpt lat="48.8595" lon="2.34715">
        <ele>61.599998474121</ele>
        <time>2015-06-01T21:00:30Z</time>
      </trkpt>
      <trkpt lat="48.85952" lon="2.34715">
        <ele>63</ele>
        <time>2015-06-01T21:00:34Z</time>
      </trkpt>
      <trkpt lat="48.85952" lon="2.34715">
        <ele>63.400001525879</ele>
        <time>2015-06-01T21:00:35Z</time>
      </trkpt>
      <trkpt lat="48.85956" lon="2.34718">
        <ele>66.199996948242</ele>
        <time>2015-06-01T21:00:44Z</time>
      </trkpt>
      <trkpt lat="48.85957" lon="2.34718">
        <ele>66.599998474121</ele>
        <time>2015-06-01T21:00:46Z</time>
      </trkpt>
      <trkpt lat="48.86226" lon="2.35063">
        <ele>81.599998474121</ele>
        <time>2015-06-01T21:50:42Z</time>
      </trkpt>
      <trkpt lat="48.86238" lon="2.35069">
        <ele>81.599998474121</ele>
        <time>2015-06-01T21:50:45Z</time>
      </trkpt>
      <trkpt lat="48.8626" lon="2.35078">
        <ele>81.599998474121</ele>
        <time>2015-06-01T21:50:49Z</time>
      </trkpt>
      <trkpt lat="48.86271" lon="2.35082">
        <ele>81.599998474121</ele>
        <time>2015-06-01T21:50:51Z</time>
      </trkpt>
      <trkpt lat="48.8629" lon="2.35089">
        <ele>81.599998474121</ele>
        <time>2015-06-01T21:50:55Z</time>
      </trkpt>
      <trkpt lat="48.86313" lon="2.351">
        <ele>81.599998474121</ele>
        <time>2015-06-01T21:50:59Z</time>
      </trkpt>
      <trkpt lat="48.86329" lon="2.35108">
        <ele>81.599998474121</ele>
        <time>2015-06-01T21:51:03Z</time>
      </trkpt>
      <trkpt lat="48.86333" lon="2.35108">
        <ele>81.599998474121</ele>
        <time>2015-06-01T21:51:04Z</time>
      </trkpt>
      <trkpt lat="48.86338" lon="2.35109">
        <ele>81.599998474121</ele>
        <time>2015-06-01T21:51:05Z</time>
      </trkpt>
      <trkpt lat="48.8636" lon="2.35118">
        <ele>82.199996948242</ele>
        <time>2015-06-01T21:51:10Z</time>
      </trkpt>
      <trkpt lat="48.8638" lon="2.35125">
        <ele>82.800003051758</ele>
        <time>2015-06-01T21:51:14Z</time>
      </trkpt>
      <trkpt lat="48.86385" lon="2.35128">
        <ele>82.800003051758</ele>
        <time>2015-06-01T21:51:15Z</time>
      </trkpt>
      <trkpt lat="48.8641" lon="2.35141">
        <ele>83.400001525879</ele>
        <time>2015-06-01T21:51:20Z</time>
      </trkpt>
      <trkpt lat="48.86425" lon="2.35149">
        <ele>84.199996948242</ele>
        <time>2015-06-01T21:51:23Z</time>
      </trkpt>
      <trkpt lat="48.86449" lon="2.35168">
        <ele>84.800003051758</ele>
        <time>2015-06-01T21:51:27Z</time>
      </trkpt>
      <trkpt lat="48.86462" lon="2.35197">
        <ele>85.199996948242</ele>
        <time>2015-06-01T21:51:32Z</time>
      </trkpt>
      <trkpt lat="48.86465" lon="2.35203">
        <ele>85.199996948242</ele>
        <time>2015-06-01T21:51:33Z</time>
      </trkpt>
      <trkpt lat="48.86472" lon="2.35215">
        <ele>85.400001525879</ele>
        <time>2015-06-01T21:51:35Z</time>
      </trkpt>
      <trkpt lat="48.86478" lon="2.35226">
        <ele>85.599998474121</ele>
        <time>2015-06-01T21:51:37Z</time>
      </trkpt>
      <trkpt lat="48.86486" lon="2.35243">
        <ele>85.400001525879</ele>
        <time>2015-06-01T21:51:40Z</time>
      </trkpt>
      <trkpt lat="48.8649" lon="2.35271">
        <ele>84.599998474121</ele>
        <time>2015-06-01T21:51:45Z</time>
      </trkpt>
      <trkpt lat="48.86494" lon="2.35289">
        <ele>84</ele>
        <time>2015-06-01T21:51:48Z</time>
      </trkpt>
      <trkpt lat="48.86494" lon="2.35307">
        <ele>83.400001525879</ele>
        <time>2015-06-01T21:51:51Z</time>
      </trkpt>
      <trkpt lat="48.86503" lon="2.3533">
        <ele>81.599998474121</ele>
        <time>2015-06-01T21:51:57Z</time>
      </trkpt>
      <trkpt lat="48.86518" lon="2.35347">
        <ele>79.599998474121</ele>
        <time>2015-06-01T21:52:03Z</time>
      </trkpt>
      <trkpt lat="48.86535" lon="2.3536">
        <ele>78.599998474121</ele>
        <time>2015-06-01T21:52:09Z</time>
      </trkpt>
      <trkpt lat="48.86545" lon="2.35358">
        <ele>77.400001525879</ele>
        <time>2015-06-01T21:52:14Z</time>
      </trkpt>
      <trkpt lat="48.86557" lon="2.35356">
        <ele>76.400001525879</ele>
        <time>2015-06-01T21:52:20Z</time>
      </trkpt>
      <trkpt lat="48.8656" lon="2.35357">
        <ele>76</ele>
        <time>2015-06-01T21:52:22Z</time>
      </trkpt>
      <trkpt lat="48.86562" lon="2.35358">
        <ele>75.800003051758</ele>
        <time>2015-06-01T21:52:25Z</time>
      </trkpt>
    </trkseg>
  </trk>
</gpx>